<?xml version="1.0" encoding="UTF-8" standalone="no" ?>
<gpx xmlns="http://www.topografix.com/GPX/1/1" xmlns:xsi="http://www.w3.org/2001/XMLSchema-instance" xsi:schemaLocation="http://www.topografix.com/GPX/1/1 http://www.topografix.com/GPX/1/1/gpx.xsd" version="1.1" creator="VisuGPX - https://www.visugpx.com">
  <metadata>
    <name>ballade 06-06-2021</name>
  </metadata>
  <trk>
    <name><![CDATA[Anglet]]></name>
    <trkseg>
      <trkpt lat="43.47431" lon="-1.52683">
        <ele>67.07</ele>
        <time>2021-06-05T20:37:52Z</time>
      </trkpt>
      <trkpt lat="43.47449" lon="-1.52714">
        <ele>66.39</ele>
        <time>2021-06-05T20:37:58Z</time>
      </trkpt>
      <trkpt lat="43.47467" lon="-1.52733">
        <ele>64.29</ele>
        <time>2021-06-05T20:38:04Z</time>
      </trkpt>
      <trkpt lat="43.47482" lon="-1.5274">
        <ele>60.74</ele>
        <time>2021-06-05T20:38:10Z</time>
      </trkpt>
      <trkpt lat="43.47492" lon="-1.52739">
        <ele>58.04</ele>
        <time>2021-06-05T20:38:16Z</time>
      </trkpt>
      <trkpt lat="43.47498" lon="-1.52735">
        <ele>56.54</ele>
        <time>2021-06-05T20:38:22Z</time>
      </trkpt>
      <trkpt lat="43.47525" lon="-1.52642">
        <ele>47.31</ele>
        <time>2021-06-05T20:38:28Z</time>
      </trkpt>
      <trkpt lat="43.47529" lon="-1.52638">
        <ele>46.9</ele>
        <time>2021-06-05T20:38:34Z</time>
      </trkpt>
      <trkpt lat="43.47606" lon="-1.52625">
        <ele>39.59</ele>
        <time>2021-06-05T20:38:40Z</time>
      </trkpt>
      <trkpt lat="43.4766" lon="-1.52633">
        <ele>41.31</ele>
        <time>2021-06-05T20:38:46Z</time>
      </trkpt>
      <trkpt lat="43.47741" lon="-1.52447">
        <ele>35.76</ele>
        <time>2021-06-05T20:38:53Z</time>
      </trkpt>
      <trkpt lat="43.47753" lon="-1.52431">
        <ele>34.97</ele>
        <time>2021-06-05T20:39:00Z</time>
      </trkpt>
      <trkpt lat="43.47763" lon="-1.52409">
        <ele>33.43</ele>
        <time>2021-06-05T20:39:06Z</time>
      </trkpt>
      <trkpt lat="43.47762" lon="-1.52402">
        <ele>33.36</ele>
        <time>2021-06-05T20:39:11Z</time>
      </trkpt>
      <trkpt lat="43.47768" lon="-1.52379">
        <ele>32.34</ele>
        <time>2021-06-05T20:39:16Z</time>
      </trkpt>
      <trkpt lat="43.47772" lon="-1.52373">
        <ele>31.83</ele>
        <time>2021-06-05T20:39:20Z</time>
      </trkpt>
      <trkpt lat="43.47778" lon="-1.5237">
        <ele>31.34</ele>
        <time>2021-06-05T20:39:25Z</time>
      </trkpt>
      <trkpt lat="43.47791" lon="-1.52344">
        <ele>30.39</ele>
        <time>2021-06-05T20:39:30Z</time>
      </trkpt>
      <trkpt lat="43.478" lon="-1.52311">
        <ele>29.83</ele>
        <time>2021-06-05T20:39:35Z</time>
      </trkpt>
      <trkpt lat="43.47814" lon="-1.52274">
        <ele>31.09</ele>
        <time>2021-06-05T20:39:39Z</time>
      </trkpt>
      <trkpt lat="43.47869" lon="-1.5215">
        <ele>29.39</ele>
        <time>2021-06-05T20:39:44Z</time>
      </trkpt>
      <trkpt lat="43.479" lon="-1.52074">
        <ele>27.73</ele>
        <time>2021-06-05T20:39:49Z</time>
      </trkpt>
      <trkpt lat="43.47927" lon="-1.52005">
        <ele>29.21</ele>
        <time>2021-06-05T20:39:53Z</time>
      </trkpt>
      <trkpt lat="43.47978" lon="-1.51786">
        <ele>28.16</ele>
        <time>2021-06-05T20:39:58Z</time>
      </trkpt>
      <trkpt lat="43.47989" lon="-1.51734">
        <ele>25.66</ele>
        <time>2021-06-05T20:40:03Z</time>
      </trkpt>
      <trkpt lat="43.48014" lon="-1.51623">
        <ele>22</ele>
        <time>2021-06-05T20:40:08Z</time>
      </trkpt>
      <trkpt lat="43.4802" lon="-1.51602">
        <ele>21.91</ele>
        <time>2021-06-05T20:40:12Z</time>
      </trkpt>
      <trkpt lat="43.48018" lon="-1.51588">
        <ele>21.71</ele>
        <time>2021-06-05T20:40:17Z</time>
      </trkpt>
      <trkpt lat="43.48026" lon="-1.51548">
        <ele>21.89</ele>
        <time>2021-06-05T20:40:22Z</time>
      </trkpt>
      <trkpt lat="43.48032" lon="-1.51524">
        <ele>22.04</ele>
        <time>2021-06-05T20:40:27Z</time>
      </trkpt>
      <trkpt lat="43.48052" lon="-1.51459">
        <ele>21.44</ele>
        <time>2021-06-05T20:40:32Z</time>
      </trkpt>
      <trkpt lat="43.48081" lon="-1.51336">
        <ele>16.09</ele>
        <time>2021-06-05T20:40:37Z</time>
      </trkpt>
      <trkpt lat="43.48079" lon="-1.51318">
        <ele>16</ele>
        <time>2021-06-05T20:40:42Z</time>
      </trkpt>
      <trkpt lat="43.48079" lon="-1.51309">
        <ele>16</ele>
        <time>2021-06-05T20:40:47Z</time>
      </trkpt>
      <trkpt lat="43.48132" lon="-1.51074">
        <ele>15.64</ele>
        <time>2021-06-05T20:40:53Z</time>
      </trkpt>
      <trkpt lat="43.48135" lon="-1.51037">
        <ele>14.34</ele>
        <time>2021-06-05T20:40:58Z</time>
      </trkpt>
      <trkpt lat="43.48156" lon="-1.50957">
        <ele>12.07</ele>
        <time>2021-06-05T20:41:03Z</time>
      </trkpt>
      <trkpt lat="43.48118" lon="-1.50924">
        <ele>10.42</ele>
        <time>2021-06-05T20:41:05Z</time>
      </trkpt>
      <trkpt lat="43.48109" lon="-1.50919">
        <ele>10.26</ele>
        <time>2021-06-05T20:41:08Z</time>
      </trkpt>
      <trkpt lat="43.48097" lon="-1.50916">
        <ele>11.05</ele>
        <time>2021-06-05T20:41:11Z</time>
      </trkpt>
      <trkpt lat="43.48062" lon="-1.50919">
        <ele>12.78</ele>
        <time>2021-06-05T20:41:14Z</time>
      </trkpt>
      <trkpt lat="43.48037" lon="-1.50923">
        <ele>11.8</ele>
        <time>2021-06-05T20:41:16Z</time>
      </trkpt>
      <trkpt lat="43.48036" lon="-1.50931">
        <ele>11.97</ele>
        <time>2021-06-05T20:41:20Z</time>
      </trkpt>
      <trkpt lat="43.48031" lon="-1.50938">
        <ele>11.91</ele>
        <time>2021-06-05T20:41:23Z</time>
      </trkpt>
      <trkpt lat="43.48024" lon="-1.50938">
        <ele>11.8</ele>
        <time>2021-06-05T20:41:26Z</time>
      </trkpt>
      <trkpt lat="43.48018" lon="-1.50931">
        <ele>11.67</ele>
        <time>2021-06-05T20:41:30Z</time>
      </trkpt>
      <trkpt lat="43.48017" lon="-1.50924">
        <ele>11.53</ele>
        <time>2021-06-05T20:41:33Z</time>
      </trkpt>
      <trkpt lat="43.48019" lon="-1.50917">
        <ele>11.32</ele>
        <time>2021-06-05T20:41:37Z</time>
      </trkpt>
      <trkpt lat="43.48016" lon="-1.50899">
        <ele>12.07</ele>
        <time>2021-06-05T20:41:40Z</time>
      </trkpt>
      <trkpt lat="43.4801" lon="-1.5088">
        <ele>13.43</ele>
        <time>2021-06-05T20:41:43Z</time>
      </trkpt>
      <trkpt lat="43.48005" lon="-1.50854">
        <ele>15.79</ele>
        <time>2021-06-05T20:41:47Z</time>
      </trkpt>
      <trkpt lat="43.47995" lon="-1.50762">
        <ele>19.24</ele>
        <time>2021-06-05T20:41:50Z</time>
      </trkpt>
      <trkpt lat="43.47954" lon="-1.50616">
        <ele>21.11</ele>
        <time>2021-06-05T20:41:54Z</time>
      </trkpt>
      <trkpt lat="43.47939" lon="-1.50569">
        <ele>20.5</ele>
        <time>2021-06-05T20:41:57Z</time>
      </trkpt>
      <trkpt lat="43.47925" lon="-1.50538">
        <ele>19.76</ele>
        <time>2021-06-05T20:42:00Z</time>
      </trkpt>
      <trkpt lat="43.47909" lon="-1.50515">
        <ele>18.3</ele>
        <time>2021-06-05T20:42:04Z</time>
      </trkpt>
      <trkpt lat="43.47886" lon="-1.50494">
        <ele>15.92</ele>
        <time>2021-06-05T20:42:07Z</time>
      </trkpt>
      <trkpt lat="43.47866" lon="-1.50486">
        <ele>15.59</ele>
        <time>2021-06-05T20:42:11Z</time>
      </trkpt>
      <trkpt lat="43.47839" lon="-1.50479">
        <ele>15.16</ele>
        <time>2021-06-05T20:42:14Z</time>
      </trkpt>
      <trkpt lat="43.47826" lon="-1.5047">
        <ele>15.18</ele>
        <time>2021-06-05T20:42:17Z</time>
      </trkpt>
      <trkpt lat="43.47795" lon="-1.5046">
        <ele>15.9</ele>
        <time>2021-06-05T20:42:21Z</time>
      </trkpt>
      <trkpt lat="43.47765" lon="-1.50441">
        <ele>17.28</ele>
        <time>2021-06-05T20:42:24Z</time>
      </trkpt>
      <trkpt lat="43.47679" lon="-1.50378">
        <ele>21.26</ele>
        <time>2021-06-05T20:42:27Z</time>
      </trkpt>
      <trkpt lat="43.47663" lon="-1.50362">
        <ele>22.44</ele>
        <time>2021-06-05T20:42:31Z</time>
      </trkpt>
      <trkpt lat="43.47645" lon="-1.50337">
        <ele>26.05</ele>
        <time>2021-06-05T20:42:34Z</time>
      </trkpt>
      <trkpt lat="43.4764" lon="-1.50324">
        <ele>27.25</ele>
        <time>2021-06-05T20:42:38Z</time>
      </trkpt>
      <trkpt lat="43.47625" lon="-1.50269">
        <ele>29</ele>
        <time>2021-06-05T20:42:41Z</time>
      </trkpt>
      <trkpt lat="43.47619" lon="-1.50253">
        <ele>29</ele>
        <time>2021-06-05T20:42:44Z</time>
      </trkpt>
      <trkpt lat="43.47609" lon="-1.50232">
        <ele>28.21</ele>
        <time>2021-06-05T20:42:48Z</time>
      </trkpt>
      <trkpt lat="43.476" lon="-1.50217">
        <ele>27.06</ele>
        <time>2021-06-05T20:42:51Z</time>
      </trkpt>
      <trkpt lat="43.47571" lon="-1.50181">
        <ele>25.57</ele>
        <time>2021-06-05T20:42:55Z</time>
      </trkpt>
      <trkpt lat="43.47534" lon="-1.50141">
        <ele>26.75</ele>
        <time>2021-06-05T20:42:58Z</time>
      </trkpt>
      <trkpt lat="43.47492" lon="-1.50098">
        <ele>27.43</ele>
        <time>2021-06-05T20:43:01Z</time>
      </trkpt>
      <trkpt lat="43.47456" lon="-1.50063">
        <ele>27.14</ele>
        <time>2021-06-05T20:43:05Z</time>
      </trkpt>
      <trkpt lat="43.47444" lon="-1.50054">
        <ele>28.03</ele>
        <time>2021-06-05T20:43:08Z</time>
      </trkpt>
      <trkpt lat="43.47438" lon="-1.50059">
        <ele>28</ele>
        <time>2021-06-05T20:43:12Z</time>
      </trkpt>
      <trkpt lat="43.47433" lon="-1.50059">
        <ele>28.18</ele>
        <time>2021-06-05T20:43:16Z</time>
      </trkpt>
      <trkpt lat="43.47429" lon="-1.50057">
        <ele>28.51</ele>
        <time>2021-06-05T20:43:20Z</time>
      </trkpt>
      <trkpt lat="43.47425" lon="-1.50049">
        <ele>28.87</ele>
        <time>2021-06-05T20:43:24Z</time>
      </trkpt>
      <trkpt lat="43.47426" lon="-1.50038">
        <ele>29.07</ele>
        <time>2021-06-05T20:43:28Z</time>
      </trkpt>
      <trkpt lat="43.47287" lon="-1.49936">
        <ele>28.45</ele>
        <time>2021-06-05T20:43:32Z</time>
      </trkpt>
      <trkpt lat="43.47284" lon="-1.49939">
        <ele>28.62</ele>
        <time>2021-06-05T20:43:35Z</time>
      </trkpt>
      <trkpt lat="43.47278" lon="-1.49941">
        <ele>28.87</ele>
        <time>2021-06-05T20:43:39Z</time>
      </trkpt>
      <trkpt lat="43.47272" lon="-1.49938">
        <ele>28.97</ele>
        <time>2021-06-05T20:43:42Z</time>
      </trkpt>
      <trkpt lat="43.47268" lon="-1.4993">
        <ele>28.83</ele>
        <time>2021-06-05T20:43:45Z</time>
      </trkpt>
      <trkpt lat="43.47267" lon="-1.49923">
        <ele>28.61</ele>
        <time>2021-06-05T20:43:48Z</time>
      </trkpt>
      <trkpt lat="43.47269" lon="-1.49917">
        <ele>28.33</ele>
        <time>2021-06-05T20:43:51Z</time>
      </trkpt>
      <trkpt lat="43.47234" lon="-1.49904">
        <ele>29.13</ele>
        <time>2021-06-05T20:43:55Z</time>
      </trkpt>
      <trkpt lat="43.47203" lon="-1.49893">
        <ele>29.05</ele>
        <time>2021-06-05T20:43:58Z</time>
      </trkpt>
      <trkpt lat="43.4716" lon="-1.49885">
        <ele>28</ele>
        <time>2021-06-05T20:44:01Z</time>
      </trkpt>
      <trkpt lat="43.47134" lon="-1.49874">
        <ele>27.75</ele>
        <time>2021-06-05T20:44:04Z</time>
      </trkpt>
      <trkpt lat="43.4698" lon="-1.4979">
        <ele>21.56</ele>
        <time>2021-06-05T20:44:07Z</time>
      </trkpt>
      <trkpt lat="43.4693" lon="-1.4976">
        <ele>23.39</ele>
        <time>2021-06-05T20:44:10Z</time>
      </trkpt>
      <trkpt lat="43.46907" lon="-1.49752">
        <ele>22.84</ele>
        <time>2021-06-05T20:44:14Z</time>
      </trkpt>
      <trkpt lat="43.46887" lon="-1.49753">
        <ele>22.25</ele>
        <time>2021-06-05T20:44:17Z</time>
      </trkpt>
      <trkpt lat="43.46845" lon="-1.49761">
        <ele>19.67</ele>
        <time>2021-06-05T20:44:20Z</time>
      </trkpt>
      <trkpt lat="43.46817" lon="-1.49774">
        <ele>18.78</ele>
        <time>2021-06-05T20:44:23Z</time>
      </trkpt>
      <trkpt lat="43.46818" lon="-1.49786">
        <ele>19.35</ele>
        <time>2021-06-05T20:44:25Z</time>
      </trkpt>
      <trkpt lat="43.46816" lon="-1.49797">
        <ele>19.89</ele>
        <time>2021-06-05T20:44:27Z</time>
      </trkpt>
      <trkpt lat="43.46811" lon="-1.49806">
        <ele>20.21</ele>
        <time>2021-06-05T20:44:30Z</time>
      </trkpt>
      <trkpt lat="43.46806" lon="-1.4981">
        <ele>20.01</ele>
        <time>2021-06-05T20:44:32Z</time>
      </trkpt>
      <trkpt lat="43.468" lon="-1.49813">
        <ele>19.78</ele>
        <time>2021-06-05T20:44:34Z</time>
      </trkpt>
      <trkpt lat="43.46793" lon="-1.49812">
        <ele>19.55</ele>
        <time>2021-06-05T20:44:36Z</time>
      </trkpt>
      <trkpt lat="43.46787" lon="-1.49808">
        <ele>19.33</ele>
        <time>2021-06-05T20:44:38Z</time>
      </trkpt>
      <trkpt lat="43.4678" lon="-1.49799">
        <ele>19.05</ele>
        <time>2021-06-05T20:44:40Z</time>
      </trkpt>
      <trkpt lat="43.46778" lon="-1.49786">
        <ele>19</ele>
        <time>2021-06-05T20:44:42Z</time>
      </trkpt>
      <trkpt lat="43.46726" lon="-1.49754">
        <ele>19</ele>
        <time>2021-06-05T20:44:44Z</time>
      </trkpt>
      <trkpt lat="43.46715" lon="-1.49743">
        <ele>18.82</ele>
        <time>2021-06-05T20:44:47Z</time>
      </trkpt>
      <trkpt lat="43.46658" lon="-1.49675">
        <ele>25.18</ele>
        <time>2021-06-05T20:44:49Z</time>
      </trkpt>
      <trkpt lat="43.46625" lon="-1.49618">
        <ele>31.1</ele>
        <time>2021-06-05T20:44:51Z</time>
      </trkpt>
      <trkpt lat="43.46614" lon="-1.49595">
        <ele>32.33</ele>
        <time>2021-06-05T20:44:53Z</time>
      </trkpt>
      <trkpt lat="43.46588" lon="-1.49554">
        <ele>32.96</ele>
        <time>2021-06-05T20:44:55Z</time>
      </trkpt>
      <trkpt lat="43.46579" lon="-1.49552">
        <ele>32.72</ele>
        <time>2021-06-05T20:44:59Z</time>
      </trkpt>
      <trkpt lat="43.46571" lon="-1.49545">
        <ele>32.35</ele>
        <time>2021-06-05T20:45:02Z</time>
      </trkpt>
      <trkpt lat="43.46565" lon="-1.49536">
        <ele>32.1</ele>
        <time>2021-06-05T20:45:06Z</time>
      </trkpt>
      <trkpt lat="43.46543" lon="-1.49525">
        <ele>32.56</ele>
        <time>2021-06-05T20:45:09Z</time>
      </trkpt>
      <trkpt lat="43.46484" lon="-1.49536">
        <ele>31.15</ele>
        <time>2021-06-05T20:45:13Z</time>
      </trkpt>
      <trkpt lat="43.46367" lon="-1.49563">
        <ele>27.41</ele>
        <time>2021-06-05T20:45:16Z</time>
      </trkpt>
      <trkpt lat="43.46311" lon="-1.49578">
        <ele>26.3</ele>
        <time>2021-06-05T20:45:20Z</time>
      </trkpt>
      <trkpt lat="43.4629" lon="-1.49588">
        <ele>24.86</ele>
        <time>2021-06-05T20:45:23Z</time>
      </trkpt>
      <trkpt lat="43.46283" lon="-1.49601">
        <ele>24.36</ele>
        <time>2021-06-05T20:45:25Z</time>
      </trkpt>
      <trkpt lat="43.46272" lon="-1.49608">
        <ele>23.56</ele>
        <time>2021-06-05T20:45:26Z</time>
      </trkpt>
      <trkpt lat="43.46261" lon="-1.49606">
        <ele>22.66</ele>
        <time>2021-06-05T20:45:27Z</time>
      </trkpt>
      <trkpt lat="43.46256" lon="-1.49602">
        <ele>22.17</ele>
        <time>2021-06-05T20:45:29Z</time>
      </trkpt>
      <trkpt lat="43.4625" lon="-1.49595">
        <ele>21.46</ele>
        <time>2021-06-05T20:45:30Z</time>
      </trkpt>
      <trkpt lat="43.46236" lon="-1.49596">
        <ele>20.96</ele>
        <time>2021-06-05T20:45:32Z</time>
      </trkpt>
      <trkpt lat="43.46144" lon="-1.49616">
        <ele>23.16</ele>
        <time>2021-06-05T20:45:33Z</time>
      </trkpt>
      <trkpt lat="43.46111" lon="-1.49617">
        <ele>23.4</ele>
        <time>2021-06-05T20:45:34Z</time>
      </trkpt>
      <trkpt lat="43.46057" lon="-1.49613">
        <ele>25.01</ele>
        <time>2021-06-05T20:45:36Z</time>
      </trkpt>
      <trkpt lat="43.46052" lon="-1.49622">
        <ele>25.48</ele>
        <time>2021-06-05T20:45:39Z</time>
      </trkpt>
      <trkpt lat="43.46045" lon="-1.49629">
        <ele>25.78</ele>
        <time>2021-06-05T20:45:42Z</time>
      </trkpt>
      <trkpt lat="43.46037" lon="-1.49633">
        <ele>25.93</ele>
        <time>2021-06-05T20:45:45Z</time>
      </trkpt>
      <trkpt lat="43.46028" lon="-1.49634">
        <ele>26</ele>
        <time>2021-06-05T20:45:49Z</time>
      </trkpt>
      <trkpt lat="43.46022" lon="-1.49632">
        <ele>26.21</ele>
        <time>2021-06-05T20:45:52Z</time>
      </trkpt>
      <trkpt lat="43.46011" lon="-1.49624">
        <ele>26.61</ele>
        <time>2021-06-05T20:45:55Z</time>
      </trkpt>
      <trkpt lat="43.46004" lon="-1.49611">
        <ele>26.87</ele>
        <time>2021-06-05T20:45:58Z</time>
      </trkpt>
      <trkpt lat="43.46002" lon="-1.49603">
        <ele>27.2</ele>
        <time>2021-06-05T20:46:02Z</time>
      </trkpt>
      <trkpt lat="43.45992" lon="-1.49596">
        <ele>28.44</ele>
        <time>2021-06-05T20:46:05Z</time>
      </trkpt>
      <trkpt lat="43.45981" lon="-1.49592">
        <ele>29.68</ele>
        <time>2021-06-05T20:46:08Z</time>
      </trkpt>
      <trkpt lat="43.45805" lon="-1.49563">
        <ele>26.2</ele>
        <time>2021-06-05T20:46:11Z</time>
      </trkpt>
      <trkpt lat="43.45736" lon="-1.49549">
        <ele>15.06</ele>
        <time>2021-06-05T20:46:14Z</time>
      </trkpt>
      <trkpt lat="43.45441" lon="-1.4946">
        <ele>4.38</ele>
        <time>2021-06-05T20:46:18Z</time>
      </trkpt>
      <trkpt lat="43.45362" lon="-1.49434">
        <ele>4</ele>
        <time>2021-06-05T20:46:21Z</time>
      </trkpt>
      <trkpt lat="43.45272" lon="-1.49398">
        <ele>3.55</ele>
        <time>2021-06-05T20:46:24Z</time>
      </trkpt>
      <trkpt lat="43.45159" lon="-1.49344">
        <ele>5.16</ele>
        <time>2021-06-05T20:46:27Z</time>
      </trkpt>
      <trkpt lat="43.45085" lon="-1.49306">
        <ele>4.12</ele>
        <time>2021-06-05T20:46:31Z</time>
      </trkpt>
      <trkpt lat="43.44971" lon="-1.4925">
        <ele>7.38</ele>
        <time>2021-06-05T20:46:34Z</time>
      </trkpt>
      <trkpt lat="43.44775" lon="-1.49157">
        <ele>25.41</ele>
        <time>2021-06-05T20:46:37Z</time>
      </trkpt>
      <trkpt lat="43.44733" lon="-1.49134">
        <ele>28.24</ele>
        <time>2021-06-05T20:46:40Z</time>
      </trkpt>
      <trkpt lat="43.44681" lon="-1.49099">
        <ele>32.96</ele>
        <time>2021-06-05T20:46:44Z</time>
      </trkpt>
      <trkpt lat="43.44651" lon="-1.49077">
        <ele>33.74</ele>
        <time>2021-06-05T20:46:47Z</time>
      </trkpt>
      <trkpt lat="43.44563" lon="-1.49004">
        <ele>39.68</ele>
        <time>2021-06-05T20:46:50Z</time>
      </trkpt>
      <trkpt lat="43.44505" lon="-1.48963">
        <ele>41.51</ele>
        <time>2021-06-05T20:46:53Z</time>
      </trkpt>
      <trkpt lat="43.44449" lon="-1.48931">
        <ele>40.5</ele>
        <time>2021-06-05T20:46:56Z</time>
      </trkpt>
      <trkpt lat="43.44372" lon="-1.48894">
        <ele>47.71</ele>
        <time>2021-06-05T20:47:00Z</time>
      </trkpt>
      <trkpt lat="43.44332" lon="-1.48879">
        <ele>50.68</ele>
        <time>2021-06-05T20:47:03Z</time>
      </trkpt>
      <trkpt lat="43.44277" lon="-1.48862">
        <ele>51.03</ele>
        <time>2021-06-05T20:47:06Z</time>
      </trkpt>
      <trkpt lat="43.44204" lon="-1.48848">
        <ele>50.37</ele>
        <time>2021-06-05T20:47:09Z</time>
      </trkpt>
      <trkpt lat="43.44135" lon="-1.4884">
        <ele>49.09</ele>
        <time>2021-06-05T20:47:13Z</time>
      </trkpt>
      <trkpt lat="43.44089" lon="-1.48837">
        <ele>47.34</ele>
        <time>2021-06-05T20:47:16Z</time>
      </trkpt>
      <trkpt lat="43.43957" lon="-1.48838">
        <ele>45.93</ele>
        <time>2021-06-05T20:47:19Z</time>
      </trkpt>
      <trkpt lat="43.43926" lon="-1.48843">
        <ele>46.23</ele>
        <time>2021-06-05T20:47:22Z</time>
      </trkpt>
      <trkpt lat="43.43918" lon="-1.48848">
        <ele>46.51</ele>
        <time>2021-06-05T20:47:26Z</time>
      </trkpt>
      <trkpt lat="43.43908" lon="-1.48859">
        <ele>46.95</ele>
        <time>2021-06-05T20:47:29Z</time>
      </trkpt>
      <trkpt lat="43.43902" lon="-1.48861">
        <ele>46.99</ele>
        <time>2021-06-05T20:47:32Z</time>
      </trkpt>
      <trkpt lat="43.43894" lon="-1.48861">
        <ele>46.99</ele>
        <time>2021-06-05T20:47:35Z</time>
      </trkpt>
      <trkpt lat="43.43887" lon="-1.48858">
        <ele>47</ele>
        <time>2021-06-05T20:47:38Z</time>
      </trkpt>
      <trkpt lat="43.43881" lon="-1.48853">
        <ele>47</ele>
        <time>2021-06-05T20:47:41Z</time>
      </trkpt>
      <trkpt lat="43.43869" lon="-1.48843">
        <ele>47</ele>
        <time>2021-06-05T20:47:44Z</time>
      </trkpt>
      <trkpt lat="43.43858" lon="-1.48841">
        <ele>46.92</ele>
        <time>2021-06-05T20:47:47Z</time>
      </trkpt>
      <trkpt lat="43.43682" lon="-1.48855">
        <ele>46</ele>
        <time>2021-06-05T20:47:50Z</time>
      </trkpt>
      <trkpt lat="43.43579" lon="-1.48872">
        <ele>42.94</ele>
        <time>2021-06-05T20:47:53Z</time>
      </trkpt>
      <trkpt lat="43.43535" lon="-1.48882">
        <ele>41.5</ele>
        <time>2021-06-05T20:47:56Z</time>
      </trkpt>
      <trkpt lat="43.43302" lon="-1.48952">
        <ele>42.09</ele>
        <time>2021-06-05T20:47:59Z</time>
      </trkpt>
      <trkpt lat="43.43272" lon="-1.48958">
        <ele>41.1</ele>
        <time>2021-06-05T20:48:02Z</time>
      </trkpt>
      <trkpt lat="43.43246" lon="-1.48962">
        <ele>41.58</ele>
        <time>2021-06-05T20:48:05Z</time>
      </trkpt>
      <trkpt lat="43.43219" lon="-1.48962">
        <ele>44.12</ele>
        <time>2021-06-05T20:48:08Z</time>
      </trkpt>
      <trkpt lat="43.43183" lon="-1.48956">
        <ele>44.14</ele>
        <time>2021-06-05T20:48:11Z</time>
      </trkpt>
      <trkpt lat="43.43153" lon="-1.48945">
        <ele>44.46</ele>
        <time>2021-06-05T20:48:14Z</time>
      </trkpt>
      <trkpt lat="43.42792" lon="-1.4878">
        <ele>47.53</ele>
        <time>2021-06-05T20:48:17Z</time>
      </trkpt>
      <trkpt lat="43.42763" lon="-1.48764">
        <ele>46.49</ele>
        <time>2021-06-05T20:48:20Z</time>
      </trkpt>
      <trkpt lat="43.42727" lon="-1.4874">
        <ele>47.2</ele>
        <time>2021-06-05T20:48:23Z</time>
      </trkpt>
      <trkpt lat="43.4272" lon="-1.48745">
        <ele>47.28</ele>
        <time>2021-06-05T20:48:26Z</time>
      </trkpt>
      <trkpt lat="43.42712" lon="-1.48746">
        <ele>47.5</ele>
        <time>2021-06-05T20:48:28Z</time>
      </trkpt>
      <trkpt lat="43.42705" lon="-1.48744">
        <ele>47.84</ele>
        <time>2021-06-05T20:48:30Z</time>
      </trkpt>
      <trkpt lat="43.42699" lon="-1.48739">
        <ele>48.25</ele>
        <time>2021-06-05T20:48:33Z</time>
      </trkpt>
      <trkpt lat="43.42692" lon="-1.48727">
        <ele>48.93</ele>
        <time>2021-06-05T20:48:35Z</time>
      </trkpt>
      <trkpt lat="43.42689" lon="-1.48712">
        <ele>49.18</ele>
        <time>2021-06-05T20:48:37Z</time>
      </trkpt>
      <trkpt lat="43.42681" lon="-1.48699">
        <ele>49.49</ele>
        <time>2021-06-05T20:48:40Z</time>
      </trkpt>
      <trkpt lat="43.42662" lon="-1.48682">
        <ele>50.62</ele>
        <time>2021-06-05T20:48:42Z</time>
      </trkpt>
      <trkpt lat="43.4262" lon="-1.4865">
        <ele>51.01</ele>
        <time>2021-06-05T20:48:44Z</time>
      </trkpt>
      <trkpt lat="43.4258" lon="-1.48626">
        <ele>49.46</ele>
        <time>2021-06-05T20:48:47Z</time>
      </trkpt>
      <trkpt lat="43.42555" lon="-1.48614">
        <ele>49</ele>
        <time>2021-06-05T20:48:49Z</time>
      </trkpt>
      <trkpt lat="43.42521" lon="-1.48602">
        <ele>49.17</ele>
        <time>2021-06-05T20:48:51Z</time>
      </trkpt>
      <trkpt lat="43.42461" lon="-1.48591">
        <ele>48.06</ele>
        <time>2021-06-05T20:48:54Z</time>
      </trkpt>
      <trkpt lat="43.42331" lon="-1.48582">
        <ele>44.92</ele>
        <time>2021-06-05T20:48:56Z</time>
      </trkpt>
      <trkpt lat="43.42284" lon="-1.48576">
        <ele>43.31</ele>
        <time>2021-06-05T20:48:58Z</time>
      </trkpt>
      <trkpt lat="43.42261" lon="-1.4857">
        <ele>43.16</ele>
        <time>2021-06-05T20:49:01Z</time>
      </trkpt>
      <trkpt lat="43.42215" lon="-1.48554">
        <ele>42.13</ele>
        <time>2021-06-05T20:49:03Z</time>
      </trkpt>
      <trkpt lat="43.42171" lon="-1.48534">
        <ele>40.44</ele>
        <time>2021-06-05T20:49:05Z</time>
      </trkpt>
      <trkpt lat="43.42149" lon="-1.48521">
        <ele>39.83</ele>
        <time>2021-06-05T20:49:08Z</time>
      </trkpt>
      <trkpt lat="43.42107" lon="-1.48492">
        <ele>38.29</ele>
        <time>2021-06-05T20:49:10Z</time>
      </trkpt>
      <trkpt lat="43.42066" lon="-1.48456">
        <ele>37.63</ele>
        <time>2021-06-05T20:49:12Z</time>
      </trkpt>
      <trkpt lat="43.42028" lon="-1.48416">
        <ele>42.97</ele>
        <time>2021-06-05T20:49:15Z</time>
      </trkpt>
      <trkpt lat="43.42011" lon="-1.48395">
        <ele>44.66</ele>
        <time>2021-06-05T20:49:17Z</time>
      </trkpt>
      <trkpt lat="43.41997" lon="-1.48376">
        <ele>44.69</ele>
        <time>2021-06-05T20:49:19Z</time>
      </trkpt>
      <trkpt lat="43.4199" lon="-1.4836">
        <ele>44.67</ele>
        <time>2021-06-05T20:49:21Z</time>
      </trkpt>
      <trkpt lat="43.41957" lon="-1.48308">
        <ele>45.61</ele>
        <time>2021-06-05T20:49:24Z</time>
      </trkpt>
      <trkpt lat="43.41936" lon="-1.48268">
        <ele>46.31</ele>
        <time>2021-06-05T20:49:26Z</time>
      </trkpt>
      <trkpt lat="43.41919" lon="-1.48231">
        <ele>47.66</ele>
        <time>2021-06-05T20:49:28Z</time>
      </trkpt>
      <trkpt lat="43.41859" lon="-1.48075">
        <ele>48.97</ele>
        <time>2021-06-05T20:49:31Z</time>
      </trkpt>
      <trkpt lat="43.41822" lon="-1.48003">
        <ele>48.22</ele>
        <time>2021-06-05T20:49:33Z</time>
      </trkpt>
      <trkpt lat="43.41797" lon="-1.47968">
        <ele>46.99</ele>
        <time>2021-06-05T20:49:35Z</time>
      </trkpt>
      <trkpt lat="43.4177" lon="-1.47942">
        <ele>45.1</ele>
        <time>2021-06-05T20:49:38Z</time>
      </trkpt>
      <trkpt lat="43.41729" lon="-1.47911">
        <ele>40.95</ele>
        <time>2021-06-05T20:49:40Z</time>
      </trkpt>
      <trkpt lat="43.41705" lon="-1.47899">
        <ele>37.65</ele>
        <time>2021-06-05T20:49:42Z</time>
      </trkpt>
      <trkpt lat="43.41645" lon="-1.47879">
        <ele>38.51</ele>
        <time>2021-06-05T20:49:45Z</time>
      </trkpt>
      <trkpt lat="43.41618" lon="-1.47867">
        <ele>40.28</ele>
        <time>2021-06-05T20:49:47Z</time>
      </trkpt>
      <trkpt lat="43.41595" lon="-1.47851">
        <ele>39.95</ele>
        <time>2021-06-05T20:49:49Z</time>
      </trkpt>
      <trkpt lat="43.41569" lon="-1.47827">
        <ele>36.26</ele>
        <time>2021-06-05T20:49:52Z</time>
      </trkpt>
      <trkpt lat="43.41544" lon="-1.47799">
        <ele>33.01</ele>
        <time>2021-06-05T20:49:54Z</time>
      </trkpt>
      <trkpt lat="43.41524" lon="-1.47766">
        <ele>30.72</ele>
        <time>2021-06-05T20:49:56Z</time>
      </trkpt>
      <trkpt lat="43.41504" lon="-1.4772">
        <ele>26.47</ele>
        <time>2021-06-05T20:49:59Z</time>
      </trkpt>
      <trkpt lat="43.41492" lon="-1.47688">
        <ele>24.7</ele>
        <time>2021-06-05T20:50:01Z</time>
      </trkpt>
      <trkpt lat="43.41449" lon="-1.4755">
        <ele>15.74</ele>
        <time>2021-06-05T20:50:03Z</time>
      </trkpt>
      <trkpt lat="43.41437" lon="-1.47517">
        <ele>12.81</ele>
        <time>2021-06-05T20:50:06Z</time>
      </trkpt>
      <trkpt lat="43.41409" lon="-1.47461">
        <ele>11.35</ele>
        <time>2021-06-05T20:50:08Z</time>
      </trkpt>
      <trkpt lat="43.41385" lon="-1.47425">
        <ele>11</ele>
        <time>2021-06-05T20:50:10Z</time>
      </trkpt>
      <trkpt lat="43.4137" lon="-1.47405">
        <ele>11.84</ele>
        <time>2021-06-05T20:50:13Z</time>
      </trkpt>
      <trkpt lat="43.41338" lon="-1.47372">
        <ele>12.89</ele>
        <time>2021-06-05T20:50:15Z</time>
      </trkpt>
      <trkpt lat="43.41227" lon="-1.47283">
        <ele>21.76</ele>
        <time>2021-06-05T20:50:17Z</time>
      </trkpt>
      <trkpt lat="43.41176" lon="-1.47239">
        <ele>24.92</ele>
        <time>2021-06-05T20:50:20Z</time>
      </trkpt>
      <trkpt lat="43.41148" lon="-1.47213">
        <ele>28.63</ele>
        <time>2021-06-05T20:50:22Z</time>
      </trkpt>
      <trkpt lat="43.41115" lon="-1.47176">
        <ele>32.38</ele>
        <time>2021-06-05T20:50:24Z</time>
      </trkpt>
      <trkpt lat="43.41097" lon="-1.4715">
        <ele>32.77</ele>
        <time>2021-06-05T20:50:27Z</time>
      </trkpt>
      <trkpt lat="43.41079" lon="-1.4712">
        <ele>34.87</ele>
        <time>2021-06-05T20:50:29Z</time>
      </trkpt>
      <trkpt lat="43.41033" lon="-1.4704">
        <ele>35.17</ele>
        <time>2021-06-05T20:50:31Z</time>
      </trkpt>
      <trkpt lat="43.41013" lon="-1.47011">
        <ele>33.14</ele>
        <time>2021-06-05T20:50:34Z</time>
      </trkpt>
      <trkpt lat="43.4098" lon="-1.46975">
        <ele>35.13</ele>
        <time>2021-06-05T20:50:36Z</time>
      </trkpt>
      <trkpt lat="43.40963" lon="-1.46962">
        <ele>36.54</ele>
        <time>2021-06-05T20:50:38Z</time>
      </trkpt>
      <trkpt lat="43.40941" lon="-1.46948">
        <ele>38.23</ele>
        <time>2021-06-05T20:50:41Z</time>
      </trkpt>
      <trkpt lat="43.40918" lon="-1.46938">
        <ele>38.53</ele>
        <time>2021-06-05T20:50:43Z</time>
      </trkpt>
      <trkpt lat="43.40844" lon="-1.46917">
        <ele>37.95</ele>
        <time>2021-06-05T20:50:45Z</time>
      </trkpt>
      <trkpt lat="43.4079" lon="-1.46908">
        <ele>38.5</ele>
        <time>2021-06-05T20:50:48Z</time>
      </trkpt>
      <trkpt lat="43.40785" lon="-1.46914">
        <ele>38.06</ele>
        <time>2021-06-05T20:50:50Z</time>
      </trkpt>
      <trkpt lat="43.40779" lon="-1.46917">
        <ele>37.84</ele>
        <time>2021-06-05T20:50:52Z</time>
      </trkpt>
      <trkpt lat="43.40772" lon="-1.46919">
        <ele>37.88</ele>
        <time>2021-06-05T20:50:55Z</time>
      </trkpt>
      <trkpt lat="43.40765" lon="-1.46917">
        <ele>38.38</ele>
        <time>2021-06-05T20:50:57Z</time>
      </trkpt>
      <trkpt lat="43.4076" lon="-1.46913">
        <ele>39.13</ele>
        <time>2021-06-05T20:50:59Z</time>
      </trkpt>
      <trkpt lat="43.40755" lon="-1.46907">
        <ele>40.16</ele>
        <time>2021-06-05T20:51:02Z</time>
      </trkpt>
      <trkpt lat="43.40751" lon="-1.46899">
        <ele>41.43</ele>
        <time>2021-06-05T20:51:04Z</time>
      </trkpt>
      <trkpt lat="43.4074" lon="-1.46896">
        <ele>42.76</ele>
        <time>2021-06-05T20:51:06Z</time>
      </trkpt>
      <trkpt lat="43.40662" lon="-1.46895">
        <ele>49.15</ele>
        <time>2021-06-05T20:51:09Z</time>
      </trkpt>
      <trkpt lat="43.40638" lon="-1.46889">
        <ele>49.89</ele>
        <time>2021-06-05T20:51:11Z</time>
      </trkpt>
      <trkpt lat="43.40603" lon="-1.46876">
        <ele>48.5</ele>
        <time>2021-06-05T20:51:13Z</time>
      </trkpt>
      <trkpt lat="43.40559" lon="-1.46855">
        <ele>45.76</ele>
        <time>2021-06-05T20:51:16Z</time>
      </trkpt>
      <trkpt lat="43.40285" lon="-1.46714">
        <ele>50.87</ele>
        <time>2021-06-05T20:51:18Z</time>
      </trkpt>
      <trkpt lat="43.40232" lon="-1.4668">
        <ele>46.29</ele>
        <time>2021-06-05T20:51:20Z</time>
      </trkpt>
      <trkpt lat="43.4021" lon="-1.46662">
        <ele>45.32</ele>
        <time>2021-06-05T20:51:23Z</time>
      </trkpt>
      <trkpt lat="43.40079" lon="-1.46529">
        <ele>49.67</ele>
        <time>2021-06-05T20:51:25Z</time>
      </trkpt>
      <trkpt lat="43.4005" lon="-1.46509">
        <ele>51.78</ele>
        <time>2021-06-05T20:51:27Z</time>
      </trkpt>
      <trkpt lat="43.40021" lon="-1.46499">
        <ele>52.85</ele>
        <time>2021-06-05T20:51:30Z</time>
      </trkpt>
      <trkpt lat="43.39989" lon="-1.46494">
        <ele>52.06</ele>
        <time>2021-06-05T20:51:32Z</time>
      </trkpt>
      <trkpt lat="43.3998" lon="-1.46494">
        <ele>51.75</ele>
        <time>2021-06-05T20:51:34Z</time>
      </trkpt>
      <trkpt lat="43.39972" lon="-1.46499">
        <ele>51.06</ele>
        <time>2021-06-05T20:51:37Z</time>
      </trkpt>
      <trkpt lat="43.39964" lon="-1.46501">
        <ele>50.58</ele>
        <time>2021-06-05T20:51:40Z</time>
      </trkpt>
      <trkpt lat="43.39955" lon="-1.46499">
        <ele>50.44</ele>
        <time>2021-06-05T20:51:43Z</time>
      </trkpt>
      <trkpt lat="43.39947" lon="-1.46493">
        <ele>50.38</ele>
        <time>2021-06-05T20:51:46Z</time>
      </trkpt>
      <trkpt lat="43.39942" lon="-1.46484">
        <ele>50.5</ele>
        <time>2021-06-05T20:51:49Z</time>
      </trkpt>
      <trkpt lat="43.39938" lon="-1.46474">
        <ele>50.72</ele>
        <time>2021-06-05T20:51:52Z</time>
      </trkpt>
      <trkpt lat="43.39937" lon="-1.46463">
        <ele>50.83</ele>
        <time>2021-06-05T20:51:55Z</time>
      </trkpt>
      <trkpt lat="43.39941" lon="-1.46444">
        <ele>51</ele>
        <time>2021-06-05T20:51:58Z</time>
      </trkpt>
      <trkpt lat="43.39946" lon="-1.46437">
        <ele>51.07</ele>
        <time>2021-06-05T20:52:01Z</time>
      </trkpt>
      <trkpt lat="43.39947" lon="-1.46414">
        <ele>51.2</ele>
        <time>2021-06-05T20:52:04Z</time>
      </trkpt>
      <trkpt lat="43.39947" lon="-1.46385">
        <ele>52.24</ele>
        <time>2021-06-05T20:52:06Z</time>
      </trkpt>
      <trkpt lat="43.39942" lon="-1.46371">
        <ele>52.65</ele>
        <time>2021-06-05T20:52:09Z</time>
      </trkpt>
      <trkpt lat="43.39915" lon="-1.4632">
        <ele>52.51</ele>
        <time>2021-06-05T20:52:12Z</time>
      </trkpt>
      <trkpt lat="43.39901" lon="-1.46289">
        <ele>51.74</ele>
        <time>2021-06-05T20:52:15Z</time>
      </trkpt>
      <trkpt lat="43.39879" lon="-1.46229">
        <ele>48.88</ele>
        <time>2021-06-05T20:52:18Z</time>
      </trkpt>
      <trkpt lat="43.39863" lon="-1.46199">
        <ele>47.22</ele>
        <time>2021-06-05T20:52:21Z</time>
      </trkpt>
      <trkpt lat="43.39835" lon="-1.46164">
        <ele>43.03</ele>
        <time>2021-06-05T20:52:24Z</time>
      </trkpt>
      <trkpt lat="43.39803" lon="-1.46135">
        <ele>43.66</ele>
        <time>2021-06-05T20:52:27Z</time>
      </trkpt>
      <trkpt lat="43.39678" lon="-1.46052">
        <ele>35.72</ele>
        <time>2021-06-05T20:52:30Z</time>
      </trkpt>
      <trkpt lat="43.39658" lon="-1.46041">
        <ele>31.29</ele>
        <time>2021-06-05T20:52:33Z</time>
      </trkpt>
      <trkpt lat="43.39547" lon="-1.46001">
        <ele>36.28</ele>
        <time>2021-06-05T20:52:36Z</time>
      </trkpt>
      <trkpt lat="43.39518" lon="-1.45987">
        <ele>40.17</ele>
        <time>2021-06-05T20:52:39Z</time>
      </trkpt>
      <trkpt lat="43.39488" lon="-1.45966">
        <ele>37.99</ele>
        <time>2021-06-05T20:52:41Z</time>
      </trkpt>
      <trkpt lat="43.39471" lon="-1.45951">
        <ele>35.85</ele>
        <time>2021-06-05T20:52:44Z</time>
      </trkpt>
      <trkpt lat="43.39448" lon="-1.45921">
        <ele>34.53</ele>
        <time>2021-06-05T20:52:47Z</time>
      </trkpt>
      <trkpt lat="43.39423" lon="-1.45885">
        <ele>32.94</ele>
        <time>2021-06-05T20:52:50Z</time>
      </trkpt>
      <trkpt lat="43.39337" lon="-1.45748">
        <ele>30.53</ele>
        <time>2021-06-05T20:52:53Z</time>
      </trkpt>
      <trkpt lat="43.39259" lon="-1.45634">
        <ele>30.16</ele>
        <time>2021-06-05T20:52:56Z</time>
      </trkpt>
      <trkpt lat="43.3924" lon="-1.45608">
        <ele>29.93</ele>
        <time>2021-06-05T20:52:59Z</time>
      </trkpt>
      <trkpt lat="43.39207" lon="-1.45573">
        <ele>30.73</ele>
        <time>2021-06-05T20:53:02Z</time>
      </trkpt>
      <trkpt lat="43.39179" lon="-1.45547">
        <ele>31.95</ele>
        <time>2021-06-05T20:53:05Z</time>
      </trkpt>
      <trkpt lat="43.39154" lon="-1.45518">
        <ele>32.72</ele>
        <time>2021-06-05T20:53:08Z</time>
      </trkpt>
      <trkpt lat="43.39141" lon="-1.45497">
        <ele>32.8</ele>
        <time>2021-06-05T20:53:11Z</time>
      </trkpt>
      <trkpt lat="43.39132" lon="-1.4548">
        <ele>33.24</ele>
        <time>2021-06-05T20:53:14Z</time>
      </trkpt>
      <trkpt lat="43.39099" lon="-1.45391">
        <ele>32</ele>
        <time>2021-06-05T20:53:17Z</time>
      </trkpt>
      <trkpt lat="43.39057" lon="-1.45297">
        <ele>28.11</ele>
        <time>2021-06-05T20:53:19Z</time>
      </trkpt>
      <trkpt lat="43.39042" lon="-1.45274">
        <ele>25.46</ele>
        <time>2021-06-05T20:53:22Z</time>
      </trkpt>
      <trkpt lat="43.3903" lon="-1.45258">
        <ele>23.83</ele>
        <time>2021-06-05T20:53:25Z</time>
      </trkpt>
      <trkpt lat="43.39013" lon="-1.45241">
        <ele>23.43</ele>
        <time>2021-06-05T20:53:28Z</time>
      </trkpt>
      <trkpt lat="43.39008" lon="-1.45247">
        <ele>24.24</ele>
        <time>2021-06-05T20:53:29Z</time>
      </trkpt>
      <trkpt lat="43.39004" lon="-1.45248">
        <ele>24.56</ele>
        <time>2021-06-05T20:53:29Z</time>
      </trkpt>
      <trkpt lat="43.38997" lon="-1.45246">
        <ele>24.89</ele>
        <time>2021-06-05T20:53:30Z</time>
      </trkpt>
      <trkpt lat="43.38994" lon="-1.45243">
        <ele>24.83</ele>
        <time>2021-06-05T20:53:30Z</time>
      </trkpt>
      <trkpt lat="43.38992" lon="-1.4524">
        <ele>24.61</ele>
        <time>2021-06-05T20:53:31Z</time>
      </trkpt>
      <trkpt lat="43.3899" lon="-1.45231">
        <ele>23.81</ele>
        <time>2021-06-05T20:53:31Z</time>
      </trkpt>
      <trkpt lat="43.38992" lon="-1.45221">
        <ele>22.89</ele>
        <time>2021-06-05T20:53:32Z</time>
      </trkpt>
      <trkpt lat="43.38994" lon="-1.45218">
        <ele>22.35</ele>
        <time>2021-06-05T20:53:33Z</time>
      </trkpt>
      <trkpt lat="43.38979" lon="-1.45199">
        <ele>19.72</ele>
        <time>2021-06-05T20:53:35Z</time>
      </trkpt>
      <trkpt lat="43.38946" lon="-1.45174">
        <ele>16.06</ele>
        <time>2021-06-05T20:53:38Z</time>
      </trkpt>
      <trkpt lat="43.38927" lon="-1.45164">
        <ele>15.42</ele>
        <time>2021-06-05T20:53:40Z</time>
      </trkpt>
      <trkpt lat="43.38848" lon="-1.45133">
        <ele>18.13</ele>
        <time>2021-06-05T20:53:43Z</time>
      </trkpt>
      <trkpt lat="43.38819" lon="-1.45118">
        <ele>16.92</ele>
        <time>2021-06-05T20:53:45Z</time>
      </trkpt>
      <trkpt lat="43.38794" lon="-1.45101">
        <ele>16.44</ele>
        <time>2021-06-05T20:53:48Z</time>
      </trkpt>
      <trkpt lat="43.38739" lon="-1.45049">
        <ele>16.7</ele>
        <time>2021-06-05T20:53:51Z</time>
      </trkpt>
      <trkpt lat="43.38677" lon="-1.44981">
        <ele>19</ele>
        <time>2021-06-05T20:53:53Z</time>
      </trkpt>
      <trkpt lat="43.3864" lon="-1.44933">
        <ele>21.74</ele>
        <time>2021-06-05T20:53:56Z</time>
      </trkpt>
      <trkpt lat="43.38608" lon="-1.44885">
        <ele>19.89</ele>
        <time>2021-06-05T20:53:58Z</time>
      </trkpt>
      <trkpt lat="43.38586" lon="-1.44846">
        <ele>17.92</ele>
        <time>2021-06-05T20:54:01Z</time>
      </trkpt>
      <trkpt lat="43.38555" lon="-1.44781">
        <ele>15.32</ele>
        <time>2021-06-05T20:54:03Z</time>
      </trkpt>
      <trkpt lat="43.3847" lon="-1.44589">
        <ele>10.22</ele>
        <time>2021-06-05T20:54:06Z</time>
      </trkpt>
      <trkpt lat="43.38454" lon="-1.44566">
        <ele>9.17</ele>
        <time>2021-06-05T20:54:09Z</time>
      </trkpt>
      <trkpt lat="43.38443" lon="-1.44558">
        <ele>9.1</ele>
        <time>2021-06-05T20:54:11Z</time>
      </trkpt>
      <trkpt lat="43.38434" lon="-1.44559">
        <ele>9.1</ele>
        <time>2021-06-05T20:54:15Z</time>
      </trkpt>
      <trkpt lat="43.38424" lon="-1.44553">
        <ele>8.97</ele>
        <time>2021-06-05T20:54:19Z</time>
      </trkpt>
      <trkpt lat="43.38418" lon="-1.44544">
        <ele>8.98</ele>
        <time>2021-06-05T20:54:23Z</time>
      </trkpt>
      <trkpt lat="43.38414" lon="-1.4453">
        <ele>8.91</ele>
        <time>2021-06-05T20:54:26Z</time>
      </trkpt>
      <trkpt lat="43.38415" lon="-1.44512">
        <ele>8.43</ele>
        <time>2021-06-05T20:54:30Z</time>
      </trkpt>
      <trkpt lat="43.38421" lon="-1.44501">
        <ele>8.01</ele>
        <time>2021-06-05T20:54:34Z</time>
      </trkpt>
      <trkpt lat="43.38419" lon="-1.4448">
        <ele>7.27</ele>
        <time>2021-06-05T20:54:38Z</time>
      </trkpt>
      <trkpt lat="43.38413" lon="-1.44458">
        <ele>7</ele>
        <time>2021-06-05T20:54:42Z</time>
      </trkpt>
      <trkpt lat="43.38347" lon="-1.44318">
        <ele>9.5</ele>
        <time>2021-06-05T20:54:45Z</time>
      </trkpt>
      <trkpt lat="43.38056" lon="-1.43668">
        <ele>10.11</ele>
        <time>2021-06-05T20:54:49Z</time>
      </trkpt>
      <trkpt lat="43.38034" lon="-1.43626">
        <ele>14.74</ele>
        <time>2021-06-05T20:54:53Z</time>
      </trkpt>
      <trkpt lat="43.38003" lon="-1.43575">
        <ele>14.03</ele>
        <time>2021-06-05T20:54:57Z</time>
      </trkpt>
      <trkpt lat="43.37965" lon="-1.43534">
        <ele>14.83</ele>
        <time>2021-06-05T20:55:01Z</time>
      </trkpt>
      <trkpt lat="43.37943" lon="-1.43515">
        <ele>13.92</ele>
        <time>2021-06-05T20:55:04Z</time>
      </trkpt>
      <trkpt lat="43.37918" lon="-1.43498">
        <ele>14.04</ele>
        <time>2021-06-05T20:55:08Z</time>
      </trkpt>
      <trkpt lat="43.37768" lon="-1.43412">
        <ele>12.78</ele>
        <time>2021-06-05T20:55:12Z</time>
      </trkpt>
      <trkpt lat="43.37656" lon="-1.43354">
        <ele>14.4</ele>
        <time>2021-06-05T20:55:16Z</time>
      </trkpt>
      <trkpt lat="43.37527" lon="-1.43314">
        <ele>11.7</ele>
        <time>2021-06-05T20:55:20Z</time>
      </trkpt>
      <trkpt lat="43.37355" lon="-1.43253">
        <ele>11.68</ele>
        <time>2021-06-05T20:55:23Z</time>
      </trkpt>
      <trkpt lat="43.37313" lon="-1.43233">
        <ele>14.19</ele>
        <time>2021-06-05T20:55:27Z</time>
      </trkpt>
      <trkpt lat="43.37257" lon="-1.43203">
        <ele>18.34</ele>
        <time>2021-06-05T20:55:31Z</time>
      </trkpt>
      <trkpt lat="43.37225" lon="-1.43178">
        <ele>17.73</ele>
        <time>2021-06-05T20:55:35Z</time>
      </trkpt>
      <trkpt lat="43.3721" lon="-1.43173">
        <ele>18.99</ele>
        <time>2021-06-05T20:55:39Z</time>
      </trkpt>
      <trkpt lat="43.37201" lon="-1.43176">
        <ele>20.69</ele>
        <time>2021-06-05T20:55:42Z</time>
      </trkpt>
      <trkpt lat="43.37192" lon="-1.43172">
        <ele>21.75</ele>
        <time>2021-06-05T20:55:45Z</time>
      </trkpt>
      <trkpt lat="43.37186" lon="-1.43162">
        <ele>22.22</ele>
        <time>2021-06-05T20:55:48Z</time>
      </trkpt>
      <trkpt lat="43.37184" lon="-1.43149">
        <ele>21.67</ele>
        <time>2021-06-05T20:55:51Z</time>
      </trkpt>
      <trkpt lat="43.37185" lon="-1.43143">
        <ele>21.06</ele>
        <time>2021-06-05T20:55:55Z</time>
      </trkpt>
      <trkpt lat="43.37172" lon="-1.43108">
        <ele>19.79</ele>
        <time>2021-06-05T20:55:58Z</time>
      </trkpt>
      <trkpt lat="43.37068" lon="-1.42976">
        <ele>17.75</ele>
        <time>2021-06-05T20:56:01Z</time>
      </trkpt>
      <trkpt lat="43.37053" lon="-1.42954">
        <ele>17.79</ele>
        <time>2021-06-05T20:56:04Z</time>
      </trkpt>
      <trkpt lat="43.37029" lon="-1.42911">
        <ele>18.63</ele>
        <time>2021-06-05T20:56:08Z</time>
      </trkpt>
      <trkpt lat="43.36994" lon="-1.42827">
        <ele>16.31</ele>
        <time>2021-06-05T20:56:11Z</time>
      </trkpt>
      <trkpt lat="43.36968" lon="-1.42772">
        <ele>17.75</ele>
        <time>2021-06-05T20:56:14Z</time>
      </trkpt>
      <trkpt lat="43.3695" lon="-1.42744">
        <ele>19.28</ele>
        <time>2021-06-05T20:56:17Z</time>
      </trkpt>
      <trkpt lat="43.36926" lon="-1.42711">
        <ele>20.57</ele>
        <time>2021-06-05T20:56:20Z</time>
      </trkpt>
      <trkpt lat="43.36881" lon="-1.42677">
        <ele>23.6</ele>
        <time>2021-06-05T20:56:24Z</time>
      </trkpt>
      <trkpt lat="43.36833" lon="-1.42647">
        <ele>25.31</ele>
        <time>2021-06-05T20:56:27Z</time>
      </trkpt>
      <trkpt lat="43.36808" lon="-1.42627">
        <ele>25.64</ele>
        <time>2021-06-05T20:56:30Z</time>
      </trkpt>
      <trkpt lat="43.36705" lon="-1.42523">
        <ele>31.22</ele>
        <time>2021-06-05T20:56:33Z</time>
      </trkpt>
      <trkpt lat="43.36584" lon="-1.42404">
        <ele>30.67</ele>
        <time>2021-06-05T20:56:37Z</time>
      </trkpt>
      <trkpt lat="43.36545" lon="-1.42357">
        <ele>33.03</ele>
        <time>2021-06-05T20:56:40Z</time>
      </trkpt>
      <trkpt lat="43.36521" lon="-1.42316">
        <ele>32.5</ele>
        <time>2021-06-05T20:56:43Z</time>
      </trkpt>
      <trkpt lat="43.36504" lon="-1.42275">
        <ele>30.09</ele>
        <time>2021-06-05T20:56:46Z</time>
      </trkpt>
      <trkpt lat="43.36491" lon="-1.42229">
        <ele>31.38</ele>
        <time>2021-06-05T20:56:50Z</time>
      </trkpt>
      <trkpt lat="43.36473" lon="-1.42136">
        <ele>28.96</ele>
        <time>2021-06-05T20:56:53Z</time>
      </trkpt>
      <trkpt lat="43.36465" lon="-1.42106">
        <ele>29.07</ele>
        <time>2021-06-05T20:56:56Z</time>
      </trkpt>
      <trkpt lat="43.36446" lon="-1.42052">
        <ele>33.23</ele>
        <time>2021-06-05T20:56:59Z</time>
      </trkpt>
      <trkpt lat="43.36415" lon="-1.41997">
        <ele>35.08</ele>
        <time>2021-06-05T20:57:02Z</time>
      </trkpt>
      <trkpt lat="43.36385" lon="-1.41957">
        <ele>31.17</ele>
        <time>2021-06-05T20:57:06Z</time>
      </trkpt>
      <trkpt lat="43.36353" lon="-1.41928">
        <ele>30.29</ele>
        <time>2021-06-05T20:57:09Z</time>
      </trkpt>
      <trkpt lat="43.36301" lon="-1.41894">
        <ele>34.14</ele>
        <time>2021-06-05T20:57:12Z</time>
      </trkpt>
      <trkpt lat="43.36245" lon="-1.41873">
        <ele>38.06</ele>
        <time>2021-06-05T20:57:15Z</time>
      </trkpt>
      <trkpt lat="43.35952" lon="-1.4177">
        <ele>38.66</ele>
        <time>2021-06-05T20:57:19Z</time>
      </trkpt>
      <trkpt lat="43.35898" lon="-1.41752">
        <ele>43.21</ele>
        <time>2021-06-05T20:57:22Z</time>
      </trkpt>
      <trkpt lat="43.35843" lon="-1.41737">
        <ele>45.29</ele>
        <time>2021-06-05T20:57:25Z</time>
      </trkpt>
      <trkpt lat="43.35782" lon="-1.41729">
        <ele>44.49</ele>
        <time>2021-06-05T20:57:28Z</time>
      </trkpt>
      <trkpt lat="43.35743" lon="-1.41727">
        <ele>43.69</ele>
        <time>2021-06-05T20:57:31Z</time>
      </trkpt>
      <trkpt lat="43.35689" lon="-1.4173">
        <ele>44.84</ele>
        <time>2021-06-05T20:57:35Z</time>
      </trkpt>
      <trkpt lat="43.35644" lon="-1.41739">
        <ele>49.37</ele>
        <time>2021-06-05T20:57:38Z</time>
      </trkpt>
      <trkpt lat="43.35601" lon="-1.41754">
        <ele>50.96</ele>
        <time>2021-06-05T20:57:41Z</time>
      </trkpt>
      <trkpt lat="43.35516" lon="-1.41799">
        <ele>49.1</ele>
        <time>2021-06-05T20:57:44Z</time>
      </trkpt>
      <trkpt lat="43.35449" lon="-1.41825">
        <ele>48.63</ele>
        <time>2021-06-05T20:57:48Z</time>
      </trkpt>
      <trkpt lat="43.35427" lon="-1.41829">
        <ele>48.86</ele>
        <time>2021-06-05T20:57:51Z</time>
      </trkpt>
      <trkpt lat="43.35401" lon="-1.41831">
        <ele>49.59</ele>
        <time>2021-06-05T20:57:54Z</time>
      </trkpt>
      <trkpt lat="43.35359" lon="-1.41825">
        <ele>50.24</ele>
        <time>2021-06-05T20:57:57Z</time>
      </trkpt>
      <trkpt lat="43.3532" lon="-1.41808">
        <ele>51.26</ele>
        <time>2021-06-05T20:58:00Z</time>
      </trkpt>
      <trkpt lat="43.35307" lon="-1.418">
        <ele>52.36</ele>
        <time>2021-06-05T20:58:04Z</time>
      </trkpt>
      <trkpt lat="43.35287" lon="-1.41785">
        <ele>54.96</ele>
        <time>2021-06-05T20:58:07Z</time>
      </trkpt>
      <trkpt lat="43.35244" lon="-1.41742">
        <ele>55.92</ele>
        <time>2021-06-05T20:58:10Z</time>
      </trkpt>
      <trkpt lat="43.35193" lon="-1.41685">
        <ele>56.44</ele>
        <time>2021-06-05T20:58:13Z</time>
      </trkpt>
      <trkpt lat="43.35137" lon="-1.41618">
        <ele>61.07</ele>
        <time>2021-06-05T20:58:17Z</time>
      </trkpt>
      <trkpt lat="43.35087" lon="-1.41549">
        <ele>62.58</ele>
        <time>2021-06-05T20:58:20Z</time>
      </trkpt>
      <trkpt lat="43.35057" lon="-1.41495">
        <ele>63.96</ele>
        <time>2021-06-05T20:58:23Z</time>
      </trkpt>
      <trkpt lat="43.3503" lon="-1.41427">
        <ele>65.08</ele>
        <time>2021-06-05T20:58:26Z</time>
      </trkpt>
      <trkpt lat="43.35015" lon="-1.41382">
        <ele>66.28</ele>
        <time>2021-06-05T20:58:30Z</time>
      </trkpt>
      <trkpt lat="43.34965" lon="-1.41246">
        <ele>71.15</ele>
        <time>2021-06-05T20:58:33Z</time>
      </trkpt>
      <trkpt lat="43.34937" lon="-1.41162">
        <ele>78.17</ele>
        <time>2021-06-05T20:58:36Z</time>
      </trkpt>
      <trkpt lat="43.34926" lon="-1.41123">
        <ele>80.96</ele>
        <time>2021-06-05T20:58:39Z</time>
      </trkpt>
      <trkpt lat="43.34912" lon="-1.41068">
        <ele>83.96</ele>
        <time>2021-06-05T20:58:42Z</time>
      </trkpt>
      <trkpt lat="43.34891" lon="-1.40963">
        <ele>86.55</ele>
        <time>2021-06-05T20:58:46Z</time>
      </trkpt>
      <trkpt lat="43.34881" lon="-1.40905">
        <ele>90.65</ele>
        <time>2021-06-05T20:58:49Z</time>
      </trkpt>
      <trkpt lat="43.34865" lon="-1.4077">
        <ele>92.68</ele>
        <time>2021-06-05T20:58:52Z</time>
      </trkpt>
      <trkpt lat="43.34859" lon="-1.40725">
        <ele>95.71</ele>
        <time>2021-06-05T20:58:55Z</time>
      </trkpt>
      <trkpt lat="43.3484" lon="-1.40651">
        <ele>98.41</ele>
        <time>2021-06-05T20:58:59Z</time>
      </trkpt>
      <trkpt lat="43.3482" lon="-1.40598">
        <ele>98.52</ele>
        <time>2021-06-05T20:59:02Z</time>
      </trkpt>
      <trkpt lat="43.34788" lon="-1.40541">
        <ele>95.18</ele>
        <time>2021-06-05T20:59:05Z</time>
      </trkpt>
      <trkpt lat="43.3464" lon="-1.40343">
        <ele>86.97</ele>
        <time>2021-06-05T20:59:08Z</time>
      </trkpt>
      <trkpt lat="43.34601" lon="-1.40293">
        <ele>85.63</ele>
        <time>2021-06-05T20:59:11Z</time>
      </trkpt>
      <trkpt lat="43.34574" lon="-1.40268">
        <ele>85.12</ele>
        <time>2021-06-05T20:59:15Z</time>
      </trkpt>
      <trkpt lat="43.34545" lon="-1.40248">
        <ele>85.96</ele>
        <time>2021-06-05T20:59:18Z</time>
      </trkpt>
      <trkpt lat="43.34486" lon="-1.40226">
        <ele>85.07</ele>
        <time>2021-06-05T20:59:21Z</time>
      </trkpt>
      <trkpt lat="43.34481" lon="-1.40235">
        <ele>84.95</ele>
        <time>2021-06-05T20:59:24Z</time>
      </trkpt>
      <trkpt lat="43.34473" lon="-1.40239">
        <ele>84.65</ele>
        <time>2021-06-05T20:59:27Z</time>
      </trkpt>
      <trkpt lat="43.34465" lon="-1.40237">
        <ele>84.38</ele>
        <time>2021-06-05T20:59:30Z</time>
      </trkpt>
      <trkpt lat="43.34461" lon="-1.40233">
        <ele>84.24</ele>
        <time>2021-06-05T20:59:33Z</time>
      </trkpt>
      <trkpt lat="43.34457" lon="-1.40223">
        <ele>84.01</ele>
        <time>2021-06-05T20:59:36Z</time>
      </trkpt>
      <trkpt lat="43.34456" lon="-1.40217">
        <ele>84</ele>
        <time>2021-06-05T20:59:39Z</time>
      </trkpt>
      <trkpt lat="43.34431" lon="-1.40217">
        <ele>84.55</ele>
        <time>2021-06-05T20:59:42Z</time>
      </trkpt>
      <trkpt lat="43.34402" lon="-1.40221">
        <ele>85.63</ele>
        <time>2021-06-05T20:59:45Z</time>
      </trkpt>
      <trkpt lat="43.34298" lon="-1.40245">
        <ele>86.88</ele>
        <time>2021-06-05T20:59:48Z</time>
      </trkpt>
      <trkpt lat="43.34258" lon="-1.40249">
        <ele>86</ele>
        <time>2021-06-05T20:59:51Z</time>
      </trkpt>
      <trkpt lat="43.34231" lon="-1.40246">
        <ele>86.59</ele>
        <time>2021-06-05T20:59:54Z</time>
      </trkpt>
      <trkpt lat="43.34217" lon="-1.40241">
        <ele>86.75</ele>
        <time>2021-06-05T20:59:57Z</time>
      </trkpt>
      <trkpt lat="43.34191" lon="-1.4023">
        <ele>87.12</ele>
        <time>2021-06-05T21:00:00Z</time>
      </trkpt>
      <trkpt lat="43.34141" lon="-1.40203">
        <ele>87.56</ele>
        <time>2021-06-05T21:00:03Z</time>
      </trkpt>
      <trkpt lat="43.3411" lon="-1.40188">
        <ele>84.95</ele>
        <time>2021-06-05T21:00:06Z</time>
      </trkpt>
      <trkpt lat="43.34069" lon="-1.40182">
        <ele>83.48</ele>
        <time>2021-06-05T21:00:09Z</time>
      </trkpt>
      <trkpt lat="43.3403" lon="-1.40185">
        <ele>80.21</ele>
        <time>2021-06-05T21:00:12Z</time>
      </trkpt>
      <trkpt lat="43.33994" lon="-1.40196">
        <ele>77.61</ele>
        <time>2021-06-05T21:00:15Z</time>
      </trkpt>
      <trkpt lat="43.3397" lon="-1.40208">
        <ele>76.48</ele>
        <time>2021-06-05T21:00:18Z</time>
      </trkpt>
      <trkpt lat="43.33936" lon="-1.40227">
        <ele>77.63</ele>
        <time>2021-06-05T21:00:21Z</time>
      </trkpt>
      <trkpt lat="43.33874" lon="-1.40271">
        <ele>81</ele>
        <time>2021-06-05T21:00:24Z</time>
      </trkpt>
      <trkpt lat="43.33808" lon="-1.40321">
        <ele>79.54</ele>
        <time>2021-06-05T21:00:27Z</time>
      </trkpt>
      <trkpt lat="43.33772" lon="-1.40337">
        <ele>81.21</ele>
        <time>2021-06-05T21:00:29Z</time>
      </trkpt>
      <trkpt lat="43.33697" lon="-1.40361">
        <ele>82.1</ele>
        <time>2021-06-05T21:00:32Z</time>
      </trkpt>
      <trkpt lat="43.33687" lon="-1.40364">
        <ele>82.15</ele>
        <time>2021-06-05T21:00:35Z</time>
      </trkpt>
      <trkpt lat="43.33661" lon="-1.40363">
        <ele>82.89</ele>
        <time>2021-06-05T21:00:38Z</time>
      </trkpt>
      <trkpt lat="43.3366" lon="-1.40369">
        <ele>82.5</ele>
        <time>2021-06-05T21:00:42Z</time>
      </trkpt>
      <trkpt lat="43.33653" lon="-1.40378">
        <ele>82.11</ele>
        <time>2021-06-05T21:00:46Z</time>
      </trkpt>
      <trkpt lat="43.33644" lon="-1.40379">
        <ele>82.25</ele>
        <time>2021-06-05T21:00:50Z</time>
      </trkpt>
      <trkpt lat="43.33639" lon="-1.40377">
        <ele>82.43</ele>
        <time>2021-06-05T21:00:54Z</time>
      </trkpt>
      <trkpt lat="43.33633" lon="-1.40367">
        <ele>82.58</ele>
        <time>2021-06-05T21:00:58Z</time>
      </trkpt>
      <trkpt lat="43.33633" lon="-1.40354">
        <ele>82.52</ele>
        <time>2021-06-05T21:01:01Z</time>
      </trkpt>
      <trkpt lat="43.33582" lon="-1.40333">
        <ele>82</ele>
        <time>2021-06-05T21:01:05Z</time>
      </trkpt>
      <trkpt lat="43.3353" lon="-1.40308">
        <ele>78.38</ele>
        <time>2021-06-05T21:01:09Z</time>
      </trkpt>
      <trkpt lat="43.33511" lon="-1.40295">
        <ele>76.76</ele>
        <time>2021-06-05T21:01:13Z</time>
      </trkpt>
      <trkpt lat="43.33445" lon="-1.40246">
        <ele>73.17</ele>
        <time>2021-06-05T21:01:17Z</time>
      </trkpt>
      <trkpt lat="43.33367" lon="-1.40184">
        <ele>73.89</ele>
        <time>2021-06-05T21:01:21Z</time>
      </trkpt>
      <trkpt lat="43.33322" lon="-1.40138">
        <ele>71.81</ele>
        <time>2021-06-05T21:01:25Z</time>
      </trkpt>
      <trkpt lat="43.33277" lon="-1.40083">
        <ele>69</ele>
        <time>2021-06-05T21:01:28Z</time>
      </trkpt>
      <trkpt lat="43.33255" lon="-1.4005">
        <ele>68.18</ele>
        <time>2021-06-05T21:01:32Z</time>
      </trkpt>
      <trkpt lat="43.33222" lon="-1.39993">
        <ele>65.73</ele>
        <time>2021-06-05T21:01:36Z</time>
      </trkpt>
      <trkpt lat="43.33179" lon="-1.39904">
        <ele>59.1</ele>
        <time>2021-06-05T21:01:40Z</time>
      </trkpt>
      <trkpt lat="43.33127" lon="-1.39768">
        <ele>51.11</ele>
        <time>2021-06-05T21:01:44Z</time>
      </trkpt>
      <trkpt lat="43.33086" lon="-1.39645">
        <ele>47.59</ele>
        <time>2021-06-05T21:01:48Z</time>
      </trkpt>
      <trkpt lat="43.32962" lon="-1.39239">
        <ele>35.96</ele>
        <time>2021-06-05T21:01:51Z</time>
      </trkpt>
      <trkpt lat="43.3294" lon="-1.39173">
        <ele>37.23</ele>
        <time>2021-06-05T21:01:55Z</time>
      </trkpt>
      <trkpt lat="43.32921" lon="-1.39106">
        <ele>38.51</ele>
        <time>2021-06-05T21:01:59Z</time>
      </trkpt>
      <trkpt lat="43.32845" lon="-1.38855">
        <ele>45.72</ele>
        <time>2021-06-05T21:02:03Z</time>
      </trkpt>
      <trkpt lat="43.32818" lon="-1.38778">
        <ele>48.43</ele>
        <time>2021-06-05T21:02:07Z</time>
      </trkpt>
      <trkpt lat="43.32804" lon="-1.38743">
        <ele>49.09</ele>
        <time>2021-06-05T21:02:11Z</time>
      </trkpt>
      <trkpt lat="43.32777" lon="-1.38689">
        <ele>50.07</ele>
        <time>2021-06-05T21:02:14Z</time>
      </trkpt>
      <trkpt lat="43.32756" lon="-1.38653">
        <ele>54.12</ele>
        <time>2021-06-05T21:02:18Z</time>
      </trkpt>
      <trkpt lat="43.32739" lon="-1.38624">
        <ele>56.47</ele>
        <time>2021-06-05T21:02:22Z</time>
      </trkpt>
      <trkpt lat="43.32679" lon="-1.3854">
        <ele>61.38</ele>
        <time>2021-06-05T21:02:26Z</time>
      </trkpt>
      <trkpt lat="43.3266" lon="-1.38509">
        <ele>63.1</ele>
        <time>2021-06-05T21:02:30Z</time>
      </trkpt>
      <trkpt lat="43.32625" lon="-1.38446">
        <ele>63.11</ele>
        <time>2021-06-05T21:02:34Z</time>
      </trkpt>
      <trkpt lat="43.32532" lon="-1.38271">
        <ele>63.4</ele>
        <time>2021-06-05T21:02:38Z</time>
      </trkpt>
      <trkpt lat="43.32506" lon="-1.38206">
        <ele>68.08</ele>
        <time>2021-06-05T21:02:41Z</time>
      </trkpt>
      <trkpt lat="43.3245" lon="-1.38051">
        <ele>73.19</ele>
        <time>2021-06-05T21:02:45Z</time>
      </trkpt>
      <trkpt lat="43.32422" lon="-1.37935">
        <ele>78.4</ele>
        <time>2021-06-05T21:02:49Z</time>
      </trkpt>
      <trkpt lat="43.32385" lon="-1.37806">
        <ele>80.14</ele>
        <time>2021-06-05T21:02:53Z</time>
      </trkpt>
      <trkpt lat="43.32365" lon="-1.37738">
        <ele>83.46</ele>
        <time>2021-06-05T21:02:57Z</time>
      </trkpt>
      <trkpt lat="43.32346" lon="-1.37682">
        <ele>85.22</ele>
        <time>2021-06-05T21:03:01Z</time>
      </trkpt>
      <trkpt lat="43.32329" lon="-1.37652">
        <ele>86.04</ele>
        <time>2021-06-05T21:03:04Z</time>
      </trkpt>
      <trkpt lat="43.3229" lon="-1.37594">
        <ele>89.72</ele>
        <time>2021-06-05T21:03:08Z</time>
      </trkpt>
      <trkpt lat="43.32266" lon="-1.37547">
        <ele>90.64</ele>
        <time>2021-06-05T21:03:12Z</time>
      </trkpt>
      <trkpt lat="43.32231" lon="-1.37463">
        <ele>92.56</ele>
        <time>2021-06-05T21:03:16Z</time>
      </trkpt>
      <trkpt lat="43.3218" lon="-1.37328">
        <ele>99.02</ele>
        <time>2021-06-05T21:03:20Z</time>
      </trkpt>
      <trkpt lat="43.32169" lon="-1.37301">
        <ele>99.71</ele>
        <time>2021-06-05T21:03:24Z</time>
      </trkpt>
      <trkpt lat="43.32109" lon="-1.37195">
        <ele>108.53</ele>
        <time>2021-06-05T21:03:27Z</time>
      </trkpt>
      <trkpt lat="43.32099" lon="-1.37173">
        <ele>111.18</ele>
        <time>2021-06-05T21:03:31Z</time>
      </trkpt>
      <trkpt lat="43.32083" lon="-1.37131">
        <ele>111.79</ele>
        <time>2021-06-05T21:03:35Z</time>
      </trkpt>
      <trkpt lat="43.32062" lon="-1.37066">
        <ele>117.47</ele>
        <time>2021-06-05T21:03:39Z</time>
      </trkpt>
      <trkpt lat="43.3203" lon="-1.36978">
        <ele>125.79</ele>
        <time>2021-06-05T21:03:43Z</time>
      </trkpt>
      <trkpt lat="43.32002" lon="-1.36854">
        <ele>131.55</ele>
        <time>2021-06-05T21:03:47Z</time>
      </trkpt>
      <trkpt lat="43.31992" lon="-1.36805">
        <ele>130.91</ele>
        <time>2021-06-05T21:03:51Z</time>
      </trkpt>
      <trkpt lat="43.3199" lon="-1.36778">
        <ele>132.48</ele>
        <time>2021-06-05T21:03:54Z</time>
      </trkpt>
      <trkpt lat="43.31989" lon="-1.36731">
        <ele>133.73</ele>
        <time>2021-06-05T21:03:58Z</time>
      </trkpt>
      <trkpt lat="43.31994" lon="-1.36659">
        <ele>133.3</ele>
        <time>2021-06-05T21:04:02Z</time>
      </trkpt>
      <trkpt lat="43.31996" lon="-1.36605">
        <ele>137.6</ele>
        <time>2021-06-05T21:04:06Z</time>
      </trkpt>
      <trkpt lat="43.31993" lon="-1.36569">
        <ele>140.03</ele>
        <time>2021-06-05T21:04:10Z</time>
      </trkpt>
      <trkpt lat="43.31984" lon="-1.36501">
        <ele>143.37</ele>
        <time>2021-06-05T21:04:14Z</time>
      </trkpt>
      <trkpt lat="43.31967" lon="-1.36394">
        <ele>148.44</ele>
        <time>2021-06-05T21:04:17Z</time>
      </trkpt>
      <trkpt lat="43.31954" lon="-1.36341">
        <ele>149.47</ele>
        <time>2021-06-05T21:04:21Z</time>
      </trkpt>
      <trkpt lat="43.31942" lon="-1.36305">
        <ele>148.67</ele>
        <time>2021-06-05T21:04:25Z</time>
      </trkpt>
      <trkpt lat="43.31879" lon="-1.36142">
        <ele>138.36</ele>
        <time>2021-06-05T21:04:29Z</time>
      </trkpt>
      <trkpt lat="43.31854" lon="-1.36085">
        <ele>136.94</ele>
        <time>2021-06-05T21:04:33Z</time>
      </trkpt>
      <trkpt lat="43.31794" lon="-1.35973">
        <ele>130.16</ele>
        <time>2021-06-05T21:04:37Z</time>
      </trkpt>
      <trkpt lat="43.3178" lon="-1.35936">
        <ele>127.65</ele>
        <time>2021-06-05T21:04:41Z</time>
      </trkpt>
      <trkpt lat="43.31756" lon="-1.35866">
        <ele>123.39</ele>
        <time>2021-06-05T21:04:44Z</time>
      </trkpt>
      <trkpt lat="43.31728" lon="-1.358">
        <ele>124</ele>
        <time>2021-06-05T21:04:48Z</time>
      </trkpt>
      <trkpt lat="43.31664" lon="-1.3568">
        <ele>122.11</ele>
        <time>2021-06-05T21:04:52Z</time>
      </trkpt>
      <trkpt lat="43.31636" lon="-1.35631">
        <ele>119.58</ele>
        <time>2021-06-05T21:04:56Z</time>
      </trkpt>
      <trkpt lat="43.31622" lon="-1.35601">
        <ele>121</ele>
        <time>2021-06-05T21:05:00Z</time>
      </trkpt>
      <trkpt lat="43.31607" lon="-1.35552">
        <ele>119.57</ele>
        <time>2021-06-05T21:05:04Z</time>
      </trkpt>
      <trkpt lat="43.31599" lon="-1.35506">
        <ele>118.64</ele>
        <time>2021-06-05T21:05:07Z</time>
      </trkpt>
      <trkpt lat="43.31596" lon="-1.35429">
        <ele>113.26</ele>
        <time>2021-06-05T21:05:11Z</time>
      </trkpt>
      <trkpt lat="43.31592" lon="-1.35393">
        <ele>114.22</ele>
        <time>2021-06-05T21:05:15Z</time>
      </trkpt>
      <trkpt lat="43.31571" lon="-1.35297">
        <ele>114.13</ele>
        <time>2021-06-05T21:05:19Z</time>
      </trkpt>
      <trkpt lat="43.31566" lon="-1.35257">
        <ele>112.74</ele>
        <time>2021-06-05T21:05:23Z</time>
      </trkpt>
      <trkpt lat="43.31562" lon="-1.35186">
        <ele>111.14</ele>
        <time>2021-06-05T21:05:27Z</time>
      </trkpt>
      <trkpt lat="43.31557" lon="-1.35158">
        <ele>110.57</ele>
        <time>2021-06-05T21:05:30Z</time>
      </trkpt>
      <trkpt lat="43.31545" lon="-1.3513">
        <ele>110.26</ele>
        <time>2021-06-05T21:05:34Z</time>
      </trkpt>
      <trkpt lat="43.31528" lon="-1.35102">
        <ele>109.75</ele>
        <time>2021-06-05T21:05:38Z</time>
      </trkpt>
      <trkpt lat="43.31515" lon="-1.35087">
        <ele>109.61</ele>
        <time>2021-06-05T21:05:42Z</time>
      </trkpt>
      <trkpt lat="43.31502" lon="-1.35077">
        <ele>109.83</ele>
        <time>2021-06-05T21:05:46Z</time>
      </trkpt>
      <trkpt lat="43.3148" lon="-1.35072">
        <ele>111.2</ele>
        <time>2021-06-05T21:05:50Z</time>
      </trkpt>
      <trkpt lat="43.31471" lon="-1.35074">
        <ele>112.44</ele>
        <time>2021-06-05T21:05:53Z</time>
      </trkpt>
      <trkpt lat="43.31464" lon="-1.35067">
        <ele>112.63</ele>
        <time>2021-06-05T21:05:56Z</time>
      </trkpt>
      <trkpt lat="43.31461" lon="-1.35062">
        <ele>111.92</ele>
        <time>2021-06-05T21:05:59Z</time>
      </trkpt>
      <trkpt lat="43.31447" lon="-1.35053">
        <ele>112.11</ele>
        <time>2021-06-05T21:06:02Z</time>
      </trkpt>
      <trkpt lat="43.31429" lon="-1.35048">
        <ele>114.58</ele>
        <time>2021-06-05T21:06:05Z</time>
      </trkpt>
      <trkpt lat="43.31386" lon="-1.35019">
        <ele>110.03</ele>
        <time>2021-06-05T21:06:08Z</time>
      </trkpt>
      <trkpt lat="43.31373" lon="-1.35014">
        <ele>107.28</ele>
        <time>2021-06-05T21:06:11Z</time>
      </trkpt>
      <trkpt lat="43.31355" lon="-1.35013">
        <ele>105.1</ele>
        <time>2021-06-05T21:06:14Z</time>
      </trkpt>
      <trkpt lat="43.31336" lon="-1.35021">
        <ele>104.82</ele>
        <time>2021-06-05T21:06:17Z</time>
      </trkpt>
      <trkpt lat="43.31294" lon="-1.3506">
        <ele>109.53</ele>
        <time>2021-06-05T21:06:21Z</time>
      </trkpt>
      <trkpt lat="43.31274" lon="-1.35071">
        <ele>111.13</ele>
        <time>2021-06-05T21:06:24Z</time>
      </trkpt>
      <trkpt lat="43.31242" lon="-1.35077">
        <ele>113</ele>
        <time>2021-06-05T21:06:27Z</time>
      </trkpt>
      <trkpt lat="43.31193" lon="-1.35076">
        <ele>104.86</ele>
        <time>2021-06-05T21:06:30Z</time>
      </trkpt>
      <trkpt lat="43.31173" lon="-1.35077">
        <ele>100.86</ele>
        <time>2021-06-05T21:06:33Z</time>
      </trkpt>
      <trkpt lat="43.31149" lon="-1.35084">
        <ele>96.35</ele>
        <time>2021-06-05T21:06:36Z</time>
      </trkpt>
      <trkpt lat="43.31134" lon="-1.35095">
        <ele>95.02</ele>
        <time>2021-06-05T21:06:39Z</time>
      </trkpt>
      <trkpt lat="43.31124" lon="-1.35106">
        <ele>94.45</ele>
        <time>2021-06-05T21:06:42Z</time>
      </trkpt>
      <trkpt lat="43.31113" lon="-1.35123">
        <ele>94.1</ele>
        <time>2021-06-05T21:06:45Z</time>
      </trkpt>
      <trkpt lat="43.31057" lon="-1.35228">
        <ele>94.31</ele>
        <time>2021-06-05T21:06:48Z</time>
      </trkpt>
      <trkpt lat="43.31043" lon="-1.35247">
        <ele>94.28</ele>
        <time>2021-06-05T21:06:51Z</time>
      </trkpt>
      <trkpt lat="43.31017" lon="-1.35272">
        <ele>97.73</ele>
        <time>2021-06-05T21:06:55Z</time>
      </trkpt>
      <trkpt lat="43.31007" lon="-1.35284">
        <ele>100.61</ele>
        <time>2021-06-05T21:06:58Z</time>
      </trkpt>
      <trkpt lat="43.30927" lon="-1.35437">
        <ele>92.54</ele>
        <time>2021-06-05T21:07:01Z</time>
      </trkpt>
      <trkpt lat="43.30912" lon="-1.35473">
        <ele>90.78</ele>
        <time>2021-06-05T21:07:04Z</time>
      </trkpt>
      <trkpt lat="43.308" lon="-1.35869">
        <ele>102.46</ele>
        <time>2021-06-05T21:07:07Z</time>
      </trkpt>
      <trkpt lat="43.30784" lon="-1.35911">
        <ele>94.88</ele>
        <time>2021-06-05T21:07:10Z</time>
      </trkpt>
      <trkpt lat="43.30767" lon="-1.35941">
        <ele>90.84</ele>
        <time>2021-06-05T21:07:13Z</time>
      </trkpt>
      <trkpt lat="43.30744" lon="-1.3597">
        <ele>90.63</ele>
        <time>2021-06-05T21:07:16Z</time>
      </trkpt>
      <trkpt lat="43.30694" lon="-1.36016">
        <ele>91.34</ele>
        <time>2021-06-05T21:07:19Z</time>
      </trkpt>
      <trkpt lat="43.30675" lon="-1.3603">
        <ele>91.89</ele>
        <time>2021-06-05T21:07:22Z</time>
      </trkpt>
      <trkpt lat="43.30658" lon="-1.36037">
        <ele>91</ele>
        <time>2021-06-05T21:07:25Z</time>
      </trkpt>
      <trkpt lat="43.30635" lon="-1.36041">
        <ele>88.7</ele>
        <time>2021-06-05T21:07:29Z</time>
      </trkpt>
      <trkpt lat="43.30619" lon="-1.36037">
        <ele>87.49</ele>
        <time>2021-06-05T21:07:32Z</time>
      </trkpt>
      <trkpt lat="43.30597" lon="-1.36025">
        <ele>87.37</ele>
        <time>2021-06-05T21:07:35Z</time>
      </trkpt>
      <trkpt lat="43.30567" lon="-1.35998">
        <ele>87.94</ele>
        <time>2021-06-05T21:07:38Z</time>
      </trkpt>
      <trkpt lat="43.30532" lon="-1.3595">
        <ele>88.95</ele>
        <time>2021-06-05T21:07:41Z</time>
      </trkpt>
      <trkpt lat="43.30514" lon="-1.3592">
        <ele>90.54</ele>
        <time>2021-06-05T21:07:44Z</time>
      </trkpt>
      <trkpt lat="43.30497" lon="-1.35887">
        <ele>91.55</ele>
        <time>2021-06-05T21:07:47Z</time>
      </trkpt>
      <trkpt lat="43.30489" lon="-1.35864">
        <ele>92.34</ele>
        <time>2021-06-05T21:07:50Z</time>
      </trkpt>
      <trkpt lat="43.30459" lon="-1.35765">
        <ele>92.1</ele>
        <time>2021-06-05T21:07:53Z</time>
      </trkpt>
      <trkpt lat="43.30447" lon="-1.35709">
        <ele>89.87</ele>
        <time>2021-06-05T21:07:56Z</time>
      </trkpt>
      <trkpt lat="43.30444" lon="-1.35681">
        <ele>87.15</ele>
        <time>2021-06-05T21:07:59Z</time>
      </trkpt>
      <trkpt lat="43.30443" lon="-1.35655">
        <ele>84.22</ele>
        <time>2021-06-05T21:08:02Z</time>
      </trkpt>
      <trkpt lat="43.30448" lon="-1.35603">
        <ele>82.14</ele>
        <time>2021-06-05T21:08:06Z</time>
      </trkpt>
      <trkpt lat="43.30494" lon="-1.35446">
        <ele>84.6</ele>
        <time>2021-06-05T21:08:09Z</time>
      </trkpt>
      <trkpt lat="43.30499" lon="-1.35418">
        <ele>85.58</ele>
        <time>2021-06-05T21:08:12Z</time>
      </trkpt>
      <trkpt lat="43.305" lon="-1.3539">
        <ele>86.92</ele>
        <time>2021-06-05T21:08:15Z</time>
      </trkpt>
      <trkpt lat="43.30497" lon="-1.35362">
        <ele>85.8</ele>
        <time>2021-06-05T21:08:18Z</time>
      </trkpt>
      <trkpt lat="43.3049" lon="-1.3533">
        <ele>83.04</ele>
        <time>2021-06-05T21:08:21Z</time>
      </trkpt>
      <trkpt lat="43.30432" lon="-1.35182">
        <ele>75.03</ele>
        <time>2021-06-05T21:08:24Z</time>
      </trkpt>
      <trkpt lat="43.30419" lon="-1.35158">
        <ele>73.71</ele>
        <time>2021-06-05T21:08:27Z</time>
      </trkpt>
      <trkpt lat="43.30398" lon="-1.35128">
        <ele>74.5</ele>
        <time>2021-06-05T21:08:30Z</time>
      </trkpt>
      <trkpt lat="43.30371" lon="-1.35101">
        <ele>75.24</ele>
        <time>2021-06-05T21:08:33Z</time>
      </trkpt>
      <trkpt lat="43.30352" lon="-1.35087">
        <ele>74.96</ele>
        <time>2021-06-05T21:08:36Z</time>
      </trkpt>
      <trkpt lat="43.30322" lon="-1.35069">
        <ele>75.54</ele>
        <time>2021-06-05T21:08:40Z</time>
      </trkpt>
      <trkpt lat="43.30176" lon="-1.35002">
        <ele>73.67</ele>
        <time>2021-06-05T21:08:43Z</time>
      </trkpt>
      <trkpt lat="43.30151" lon="-1.34995">
        <ele>71.78</ele>
        <time>2021-06-05T21:08:46Z</time>
      </trkpt>
      <trkpt lat="43.30095" lon="-1.34989">
        <ele>72.35</ele>
        <time>2021-06-05T21:08:49Z</time>
      </trkpt>
      <trkpt lat="43.3007" lon="-1.34989">
        <ele>73.39</ele>
        <time>2021-06-05T21:08:52Z</time>
      </trkpt>
      <trkpt lat="43.29991" lon="-1.35001">
        <ele>70.86</ele>
        <time>2021-06-05T21:08:55Z</time>
      </trkpt>
      <trkpt lat="43.29914" lon="-1.35001">
        <ele>71.21</ele>
        <time>2021-06-05T21:08:58Z</time>
      </trkpt>
      <trkpt lat="43.2985" lon="-1.35013">
        <ele>71.29</ele>
        <time>2021-06-05T21:09:01Z</time>
      </trkpt>
      <trkpt lat="43.29822" lon="-1.35016">
        <ele>71.13</ele>
        <time>2021-06-05T21:09:04Z</time>
      </trkpt>
      <trkpt lat="43.29802" lon="-1.35016">
        <ele>72.33</ele>
        <time>2021-06-05T21:09:07Z</time>
      </trkpt>
      <trkpt lat="43.29742" lon="-1.35011">
        <ele>76.24</ele>
        <time>2021-06-05T21:09:10Z</time>
      </trkpt>
      <trkpt lat="43.29695" lon="-1.35011">
        <ele>79.08</ele>
        <time>2021-06-05T21:09:13Z</time>
      </trkpt>
      <trkpt lat="43.29647" lon="-1.35017">
        <ele>82.9</ele>
        <time>2021-06-05T21:09:17Z</time>
      </trkpt>
      <trkpt lat="43.29604" lon="-1.35026">
        <ele>80.46</ele>
        <time>2021-06-05T21:09:20Z</time>
      </trkpt>
      <trkpt lat="43.29585" lon="-1.35033">
        <ele>81.27</ele>
        <time>2021-06-05T21:09:23Z</time>
      </trkpt>
      <trkpt lat="43.29546" lon="-1.35053">
        <ele>80.52</ele>
        <time>2021-06-05T21:09:26Z</time>
      </trkpt>
      <trkpt lat="43.29514" lon="-1.35074">
        <ele>81.36</ele>
        <time>2021-06-05T21:09:29Z</time>
      </trkpt>
      <trkpt lat="43.2944" lon="-1.35139">
        <ele>80.2</ele>
        <time>2021-06-05T21:09:32Z</time>
      </trkpt>
      <trkpt lat="43.29342" lon="-1.35235">
        <ele>74.9</ele>
        <time>2021-06-05T21:09:35Z</time>
      </trkpt>
      <trkpt lat="43.29285" lon="-1.35282">
        <ele>72.09</ele>
        <time>2021-06-05T21:09:38Z</time>
      </trkpt>
      <trkpt lat="43.29262" lon="-1.35298">
        <ele>70.64</ele>
        <time>2021-06-05T21:09:41Z</time>
      </trkpt>
      <trkpt lat="43.29232" lon="-1.35315">
        <ele>68.82</ele>
        <time>2021-06-05T21:09:44Z</time>
      </trkpt>
      <trkpt lat="43.29215" lon="-1.35321">
        <ele>69.46</ele>
        <time>2021-06-05T21:09:47Z</time>
      </trkpt>
      <trkpt lat="43.29198" lon="-1.35325">
        <ele>70.65</ele>
        <time>2021-06-05T21:09:51Z</time>
      </trkpt>
      <trkpt lat="43.29179" lon="-1.35326">
        <ele>70.6</ele>
        <time>2021-06-05T21:09:54Z</time>
      </trkpt>
      <trkpt lat="43.29143" lon="-1.35323">
        <ele>70.78</ele>
        <time>2021-06-05T21:09:57Z</time>
      </trkpt>
      <trkpt lat="43.29115" lon="-1.35318">
        <ele>70.32</ele>
        <time>2021-06-05T21:10:00Z</time>
      </trkpt>
      <trkpt lat="43.29097" lon="-1.35313">
        <ele>69.46</ele>
        <time>2021-06-05T21:10:03Z</time>
      </trkpt>
      <trkpt lat="43.29046" lon="-1.35288">
        <ele>69.78</ele>
        <time>2021-06-05T21:10:06Z</time>
      </trkpt>
      <trkpt lat="43.28871" lon="-1.35193">
        <ele>78.81</ele>
        <time>2021-06-05T21:10:09Z</time>
      </trkpt>
      <trkpt lat="43.28753" lon="-1.35164">
        <ele>83.28</ele>
        <time>2021-06-05T21:10:12Z</time>
      </trkpt>
      <trkpt lat="43.28727" lon="-1.35161">
        <ele>86.25</ele>
        <time>2021-06-05T21:10:15Z</time>
      </trkpt>
      <trkpt lat="43.28677" lon="-1.35163">
        <ele>89.98</ele>
        <time>2021-06-05T21:10:18Z</time>
      </trkpt>
      <trkpt lat="43.28638" lon="-1.35173">
        <ele>86.46</ele>
        <time>2021-06-05T21:10:21Z</time>
      </trkpt>
      <trkpt lat="43.28607" lon="-1.35185">
        <ele>81.39</ele>
        <time>2021-06-05T21:10:25Z</time>
      </trkpt>
      <trkpt lat="43.28592" lon="-1.35194">
        <ele>80.17</ele>
        <time>2021-06-05T21:10:28Z</time>
      </trkpt>
      <trkpt lat="43.28568" lon="-1.35211">
        <ele>77.3</ele>
        <time>2021-06-05T21:10:31Z</time>
      </trkpt>
      <trkpt lat="43.28471" lon="-1.35299">
        <ele>75.79</ele>
        <time>2021-06-05T21:10:34Z</time>
      </trkpt>
      <trkpt lat="43.28442" lon="-1.35321">
        <ele>74.8</ele>
        <time>2021-06-05T21:10:37Z</time>
      </trkpt>
      <trkpt lat="43.28386" lon="-1.35356">
        <ele>70.39</ele>
        <time>2021-06-05T21:10:40Z</time>
      </trkpt>
      <trkpt lat="43.28349" lon="-1.35376">
        <ele>71.61</ele>
        <time>2021-06-05T21:10:43Z</time>
      </trkpt>
      <trkpt lat="43.28311" lon="-1.35391">
        <ele>74.55</ele>
        <time>2021-06-05T21:10:46Z</time>
      </trkpt>
      <trkpt lat="43.28284" lon="-1.35397">
        <ele>75.49</ele>
        <time>2021-06-05T21:10:49Z</time>
      </trkpt>
      <trkpt lat="43.28253" lon="-1.35398">
        <ele>75.39</ele>
        <time>2021-06-05T21:10:52Z</time>
      </trkpt>
      <trkpt lat="43.28209" lon="-1.35393">
        <ele>76.64</ele>
        <time>2021-06-05T21:10:55Z</time>
      </trkpt>
      <trkpt lat="43.28184" lon="-1.35385">
        <ele>78.3</ele>
        <time>2021-06-05T21:10:58Z</time>
      </trkpt>
      <trkpt lat="43.28129" lon="-1.35362">
        <ele>80.9</ele>
        <time>2021-06-05T21:11:02Z</time>
      </trkpt>
      <trkpt lat="43.28085" lon="-1.3534">
        <ele>83.03</ele>
        <time>2021-06-05T21:11:05Z</time>
      </trkpt>
      <trkpt lat="43.28022" lon="-1.35304">
        <ele>81.25</ele>
        <time>2021-06-05T21:11:08Z</time>
      </trkpt>
      <trkpt lat="43.27992" lon="-1.35281">
        <ele>82.86</ele>
        <time>2021-06-05T21:11:11Z</time>
      </trkpt>
      <trkpt lat="43.2796" lon="-1.35247">
        <ele>83.42</ele>
        <time>2021-06-05T21:11:14Z</time>
      </trkpt>
      <trkpt lat="43.2793" lon="-1.35209">
        <ele>85.35</ele>
        <time>2021-06-05T21:11:17Z</time>
      </trkpt>
      <trkpt lat="43.27903" lon="-1.35172">
        <ele>84.63</ele>
        <time>2021-06-05T21:11:20Z</time>
      </trkpt>
      <trkpt lat="43.27889" lon="-1.35157">
        <ele>84.65</ele>
        <time>2021-06-05T21:11:23Z</time>
      </trkpt>
      <trkpt lat="43.27865" lon="-1.35138">
        <ele>82.79</ele>
        <time>2021-06-05T21:11:26Z</time>
      </trkpt>
      <trkpt lat="43.27833" lon="-1.35117">
        <ele>82.65</ele>
        <time>2021-06-05T21:11:29Z</time>
      </trkpt>
      <trkpt lat="43.27708" lon="-1.35053">
        <ele>86.61</ele>
        <time>2021-06-05T21:11:32Z</time>
      </trkpt>
      <trkpt lat="43.27552" lon="-1.34962">
        <ele>84.52</ele>
        <time>2021-06-05T21:11:36Z</time>
      </trkpt>
      <trkpt lat="43.27468" lon="-1.3492">
        <ele>85.82</ele>
        <time>2021-06-05T21:11:39Z</time>
      </trkpt>
      <trkpt lat="43.27374" lon="-1.34879">
        <ele>80.75</ele>
        <time>2021-06-05T21:11:42Z</time>
      </trkpt>
      <trkpt lat="43.27344" lon="-1.34863">
        <ele>80.17</ele>
        <time>2021-06-05T21:11:45Z</time>
      </trkpt>
      <trkpt lat="43.27317" lon="-1.34844">
        <ele>81.84</ele>
        <time>2021-06-05T21:11:48Z</time>
      </trkpt>
      <trkpt lat="43.2722" lon="-1.34765">
        <ele>89.68</ele>
        <time>2021-06-05T21:11:51Z</time>
      </trkpt>
      <trkpt lat="43.27149" lon="-1.3472">
        <ele>88.32</ele>
        <time>2021-06-05T21:11:54Z</time>
      </trkpt>
      <trkpt lat="43.27055" lon="-1.34667">
        <ele>82.85</ele>
        <time>2021-06-05T21:11:57Z</time>
      </trkpt>
      <trkpt lat="43.27019" lon="-1.34645">
        <ele>82.85</ele>
        <time>2021-06-05T21:12:00Z</time>
      </trkpt>
      <trkpt lat="43.26986" lon="-1.34619">
        <ele>84.6</ele>
        <time>2021-06-05T21:12:03Z</time>
      </trkpt>
      <trkpt lat="43.26952" lon="-1.34583">
        <ele>87.54</ele>
        <time>2021-06-05T21:12:06Z</time>
      </trkpt>
      <trkpt lat="43.26836" lon="-1.34449">
        <ele>85.14</ele>
        <time>2021-06-05T21:12:10Z</time>
      </trkpt>
      <trkpt lat="43.26821" lon="-1.34427">
        <ele>83.85</ele>
        <time>2021-06-05T21:12:13Z</time>
      </trkpt>
      <trkpt lat="43.26802" lon="-1.34395">
        <ele>85.42</ele>
        <time>2021-06-05T21:12:16Z</time>
      </trkpt>
      <trkpt lat="43.26785" lon="-1.34361">
        <ele>91.07</ele>
        <time>2021-06-05T21:12:19Z</time>
      </trkpt>
      <trkpt lat="43.26761" lon="-1.34306">
        <ele>96</ele>
        <time>2021-06-05T21:12:22Z</time>
      </trkpt>
      <trkpt lat="43.26742" lon="-1.34259">
        <ele>92.07</ele>
        <time>2021-06-05T21:12:25Z</time>
      </trkpt>
      <trkpt lat="43.26735" lon="-1.34234">
        <ele>93.15</ele>
        <time>2021-06-05T21:12:28Z</time>
      </trkpt>
      <trkpt lat="43.26709" lon="-1.34111">
        <ele>93.3</ele>
        <time>2021-06-05T21:12:31Z</time>
      </trkpt>
      <trkpt lat="43.26696" lon="-1.34068">
        <ele>86.85</ele>
        <time>2021-06-05T21:12:34Z</time>
      </trkpt>
      <trkpt lat="43.26635" lon="-1.33905">
        <ele>78.23</ele>
        <time>2021-06-05T21:12:37Z</time>
      </trkpt>
      <trkpt lat="43.26614" lon="-1.33829">
        <ele>80.1</ele>
        <time>2021-06-05T21:12:40Z</time>
      </trkpt>
      <trkpt lat="43.26607" lon="-1.33777">
        <ele>82.55</ele>
        <time>2021-06-05T21:12:43Z</time>
      </trkpt>
      <trkpt lat="43.26604" lon="-1.33726">
        <ele>82.89</ele>
        <time>2021-06-05T21:12:47Z</time>
      </trkpt>
      <trkpt lat="43.26605" lon="-1.33684">
        <ele>82.86</ele>
        <time>2021-06-05T21:12:50Z</time>
      </trkpt>
      <trkpt lat="43.26609" lon="-1.33654">
        <ele>83.46</ele>
        <time>2021-06-05T21:12:53Z</time>
      </trkpt>
      <trkpt lat="43.26617" lon="-1.33612">
        <ele>83.9</ele>
        <time>2021-06-05T21:12:56Z</time>
      </trkpt>
      <trkpt lat="43.26645" lon="-1.33506">
        <ele>83.68</ele>
        <time>2021-06-05T21:12:59Z</time>
      </trkpt>
      <trkpt lat="43.2666" lon="-1.33444">
        <ele>83.23</ele>
        <time>2021-06-05T21:13:02Z</time>
      </trkpt>
      <trkpt lat="43.26667" lon="-1.33396">
        <ele>84.73</ele>
        <time>2021-06-05T21:13:05Z</time>
      </trkpt>
      <trkpt lat="43.26674" lon="-1.33219">
        <ele>82.26</ele>
        <time>2021-06-05T21:13:08Z</time>
      </trkpt>
      <trkpt lat="43.26673" lon="-1.33145">
        <ele>81.66</ele>
        <time>2021-06-05T21:13:11Z</time>
      </trkpt>
      <trkpt lat="43.26668" lon="-1.33101">
        <ele>82.52</ele>
        <time>2021-06-05T21:13:14Z</time>
      </trkpt>
      <trkpt lat="43.2666" lon="-1.33067">
        <ele>82.75</ele>
        <time>2021-06-05T21:13:17Z</time>
      </trkpt>
      <trkpt lat="43.26647" lon="-1.33031">
        <ele>82.23</ele>
        <time>2021-06-05T21:13:21Z</time>
      </trkpt>
      <trkpt lat="43.266" lon="-1.32904">
        <ele>86.25</ele>
        <time>2021-06-05T21:13:24Z</time>
      </trkpt>
      <trkpt lat="43.26583" lon="-1.32868">
        <ele>86.21</ele>
        <time>2021-06-05T21:13:27Z</time>
      </trkpt>
      <trkpt lat="43.26555" lon="-1.32819">
        <ele>91.56</ele>
        <time>2021-06-05T21:13:30Z</time>
      </trkpt>
      <trkpt lat="43.26534" lon="-1.3279">
        <ele>92.82</ele>
        <time>2021-06-05T21:13:33Z</time>
      </trkpt>
      <trkpt lat="43.26416" lon="-1.32644">
        <ele>96.83</ele>
        <time>2021-06-05T21:13:36Z</time>
      </trkpt>
      <trkpt lat="43.26373" lon="-1.32586">
        <ele>96.87</ele>
        <time>2021-06-05T21:13:39Z</time>
      </trkpt>
      <trkpt lat="43.26349" lon="-1.32547">
        <ele>98.05</ele>
        <time>2021-06-05T21:13:42Z</time>
      </trkpt>
      <trkpt lat="43.26261" lon="-1.3238">
        <ele>103.75</ele>
        <time>2021-06-05T21:13:45Z</time>
      </trkpt>
      <trkpt lat="43.26241" lon="-1.32344">
        <ele>104.56</ele>
        <time>2021-06-05T21:13:48Z</time>
      </trkpt>
      <trkpt lat="43.26231" lon="-1.3233">
        <ele>103.43</ele>
        <time>2021-06-05T21:13:51Z</time>
      </trkpt>
      <trkpt lat="43.26204" lon="-1.323">
        <ele>99.79</ele>
        <time>2021-06-05T21:13:55Z</time>
      </trkpt>
      <trkpt lat="43.26115" lon="-1.32205">
        <ele>92.64</ele>
        <time>2021-06-05T21:13:58Z</time>
      </trkpt>
      <trkpt lat="43.26101" lon="-1.32183">
        <ele>96.15</ele>
        <time>2021-06-05T21:14:01Z</time>
      </trkpt>
      <trkpt lat="43.26047" lon="-1.32075">
        <ele>96.41</ele>
        <time>2021-06-05T21:14:04Z</time>
      </trkpt>
      <trkpt lat="43.26021" lon="-1.32037">
        <ele>104.02</ele>
        <time>2021-06-05T21:14:07Z</time>
      </trkpt>
      <trkpt lat="43.26003" lon="-1.32019">
        <ele>103.45</ele>
        <time>2021-06-05T21:14:10Z</time>
      </trkpt>
      <trkpt lat="43.25978" lon="-1.32001">
        <ele>95.36</ele>
        <time>2021-06-05T21:14:13Z</time>
      </trkpt>
      <trkpt lat="43.25894" lon="-1.31953">
        <ele>98.65</ele>
        <time>2021-06-05T21:14:16Z</time>
      </trkpt>
      <trkpt lat="43.25858" lon="-1.31936">
        <ele>94.88</ele>
        <time>2021-06-05T21:14:19Z</time>
      </trkpt>
      <trkpt lat="43.25814" lon="-1.31919">
        <ele>97.14</ele>
        <time>2021-06-05T21:14:22Z</time>
      </trkpt>
      <trkpt lat="43.25799" lon="-1.31915">
        <ele>95.97</ele>
        <time>2021-06-05T21:14:25Z</time>
      </trkpt>
      <trkpt lat="43.25778" lon="-1.31914">
        <ele>94.99</ele>
        <time>2021-06-05T21:14:28Z</time>
      </trkpt>
      <trkpt lat="43.25672" lon="-1.31913">
        <ele>98.65</ele>
        <time>2021-06-05T21:14:32Z</time>
      </trkpt>
      <trkpt lat="43.25663" lon="-1.31915">
        <ele>100.27</ele>
        <time>2021-06-05T21:14:35Z</time>
      </trkpt>
      <trkpt lat="43.25646" lon="-1.3192">
        <ele>105.11</ele>
        <time>2021-06-05T21:14:38Z</time>
      </trkpt>
      <trkpt lat="43.25631" lon="-1.31929">
        <ele>108.37</ele>
        <time>2021-06-05T21:14:41Z</time>
      </trkpt>
      <trkpt lat="43.25609" lon="-1.31949">
        <ele>110.78</ele>
        <time>2021-06-05T21:14:44Z</time>
      </trkpt>
      <trkpt lat="43.25591" lon="-1.31971">
        <ele>105.93</ele>
        <time>2021-06-05T21:14:47Z</time>
      </trkpt>
      <trkpt lat="43.25579" lon="-1.31991">
        <ele>103.51</ele>
        <time>2021-06-05T21:14:50Z</time>
      </trkpt>
      <trkpt lat="43.25566" lon="-1.3202">
        <ele>102.02</ele>
        <time>2021-06-05T21:14:53Z</time>
      </trkpt>
      <trkpt lat="43.25555" lon="-1.32053">
        <ele>101.54</ele>
        <time>2021-06-05T21:14:56Z</time>
      </trkpt>
      <trkpt lat="43.25547" lon="-1.32095">
        <ele>102.74</ele>
        <time>2021-06-05T21:14:59Z</time>
      </trkpt>
      <trkpt lat="43.25541" lon="-1.32109">
        <ele>102.24</ele>
        <time>2021-06-05T21:15:02Z</time>
      </trkpt>
      <trkpt lat="43.25528" lon="-1.32128">
        <ele>100.69</ele>
        <time>2021-06-05T21:15:06Z</time>
      </trkpt>
      <trkpt lat="43.25512" lon="-1.32144">
        <ele>100.7</ele>
        <time>2021-06-05T21:15:09Z</time>
      </trkpt>
      <trkpt lat="43.25494" lon="-1.32152">
        <ele>100.72</ele>
        <time>2021-06-05T21:15:12Z</time>
      </trkpt>
      <trkpt lat="43.25474" lon="-1.32155">
        <ele>100.51</ele>
        <time>2021-06-05T21:15:15Z</time>
      </trkpt>
      <trkpt lat="43.25454" lon="-1.3215">
        <ele>97.97</ele>
        <time>2021-06-05T21:15:18Z</time>
      </trkpt>
      <trkpt lat="43.25426" lon="-1.32136">
        <ele>96.39</ele>
        <time>2021-06-05T21:15:21Z</time>
      </trkpt>
      <trkpt lat="43.25396" lon="-1.3211">
        <ele>97.1</ele>
        <time>2021-06-05T21:15:24Z</time>
      </trkpt>
      <trkpt lat="43.25381" lon="-1.32093">
        <ele>97.11</ele>
        <time>2021-06-05T21:15:27Z</time>
      </trkpt>
      <trkpt lat="43.25366" lon="-1.32069">
        <ele>97.81</ele>
        <time>2021-06-05T21:15:30Z</time>
      </trkpt>
      <trkpt lat="43.25336" lon="-1.32013">
        <ele>102.21</ele>
        <time>2021-06-05T21:15:33Z</time>
      </trkpt>
      <trkpt lat="43.2531" lon="-1.31972">
        <ele>104.72</ele>
        <time>2021-06-05T21:15:36Z</time>
      </trkpt>
      <trkpt lat="43.25288" lon="-1.31948">
        <ele>106.75</ele>
        <time>2021-06-05T21:15:39Z</time>
      </trkpt>
      <trkpt lat="43.25196" lon="-1.31879">
        <ele>99.45</ele>
        <time>2021-06-05T21:15:43Z</time>
      </trkpt>
      <trkpt lat="43.25172" lon="-1.31864">
        <ele>101.13</ele>
        <time>2021-06-05T21:15:46Z</time>
      </trkpt>
      <trkpt lat="43.2513" lon="-1.31845">
        <ele>103.08</ele>
        <time>2021-06-05T21:15:49Z</time>
      </trkpt>
      <trkpt lat="43.25061" lon="-1.31832">
        <ele>99.18</ele>
        <time>2021-06-05T21:15:52Z</time>
      </trkpt>
      <trkpt lat="43.2503" lon="-1.31834">
        <ele>103.64</ele>
        <time>2021-06-05T21:15:55Z</time>
      </trkpt>
      <trkpt lat="43.24962" lon="-1.31851">
        <ele>103.43</ele>
        <time>2021-06-05T21:15:58Z</time>
      </trkpt>
      <trkpt lat="43.2491" lon="-1.31849">
        <ele>104.86</ele>
        <time>2021-06-05T21:16:01Z</time>
      </trkpt>
      <trkpt lat="43.24894" lon="-1.31845">
        <ele>107.22</ele>
        <time>2021-06-05T21:16:04Z</time>
      </trkpt>
      <trkpt lat="43.2488" lon="-1.31839">
        <ele>109.67</ele>
        <time>2021-06-05T21:16:07Z</time>
      </trkpt>
      <trkpt lat="43.24806" lon="-1.31795">
        <ele>114.63</ele>
        <time>2021-06-05T21:16:10Z</time>
      </trkpt>
      <trkpt lat="43.24761" lon="-1.31766">
        <ele>110.91</ele>
        <time>2021-06-05T21:16:13Z</time>
      </trkpt>
      <trkpt lat="43.24739" lon="-1.31746">
        <ele>108.4</ele>
        <time>2021-06-05T21:16:17Z</time>
      </trkpt>
      <trkpt lat="43.24723" lon="-1.31728">
        <ele>108.27</ele>
        <time>2021-06-05T21:16:20Z</time>
      </trkpt>
      <trkpt lat="43.24706" lon="-1.31703">
        <ele>110.26</ele>
        <time>2021-06-05T21:16:23Z</time>
      </trkpt>
      <trkpt lat="43.24676" lon="-1.31642">
        <ele>115.52</ele>
        <time>2021-06-05T21:16:26Z</time>
      </trkpt>
      <trkpt lat="43.24639" lon="-1.31574">
        <ele>115.63</ele>
        <time>2021-06-05T21:16:29Z</time>
      </trkpt>
      <trkpt lat="43.24619" lon="-1.31535">
        <ele>117.96</ele>
        <time>2021-06-05T21:16:32Z</time>
      </trkpt>
      <trkpt lat="43.24607" lon="-1.315">
        <ele>116.18</ele>
        <time>2021-06-05T21:16:35Z</time>
      </trkpt>
      <trkpt lat="43.24587" lon="-1.31419">
        <ele>113.65</ele>
        <time>2021-06-05T21:16:38Z</time>
      </trkpt>
      <trkpt lat="43.24581" lon="-1.31402">
        <ele>111.2</ele>
        <time>2021-06-05T21:16:41Z</time>
      </trkpt>
      <trkpt lat="43.24513" lon="-1.31218">
        <ele>109.94</ele>
        <time>2021-06-05T21:16:44Z</time>
      </trkpt>
      <trkpt lat="43.24483" lon="-1.31147">
        <ele>112.84</ele>
        <time>2021-06-05T21:16:47Z</time>
      </trkpt>
      <trkpt lat="43.24447" lon="-1.31053">
        <ele>113.36</ele>
        <time>2021-06-05T21:16:51Z</time>
      </trkpt>
      <trkpt lat="43.24431" lon="-1.30994">
        <ele>109.42</ele>
        <time>2021-06-05T21:16:54Z</time>
      </trkpt>
      <trkpt lat="43.24416" lon="-1.30932">
        <ele>107.86</ele>
        <time>2021-06-05T21:16:57Z</time>
      </trkpt>
      <trkpt lat="43.24403" lon="-1.30847">
        <ele>109.45</ele>
        <time>2021-06-05T21:17:00Z</time>
      </trkpt>
      <trkpt lat="43.24401" lon="-1.30824">
        <ele>109.91</ele>
        <time>2021-06-05T21:17:03Z</time>
      </trkpt>
      <trkpt lat="43.24409" lon="-1.30595">
        <ele>115.92</ele>
        <time>2021-06-05T21:17:06Z</time>
      </trkpt>
      <trkpt lat="43.24419" lon="-1.30401">
        <ele>120.46</ele>
        <time>2021-06-05T21:17:09Z</time>
      </trkpt>
      <trkpt lat="43.24418" lon="-1.30368">
        <ele>121.93</ele>
        <time>2021-06-05T21:17:12Z</time>
      </trkpt>
      <trkpt lat="43.24415" lon="-1.30333">
        <ele>120.61</ele>
        <time>2021-06-05T21:17:15Z</time>
      </trkpt>
      <trkpt lat="43.24405" lon="-1.30282">
        <ele>120.32</ele>
        <time>2021-06-05T21:17:18Z</time>
      </trkpt>
      <trkpt lat="43.24392" lon="-1.30228">
        <ele>120.37</ele>
        <time>2021-06-05T21:17:21Z</time>
      </trkpt>
      <trkpt lat="43.24378" lon="-1.30185">
        <ele>119.55</ele>
        <time>2021-06-05T21:17:24Z</time>
      </trkpt>
      <trkpt lat="43.24313" lon="-1.30025">
        <ele>118.26</ele>
        <time>2021-06-05T21:17:28Z</time>
      </trkpt>
      <trkpt lat="43.24287" lon="-1.29979">
        <ele>117.33</ele>
        <time>2021-06-05T21:17:31Z</time>
      </trkpt>
      <trkpt lat="43.2427" lon="-1.29955">
        <ele>116.71</ele>
        <time>2021-06-05T21:17:34Z</time>
      </trkpt>
      <trkpt lat="43.24183" lon="-1.29862">
        <ele>113.18</ele>
        <time>2021-06-05T21:17:37Z</time>
      </trkpt>
      <trkpt lat="43.2404" lon="-1.29711">
        <ele>110.74</ele>
        <time>2021-06-05T21:17:40Z</time>
      </trkpt>
      <trkpt lat="43.24017" lon="-1.29693">
        <ele>110.98</ele>
        <time>2021-06-05T21:17:43Z</time>
      </trkpt>
      <trkpt lat="43.23978" lon="-1.2967">
        <ele>109.32</ele>
        <time>2021-06-05T21:17:46Z</time>
      </trkpt>
      <trkpt lat="43.23897" lon="-1.2962">
        <ele>103.52</ele>
        <time>2021-06-05T21:17:49Z</time>
      </trkpt>
      <trkpt lat="43.23883" lon="-1.29613">
        <ele>103.29</ele>
        <time>2021-06-05T21:17:52Z</time>
      </trkpt>
      <trkpt lat="43.23856" lon="-1.29604">
        <ele>103.61</ele>
        <time>2021-06-05T21:17:55Z</time>
      </trkpt>
      <trkpt lat="43.23825" lon="-1.29602">
        <ele>102.5</ele>
        <time>2021-06-05T21:17:58Z</time>
      </trkpt>
      <trkpt lat="43.23802" lon="-1.29604">
        <ele>101.39</ele>
        <time>2021-06-05T21:18:02Z</time>
      </trkpt>
      <trkpt lat="43.2371" lon="-1.2963">
        <ele>104.04</ele>
        <time>2021-06-05T21:18:05Z</time>
      </trkpt>
      <trkpt lat="43.23533" lon="-1.29654">
        <ele>101.71</ele>
        <time>2021-06-05T21:18:08Z</time>
      </trkpt>
      <trkpt lat="43.23499" lon="-1.29668">
        <ele>102.93</ele>
        <time>2021-06-05T21:18:11Z</time>
      </trkpt>
      <trkpt lat="43.23463" lon="-1.29699">
        <ele>102.34</ele>
        <time>2021-06-05T21:18:14Z</time>
      </trkpt>
      <trkpt lat="43.23064" lon="-1.30069">
        <ele>107.85</ele>
        <time>2021-06-05T21:18:17Z</time>
      </trkpt>
      <trkpt lat="43.23043" lon="-1.30082">
        <ele>108.57</ele>
        <time>2021-06-05T21:18:20Z</time>
      </trkpt>
      <trkpt lat="43.23023" lon="-1.30088">
        <ele>111</ele>
        <time>2021-06-05T21:18:23Z</time>
      </trkpt>
      <trkpt lat="43.23006" lon="-1.30092">
        <ele>113.6</ele>
        <time>2021-06-05T21:18:26Z</time>
      </trkpt>
      <trkpt lat="43.22985" lon="-1.30094">
        <ele>116.04</ele>
        <time>2021-06-05T21:18:29Z</time>
      </trkpt>
      <trkpt lat="43.22908" lon="-1.30088">
        <ele>115.51</ele>
        <time>2021-06-05T21:18:32Z</time>
      </trkpt>
      <trkpt lat="43.22867" lon="-1.30093">
        <ele>123.94</ele>
        <time>2021-06-05T21:18:36Z</time>
      </trkpt>
      <trkpt lat="43.22828" lon="-1.301">
        <ele>127.29</ele>
        <time>2021-06-05T21:18:39Z</time>
      </trkpt>
      <trkpt lat="43.2281" lon="-1.30107">
        <ele>128.32</ele>
        <time>2021-06-05T21:18:42Z</time>
      </trkpt>
      <trkpt lat="43.22781" lon="-1.30124">
        <ele>123.44</ele>
        <time>2021-06-05T21:18:45Z</time>
      </trkpt>
      <trkpt lat="43.22767" lon="-1.30137">
        <ele>120.06</ele>
        <time>2021-06-05T21:18:48Z</time>
      </trkpt>
      <trkpt lat="43.22724" lon="-1.30187">
        <ele>116.25</ele>
        <time>2021-06-05T21:18:51Z</time>
      </trkpt>
      <trkpt lat="43.22698" lon="-1.30215">
        <ele>113.69</ele>
        <time>2021-06-05T21:18:54Z</time>
      </trkpt>
      <trkpt lat="43.22684" lon="-1.30227">
        <ele>112.16</ele>
        <time>2021-06-05T21:18:57Z</time>
      </trkpt>
      <trkpt lat="43.2265" lon="-1.30241">
        <ele>110.78</ele>
        <time>2021-06-05T21:19:00Z</time>
      </trkpt>
      <trkpt lat="43.22632" lon="-1.30241">
        <ele>109.57</ele>
        <time>2021-06-05T21:19:03Z</time>
      </trkpt>
      <trkpt lat="43.22615" lon="-1.30237">
        <ele>108.27</ele>
        <time>2021-06-05T21:19:06Z</time>
      </trkpt>
      <trkpt lat="43.22597" lon="-1.30229">
        <ele>108.68</ele>
        <time>2021-06-05T21:19:09Z</time>
      </trkpt>
      <trkpt lat="43.2258" lon="-1.30217">
        <ele>109.64</ele>
        <time>2021-06-05T21:19:13Z</time>
      </trkpt>
      <trkpt lat="43.22556" lon="-1.30191">
        <ele>111.15</ele>
        <time>2021-06-05T21:19:16Z</time>
      </trkpt>
      <trkpt lat="43.22546" lon="-1.30176">
        <ele>111.95</ele>
        <time>2021-06-05T21:19:19Z</time>
      </trkpt>
      <trkpt lat="43.22533" lon="-1.30151">
        <ele>113.22</ele>
        <time>2021-06-05T21:19:22Z</time>
      </trkpt>
      <trkpt lat="43.22519" lon="-1.3012">
        <ele>114.74</ele>
        <time>2021-06-05T21:19:25Z</time>
      </trkpt>
      <trkpt lat="43.22457" lon="-1.29973">
        <ele>116.37</ele>
        <time>2021-06-05T21:19:28Z</time>
      </trkpt>
      <trkpt lat="43.22428" lon="-1.29917">
        <ele>116.44</ele>
        <time>2021-06-05T21:19:31Z</time>
      </trkpt>
      <trkpt lat="43.22406" lon="-1.29888">
        <ele>114.89</ele>
        <time>2021-06-05T21:19:34Z</time>
      </trkpt>
      <trkpt lat="43.22383" lon="-1.29865">
        <ele>112.38</ele>
        <time>2021-06-05T21:19:37Z</time>
      </trkpt>
      <trkpt lat="43.22362" lon="-1.29848">
        <ele>111.04</ele>
        <time>2021-06-05T21:19:40Z</time>
      </trkpt>
      <trkpt lat="43.22342" lon="-1.29834">
        <ele>112.13</ele>
        <time>2021-06-05T21:19:43Z</time>
      </trkpt>
      <trkpt lat="43.22318" lon="-1.2982">
        <ele>113.86</ele>
        <time>2021-06-05T21:19:47Z</time>
      </trkpt>
      <trkpt lat="43.22282" lon="-1.29803">
        <ele>113.88</ele>
        <time>2021-06-05T21:19:50Z</time>
      </trkpt>
      <trkpt lat="43.22134" lon="-1.2975">
        <ele>117.74</ele>
        <time>2021-06-05T21:19:53Z</time>
      </trkpt>
      <trkpt lat="43.22036" lon="-1.29722">
        <ele>121.61</ele>
        <time>2021-06-05T21:19:56Z</time>
      </trkpt>
      <trkpt lat="43.22018" lon="-1.29713">
        <ele>120.33</ele>
        <time>2021-06-05T21:19:59Z</time>
      </trkpt>
      <trkpt lat="43.21991" lon="-1.29695">
        <ele>118.34</ele>
        <time>2021-06-05T21:20:02Z</time>
      </trkpt>
      <trkpt lat="43.21919" lon="-1.2963">
        <ele>118.8</ele>
        <time>2021-06-05T21:20:05Z</time>
      </trkpt>
      <trkpt lat="43.21871" lon="-1.296">
        <ele>118.62</ele>
        <time>2021-06-05T21:20:08Z</time>
      </trkpt>
      <trkpt lat="43.21782" lon="-1.29562">
        <ele>118.71</ele>
        <time>2021-06-05T21:20:11Z</time>
      </trkpt>
      <trkpt lat="43.21637" lon="-1.29518">
        <ele>117.19</ele>
        <time>2021-06-05T21:20:14Z</time>
      </trkpt>
      <trkpt lat="43.21561" lon="-1.29489">
        <ele>118.86</ele>
        <time>2021-06-05T21:20:17Z</time>
      </trkpt>
      <trkpt lat="43.21534" lon="-1.29477">
        <ele>120.88</ele>
        <time>2021-06-05T21:20:21Z</time>
      </trkpt>
      <trkpt lat="43.2151" lon="-1.29463">
        <ele>124.22</ele>
        <time>2021-06-05T21:20:24Z</time>
      </trkpt>
      <trkpt lat="43.21466" lon="-1.29426">
        <ele>132.21</ele>
        <time>2021-06-05T21:20:27Z</time>
      </trkpt>
      <trkpt lat="43.21451" lon="-1.29407">
        <ele>130.45</ele>
        <time>2021-06-05T21:20:30Z</time>
      </trkpt>
      <trkpt lat="43.21425" lon="-1.29366">
        <ele>125.18</ele>
        <time>2021-06-05T21:20:33Z</time>
      </trkpt>
      <trkpt lat="43.21354" lon="-1.29249">
        <ele>129.12</ele>
        <time>2021-06-05T21:20:36Z</time>
      </trkpt>
      <trkpt lat="43.21346" lon="-1.29231">
        <ele>128.32</ele>
        <time>2021-06-05T21:20:39Z</time>
      </trkpt>
      <trkpt lat="43.21341" lon="-1.29211">
        <ele>126.88</ele>
        <time>2021-06-05T21:20:42Z</time>
      </trkpt>
      <trkpt lat="43.21337" lon="-1.29186">
        <ele>124.15</ele>
        <time>2021-06-05T21:20:45Z</time>
      </trkpt>
      <trkpt lat="43.21332" lon="-1.29053">
        <ele>125.54</ele>
        <time>2021-06-05T21:20:48Z</time>
      </trkpt>
      <trkpt lat="43.2134" lon="-1.28884">
        <ele>124.3</ele>
        <time>2021-06-05T21:20:51Z</time>
      </trkpt>
      <trkpt lat="43.21338" lon="-1.28824">
        <ele>123.35</ele>
        <time>2021-06-05T21:20:54Z</time>
      </trkpt>
      <trkpt lat="43.21332" lon="-1.28775">
        <ele>126.49</ele>
        <time>2021-06-05T21:20:58Z</time>
      </trkpt>
      <trkpt lat="43.21324" lon="-1.28731">
        <ele>124.31</ele>
        <time>2021-06-05T21:21:01Z</time>
      </trkpt>
      <trkpt lat="43.21317" lon="-1.28701">
        <ele>122.97</ele>
        <time>2021-06-05T21:21:04Z</time>
      </trkpt>
      <trkpt lat="43.2131" lon="-1.28684">
        <ele>123.01</ele>
        <time>2021-06-05T21:21:07Z</time>
      </trkpt>
      <trkpt lat="43.21301" lon="-1.28671">
        <ele>123.55</ele>
        <time>2021-06-05T21:21:10Z</time>
      </trkpt>
      <trkpt lat="43.21243" lon="-1.28601">
        <ele>128.99</ele>
        <time>2021-06-05T21:21:13Z</time>
      </trkpt>
      <trkpt lat="43.2121" lon="-1.28551">
        <ele>128.53</ele>
        <time>2021-06-05T21:21:16Z</time>
      </trkpt>
      <trkpt lat="43.21194" lon="-1.28524">
        <ele>132.41</ele>
        <time>2021-06-05T21:21:19Z</time>
      </trkpt>
      <trkpt lat="43.21181" lon="-1.2849">
        <ele>133.63</ele>
        <time>2021-06-05T21:21:22Z</time>
      </trkpt>
      <trkpt lat="43.21174" lon="-1.28459">
        <ele>131.63</ele>
        <time>2021-06-05T21:21:25Z</time>
      </trkpt>
      <trkpt lat="43.21163" lon="-1.2839">
        <ele>130.49</ele>
        <time>2021-06-05T21:21:28Z</time>
      </trkpt>
      <trkpt lat="43.21162" lon="-1.28328">
        <ele>127.5</ele>
        <time>2021-06-05T21:21:32Z</time>
      </trkpt>
      <trkpt lat="43.21166" lon="-1.28218">
        <ele>123.93</ele>
        <time>2021-06-05T21:21:35Z</time>
      </trkpt>
      <trkpt lat="43.21163" lon="-1.28181">
        <ele>123.37</ele>
        <time>2021-06-05T21:21:38Z</time>
      </trkpt>
      <trkpt lat="43.21153" lon="-1.28137">
        <ele>123.9</ele>
        <time>2021-06-05T21:21:41Z</time>
      </trkpt>
      <trkpt lat="43.2114" lon="-1.28104">
        <ele>122.05</ele>
        <time>2021-06-05T21:21:44Z</time>
      </trkpt>
      <trkpt lat="43.21123" lon="-1.28078">
        <ele>122.54</ele>
        <time>2021-06-05T21:21:47Z</time>
      </trkpt>
      <trkpt lat="43.21097" lon="-1.28048">
        <ele>121.8</ele>
        <time>2021-06-05T21:21:50Z</time>
      </trkpt>
      <trkpt lat="43.21061" lon="-1.28012">
        <ele>123.38</ele>
        <time>2021-06-05T21:21:53Z</time>
      </trkpt>
      <trkpt lat="43.21039" lon="-1.27982">
        <ele>125.97</ele>
        <time>2021-06-05T21:21:56Z</time>
      </trkpt>
      <trkpt lat="43.20961" lon="-1.27881">
        <ele>139.86</ele>
        <time>2021-06-05T21:21:59Z</time>
      </trkpt>
      <trkpt lat="43.20898" lon="-1.27803">
        <ele>142.97</ele>
        <time>2021-06-05T21:22:02Z</time>
      </trkpt>
      <trkpt lat="43.20875" lon="-1.27771">
        <ele>141.49</ele>
        <time>2021-06-05T21:22:05Z</time>
      </trkpt>
      <trkpt lat="43.20853" lon="-1.27731">
        <ele>135.87</ele>
        <time>2021-06-05T21:22:09Z</time>
      </trkpt>
      <trkpt lat="43.20794" lon="-1.27583">
        <ele>123.03</ele>
        <time>2021-06-05T21:22:12Z</time>
      </trkpt>
      <trkpt lat="43.20782" lon="-1.27558">
        <ele>123.71</ele>
        <time>2021-06-05T21:22:15Z</time>
      </trkpt>
      <trkpt lat="43.20763" lon="-1.2753">
        <ele>123.72</ele>
        <time>2021-06-05T21:22:18Z</time>
      </trkpt>
      <trkpt lat="43.20749" lon="-1.27513">
        <ele>123.5</ele>
        <time>2021-06-05T21:22:21Z</time>
      </trkpt>
      <trkpt lat="43.20728" lon="-1.27495">
        <ele>123.17</ele>
        <time>2021-06-05T21:22:24Z</time>
      </trkpt>
      <trkpt lat="43.20715" lon="-1.27488">
        <ele>124.25</ele>
        <time>2021-06-05T21:22:27Z</time>
      </trkpt>
      <trkpt lat="43.20676" lon="-1.27471">
        <ele>125.36</ele>
        <time>2021-06-05T21:22:30Z</time>
      </trkpt>
      <trkpt lat="43.20636" lon="-1.2746">
        <ele>128.19</ele>
        <time>2021-06-05T21:22:33Z</time>
      </trkpt>
      <trkpt lat="43.20563" lon="-1.27471">
        <ele>134.51</ele>
        <time>2021-06-05T21:22:36Z</time>
      </trkpt>
      <trkpt lat="43.20539" lon="-1.27473">
        <ele>134.6</ele>
        <time>2021-06-05T21:22:39Z</time>
      </trkpt>
      <trkpt lat="43.20506" lon="-1.27468">
        <ele>133.96</ele>
        <time>2021-06-05T21:22:43Z</time>
      </trkpt>
      <trkpt lat="43.20484" lon="-1.27458">
        <ele>133.3</ele>
        <time>2021-06-05T21:22:46Z</time>
      </trkpt>
      <trkpt lat="43.20473" lon="-1.27447">
        <ele>131.65</ele>
        <time>2021-06-05T21:22:49Z</time>
      </trkpt>
      <trkpt lat="43.20461" lon="-1.27431">
        <ele>134.04</ele>
        <time>2021-06-05T21:22:52Z</time>
      </trkpt>
      <trkpt lat="43.20451" lon="-1.27412">
        <ele>135.36</ele>
        <time>2021-06-05T21:22:55Z</time>
      </trkpt>
      <trkpt lat="43.20443" lon="-1.27391">
        <ele>136.74</ele>
        <time>2021-06-05T21:22:58Z</time>
      </trkpt>
      <trkpt lat="43.20436" lon="-1.2736">
        <ele>136.99</ele>
        <time>2021-06-05T21:23:01Z</time>
      </trkpt>
      <trkpt lat="43.20434" lon="-1.27325">
        <ele>136.49</ele>
        <time>2021-06-05T21:23:04Z</time>
      </trkpt>
      <trkpt lat="43.20433" lon="-1.27289">
        <ele>134.17</ele>
        <time>2021-06-05T21:23:07Z</time>
      </trkpt>
      <trkpt lat="43.20436" lon="-1.27249">
        <ele>130.68</ele>
        <time>2021-06-05T21:23:10Z</time>
      </trkpt>
      <trkpt lat="43.2044" lon="-1.27207">
        <ele>128.04</ele>
        <time>2021-06-05T21:23:13Z</time>
      </trkpt>
      <trkpt lat="43.20454" lon="-1.27126">
        <ele>132.02</ele>
        <time>2021-06-05T21:23:17Z</time>
      </trkpt>
      <trkpt lat="43.20461" lon="-1.27056">
        <ele>128.94</ele>
        <time>2021-06-05T21:23:20Z</time>
      </trkpt>
      <trkpt lat="43.2047" lon="-1.26869">
        <ele>135.59</ele>
        <time>2021-06-05T21:23:23Z</time>
      </trkpt>
      <trkpt lat="43.20466" lon="-1.26829">
        <ele>134.96</ele>
        <time>2021-06-05T21:23:26Z</time>
      </trkpt>
      <trkpt lat="43.20442" lon="-1.26744">
        <ele>138.21</ele>
        <time>2021-06-05T21:23:29Z</time>
      </trkpt>
      <trkpt lat="43.20423" lon="-1.26648">
        <ele>140.23</ele>
        <time>2021-06-05T21:23:32Z</time>
      </trkpt>
      <trkpt lat="43.20406" lon="-1.26534">
        <ele>141.68</ele>
        <time>2021-06-05T21:23:35Z</time>
      </trkpt>
      <trkpt lat="43.20387" lon="-1.26435">
        <ele>136.01</ele>
        <time>2021-06-05T21:23:38Z</time>
      </trkpt>
      <trkpt lat="43.20374" lon="-1.2631">
        <ele>135.57</ele>
        <time>2021-06-05T21:23:41Z</time>
      </trkpt>
      <trkpt lat="43.20361" lon="-1.26239">
        <ele>133.58</ele>
        <time>2021-06-05T21:23:44Z</time>
      </trkpt>
      <trkpt lat="43.20351" lon="-1.26211">
        <ele>136.47</ele>
        <time>2021-06-05T21:23:47Z</time>
      </trkpt>
      <trkpt lat="43.20335" lon="-1.26179">
        <ele>139.18</ele>
        <time>2021-06-05T21:23:50Z</time>
      </trkpt>
      <trkpt lat="43.20266" lon="-1.26074">
        <ele>139.89</ele>
        <time>2021-06-05T21:23:54Z</time>
      </trkpt>
      <trkpt lat="43.2025" lon="-1.26055">
        <ele>141.87</ele>
        <time>2021-06-05T21:23:57Z</time>
      </trkpt>
      <trkpt lat="43.20231" lon="-1.26037">
        <ele>147.48</ele>
        <time>2021-06-05T21:24:00Z</time>
      </trkpt>
      <trkpt lat="43.20205" lon="-1.26025">
        <ele>148.37</ele>
        <time>2021-06-05T21:24:03Z</time>
      </trkpt>
      <trkpt lat="43.20087" lon="-1.25981">
        <ele>143.7</ele>
        <time>2021-06-05T21:24:06Z</time>
      </trkpt>
      <trkpt lat="43.20061" lon="-1.25968">
        <ele>140.67</ele>
        <time>2021-06-05T21:24:09Z</time>
      </trkpt>
      <trkpt lat="43.20017" lon="-1.25942">
        <ele>141.99</ele>
        <time>2021-06-05T21:24:12Z</time>
      </trkpt>
      <trkpt lat="43.19962" lon="-1.25901">
        <ele>142.04</ele>
        <time>2021-06-05T21:24:15Z</time>
      </trkpt>
      <trkpt lat="43.19939" lon="-1.25878">
        <ele>142.73</ele>
        <time>2021-06-05T21:24:18Z</time>
      </trkpt>
      <trkpt lat="43.19905" lon="-1.25829">
        <ele>137.65</ele>
        <time>2021-06-05T21:24:21Z</time>
      </trkpt>
      <trkpt lat="43.19888" lon="-1.25809">
        <ele>138.02</ele>
        <time>2021-06-05T21:24:24Z</time>
      </trkpt>
      <trkpt lat="43.19871" lon="-1.25794">
        <ele>138.07</ele>
        <time>2021-06-05T21:24:28Z</time>
      </trkpt>
      <trkpt lat="43.19846" lon="-1.25777">
        <ele>137.93</ele>
        <time>2021-06-05T21:24:31Z</time>
      </trkpt>
      <trkpt lat="43.19729" lon="-1.25707">
        <ele>139.31</ele>
        <time>2021-06-05T21:24:34Z</time>
      </trkpt>
      <trkpt lat="43.19702" lon="-1.25694">
        <ele>139.35</ele>
        <time>2021-06-05T21:24:37Z</time>
      </trkpt>
      <trkpt lat="43.19569" lon="-1.25645">
        <ele>137.85</ele>
        <time>2021-06-05T21:24:40Z</time>
      </trkpt>
      <trkpt lat="43.19513" lon="-1.25638">
        <ele>140.38</ele>
        <time>2021-06-05T21:24:43Z</time>
      </trkpt>
      <trkpt lat="43.19459" lon="-1.25639">
        <ele>142.55</ele>
        <time>2021-06-05T21:24:46Z</time>
      </trkpt>
      <trkpt lat="43.1944" lon="-1.25637">
        <ele>142.37</ele>
        <time>2021-06-05T21:24:49Z</time>
      </trkpt>
      <trkpt lat="43.19412" lon="-1.25628">
        <ele>139.78</ele>
        <time>2021-06-05T21:24:52Z</time>
      </trkpt>
      <trkpt lat="43.19255" lon="-1.25548">
        <ele>146.48</ele>
        <time>2021-06-05T21:24:55Z</time>
      </trkpt>
      <trkpt lat="43.19215" lon="-1.25524">
        <ele>147.47</ele>
        <time>2021-06-05T21:24:58Z</time>
      </trkpt>
      <trkpt lat="43.19142" lon="-1.25471">
        <ele>142.83</ele>
        <time>2021-06-05T21:25:02Z</time>
      </trkpt>
      <trkpt lat="43.19065" lon="-1.2538">
        <ele>143.65</ele>
        <time>2021-06-05T21:25:05Z</time>
      </trkpt>
      <trkpt lat="43.18978" lon="-1.25281">
        <ele>149.44</ele>
        <time>2021-06-05T21:25:08Z</time>
      </trkpt>
      <trkpt lat="43.18957" lon="-1.25261">
        <ele>146.69</ele>
        <time>2021-06-05T21:25:11Z</time>
      </trkpt>
      <trkpt lat="43.18933" lon="-1.25248">
        <ele>146.33</ele>
        <time>2021-06-05T21:25:14Z</time>
      </trkpt>
      <trkpt lat="43.18884" lon="-1.25235">
        <ele>149.51</ele>
        <time>2021-06-05T21:25:17Z</time>
      </trkpt>
      <trkpt lat="43.18867" lon="-1.25232">
        <ele>148.53</ele>
        <time>2021-06-05T21:25:20Z</time>
      </trkpt>
      <trkpt lat="43.18848" lon="-1.25233">
        <ele>148.98</ele>
        <time>2021-06-05T21:25:23Z</time>
      </trkpt>
      <trkpt lat="43.18731" lon="-1.25253">
        <ele>149.52</ele>
        <time>2021-06-05T21:25:26Z</time>
      </trkpt>
      <trkpt lat="43.18719" lon="-1.25257">
        <ele>149.14</ele>
        <time>2021-06-05T21:25:29Z</time>
      </trkpt>
      <trkpt lat="43.18707" lon="-1.25266">
        <ele>149.6</ele>
        <time>2021-06-05T21:25:32Z</time>
      </trkpt>
      <trkpt lat="43.18692" lon="-1.25282">
        <ele>150.38</ele>
        <time>2021-06-05T21:25:35Z</time>
      </trkpt>
      <trkpt lat="43.18682" lon="-1.25299">
        <ele>150.83</ele>
        <time>2021-06-05T21:25:39Z</time>
      </trkpt>
      <trkpt lat="43.18669" lon="-1.25324">
        <ele>150.57</ele>
        <time>2021-06-05T21:25:42Z</time>
      </trkpt>
      <trkpt lat="43.18666" lon="-1.25341">
        <ele>150.8</ele>
        <time>2021-06-05T21:25:45Z</time>
      </trkpt>
      <trkpt lat="43.18659" lon="-1.25428">
        <ele>151</ele>
        <time>2021-06-05T21:25:48Z</time>
      </trkpt>
      <trkpt lat="43.1865" lon="-1.25485">
        <ele>150.61</ele>
        <time>2021-06-05T21:25:51Z</time>
      </trkpt>
      <trkpt lat="43.18641" lon="-1.25554">
        <ele>157.23</ele>
        <time>2021-06-05T21:25:54Z</time>
      </trkpt>
      <trkpt lat="43.18635" lon="-1.25581">
        <ele>158.13</ele>
        <time>2021-06-05T21:25:57Z</time>
      </trkpt>
      <trkpt lat="43.18606" lon="-1.25669">
        <ele>160.38</ele>
        <time>2021-06-05T21:26:00Z</time>
      </trkpt>
      <trkpt lat="43.18598" lon="-1.25691">
        <ele>161.63</ele>
        <time>2021-06-05T21:26:03Z</time>
      </trkpt>
      <trkpt lat="43.18583" lon="-1.25715">
        <ele>162.92</ele>
        <time>2021-06-05T21:26:06Z</time>
      </trkpt>
      <trkpt lat="43.18567" lon="-1.25733">
        <ele>163.71</ele>
        <time>2021-06-05T21:26:09Z</time>
      </trkpt>
      <trkpt lat="43.18554" lon="-1.25744">
        <ele>164.18</ele>
        <time>2021-06-05T21:26:13Z</time>
      </trkpt>
      <trkpt lat="43.18532" lon="-1.25756">
        <ele>162.93</ele>
        <time>2021-06-05T21:26:16Z</time>
      </trkpt>
      <trkpt lat="43.18494" lon="-1.25772">
        <ele>162.92</ele>
        <time>2021-06-05T21:26:19Z</time>
      </trkpt>
      <trkpt lat="43.18472" lon="-1.25777">
        <ele>159.96</ele>
        <time>2021-06-05T21:26:22Z</time>
      </trkpt>
      <trkpt lat="43.18406" lon="-1.25782">
        <ele>165</ele>
        <time>2021-06-05T21:26:25Z</time>
      </trkpt>
      <trkpt lat="43.18379" lon="-1.25787">
        <ele>164.97</ele>
        <time>2021-06-05T21:26:28Z</time>
      </trkpt>
      <trkpt lat="43.18339" lon="-1.25799">
        <ele>165.79</ele>
        <time>2021-06-05T21:26:31Z</time>
      </trkpt>
      <trkpt lat="43.18308" lon="-1.25811">
        <ele>161.43</ele>
        <time>2021-06-05T21:26:34Z</time>
      </trkpt>
      <trkpt lat="43.18289" lon="-1.25822">
        <ele>160.71</ele>
        <time>2021-06-05T21:26:37Z</time>
      </trkpt>
      <trkpt lat="43.1824" lon="-1.25864">
        <ele>159.47</ele>
        <time>2021-06-05T21:26:40Z</time>
      </trkpt>
      <trkpt lat="43.1818" lon="-1.25925">
        <ele>160.77</ele>
        <time>2021-06-05T21:26:43Z</time>
      </trkpt>
      <trkpt lat="43.18164" lon="-1.25938">
        <ele>159.61</ele>
        <time>2021-06-05T21:26:47Z</time>
      </trkpt>
      <trkpt lat="43.18149" lon="-1.25946">
        <ele>160.17</ele>
        <time>2021-06-05T21:26:50Z</time>
      </trkpt>
      <trkpt lat="43.18124" lon="-1.25954">
        <ele>158.1</ele>
        <time>2021-06-05T21:26:53Z</time>
      </trkpt>
      <trkpt lat="43.18103" lon="-1.25957">
        <ele>154</ele>
        <time>2021-06-05T21:26:56Z</time>
      </trkpt>
      <trkpt lat="43.18077" lon="-1.25956">
        <ele>148.43</ele>
        <time>2021-06-05T21:26:59Z</time>
      </trkpt>
      <trkpt lat="43.17993" lon="-1.25945">
        <ele>147.62</ele>
        <time>2021-06-05T21:27:02Z</time>
      </trkpt>
      <trkpt lat="43.17848" lon="-1.25913">
        <ele>148</ele>
        <time>2021-06-05T21:27:05Z</time>
      </trkpt>
      <trkpt lat="43.17828" lon="-1.25906">
        <ele>147.92</ele>
        <time>2021-06-05T21:27:08Z</time>
      </trkpt>
      <trkpt lat="43.17804" lon="-1.25888">
        <ele>147.09</ele>
        <time>2021-06-05T21:27:11Z</time>
      </trkpt>
      <trkpt lat="43.17781" lon="-1.25861">
        <ele>148</ele>
        <time>2021-06-05T21:27:14Z</time>
      </trkpt>
      <trkpt lat="43.17446" lon="-1.25166">
        <ele>152.04</ele>
        <time>2021-06-05T21:27:17Z</time>
      </trkpt>
      <trkpt lat="43.17427" lon="-1.25141">
        <ele>153.7</ele>
        <time>2021-06-05T21:27:20Z</time>
      </trkpt>
      <trkpt lat="43.17407" lon="-1.25128">
        <ele>153.08</ele>
        <time>2021-06-05T21:27:24Z</time>
      </trkpt>
      <trkpt lat="43.17386" lon="-1.25122">
        <ele>152.18</ele>
        <time>2021-06-05T21:27:27Z</time>
      </trkpt>
      <trkpt lat="43.17319" lon="-1.25119">
        <ele>154.27</ele>
        <time>2021-06-05T21:27:30Z</time>
      </trkpt>
      <trkpt lat="43.17297" lon="-1.25108">
        <ele>155.49</ele>
        <time>2021-06-05T21:27:33Z</time>
      </trkpt>
      <trkpt lat="43.1728" lon="-1.25092">
        <ele>157.95</ele>
        <time>2021-06-05T21:27:36Z</time>
      </trkpt>
      <trkpt lat="43.1726" lon="-1.25063">
        <ele>161.76</ele>
        <time>2021-06-05T21:27:39Z</time>
      </trkpt>
      <trkpt lat="43.17185" lon="-1.24902">
        <ele>166.24</ele>
        <time>2021-06-05T21:27:42Z</time>
      </trkpt>
      <trkpt lat="43.17166" lon="-1.24871">
        <ele>162.2</ele>
        <time>2021-06-05T21:27:45Z</time>
      </trkpt>
      <trkpt lat="43.17141" lon="-1.24844">
        <ele>158.72</ele>
        <time>2021-06-05T21:27:48Z</time>
      </trkpt>
      <trkpt lat="43.17099" lon="-1.24813">
        <ele>154.26</ele>
        <time>2021-06-05T21:27:51Z</time>
      </trkpt>
      <trkpt lat="43.16979" lon="-1.24755">
        <ele>152.96</ele>
        <time>2021-06-05T21:27:54Z</time>
      </trkpt>
      <trkpt lat="43.16683" lon="-1.24611">
        <ele>156</ele>
        <time>2021-06-05T21:27:58Z</time>
      </trkpt>
      <trkpt lat="43.16666" lon="-1.24597">
        <ele>155.51</ele>
        <time>2021-06-05T21:28:01Z</time>
      </trkpt>
      <trkpt lat="43.1665" lon="-1.24577">
        <ele>155.7</ele>
        <time>2021-06-05T21:28:04Z</time>
      </trkpt>
      <trkpt lat="43.1643" lon="-1.24273">
        <ele>161.84</ele>
        <time>2021-06-05T21:28:07Z</time>
      </trkpt>
      <trkpt lat="43.16413" lon="-1.24247">
        <ele>162.64</ele>
        <time>2021-06-05T21:28:10Z</time>
      </trkpt>
      <trkpt lat="43.16402" lon="-1.24217">
        <ele>162.96</ele>
        <time>2021-06-05T21:28:13Z</time>
      </trkpt>
      <trkpt lat="43.16386" lon="-1.24146">
        <ele>162.66</ele>
        <time>2021-06-05T21:28:16Z</time>
      </trkpt>
      <trkpt lat="43.16375" lon="-1.24125">
        <ele>161.74</ele>
        <time>2021-06-05T21:28:19Z</time>
      </trkpt>
      <trkpt lat="43.16364" lon="-1.24108">
        <ele>161.72</ele>
        <time>2021-06-05T21:28:22Z</time>
      </trkpt>
      <trkpt lat="43.16302" lon="-1.24021">
        <ele>163.67</ele>
        <time>2021-06-05T21:28:25Z</time>
      </trkpt>
      <trkpt lat="43.16285" lon="-1.23994">
        <ele>162.81</ele>
        <time>2021-06-05T21:28:28Z</time>
      </trkpt>
      <trkpt lat="43.16276" lon="-1.23985">
        <ele>163.1</ele>
        <time>2021-06-05T21:28:31Z</time>
      </trkpt>
      <trkpt lat="43.16246" lon="-1.23943">
        <ele>164.12</ele>
        <time>2021-06-05T21:28:35Z</time>
      </trkpt>
      <trkpt lat="43.16198" lon="-1.23896">
        <ele>165.77</ele>
        <time>2021-06-05T21:28:38Z</time>
      </trkpt>
      <trkpt lat="43.16196" lon="-1.2389">
        <ele>165.89</ele>
        <time>2021-06-05T21:28:41Z</time>
      </trkpt>
      <trkpt lat="43.16196" lon="-1.23883">
        <ele>166.1</ele>
        <time>2021-06-05T21:28:44Z</time>
      </trkpt>
      <trkpt lat="43.16213" lon="-1.23864">
        <ele>166.17</ele>
        <time>2021-06-05T21:28:48Z</time>
      </trkpt>
      <trkpt lat="43.16268" lon="-1.23819">
        <ele>161.87</ele>
        <time>2021-06-05T21:28:52Z</time>
      </trkpt>
      <trkpt lat="43.1629" lon="-1.238">
        <ele>163.3</ele>
        <time>2021-06-05T21:28:56Z</time>
      </trkpt>
      <trkpt lat="43.16296" lon="-1.23792">
        <ele>164.29</ele>
        <time>2021-06-05T21:29:00Z</time>
      </trkpt>
      <trkpt lat="43.16304" lon="-1.23803">
        <ele>164.06</ele>
        <time>2021-06-05T21:29:03Z</time>
      </trkpt>
      <trkpt lat="43.163" lon="-1.2381">
        <ele>163.42</ele>
        <time>2021-06-05T21:29:05Z</time>
      </trkpt>
      <trkpt lat="43.163" lon="-1.2381">
        <ele>163.42</ele>
        <time>2021-06-05T21:29:05Z</time>
      </trkpt>
      <trkpt lat="43.16304" lon="-1.23803">
        <ele>164.06</ele>
        <time>2021-06-05T21:29:07Z</time>
      </trkpt>
      <trkpt lat="43.16296" lon="-1.23792">
        <ele>164.29</ele>
        <time>2021-06-05T21:29:11Z</time>
      </trkpt>
      <trkpt lat="43.16326" lon="-1.23756">
        <ele>169.59</ele>
        <time>2021-06-05T21:29:15Z</time>
      </trkpt>
      <trkpt lat="43.16371" lon="-1.23693">
        <ele>174.47</ele>
        <time>2021-06-05T21:29:20Z</time>
      </trkpt>
      <trkpt lat="43.16384" lon="-1.23671">
        <ele>175.3</ele>
        <time>2021-06-05T21:29:24Z</time>
      </trkpt>
      <trkpt lat="43.16393" lon="-1.23654">
        <ele>176.13</ele>
        <time>2021-06-05T21:29:29Z</time>
      </trkpt>
      <trkpt lat="43.16406" lon="-1.2362">
        <ele>176.32</ele>
        <time>2021-06-05T21:29:33Z</time>
      </trkpt>
      <trkpt lat="43.16404" lon="-1.23595">
        <ele>177.05</ele>
        <time>2021-06-05T21:29:38Z</time>
      </trkpt>
      <trkpt lat="43.16408" lon="-1.23572">
        <ele>176.33</ele>
        <time>2021-06-05T21:29:42Z</time>
      </trkpt>
      <trkpt lat="43.1641" lon="-1.23552">
        <ele>176.14</ele>
        <time>2021-06-05T21:29:47Z</time>
      </trkpt>
      <trkpt lat="43.16412" lon="-1.23504">
        <ele>175.55</ele>
        <time>2021-06-05T21:29:51Z</time>
      </trkpt>
      <trkpt lat="43.16402" lon="-1.23436">
        <ele>178.79</ele>
        <time>2021-06-05T21:29:56Z</time>
      </trkpt>
      <trkpt lat="43.16381" lon="-1.23336">
        <ele>182.34</ele>
        <time>2021-06-05T21:30:01Z</time>
      </trkpt>
      <trkpt lat="43.16343" lon="-1.2324">
        <ele>188.56</ele>
        <time>2021-06-05T21:30:05Z</time>
      </trkpt>
      <trkpt lat="43.16334" lon="-1.23225">
        <ele>190.15</ele>
        <time>2021-06-05T21:30:10Z</time>
      </trkpt>
      <trkpt lat="43.16263" lon="-1.23136">
        <ele>197.14</ele>
        <time>2021-06-05T21:30:14Z</time>
      </trkpt>
      <trkpt lat="43.16236" lon="-1.23081">
        <ele>197.7</ele>
        <time>2021-06-05T21:30:19Z</time>
      </trkpt>
      <trkpt lat="43.16258" lon="-1.22977">
        <ele>188.98</ele>
        <time>2021-06-05T21:30:24Z</time>
      </trkpt>
      <trkpt lat="43.16281" lon="-1.22889">
        <ele>176.78</ele>
        <time>2021-06-05T21:30:29Z</time>
      </trkpt>
      <trkpt lat="43.16286" lon="-1.22878">
        <ele>176.55</ele>
        <time>2021-06-05T21:30:34Z</time>
      </trkpt>
      <trkpt lat="43.16323" lon="-1.22812">
        <ele>175.25</ele>
        <time>2021-06-05T21:30:38Z</time>
      </trkpt>
      <trkpt lat="43.16333" lon="-1.22783">
        <ele>174.04</ele>
        <time>2021-06-05T21:30:43Z</time>
      </trkpt>
      <trkpt lat="43.16365" lon="-1.22602">
        <ele>174.04</ele>
        <time>2021-06-05T21:30:48Z</time>
      </trkpt>
      <trkpt lat="43.16389" lon="-1.22485">
        <ele>171.34</ele>
        <time>2021-06-05T21:30:53Z</time>
      </trkpt>
      <trkpt lat="43.16405" lon="-1.22419">
        <ele>169.07</ele>
        <time>2021-06-05T21:30:58Z</time>
      </trkpt>
      <trkpt lat="43.16412" lon="-1.22405">
        <ele>167.72</ele>
        <time>2021-06-05T21:31:03Z</time>
      </trkpt>
      <trkpt lat="43.16415" lon="-1.22387">
        <ele>167.2</ele>
        <time>2021-06-05T21:31:07Z</time>
      </trkpt>
      <trkpt lat="43.16414" lon="-1.22359">
        <ele>166.17</ele>
        <time>2021-06-05T21:31:12Z</time>
      </trkpt>
      <trkpt lat="43.16427" lon="-1.2231">
        <ele>166.32</ele>
        <time>2021-06-05T21:31:17Z</time>
      </trkpt>
      <trkpt lat="43.16425" lon="-1.22288">
        <ele>166.73</ele>
        <time>2021-06-05T21:31:22Z</time>
      </trkpt>
      <trkpt lat="43.16427" lon="-1.22251">
        <ele>168.19</ele>
        <time>2021-06-05T21:31:27Z</time>
      </trkpt>
      <trkpt lat="43.16436" lon="-1.22197">
        <ele>167.61</ele>
        <time>2021-06-05T21:31:31Z</time>
      </trkpt>
      <trkpt lat="43.16452" lon="-1.22128">
        <ele>165.83</ele>
        <time>2021-06-05T21:31:36Z</time>
      </trkpt>
      <trkpt lat="43.16466" lon="-1.22088">
        <ele>166.82</ele>
        <time>2021-06-05T21:31:41Z</time>
      </trkpt>
      <trkpt lat="43.16475" lon="-1.22053">
        <ele>168.2</ele>
        <time>2021-06-05T21:31:46Z</time>
      </trkpt>
      <trkpt lat="43.1648" lon="-1.22017">
        <ele>169.84</ele>
        <time>2021-06-05T21:31:51Z</time>
      </trkpt>
      <trkpt lat="43.16475" lon="-1.21975">
        <ele>170</ele>
        <time>2021-06-05T21:31:56Z</time>
      </trkpt>
      <trkpt lat="43.16505" lon="-1.21888">
        <ele>169.99</ele>
        <time>2021-06-05T21:32:00Z</time>
      </trkpt>
      <trkpt lat="43.1651" lon="-1.21881">
        <ele>169.9</ele>
        <time>2021-06-05T21:32:05Z</time>
      </trkpt>
      <trkpt lat="43.1652" lon="-1.21873">
        <ele>169.6</ele>
        <time>2021-06-05T21:32:10Z</time>
      </trkpt>
      <trkpt lat="43.16529" lon="-1.21863">
        <ele>169.07</ele>
        <time>2021-06-05T21:32:15Z</time>
      </trkpt>
      <trkpt lat="43.16538" lon="-1.2185">
        <ele>169</ele>
        <time>2021-06-05T21:32:20Z</time>
      </trkpt>
      <trkpt lat="43.16562" lon="-1.21806">
        <ele>169.46</ele>
        <time>2021-06-05T21:32:25Z</time>
      </trkpt>
      <trkpt lat="43.16581" lon="-1.21789">
        <ele>170.86</ele>
        <time>2021-06-05T21:32:29Z</time>
      </trkpt>
      <trkpt lat="43.16597" lon="-1.21776">
        <ele>171.53</ele>
        <time>2021-06-05T21:32:34Z</time>
      </trkpt>
      <trkpt lat="43.16634" lon="-1.21757">
        <ele>172.84</ele>
        <time>2021-06-05T21:32:39Z</time>
      </trkpt>
      <trkpt lat="43.16744" lon="-1.21686">
        <ele>177.49</ele>
        <time>2021-06-05T21:32:44Z</time>
      </trkpt>
      <trkpt lat="43.16605" lon="-1.20423">
        <ele>186</ele>
        <time>2021-06-05T21:33:17Z</time>
      </trkpt>
      <trkpt lat="43.16598" lon="-1.204">
        <ele>186.61</ele>
        <time>2021-06-05T21:33:49Z</time>
      </trkpt>
      <trkpt lat="43.16593" lon="-1.20391">
        <ele>186.92</ele>
        <time>2021-06-05T21:34:22Z</time>
      </trkpt>
      <trkpt lat="43.16588" lon="-1.20385">
        <ele>187.02</ele>
        <time>2021-06-05T21:34:27Z</time>
      </trkpt>
      <trkpt lat="43.16585" lon="-1.20377">
        <ele>187.02</ele>
        <time>2021-06-05T21:34:32Z</time>
      </trkpt>
      <trkpt lat="43.16584" lon="-1.20369">
        <ele>187.03</ele>
        <time>2021-06-05T21:34:37Z</time>
      </trkpt>
      <trkpt lat="43.16586" lon="-1.20362">
        <ele>187.11</ele>
        <time>2021-06-05T21:34:42Z</time>
      </trkpt>
      <trkpt lat="43.1659" lon="-1.20356">
        <ele>187.41</ele>
        <time>2021-06-05T21:34:48Z</time>
      </trkpt>
      <trkpt lat="43.16597" lon="-1.20352">
        <ele>187.8</ele>
        <time>2021-06-05T21:34:53Z</time>
      </trkpt>
      <trkpt lat="43.16603" lon="-1.20352">
        <ele>188.02</ele>
        <time>2021-06-05T21:34:58Z</time>
      </trkpt>
      <trkpt lat="43.16608" lon="-1.20355">
        <ele>188.1</ele>
        <time>2021-06-05T21:35:03Z</time>
      </trkpt>
      <trkpt lat="43.16611" lon="-1.2036">
        <ele>188.07</ele>
        <time>2021-06-05T21:35:08Z</time>
      </trkpt>
      <trkpt lat="43.16617" lon="-1.20362">
        <ele>188.38</ele>
        <time>2021-06-05T21:35:13Z</time>
      </trkpt>
      <trkpt lat="43.16626" lon="-1.20361">
        <ele>189.08</ele>
        <time>2021-06-05T21:35:18Z</time>
      </trkpt>
      <trkpt lat="43.16636" lon="-1.20358">
        <ele>189.89</ele>
        <time>2021-06-05T21:35:23Z</time>
      </trkpt>
      <trkpt lat="43.16654" lon="-1.20339">
        <ele>191.77</ele>
        <time>2021-06-05T21:35:29Z</time>
      </trkpt>
      <trkpt lat="43.1667" lon="-1.2032">
        <ele>193.43</ele>
        <time>2021-06-05T21:35:34Z</time>
      </trkpt>
      <trkpt lat="43.16696" lon="-1.20272">
        <ele>195.16</ele>
        <time>2021-06-05T21:35:39Z</time>
      </trkpt>
      <trkpt lat="43.16719" lon="-1.202">
        <ele>196.79</ele>
        <time>2021-06-05T21:35:44Z</time>
      </trkpt>
      <trkpt lat="43.16763" lon="-1.20026">
        <ele>198.46</ele>
        <time>2021-06-05T21:35:49Z</time>
      </trkpt>
      <trkpt lat="43.16812" lon="-1.1983">
        <ele>199.4</ele>
        <time>2021-06-05T21:35:54Z</time>
      </trkpt>
      <trkpt lat="43.16827" lon="-1.19733">
        <ele>200.79</ele>
        <time>2021-06-05T21:35:59Z</time>
      </trkpt>
      <trkpt lat="43.16834" lon="-1.19656">
        <ele>198.18</ele>
        <time>2021-06-05T21:36:04Z</time>
      </trkpt>
      <trkpt lat="43.16847" lon="-1.19414">
        <ele>205.47</ele>
        <time>2021-06-05T21:36:10Z</time>
      </trkpt>
      <trkpt lat="43.16892" lon="-1.18969">
        <ele>211.75</ele>
        <time>2021-06-05T21:36:15Z</time>
      </trkpt>
      <trkpt lat="43.16902" lon="-1.18908">
        <ele>203.43</ele>
        <time>2021-06-05T21:36:20Z</time>
      </trkpt>
      <trkpt lat="43.16916" lon="-1.18862">
        <ele>192.17</ele>
        <time>2021-06-05T21:36:25Z</time>
      </trkpt>
      <trkpt lat="43.16943" lon="-1.18797">
        <ele>189.45</ele>
        <time>2021-06-05T21:36:30Z</time>
      </trkpt>
      <trkpt lat="43.16976" lon="-1.18743">
        <ele>190.63</ele>
        <time>2021-06-05T21:36:35Z</time>
      </trkpt>
      <trkpt lat="43.17023" lon="-1.18696">
        <ele>194.11</ele>
        <time>2021-06-05T21:36:40Z</time>
      </trkpt>
      <trkpt lat="43.17415" lon="-1.18375">
        <ele>190.6</ele>
        <time>2021-06-05T21:36:45Z</time>
      </trkpt>
      <trkpt lat="43.17897" lon="-1.17991">
        <ele>215.82</ele>
        <time>2021-06-05T21:36:51Z</time>
      </trkpt>
      <trkpt lat="43.18215" lon="-1.17732">
        <ele>199.99</ele>
        <time>2021-06-05T21:36:56Z</time>
      </trkpt>
      <trkpt lat="43.18267" lon="-1.17673">
        <ele>203.77</ele>
        <time>2021-06-05T21:37:01Z</time>
      </trkpt>
      <trkpt lat="43.18285" lon="-1.17642">
        <ele>203.77</ele>
        <time>2021-06-05T21:37:06Z</time>
      </trkpt>
      <trkpt lat="43.183" lon="-1.17606">
        <ele>203.28</ele>
        <time>2021-06-05T21:37:11Z</time>
      </trkpt>
      <trkpt lat="43.18335" lon="-1.17403">
        <ele>199.96</ele>
        <time>2021-06-05T21:37:16Z</time>
      </trkpt>
      <trkpt lat="43.18353" lon="-1.17309">
        <ele>199.54</ele>
        <time>2021-06-05T21:37:21Z</time>
      </trkpt>
      <trkpt lat="43.18362" lon="-1.17277">
        <ele>199</ele>
        <time>2021-06-05T21:37:26Z</time>
      </trkpt>
      <trkpt lat="43.1838" lon="-1.1723">
        <ele>198.21</ele>
        <time>2021-06-05T21:37:32Z</time>
      </trkpt>
      <trkpt lat="43.18402" lon="-1.17194">
        <ele>197</ele>
        <time>2021-06-05T21:37:37Z</time>
      </trkpt>
      <trkpt lat="43.18428" lon="-1.17164">
        <ele>198.07</ele>
        <time>2021-06-05T21:37:42Z</time>
      </trkpt>
      <trkpt lat="43.18514" lon="-1.17085">
        <ele>198.96</ele>
        <time>2021-06-05T21:37:47Z</time>
      </trkpt>
      <trkpt lat="43.18835" lon="-1.16807">
        <ele>224.23</ele>
        <time>2021-06-05T21:37:52Z</time>
      </trkpt>
      <trkpt lat="43.1895" lon="-1.16682">
        <ele>226.29</ele>
        <time>2021-06-05T21:37:57Z</time>
      </trkpt>
      <trkpt lat="43.18976" lon="-1.1665">
        <ele>225.09</ele>
        <time>2021-06-05T21:38:02Z</time>
      </trkpt>
      <trkpt lat="43.19098" lon="-1.16524">
        <ele>230.33</ele>
        <time>2021-06-05T21:38:07Z</time>
      </trkpt>
      <trkpt lat="43.19107" lon="-1.16516">
        <ele>230.82</ele>
        <time>2021-06-05T21:38:13Z</time>
      </trkpt>
      <trkpt lat="43.19128" lon="-1.16508">
        <ele>233.53</ele>
        <time>2021-06-05T21:38:18Z</time>
      </trkpt>
      <trkpt lat="43.19168" lon="-1.16505">
        <ele>238.68</ele>
        <time>2021-06-05T21:38:23Z</time>
      </trkpt>
      <trkpt lat="43.19232" lon="-1.165">
        <ele>236.04</ele>
        <time>2021-06-05T21:38:28Z</time>
      </trkpt>
      <trkpt lat="43.19252" lon="-1.16493">
        <ele>236.32</ele>
        <time>2021-06-05T21:38:33Z</time>
      </trkpt>
      <trkpt lat="43.19266" lon="-1.16486">
        <ele>235.65</ele>
        <time>2021-06-05T21:38:38Z</time>
      </trkpt>
      <trkpt lat="43.19314" lon="-1.16448">
        <ele>237.14</ele>
        <time>2021-06-05T21:38:43Z</time>
      </trkpt>
      <trkpt lat="43.1934" lon="-1.1642">
        <ele>234.34</ele>
        <time>2021-06-05T21:38:48Z</time>
      </trkpt>
      <trkpt lat="43.19363" lon="-1.16388">
        <ele>229.34</ele>
        <time>2021-06-05T21:38:54Z</time>
      </trkpt>
      <trkpt lat="43.19374" lon="-1.16369">
        <ele>225.17</ele>
        <time>2021-06-05T21:38:59Z</time>
      </trkpt>
      <trkpt lat="43.19495" lon="-1.16133">
        <ele>211.76</ele>
        <time>2021-06-05T21:39:04Z</time>
      </trkpt>
      <trkpt lat="43.19732" lon="-1.15643">
        <ele>222.23</ele>
        <time>2021-06-05T21:39:09Z</time>
      </trkpt>
      <trkpt lat="43.19747" lon="-1.15607">
        <ele>223.88</ele>
        <time>2021-06-05T21:39:14Z</time>
      </trkpt>
      <trkpt lat="43.19761" lon="-1.15569">
        <ele>225.96</ele>
        <time>2021-06-05T21:39:19Z</time>
      </trkpt>
      <trkpt lat="43.19771" lon="-1.15507">
        <ele>226.54</ele>
        <time>2021-06-05T21:39:24Z</time>
      </trkpt>
      <trkpt lat="43.19788" lon="-1.15381">
        <ele>230.6</ele>
        <time>2021-06-05T21:39:29Z</time>
      </trkpt>
      <trkpt lat="43.19799" lon="-1.15312">
        <ele>233.55</ele>
        <time>2021-06-05T21:39:35Z</time>
      </trkpt>
      <trkpt lat="43.19821" lon="-1.15231">
        <ele>234.43</ele>
        <time>2021-06-05T21:39:40Z</time>
      </trkpt>
      <trkpt lat="43.1984" lon="-1.15188">
        <ele>235.08</ele>
        <time>2021-06-05T21:39:45Z</time>
      </trkpt>
      <trkpt lat="43.19856" lon="-1.1516">
        <ele>235.45</ele>
        <time>2021-06-05T21:39:50Z</time>
      </trkpt>
      <trkpt lat="43.19883" lon="-1.15124">
        <ele>235</ele>
        <time>2021-06-05T21:39:55Z</time>
      </trkpt>
      <trkpt lat="43.1992" lon="-1.15092">
        <ele>233</ele>
        <time>2021-06-05T21:40:00Z</time>
      </trkpt>
      <trkpt lat="43.19938" lon="-1.15079">
        <ele>230.77</ele>
        <time>2021-06-05T21:40:05Z</time>
      </trkpt>
      <trkpt lat="43.19969" lon="-1.15064">
        <ele>228.96</ele>
        <time>2021-06-05T21:40:10Z</time>
      </trkpt>
      <trkpt lat="43.20018" lon="-1.15044">
        <ele>226.37</ele>
        <time>2021-06-05T21:40:16Z</time>
      </trkpt>
      <trkpt lat="43.20036" lon="-1.15034">
        <ele>226.31</ele>
        <time>2021-06-05T21:40:21Z</time>
      </trkpt>
      <trkpt lat="43.20059" lon="-1.15017">
        <ele>226.98</ele>
        <time>2021-06-05T21:40:26Z</time>
      </trkpt>
      <trkpt lat="43.20086" lon="-1.14995">
        <ele>229.09</ele>
        <time>2021-06-05T21:40:31Z</time>
      </trkpt>
      <trkpt lat="43.2019" lon="-1.14898">
        <ele>232.09</ele>
        <time>2021-06-05T21:40:36Z</time>
      </trkpt>
      <trkpt lat="43.20312" lon="-1.1478">
        <ele>235.69</ele>
        <time>2021-06-05T21:40:41Z</time>
      </trkpt>
      <trkpt lat="43.20409" lon="-1.14654">
        <ele>237.04</ele>
        <time>2021-06-05T21:40:46Z</time>
      </trkpt>
      <trkpt lat="43.20519" lon="-1.14518">
        <ele>237.9</ele>
        <time>2021-06-05T21:40:51Z</time>
      </trkpt>
      <trkpt lat="43.20562" lon="-1.14451">
        <ele>240.48</ele>
        <time>2021-06-05T21:40:57Z</time>
      </trkpt>
      <trkpt lat="43.20675" lon="-1.14247">
        <ele>241.05</ele>
        <time>2021-06-05T21:41:02Z</time>
      </trkpt>
      <trkpt lat="43.20701" lon="-1.14205">
        <ele>244.39</ele>
        <time>2021-06-05T21:41:07Z</time>
      </trkpt>
      <trkpt lat="43.21105" lon="-1.13678">
        <ele>268.17</ele>
        <time>2021-06-05T21:41:12Z</time>
      </trkpt>
      <trkpt lat="43.21135" lon="-1.13648">
        <ele>266.66</ele>
        <time>2021-06-05T21:41:17Z</time>
      </trkpt>
      <trkpt lat="43.21202" lon="-1.13595">
        <ele>265.36</ele>
        <time>2021-06-05T21:41:22Z</time>
      </trkpt>
      <trkpt lat="43.21267" lon="-1.135">
        <ele>251.83</ele>
        <time>2021-06-05T21:41:27Z</time>
      </trkpt>
      <trkpt lat="43.21323" lon="-1.13407">
        <ele>240.19</ele>
        <time>2021-06-05T21:41:32Z</time>
      </trkpt>
      <trkpt lat="43.21342" lon="-1.13349">
        <ele>238.19</ele>
        <time>2021-06-05T21:41:38Z</time>
      </trkpt>
      <trkpt lat="43.21357" lon="-1.13268">
        <ele>237.4</ele>
        <time>2021-06-05T21:41:43Z</time>
      </trkpt>
      <trkpt lat="43.21355" lon="-1.13037">
        <ele>218.81</ele>
        <time>2021-06-05T21:41:48Z</time>
      </trkpt>
      <trkpt lat="43.21374" lon="-1.12927">
        <ele>214.88</ele>
        <time>2021-06-05T21:41:53Z</time>
      </trkpt>
      <trkpt lat="43.21435" lon="-1.12789">
        <ele>198.76</ele>
        <time>2021-06-05T21:41:58Z</time>
      </trkpt>
      <trkpt lat="43.2151" lon="-1.12606">
        <ele>196.67</ele>
        <time>2021-06-05T21:42:03Z</time>
      </trkpt>
      <trkpt lat="43.21524" lon="-1.12577">
        <ele>195.6</ele>
        <time>2021-06-05T21:42:08Z</time>
      </trkpt>
      <trkpt lat="43.21547" lon="-1.12542">
        <ele>196.8</ele>
        <time>2021-06-05T21:42:13Z</time>
      </trkpt>
      <trkpt lat="43.2158" lon="-1.12506">
        <ele>193.94</ele>
        <time>2021-06-05T21:42:19Z</time>
      </trkpt>
      <trkpt lat="43.21728" lon="-1.12358">
        <ele>186.44</ele>
        <time>2021-06-05T21:42:24Z</time>
      </trkpt>
      <trkpt lat="43.21841" lon="-1.12242">
        <ele>174.77</ele>
        <time>2021-06-05T21:42:29Z</time>
      </trkpt>
      <trkpt lat="43.21892" lon="-1.1219">
        <ele>171.92</ele>
        <time>2021-06-05T21:42:34Z</time>
      </trkpt>
      <trkpt lat="43.21933" lon="-1.12143">
        <ele>171.51</ele>
        <time>2021-06-05T21:42:39Z</time>
      </trkpt>
      <trkpt lat="43.21929" lon="-1.12133">
        <ele>171.34</ele>
        <time>2021-06-05T21:42:45Z</time>
      </trkpt>
      <trkpt lat="43.21919" lon="-1.12053">
        <ele>169.8</ele>
        <time>2021-06-05T21:42:52Z</time>
      </trkpt>
      <trkpt lat="43.21929" lon="-1.11987">
        <ele>170.12</ele>
        <time>2021-06-05T21:42:58Z</time>
      </trkpt>
      <trkpt lat="43.21958" lon="-1.11904">
        <ele>169.59</ele>
        <time>2021-06-05T21:43:04Z</time>
      </trkpt>
      <trkpt lat="43.21978" lon="-1.11821">
        <ele>169.83</ele>
        <time>2021-06-05T21:43:10Z</time>
      </trkpt>
      <trkpt lat="43.22037" lon="-1.11722">
        <ele>169.35</ele>
        <time>2021-06-05T21:43:17Z</time>
      </trkpt>
      <trkpt lat="43.22041" lon="-1.11706">
        <ele>169.64</ele>
        <time>2021-06-05T21:43:23Z</time>
      </trkpt>
      <trkpt lat="43.22038" lon="-1.11692">
        <ele>170.39</ele>
        <time>2021-06-05T21:43:29Z</time>
      </trkpt>
      <trkpt lat="43.22013" lon="-1.11653">
        <ele>172.8</ele>
        <time>2021-06-05T21:43:36Z</time>
      </trkpt>
      <trkpt lat="43.22009" lon="-1.11634">
        <ele>173.56</ele>
        <time>2021-06-05T21:43:42Z</time>
      </trkpt>
      <trkpt lat="43.2201" lon="-1.1162">
        <ele>173.94</ele>
        <time>2021-06-05T21:43:48Z</time>
      </trkpt>
      <trkpt lat="43.22046" lon="-1.11524">
        <ele>173.47</ele>
        <time>2021-06-05T21:43:54Z</time>
      </trkpt>
      <trkpt lat="43.22088" lon="-1.11341">
        <ele>173.35</ele>
        <time>2021-06-05T21:44:01Z</time>
      </trkpt>
      <trkpt lat="43.22093" lon="-1.11283">
        <ele>174</ele>
        <time>2021-06-05T21:44:07Z</time>
      </trkpt>
      <trkpt lat="43.22139" lon="-1.11136">
        <ele>171.91</ele>
        <time>2021-06-05T21:44:13Z</time>
      </trkpt>
      <trkpt lat="43.22158" lon="-1.11095">
        <ele>170.52</ele>
        <time>2021-06-05T21:44:19Z</time>
      </trkpt>
      <trkpt lat="43.22194" lon="-1.11035">
        <ele>170.73</ele>
        <time>2021-06-05T21:44:26Z</time>
      </trkpt>
      <trkpt lat="43.22249" lon="-1.10925">
        <ele>168.04</ele>
        <time>2021-06-05T21:44:32Z</time>
      </trkpt>
      <trkpt lat="43.22262" lon="-1.10888">
        <ele>164.48</ele>
        <time>2021-06-05T21:44:38Z</time>
      </trkpt>
      <trkpt lat="43.22282" lon="-1.10789">
        <ele>160.5</ele>
        <time>2021-06-05T21:44:44Z</time>
      </trkpt>
      <trkpt lat="43.22288" lon="-1.10734">
        <ele>162.84</ele>
        <time>2021-06-05T21:44:51Z</time>
      </trkpt>
      <trkpt lat="43.22308" lon="-1.10687">
        <ele>162.9</ele>
        <time>2021-06-05T21:44:57Z</time>
      </trkpt>
      <trkpt lat="43.22316" lon="-1.10647">
        <ele>166.98</ele>
        <time>2021-06-05T21:45:03Z</time>
      </trkpt>
      <trkpt lat="43.22322" lon="-1.10579">
        <ele>169.91</ele>
        <time>2021-06-05T21:45:09Z</time>
      </trkpt>
      <trkpt lat="43.22327" lon="-1.10475">
        <ele>170.07</ele>
        <time>2021-06-05T21:45:16Z</time>
      </trkpt>
      <trkpt lat="43.22331" lon="-1.10452">
        <ele>169.92</ele>
        <time>2021-06-05T21:45:22Z</time>
      </trkpt>
      <trkpt lat="43.22354" lon="-1.1036">
        <ele>171.73</ele>
        <time>2021-06-05T21:45:28Z</time>
      </trkpt>
      <trkpt lat="43.22379" lon="-1.10236">
        <ele>169.97</ele>
        <time>2021-06-05T21:45:34Z</time>
      </trkpt>
      <trkpt lat="43.22414" lon="-1.10116">
        <ele>172.45</ele>
        <time>2021-06-05T21:45:41Z</time>
      </trkpt>
      <trkpt lat="43.22418" lon="-1.10074">
        <ele>168.23</ele>
        <time>2021-06-05T21:45:47Z</time>
      </trkpt>
      <trkpt lat="43.22419" lon="-1.09975">
        <ele>165.85</ele>
        <time>2021-06-05T21:45:53Z</time>
      </trkpt>
      <trkpt lat="43.22418" lon="-1.09939">
        <ele>165.99</ele>
        <time>2021-06-05T21:46:00Z</time>
      </trkpt>
      <trkpt lat="43.22418" lon="-1.09939">
        <ele>165.99</ele>
        <time>2021-06-05T21:46:00Z</time>
      </trkpt>
      <trkpt lat="43.22408" lon="-1.09887">
        <ele>166.39</ele>
        <time>2021-06-05T21:46:03Z</time>
      </trkpt>
      <trkpt lat="43.22408" lon="-1.09872">
        <ele>165.24</ele>
        <time>2021-06-05T21:46:07Z</time>
      </trkpt>
      <trkpt lat="43.22421" lon="-1.09813">
        <ele>164.26</ele>
        <time>2021-06-05T21:46:11Z</time>
      </trkpt>
      <trkpt lat="43.22435" lon="-1.09726">
        <ele>162.35</ele>
        <time>2021-06-05T21:46:14Z</time>
      </trkpt>
      <trkpt lat="43.22441" lon="-1.09676">
        <ele>162.98</ele>
        <time>2021-06-05T21:46:18Z</time>
      </trkpt>
      <trkpt lat="43.22454" lon="-1.0961">
        <ele>165.68</ele>
        <time>2021-06-05T21:46:22Z</time>
      </trkpt>
      <trkpt lat="43.22456" lon="-1.0957">
        <ele>166.57</ele>
        <time>2021-06-05T21:46:25Z</time>
      </trkpt>
      <trkpt lat="43.22463" lon="-1.09564">
        <ele>166.45</ele>
        <time>2021-06-05T21:46:29Z</time>
      </trkpt>
      <trkpt lat="43.22478" lon="-1.09558">
        <ele>165.59</ele>
        <time>2021-06-05T21:46:33Z</time>
      </trkpt>
      <trkpt lat="43.22489" lon="-1.09548">
        <ele>164.79</ele>
        <time>2021-06-05T21:46:36Z</time>
      </trkpt>
      <trkpt lat="43.22495" lon="-1.09535">
        <ele>164.33</ele>
        <time>2021-06-05T21:46:40Z</time>
      </trkpt>
      <trkpt lat="43.22507" lon="-1.09498">
        <ele>163.67</ele>
        <time>2021-06-05T21:46:44Z</time>
      </trkpt>
      <trkpt lat="43.22525" lon="-1.09447">
        <ele>160.35</ele>
        <time>2021-06-05T21:46:47Z</time>
      </trkpt>
      <trkpt lat="43.22528" lon="-1.09433">
        <ele>158.79</ele>
        <time>2021-06-05T21:46:51Z</time>
      </trkpt>
      <trkpt lat="43.22527" lon="-1.09421">
        <ele>157.57</ele>
        <time>2021-06-05T21:46:55Z</time>
      </trkpt>
      <trkpt lat="43.22523" lon="-1.09399">
        <ele>155.86</ele>
        <time>2021-06-05T21:46:58Z</time>
      </trkpt>
      <trkpt lat="43.225" lon="-1.09334">
        <ele>152.01</ele>
        <time>2021-06-05T21:47:02Z</time>
      </trkpt>
      <trkpt lat="43.22498" lon="-1.09318">
        <ele>151.8</ele>
        <time>2021-06-05T21:47:06Z</time>
      </trkpt>
      <trkpt lat="43.22499" lon="-1.09302">
        <ele>151.31</ele>
        <time>2021-06-05T21:47:10Z</time>
      </trkpt>
      <trkpt lat="43.22521" lon="-1.09219">
        <ele>150.48</ele>
        <time>2021-06-05T21:47:13Z</time>
      </trkpt>
      <trkpt lat="43.22527" lon="-1.09193">
        <ele>150.05</ele>
        <time>2021-06-05T21:47:17Z</time>
      </trkpt>
      <trkpt lat="43.22531" lon="-1.09168">
        <ele>149.79</ele>
        <time>2021-06-05T21:47:21Z</time>
      </trkpt>
      <trkpt lat="43.22537" lon="-1.09057">
        <ele>153.17</ele>
        <time>2021-06-05T21:47:24Z</time>
      </trkpt>
      <trkpt lat="43.22535" lon="-1.08933">
        <ele>158.21</ele>
        <time>2021-06-05T21:47:28Z</time>
      </trkpt>
      <trkpt lat="43.22537" lon="-1.08909">
        <ele>158.27</ele>
        <time>2021-06-05T21:47:32Z</time>
      </trkpt>
      <trkpt lat="43.22541" lon="-1.08867">
        <ele>159.38</ele>
        <time>2021-06-05T21:47:36Z</time>
      </trkpt>
      <trkpt lat="43.22536" lon="-1.08846">
        <ele>159.78</ele>
        <time>2021-06-05T21:47:40Z</time>
      </trkpt>
      <trkpt lat="43.22535" lon="-1.08819">
        <ele>158.43</ele>
        <time>2021-06-05T21:47:44Z</time>
      </trkpt>
      <trkpt lat="43.22537" lon="-1.08783">
        <ele>155.76</ele>
        <time>2021-06-05T21:47:49Z</time>
      </trkpt>
      <trkpt lat="43.22483" lon="-1.08771">
        <ele>157.37</ele>
        <time>2021-06-05T21:47:58Z</time>
      </trkpt>
      <trkpt lat="43.22458" lon="-1.08762">
        <ele>157.72</ele>
        <time>2021-06-05T21:48:08Z</time>
      </trkpt>
      <trkpt lat="43.22387" lon="-1.0874">
        <ele>155.71</ele>
        <time>2021-06-05T21:48:17Z</time>
      </trkpt>
      <trkpt lat="43.21965" lon="-1.08617">
        <ele>154.94</ele>
        <time>2021-06-05T21:48:26Z</time>
      </trkpt>
      <trkpt lat="43.21328" lon="-1.08427">
        <ele>159.48</ele>
        <time>2021-06-05T21:48:36Z</time>
      </trkpt>
      <trkpt lat="43.213" lon="-1.08412">
        <ele>157.82</ele>
        <time>2021-06-05T21:48:45Z</time>
      </trkpt>
      <trkpt lat="43.21288" lon="-1.08402">
        <ele>157.45</ele>
        <time>2021-06-05T21:48:55Z</time>
      </trkpt>
      <trkpt lat="43.21276" lon="-1.08387">
        <ele>156.93</ele>
        <time>2021-06-05T21:49:04Z</time>
      </trkpt>
      <trkpt lat="43.21045" lon="-1.08047">
        <ele>152.17</ele>
        <time>2021-06-05T21:49:14Z</time>
      </trkpt>
      <trkpt lat="43.21008" lon="-1.07996">
        <ele>151.58</ele>
        <time>2021-06-05T21:49:23Z</time>
      </trkpt>
      <trkpt lat="43.20952" lon="-1.07913">
        <ele>151.83</ele>
        <time>2021-06-05T21:49:32Z</time>
      </trkpt>
      <trkpt lat="43.20907" lon="-1.07842">
        <ele>154.9</ele>
        <time>2021-06-05T21:49:42Z</time>
      </trkpt>
      <trkpt lat="43.20796" lon="-1.07675">
        <ele>148.66</ele>
        <time>2021-06-05T21:49:51Z</time>
      </trkpt>
      <trkpt lat="43.20716" lon="-1.07551">
        <ele>148.46</ele>
        <time>2021-06-05T21:50:01Z</time>
      </trkpt>
      <trkpt lat="43.20673" lon="-1.07479">
        <ele>154.79</ele>
        <time>2021-06-05T21:50:10Z</time>
      </trkpt>
      <trkpt lat="43.2057" lon="-1.07288">
        <ele>161.8</ele>
        <time>2021-06-05T21:50:20Z</time>
      </trkpt>
      <trkpt lat="43.20482" lon="-1.07133">
        <ele>160.55</ele>
        <time>2021-06-05T21:50:29Z</time>
      </trkpt>
      <trkpt lat="43.20462" lon="-1.07099">
        <ele>160.4</ele>
        <time>2021-06-05T21:50:38Z</time>
      </trkpt>
      <trkpt lat="43.2039" lon="-1.0699">
        <ele>159.89</ele>
        <time>2021-06-05T21:50:48Z</time>
      </trkpt>
      <trkpt lat="43.20365" lon="-1.06945">
        <ele>163.29</ele>
        <time>2021-06-05T21:50:57Z</time>
      </trkpt>
      <trkpt lat="43.20276" lon="-1.06761">
        <ele>168.93</ele>
        <time>2021-06-05T21:51:07Z</time>
      </trkpt>
      <trkpt lat="43.2027" lon="-1.06765">
        <ele>169.64</ele>
        <time>2021-06-05T21:51:09Z</time>
      </trkpt>
      <trkpt lat="43.20262" lon="-1.06766">
        <ele>170.28</ele>
        <time>2021-06-05T21:51:12Z</time>
      </trkpt>
      <trkpt lat="43.20229" lon="-1.06762">
        <ele>171.63</ele>
        <time>2021-06-05T21:51:14Z</time>
      </trkpt>
      <trkpt lat="43.20217" lon="-1.06756">
        <ele>171.83</ele>
        <time>2021-06-05T21:51:17Z</time>
      </trkpt>
      <trkpt lat="43.20197" lon="-1.06743">
        <ele>172.52</ele>
        <time>2021-06-05T21:51:19Z</time>
      </trkpt>
      <trkpt lat="43.20186" lon="-1.06737">
        <ele>173.13</ele>
        <time>2021-06-05T21:51:22Z</time>
      </trkpt>
      <trkpt lat="43.20179" lon="-1.06736">
        <ele>173.62</ele>
        <time>2021-06-05T21:51:25Z</time>
      </trkpt>
      <trkpt lat="43.2017" lon="-1.06736">
        <ele>174.25</ele>
        <time>2021-06-05T21:51:27Z</time>
      </trkpt>
      <trkpt lat="43.20134" lon="-1.06755">
        <ele>175</ele>
        <time>2021-06-05T21:51:30Z</time>
      </trkpt>
      <trkpt lat="43.20104" lon="-1.06763">
        <ele>174.74</ele>
        <time>2021-06-05T21:51:32Z</time>
      </trkpt>
      <trkpt lat="43.2009" lon="-1.06763">
        <ele>174.23</ele>
        <time>2021-06-05T21:51:35Z</time>
      </trkpt>
      <trkpt lat="43.20076" lon="-1.06761">
        <ele>173.89</ele>
        <time>2021-06-05T21:51:37Z</time>
      </trkpt>
      <trkpt lat="43.20021" lon="-1.06745">
        <ele>174.85</ele>
        <time>2021-06-05T21:51:40Z</time>
      </trkpt>
      <trkpt lat="43.19956" lon="-1.06741">
        <ele>178.78</ele>
        <time>2021-06-05T21:51:42Z</time>
      </trkpt>
      <trkpt lat="43.19907" lon="-1.06745">
        <ele>181.4</ele>
        <time>2021-06-05T21:51:45Z</time>
      </trkpt>
      <trkpt lat="43.19891" lon="-1.06754">
        <ele>181.81</ele>
        <time>2021-06-05T21:51:48Z</time>
      </trkpt>
      <trkpt lat="43.19876" lon="-1.06766">
        <ele>182.33</ele>
        <time>2021-06-05T21:51:50Z</time>
      </trkpt>
      <trkpt lat="43.19819" lon="-1.06826">
        <ele>186.76</ele>
        <time>2021-06-05T21:51:53Z</time>
      </trkpt>
      <trkpt lat="43.19803" lon="-1.06838">
        <ele>189.85</ele>
        <time>2021-06-05T21:51:55Z</time>
      </trkpt>
      <trkpt lat="43.19791" lon="-1.06843">
        <ele>192.92</ele>
        <time>2021-06-05T21:51:58Z</time>
      </trkpt>
      <trkpt lat="43.19776" lon="-1.06844">
        <ele>196</ele>
        <time>2021-06-05T21:52:00Z</time>
      </trkpt>
      <trkpt lat="43.19758" lon="-1.06841">
        <ele>197.66</ele>
        <time>2021-06-05T21:52:03Z</time>
      </trkpt>
      <trkpt lat="43.19733" lon="-1.06832">
        <ele>199.08</ele>
        <time>2021-06-05T21:52:06Z</time>
      </trkpt>
      <trkpt lat="43.19715" lon="-1.06832">
        <ele>200.42</ele>
        <time>2021-06-05T21:52:08Z</time>
      </trkpt>
      <trkpt lat="43.19698" lon="-1.06835">
        <ele>201.97</ele>
        <time>2021-06-05T21:52:11Z</time>
      </trkpt>
      <trkpt lat="43.1966" lon="-1.06857">
        <ele>208.3</ele>
        <time>2021-06-05T21:52:13Z</time>
      </trkpt>
      <trkpt lat="43.19612" lon="-1.06881">
        <ele>215.12</ele>
        <time>2021-06-05T21:52:16Z</time>
      </trkpt>
      <trkpt lat="43.19538" lon="-1.06911">
        <ele>217.98</ele>
        <time>2021-06-05T21:52:18Z</time>
      </trkpt>
      <trkpt lat="43.19519" lon="-1.06926">
        <ele>219.35</ele>
        <time>2021-06-05T21:52:21Z</time>
      </trkpt>
      <trkpt lat="43.19496" lon="-1.06952">
        <ele>221.18</ele>
        <time>2021-06-05T21:52:23Z</time>
      </trkpt>
      <trkpt lat="43.19443" lon="-1.07024">
        <ele>223.88</ele>
        <time>2021-06-05T21:52:26Z</time>
      </trkpt>
      <trkpt lat="43.194" lon="-1.07098">
        <ele>227.61</ele>
        <time>2021-06-05T21:52:29Z</time>
      </trkpt>
      <trkpt lat="43.19387" lon="-1.07113">
        <ele>226.4</ele>
        <time>2021-06-05T21:52:31Z</time>
      </trkpt>
      <trkpt lat="43.19355" lon="-1.07136">
        <ele>227.8</ele>
        <time>2021-06-05T21:52:34Z</time>
      </trkpt>
      <trkpt lat="43.19334" lon="-1.07144">
        <ele>227.35</ele>
        <time>2021-06-05T21:52:36Z</time>
      </trkpt>
      <trkpt lat="43.19279" lon="-1.07172">
        <ele>227.44</ele>
        <time>2021-06-05T21:52:39Z</time>
      </trkpt>
      <trkpt lat="43.19256" lon="-1.0719">
        <ele>229.82</ele>
        <time>2021-06-05T21:52:41Z</time>
      </trkpt>
      <trkpt lat="43.19219" lon="-1.0721">
        <ele>229.58</ele>
        <time>2021-06-05T21:52:44Z</time>
      </trkpt>
      <trkpt lat="43.19181" lon="-1.07227">
        <ele>228.49</ele>
        <time>2021-06-05T21:52:46Z</time>
      </trkpt>
      <trkpt lat="43.1914" lon="-1.07241">
        <ele>226.89</ele>
        <time>2021-06-05T21:52:49Z</time>
      </trkpt>
      <trkpt lat="43.19117" lon="-1.07247">
        <ele>226.08</ele>
        <time>2021-06-05T21:52:52Z</time>
      </trkpt>
      <trkpt lat="43.19099" lon="-1.07248">
        <ele>225.29</ele>
        <time>2021-06-05T21:52:54Z</time>
      </trkpt>
      <trkpt lat="43.19085" lon="-1.07242">
        <ele>224.13</ele>
        <time>2021-06-05T21:52:57Z</time>
      </trkpt>
      <trkpt lat="43.19045" lon="-1.07218">
        <ele>218.9</ele>
        <time>2021-06-05T21:52:59Z</time>
      </trkpt>
      <trkpt lat="43.19032" lon="-1.07213">
        <ele>217.34</ele>
        <time>2021-06-05T21:53:02Z</time>
      </trkpt>
      <trkpt lat="43.19018" lon="-1.07213">
        <ele>216.02</ele>
        <time>2021-06-05T21:53:04Z</time>
      </trkpt>
      <trkpt lat="43.19001" lon="-1.07218">
        <ele>215.21</ele>
        <time>2021-06-05T21:53:07Z</time>
      </trkpt>
      <trkpt lat="43.18979" lon="-1.07234">
        <ele>212.38</ele>
        <time>2021-06-05T21:53:10Z</time>
      </trkpt>
      <trkpt lat="43.18943" lon="-1.0727">
        <ele>208.81</ele>
        <time>2021-06-05T21:53:12Z</time>
      </trkpt>
      <trkpt lat="43.18927" lon="-1.07293">
        <ele>208.63</ele>
        <time>2021-06-05T21:53:15Z</time>
      </trkpt>
      <trkpt lat="43.18904" lon="-1.07344">
        <ele>210.15</ele>
        <time>2021-06-05T21:53:17Z</time>
      </trkpt>
      <trkpt lat="43.18901" lon="-1.0734">
        <ele>209.01</ele>
        <time>2021-06-05T21:53:19Z</time>
      </trkpt>
      <trkpt lat="43.18899" lon="-1.07331">
        <ele>207.21</ele>
        <time>2021-06-05T21:53:22Z</time>
      </trkpt>
      <trkpt lat="43.18898" lon="-1.07309">
        <ele>204.39</ele>
        <time>2021-06-05T21:53:24Z</time>
      </trkpt>
      <trkpt lat="43.18902" lon="-1.07286">
        <ele>201.96</ele>
        <time>2021-06-05T21:53:26Z</time>
      </trkpt>
      <trkpt lat="43.18911" lon="-1.07259">
        <ele>202.01</ele>
        <time>2021-06-05T21:53:28Z</time>
      </trkpt>
      <trkpt lat="43.18929" lon="-1.0722">
        <ele>202.3</ele>
        <time>2021-06-05T21:53:31Z</time>
      </trkpt>
      <trkpt lat="43.18933" lon="-1.07207">
        <ele>200.28</ele>
        <time>2021-06-05T21:53:33Z</time>
      </trkpt>
      <trkpt lat="43.18932" lon="-1.07194">
        <ele>197.75</ele>
        <time>2021-06-05T21:53:35Z</time>
      </trkpt>
      <trkpt lat="43.18929" lon="-1.07183">
        <ele>195.7</ele>
        <time>2021-06-05T21:53:37Z</time>
      </trkpt>
      <trkpt lat="43.1892" lon="-1.07167">
        <ele>192.4</ele>
        <time>2021-06-05T21:53:39Z</time>
      </trkpt>
      <trkpt lat="43.18912" lon="-1.0714">
        <ele>188.73</ele>
        <time>2021-06-05T21:53:42Z</time>
      </trkpt>
      <trkpt lat="43.18906" lon="-1.07119">
        <ele>189.23</ele>
        <time>2021-06-05T21:53:44Z</time>
      </trkpt>
      <trkpt lat="43.18907" lon="-1.07108">
        <ele>189.79</ele>
        <time>2021-06-05T21:53:46Z</time>
      </trkpt>
      <trkpt lat="43.1891" lon="-1.07097">
        <ele>190.38</ele>
        <time>2021-06-05T21:53:48Z</time>
      </trkpt>
      <trkpt lat="43.18923" lon="-1.07074">
        <ele>191.11</ele>
        <time>2021-06-05T21:53:50Z</time>
      </trkpt>
      <trkpt lat="43.18933" lon="-1.07041">
        <ele>191.95</ele>
        <time>2021-06-05T21:53:53Z</time>
      </trkpt>
      <trkpt lat="43.18935" lon="-1.07029">
        <ele>192.28</ele>
        <time>2021-06-05T21:53:55Z</time>
      </trkpt>
      <trkpt lat="43.18941" lon="-1.07013">
        <ele>193.09</ele>
        <time>2021-06-05T21:53:57Z</time>
      </trkpt>
      <trkpt lat="43.18978" lon="-1.06944">
        <ele>193.81</ele>
        <time>2021-06-05T21:53:59Z</time>
      </trkpt>
      <trkpt lat="43.1899" lon="-1.06918">
        <ele>194.32</ele>
        <time>2021-06-05T21:54:01Z</time>
      </trkpt>
      <trkpt lat="43.18992" lon="-1.06902">
        <ele>194.81</ele>
        <time>2021-06-05T21:54:04Z</time>
      </trkpt>
      <trkpt lat="43.1899" lon="-1.06872">
        <ele>195.75</ele>
        <time>2021-06-05T21:54:06Z</time>
      </trkpt>
      <trkpt lat="43.18995" lon="-1.0684">
        <ele>197.35</ele>
        <time>2021-06-05T21:54:08Z</time>
      </trkpt>
      <trkpt lat="43.1904" lon="-1.06684">
        <ele>200.6</ele>
        <time>2021-06-05T21:54:10Z</time>
      </trkpt>
      <trkpt lat="43.19072" lon="-1.0651">
        <ele>197.61</ele>
        <time>2021-06-05T21:54:13Z</time>
      </trkpt>
      <trkpt lat="43.19084" lon="-1.06457">
        <ele>195.99</ele>
        <time>2021-06-05T21:54:15Z</time>
      </trkpt>
      <trkpt lat="43.19084" lon="-1.06439">
        <ele>196.11</ele>
        <time>2021-06-05T21:54:17Z</time>
      </trkpt>
      <trkpt lat="43.1907" lon="-1.06341">
        <ele>196.11</ele>
        <time>2021-06-05T21:54:19Z</time>
      </trkpt>
      <trkpt lat="43.1907" lon="-1.06324">
        <ele>195.49</ele>
        <time>2021-06-05T21:54:21Z</time>
      </trkpt>
      <trkpt lat="43.1908" lon="-1.06213">
        <ele>190.55</ele>
        <time>2021-06-05T21:54:24Z</time>
      </trkpt>
      <trkpt lat="43.19094" lon="-1.06155">
        <ele>191</ele>
        <time>2021-06-05T21:54:26Z</time>
      </trkpt>
      <trkpt lat="43.191" lon="-1.0614">
        <ele>191</ele>
        <time>2021-06-05T21:54:28Z</time>
      </trkpt>
      <trkpt lat="43.19109" lon="-1.06127">
        <ele>191.03</ele>
        <time>2021-06-05T21:54:30Z</time>
      </trkpt>
      <trkpt lat="43.19143" lon="-1.06087">
        <ele>189.88</ele>
        <time>2021-06-05T21:54:32Z</time>
      </trkpt>
      <trkpt lat="43.19168" lon="-1.06053">
        <ele>187.76</ele>
        <time>2021-06-05T21:54:35Z</time>
      </trkpt>
      <trkpt lat="43.19181" lon="-1.06033">
        <ele>184.87</ele>
        <time>2021-06-05T21:54:37Z</time>
      </trkpt>
      <trkpt lat="43.19191" lon="-1.06013">
        <ele>181.69</ele>
        <time>2021-06-05T21:54:39Z</time>
      </trkpt>
      <trkpt lat="43.19209" lon="-1.05944">
        <ele>178.48</ele>
        <time>2021-06-05T21:54:41Z</time>
      </trkpt>
      <trkpt lat="43.19215" lon="-1.05911">
        <ele>177.41</ele>
        <time>2021-06-05T21:54:44Z</time>
      </trkpt>
      <trkpt lat="43.19222" lon="-1.05894">
        <ele>175.43</ele>
        <time>2021-06-05T21:54:46Z</time>
      </trkpt>
      <trkpt lat="43.19248" lon="-1.05853">
        <ele>171.1</ele>
        <time>2021-06-05T21:54:48Z</time>
      </trkpt>
      <trkpt lat="43.19261" lon="-1.05824">
        <ele>170.04</ele>
        <time>2021-06-05T21:54:50Z</time>
      </trkpt>
      <trkpt lat="43.19268" lon="-1.05797">
        <ele>169.3</ele>
        <time>2021-06-05T21:54:52Z</time>
      </trkpt>
      <trkpt lat="43.19302" lon="-1.05693">
        <ele>170.13</ele>
        <time>2021-06-05T21:54:55Z</time>
      </trkpt>
      <trkpt lat="43.19343" lon="-1.05638">
        <ele>172.42</ele>
        <time>2021-06-05T21:54:57Z</time>
      </trkpt>
      <trkpt lat="43.1935" lon="-1.05638">
        <ele>172.62</ele>
        <time>2021-06-05T21:54:59Z</time>
      </trkpt>
      <trkpt lat="43.19359" lon="-1.05643">
        <ele>172.78</ele>
        <time>2021-06-05T21:55:01Z</time>
      </trkpt>
      <trkpt lat="43.19365" lon="-1.0564">
        <ele>173.11</ele>
        <time>2021-06-05T21:55:03Z</time>
      </trkpt>
      <trkpt lat="43.1938" lon="-1.05616">
        <ele>175.34</ele>
        <time>2021-06-05T21:55:06Z</time>
      </trkpt>
      <trkpt lat="43.19382" lon="-1.05608">
        <ele>175.91</ele>
        <time>2021-06-05T21:55:08Z</time>
      </trkpt>
      <trkpt lat="43.19389" lon="-1.05599">
        <ele>176.42</ele>
        <time>2021-06-05T21:55:10Z</time>
      </trkpt>
      <trkpt lat="43.19397" lon="-1.05575">
        <ele>177.11</ele>
        <time>2021-06-05T21:55:12Z</time>
      </trkpt>
      <trkpt lat="43.19377" lon="-1.05557">
        <ele>177.54</ele>
        <time>2021-06-05T21:55:15Z</time>
      </trkpt>
      <trkpt lat="43.19361" lon="-1.05535">
        <ele>178.47</ele>
        <time>2021-06-05T21:55:18Z</time>
      </trkpt>
      <trkpt lat="43.19342" lon="-1.05503">
        <ele>181.59</ele>
        <time>2021-06-05T21:55:21Z</time>
      </trkpt>
      <trkpt lat="43.19327" lon="-1.05487">
        <ele>185.17</ele>
        <time>2021-06-05T21:55:24Z</time>
      </trkpt>
      <trkpt lat="43.19301" lon="-1.0548">
        <ele>189.94</ele>
        <time>2021-06-05T21:55:26Z</time>
      </trkpt>
      <trkpt lat="43.19275" lon="-1.05478">
        <ele>193.15</ele>
        <time>2021-06-05T21:55:29Z</time>
      </trkpt>
      <trkpt lat="43.19259" lon="-1.05474">
        <ele>193.17</ele>
        <time>2021-06-05T21:55:32Z</time>
      </trkpt>
      <trkpt lat="43.19239" lon="-1.05464">
        <ele>193.09</ele>
        <time>2021-06-05T21:55:35Z</time>
      </trkpt>
      <trkpt lat="43.19225" lon="-1.05452">
        <ele>192.91</ele>
        <time>2021-06-05T21:55:38Z</time>
      </trkpt>
      <trkpt lat="43.19211" lon="-1.05436">
        <ele>192.25</ele>
        <time>2021-06-05T21:55:40Z</time>
      </trkpt>
      <trkpt lat="43.19179" lon="-1.05376">
        <ele>195.83</ele>
        <time>2021-06-05T21:55:43Z</time>
      </trkpt>
      <trkpt lat="43.19159" lon="-1.05348">
        <ele>198.99</ele>
        <time>2021-06-05T21:55:46Z</time>
      </trkpt>
      <trkpt lat="43.19137" lon="-1.05313">
        <ele>202.34</ele>
        <time>2021-06-05T21:55:49Z</time>
      </trkpt>
      <trkpt lat="43.19117" lon="-1.0528">
        <ele>202.27</ele>
        <time>2021-06-05T21:55:52Z</time>
      </trkpt>
      <trkpt lat="43.19096" lon="-1.05244">
        <ele>202.43</ele>
        <time>2021-06-05T21:55:54Z</time>
      </trkpt>
      <trkpt lat="43.19083" lon="-1.05225">
        <ele>202.66</ele>
        <time>2021-06-05T21:55:57Z</time>
      </trkpt>
      <trkpt lat="43.1905" lon="-1.0519">
        <ele>204.58</ele>
        <time>2021-06-05T21:56:00Z</time>
      </trkpt>
      <trkpt lat="43.19016" lon="-1.05167">
        <ele>206.48</ele>
        <time>2021-06-05T21:56:03Z</time>
      </trkpt>
      <trkpt lat="43.18992" lon="-1.05142">
        <ele>208.31</ele>
        <time>2021-06-05T21:56:06Z</time>
      </trkpt>
      <trkpt lat="43.18966" lon="-1.05108">
        <ele>210.01</ele>
        <time>2021-06-05T21:56:08Z</time>
      </trkpt>
      <trkpt lat="43.18954" lon="-1.05087">
        <ele>210.69</ele>
        <time>2021-06-05T21:56:11Z</time>
      </trkpt>
      <trkpt lat="43.18838" lon="-1.04774">
        <ele>223.36</ele>
        <time>2021-06-05T21:56:14Z</time>
      </trkpt>
      <trkpt lat="43.18816" lon="-1.0471">
        <ele>220.16</ele>
        <time>2021-06-05T21:56:17Z</time>
      </trkpt>
      <trkpt lat="43.18803" lon="-1.04661">
        <ele>214.58</ele>
        <time>2021-06-05T21:56:20Z</time>
      </trkpt>
      <trkpt lat="43.18799" lon="-1.04635">
        <ele>214.25</ele>
        <time>2021-06-05T21:56:22Z</time>
      </trkpt>
      <trkpt lat="43.18798" lon="-1.04608">
        <ele>214.9</ele>
        <time>2021-06-05T21:56:25Z</time>
      </trkpt>
      <trkpt lat="43.188" lon="-1.04584">
        <ele>214.84</ele>
        <time>2021-06-05T21:56:28Z</time>
      </trkpt>
      <trkpt lat="43.18803" lon="-1.04562">
        <ele>213.18</ele>
        <time>2021-06-05T21:56:31Z</time>
      </trkpt>
      <trkpt lat="43.18809" lon="-1.0454">
        <ele>211.7</ele>
        <time>2021-06-05T21:56:34Z</time>
      </trkpt>
      <trkpt lat="43.1882" lon="-1.04511">
        <ele>210.65</ele>
        <time>2021-06-05T21:56:36Z</time>
      </trkpt>
      <trkpt lat="43.18829" lon="-1.04499">
        <ele>210.91</ele>
        <time>2021-06-05T21:56:39Z</time>
      </trkpt>
      <trkpt lat="43.18844" lon="-1.04487">
        <ele>213.62</ele>
        <time>2021-06-05T21:56:42Z</time>
      </trkpt>
      <trkpt lat="43.18909" lon="-1.0446">
        <ele>225.16</ele>
        <time>2021-06-05T21:56:45Z</time>
      </trkpt>
      <trkpt lat="43.18923" lon="-1.0445">
        <ele>227.69</ele>
        <time>2021-06-05T21:56:48Z</time>
      </trkpt>
      <trkpt lat="43.18933" lon="-1.04435">
        <ele>228.53</ele>
        <time>2021-06-05T21:56:50Z</time>
      </trkpt>
      <trkpt lat="43.18939" lon="-1.04418">
        <ele>226.74</ele>
        <time>2021-06-05T21:56:53Z</time>
      </trkpt>
      <trkpt lat="43.1894" lon="-1.04399">
        <ele>221.54</ele>
        <time>2021-06-05T21:56:56Z</time>
      </trkpt>
      <trkpt lat="43.18937" lon="-1.0438">
        <ele>216.13</ele>
        <time>2021-06-05T21:56:59Z</time>
      </trkpt>
      <trkpt lat="43.18932" lon="-1.04367">
        <ele>213.32</ele>
        <time>2021-06-05T21:57:02Z</time>
      </trkpt>
      <trkpt lat="43.1892" lon="-1.04349">
        <ele>213.47</ele>
        <time>2021-06-05T21:57:04Z</time>
      </trkpt>
      <trkpt lat="43.18912" lon="-1.04343">
        <ele>214.81</ele>
        <time>2021-06-05T21:57:07Z</time>
      </trkpt>
      <trkpt lat="43.18899" lon="-1.04337">
        <ele>217.72</ele>
        <time>2021-06-05T21:57:10Z</time>
      </trkpt>
      <trkpt lat="43.18878" lon="-1.04336">
        <ele>220.78</ele>
        <time>2021-06-05T21:57:13Z</time>
      </trkpt>
      <trkpt lat="43.18868" lon="-1.04338">
        <ele>221.63</ele>
        <time>2021-06-05T21:57:16Z</time>
      </trkpt>
      <trkpt lat="43.18831" lon="-1.04353">
        <ele>221.05</ele>
        <time>2021-06-05T21:57:18Z</time>
      </trkpt>
      <trkpt lat="43.18809" lon="-1.04358">
        <ele>222.24</ele>
        <time>2021-06-05T21:57:21Z</time>
      </trkpt>
      <trkpt lat="43.18782" lon="-1.04358">
        <ele>224.16</ele>
        <time>2021-06-05T21:57:24Z</time>
      </trkpt>
      <trkpt lat="43.18755" lon="-1.04355">
        <ele>226.95</ele>
        <time>2021-06-05T21:57:27Z</time>
      </trkpt>
      <trkpt lat="43.18712" lon="-1.04343">
        <ele>232.38</ele>
        <time>2021-06-05T21:57:30Z</time>
      </trkpt>
      <trkpt lat="43.18687" lon="-1.04331">
        <ele>236</ele>
        <time>2021-06-05T21:57:32Z</time>
      </trkpt>
      <trkpt lat="43.18653" lon="-1.04305">
        <ele>239.65</ele>
        <time>2021-06-05T21:57:35Z</time>
      </trkpt>
      <trkpt lat="43.18636" lon="-1.04284">
        <ele>240.69</ele>
        <time>2021-06-05T21:57:38Z</time>
      </trkpt>
      <trkpt lat="43.18625" lon="-1.04265">
        <ele>242.39</ele>
        <time>2021-06-05T21:57:41Z</time>
      </trkpt>
      <trkpt lat="43.18618" lon="-1.04252">
        <ele>244.41</ele>
        <time>2021-06-05T21:57:44Z</time>
      </trkpt>
      <trkpt lat="43.18605" lon="-1.04212">
        <ele>248.65</ele>
        <time>2021-06-05T21:57:46Z</time>
      </trkpt>
      <trkpt lat="43.18592" lon="-1.04163">
        <ele>251.45</ele>
        <time>2021-06-05T21:57:49Z</time>
      </trkpt>
      <trkpt lat="43.1856" lon="-1.04001">
        <ele>261.47</ele>
        <time>2021-06-05T21:57:52Z</time>
      </trkpt>
      <trkpt lat="43.18557" lon="-1.03959">
        <ele>266.89</ele>
        <time>2021-06-05T21:57:55Z</time>
      </trkpt>
      <trkpt lat="43.1856" lon="-1.03922">
        <ele>270.15</ele>
        <time>2021-06-05T21:57:58Z</time>
      </trkpt>
      <trkpt lat="43.18566" lon="-1.03892">
        <ele>271.05</ele>
        <time>2021-06-05T21:58:00Z</time>
      </trkpt>
      <trkpt lat="43.18593" lon="-1.0379">
        <ele>275.75</ele>
        <time>2021-06-05T21:58:03Z</time>
      </trkpt>
      <trkpt lat="43.18621" lon="-1.03703">
        <ele>280.56</ele>
        <time>2021-06-05T21:58:06Z</time>
      </trkpt>
      <trkpt lat="43.18632" lon="-1.03665">
        <ele>280.78</ele>
        <time>2021-06-05T21:58:09Z</time>
      </trkpt>
      <trkpt lat="43.18647" lon="-1.03597">
        <ele>287.8</ele>
        <time>2021-06-05T21:58:12Z</time>
      </trkpt>
      <trkpt lat="43.18654" lon="-1.03553">
        <ele>289.23</ele>
        <time>2021-06-05T21:58:15Z</time>
      </trkpt>
      <trkpt lat="43.1866" lon="-1.03499">
        <ele>292.35</ele>
        <time>2021-06-05T21:58:17Z</time>
      </trkpt>
      <trkpt lat="43.18679" lon="-1.03274">
        <ele>304.13</ele>
        <time>2021-06-05T21:58:20Z</time>
      </trkpt>
      <trkpt lat="43.18685" lon="-1.0323">
        <ele>305.4</ele>
        <time>2021-06-05T21:58:23Z</time>
      </trkpt>
      <trkpt lat="43.18697" lon="-1.03182">
        <ele>307.62</ele>
        <time>2021-06-05T21:58:26Z</time>
      </trkpt>
      <trkpt lat="43.1871" lon="-1.0315">
        <ele>308.05</ele>
        <time>2021-06-05T21:58:29Z</time>
      </trkpt>
      <trkpt lat="43.1873" lon="-1.03116">
        <ele>311.61</ele>
        <time>2021-06-05T21:58:31Z</time>
      </trkpt>
      <trkpt lat="43.18771" lon="-1.03075">
        <ele>320.44</ele>
        <time>2021-06-05T21:58:34Z</time>
      </trkpt>
      <trkpt lat="43.18779" lon="-1.03054">
        <ele>319.45</ele>
        <time>2021-06-05T21:58:37Z</time>
      </trkpt>
      <trkpt lat="43.18797" lon="-1.02992">
        <ele>318.82</ele>
        <time>2021-06-05T21:58:40Z</time>
      </trkpt>
      <trkpt lat="43.18807" lon="-1.02949">
        <ele>319.05</ele>
        <time>2021-06-05T21:58:43Z</time>
      </trkpt>
      <trkpt lat="43.18819" lon="-1.02921">
        <ele>318.31</ele>
        <time>2021-06-05T21:58:45Z</time>
      </trkpt>
      <trkpt lat="43.18835" lon="-1.02892">
        <ele>320.01</ele>
        <time>2021-06-05T21:58:48Z</time>
      </trkpt>
      <trkpt lat="43.18847" lon="-1.02876">
        <ele>321.69</ele>
        <time>2021-06-05T21:58:51Z</time>
      </trkpt>
      <trkpt lat="43.18862" lon="-1.02862">
        <ele>323.34</ele>
        <time>2021-06-05T21:58:54Z</time>
      </trkpt>
      <trkpt lat="43.18885" lon="-1.02846">
        <ele>327.15</ele>
        <time>2021-06-05T21:58:57Z</time>
      </trkpt>
      <trkpt lat="43.18921" lon="-1.0283">
        <ele>333.71</ele>
        <time>2021-06-05T21:58:59Z</time>
      </trkpt>
      <trkpt lat="43.1893" lon="-1.02822">
        <ele>334.84</ele>
        <time>2021-06-05T21:59:02Z</time>
      </trkpt>
      <trkpt lat="43.18936" lon="-1.02807">
        <ele>334.73</ele>
        <time>2021-06-05T21:59:05Z</time>
      </trkpt>
      <trkpt lat="43.18946" lon="-1.02761">
        <ele>332.36</ele>
        <time>2021-06-05T21:59:08Z</time>
      </trkpt>
      <trkpt lat="43.18958" lon="-1.02729">
        <ele>333.94</ele>
        <time>2021-06-05T21:59:11Z</time>
      </trkpt>
      <trkpt lat="43.1899" lon="-1.02675">
        <ele>340.73</ele>
        <time>2021-06-05T21:59:13Z</time>
      </trkpt>
      <trkpt lat="43.19022" lon="-1.02626">
        <ele>344.38</ele>
        <time>2021-06-05T21:59:16Z</time>
      </trkpt>
      <trkpt lat="43.19043" lon="-1.02586">
        <ele>345.32</ele>
        <time>2021-06-05T21:59:19Z</time>
      </trkpt>
      <trkpt lat="43.19095" lon="-1.02508">
        <ele>351.79</ele>
        <time>2021-06-05T21:59:22Z</time>
      </trkpt>
      <trkpt lat="43.1911" lon="-1.02482">
        <ele>354.04</ele>
        <time>2021-06-05T21:59:25Z</time>
      </trkpt>
      <trkpt lat="43.1914" lon="-1.02414">
        <ele>355.16</ele>
        <time>2021-06-05T21:59:27Z</time>
      </trkpt>
      <trkpt lat="43.19157" lon="-1.02386">
        <ele>359.38</ele>
        <time>2021-06-05T21:59:30Z</time>
      </trkpt>
      <trkpt lat="43.19183" lon="-1.02349">
        <ele>361.04</ele>
        <time>2021-06-05T21:59:33Z</time>
      </trkpt>
      <trkpt lat="43.19204" lon="-1.02325">
        <ele>360.45</ele>
        <time>2021-06-05T21:59:36Z</time>
      </trkpt>
      <trkpt lat="43.19217" lon="-1.02317">
        <ele>360.54</ele>
        <time>2021-06-05T21:59:39Z</time>
      </trkpt>
      <trkpt lat="43.19233" lon="-1.02312">
        <ele>362.01</ele>
        <time>2021-06-05T21:59:41Z</time>
      </trkpt>
      <trkpt lat="43.19249" lon="-1.02313">
        <ele>364.78</ele>
        <time>2021-06-05T21:59:44Z</time>
      </trkpt>
      <trkpt lat="43.19264" lon="-1.02321">
        <ele>367.8</ele>
        <time>2021-06-05T21:59:47Z</time>
      </trkpt>
      <trkpt lat="43.19361" lon="-1.02416">
        <ele>392.52</ele>
        <time>2021-06-05T21:59:50Z</time>
      </trkpt>
      <trkpt lat="43.19407" lon="-1.02451">
        <ele>401.33</ele>
        <time>2021-06-05T21:59:53Z</time>
      </trkpt>
      <trkpt lat="43.19418" lon="-1.02455">
        <ele>401.4</ele>
        <time>2021-06-05T21:59:55Z</time>
      </trkpt>
      <trkpt lat="43.19459" lon="-1.02462">
        <ele>397.79</ele>
        <time>2021-06-05T21:59:58Z</time>
      </trkpt>
      <trkpt lat="43.19485" lon="-1.02461">
        <ele>397.73</ele>
        <time>2021-06-05T22:00:01Z</time>
      </trkpt>
      <trkpt lat="43.19552" lon="-1.02452">
        <ele>399.78</ele>
        <time>2021-06-05T22:00:04Z</time>
      </trkpt>
      <trkpt lat="43.1957" lon="-1.02444">
        <ele>397.82</ele>
        <time>2021-06-05T22:00:07Z</time>
      </trkpt>
      <trkpt lat="43.1959" lon="-1.02428">
        <ele>394.52</ele>
        <time>2021-06-05T22:00:09Z</time>
      </trkpt>
      <trkpt lat="43.19621" lon="-1.02411">
        <ele>393.02</ele>
        <time>2021-06-05T22:00:12Z</time>
      </trkpt>
      <trkpt lat="43.19647" lon="-1.02391">
        <ele>391.54</ele>
        <time>2021-06-05T22:00:15Z</time>
      </trkpt>
      <trkpt lat="43.19671" lon="-1.02369">
        <ele>389.56</ele>
        <time>2021-06-05T22:00:18Z</time>
      </trkpt>
      <trkpt lat="43.1968" lon="-1.02355">
        <ele>388.87</ele>
        <time>2021-06-05T22:00:21Z</time>
      </trkpt>
      <trkpt lat="43.19688" lon="-1.02338">
        <ele>389.14</ele>
        <time>2021-06-05T22:00:23Z</time>
      </trkpt>
      <trkpt lat="43.19729" lon="-1.0221">
        <ele>392.99</ele>
        <time>2021-06-05T22:00:26Z</time>
      </trkpt>
      <trkpt lat="43.19738" lon="-1.02186">
        <ele>394.44</ele>
        <time>2021-06-05T22:00:29Z</time>
      </trkpt>
      <trkpt lat="43.19758" lon="-1.02148">
        <ele>394.51</ele>
        <time>2021-06-05T22:00:32Z</time>
      </trkpt>
      <trkpt lat="43.19774" lon="-1.02128">
        <ele>395.29</ele>
        <time>2021-06-05T22:00:35Z</time>
      </trkpt>
      <trkpt lat="43.19803" lon="-1.02098">
        <ele>399.11</ele>
        <time>2021-06-05T22:00:37Z</time>
      </trkpt>
      <trkpt lat="43.19815" lon="-1.02082">
        <ele>400.16</ele>
        <time>2021-06-05T22:00:40Z</time>
      </trkpt>
      <trkpt lat="43.19846" lon="-1.02031">
        <ele>405.85</ele>
        <time>2021-06-05T22:00:43Z</time>
      </trkpt>
      <trkpt lat="43.19861" lon="-1.02011">
        <ele>407.49</ele>
        <time>2021-06-05T22:00:46Z</time>
      </trkpt>
      <trkpt lat="43.19921" lon="-1.01944">
        <ele>409.55</ele>
        <time>2021-06-05T22:00:49Z</time>
      </trkpt>
      <trkpt lat="43.19947" lon="-1.0191">
        <ele>410.82</ele>
        <time>2021-06-05T22:00:51Z</time>
      </trkpt>
      <trkpt lat="43.19999" lon="-1.01817">
        <ele>414.2</ele>
        <time>2021-06-05T22:00:54Z</time>
      </trkpt>
      <trkpt lat="43.20014" lon="-1.01781">
        <ele>416.09</ele>
        <time>2021-06-05T22:00:57Z</time>
      </trkpt>
      <trkpt lat="43.20027" lon="-1.01733">
        <ele>420.13</ele>
        <time>2021-06-05T22:01:00Z</time>
      </trkpt>
      <trkpt lat="43.20044" lon="-1.01641">
        <ele>421.06</ele>
        <time>2021-06-05T22:01:03Z</time>
      </trkpt>
      <trkpt lat="43.20052" lon="-1.01607">
        <ele>428.05</ele>
        <time>2021-06-05T22:01:05Z</time>
      </trkpt>
      <trkpt lat="43.20102" lon="-1.01436">
        <ele>442.69</ele>
        <time>2021-06-05T22:01:08Z</time>
      </trkpt>
      <trkpt lat="43.20115" lon="-1.01396">
        <ele>443.32</ele>
        <time>2021-06-05T22:01:11Z</time>
      </trkpt>
      <trkpt lat="43.20121" lon="-1.01375">
        <ele>443.42</ele>
        <time>2021-06-05T22:01:14Z</time>
      </trkpt>
      <trkpt lat="43.20125" lon="-1.01348">
        <ele>443.86</ele>
        <time>2021-06-05T22:01:17Z</time>
      </trkpt>
      <trkpt lat="43.20123" lon="-1.01324">
        <ele>446.85</ele>
        <time>2021-06-05T22:01:20Z</time>
      </trkpt>
      <trkpt lat="43.20117" lon="-1.01285">
        <ele>454.79</ele>
        <time>2021-06-05T22:01:22Z</time>
      </trkpt>
      <trkpt lat="43.20114" lon="-1.01223">
        <ele>462.45</ele>
        <time>2021-06-05T22:01:25Z</time>
      </trkpt>
      <trkpt lat="43.20099" lon="-1.01125">
        <ele>465.5</ele>
        <time>2021-06-05T22:01:28Z</time>
      </trkpt>
      <trkpt lat="43.20078" lon="-1.01014">
        <ele>474.8</ele>
        <time>2021-06-05T22:01:31Z</time>
      </trkpt>
      <trkpt lat="43.20071" lon="-1.00959">
        <ele>474.39</ele>
        <time>2021-06-05T22:01:34Z</time>
      </trkpt>
      <trkpt lat="43.20064" lon="-1.00928">
        <ele>475.04</ele>
        <time>2021-06-05T22:01:36Z</time>
      </trkpt>
      <trkpt lat="43.20053" lon="-1.00904">
        <ele>475.33</ele>
        <time>2021-06-05T22:01:39Z</time>
      </trkpt>
      <trkpt lat="43.20036" lon="-1.00878">
        <ele>474.51</ele>
        <time>2021-06-05T22:01:42Z</time>
      </trkpt>
      <trkpt lat="43.20011" lon="-1.00847">
        <ele>476.43</ele>
        <time>2021-06-05T22:01:45Z</time>
      </trkpt>
      <trkpt lat="43.19999" lon="-1.00824">
        <ele>477.84</ele>
        <time>2021-06-05T22:01:48Z</time>
      </trkpt>
      <trkpt lat="43.19992" lon="-1.00808">
        <ele>478.76</ele>
        <time>2021-06-05T22:01:50Z</time>
      </trkpt>
      <trkpt lat="43.19987" lon="-1.00789">
        <ele>479.97</ele>
        <time>2021-06-05T22:01:53Z</time>
      </trkpt>
      <trkpt lat="43.19972" lon="-1.00676">
        <ele>488.66</ele>
        <time>2021-06-05T22:01:56Z</time>
      </trkpt>
      <trkpt lat="43.19971" lon="-1.00545">
        <ele>485.93</ele>
        <time>2021-06-05T22:01:59Z</time>
      </trkpt>
      <trkpt lat="43.19947" lon="-1.00399">
        <ele>497.93</ele>
        <time>2021-06-05T22:02:02Z</time>
      </trkpt>
      <trkpt lat="43.19947" lon="-1.00367">
        <ele>499.28</ele>
        <time>2021-06-05T22:02:04Z</time>
      </trkpt>
      <trkpt lat="43.19952" lon="-1.00335">
        <ele>499.22</ele>
        <time>2021-06-05T22:02:07Z</time>
      </trkpt>
      <trkpt lat="43.19959" lon="-1.00314">
        <ele>496.5</ele>
        <time>2021-06-05T22:02:10Z</time>
      </trkpt>
      <trkpt lat="43.19978" lon="-1.00269">
        <ele>495.73</ele>
        <time>2021-06-05T22:02:13Z</time>
      </trkpt>
      <trkpt lat="43.19984" lon="-1.00244">
        <ele>498.31</ele>
        <time>2021-06-05T22:02:16Z</time>
      </trkpt>
      <trkpt lat="43.19984" lon="-1.00215">
        <ele>501.01</ele>
        <time>2021-06-05T22:02:18Z</time>
      </trkpt>
      <trkpt lat="43.19974" lon="-1.00135">
        <ele>504.72</ele>
        <time>2021-06-05T22:02:21Z</time>
      </trkpt>
      <trkpt lat="43.19978" lon="-1.00086">
        <ele>504.85</ele>
        <time>2021-06-05T22:02:24Z</time>
      </trkpt>
      <trkpt lat="43.19986" lon="-1.00068">
        <ele>504.42</ele>
        <time>2021-06-05T22:02:27Z</time>
      </trkpt>
      <trkpt lat="43.19994" lon="-1.00054">
        <ele>504.03</ele>
        <time>2021-06-05T22:02:30Z</time>
      </trkpt>
      <trkpt lat="43.20004" lon="-1.00044">
        <ele>504.52</ele>
        <time>2021-06-05T22:02:32Z</time>
      </trkpt>
      <trkpt lat="43.20013" lon="-1.00039">
        <ele>504.94</ele>
        <time>2021-06-05T22:02:35Z</time>
      </trkpt>
      <trkpt lat="43.20033" lon="-1.00034">
        <ele>505.65</ele>
        <time>2021-06-05T22:02:38Z</time>
      </trkpt>
      <trkpt lat="43.20059" lon="-1.00036">
        <ele>505.15</ele>
        <time>2021-06-05T22:02:41Z</time>
      </trkpt>
      <trkpt lat="43.20162" lon="-1.00058">
        <ele>496.64</ele>
        <time>2021-06-05T22:02:44Z</time>
      </trkpt>
      <trkpt lat="43.20186" lon="-1.00061">
        <ele>495.18</ele>
        <time>2021-06-05T22:02:46Z</time>
      </trkpt>
      <trkpt lat="43.20206" lon="-1.0006">
        <ele>495.08</ele>
        <time>2021-06-05T22:02:49Z</time>
      </trkpt>
      <trkpt lat="43.2022" lon="-1.00056">
        <ele>495.83</ele>
        <time>2021-06-05T22:02:52Z</time>
      </trkpt>
      <trkpt lat="43.20236" lon="-1.0005">
        <ele>495.81</ele>
        <time>2021-06-05T22:02:55Z</time>
      </trkpt>
      <trkpt lat="43.20261" lon="-1.00028">
        <ele>494.57</ele>
        <time>2021-06-05T22:02:58Z</time>
      </trkpt>
      <trkpt lat="43.20286" lon="-0.99989">
        <ele>490.25</ele>
        <time>2021-06-05T22:03:00Z</time>
      </trkpt>
      <trkpt lat="43.20333" lon="-0.99895">
        <ele>485.25</ele>
        <time>2021-06-05T22:03:03Z</time>
      </trkpt>
      <trkpt lat="43.20348" lon="-0.99873">
        <ele>485.73</ele>
        <time>2021-06-05T22:03:06Z</time>
      </trkpt>
      <trkpt lat="43.20364" lon="-0.9986">
        <ele>487.05</ele>
        <time>2021-06-05T22:03:09Z</time>
      </trkpt>
      <trkpt lat="43.20399" lon="-0.99843">
        <ele>486.21</ele>
        <time>2021-06-05T22:03:12Z</time>
      </trkpt>
      <trkpt lat="43.20411" lon="-0.99834">
        <ele>484.86</ele>
        <time>2021-06-05T22:03:14Z</time>
      </trkpt>
      <trkpt lat="43.20429" lon="-0.99814">
        <ele>484.39</ele>
        <time>2021-06-05T22:03:17Z</time>
      </trkpt>
      <trkpt lat="43.2047" lon="-0.99741">
        <ele>485.8</ele>
        <time>2021-06-05T22:03:20Z</time>
      </trkpt>
      <trkpt lat="43.20486" lon="-0.99719">
        <ele>484.55</ele>
        <time>2021-06-05T22:03:23Z</time>
      </trkpt>
      <trkpt lat="43.20503" lon="-0.9971">
        <ele>481.15</ele>
        <time>2021-06-05T22:03:26Z</time>
      </trkpt>
      <trkpt lat="43.20588" lon="-0.9968">
        <ele>468.18</ele>
        <time>2021-06-05T22:03:28Z</time>
      </trkpt>
      <trkpt lat="43.20602" lon="-0.99671">
        <ele>464.86</ele>
        <time>2021-06-05T22:03:31Z</time>
      </trkpt>
      <trkpt lat="43.20616" lon="-0.99653">
        <ele>464.62</ele>
        <time>2021-06-05T22:03:34Z</time>
      </trkpt>
      <trkpt lat="43.20628" lon="-0.99622">
        <ele>467.87</ele>
        <time>2021-06-05T22:03:37Z</time>
      </trkpt>
      <trkpt lat="43.20638" lon="-0.99583">
        <ele>472.29</ele>
        <time>2021-06-05T22:03:40Z</time>
      </trkpt>
      <trkpt lat="43.20649" lon="-0.99514">
        <ele>465.26</ele>
        <time>2021-06-05T22:03:42Z</time>
      </trkpt>
      <trkpt lat="43.20661" lon="-0.9948">
        <ele>461.92</ele>
        <time>2021-06-05T22:03:45Z</time>
      </trkpt>
      <trkpt lat="43.20698" lon="-0.99424">
        <ele>460.43</ele>
        <time>2021-06-05T22:03:48Z</time>
      </trkpt>
      <trkpt lat="43.20711" lon="-0.9938">
        <ele>453.65</ele>
        <time>2021-06-05T22:03:51Z</time>
      </trkpt>
      <trkpt lat="43.20714" lon="-0.99349">
        <ele>449.52</ele>
        <time>2021-06-05T22:03:54Z</time>
      </trkpt>
      <trkpt lat="43.20713" lon="-0.99327">
        <ele>448.36</ele>
        <time>2021-06-05T22:03:56Z</time>
      </trkpt>
      <trkpt lat="43.20695" lon="-0.99238">
        <ele>445.47</ele>
        <time>2021-06-05T22:03:59Z</time>
      </trkpt>
      <trkpt lat="43.20697" lon="-0.99191">
        <ele>443.36</ele>
        <time>2021-06-05T22:04:02Z</time>
      </trkpt>
      <trkpt lat="43.20706" lon="-0.99159">
        <ele>440.02</ele>
        <time>2021-06-05T22:04:05Z</time>
      </trkpt>
      <trkpt lat="43.20733" lon="-0.99105">
        <ele>439.9</ele>
        <time>2021-06-05T22:04:08Z</time>
      </trkpt>
      <trkpt lat="43.20766" lon="-0.99046">
        <ele>436.01</ele>
        <time>2021-06-05T22:04:10Z</time>
      </trkpt>
      <trkpt lat="43.20782" lon="-0.99005">
        <ele>435.49</ele>
        <time>2021-06-05T22:04:13Z</time>
      </trkpt>
      <trkpt lat="43.20786" lon="-0.98949">
        <ele>436.67</ele>
        <time>2021-06-05T22:04:16Z</time>
      </trkpt>
      <trkpt lat="43.20786" lon="-0.98917">
        <ele>434.8</ele>
        <time>2021-06-05T22:04:19Z</time>
      </trkpt>
      <trkpt lat="43.20784" lon="-0.98886">
        <ele>432.67</ele>
        <time>2021-06-05T22:04:22Z</time>
      </trkpt>
      <trkpt lat="43.20764" lon="-0.98741">
        <ele>427.89</ele>
        <time>2021-06-05T22:04:24Z</time>
      </trkpt>
      <trkpt lat="43.20759" lon="-0.98655">
        <ele>424.73</ele>
        <time>2021-06-05T22:04:27Z</time>
      </trkpt>
      <trkpt lat="43.20762" lon="-0.98612">
        <ele>423.51</ele>
        <time>2021-06-05T22:04:30Z</time>
      </trkpt>
      <trkpt lat="43.20767" lon="-0.98583">
        <ele>423.68</ele>
        <time>2021-06-05T22:04:33Z</time>
      </trkpt>
      <trkpt lat="43.20775" lon="-0.98557">
        <ele>424.82</ele>
        <time>2021-06-05T22:04:36Z</time>
      </trkpt>
      <trkpt lat="43.20783" lon="-0.98535">
        <ele>425.69</ele>
        <time>2021-06-05T22:04:39Z</time>
      </trkpt>
      <trkpt lat="43.20809" lon="-0.98488">
        <ele>426.13</ele>
        <time>2021-06-05T22:04:41Z</time>
      </trkpt>
      <trkpt lat="43.20822" lon="-0.9847">
        <ele>424.12</ele>
        <time>2021-06-05T22:04:44Z</time>
      </trkpt>
      <trkpt lat="43.20839" lon="-0.98458">
        <ele>422.54</ele>
        <time>2021-06-05T22:04:47Z</time>
      </trkpt>
      <trkpt lat="43.20879" lon="-0.98441">
        <ele>420.12</ele>
        <time>2021-06-05T22:04:50Z</time>
      </trkpt>
      <trkpt lat="43.2089" lon="-0.9843">
        <ele>419.55</ele>
        <time>2021-06-05T22:04:53Z</time>
      </trkpt>
      <trkpt lat="43.20898" lon="-0.98416">
        <ele>419.19</ele>
        <time>2021-06-05T22:04:55Z</time>
      </trkpt>
      <trkpt lat="43.20902" lon="-0.984">
        <ele>418.4</ele>
        <time>2021-06-05T22:04:58Z</time>
      </trkpt>
      <trkpt lat="43.20907" lon="-0.98337">
        <ele>413.15</ele>
        <time>2021-06-05T22:05:01Z</time>
      </trkpt>
      <trkpt lat="43.20913" lon="-0.98317">
        <ele>411.33</ele>
        <time>2021-06-05T22:05:04Z</time>
      </trkpt>
      <trkpt lat="43.20926" lon="-0.98301">
        <ele>410.57</ele>
        <time>2021-06-05T22:05:07Z</time>
      </trkpt>
      <trkpt lat="43.20954" lon="-0.98277">
        <ele>410.8</ele>
        <time>2021-06-05T22:05:09Z</time>
      </trkpt>
      <trkpt lat="43.20965" lon="-0.98256">
        <ele>409.19</ele>
        <time>2021-06-05T22:05:12Z</time>
      </trkpt>
      <trkpt lat="43.20968" lon="-0.98235">
        <ele>407.21</ele>
        <time>2021-06-05T22:05:15Z</time>
      </trkpt>
      <trkpt lat="43.20953" lon="-0.98171">
        <ele>399.85</ele>
        <time>2021-06-05T22:05:18Z</time>
      </trkpt>
      <trkpt lat="43.2095" lon="-0.98144">
        <ele>397.86</ele>
        <time>2021-06-05T22:05:21Z</time>
      </trkpt>
      <trkpt lat="43.20949" lon="-0.98109">
        <ele>395.43</ele>
        <time>2021-06-05T22:05:23Z</time>
      </trkpt>
      <trkpt lat="43.20953" lon="-0.98065">
        <ele>392.9</ele>
        <time>2021-06-05T22:05:26Z</time>
      </trkpt>
      <trkpt lat="43.2095" lon="-0.9804">
        <ele>390.93</ele>
        <time>2021-06-05T22:05:29Z</time>
      </trkpt>
      <trkpt lat="43.20941" lon="-0.98008">
        <ele>389.28</ele>
        <time>2021-06-05T22:05:32Z</time>
      </trkpt>
      <trkpt lat="43.20893" lon="-0.97886">
        <ele>381.8</ele>
        <time>2021-06-05T22:05:35Z</time>
      </trkpt>
      <trkpt lat="43.20845" lon="-0.97804">
        <ele>375.9</ele>
        <time>2021-06-05T22:05:37Z</time>
      </trkpt>
      <trkpt lat="43.20827" lon="-0.97762">
        <ele>373.53</ele>
        <time>2021-06-05T22:05:40Z</time>
      </trkpt>
      <trkpt lat="43.20817" lon="-0.97715">
        <ele>368.68</ele>
        <time>2021-06-05T22:05:43Z</time>
      </trkpt>
      <trkpt lat="43.20813" lon="-0.97678">
        <ele>367.93</ele>
        <time>2021-06-05T22:05:46Z</time>
      </trkpt>
      <trkpt lat="43.20814" lon="-0.97647">
        <ele>367.18</ele>
        <time>2021-06-05T22:05:49Z</time>
      </trkpt>
      <trkpt lat="43.20818" lon="-0.97624">
        <ele>365.3</ele>
        <time>2021-06-05T22:05:51Z</time>
      </trkpt>
      <trkpt lat="43.20831" lon="-0.976">
        <ele>364.46</ele>
        <time>2021-06-05T22:05:54Z</time>
      </trkpt>
      <trkpt lat="43.20862" lon="-0.97567">
        <ele>362.13</ele>
        <time>2021-06-05T22:05:57Z</time>
      </trkpt>
      <trkpt lat="43.20908" lon="-0.9753">
        <ele>362.29</ele>
        <time>2021-06-05T22:06:00Z</time>
      </trkpt>
      <trkpt lat="43.20917" lon="-0.9752">
        <ele>362.31</ele>
        <time>2021-06-05T22:06:03Z</time>
      </trkpt>
      <trkpt lat="43.20921" lon="-0.97504">
        <ele>361.7</ele>
        <time>2021-06-05T22:06:05Z</time>
      </trkpt>
      <trkpt lat="43.20919" lon="-0.97481">
        <ele>360.73</ele>
        <time>2021-06-05T22:06:08Z</time>
      </trkpt>
      <trkpt lat="43.20912" lon="-0.97465">
        <ele>359.69</ele>
        <time>2021-06-05T22:06:11Z</time>
      </trkpt>
      <trkpt lat="43.20879" lon="-0.97435">
        <ele>353.36</ele>
        <time>2021-06-05T22:06:14Z</time>
      </trkpt>
      <trkpt lat="43.20845" lon="-0.97415">
        <ele>346.83</ele>
        <time>2021-06-05T22:06:17Z</time>
      </trkpt>
      <trkpt lat="43.20814" lon="-0.97401">
        <ele>344.28</ele>
        <time>2021-06-05T22:06:19Z</time>
      </trkpt>
      <trkpt lat="43.20773" lon="-0.97388">
        <ele>341.27</ele>
        <time>2021-06-05T22:06:22Z</time>
      </trkpt>
      <trkpt lat="43.20747" lon="-0.97388">
        <ele>336.39</ele>
        <time>2021-06-05T22:06:25Z</time>
      </trkpt>
      <trkpt lat="43.20675" lon="-0.97396">
        <ele>327.91</ele>
        <time>2021-06-05T22:06:28Z</time>
      </trkpt>
      <trkpt lat="43.2064" lon="-0.97386">
        <ele>326.51</ele>
        <time>2021-06-05T22:06:31Z</time>
      </trkpt>
      <trkpt lat="43.2056" lon="-0.97332">
        <ele>317.89</ele>
        <time>2021-06-05T22:06:33Z</time>
      </trkpt>
      <trkpt lat="43.20421" lon="-0.97257">
        <ele>307.76</ele>
        <time>2021-06-05T22:06:36Z</time>
      </trkpt>
      <trkpt lat="43.2024" lon="-0.97038">
        <ele>287.38</ele>
        <time>2021-06-05T22:06:39Z</time>
      </trkpt>
      <trkpt lat="43.20232" lon="-0.97027">
        <ele>286.81</ele>
        <time>2021-06-05T22:06:42Z</time>
      </trkpt>
      <trkpt lat="43.2022" lon="-0.97001">
        <ele>286.18</ele>
        <time>2021-06-05T22:06:45Z</time>
      </trkpt>
      <trkpt lat="43.20163" lon="-0.96803">
        <ele>271.11</ele>
        <time>2021-06-05T22:06:47Z</time>
      </trkpt>
      <trkpt lat="43.20143" lon="-0.9676">
        <ele>269.25</ele>
        <time>2021-06-05T22:06:50Z</time>
      </trkpt>
      <trkpt lat="43.20109" lon="-0.96698">
        <ele>265.31</ele>
        <time>2021-06-05T22:06:53Z</time>
      </trkpt>
      <trkpt lat="43.20086" lon="-0.96662">
        <ele>262.5</ele>
        <time>2021-06-05T22:06:56Z</time>
      </trkpt>
      <trkpt lat="43.20067" lon="-0.96644">
        <ele>261.42</ele>
        <time>2021-06-05T22:06:59Z</time>
      </trkpt>
      <trkpt lat="43.20043" lon="-0.9663">
        <ele>258.48</ele>
        <time>2021-06-05T22:07:01Z</time>
      </trkpt>
      <trkpt lat="43.20005" lon="-0.96619">
        <ele>255.58</ele>
        <time>2021-06-05T22:07:04Z</time>
      </trkpt>
      <trkpt lat="43.19861" lon="-0.96604">
        <ele>246.73</ele>
        <time>2021-06-05T22:07:07Z</time>
      </trkpt>
      <trkpt lat="43.19826" lon="-0.96607">
        <ele>243.3</ele>
        <time>2021-06-05T22:07:10Z</time>
      </trkpt>
      <trkpt lat="43.19775" lon="-0.96615">
        <ele>239.58</ele>
        <time>2021-06-05T22:07:13Z</time>
      </trkpt>
      <trkpt lat="43.19749" lon="-0.96616">
        <ele>235.07</ele>
        <time>2021-06-05T22:07:15Z</time>
      </trkpt>
      <trkpt lat="43.1966" lon="-0.96603">
        <ele>229.54</ele>
        <time>2021-06-05T22:07:18Z</time>
      </trkpt>
      <trkpt lat="43.1966" lon="-0.96603">
        <ele>229.54</ele>
        <time>2021-06-05T22:07:18Z</time>
      </trkpt>
      <trkpt lat="43.19581" lon="-0.96589">
        <ele>222.78</ele>
        <time>2021-06-05T22:07:26Z</time>
      </trkpt>
      <trkpt lat="43.19556" lon="-0.96578">
        <ele>219.87</ele>
        <time>2021-06-05T22:07:34Z</time>
      </trkpt>
      <trkpt lat="43.19506" lon="-0.96543">
        <ele>216.92</ele>
        <time>2021-06-05T22:07:41Z</time>
      </trkpt>
      <trkpt lat="43.19485" lon="-0.96524">
        <ele>216.16</ele>
        <time>2021-06-05T22:07:49Z</time>
      </trkpt>
      <trkpt lat="43.19475" lon="-0.96505">
        <ele>215.22</ele>
        <time>2021-06-05T22:07:56Z</time>
      </trkpt>
      <trkpt lat="43.1947" lon="-0.96491">
        <ele>214.85</ele>
        <time>2021-06-05T22:08:04Z</time>
      </trkpt>
      <trkpt lat="43.19461" lon="-0.96444">
        <ele>213.4</ele>
        <time>2021-06-05T22:08:11Z</time>
      </trkpt>
      <trkpt lat="43.19396" lon="-0.95988">
        <ele>190</ele>
        <time>2021-06-05T22:08:19Z</time>
      </trkpt>
      <trkpt lat="43.19378" lon="-0.95873">
        <ele>191.68</ele>
        <time>2021-06-05T22:08:27Z</time>
      </trkpt>
      <trkpt lat="43.19351" lon="-0.95781">
        <ele>194.38</ele>
        <time>2021-06-05T22:08:34Z</time>
      </trkpt>
      <trkpt lat="43.19344" lon="-0.95749">
        <ele>194.92</ele>
        <time>2021-06-05T22:08:42Z</time>
      </trkpt>
      <trkpt lat="43.19268" lon="-0.95209">
        <ele>212.41</ele>
        <time>2021-06-05T22:08:49Z</time>
      </trkpt>
      <trkpt lat="43.19267" lon="-0.95188">
        <ele>211.57</ele>
        <time>2021-06-05T22:08:57Z</time>
      </trkpt>
      <trkpt lat="43.19267" lon="-0.95081">
        <ele>201.7</ele>
        <time>2021-06-05T22:09:04Z</time>
      </trkpt>
      <trkpt lat="43.19264" lon="-0.95059">
        <ele>199.34</ele>
        <time>2021-06-05T22:09:12Z</time>
      </trkpt>
      <trkpt lat="43.19255" lon="-0.95035">
        <ele>198.86</ele>
        <time>2021-06-05T22:09:19Z</time>
      </trkpt>
      <trkpt lat="43.19198" lon="-0.94938">
        <ele>195.98</ele>
        <time>2021-06-05T22:09:27Z</time>
      </trkpt>
      <trkpt lat="43.19184" lon="-0.94908">
        <ele>192.54</ele>
        <time>2021-06-05T22:09:35Z</time>
      </trkpt>
      <trkpt lat="43.19095" lon="-0.94668">
        <ele>188.2</ele>
        <time>2021-06-05T22:09:42Z</time>
      </trkpt>
      <trkpt lat="43.19078" lon="-0.94619">
        <ele>192.85</ele>
        <time>2021-06-05T22:09:50Z</time>
      </trkpt>
      <trkpt lat="43.19051" lon="-0.94528">
        <ele>192.39</ele>
        <time>2021-06-05T22:09:57Z</time>
      </trkpt>
      <trkpt lat="43.1899" lon="-0.94303">
        <ele>184.56</ele>
        <time>2021-06-05T22:10:05Z</time>
      </trkpt>
      <trkpt lat="43.18979" lon="-0.94268">
        <ele>182.46</ele>
        <time>2021-06-05T22:10:12Z</time>
      </trkpt>
      <trkpt lat="43.18977" lon="-0.94248">
        <ele>181.07</ele>
        <time>2021-06-05T22:10:20Z</time>
      </trkpt>
      <trkpt lat="43.18978" lon="-0.94172">
        <ele>177.35</ele>
        <time>2021-06-05T22:10:27Z</time>
      </trkpt>
      <trkpt lat="43.18986" lon="-0.94136">
        <ele>175.76</ele>
        <time>2021-06-05T22:10:35Z</time>
      </trkpt>
      <trkpt lat="43.18989" lon="-0.94127">
        <ele>175.34</ele>
        <time>2021-06-05T22:10:43Z</time>
      </trkpt>
      <trkpt lat="43.18999" lon="-0.94107">
        <ele>174.63</ele>
        <time>2021-06-05T22:10:50Z</time>
      </trkpt>
      <trkpt lat="43.19012" lon="-0.94086">
        <ele>174.49</ele>
        <time>2021-06-05T22:10:58Z</time>
      </trkpt>
      <trkpt lat="43.19096" lon="-0.93905">
        <ele>171.26</ele>
        <time>2021-06-05T22:11:05Z</time>
      </trkpt>
      <trkpt lat="43.19164" lon="-0.93758">
        <ele>172.89</ele>
        <time>2021-06-05T22:11:13Z</time>
      </trkpt>
      <trkpt lat="43.19186" lon="-0.93706">
        <ele>174.49</ele>
        <time>2021-06-05T22:11:20Z</time>
      </trkpt>
      <trkpt lat="43.19192" lon="-0.93684">
        <ele>174.7</ele>
        <time>2021-06-05T22:11:28Z</time>
      </trkpt>
      <trkpt lat="43.19198" lon="-0.93652">
        <ele>175.69</ele>
        <time>2021-06-05T22:11:35Z</time>
      </trkpt>
      <trkpt lat="43.19252" lon="-0.93261">
        <ele>180.15</ele>
        <time>2021-06-05T22:11:43Z</time>
      </trkpt>
      <trkpt lat="43.19258" lon="-0.93234">
        <ele>180.15</ele>
        <time>2021-06-05T22:11:51Z</time>
      </trkpt>
      <trkpt lat="43.19266" lon="-0.93212">
        <ele>180.76</ele>
        <time>2021-06-05T22:11:58Z</time>
      </trkpt>
      <trkpt lat="43.1929" lon="-0.93177">
        <ele>181.53</ele>
        <time>2021-06-05T22:12:06Z</time>
      </trkpt>
      <trkpt lat="43.19315" lon="-0.93148">
        <ele>179.65</ele>
        <time>2021-06-05T22:12:13Z</time>
      </trkpt>
      <trkpt lat="43.19329" lon="-0.93142">
        <ele>179.23</ele>
        <time>2021-06-05T22:12:21Z</time>
      </trkpt>
      <trkpt lat="43.19372" lon="-0.93142">
        <ele>175.62</ele>
        <time>2021-06-05T22:12:28Z</time>
      </trkpt>
      <trkpt lat="43.19388" lon="-0.93138">
        <ele>173.02</ele>
        <time>2021-06-05T22:12:36Z</time>
      </trkpt>
      <trkpt lat="43.19401" lon="-0.93131">
        <ele>171.01</ele>
        <time>2021-06-05T22:12:43Z</time>
      </trkpt>
      <trkpt lat="43.19409" lon="-0.93123">
        <ele>169.51</ele>
        <time>2021-06-05T22:12:51Z</time>
      </trkpt>
      <trkpt lat="43.19418" lon="-0.93111">
        <ele>168.07</ele>
        <time>2021-06-05T22:12:59Z</time>
      </trkpt>
      <trkpt lat="43.19425" lon="-0.93095">
        <ele>168.34</ele>
        <time>2021-06-05T22:13:06Z</time>
      </trkpt>
      <trkpt lat="43.19429" lon="-0.93074">
        <ele>169.14</ele>
        <time>2021-06-05T22:13:14Z</time>
      </trkpt>
      <trkpt lat="43.19438" lon="-0.92942">
        <ele>169.26</ele>
        <time>2021-06-05T22:13:21Z</time>
      </trkpt>
      <trkpt lat="43.19441" lon="-0.92783">
        <ele>169.6</ele>
        <time>2021-06-05T22:13:29Z</time>
      </trkpt>
      <trkpt lat="43.19439" lon="-0.92756">
        <ele>169.29</ele>
        <time>2021-06-05T22:13:36Z</time>
      </trkpt>
      <trkpt lat="43.19434" lon="-0.92729">
        <ele>168.28</ele>
        <time>2021-06-05T22:13:44Z</time>
      </trkpt>
      <trkpt lat="43.19393" lon="-0.92558">
        <ele>168.32</ele>
        <time>2021-06-05T22:13:52Z</time>
      </trkpt>
      <trkpt lat="43.19391" lon="-0.92536">
        <ele>168.04</ele>
        <time>2021-06-05T22:13:59Z</time>
      </trkpt>
      <trkpt lat="43.1939" lon="-0.92482">
        <ele>167</ele>
        <time>2021-06-05T22:14:07Z</time>
      </trkpt>
      <trkpt lat="43.19393" lon="-0.92267">
        <ele>161.8</ele>
        <time>2021-06-05T22:14:14Z</time>
      </trkpt>
      <trkpt lat="43.19397" lon="-0.92241">
        <ele>163.08</ele>
        <time>2021-06-05T22:14:22Z</time>
      </trkpt>
      <trkpt lat="43.19405" lon="-0.92214">
        <ele>164.11</ele>
        <time>2021-06-05T22:14:29Z</time>
      </trkpt>
      <trkpt lat="43.19418" lon="-0.92187">
        <ele>163.73</ele>
        <time>2021-06-05T22:14:37Z</time>
      </trkpt>
      <trkpt lat="43.1943" lon="-0.92172">
        <ele>162.79</ele>
        <time>2021-06-05T22:14:44Z</time>
      </trkpt>
      <trkpt lat="43.19505" lon="-0.92086">
        <ele>163.75</ele>
        <time>2021-06-05T22:14:52Z</time>
      </trkpt>
      <trkpt lat="43.1979" lon="-0.91664">
        <ele>169.69</ele>
        <time>2021-06-05T22:15:00Z</time>
      </trkpt>
      <trkpt lat="43.19826" lon="-0.91616">
        <ele>167.66</ele>
        <time>2021-06-05T22:15:07Z</time>
      </trkpt>
      <trkpt lat="43.19843" lon="-0.91598">
        <ele>167.8</ele>
        <time>2021-06-05T22:15:15Z</time>
      </trkpt>
      <trkpt lat="43.19896" lon="-0.91553">
        <ele>170.54</ele>
        <time>2021-06-05T22:15:22Z</time>
      </trkpt>
      <trkpt lat="43.20082" lon="-0.91402">
        <ele>173.64</ele>
        <time>2021-06-05T22:15:30Z</time>
      </trkpt>
      <trkpt lat="43.20111" lon="-0.91376">
        <ele>167.6</ele>
        <time>2021-06-05T22:15:37Z</time>
      </trkpt>
      <trkpt lat="43.20121" lon="-0.91364">
        <ele>166.03</ele>
        <time>2021-06-05T22:15:45Z</time>
      </trkpt>
      <trkpt lat="43.20128" lon="-0.91352">
        <ele>164.69</ele>
        <time>2021-06-05T22:15:52Z</time>
      </trkpt>
      <trkpt lat="43.20143" lon="-0.91318">
        <ele>161.77</ele>
        <time>2021-06-05T22:16:00Z</time>
      </trkpt>
      <trkpt lat="43.20193" lon="-0.91196">
        <ele>163.84</ele>
        <time>2021-06-05T22:16:08Z</time>
      </trkpt>
      <trkpt lat="43.20205" lon="-0.91171">
        <ele>161.81</ele>
        <time>2021-06-05T22:16:15Z</time>
      </trkpt>
      <trkpt lat="43.20386" lon="-0.9091">
        <ele>164.75</ele>
        <time>2021-06-05T22:16:23Z</time>
      </trkpt>
      <trkpt lat="43.20564" lon="-0.90661">
        <ele>157.4</ele>
        <time>2021-06-05T22:16:30Z</time>
      </trkpt>
      <trkpt lat="43.20579" lon="-0.90645">
        <ele>155.6</ele>
        <time>2021-06-05T22:16:38Z</time>
      </trkpt>
      <trkpt lat="43.20595" lon="-0.90633">
        <ele>155.46</ele>
        <time>2021-06-05T22:16:45Z</time>
      </trkpt>
      <trkpt lat="43.20611" lon="-0.90627">
        <ele>155.73</ele>
        <time>2021-06-05T22:16:53Z</time>
      </trkpt>
      <trkpt lat="43.20861" lon="-0.90575">
        <ele>157.29</ele>
        <time>2021-06-05T22:17:00Z</time>
      </trkpt>
      <trkpt lat="43.2087" lon="-0.90567">
        <ele>158.4</ele>
        <time>2021-06-05T22:17:08Z</time>
      </trkpt>
      <trkpt lat="43.20895" lon="-0.90525">
        <ele>158.8</ele>
        <time>2021-06-05T22:17:16Z</time>
      </trkpt>
      <trkpt lat="43.20907" lon="-0.9051">
        <ele>158.13</ele>
        <time>2021-06-05T22:17:23Z</time>
      </trkpt>
      <trkpt lat="43.20986" lon="-0.90435">
        <ele>160.8</ele>
        <time>2021-06-05T22:17:31Z</time>
      </trkpt>
      <trkpt lat="43.21233" lon="-0.90208">
        <ele>155.26</ele>
        <time>2021-06-05T22:17:38Z</time>
      </trkpt>
      <trkpt lat="43.21288" lon="-0.90127">
        <ele>151.64</ele>
        <time>2021-06-05T22:17:46Z</time>
      </trkpt>
      <trkpt lat="43.21327" lon="-0.90066">
        <ele>151.06</ele>
        <time>2021-06-05T22:17:53Z</time>
      </trkpt>
      <trkpt lat="43.21338" lon="-0.90043">
        <ele>152.33</ele>
        <time>2021-06-05T22:18:01Z</time>
      </trkpt>
      <trkpt lat="43.21476" lon="-0.89693">
        <ele>150.34</ele>
        <time>2021-06-05T22:18:08Z</time>
      </trkpt>
      <trkpt lat="43.2149" lon="-0.89664">
        <ele>149.04</ele>
        <time>2021-06-05T22:18:16Z</time>
      </trkpt>
      <trkpt lat="43.21498" lon="-0.89653">
        <ele>148.86</ele>
        <time>2021-06-05T22:18:24Z</time>
      </trkpt>
      <trkpt lat="43.2158" lon="-0.89567">
        <ele>150.06</ele>
        <time>2021-06-05T22:18:31Z</time>
      </trkpt>
      <trkpt lat="43.21665" lon="-0.89481">
        <ele>144.6</ele>
        <time>2021-06-05T22:18:39Z</time>
      </trkpt>
      <trkpt lat="43.21678" lon="-0.89466">
        <ele>144.18</ele>
        <time>2021-06-05T22:18:46Z</time>
      </trkpt>
      <trkpt lat="43.217" lon="-0.89428">
        <ele>143.53</ele>
        <time>2021-06-05T22:18:54Z</time>
      </trkpt>
      <trkpt lat="43.217" lon="-0.89417">
        <ele>143.21</ele>
        <time>2021-06-05T22:18:58Z</time>
      </trkpt>
      <trkpt lat="43.21703" lon="-0.89405">
        <ele>143.75</ele>
        <time>2021-06-05T22:19:03Z</time>
      </trkpt>
      <trkpt lat="43.2171" lon="-0.89396">
        <ele>144.3</ele>
        <time>2021-06-05T22:19:08Z</time>
      </trkpt>
      <trkpt lat="43.21715" lon="-0.89392">
        <ele>144.66</ele>
        <time>2021-06-05T22:19:12Z</time>
      </trkpt>
      <trkpt lat="43.21722" lon="-0.8939">
        <ele>144.95</ele>
        <time>2021-06-05T22:19:17Z</time>
      </trkpt>
      <trkpt lat="43.21745" lon="-0.89358">
        <ele>144.98</ele>
        <time>2021-06-05T22:19:21Z</time>
      </trkpt>
      <trkpt lat="43.21761" lon="-0.8933">
        <ele>145.43</ele>
        <time>2021-06-05T22:19:26Z</time>
      </trkpt>
      <trkpt lat="43.21864" lon="-0.89174">
        <ele>142.38</ele>
        <time>2021-06-05T22:19:30Z</time>
      </trkpt>
      <trkpt lat="43.21891" lon="-0.8912">
        <ele>143.43</ele>
        <time>2021-06-05T22:19:35Z</time>
      </trkpt>
      <trkpt lat="43.21933" lon="-0.89061">
        <ele>146.9</ele>
        <time>2021-06-05T22:19:39Z</time>
      </trkpt>
      <trkpt lat="43.21975" lon="-0.89006">
        <ele>146.09</ele>
        <time>2021-06-05T22:19:44Z</time>
      </trkpt>
      <trkpt lat="43.21987" lon="-0.89">
        <ele>145.48</ele>
        <time>2021-06-05T22:19:48Z</time>
      </trkpt>
      <trkpt lat="43.21988" lon="-0.88994">
        <ele>145.15</ele>
        <time>2021-06-05T22:19:51Z</time>
      </trkpt>
      <trkpt lat="43.21992" lon="-0.88991">
        <ele>144.88</ele>
        <time>2021-06-05T22:19:54Z</time>
      </trkpt>
      <trkpt lat="43.21997" lon="-0.88993">
        <ele>144.82</ele>
        <time>2021-06-05T22:19:57Z</time>
      </trkpt>
      <trkpt lat="43.21999" lon="-0.88998">
        <ele>144.96</ele>
        <time>2021-06-05T22:20:00Z</time>
      </trkpt>
      <trkpt lat="43.21998" lon="-0.89004">
        <ele>145.07</ele>
        <time>2021-06-05T22:20:02Z</time>
      </trkpt>
      <trkpt lat="43.21995" lon="-0.89007">
        <ele>145.23</ele>
        <time>2021-06-05T22:20:05Z</time>
      </trkpt>
      <trkpt lat="43.22001" lon="-0.89021">
        <ele>144.94</ele>
        <time>2021-06-05T22:20:08Z</time>
      </trkpt>
      <trkpt lat="43.22081" lon="-0.89263">
        <ele>143.51</ele>
        <time>2021-06-05T22:20:11Z</time>
      </trkpt>
      <trkpt lat="43.22087" lon="-0.89272">
        <ele>143.87</ele>
        <time>2021-06-05T22:20:14Z</time>
      </trkpt>
      <trkpt lat="43.22111" lon="-0.89274">
        <ele>144.74</ele>
        <time>2021-06-05T22:20:19Z</time>
      </trkpt>
      <trkpt lat="43.22125" lon="-0.89278">
        <ele>145.51</ele>
        <time>2021-06-05T22:20:24Z</time>
      </trkpt>
      <trkpt lat="43.22145" lon="-0.89292">
        <ele>146.62</ele>
        <time>2021-06-05T22:20:29Z</time>
      </trkpt>
      <trkpt lat="43.22162" lon="-0.89302">
        <ele>146.98</ele>
        <time>2021-06-05T22:20:34Z</time>
      </trkpt>
      <trkpt lat="43.2217" lon="-0.89301">
        <ele>146.98</ele>
        <time>2021-06-05T22:20:39Z</time>
      </trkpt>
      <trkpt lat="43.22177" lon="-0.89298">
        <ele>146.9</ele>
        <time>2021-06-05T22:20:45Z</time>
      </trkpt>
      <trkpt lat="43.22185" lon="-0.89288">
        <ele>146.59</ele>
        <time>2021-06-05T22:20:50Z</time>
      </trkpt>
      <trkpt lat="43.22199" lon="-0.89254">
        <ele>146</ele>
        <time>2021-06-05T22:20:55Z</time>
      </trkpt>
      <trkpt lat="43.22248" lon="-0.89193">
        <ele>144.15</ele>
        <time>2021-06-05T22:21:00Z</time>
      </trkpt>
      <trkpt lat="43.22331" lon="-0.89067">
        <ele>141.6</ele>
        <time>2021-06-05T22:21:05Z</time>
      </trkpt>
      <trkpt lat="43.224" lon="-0.88958">
        <ele>141.88</ele>
        <time>2021-06-05T22:21:10Z</time>
      </trkpt>
      <trkpt lat="43.22367" lon="-0.88892">
        <ele>141</ele>
        <time>2021-06-05T22:21:21Z</time>
      </trkpt>
      <trkpt lat="43.22367" lon="-0.88892">
        <ele>141</ele>
        <time>2021-06-05T22:21:21Z</time>
      </trkpt>
      <trkpt lat="43.224" lon="-0.88958">
        <ele>141.88</ele>
        <time>2021-06-05T22:21:32Z</time>
      </trkpt>
      <trkpt lat="43.22419" lon="-0.88929">
        <ele>141.1</ele>
        <time>2021-06-05T22:21:40Z</time>
      </trkpt>
      <trkpt lat="43.22472" lon="-0.88835">
        <ele>141.11</ele>
        <time>2021-06-05T22:21:47Z</time>
      </trkpt>
      <trkpt lat="43.22486" lon="-0.88852">
        <ele>141.14</ele>
        <time>2021-06-05T22:21:49Z</time>
      </trkpt>
      <trkpt lat="43.22498" lon="-0.88863">
        <ele>140.31</ele>
        <time>2021-06-05T22:21:51Z</time>
      </trkpt>
      <trkpt lat="43.22502" lon="-0.88865">
        <ele>140.04</ele>
        <time>2021-06-05T22:21:52Z</time>
      </trkpt>
      <trkpt lat="43.22529" lon="-0.88857">
        <ele>138.81</ele>
        <time>2021-06-05T22:21:54Z</time>
      </trkpt>
      <trkpt lat="43.22541" lon="-0.88857">
        <ele>138.45</ele>
        <time>2021-06-05T22:21:56Z</time>
      </trkpt>
      <trkpt lat="43.22557" lon="-0.8887">
        <ele>138.35</ele>
        <time>2021-06-05T22:21:58Z</time>
      </trkpt>
      <trkpt lat="43.22579" lon="-0.88893">
        <ele>139</ele>
        <time>2021-06-05T22:22:00Z</time>
      </trkpt>
      <trkpt lat="43.22603" lon="-0.8887">
        <ele>139.9</ele>
        <time>2021-06-05T22:22:04Z</time>
      </trkpt>
      <trkpt lat="43.22664" lon="-0.88813">
        <ele>137.41</ele>
        <time>2021-06-05T22:22:08Z</time>
      </trkpt>
      <trkpt lat="43.22673" lon="-0.88797">
        <ele>137.32</ele>
        <time>2021-06-05T22:22:12Z</time>
      </trkpt>
      <trkpt lat="43.22676" lon="-0.88782">
        <ele>137.84</ele>
        <time>2021-06-05T22:22:16Z</time>
      </trkpt>
      <trkpt lat="43.22679" lon="-0.88772">
        <ele>138.22</ele>
        <time>2021-06-05T22:22:20Z</time>
      </trkpt>
      <trkpt lat="43.22687" lon="-0.88765">
        <ele>138.45</ele>
        <time>2021-06-05T22:22:24Z</time>
      </trkpt>
      <trkpt lat="43.22707" lon="-0.88765">
        <ele>138.69</ele>
        <time>2021-06-05T22:22:28Z</time>
      </trkpt>
      <trkpt lat="43.2272" lon="-0.88761">
        <ele>138.97</ele>
        <time>2021-06-05T22:22:32Z</time>
      </trkpt>
      <trkpt lat="43.22743" lon="-0.88738">
        <ele>140.88</ele>
        <time>2021-06-05T22:22:36Z</time>
      </trkpt>
      <trkpt lat="43.22768" lon="-0.88708">
        <ele>141.44</ele>
        <time>2021-06-05T22:22:41Z</time>
      </trkpt>
      <trkpt lat="43.22885" lon="-0.88508">
        <ele>139.73</ele>
        <time>2021-06-05T22:22:45Z</time>
      </trkpt>
      <trkpt lat="43.229" lon="-0.88477">
        <ele>140.61</ele>
        <time>2021-06-05T22:22:49Z</time>
      </trkpt>
      <trkpt lat="43.22924" lon="-0.8842">
        <ele>142.37</ele>
        <time>2021-06-05T22:22:53Z</time>
      </trkpt>
      <trkpt lat="43.22947" lon="-0.88356">
        <ele>142.05</ele>
        <time>2021-06-05T22:22:57Z</time>
      </trkpt>
      <trkpt lat="43.23003" lon="-0.88141">
        <ele>141.64</ele>
        <time>2021-06-05T22:23:01Z</time>
      </trkpt>
      <trkpt lat="43.23016" lon="-0.88099">
        <ele>143.96</ele>
        <time>2021-06-05T22:23:05Z</time>
      </trkpt>
      <trkpt lat="43.2303" lon="-0.88062">
        <ele>145.53</ele>
        <time>2021-06-05T22:23:09Z</time>
      </trkpt>
      <trkpt lat="43.23063" lon="-0.87995">
        <ele>144.31</ele>
        <time>2021-06-05T22:23:13Z</time>
      </trkpt>
      <trkpt lat="43.23096" lon="-0.87942">
        <ele>143.24</ele>
        <time>2021-06-05T22:23:17Z</time>
      </trkpt>
      <trkpt lat="43.2311" lon="-0.87909">
        <ele>142.35</ele>
        <time>2021-06-05T22:23:22Z</time>
      </trkpt>
      <trkpt lat="43.23114" lon="-0.87905">
        <ele>142.37</ele>
        <time>2021-06-05T22:23:26Z</time>
      </trkpt>
      <trkpt lat="43.23112" lon="-0.87896">
        <ele>141.58</ele>
        <time>2021-06-05T22:23:29Z</time>
      </trkpt>
      <trkpt lat="43.23114" lon="-0.87887">
        <ele>141.21</ele>
        <time>2021-06-05T22:23:33Z</time>
      </trkpt>
      <trkpt lat="43.2312" lon="-0.87881">
        <ele>141.4</ele>
        <time>2021-06-05T22:23:36Z</time>
      </trkpt>
      <trkpt lat="43.23127" lon="-0.87881">
        <ele>142.1</ele>
        <time>2021-06-05T22:23:40Z</time>
      </trkpt>
      <trkpt lat="43.23155" lon="-0.87847">
        <ele>142.23</ele>
        <time>2021-06-05T22:23:43Z</time>
      </trkpt>
      <trkpt lat="43.23175" lon="-0.87818">
        <ele>142.49</ele>
        <time>2021-06-05T22:23:47Z</time>
      </trkpt>
      <trkpt lat="43.23197" lon="-0.87793">
        <ele>142.33</ele>
        <time>2021-06-05T22:23:50Z</time>
      </trkpt>
      <trkpt lat="43.23217" lon="-0.87778">
        <ele>142.59</ele>
        <time>2021-06-05T22:23:54Z</time>
      </trkpt>
      <trkpt lat="43.23232" lon="-0.87769">
        <ele>142.43</ele>
        <time>2021-06-05T22:23:57Z</time>
      </trkpt>
      <trkpt lat="43.23283" lon="-0.87747">
        <ele>143.74</ele>
        <time>2021-06-05T22:24:01Z</time>
      </trkpt>
      <trkpt lat="43.23307" lon="-0.87744">
        <ele>144.53</ele>
        <time>2021-06-05T22:24:04Z</time>
      </trkpt>
      <trkpt lat="43.23342" lon="-0.87747">
        <ele>144.5</ele>
        <time>2021-06-05T22:24:08Z</time>
      </trkpt>
      <trkpt lat="43.2342" lon="-0.87763">
        <ele>138.17</ele>
        <time>2021-06-05T22:24:11Z</time>
      </trkpt>
      <trkpt lat="43.23483" lon="-0.87766">
        <ele>137.7</ele>
        <time>2021-06-05T22:24:15Z</time>
      </trkpt>
      <trkpt lat="43.23525" lon="-0.87764">
        <ele>132.49</ele>
        <time>2021-06-05T22:24:18Z</time>
      </trkpt>
      <trkpt lat="43.23545" lon="-0.87766">
        <ele>130.24</ele>
        <time>2021-06-05T22:24:22Z</time>
      </trkpt>
      <trkpt lat="43.23706" lon="-0.8783">
        <ele>129.43</ele>
        <time>2021-06-05T22:24:25Z</time>
      </trkpt>
      <trkpt lat="43.23741" lon="-0.87846">
        <ele>130.18</ele>
        <time>2021-06-05T22:24:29Z</time>
      </trkpt>
      <trkpt lat="43.23829" lon="-0.8788">
        <ele>132.26</ele>
        <time>2021-06-05T22:24:32Z</time>
      </trkpt>
      <trkpt lat="43.23858" lon="-0.87889">
        <ele>131.13</ele>
        <time>2021-06-05T22:24:36Z</time>
      </trkpt>
      <trkpt lat="43.23896" lon="-0.87891">
        <ele>131.01</ele>
        <time>2021-06-05T22:24:39Z</time>
      </trkpt>
      <trkpt lat="43.24087" lon="-0.87886">
        <ele>129.8</ele>
        <time>2021-06-05T22:24:43Z</time>
      </trkpt>
      <trkpt lat="43.24111" lon="-0.87878">
        <ele>129.41</ele>
        <time>2021-06-05T22:24:46Z</time>
      </trkpt>
      <trkpt lat="43.24115" lon="-0.87872">
        <ele>129.64</ele>
        <time>2021-06-05T22:24:50Z</time>
      </trkpt>
      <trkpt lat="43.24115" lon="-0.87858">
        <ele>129.98</ele>
        <time>2021-06-05T22:24:54Z</time>
      </trkpt>
      <trkpt lat="43.24113" lon="-0.87821">
        <ele>129.93</ele>
        <time>2021-06-05T22:24:57Z</time>
      </trkpt>
      <trkpt lat="43.24116" lon="-0.87804">
        <ele>129.76</ele>
        <time>2021-06-05T22:25:01Z</time>
      </trkpt>
      <trkpt lat="43.24127" lon="-0.87775">
        <ele>128.88</ele>
        <time>2021-06-05T22:25:05Z</time>
      </trkpt>
      <trkpt lat="43.2414" lon="-0.87753">
        <ele>128.11</ele>
        <time>2021-06-05T22:25:09Z</time>
      </trkpt>
      <trkpt lat="43.24182" lon="-0.87639">
        <ele>126.55</ele>
        <time>2021-06-05T22:25:12Z</time>
      </trkpt>
      <trkpt lat="43.24189" lon="-0.87604">
        <ele>127.05</ele>
        <time>2021-06-05T22:25:16Z</time>
      </trkpt>
      <trkpt lat="43.24193" lon="-0.87575">
        <ele>127.06</ele>
        <time>2021-06-05T22:25:20Z</time>
      </trkpt>
      <trkpt lat="43.24201" lon="-0.87445">
        <ele>125.03</ele>
        <time>2021-06-05T22:25:23Z</time>
      </trkpt>
      <trkpt lat="43.24202" lon="-0.8742">
        <ele>125</ele>
        <time>2021-06-05T22:25:27Z</time>
      </trkpt>
      <trkpt lat="43.24198" lon="-0.87372">
        <ele>125</ele>
        <time>2021-06-05T22:25:31Z</time>
      </trkpt>
      <trkpt lat="43.24189" lon="-0.87329">
        <ele>124.68</ele>
        <time>2021-06-05T22:25:35Z</time>
      </trkpt>
      <trkpt lat="43.24182" lon="-0.87305">
        <ele>123.96</ele>
        <time>2021-06-05T22:25:38Z</time>
      </trkpt>
      <trkpt lat="43.24163" lon="-0.87241">
        <ele>123.18</ele>
        <time>2021-06-05T22:25:42Z</time>
      </trkpt>
      <trkpt lat="43.2415" lon="-0.87189">
        <ele>124.72</ele>
        <time>2021-06-05T22:25:46Z</time>
      </trkpt>
      <trkpt lat="43.24141" lon="-0.87124">
        <ele>127.53</ele>
        <time>2021-06-05T22:25:50Z</time>
      </trkpt>
      <trkpt lat="43.2414" lon="-0.871">
        <ele>128.76</ele>
        <time>2021-06-05T22:25:53Z</time>
      </trkpt>
      <trkpt lat="43.24145" lon="-0.87045">
        <ele>132.79</ele>
        <time>2021-06-05T22:25:57Z</time>
      </trkpt>
      <trkpt lat="43.24142" lon="-0.87017">
        <ele>134.3</ele>
        <time>2021-06-05T22:26:01Z</time>
      </trkpt>
      <trkpt lat="43.24138" lon="-0.87006">
        <ele>134.79</ele>
        <time>2021-06-05T22:26:03Z</time>
      </trkpt>
      <trkpt lat="43.24125" lon="-0.86985">
        <ele>136.32</ele>
        <time>2021-06-05T22:26:06Z</time>
      </trkpt>
      <trkpt lat="43.24113" lon="-0.86979">
        <ele>136.56</ele>
        <time>2021-06-05T22:26:09Z</time>
      </trkpt>
      <trkpt lat="43.24099" lon="-0.86975">
        <ele>135.49</ele>
        <time>2021-06-05T22:26:11Z</time>
      </trkpt>
      <trkpt lat="43.24061" lon="-0.8697">
        <ele>132.57</ele>
        <time>2021-06-05T22:26:14Z</time>
      </trkpt>
      <trkpt lat="43.24037" lon="-0.86972">
        <ele>132</ele>
        <time>2021-06-05T22:26:16Z</time>
      </trkpt>
      <trkpt lat="43.24007" lon="-0.86979">
        <ele>132.18</ele>
        <time>2021-06-05T22:26:19Z</time>
      </trkpt>
      <trkpt lat="43.23954" lon="-0.87002">
        <ele>132.33</ele>
        <time>2021-06-05T22:26:22Z</time>
      </trkpt>
      <trkpt lat="43.23953" lon="-0.86998">
        <ele>132.3</ele>
        <time>2021-06-05T22:26:27Z</time>
      </trkpt>
      <trkpt lat="43.23946" lon="-0.86987">
        <ele>132.07</ele>
        <time>2021-06-05T22:26:32Z</time>
      </trkpt>
      <trkpt lat="43.23779" lon="-0.86843">
        <ele>133.32</ele>
        <time>2021-06-05T22:26:36Z</time>
      </trkpt>
      <trkpt lat="43.23741" lon="-0.868">
        <ele>133.35</ele>
        <time>2021-06-05T22:26:41Z</time>
      </trkpt>
      <trkpt lat="43.23695" lon="-0.86756">
        <ele>131.05</ele>
        <time>2021-06-05T22:26:46Z</time>
      </trkpt>
      <trkpt lat="43.23661" lon="-0.86727">
        <ele>131.36</ele>
        <time>2021-06-05T22:26:51Z</time>
      </trkpt>
      <trkpt lat="43.2364" lon="-0.86715">
        <ele>133.42</ele>
        <time>2021-06-05T22:26:56Z</time>
      </trkpt>
      <trkpt lat="43.2362" lon="-0.86712">
        <ele>134.19</ele>
        <time>2021-06-05T22:27:01Z</time>
      </trkpt>
      <trkpt lat="43.23448" lon="-0.86713">
        <ele>138.85</ele>
        <time>2021-06-05T22:27:06Z</time>
      </trkpt>
      <trkpt lat="43.23421" lon="-0.86706">
        <ele>137.5</ele>
        <time>2021-06-05T22:27:11Z</time>
      </trkpt>
      <trkpt lat="43.23346" lon="-0.86677">
        <ele>136.34</ele>
        <time>2021-06-05T22:27:16Z</time>
      </trkpt>
      <trkpt lat="43.23327" lon="-0.86673">
        <ele>136.83</ele>
        <time>2021-06-05T22:27:21Z</time>
      </trkpt>
      <trkpt lat="43.23315" lon="-0.86673">
        <ele>136.92</ele>
        <time>2021-06-05T22:27:26Z</time>
      </trkpt>
      <trkpt lat="43.23301" lon="-0.86677">
        <ele>137.1</ele>
        <time>2021-06-05T22:27:31Z</time>
      </trkpt>
      <trkpt lat="43.23203" lon="-0.86725">
        <ele>136.82</ele>
        <time>2021-06-05T22:27:36Z</time>
      </trkpt>
      <trkpt lat="43.23192" lon="-0.86728">
        <ele>136.6</ele>
        <time>2021-06-05T22:27:41Z</time>
      </trkpt>
      <trkpt lat="43.23166" lon="-0.86726">
        <ele>136.87</ele>
        <time>2021-06-05T22:27:45Z</time>
      </trkpt>
      <trkpt lat="43.23163" lon="-0.86725">
        <ele>137.06</ele>
        <time>2021-06-05T22:27:50Z</time>
      </trkpt>
      <trkpt lat="43.23162" lon="-0.8667">
        <ele>138.84</ele>
        <time>2021-06-05T22:27:53Z</time>
      </trkpt>
      <trkpt lat="43.2316" lon="-0.8664">
        <ele>138.74</ele>
        <time>2021-06-05T22:27:56Z</time>
      </trkpt>
      <trkpt lat="43.23134" lon="-0.86582">
        <ele>139.52</ele>
        <time>2021-06-05T22:27:59Z</time>
      </trkpt>
      <trkpt lat="43.2307" lon="-0.86399">
        <ele>145.49</ele>
        <time>2021-06-05T22:28:01Z</time>
      </trkpt>
      <trkpt lat="43.23009" lon="-0.86218">
        <ele>149.8</ele>
        <time>2021-06-05T22:28:04Z</time>
      </trkpt>
      <trkpt lat="43.22854" lon="-0.85767">
        <ele>152.89</ele>
        <time>2021-06-05T22:28:07Z</time>
      </trkpt>
      <trkpt lat="43.22842" lon="-0.85725">
        <ele>153.8</ele>
        <time>2021-06-05T22:28:10Z</time>
      </trkpt>
      <trkpt lat="43.22836" lon="-0.85693">
        <ele>153.45</ele>
        <time>2021-06-05T22:28:12Z</time>
      </trkpt>
      <trkpt lat="43.22833" lon="-0.85665">
        <ele>154.07</ele>
        <time>2021-06-05T22:28:15Z</time>
      </trkpt>
      <trkpt lat="43.22833" lon="-0.85636">
        <ele>154.88</ele>
        <time>2021-06-05T22:28:18Z</time>
      </trkpt>
      <trkpt lat="43.22851" lon="-0.85482">
        <ele>154.94</ele>
        <time>2021-06-05T22:28:20Z</time>
      </trkpt>
      <trkpt lat="43.22853" lon="-0.85444">
        <ele>155.76</ele>
        <time>2021-06-05T22:28:23Z</time>
      </trkpt>
      <trkpt lat="43.22851" lon="-0.85411">
        <ele>157</ele>
        <time>2021-06-05T22:28:26Z</time>
      </trkpt>
      <trkpt lat="43.22823" lon="-0.85194">
        <ele>164.82</ele>
        <time>2021-06-05T22:28:29Z</time>
      </trkpt>
      <trkpt lat="43.22822" lon="-0.8515">
        <ele>168.02</ele>
        <time>2021-06-05T22:28:31Z</time>
      </trkpt>
      <trkpt lat="43.22843" lon="-0.84835">
        <ele>172.29</ele>
        <time>2021-06-05T22:28:34Z</time>
      </trkpt>
      <trkpt lat="43.22842" lon="-0.84815">
        <ele>173.44</ele>
        <time>2021-06-05T22:28:37Z</time>
      </trkpt>
      <trkpt lat="43.2284" lon="-0.84793">
        <ele>174.81</ele>
        <time>2021-06-05T22:28:40Z</time>
      </trkpt>
      <trkpt lat="43.22833" lon="-0.84772">
        <ele>176.42</ele>
        <time>2021-06-05T22:28:42Z</time>
      </trkpt>
      <trkpt lat="43.22818" lon="-0.84744">
        <ele>179.55</ele>
        <time>2021-06-05T22:28:45Z</time>
      </trkpt>
      <trkpt lat="43.22789" lon="-0.84704">
        <ele>181.73</ele>
        <time>2021-06-05T22:28:48Z</time>
      </trkpt>
      <trkpt lat="43.22775" lon="-0.84676">
        <ele>183.95</ele>
        <time>2021-06-05T22:28:51Z</time>
      </trkpt>
      <trkpt lat="43.22764" lon="-0.84648">
        <ele>187.58</ele>
        <time>2021-06-05T22:28:53Z</time>
      </trkpt>
      <trkpt lat="43.22754" lon="-0.84615">
        <ele>188.43</ele>
        <time>2021-06-05T22:28:56Z</time>
      </trkpt>
      <trkpt lat="43.2275" lon="-0.84597">
        <ele>188.57</ele>
        <time>2021-06-05T22:28:59Z</time>
      </trkpt>
      <trkpt lat="43.22747" lon="-0.84572">
        <ele>189.29</ele>
        <time>2021-06-05T22:29:02Z</time>
      </trkpt>
      <trkpt lat="43.22746" lon="-0.84473">
        <ele>193.15</ele>
        <time>2021-06-05T22:29:04Z</time>
      </trkpt>
      <trkpt lat="43.2274" lon="-0.84456">
        <ele>195.62</ele>
        <time>2021-06-05T22:29:07Z</time>
      </trkpt>
      <trkpt lat="43.22732" lon="-0.84446">
        <ele>198.01</ele>
        <time>2021-06-05T22:29:10Z</time>
      </trkpt>
      <trkpt lat="43.22724" lon="-0.84441">
        <ele>200.66</ele>
        <time>2021-06-05T22:29:12Z</time>
      </trkpt>
      <trkpt lat="43.22661" lon="-0.84445">
        <ele>210.01</ele>
        <time>2021-06-05T22:29:15Z</time>
      </trkpt>
      <trkpt lat="43.22652" lon="-0.84444">
        <ele>211.67</ele>
        <time>2021-06-05T22:29:18Z</time>
      </trkpt>
      <trkpt lat="43.22645" lon="-0.84438">
        <ele>212.65</ele>
        <time>2021-06-05T22:29:21Z</time>
      </trkpt>
      <trkpt lat="43.22643" lon="-0.84432">
        <ele>212.89</ele>
        <time>2021-06-05T22:29:23Z</time>
      </trkpt>
      <trkpt lat="43.22642" lon="-0.84425">
        <ele>212.8</ele>
        <time>2021-06-05T22:29:26Z</time>
      </trkpt>
      <trkpt lat="43.22644" lon="-0.84416">
        <ele>212.09</ele>
        <time>2021-06-05T22:29:29Z</time>
      </trkpt>
      <trkpt lat="43.22649" lon="-0.8441">
        <ele>211.53</ele>
        <time>2021-06-05T22:29:32Z</time>
      </trkpt>
      <trkpt lat="43.22683" lon="-0.84379">
        <ele>210.19</ele>
        <time>2021-06-05T22:29:34Z</time>
      </trkpt>
      <trkpt lat="43.22691" lon="-0.84368">
        <ele>211.28</ele>
        <time>2021-06-05T22:29:37Z</time>
      </trkpt>
      <trkpt lat="43.22696" lon="-0.84358">
        <ele>212.43</ele>
        <time>2021-06-05T22:29:40Z</time>
      </trkpt>
      <trkpt lat="43.227" lon="-0.84344">
        <ele>214.09</ele>
        <time>2021-06-05T22:29:43Z</time>
      </trkpt>
      <trkpt lat="43.22701" lon="-0.84328">
        <ele>215.08</ele>
        <time>2021-06-05T22:29:45Z</time>
      </trkpt>
      <trkpt lat="43.22701" lon="-0.84314">
        <ele>214.65</ele>
        <time>2021-06-05T22:29:48Z</time>
      </trkpt>
      <trkpt lat="43.22688" lon="-0.84262">
        <ele>215.07</ele>
        <time>2021-06-05T22:29:51Z</time>
      </trkpt>
      <trkpt lat="43.22685" lon="-0.84243">
        <ele>216.62</ele>
        <time>2021-06-05T22:29:53Z</time>
      </trkpt>
      <trkpt lat="43.22684" lon="-0.84223">
        <ele>218.01</ele>
        <time>2021-06-05T22:29:56Z</time>
      </trkpt>
      <trkpt lat="43.22694" lon="-0.84151">
        <ele>219.85</ele>
        <time>2021-06-05T22:29:59Z</time>
      </trkpt>
      <trkpt lat="43.22695" lon="-0.84128">
        <ele>220.78</ele>
        <time>2021-06-05T22:30:02Z</time>
      </trkpt>
      <trkpt lat="43.22694" lon="-0.84109">
        <ele>222.26</ele>
        <time>2021-06-05T22:30:04Z</time>
      </trkpt>
      <trkpt lat="43.22689" lon="-0.84086">
        <ele>223.7</ele>
        <time>2021-06-05T22:30:07Z</time>
      </trkpt>
      <trkpt lat="43.22682" lon="-0.8406">
        <ele>226.47</ele>
        <time>2021-06-05T22:30:10Z</time>
      </trkpt>
      <trkpt lat="43.22674" lon="-0.84014">
        <ele>229.11</ele>
        <time>2021-06-05T22:30:13Z</time>
      </trkpt>
      <trkpt lat="43.22675" lon="-0.8399">
        <ele>228.93</ele>
        <time>2021-06-05T22:30:15Z</time>
      </trkpt>
      <trkpt lat="43.22687" lon="-0.83955">
        <ele>229.62</ele>
        <time>2021-06-05T22:30:18Z</time>
      </trkpt>
      <trkpt lat="43.22691" lon="-0.83955">
        <ele>229.21</ele>
        <time>2021-06-05T22:30:21Z</time>
      </trkpt>
      <trkpt lat="43.22731" lon="-0.83935">
        <ele>230.47</ele>
        <time>2021-06-05T22:30:23Z</time>
      </trkpt>
      <trkpt lat="43.22739" lon="-0.83928">
        <ele>230.95</ele>
        <time>2021-06-05T22:30:26Z</time>
      </trkpt>
      <trkpt lat="43.22744" lon="-0.83919">
        <ele>231.61</ele>
        <time>2021-06-05T22:30:28Z</time>
      </trkpt>
      <trkpt lat="43.22748" lon="-0.8391">
        <ele>231.71</ele>
        <time>2021-06-05T22:30:31Z</time>
      </trkpt>
      <trkpt lat="43.22765" lon="-0.8385">
        <ele>230.77</ele>
        <time>2021-06-05T22:30:34Z</time>
      </trkpt>
      <trkpt lat="43.22779" lon="-0.83809">
        <ele>228.55</ele>
        <time>2021-06-05T22:30:36Z</time>
      </trkpt>
      <trkpt lat="43.22795" lon="-0.83778">
        <ele>226.77</ele>
        <time>2021-06-05T22:30:39Z</time>
      </trkpt>
      <trkpt lat="43.2281" lon="-0.83765">
        <ele>226.21</ele>
        <time>2021-06-05T22:30:41Z</time>
      </trkpt>
      <trkpt lat="43.22819" lon="-0.83763">
        <ele>226.94</ele>
        <time>2021-06-05T22:30:44Z</time>
      </trkpt>
      <trkpt lat="43.22849" lon="-0.83765">
        <ele>230.69</ele>
        <time>2021-06-05T22:30:46Z</time>
      </trkpt>
      <trkpt lat="43.22872" lon="-0.83759">
        <ele>231.38</ele>
        <time>2021-06-05T22:30:49Z</time>
      </trkpt>
      <trkpt lat="43.22898" lon="-0.83741">
        <ele>230.57</ele>
        <time>2021-06-05T22:30:52Z</time>
      </trkpt>
      <trkpt lat="43.22907" lon="-0.8373">
        <ele>229.89</ele>
        <time>2021-06-05T22:30:54Z</time>
      </trkpt>
      <trkpt lat="43.22921" lon="-0.83709">
        <ele>228</ele>
        <time>2021-06-05T22:30:57Z</time>
      </trkpt>
      <trkpt lat="43.22928" lon="-0.83689">
        <ele>225.77</ele>
        <time>2021-06-05T22:30:59Z</time>
      </trkpt>
      <trkpt lat="43.22933" lon="-0.83663">
        <ele>221.91</ele>
        <time>2021-06-05T22:31:02Z</time>
      </trkpt>
      <trkpt lat="43.22935" lon="-0.83638">
        <ele>218.18</ele>
        <time>2021-06-05T22:31:04Z</time>
      </trkpt>
      <trkpt lat="43.22934" lon="-0.83621">
        <ele>215.77</ele>
        <time>2021-06-05T22:31:07Z</time>
      </trkpt>
      <trkpt lat="43.22926" lon="-0.8359">
        <ele>212.84</ele>
        <time>2021-06-05T22:31:09Z</time>
      </trkpt>
      <trkpt lat="43.22903" lon="-0.83541">
        <ele>211.81</ele>
        <time>2021-06-05T22:31:12Z</time>
      </trkpt>
      <trkpt lat="43.22897" lon="-0.83522">
        <ele>211.41</ele>
        <time>2021-06-05T22:31:15Z</time>
      </trkpt>
      <trkpt lat="43.22893" lon="-0.83504">
        <ele>211.17</ele>
        <time>2021-06-05T22:31:17Z</time>
      </trkpt>
      <trkpt lat="43.22887" lon="-0.83409">
        <ele>217.06</ele>
        <time>2021-06-05T22:31:20Z</time>
      </trkpt>
      <trkpt lat="43.22888" lon="-0.83374">
        <ele>214.13</ele>
        <time>2021-06-05T22:31:22Z</time>
      </trkpt>
      <trkpt lat="43.22893" lon="-0.83343">
        <ele>211.68</ele>
        <time>2021-06-05T22:31:25Z</time>
      </trkpt>
      <trkpt lat="43.22898" lon="-0.83321">
        <ele>209.22</ele>
        <time>2021-06-05T22:31:27Z</time>
      </trkpt>
      <trkpt lat="43.22905" lon="-0.83303">
        <ele>206.85</ele>
        <time>2021-06-05T22:31:30Z</time>
      </trkpt>
      <trkpt lat="43.22915" lon="-0.83284">
        <ele>204.71</ele>
        <time>2021-06-05T22:31:33Z</time>
      </trkpt>
      <trkpt lat="43.22958" lon="-0.83216">
        <ele>200.92</ele>
        <time>2021-06-05T22:31:35Z</time>
      </trkpt>
      <trkpt lat="43.22963" lon="-0.83201">
        <ele>199.59</ele>
        <time>2021-06-05T22:31:38Z</time>
      </trkpt>
      <trkpt lat="43.22968" lon="-0.83183">
        <ele>198.53</ele>
        <time>2021-06-05T22:31:40Z</time>
      </trkpt>
      <trkpt lat="43.2297" lon="-0.83151">
        <ele>197.35</ele>
        <time>2021-06-05T22:31:43Z</time>
      </trkpt>
      <trkpt lat="43.22971" lon="-0.83098">
        <ele>196.41</ele>
        <time>2021-06-05T22:31:45Z</time>
      </trkpt>
      <trkpt lat="43.22977" lon="-0.8307">
        <ele>195.61</ele>
        <time>2021-06-05T22:31:48Z</time>
      </trkpt>
      <trkpt lat="43.22987" lon="-0.83044">
        <ele>194.16</ele>
        <time>2021-06-05T22:31:51Z</time>
      </trkpt>
      <trkpt lat="43.23009" lon="-0.83013">
        <ele>193.3</ele>
        <time>2021-06-05T22:31:53Z</time>
      </trkpt>
      <trkpt lat="43.23042" lon="-0.82981">
        <ele>192.48</ele>
        <time>2021-06-05T22:31:56Z</time>
      </trkpt>
      <trkpt lat="43.2313" lon="-0.82906">
        <ele>188.13</ele>
        <time>2021-06-05T22:31:58Z</time>
      </trkpt>
      <trkpt lat="43.23165" lon="-0.82857">
        <ele>184.86</ele>
        <time>2021-06-05T22:32:01Z</time>
      </trkpt>
      <trkpt lat="43.23231" lon="-0.82759">
        <ele>181.5</ele>
        <time>2021-06-05T22:32:03Z</time>
      </trkpt>
      <trkpt lat="43.23289" lon="-0.82686">
        <ele>176.7</ele>
        <time>2021-06-05T22:32:06Z</time>
      </trkpt>
      <trkpt lat="43.23321" lon="-0.82651">
        <ele>175.13</ele>
        <time>2021-06-05T22:32:09Z</time>
      </trkpt>
      <trkpt lat="43.23341" lon="-0.82641">
        <ele>174.63</ele>
        <time>2021-06-05T22:32:11Z</time>
      </trkpt>
      <trkpt lat="43.23356" lon="-0.82635">
        <ele>175.38</ele>
        <time>2021-06-05T22:32:14Z</time>
      </trkpt>
      <trkpt lat="43.23404" lon="-0.82627">
        <ele>174.75</ele>
        <time>2021-06-05T22:32:16Z</time>
      </trkpt>
      <trkpt lat="43.2342" lon="-0.82621">
        <ele>174.13</ele>
        <time>2021-06-05T22:32:19Z</time>
      </trkpt>
      <trkpt lat="43.2345" lon="-0.82598">
        <ele>173.39</ele>
        <time>2021-06-05T22:32:21Z</time>
      </trkpt>
      <trkpt lat="43.23464" lon="-0.82582">
        <ele>173.31</ele>
        <time>2021-06-05T22:32:24Z</time>
      </trkpt>
      <trkpt lat="43.23479" lon="-0.82556">
        <ele>172.47</ele>
        <time>2021-06-05T22:32:27Z</time>
      </trkpt>
      <trkpt lat="43.23489" lon="-0.82525">
        <ele>170.73</ele>
        <time>2021-06-05T22:32:29Z</time>
      </trkpt>
      <trkpt lat="43.23493" lon="-0.82508">
        <ele>168.68</ele>
        <time>2021-06-05T22:32:32Z</time>
      </trkpt>
      <trkpt lat="43.23509" lon="-0.82404">
        <ele>169.83</ele>
        <time>2021-06-05T22:32:34Z</time>
      </trkpt>
      <trkpt lat="43.2352" lon="-0.8235">
        <ele>170.61</ele>
        <time>2021-06-05T22:32:37Z</time>
      </trkpt>
      <trkpt lat="43.23532" lon="-0.82311">
        <ele>171.62</ele>
        <time>2021-06-05T22:32:39Z</time>
      </trkpt>
      <trkpt lat="43.2354" lon="-0.82291">
        <ele>173.14</ele>
        <time>2021-06-05T22:32:42Z</time>
      </trkpt>
      <trkpt lat="43.23593" lon="-0.82181">
        <ele>177.49</ele>
        <time>2021-06-05T22:32:45Z</time>
      </trkpt>
      <trkpt lat="43.2361" lon="-0.82149">
        <ele>179.63</ele>
        <time>2021-06-05T22:32:47Z</time>
      </trkpt>
      <trkpt lat="43.23646" lon="-0.82103">
        <ele>180.51</ele>
        <time>2021-06-05T22:32:50Z</time>
      </trkpt>
      <trkpt lat="43.23712" lon="-0.8204">
        <ele>176.56</ele>
        <time>2021-06-05T22:32:52Z</time>
      </trkpt>
      <trkpt lat="43.23799" lon="-0.81962">
        <ele>173.72</ele>
        <time>2021-06-05T22:32:55Z</time>
      </trkpt>
      <trkpt lat="43.23828" lon="-0.81923">
        <ele>173.34</ele>
        <time>2021-06-05T22:32:57Z</time>
      </trkpt>
      <trkpt lat="43.23911" lon="-0.81787">
        <ele>172.43</ele>
        <time>2021-06-05T22:33:00Z</time>
      </trkpt>
      <trkpt lat="43.23939" lon="-0.81747">
        <ele>174.8</ele>
        <time>2021-06-05T22:33:03Z</time>
      </trkpt>
      <trkpt lat="43.23982" lon="-0.8169">
        <ele>174.1</ele>
        <time>2021-06-05T22:33:05Z</time>
      </trkpt>
      <trkpt lat="43.24046" lon="-0.81611">
        <ele>169.05</ele>
        <time>2021-06-05T22:33:08Z</time>
      </trkpt>
      <trkpt lat="43.24054" lon="-0.81596">
        <ele>167.29</ele>
        <time>2021-06-05T22:33:10Z</time>
      </trkpt>
      <trkpt lat="43.24062" lon="-0.81577">
        <ele>167.17</ele>
        <time>2021-06-05T22:33:13Z</time>
      </trkpt>
      <trkpt lat="43.2411" lon="-0.81438">
        <ele>166.35</ele>
        <time>2021-06-05T22:33:15Z</time>
      </trkpt>
      <trkpt lat="43.24119" lon="-0.81416">
        <ele>167.92</ele>
        <time>2021-06-05T22:33:18Z</time>
      </trkpt>
      <trkpt lat="43.24138" lon="-0.81382">
        <ele>171.21</ele>
        <time>2021-06-05T22:33:21Z</time>
      </trkpt>
      <trkpt lat="43.24191" lon="-0.81306">
        <ele>179.34</ele>
        <time>2021-06-05T22:33:23Z</time>
      </trkpt>
      <trkpt lat="43.24215" lon="-0.81265">
        <ele>183.43</ele>
        <time>2021-06-05T22:33:26Z</time>
      </trkpt>
      <trkpt lat="43.24231" lon="-0.81221">
        <ele>181.26</ele>
        <time>2021-06-05T22:33:28Z</time>
      </trkpt>
      <trkpt lat="43.24262" lon="-0.81094">
        <ele>174.06</ele>
        <time>2021-06-05T22:33:31Z</time>
      </trkpt>
      <trkpt lat="43.2427" lon="-0.81068">
        <ele>174.06</ele>
        <time>2021-06-05T22:33:33Z</time>
      </trkpt>
      <trkpt lat="43.24325" lon="-0.80959">
        <ele>177.41</ele>
        <time>2021-06-05T22:33:36Z</time>
      </trkpt>
      <trkpt lat="43.24382" lon="-0.80768">
        <ele>172.41</ele>
        <time>2021-06-05T22:33:38Z</time>
      </trkpt>
      <trkpt lat="43.24396" lon="-0.80696">
        <ele>178.6</ele>
        <time>2021-06-05T22:33:41Z</time>
      </trkpt>
      <trkpt lat="43.244" lon="-0.80633">
        <ele>180.78</ele>
        <time>2021-06-05T22:33:44Z</time>
      </trkpt>
      <trkpt lat="43.24396" lon="-0.8051">
        <ele>177.09</ele>
        <time>2021-06-05T22:33:46Z</time>
      </trkpt>
      <trkpt lat="43.24407" lon="-0.80455">
        <ele>172.86</ele>
        <time>2021-06-05T22:33:49Z</time>
      </trkpt>
      <trkpt lat="43.24607" lon="-0.8009">
        <ele>174.53</ele>
        <time>2021-06-05T22:33:51Z</time>
      </trkpt>
      <trkpt lat="43.24627" lon="-0.80035">
        <ele>174.81</ele>
        <time>2021-06-05T22:33:54Z</time>
      </trkpt>
      <trkpt lat="43.24642" lon="-0.7997">
        <ele>174.18</ele>
        <time>2021-06-05T22:33:56Z</time>
      </trkpt>
      <trkpt lat="43.24649" lon="-0.79914">
        <ele>174.7</ele>
        <time>2021-06-05T22:33:59Z</time>
      </trkpt>
      <trkpt lat="43.24646" lon="-0.79853">
        <ele>175.88</ele>
        <time>2021-06-05T22:34:02Z</time>
      </trkpt>
      <trkpt lat="43.24629" lon="-0.79795">
        <ele>176.67</ele>
        <time>2021-06-05T22:34:04Z</time>
      </trkpt>
      <trkpt lat="43.24596" lon="-0.79721">
        <ele>169.05</ele>
        <time>2021-06-05T22:34:07Z</time>
      </trkpt>
      <trkpt lat="43.24471" lon="-0.79533">
        <ele>175.26</ele>
        <time>2021-06-05T22:34:09Z</time>
      </trkpt>
      <trkpt lat="43.24449" lon="-0.79485">
        <ele>173.75</ele>
        <time>2021-06-05T22:34:12Z</time>
      </trkpt>
      <trkpt lat="43.24438" lon="-0.79443">
        <ele>171.65</ele>
        <time>2021-06-05T22:34:14Z</time>
      </trkpt>
      <trkpt lat="43.2444" lon="-0.79399">
        <ele>167.13</ele>
        <time>2021-06-05T22:34:17Z</time>
      </trkpt>
      <trkpt lat="43.24445" lon="-0.7938">
        <ele>166.35</ele>
        <time>2021-06-05T22:34:20Z</time>
      </trkpt>
      <trkpt lat="43.24472" lon="-0.79352">
        <ele>169.33</ele>
        <time>2021-06-05T22:34:22Z</time>
      </trkpt>
      <trkpt lat="43.2451" lon="-0.79336">
        <ele>171.51</ele>
        <time>2021-06-05T22:34:25Z</time>
      </trkpt>
      <trkpt lat="43.24679" lon="-0.79292">
        <ele>174.84</ele>
        <time>2021-06-05T22:34:27Z</time>
      </trkpt>
      <trkpt lat="43.24736" lon="-0.79247">
        <ele>174.88</ele>
        <time>2021-06-05T22:34:30Z</time>
      </trkpt>
      <trkpt lat="43.24772" lon="-0.79193">
        <ele>171.21</ele>
        <time>2021-06-05T22:34:32Z</time>
      </trkpt>
      <trkpt lat="43.24787" lon="-0.79149">
        <ele>172.28</ele>
        <time>2021-06-05T22:34:35Z</time>
      </trkpt>
      <trkpt lat="43.24796" lon="-0.7905">
        <ele>173.48</ele>
        <time>2021-06-05T22:34:38Z</time>
      </trkpt>
      <trkpt lat="43.24793" lon="-0.78963">
        <ele>174.1</ele>
        <time>2021-06-05T22:34:40Z</time>
      </trkpt>
      <trkpt lat="43.24779" lon="-0.78854">
        <ele>168.38</ele>
        <time>2021-06-05T22:34:43Z</time>
      </trkpt>
      <trkpt lat="43.24761" lon="-0.78675">
        <ele>166.94</ele>
        <time>2021-06-05T22:34:45Z</time>
      </trkpt>
      <trkpt lat="43.24799" lon="-0.78367">
        <ele>158.18</ele>
        <time>2021-06-05T22:34:48Z</time>
      </trkpt>
      <trkpt lat="43.24811" lon="-0.78315">
        <ele>156.38</ele>
        <time>2021-06-05T22:34:50Z</time>
      </trkpt>
      <trkpt lat="43.24831" lon="-0.78279">
        <ele>158.89</ele>
        <time>2021-06-05T22:34:53Z</time>
      </trkpt>
      <trkpt lat="43.24854" lon="-0.78255">
        <ele>159.29</ele>
        <time>2021-06-05T22:34:56Z</time>
      </trkpt>
      <trkpt lat="43.24885" lon="-0.78239">
        <ele>158.26</ele>
        <time>2021-06-05T22:34:58Z</time>
      </trkpt>
      <trkpt lat="43.25138" lon="-0.78121">
        <ele>163.71</ele>
        <time>2021-06-05T22:35:01Z</time>
      </trkpt>
      <trkpt lat="43.25168" lon="-0.781">
        <ele>164.23</ele>
        <time>2021-06-05T22:35:03Z</time>
      </trkpt>
      <trkpt lat="43.25186" lon="-0.78069">
        <ele>162.34</ele>
        <time>2021-06-05T22:35:06Z</time>
      </trkpt>
      <trkpt lat="43.25225" lon="-0.77956">
        <ele>157.91</ele>
        <time>2021-06-05T22:35:08Z</time>
      </trkpt>
      <trkpt lat="43.25242" lon="-0.77916">
        <ele>157.46</ele>
        <time>2021-06-05T22:35:11Z</time>
      </trkpt>
      <trkpt lat="43.25289" lon="-0.77854">
        <ele>159.64</ele>
        <time>2021-06-05T22:35:14Z</time>
      </trkpt>
      <trkpt lat="43.25431" lon="-0.77432">
        <ele>154.73</ele>
        <time>2021-06-05T22:35:16Z</time>
      </trkpt>
      <trkpt lat="43.25437" lon="-0.77374">
        <ele>156.29</ele>
        <time>2021-06-05T22:35:19Z</time>
      </trkpt>
      <trkpt lat="43.25431" lon="-0.77316">
        <ele>162.76</ele>
        <time>2021-06-05T22:35:21Z</time>
      </trkpt>
      <trkpt lat="43.25405" lon="-0.77227">
        <ele>168.84</ele>
        <time>2021-06-05T22:35:24Z</time>
      </trkpt>
      <trkpt lat="43.25372" lon="-0.77196">
        <ele>169.21</ele>
        <time>2021-06-05T22:35:26Z</time>
      </trkpt>
      <trkpt lat="43.2529" lon="-0.77152">
        <ele>163.59</ele>
        <time>2021-06-05T22:35:29Z</time>
      </trkpt>
      <trkpt lat="43.25273" lon="-0.77142">
        <ele>162.5</ele>
        <time>2021-06-05T22:35:32Z</time>
      </trkpt>
      <trkpt lat="43.25252" lon="-0.77127">
        <ele>160.69</ele>
        <time>2021-06-05T22:35:34Z</time>
      </trkpt>
      <trkpt lat="43.25226" lon="-0.77087">
        <ele>157.85</ele>
        <time>2021-06-05T22:35:37Z</time>
      </trkpt>
      <trkpt lat="43.25198" lon="-0.77038">
        <ele>153.74</ele>
        <time>2021-06-05T22:35:39Z</time>
      </trkpt>
      <trkpt lat="43.25191" lon="-0.77018">
        <ele>154.46</ele>
        <time>2021-06-05T22:35:42Z</time>
      </trkpt>
      <trkpt lat="43.25185" lon="-0.76989">
        <ele>155.47</ele>
        <time>2021-06-05T22:35:44Z</time>
      </trkpt>
      <trkpt lat="43.25161" lon="-0.76984">
        <ele>154</ele>
        <time>2021-06-05T22:35:49Z</time>
      </trkpt>
      <trkpt lat="43.25143" lon="-0.76954">
        <ele>154.13</ele>
        <time>2021-06-05T22:35:54Z</time>
      </trkpt>
      <trkpt lat="43.2512" lon="-0.76957">
        <ele>154.32</ele>
        <time>2021-06-05T22:35:57Z</time>
      </trkpt>
      <trkpt lat="43.25115" lon="-0.76955">
        <ele>157.46</ele>
        <time>2021-06-05T22:36:00Z</time>
      </trkpt>
      <trkpt lat="43.25115" lon="-0.76955">
        <ele>157.46</ele>
        <time>2021-06-05T22:36:00Z</time>
      </trkpt>
      <trkpt lat="43.2512" lon="-0.76957">
        <ele>154.32</ele>
        <time>2021-06-05T22:36:02Z</time>
      </trkpt>
      <trkpt lat="43.25143" lon="-0.76954">
        <ele>154.13</ele>
        <time>2021-06-05T22:36:05Z</time>
      </trkpt>
      <trkpt lat="43.25144" lon="-0.76935">
        <ele>154.24</ele>
        <time>2021-06-05T22:36:09Z</time>
      </trkpt>
      <trkpt lat="43.25158" lon="-0.76896">
        <ele>155.92</ele>
        <time>2021-06-05T22:36:12Z</time>
      </trkpt>
      <trkpt lat="43.25166" lon="-0.76889">
        <ele>156.91</ele>
        <time>2021-06-05T22:36:15Z</time>
      </trkpt>
      <trkpt lat="43.2516" lon="-0.76814">
        <ele>157.45</ele>
        <time>2021-06-05T22:36:18Z</time>
      </trkpt>
      <trkpt lat="43.25136" lon="-0.76712">
        <ele>154.83</ele>
        <time>2021-06-05T22:36:21Z</time>
      </trkpt>
      <trkpt lat="43.25134" lon="-0.76681">
        <ele>154.49</ele>
        <time>2021-06-05T22:36:24Z</time>
      </trkpt>
      <trkpt lat="43.2514" lon="-0.76517">
        <ele>154.5</ele>
        <time>2021-06-05T22:36:27Z</time>
      </trkpt>
      <trkpt lat="43.25138" lon="-0.76471">
        <ele>154.88</ele>
        <time>2021-06-05T22:36:30Z</time>
      </trkpt>
      <trkpt lat="43.25106" lon="-0.76196">
        <ele>161.78</ele>
        <time>2021-06-05T22:36:33Z</time>
      </trkpt>
      <trkpt lat="43.25104" lon="-0.76128">
        <ele>158.22</ele>
        <time>2021-06-05T22:36:35Z</time>
      </trkpt>
      <trkpt lat="43.25095" lon="-0.76029">
        <ele>154.74</ele>
        <time>2021-06-05T22:36:38Z</time>
      </trkpt>
      <trkpt lat="43.2509" lon="-0.75986">
        <ele>157.22</ele>
        <time>2021-06-05T22:36:41Z</time>
      </trkpt>
      <trkpt lat="43.2507" lon="-0.7591">
        <ele>157.05</ele>
        <time>2021-06-05T22:36:44Z</time>
      </trkpt>
      <trkpt lat="43.25068" lon="-0.75885">
        <ele>156.66</ele>
        <time>2021-06-05T22:36:47Z</time>
      </trkpt>
      <trkpt lat="43.25069" lon="-0.75853">
        <ele>157.09</ele>
        <time>2021-06-05T22:36:50Z</time>
      </trkpt>
      <trkpt lat="43.25072" lon="-0.75828">
        <ele>157.78</ele>
        <time>2021-06-05T22:36:53Z</time>
      </trkpt>
      <trkpt lat="43.25103" lon="-0.75617">
        <ele>151.84</ele>
        <time>2021-06-05T22:36:56Z</time>
      </trkpt>
      <trkpt lat="43.25115" lon="-0.75588">
        <ele>149.48</ele>
        <time>2021-06-05T22:36:59Z</time>
      </trkpt>
      <trkpt lat="43.25132" lon="-0.75552">
        <ele>148.51</ele>
        <time>2021-06-05T22:37:01Z</time>
      </trkpt>
      <trkpt lat="43.25266" lon="-0.75325">
        <ele>155.14</ele>
        <time>2021-06-05T22:37:04Z</time>
      </trkpt>
      <trkpt lat="43.25273" lon="-0.75306">
        <ele>154.67</ele>
        <time>2021-06-05T22:37:07Z</time>
      </trkpt>
      <trkpt lat="43.25297" lon="-0.75201">
        <ele>156.32</ele>
        <time>2021-06-05T22:37:10Z</time>
      </trkpt>
      <trkpt lat="43.25302" lon="-0.7517">
        <ele>156.07</ele>
        <time>2021-06-05T22:37:13Z</time>
      </trkpt>
      <trkpt lat="43.25303" lon="-0.75141">
        <ele>158.15</ele>
        <time>2021-06-05T22:37:16Z</time>
      </trkpt>
      <trkpt lat="43.25302" lon="-0.75127">
        <ele>158.89</ele>
        <time>2021-06-05T22:37:19Z</time>
      </trkpt>
      <trkpt lat="43.253" lon="-0.75117">
        <ele>158.87</ele>
        <time>2021-06-05T22:37:22Z</time>
      </trkpt>
      <trkpt lat="43.25291" lon="-0.75101">
        <ele>157.68</ele>
        <time>2021-06-05T22:37:25Z</time>
      </trkpt>
      <trkpt lat="43.25282" lon="-0.75089">
        <ele>156.34</ele>
        <time>2021-06-05T22:37:28Z</time>
      </trkpt>
      <trkpt lat="43.25208" lon="-0.75032">
        <ele>155.72</ele>
        <time>2021-06-05T22:37:30Z</time>
      </trkpt>
      <trkpt lat="43.25135" lon="-0.74969">
        <ele>155.95</ele>
        <time>2021-06-05T22:37:33Z</time>
      </trkpt>
      <trkpt lat="43.25125" lon="-0.74953">
        <ele>155.85</ele>
        <time>2021-06-05T22:37:36Z</time>
      </trkpt>
      <trkpt lat="43.25119" lon="-0.74932">
        <ele>155.92</ele>
        <time>2021-06-05T22:37:39Z</time>
      </trkpt>
      <trkpt lat="43.25114" lon="-0.74886">
        <ele>155.18</ele>
        <time>2021-06-05T22:37:42Z</time>
      </trkpt>
      <trkpt lat="43.25117" lon="-0.74861">
        <ele>155.41</ele>
        <time>2021-06-05T22:37:45Z</time>
      </trkpt>
      <trkpt lat="43.25124" lon="-0.74838">
        <ele>155.56</ele>
        <time>2021-06-05T22:37:48Z</time>
      </trkpt>
      <trkpt lat="43.25136" lon="-0.74817">
        <ele>155.31</ele>
        <time>2021-06-05T22:37:51Z</time>
      </trkpt>
      <trkpt lat="43.25158" lon="-0.74789">
        <ele>153.97</ele>
        <time>2021-06-05T22:37:54Z</time>
      </trkpt>
      <trkpt lat="43.25331" lon="-0.7461">
        <ele>158.25</ele>
        <time>2021-06-05T22:37:56Z</time>
      </trkpt>
      <trkpt lat="43.25354" lon="-0.7458">
        <ele>156.04</ele>
        <time>2021-06-05T22:37:59Z</time>
      </trkpt>
      <trkpt lat="43.25385" lon="-0.74528">
        <ele>156</ele>
        <time>2021-06-05T22:38:02Z</time>
      </trkpt>
      <trkpt lat="43.25408" lon="-0.74477">
        <ele>154.87</ele>
        <time>2021-06-05T22:38:05Z</time>
      </trkpt>
      <trkpt lat="43.25428" lon="-0.74421">
        <ele>152.39</ele>
        <time>2021-06-05T22:38:08Z</time>
      </trkpt>
      <trkpt lat="43.25467" lon="-0.7429">
        <ele>151.41</ele>
        <time>2021-06-05T22:38:11Z</time>
      </trkpt>
      <trkpt lat="43.25475" lon="-0.74254">
        <ele>151.44</ele>
        <time>2021-06-05T22:38:14Z</time>
      </trkpt>
      <trkpt lat="43.25484" lon="-0.74226">
        <ele>151.92</ele>
        <time>2021-06-05T22:38:17Z</time>
      </trkpt>
      <trkpt lat="43.25497" lon="-0.74202">
        <ele>152.82</ele>
        <time>2021-06-05T22:38:20Z</time>
      </trkpt>
      <trkpt lat="43.25518" lon="-0.74177">
        <ele>153.61</ele>
        <time>2021-06-05T22:38:22Z</time>
      </trkpt>
      <trkpt lat="43.25547" lon="-0.74158">
        <ele>153.19</ele>
        <time>2021-06-05T22:38:25Z</time>
      </trkpt>
      <trkpt lat="43.25571" lon="-0.74146">
        <ele>152.16</ele>
        <time>2021-06-05T22:38:28Z</time>
      </trkpt>
      <trkpt lat="43.25641" lon="-0.74137">
        <ele>148.2</ele>
        <time>2021-06-05T22:38:31Z</time>
      </trkpt>
      <trkpt lat="43.25696" lon="-0.74136">
        <ele>151.2</ele>
        <time>2021-06-05T22:38:34Z</time>
      </trkpt>
      <trkpt lat="43.25758" lon="-0.74138">
        <ele>161.2</ele>
        <time>2021-06-05T22:38:37Z</time>
      </trkpt>
      <trkpt lat="43.25788" lon="-0.74149">
        <ele>163.37</ele>
        <time>2021-06-05T22:38:40Z</time>
      </trkpt>
      <trkpt lat="43.25907" lon="-0.74231">
        <ele>166.66</ele>
        <time>2021-06-05T22:38:43Z</time>
      </trkpt>
      <trkpt lat="43.25924" lon="-0.74248">
        <ele>166.82</ele>
        <time>2021-06-05T22:38:46Z</time>
      </trkpt>
      <trkpt lat="43.25948" lon="-0.74287">
        <ele>164.78</ele>
        <time>2021-06-05T22:38:48Z</time>
      </trkpt>
      <trkpt lat="43.25963" lon="-0.743">
        <ele>166.41</ele>
        <time>2021-06-05T22:38:51Z</time>
      </trkpt>
      <trkpt lat="43.25976" lon="-0.74301">
        <ele>168.4</ele>
        <time>2021-06-05T22:38:54Z</time>
      </trkpt>
      <trkpt lat="43.25988" lon="-0.74297">
        <ele>169.35</ele>
        <time>2021-06-05T22:38:57Z</time>
      </trkpt>
      <trkpt lat="43.25995" lon="-0.74282">
        <ele>169.05</ele>
        <time>2021-06-05T22:39:00Z</time>
      </trkpt>
      <trkpt lat="43.25997" lon="-0.74204">
        <ele>171.7</ele>
        <time>2021-06-05T22:39:03Z</time>
      </trkpt>
      <trkpt lat="43.26001" lon="-0.7418">
        <ele>172.48</ele>
        <time>2021-06-05T22:39:06Z</time>
      </trkpt>
      <trkpt lat="43.26031" lon="-0.74097">
        <ele>175.25</ele>
        <time>2021-06-05T22:39:09Z</time>
      </trkpt>
      <trkpt lat="43.26033" lon="-0.7408">
        <ele>176.78</ele>
        <time>2021-06-05T22:39:12Z</time>
      </trkpt>
      <trkpt lat="43.26032" lon="-0.74068">
        <ele>178.35</ele>
        <time>2021-06-05T22:39:14Z</time>
      </trkpt>
      <trkpt lat="43.26025" lon="-0.74055">
        <ele>180.39</ele>
        <time>2021-06-05T22:39:17Z</time>
      </trkpt>
      <trkpt lat="43.26013" lon="-0.7405">
        <ele>182.61</ele>
        <time>2021-06-05T22:39:20Z</time>
      </trkpt>
      <trkpt lat="43.26002" lon="-0.74049">
        <ele>184.02</ele>
        <time>2021-06-05T22:39:23Z</time>
      </trkpt>
      <trkpt lat="43.25982" lon="-0.74061">
        <ele>185.57</ele>
        <time>2021-06-05T22:39:26Z</time>
      </trkpt>
      <trkpt lat="43.25942" lon="-0.7411">
        <ele>185.98</ele>
        <time>2021-06-05T22:39:29Z</time>
      </trkpt>
      <trkpt lat="43.25931" lon="-0.74117">
        <ele>185.17</ele>
        <time>2021-06-05T22:39:32Z</time>
      </trkpt>
      <trkpt lat="43.2592" lon="-0.74119">
        <ele>184.6</ele>
        <time>2021-06-05T22:39:35Z</time>
      </trkpt>
      <trkpt lat="43.2591" lon="-0.74115">
        <ele>184.66</ele>
        <time>2021-06-05T22:39:38Z</time>
      </trkpt>
      <trkpt lat="43.25897" lon="-0.74098">
        <ele>186.46</ele>
        <time>2021-06-05T22:39:40Z</time>
      </trkpt>
      <trkpt lat="43.25893" lon="-0.7408">
        <ele>188.41</ele>
        <time>2021-06-05T22:39:43Z</time>
      </trkpt>
      <trkpt lat="43.25894" lon="-0.7406">
        <ele>190.57</ele>
        <time>2021-06-05T22:39:46Z</time>
      </trkpt>
      <trkpt lat="43.25979" lon="-0.73871">
        <ele>193.79</ele>
        <time>2021-06-05T22:39:49Z</time>
      </trkpt>
      <trkpt lat="43.25994" lon="-0.73832">
        <ele>194.56</ele>
        <time>2021-06-05T22:39:52Z</time>
      </trkpt>
      <trkpt lat="43.26059" lon="-0.73539">
        <ele>193.38</ele>
        <time>2021-06-05T22:39:55Z</time>
      </trkpt>
      <trkpt lat="43.26239" lon="-0.72693">
        <ele>190.93</ele>
        <time>2021-06-05T22:39:58Z</time>
      </trkpt>
      <trkpt lat="43.26257" lon="-0.72648">
        <ele>187.46</ele>
        <time>2021-06-05T22:40:01Z</time>
      </trkpt>
      <trkpt lat="43.26222" lon="-0.726">
        <ele>187.99</ele>
        <time>2021-06-05T22:40:05Z</time>
      </trkpt>
      <trkpt lat="43.26201" lon="-0.72567">
        <ele>188.16</ele>
        <time>2021-06-05T22:40:09Z</time>
      </trkpt>
      <trkpt lat="43.26178" lon="-0.72525">
        <ele>186.93</ele>
        <time>2021-06-05T22:40:13Z</time>
      </trkpt>
      <trkpt lat="43.26129" lon="-0.72409">
        <ele>190.93</ele>
        <time>2021-06-05T22:40:17Z</time>
      </trkpt>
      <trkpt lat="43.2606" lon="-0.72227">
        <ele>204.36</ele>
        <time>2021-06-05T22:40:21Z</time>
      </trkpt>
      <trkpt lat="43.2603" lon="-0.72163">
        <ele>203.13</ele>
        <time>2021-06-05T22:40:25Z</time>
      </trkpt>
      <trkpt lat="43.26009" lon="-0.72129">
        <ele>201.98</ele>
        <time>2021-06-05T22:40:29Z</time>
      </trkpt>
      <trkpt lat="43.25992" lon="-0.72105">
        <ele>199.55</ele>
        <time>2021-06-05T22:40:33Z</time>
      </trkpt>
      <trkpt lat="43.2594" lon="-0.72043">
        <ele>192.35</ele>
        <time>2021-06-05T22:40:37Z</time>
      </trkpt>
      <trkpt lat="43.25925" lon="-0.72024">
        <ele>191.74</ele>
        <time>2021-06-05T22:40:41Z</time>
      </trkpt>
      <trkpt lat="43.25902" lon="-0.71987">
        <ele>189.22</ele>
        <time>2021-06-05T22:40:45Z</time>
      </trkpt>
      <trkpt lat="43.25892" lon="-0.71968">
        <ele>186.23</ele>
        <time>2021-06-05T22:40:49Z</time>
      </trkpt>
      <trkpt lat="43.25881" lon="-0.71943">
        <ele>181.52</ele>
        <time>2021-06-05T22:40:53Z</time>
      </trkpt>
      <trkpt lat="43.25839" lon="-0.71817">
        <ele>172.98</ele>
        <time>2021-06-05T22:40:57Z</time>
      </trkpt>
      <trkpt lat="43.25798" lon="-0.71679">
        <ele>170.78</ele>
        <time>2021-06-05T22:41:01Z</time>
      </trkpt>
      <trkpt lat="43.2574" lon="-0.71496">
        <ele>170.51</ele>
        <time>2021-06-05T22:41:05Z</time>
      </trkpt>
      <trkpt lat="43.25693" lon="-0.71351">
        <ele>173.97</ele>
        <time>2021-06-05T22:41:09Z</time>
      </trkpt>
      <trkpt lat="43.25666" lon="-0.71204">
        <ele>165.06</ele>
        <time>2021-06-05T22:41:13Z</time>
      </trkpt>
      <trkpt lat="43.2566" lon="-0.71176">
        <ele>163.19</ele>
        <time>2021-06-05T22:41:18Z</time>
      </trkpt>
      <trkpt lat="43.2559" lon="-0.70977">
        <ele>168.31</ele>
        <time>2021-06-05T22:41:22Z</time>
      </trkpt>
      <trkpt lat="43.25558" lon="-0.70897">
        <ele>173.81</ele>
        <time>2021-06-05T22:41:26Z</time>
      </trkpt>
      <trkpt lat="43.25551" lon="-0.70889">
        <ele>173.66</ele>
        <time>2021-06-05T22:41:30Z</time>
      </trkpt>
      <trkpt lat="43.25547" lon="-0.70889">
        <ele>173.35</ele>
        <time>2021-06-05T22:41:34Z</time>
      </trkpt>
      <trkpt lat="43.25538" lon="-0.70884">
        <ele>172.68</ele>
        <time>2021-06-05T22:41:38Z</time>
      </trkpt>
      <trkpt lat="43.2553" lon="-0.70871">
        <ele>172.12</ele>
        <time>2021-06-05T22:41:42Z</time>
      </trkpt>
      <trkpt lat="43.25529" lon="-0.7086">
        <ele>172.05</ele>
        <time>2021-06-05T22:41:46Z</time>
      </trkpt>
      <trkpt lat="43.2553" lon="-0.7085">
        <ele>172.42</ele>
        <time>2021-06-05T22:41:50Z</time>
      </trkpt>
      <trkpt lat="43.25536" lon="-0.70836">
        <ele>172.66</ele>
        <time>2021-06-05T22:41:55Z</time>
      </trkpt>
      <trkpt lat="43.25541" lon="-0.70832">
        <ele>172.54</ele>
        <time>2021-06-05T22:41:59Z</time>
      </trkpt>
      <trkpt lat="43.25547" lon="-0.70813">
        <ele>172.81</ele>
        <time>2021-06-05T22:42:03Z</time>
      </trkpt>
      <trkpt lat="43.25552" lon="-0.70785">
        <ele>173</ele>
        <time>2021-06-05T22:42:07Z</time>
      </trkpt>
      <trkpt lat="43.25564" lon="-0.70751">
        <ele>173.01</ele>
        <time>2021-06-05T22:42:11Z</time>
      </trkpt>
      <trkpt lat="43.25581" lon="-0.70713">
        <ele>174.33</ele>
        <time>2021-06-05T22:42:15Z</time>
      </trkpt>
      <trkpt lat="43.25694" lon="-0.70439">
        <ele>176</ele>
        <time>2021-06-05T22:42:20Z</time>
      </trkpt>
      <trkpt lat="43.25727" lon="-0.70357">
        <ele>176.17</ele>
        <time>2021-06-05T22:42:24Z</time>
      </trkpt>
      <trkpt lat="43.25743" lon="-0.70299">
        <ele>177</ele>
        <time>2021-06-05T22:42:28Z</time>
      </trkpt>
      <trkpt lat="43.25752" lon="-0.70232">
        <ele>175.36</ele>
        <time>2021-06-05T22:42:32Z</time>
      </trkpt>
      <trkpt lat="43.25756" lon="-0.70161">
        <ele>174.27</ele>
        <time>2021-06-05T22:42:36Z</time>
      </trkpt>
      <trkpt lat="43.25752" lon="-0.70082">
        <ele>174.91</ele>
        <time>2021-06-05T22:42:40Z</time>
      </trkpt>
      <trkpt lat="43.25744" lon="-0.70018">
        <ele>176.2</ele>
        <time>2021-06-05T22:42:44Z</time>
      </trkpt>
      <trkpt lat="43.25721" lon="-0.69932">
        <ele>177.01</ele>
        <time>2021-06-05T22:42:49Z</time>
      </trkpt>
      <trkpt lat="43.25696" lon="-0.69867">
        <ele>177.96</ele>
        <time>2021-06-05T22:42:53Z</time>
      </trkpt>
      <trkpt lat="43.2567" lon="-0.69818">
        <ele>178.4</ele>
        <time>2021-06-05T22:42:57Z</time>
      </trkpt>
      <trkpt lat="43.25369" lon="-0.69367">
        <ele>180.58</ele>
        <time>2021-06-05T22:43:01Z</time>
      </trkpt>
      <trkpt lat="43.25342" lon="-0.69323">
        <ele>182.07</ele>
        <time>2021-06-05T22:43:05Z</time>
      </trkpt>
      <trkpt lat="43.253" lon="-0.69243">
        <ele>181.8</ele>
        <time>2021-06-05T22:43:09Z</time>
      </trkpt>
      <trkpt lat="43.25251" lon="-0.69132">
        <ele>180.05</ele>
        <time>2021-06-05T22:43:14Z</time>
      </trkpt>
      <trkpt lat="43.25178" lon="-0.68935">
        <ele>179.66</ele>
        <time>2021-06-05T22:43:18Z</time>
      </trkpt>
      <trkpt lat="43.25145" lon="-0.68848">
        <ele>181.69</ele>
        <time>2021-06-05T22:43:22Z</time>
      </trkpt>
      <trkpt lat="43.25118" lon="-0.68788">
        <ele>180.94</ele>
        <time>2021-06-05T22:43:26Z</time>
      </trkpt>
      <trkpt lat="43.25086" lon="-0.68726">
        <ele>179.14</ele>
        <time>2021-06-05T22:43:30Z</time>
      </trkpt>
      <trkpt lat="43.25055" lon="-0.68675">
        <ele>181.7</ele>
        <time>2021-06-05T22:43:34Z</time>
      </trkpt>
      <trkpt lat="43.25017" lon="-0.68621">
        <ele>181.14</ele>
        <time>2021-06-05T22:43:39Z</time>
      </trkpt>
      <trkpt lat="43.24966" lon="-0.68559">
        <ele>182.24</ele>
        <time>2021-06-05T22:43:43Z</time>
      </trkpt>
      <trkpt lat="43.24932" lon="-0.68525">
        <ele>182.41</ele>
        <time>2021-06-05T22:43:47Z</time>
      </trkpt>
      <trkpt lat="43.24884" lon="-0.68482">
        <ele>182.07</ele>
        <time>2021-06-05T22:43:51Z</time>
      </trkpt>
      <trkpt lat="43.24845" lon="-0.68452">
        <ele>181.84</ele>
        <time>2021-06-05T22:43:55Z</time>
      </trkpt>
      <trkpt lat="43.24775" lon="-0.68411">
        <ele>181.09</ele>
        <time>2021-06-05T22:43:59Z</time>
      </trkpt>
      <trkpt lat="43.24262" lon="-0.68153">
        <ele>182.83</ele>
        <time>2021-06-05T22:44:03Z</time>
      </trkpt>
      <trkpt lat="43.24215" lon="-0.68122">
        <ele>182.37</ele>
        <time>2021-06-05T22:44:08Z</time>
      </trkpt>
      <trkpt lat="43.24165" lon="-0.68086">
        <ele>181.3</ele>
        <time>2021-06-05T22:44:12Z</time>
      </trkpt>
      <trkpt lat="43.24087" lon="-0.68019">
        <ele>183.8</ele>
        <time>2021-06-05T22:44:16Z</time>
      </trkpt>
      <trkpt lat="43.24024" lon="-0.6795">
        <ele>184.54</ele>
        <time>2021-06-05T22:44:20Z</time>
      </trkpt>
      <trkpt lat="43.23972" lon="-0.67885">
        <ele>186.7</ele>
        <time>2021-06-05T22:44:24Z</time>
      </trkpt>
      <trkpt lat="43.23926" lon="-0.67816">
        <ele>187.05</ele>
        <time>2021-06-05T22:44:28Z</time>
      </trkpt>
      <trkpt lat="43.23893" lon="-0.67758">
        <ele>187.92</ele>
        <time>2021-06-05T22:44:33Z</time>
      </trkpt>
      <trkpt lat="43.2385" lon="-0.67675">
        <ele>190.34</ele>
        <time>2021-06-05T22:44:37Z</time>
      </trkpt>
      <trkpt lat="43.23822" lon="-0.67613">
        <ele>190.86</ele>
        <time>2021-06-05T22:44:41Z</time>
      </trkpt>
      <trkpt lat="43.23637" lon="-0.67096">
        <ele>175.11</ele>
        <time>2021-06-05T22:44:45Z</time>
      </trkpt>
      <trkpt lat="43.23611" lon="-0.6703">
        <ele>174.09</ele>
        <time>2021-06-05T22:44:49Z</time>
      </trkpt>
      <trkpt lat="43.2358" lon="-0.66964">
        <ele>177.36</ele>
        <time>2021-06-05T22:44:53Z</time>
      </trkpt>
      <trkpt lat="43.23537" lon="-0.66885">
        <ele>177.3</ele>
        <time>2021-06-05T22:44:58Z</time>
      </trkpt>
      <trkpt lat="43.23503" lon="-0.66828">
        <ele>176.1</ele>
        <time>2021-06-05T22:45:02Z</time>
      </trkpt>
      <trkpt lat="43.23462" lon="-0.6677">
        <ele>177.65</ele>
        <time>2021-06-05T22:45:06Z</time>
      </trkpt>
      <trkpt lat="43.2332" lon="-0.66586">
        <ele>178</ele>
        <time>2021-06-05T22:45:10Z</time>
      </trkpt>
      <trkpt lat="43.23161" lon="-0.66384">
        <ele>179</ele>
        <time>2021-06-05T22:45:14Z</time>
      </trkpt>
      <trkpt lat="43.23095" lon="-0.66311">
        <ele>178.42</ele>
        <time>2021-06-05T22:45:18Z</time>
      </trkpt>
      <trkpt lat="43.23075" lon="-0.66294">
        <ele>178.12</ele>
        <time>2021-06-05T22:45:22Z</time>
      </trkpt>
      <trkpt lat="43.23024" lon="-0.66244">
        <ele>177.87</ele>
        <time>2021-06-05T22:45:27Z</time>
      </trkpt>
      <trkpt lat="43.23011" lon="-0.66241">
        <ele>177.39</ele>
        <time>2021-06-05T22:45:31Z</time>
      </trkpt>
      <trkpt lat="43.23002" lon="-0.66245">
        <ele>177.07</ele>
        <time>2021-06-05T22:45:38Z</time>
      </trkpt>
      <trkpt lat="43.22991" lon="-0.66242">
        <ele>177.33</ele>
        <time>2021-06-05T22:45:46Z</time>
      </trkpt>
      <trkpt lat="43.22984" lon="-0.66231">
        <ele>177.58</ele>
        <time>2021-06-05T22:45:53Z</time>
      </trkpt>
      <trkpt lat="43.22981" lon="-0.66222">
        <ele>177.7</ele>
        <time>2021-06-05T22:46:00Z</time>
      </trkpt>
      <trkpt lat="43.22981" lon="-0.66209">
        <ele>177.84</ele>
        <time>2021-06-05T22:46:08Z</time>
      </trkpt>
      <trkpt lat="43.22975" lon="-0.66193">
        <ele>178.06</ele>
        <time>2021-06-05T22:46:15Z</time>
      </trkpt>
      <trkpt lat="43.22903" lon="-0.66108">
        <ele>176.54</ele>
        <time>2021-06-05T22:46:23Z</time>
      </trkpt>
      <trkpt lat="43.22881" lon="-0.66079">
        <ele>176.22</ele>
        <time>2021-06-05T22:46:30Z</time>
      </trkpt>
      <trkpt lat="43.227" lon="-0.65862">
        <ele>182.97</ele>
        <time>2021-06-05T22:46:37Z</time>
      </trkpt>
      <trkpt lat="43.22653" lon="-0.65813">
        <ele>181.87</ele>
        <time>2021-06-05T22:46:45Z</time>
      </trkpt>
      <trkpt lat="43.22601" lon="-0.65773">
        <ele>182.06</ele>
        <time>2021-06-05T22:46:52Z</time>
      </trkpt>
      <trkpt lat="43.22406" lon="-0.65657">
        <ele>182.76</ele>
        <time>2021-06-05T22:47:00Z</time>
      </trkpt>
      <trkpt lat="43.2235" lon="-0.65625">
        <ele>183.79</ele>
        <time>2021-06-05T22:47:07Z</time>
      </trkpt>
      <trkpt lat="43.22311" lon="-0.65609">
        <ele>183.78</ele>
        <time>2021-06-05T22:47:15Z</time>
      </trkpt>
      <trkpt lat="43.22269" lon="-0.65598">
        <ele>185.89</ele>
        <time>2021-06-05T22:47:22Z</time>
      </trkpt>
      <trkpt lat="43.22186" lon="-0.65589">
        <ele>187.61</ele>
        <time>2021-06-05T22:47:29Z</time>
      </trkpt>
      <trkpt lat="43.22163" lon="-0.65582">
        <ele>188.09</ele>
        <time>2021-06-05T22:47:37Z</time>
      </trkpt>
      <trkpt lat="43.22138" lon="-0.65569">
        <ele>188.5</ele>
        <time>2021-06-05T22:47:44Z</time>
      </trkpt>
      <trkpt lat="43.22111" lon="-0.65548">
        <ele>187.72</ele>
        <time>2021-06-05T22:47:52Z</time>
      </trkpt>
      <trkpt lat="43.22079" lon="-0.65514">
        <ele>184.99</ele>
        <time>2021-06-05T22:47:59Z</time>
      </trkpt>
      <trkpt lat="43.22058" lon="-0.65488">
        <ele>183.52</ele>
        <time>2021-06-05T22:48:06Z</time>
      </trkpt>
      <trkpt lat="43.21982" lon="-0.65376">
        <ele>186.45</ele>
        <time>2021-06-05T22:48:14Z</time>
      </trkpt>
      <trkpt lat="43.21722" lon="-0.65013">
        <ele>192.04</ele>
        <time>2021-06-05T22:48:21Z</time>
      </trkpt>
      <trkpt lat="43.21544" lon="-0.64756">
        <ele>199.43</ele>
        <time>2021-06-05T22:48:29Z</time>
      </trkpt>
      <trkpt lat="43.21247" lon="-0.64389">
        <ele>203.3</ele>
        <time>2021-06-05T22:48:36Z</time>
      </trkpt>
      <trkpt lat="43.21085" lon="-0.64178">
        <ele>214.74</ele>
        <time>2021-06-05T22:48:44Z</time>
      </trkpt>
      <trkpt lat="43.21027" lon="-0.64125">
        <ele>216.15</ele>
        <time>2021-06-05T22:48:51Z</time>
      </trkpt>
      <trkpt lat="43.20962" lon="-0.64079">
        <ele>218.37</ele>
        <time>2021-06-05T22:48:58Z</time>
      </trkpt>
      <trkpt lat="43.20873" lon="-0.64022">
        <ele>217.47</ele>
        <time>2021-06-05T22:49:06Z</time>
      </trkpt>
      <trkpt lat="43.20822" lon="-0.63982">
        <ele>217.27</ele>
        <time>2021-06-05T22:49:13Z</time>
      </trkpt>
      <trkpt lat="43.20762" lon="-0.63908">
        <ele>215.84</ele>
        <time>2021-06-05T22:49:21Z</time>
      </trkpt>
      <trkpt lat="43.2052" lon="-0.63537">
        <ele>222.09</ele>
        <time>2021-06-05T22:49:28Z</time>
      </trkpt>
      <trkpt lat="43.20484" lon="-0.63497">
        <ele>221.51</ele>
        <time>2021-06-05T22:49:35Z</time>
      </trkpt>
      <trkpt lat="43.20404" lon="-0.63423">
        <ele>218.12</ele>
        <time>2021-06-05T22:49:43Z</time>
      </trkpt>
      <trkpt lat="43.20378" lon="-0.63395">
        <ele>219.26</ele>
        <time>2021-06-05T22:49:50Z</time>
      </trkpt>
      <trkpt lat="43.20172" lon="-0.63082">
        <ele>219.55</ele>
        <time>2021-06-05T22:49:58Z</time>
      </trkpt>
      <trkpt lat="43.20151" lon="-0.63042">
        <ele>219.37</ele>
        <time>2021-06-05T22:50:05Z</time>
      </trkpt>
      <trkpt lat="43.20127" lon="-0.62976">
        <ele>220.39</ele>
        <time>2021-06-05T22:50:12Z</time>
      </trkpt>
      <trkpt lat="43.20092" lon="-0.62865">
        <ele>225.56</ele>
        <time>2021-06-05T22:50:20Z</time>
      </trkpt>
      <trkpt lat="43.2007" lon="-0.62815">
        <ele>230.46</ele>
        <time>2021-06-05T22:50:27Z</time>
      </trkpt>
      <trkpt lat="43.20059" lon="-0.62798">
        <ele>233.31</ele>
        <time>2021-06-05T22:50:35Z</time>
      </trkpt>
      <trkpt lat="43.20039" lon="-0.62772">
        <ele>234.83</ele>
        <time>2021-06-05T22:50:42Z</time>
      </trkpt>
      <trkpt lat="43.20009" lon="-0.62738">
        <ele>232.63</ele>
        <time>2021-06-05T22:50:50Z</time>
      </trkpt>
      <trkpt lat="43.19901" lon="-0.62624">
        <ele>229.95</ele>
        <time>2021-06-05T22:50:57Z</time>
      </trkpt>
      <trkpt lat="43.19761" lon="-0.62474">
        <ele>225.02</ele>
        <time>2021-06-05T22:51:04Z</time>
      </trkpt>
      <trkpt lat="43.19708" lon="-0.62415">
        <ele>228.49</ele>
        <time>2021-06-05T22:51:12Z</time>
      </trkpt>
      <trkpt lat="43.19513" lon="-0.62212">
        <ele>231.34</ele>
        <time>2021-06-05T22:51:19Z</time>
      </trkpt>
      <trkpt lat="43.19201" lon="-0.61891">
        <ele>228.85</ele>
        <time>2021-06-05T22:51:27Z</time>
      </trkpt>
      <trkpt lat="43.19188" lon="-0.6189">
        <ele>229.71</ele>
        <time>2021-06-05T22:51:34Z</time>
      </trkpt>
      <trkpt lat="43.19174" lon="-0.61897">
        <ele>231.31</ele>
        <time>2021-06-05T22:51:41Z</time>
      </trkpt>
      <trkpt lat="43.19166" lon="-0.61902">
        <ele>232.04</ele>
        <time>2021-06-05T22:51:42Z</time>
      </trkpt>
      <trkpt lat="43.19162" lon="-0.61901">
        <ele>232.19</ele>
        <time>2021-06-05T22:51:43Z</time>
      </trkpt>
      <trkpt lat="43.19155" lon="-0.61895">
        <ele>232.43</ele>
        <time>2021-06-05T22:51:44Z</time>
      </trkpt>
      <trkpt lat="43.19152" lon="-0.61883">
        <ele>232.43</ele>
        <time>2021-06-05T22:51:45Z</time>
      </trkpt>
      <trkpt lat="43.19153" lon="-0.61876">
        <ele>232.26</ele>
        <time>2021-06-05T22:51:46Z</time>
      </trkpt>
      <trkpt lat="43.19153" lon="-0.61854">
        <ele>232.11</ele>
        <time>2021-06-05T22:51:47Z</time>
      </trkpt>
      <trkpt lat="43.19142" lon="-0.61832">
        <ele>232.83</ele>
        <time>2021-06-05T22:51:50Z</time>
      </trkpt>
      <trkpt lat="43.19124" lon="-0.61814">
        <ele>232.14</ele>
        <time>2021-06-05T22:51:53Z</time>
      </trkpt>
      <trkpt lat="43.19059" lon="-0.6176">
        <ele>233.87</ele>
        <time>2021-06-05T22:51:56Z</time>
      </trkpt>
      <trkpt lat="43.19049" lon="-0.61756">
        <ele>234</ele>
        <time>2021-06-05T22:51:59Z</time>
      </trkpt>
      <trkpt lat="43.1904" lon="-0.61755">
        <ele>234</ele>
        <time>2021-06-05T22:52:02Z</time>
      </trkpt>
      <trkpt lat="43.19033" lon="-0.61757">
        <ele>234</ele>
        <time>2021-06-05T22:52:06Z</time>
      </trkpt>
      <trkpt lat="43.19028" lon="-0.61755">
        <ele>234</ele>
        <time>2021-06-05T22:52:10Z</time>
      </trkpt>
      <trkpt lat="43.19025" lon="-0.6175">
        <ele>234.01</ele>
        <time>2021-06-05T22:52:14Z</time>
      </trkpt>
      <trkpt lat="43.19024" lon="-0.61742">
        <ele>234.31</ele>
        <time>2021-06-05T22:52:18Z</time>
      </trkpt>
      <trkpt lat="43.19027" lon="-0.61734">
        <ele>234.57</ele>
        <time>2021-06-05T22:52:21Z</time>
      </trkpt>
      <trkpt lat="43.19031" lon="-0.61731">
        <ele>234.59</ele>
        <time>2021-06-05T22:52:25Z</time>
      </trkpt>
      <trkpt lat="43.19039" lon="-0.61702">
        <ele>234.32</ele>
        <time>2021-06-05T22:52:29Z</time>
      </trkpt>
      <trkpt lat="43.19054" lon="-0.61659">
        <ele>234.05</ele>
        <time>2021-06-05T22:52:33Z</time>
      </trkpt>
      <trkpt lat="43.1914" lon="-0.61451">
        <ele>225.39</ele>
        <time>2021-06-05T22:52:37Z</time>
      </trkpt>
      <trkpt lat="43.19151" lon="-0.61427">
        <ele>223.49</ele>
        <time>2021-06-05T22:52:40Z</time>
      </trkpt>
      <trkpt lat="43.19185" lon="-0.61377">
        <ele>222.77</ele>
        <time>2021-06-05T22:52:44Z</time>
      </trkpt>
      <trkpt lat="43.19216" lon="-0.61344">
        <ele>223</ele>
        <time>2021-06-05T22:52:48Z</time>
      </trkpt>
      <trkpt lat="43.19244" lon="-0.6132">
        <ele>223.48</ele>
        <time>2021-06-05T22:52:52Z</time>
      </trkpt>
      <trkpt lat="43.1925" lon="-0.61307">
        <ele>223.94</ele>
        <time>2021-06-05T22:52:56Z</time>
      </trkpt>
      <trkpt lat="43.19249" lon="-0.61295">
        <ele>224.01</ele>
        <time>2021-06-05T22:52:58Z</time>
      </trkpt>
      <trkpt lat="43.19252" lon="-0.61291">
        <ele>223.93</ele>
        <time>2021-06-05T22:53:01Z</time>
      </trkpt>
      <trkpt lat="43.19256" lon="-0.61289">
        <ele>223.79</ele>
        <time>2021-06-05T22:53:04Z</time>
      </trkpt>
      <trkpt lat="43.1926" lon="-0.6129">
        <ele>223.65</ele>
        <time>2021-06-05T22:53:07Z</time>
      </trkpt>
      <trkpt lat="43.19264" lon="-0.61295">
        <ele>223.49</ele>
        <time>2021-06-05T22:53:09Z</time>
      </trkpt>
      <trkpt lat="43.19302" lon="-0.61271">
        <ele>223.24</ele>
        <time>2021-06-05T22:53:12Z</time>
      </trkpt>
      <trkpt lat="43.19347" lon="-0.61233">
        <ele>223.31</ele>
        <time>2021-06-05T22:53:15Z</time>
      </trkpt>
      <trkpt lat="43.19394" lon="-0.61196">
        <ele>223.17</ele>
        <time>2021-06-05T22:53:18Z</time>
      </trkpt>
      <trkpt lat="43.19408" lon="-0.61177">
        <ele>223.26</ele>
        <time>2021-06-05T22:53:20Z</time>
      </trkpt>
      <trkpt lat="43.19408" lon="-0.61169">
        <ele>223.07</ele>
        <time>2021-06-05T22:53:27Z</time>
      </trkpt>
      <trkpt lat="43.19411" lon="-0.61162">
        <ele>222.96</ele>
        <time>2021-06-05T22:53:33Z</time>
      </trkpt>
      <trkpt lat="43.19415" lon="-0.61156">
        <ele>222.97</ele>
        <time>2021-06-05T22:53:40Z</time>
      </trkpt>
      <trkpt lat="43.19267" lon="-0.61013">
        <ele>223.18</ele>
        <time>2021-06-05T22:53:46Z</time>
      </trkpt>
      <trkpt lat="43.19265" lon="-0.61157">
        <ele>223.4</ele>
        <time>2021-06-05T22:54:10Z</time>
      </trkpt>
      <trkpt lat="43.19265" lon="-0.61157">
        <ele>223.4</ele>
        <time>2021-06-05T22:54:10Z</time>
      </trkpt>
      <trkpt lat="43.19264" lon="-0.61274">
        <ele>223.63</ele>
        <time>2021-06-05T22:54:21Z</time>
      </trkpt>
      <trkpt lat="43.1926" lon="-0.6129">
        <ele>223.65</ele>
        <time>2021-06-05T22:54:33Z</time>
      </trkpt>
      <trkpt lat="43.19264" lon="-0.61295">
        <ele>223.49</ele>
        <time>2021-06-05T22:54:37Z</time>
      </trkpt>
      <trkpt lat="43.19265" lon="-0.613">
        <ele>223.44</ele>
        <time>2021-06-05T22:54:41Z</time>
      </trkpt>
      <trkpt lat="43.19265" lon="-0.61305">
        <ele>223.46</ele>
        <time>2021-06-05T22:54:46Z</time>
      </trkpt>
      <trkpt lat="43.19262" lon="-0.6131">
        <ele>223.4</ele>
        <time>2021-06-05T22:54:50Z</time>
      </trkpt>
      <trkpt lat="43.19255" lon="-0.61312">
        <ele>223.59</ele>
        <time>2021-06-05T22:54:54Z</time>
      </trkpt>
      <trkpt lat="43.19249" lon="-0.61305">
        <ele>224</ele>
        <time>2021-06-05T22:54:59Z</time>
      </trkpt>
      <trkpt lat="43.19239" lon="-0.61301">
        <ele>224.07</ele>
        <time>2021-06-05T22:55:03Z</time>
      </trkpt>
      <trkpt lat="43.19233" lon="-0.61301">
        <ele>224.1</ele>
        <time>2021-06-05T22:55:07Z</time>
      </trkpt>
      <trkpt lat="43.19196" lon="-0.613">
        <ele>224.18</ele>
        <time>2021-06-05T22:55:12Z</time>
      </trkpt>
      <trkpt lat="43.19181" lon="-0.61297">
        <ele>225.25</ele>
        <time>2021-06-05T22:55:16Z</time>
      </trkpt>
      <trkpt lat="43.19172" lon="-0.61302">
        <ele>225.76</ele>
        <time>2021-06-05T22:55:20Z</time>
      </trkpt>
      <trkpt lat="43.19157" lon="-0.61303">
        <ele>226.42</ele>
        <time>2021-06-05T22:55:25Z</time>
      </trkpt>
      <trkpt lat="43.19123" lon="-0.61296">
        <ele>226.42</ele>
        <time>2021-06-05T22:55:29Z</time>
      </trkpt>
      <trkpt lat="43.19106" lon="-0.61289">
        <ele>225.8</ele>
        <time>2021-06-05T22:55:34Z</time>
      </trkpt>
      <trkpt lat="43.19078" lon="-0.61281">
        <ele>224.95</ele>
        <time>2021-06-05T22:55:38Z</time>
      </trkpt>
      <trkpt lat="43.19055" lon="-0.61267">
        <ele>225</ele>
        <time>2021-06-05T22:55:42Z</time>
      </trkpt>
      <trkpt lat="43.19043" lon="-0.61256">
        <ele>225.26</ele>
        <time>2021-06-05T22:55:47Z</time>
      </trkpt>
      <trkpt lat="43.19012" lon="-0.61217">
        <ele>226</ele>
        <time>2021-06-05T22:55:51Z</time>
      </trkpt>
      <trkpt lat="43.19002" lon="-0.612">
        <ele>226</ele>
        <time>2021-06-05T22:55:55Z</time>
      </trkpt>
      <trkpt lat="43.18985" lon="-0.61182">
        <ele>225</ele>
        <time>2021-06-05T22:56:00Z</time>
      </trkpt>
      <trkpt lat="43.18972" lon="-0.61174">
        <ele>224.27</ele>
        <time>2021-06-05T22:56:04Z</time>
      </trkpt>
      <trkpt lat="43.18942" lon="-0.6116">
        <ele>220.33</ele>
        <time>2021-06-05T22:56:08Z</time>
      </trkpt>
      <trkpt lat="43.18891" lon="-0.61132">
        <ele>218.73</ele>
        <time>2021-06-05T22:56:13Z</time>
      </trkpt>
      <trkpt lat="43.18862" lon="-0.6112">
        <ele>218.62</ele>
        <time>2021-06-05T22:56:17Z</time>
      </trkpt>
      <trkpt lat="43.18838" lon="-0.61107">
        <ele>219.23</ele>
        <time>2021-06-05T22:56:21Z</time>
      </trkpt>
      <trkpt lat="43.18821" lon="-0.61095">
        <ele>218.93</ele>
        <time>2021-06-05T22:56:26Z</time>
      </trkpt>
      <trkpt lat="43.18708" lon="-0.61005">
        <ele>217.88</ele>
        <time>2021-06-05T22:56:30Z</time>
      </trkpt>
      <trkpt lat="43.18703" lon="-0.6099">
        <ele>217.77</ele>
        <time>2021-06-05T22:56:35Z</time>
      </trkpt>
      <trkpt lat="43.18654" lon="-0.60939">
        <ele>217.92</ele>
        <time>2021-06-05T22:56:39Z</time>
      </trkpt>
      <trkpt lat="43.18635" lon="-0.60926">
        <ele>217.45</ele>
        <time>2021-06-05T22:56:43Z</time>
      </trkpt>
      <trkpt lat="43.18572" lon="-0.60908">
        <ele>214.47</ele>
        <time>2021-06-05T22:56:48Z</time>
      </trkpt>
      <trkpt lat="43.18549" lon="-0.60899">
        <ele>215.19</ele>
        <time>2021-06-05T22:56:52Z</time>
      </trkpt>
      <trkpt lat="43.18523" lon="-0.60886">
        <ele>217.46</ele>
        <time>2021-06-05T22:56:57Z</time>
      </trkpt>
      <trkpt lat="43.1843" lon="-0.60816">
        <ele>217.86</ele>
        <time>2021-06-05T22:57:01Z</time>
      </trkpt>
      <trkpt lat="43.1843" lon="-0.60808">
        <ele>218.01</ele>
        <time>2021-06-05T22:57:06Z</time>
      </trkpt>
      <trkpt lat="43.18439" lon="-0.60784">
        <ele>218.02</ele>
        <time>2021-06-05T22:57:10Z</time>
      </trkpt>
      <trkpt lat="43.18438" lon="-0.60781">
        <ele>218.13</ele>
        <time>2021-06-05T22:57:15Z</time>
      </trkpt>
      <trkpt lat="43.18409" lon="-0.60741">
        <ele>219.39</ele>
        <time>2021-06-05T22:57:19Z</time>
      </trkpt>
      <trkpt lat="43.18393" lon="-0.60703">
        <ele>218.72</ele>
        <time>2021-06-05T22:57:24Z</time>
      </trkpt>
      <trkpt lat="43.184" lon="-0.60672">
        <ele>220.63</ele>
        <time>2021-06-05T22:57:28Z</time>
      </trkpt>
      <trkpt lat="43.18379" lon="-0.60661">
        <ele>221.2</ele>
        <time>2021-06-05T22:57:36Z</time>
      </trkpt>
      <trkpt lat="43.18276" lon="-0.60617">
        <ele>220.58</ele>
        <time>2021-06-05T22:57:45Z</time>
      </trkpt>
      <trkpt lat="43.18226" lon="-0.60585">
        <ele>221.89</ele>
        <time>2021-06-05T22:57:53Z</time>
      </trkpt>
      <trkpt lat="43.18156" lon="-0.60556">
        <ele>222.71</ele>
        <time>2021-06-05T22:58:01Z</time>
      </trkpt>
      <trkpt lat="43.18013" lon="-0.60429">
        <ele>223.87</ele>
        <time>2021-06-05T22:58:09Z</time>
      </trkpt>
      <trkpt lat="43.17882" lon="-0.60228">
        <ele>232.75</ele>
        <time>2021-06-05T22:58:17Z</time>
      </trkpt>
      <trkpt lat="43.17875" lon="-0.60225">
        <ele>232.23</ele>
        <time>2021-06-05T22:58:25Z</time>
      </trkpt>
      <trkpt lat="43.1785" lon="-0.60226">
        <ele>230.4</ele>
        <time>2021-06-05T22:58:34Z</time>
      </trkpt>
      <trkpt lat="43.17843" lon="-0.60229">
        <ele>230.01</ele>
        <time>2021-06-05T22:58:42Z</time>
      </trkpt>
      <trkpt lat="43.1781" lon="-0.60171">
        <ele>232.96</ele>
        <time>2021-06-05T22:58:48Z</time>
      </trkpt>
      <trkpt lat="43.17799" lon="-0.60148">
        <ele>234.1</ele>
        <time>2021-06-05T22:58:53Z</time>
      </trkpt>
      <trkpt lat="43.17785" lon="-0.6011">
        <ele>235.29</ele>
        <time>2021-06-05T22:58:59Z</time>
      </trkpt>
      <trkpt lat="43.17743" lon="-0.60015">
        <ele>242.62</ele>
        <time>2021-06-05T22:59:05Z</time>
      </trkpt>
      <trkpt lat="43.17647" lon="-0.59927">
        <ele>242.97</ele>
        <time>2021-06-05T22:59:11Z</time>
      </trkpt>
      <trkpt lat="43.17443" lon="-0.5975">
        <ele>257.57</ele>
        <time>2021-06-05T22:59:17Z</time>
      </trkpt>
      <trkpt lat="43.17382" lon="-0.59708">
        <ele>249.44</ele>
        <time>2021-06-05T22:59:23Z</time>
      </trkpt>
      <trkpt lat="43.17358" lon="-0.59699">
        <ele>252.78</ele>
        <time>2021-06-05T22:59:28Z</time>
      </trkpt>
      <trkpt lat="43.17303" lon="-0.59695">
        <ele>251.32</ele>
        <time>2021-06-05T22:59:34Z</time>
      </trkpt>
      <trkpt lat="43.17279" lon="-0.59684">
        <ele>247.15</ele>
        <time>2021-06-05T22:59:40Z</time>
      </trkpt>
      <trkpt lat="43.17186" lon="-0.59622">
        <ele>238.34</ele>
        <time>2021-06-05T22:59:46Z</time>
      </trkpt>
      <trkpt lat="43.17119" lon="-0.5955">
        <ele>239.33</ele>
        <time>2021-06-05T22:59:52Z</time>
      </trkpt>
      <trkpt lat="43.17067" lon="-0.59529">
        <ele>233.54</ele>
        <time>2021-06-05T22:59:58Z</time>
      </trkpt>
      <trkpt lat="43.17026" lon="-0.59515">
        <ele>228.92</ele>
        <time>2021-06-05T23:00:03Z</time>
      </trkpt>
      <trkpt lat="43.16991" lon="-0.59499">
        <ele>228.36</ele>
        <time>2021-06-05T23:00:09Z</time>
      </trkpt>
      <trkpt lat="43.16965" lon="-0.59478">
        <ele>228.49</ele>
        <time>2021-06-05T23:00:15Z</time>
      </trkpt>
      <trkpt lat="43.16825" lon="-0.59325">
        <ele>229.81</ele>
        <time>2021-06-05T23:00:21Z</time>
      </trkpt>
      <trkpt lat="43.1679" lon="-0.59277">
        <ele>231.02</ele>
        <time>2021-06-05T23:00:27Z</time>
      </trkpt>
      <trkpt lat="43.1674" lon="-0.59213">
        <ele>233.63</ele>
        <time>2021-06-05T23:00:32Z</time>
      </trkpt>
      <trkpt lat="43.16715" lon="-0.59184">
        <ele>233.1</ele>
        <time>2021-06-05T23:00:38Z</time>
      </trkpt>
      <trkpt lat="43.16688" lon="-0.59162">
        <ele>233</ele>
        <time>2021-06-05T23:00:44Z</time>
      </trkpt>
      <trkpt lat="43.16675" lon="-0.59155">
        <ele>233</ele>
        <time>2021-06-05T23:00:50Z</time>
      </trkpt>
      <trkpt lat="43.1658" lon="-0.59133">
        <ele>234</ele>
        <time>2021-06-05T23:00:56Z</time>
      </trkpt>
      <trkpt lat="43.16538" lon="-0.5913">
        <ele>233.58</ele>
        <time>2021-06-05T23:01:02Z</time>
      </trkpt>
      <trkpt lat="43.16512" lon="-0.59122">
        <ele>233.6</ele>
        <time>2021-06-05T23:01:07Z</time>
      </trkpt>
      <trkpt lat="43.16402" lon="-0.59072">
        <ele>236.36</ele>
        <time>2021-06-05T23:01:13Z</time>
      </trkpt>
      <trkpt lat="43.16373" lon="-0.5907">
        <ele>237.54</ele>
        <time>2021-06-05T23:01:19Z</time>
      </trkpt>
      <trkpt lat="43.16326" lon="-0.59081">
        <ele>235.69</ele>
        <time>2021-06-05T23:01:25Z</time>
      </trkpt>
      <trkpt lat="43.16251" lon="-0.59075">
        <ele>237.52</ele>
        <time>2021-06-05T23:01:31Z</time>
      </trkpt>
      <trkpt lat="43.16195" lon="-0.59061">
        <ele>238.38</ele>
        <time>2021-06-05T23:01:37Z</time>
      </trkpt>
      <trkpt lat="43.16125" lon="-0.59015">
        <ele>244.06</ele>
        <time>2021-06-05T23:01:42Z</time>
      </trkpt>
      <trkpt lat="43.15897" lon="-0.58807">
        <ele>251.29</ele>
        <time>2021-06-05T23:01:48Z</time>
      </trkpt>
      <trkpt lat="43.15887" lon="-0.588">
        <ele>251.7</ele>
        <time>2021-06-05T23:01:54Z</time>
      </trkpt>
      <trkpt lat="43.15845" lon="-0.58781">
        <ele>251.37</ele>
        <time>2021-06-05T23:01:59Z</time>
      </trkpt>
      <trkpt lat="43.15768" lon="-0.58756">
        <ele>257.88</ele>
        <time>2021-06-05T23:02:05Z</time>
      </trkpt>
      <trkpt lat="43.1568" lon="-0.5875">
        <ele>255.64</ele>
        <time>2021-06-05T23:02:11Z</time>
      </trkpt>
      <trkpt lat="43.15658" lon="-0.58745">
        <ele>259.18</ele>
        <time>2021-06-05T23:02:16Z</time>
      </trkpt>
      <trkpt lat="43.15627" lon="-0.5873">
        <ele>264.83</ele>
        <time>2021-06-05T23:02:22Z</time>
      </trkpt>
      <trkpt lat="43.15572" lon="-0.58713">
        <ele>268.87</ele>
        <time>2021-06-05T23:02:27Z</time>
      </trkpt>
      <trkpt lat="43.15432" lon="-0.58683">
        <ele>264.54</ele>
        <time>2021-06-05T23:02:33Z</time>
      </trkpt>
      <trkpt lat="43.15114" lon="-0.5865">
        <ele>267.91</ele>
        <time>2021-06-05T23:02:38Z</time>
      </trkpt>
      <trkpt lat="43.15071" lon="-0.58661">
        <ele>265.59</ele>
        <time>2021-06-05T23:02:44Z</time>
      </trkpt>
      <trkpt lat="43.15055" lon="-0.58668">
        <ele>265.63</ele>
        <time>2021-06-05T23:02:50Z</time>
      </trkpt>
      <trkpt lat="43.14987" lon="-0.58709">
        <ele>260.7</ele>
        <time>2021-06-05T23:02:55Z</time>
      </trkpt>
      <trkpt lat="43.14941" lon="-0.58741">
        <ele>253.49</ele>
        <time>2021-06-05T23:03:01Z</time>
      </trkpt>
      <trkpt lat="43.14899" lon="-0.58766">
        <ele>253.3</ele>
        <time>2021-06-05T23:03:06Z</time>
      </trkpt>
      <trkpt lat="43.1478" lon="-0.5881">
        <ele>250.53</ele>
        <time>2021-06-05T23:03:12Z</time>
      </trkpt>
      <trkpt lat="43.14735" lon="-0.58849">
        <ele>246.99</ele>
        <time>2021-06-05T23:03:17Z</time>
      </trkpt>
      <trkpt lat="43.14697" lon="-0.58887">
        <ele>247</ele>
        <time>2021-06-05T23:03:23Z</time>
      </trkpt>
      <trkpt lat="43.14576" lon="-0.58988">
        <ele>252.43</ele>
        <time>2021-06-05T23:03:29Z</time>
      </trkpt>
      <trkpt lat="43.14518" lon="-0.59024">
        <ele>253.35</ele>
        <time>2021-06-05T23:03:34Z</time>
      </trkpt>
      <trkpt lat="43.14455" lon="-0.5906">
        <ele>254.54</ele>
        <time>2021-06-05T23:03:40Z</time>
      </trkpt>
      <trkpt lat="43.14392" lon="-0.59086">
        <ele>254.88</ele>
        <time>2021-06-05T23:03:45Z</time>
      </trkpt>
      <trkpt lat="43.14304" lon="-0.59116">
        <ele>257.21</ele>
        <time>2021-06-05T23:03:51Z</time>
      </trkpt>
      <trkpt lat="43.14294" lon="-0.59123">
        <ele>257.65</ele>
        <time>2021-06-05T23:03:56Z</time>
      </trkpt>
      <trkpt lat="43.14251" lon="-0.59166">
        <ele>258</ele>
        <time>2021-06-05T23:04:02Z</time>
      </trkpt>
      <trkpt lat="43.14239" lon="-0.59171">
        <ele>258</ele>
        <time>2021-06-05T23:04:08Z</time>
      </trkpt>
      <trkpt lat="43.14123" lon="-0.59199">
        <ele>259.19</ele>
        <time>2021-06-05T23:04:13Z</time>
      </trkpt>
      <trkpt lat="43.14074" lon="-0.59218">
        <ele>260.65</ele>
        <time>2021-06-05T23:04:19Z</time>
      </trkpt>
      <trkpt lat="43.14037" lon="-0.59219">
        <ele>262.73</ele>
        <time>2021-06-05T23:04:24Z</time>
      </trkpt>
      <trkpt lat="43.14025" lon="-0.59222">
        <ele>263.02</ele>
        <time>2021-06-05T23:04:30Z</time>
      </trkpt>
      <trkpt lat="43.13963" lon="-0.59263">
        <ele>262.04</ele>
        <time>2021-06-05T23:04:35Z</time>
      </trkpt>
      <trkpt lat="43.13923" lon="-0.59294">
        <ele>261.15</ele>
        <time>2021-06-05T23:04:41Z</time>
      </trkpt>
      <trkpt lat="43.13839" lon="-0.5935">
        <ele>262.6</ele>
        <time>2021-06-05T23:04:47Z</time>
      </trkpt>
      <trkpt lat="43.13755" lon="-0.59405">
        <ele>262.59</ele>
        <time>2021-06-05T23:04:52Z</time>
      </trkpt>
      <trkpt lat="43.13706" lon="-0.59431">
        <ele>262.77</ele>
        <time>2021-06-05T23:04:58Z</time>
      </trkpt>
      <trkpt lat="43.13656" lon="-0.59457">
        <ele>265.61</ele>
        <time>2021-06-05T23:05:03Z</time>
      </trkpt>
      <trkpt lat="43.13563" lon="-0.59494">
        <ele>266</ele>
        <time>2021-06-05T23:05:09Z</time>
      </trkpt>
      <trkpt lat="43.13545" lon="-0.59498">
        <ele>265.64</ele>
        <time>2021-06-05T23:05:14Z</time>
      </trkpt>
      <trkpt lat="43.13527" lon="-0.59497">
        <ele>265.08</ele>
        <time>2021-06-05T23:05:20Z</time>
      </trkpt>
      <trkpt lat="43.13527" lon="-0.59501">
        <ele>264.98</ele>
        <time>2021-06-05T23:05:24Z</time>
      </trkpt>
      <trkpt lat="43.13523" lon="-0.59519">
        <ele>264.82</ele>
        <time>2021-06-05T23:05:27Z</time>
      </trkpt>
      <trkpt lat="43.13503" lon="-0.59537">
        <ele>263.45</ele>
        <time>2021-06-05T23:05:31Z</time>
      </trkpt>
      <trkpt lat="43.13476" lon="-0.5955">
        <ele>262.92</ele>
        <time>2021-06-05T23:05:35Z</time>
      </trkpt>
      <trkpt lat="43.13343" lon="-0.59581">
        <ele>263.82</ele>
        <time>2021-06-05T23:05:39Z</time>
      </trkpt>
      <trkpt lat="43.1322" lon="-0.59614">
        <ele>265.84</ele>
        <time>2021-06-05T23:05:42Z</time>
      </trkpt>
      <trkpt lat="43.13189" lon="-0.59626">
        <ele>266.94</ele>
        <time>2021-06-05T23:05:46Z</time>
      </trkpt>
      <trkpt lat="43.12822" lon="-0.59793">
        <ele>280.7</ele>
        <time>2021-06-05T23:05:50Z</time>
      </trkpt>
      <trkpt lat="43.12807" lon="-0.59805">
        <ele>280.99</ele>
        <time>2021-06-05T23:05:53Z</time>
      </trkpt>
      <trkpt lat="43.1279" lon="-0.59825">
        <ele>285.36</ele>
        <time>2021-06-05T23:05:57Z</time>
      </trkpt>
      <trkpt lat="43.12758" lon="-0.5988">
        <ele>272.66</ele>
        <time>2021-06-05T23:06:01Z</time>
      </trkpt>
      <trkpt lat="43.12745" lon="-0.59894">
        <ele>270.41</ele>
        <time>2021-06-05T23:06:04Z</time>
      </trkpt>
      <trkpt lat="43.1273" lon="-0.59903">
        <ele>273.25</ele>
        <time>2021-06-05T23:06:08Z</time>
      </trkpt>
      <trkpt lat="43.1269" lon="-0.59925">
        <ele>278.63</ele>
        <time>2021-06-05T23:06:12Z</time>
      </trkpt>
      <trkpt lat="43.12649" lon="-0.59939">
        <ele>277.82</ele>
        <time>2021-06-05T23:06:16Z</time>
      </trkpt>
      <trkpt lat="43.1262" lon="-0.59954">
        <ele>275.07</ele>
        <time>2021-06-05T23:06:19Z</time>
      </trkpt>
      <trkpt lat="43.12589" lon="-0.59958">
        <ele>276.11</ele>
        <time>2021-06-05T23:06:23Z</time>
      </trkpt>
      <trkpt lat="43.12502" lon="-0.59957">
        <ele>285.04</ele>
        <time>2021-06-05T23:06:27Z</time>
      </trkpt>
      <trkpt lat="43.12478" lon="-0.59962">
        <ele>288.63</ele>
        <time>2021-06-05T23:06:30Z</time>
      </trkpt>
      <trkpt lat="43.12335" lon="-0.6003">
        <ele>282.03</ele>
        <time>2021-06-05T23:06:34Z</time>
      </trkpt>
      <trkpt lat="43.12306" lon="-0.60055">
        <ele>282.12</ele>
        <time>2021-06-05T23:06:38Z</time>
      </trkpt>
      <trkpt lat="43.12208" lon="-0.60152">
        <ele>282.04</ele>
        <time>2021-06-05T23:06:41Z</time>
      </trkpt>
      <trkpt lat="43.12186" lon="-0.60162">
        <ele>281.63</ele>
        <time>2021-06-05T23:06:45Z</time>
      </trkpt>
      <trkpt lat="43.12053" lon="-0.60209">
        <ele>287.6</ele>
        <time>2021-06-05T23:06:49Z</time>
      </trkpt>
      <trkpt lat="43.12028" lon="-0.60222">
        <ele>287</ele>
        <time>2021-06-05T23:06:53Z</time>
      </trkpt>
      <trkpt lat="43.11992" lon="-0.60245">
        <ele>288.96</ele>
        <time>2021-06-05T23:06:56Z</time>
      </trkpt>
      <trkpt lat="43.11937" lon="-0.60287">
        <ele>286.29</ele>
        <time>2021-06-05T23:07:00Z</time>
      </trkpt>
      <trkpt lat="43.11794" lon="-0.60421">
        <ele>289.77</ele>
        <time>2021-06-05T23:07:04Z</time>
      </trkpt>
      <trkpt lat="43.11734" lon="-0.60466">
        <ele>292.45</ele>
        <time>2021-06-05T23:07:07Z</time>
      </trkpt>
      <trkpt lat="43.1166" lon="-0.60519">
        <ele>292.7</ele>
        <time>2021-06-05T23:07:11Z</time>
      </trkpt>
      <trkpt lat="43.11647" lon="-0.60524">
        <ele>293.48</ele>
        <time>2021-06-05T23:07:15Z</time>
      </trkpt>
      <trkpt lat="43.11626" lon="-0.60526">
        <ele>294.87</ele>
        <time>2021-06-05T23:07:18Z</time>
      </trkpt>
      <trkpt lat="43.11608" lon="-0.60523">
        <ele>295.85</ele>
        <time>2021-06-05T23:07:22Z</time>
      </trkpt>
      <trkpt lat="43.11595" lon="-0.60525">
        <ele>295.96</ele>
        <time>2021-06-05T23:07:26Z</time>
      </trkpt>
      <trkpt lat="43.11562" lon="-0.60544">
        <ele>295.55</ele>
        <time>2021-06-05T23:07:30Z</time>
      </trkpt>
      <trkpt lat="43.1155" lon="-0.60559">
        <ele>295.18</ele>
        <time>2021-06-05T23:07:33Z</time>
      </trkpt>
      <trkpt lat="43.11513" lon="-0.60622">
        <ele>294.46</ele>
        <time>2021-06-05T23:07:37Z</time>
      </trkpt>
      <trkpt lat="43.11494" lon="-0.60646">
        <ele>294.43</ele>
        <time>2021-06-05T23:07:41Z</time>
      </trkpt>
      <trkpt lat="43.11405" lon="-0.60699">
        <ele>295.67</ele>
        <time>2021-06-05T23:07:44Z</time>
      </trkpt>
      <trkpt lat="43.11385" lon="-0.60709">
        <ele>295</ele>
        <time>2021-06-05T23:07:48Z</time>
      </trkpt>
      <trkpt lat="43.11343" lon="-0.60711">
        <ele>296.69</ele>
        <time>2021-06-05T23:07:52Z</time>
      </trkpt>
      <trkpt lat="43.11287" lon="-0.60703">
        <ele>298.48</ele>
        <time>2021-06-05T23:07:56Z</time>
      </trkpt>
      <trkpt lat="43.11276" lon="-0.6071">
        <ele>298.08</ele>
        <time>2021-06-05T23:07:59Z</time>
      </trkpt>
      <trkpt lat="43.11264" lon="-0.60727">
        <ele>298.43</ele>
        <time>2021-06-05T23:08:03Z</time>
      </trkpt>
      <trkpt lat="43.11255" lon="-0.60755">
        <ele>298.65</ele>
        <time>2021-06-05T23:08:07Z</time>
      </trkpt>
      <trkpt lat="43.11254" lon="-0.60784">
        <ele>298.85</ele>
        <time>2021-06-05T23:08:10Z</time>
      </trkpt>
      <trkpt lat="43.11195" lon="-0.60879">
        <ele>300.63</ele>
        <time>2021-06-05T23:08:14Z</time>
      </trkpt>
      <trkpt lat="43.11188" lon="-0.60897">
        <ele>301.88</ele>
        <time>2021-06-05T23:08:18Z</time>
      </trkpt>
      <trkpt lat="43.11187" lon="-0.60966">
        <ele>303.44</ele>
        <time>2021-06-05T23:08:21Z</time>
      </trkpt>
      <trkpt lat="43.1118" lon="-0.61008">
        <ele>302.87</ele>
        <time>2021-06-05T23:08:25Z</time>
      </trkpt>
      <trkpt lat="43.11165" lon="-0.61037">
        <ele>303.39</ele>
        <time>2021-06-05T23:08:29Z</time>
      </trkpt>
      <trkpt lat="43.11151" lon="-0.61052">
        <ele>304.9</ele>
        <time>2021-06-05T23:08:33Z</time>
      </trkpt>
      <trkpt lat="43.11139" lon="-0.61063">
        <ele>305.55</ele>
        <time>2021-06-05T23:08:36Z</time>
      </trkpt>
      <trkpt lat="43.11098" lon="-0.61085">
        <ele>308.72</ele>
        <time>2021-06-05T23:08:40Z</time>
      </trkpt>
      <trkpt lat="43.11056" lon="-0.61112">
        <ele>310.86</ele>
        <time>2021-06-05T23:08:44Z</time>
      </trkpt>
      <trkpt lat="43.11039" lon="-0.61127">
        <ele>310.27</ele>
        <time>2021-06-05T23:08:47Z</time>
      </trkpt>
      <trkpt lat="43.10981" lon="-0.61197">
        <ele>310.04</ele>
        <time>2021-06-05T23:08:51Z</time>
      </trkpt>
      <trkpt lat="43.10971" lon="-0.61211">
        <ele>311.24</ele>
        <time>2021-06-05T23:08:55Z</time>
      </trkpt>
      <trkpt lat="43.10944" lon="-0.61263">
        <ele>316.07</ele>
        <time>2021-06-05T23:08:58Z</time>
      </trkpt>
      <trkpt lat="43.10919" lon="-0.61301">
        <ele>315.94</ele>
        <time>2021-06-05T23:09:02Z</time>
      </trkpt>
      <trkpt lat="43.10913" lon="-0.61306">
        <ele>316.27</ele>
        <time>2021-06-05T23:09:06Z</time>
      </trkpt>
      <trkpt lat="43.10907" lon="-0.61307">
        <ele>316.51</ele>
        <time>2021-06-05T23:09:10Z</time>
      </trkpt>
      <trkpt lat="43.10875" lon="-0.61298">
        <ele>317.86</ele>
        <time>2021-06-05T23:09:13Z</time>
      </trkpt>
      <trkpt lat="43.10864" lon="-0.61298">
        <ele>317.74</ele>
        <time>2021-06-05T23:09:17Z</time>
      </trkpt>
      <trkpt lat="43.10848" lon="-0.61304">
        <ele>318.83</ele>
        <time>2021-06-05T23:09:21Z</time>
      </trkpt>
      <trkpt lat="43.10713" lon="-0.614">
        <ele>337.3</ele>
        <time>2021-06-05T23:09:24Z</time>
      </trkpt>
      <trkpt lat="43.1066" lon="-0.61451">
        <ele>349.69</ele>
        <time>2021-06-05T23:09:28Z</time>
      </trkpt>
      <trkpt lat="43.10577" lon="-0.615">
        <ele>350.9</ele>
        <time>2021-06-05T23:09:32Z</time>
      </trkpt>
      <trkpt lat="43.1053" lon="-0.61542">
        <ele>354.18</ele>
        <time>2021-06-05T23:09:36Z</time>
      </trkpt>
      <trkpt lat="43.105" lon="-0.61546">
        <ele>353.01</ele>
        <time>2021-06-05T23:09:39Z</time>
      </trkpt>
      <trkpt lat="43.10457" lon="-0.6153">
        <ele>353.26</ele>
        <time>2021-06-05T23:09:43Z</time>
      </trkpt>
      <trkpt lat="43.10435" lon="-0.61507">
        <ele>354.08</ele>
        <time>2021-06-05T23:09:47Z</time>
      </trkpt>
      <trkpt lat="43.10409" lon="-0.61474">
        <ele>351.42</ele>
        <time>2021-06-05T23:09:50Z</time>
      </trkpt>
      <trkpt lat="43.10387" lon="-0.61453">
        <ele>351.58</ele>
        <time>2021-06-05T23:09:54Z</time>
      </trkpt>
      <trkpt lat="43.10331" lon="-0.61413">
        <ele>346.54</ele>
        <time>2021-06-05T23:09:58Z</time>
      </trkpt>
      <trkpt lat="43.1029" lon="-0.61387">
        <ele>347.14</ele>
        <time>2021-06-05T23:10:01Z</time>
      </trkpt>
      <trkpt lat="43.10254" lon="-0.61375">
        <ele>344.18</ele>
        <time>2021-06-05T23:10:05Z</time>
      </trkpt>
      <trkpt lat="43.10216" lon="-0.61367">
        <ele>343.76</ele>
        <time>2021-06-05T23:10:09Z</time>
      </trkpt>
      <trkpt lat="43.10166" lon="-0.61363">
        <ele>342.19</ele>
        <time>2021-06-05T23:10:13Z</time>
      </trkpt>
      <trkpt lat="43.10153" lon="-0.61359">
        <ele>339.87</ele>
        <time>2021-06-05T23:10:16Z</time>
      </trkpt>
      <trkpt lat="43.10103" lon="-0.61324">
        <ele>337.77</ele>
        <time>2021-06-05T23:10:20Z</time>
      </trkpt>
      <trkpt lat="43.10015" lon="-0.61279">
        <ele>342.28</ele>
        <time>2021-06-05T23:10:24Z</time>
      </trkpt>
      <trkpt lat="43.09945" lon="-0.61257">
        <ele>327.99</ele>
        <time>2021-06-05T23:10:27Z</time>
      </trkpt>
      <trkpt lat="43.09894" lon="-0.61249">
        <ele>326.58</ele>
        <time>2021-06-05T23:10:31Z</time>
      </trkpt>
      <trkpt lat="43.0987" lon="-0.61248">
        <ele>326.5</ele>
        <time>2021-06-05T23:10:35Z</time>
      </trkpt>
      <trkpt lat="43.09828" lon="-0.61256">
        <ele>325.99</ele>
        <time>2021-06-05T23:10:38Z</time>
      </trkpt>
      <trkpt lat="43.0976" lon="-0.61255">
        <ele>324.77</ele>
        <time>2021-06-05T23:10:42Z</time>
      </trkpt>
      <trkpt lat="43.09725" lon="-0.61243">
        <ele>322.3</ele>
        <time>2021-06-05T23:10:46Z</time>
      </trkpt>
      <trkpt lat="43.09667" lon="-0.6124">
        <ele>323.4</ele>
        <time>2021-06-05T23:10:50Z</time>
      </trkpt>
      <trkpt lat="43.0959" lon="-0.61244">
        <ele>324.64</ele>
        <time>2021-06-05T23:10:53Z</time>
      </trkpt>
      <trkpt lat="43.09486" lon="-0.61272">
        <ele>324.04</ele>
        <time>2021-06-05T23:10:57Z</time>
      </trkpt>
      <trkpt lat="43.09442" lon="-0.61274">
        <ele>325.44</ele>
        <time>2021-06-05T23:11:01Z</time>
      </trkpt>
      <trkpt lat="43.0937" lon="-0.61269">
        <ele>326.56</ele>
        <time>2021-06-05T23:11:04Z</time>
      </trkpt>
      <trkpt lat="43.093" lon="-0.61252">
        <ele>321.85</ele>
        <time>2021-06-05T23:11:08Z</time>
      </trkpt>
      <trkpt lat="43.09277" lon="-0.6124">
        <ele>324.93</ele>
        <time>2021-06-05T23:11:12Z</time>
      </trkpt>
      <trkpt lat="43.09174" lon="-0.61121">
        <ele>324.65</ele>
        <time>2021-06-05T23:11:15Z</time>
      </trkpt>
      <trkpt lat="43.09163" lon="-0.61117">
        <ele>323.28</ele>
        <time>2021-06-05T23:11:19Z</time>
      </trkpt>
      <trkpt lat="43.09117" lon="-0.61118">
        <ele>321.08</ele>
        <time>2021-06-05T23:11:23Z</time>
      </trkpt>
      <trkpt lat="43.09053" lon="-0.61099">
        <ele>323.04</ele>
        <time>2021-06-05T23:11:27Z</time>
      </trkpt>
      <trkpt lat="43.09009" lon="-0.61082">
        <ele>324.14</ele>
        <time>2021-06-05T23:11:30Z</time>
      </trkpt>
      <trkpt lat="43.08933" lon="-0.61069">
        <ele>315.01</ele>
        <time>2021-06-05T23:11:34Z</time>
      </trkpt>
      <trkpt lat="43.08847" lon="-0.61067">
        <ele>309.4</ele>
        <time>2021-06-05T23:11:38Z</time>
      </trkpt>
      <trkpt lat="43.08817" lon="-0.61087">
        <ele>308.93</ele>
        <time>2021-06-05T23:11:41Z</time>
      </trkpt>
      <trkpt lat="43.08763" lon="-0.61101">
        <ele>313.97</ele>
        <time>2021-06-05T23:11:45Z</time>
      </trkpt>
      <trkpt lat="43.08722" lon="-0.61106">
        <ele>314.63</ele>
        <time>2021-06-05T23:11:49Z</time>
      </trkpt>
      <trkpt lat="43.08663" lon="-0.61109">
        <ele>318.96</ele>
        <time>2021-06-05T23:11:53Z</time>
      </trkpt>
      <trkpt lat="43.08622" lon="-0.61118">
        <ele>320.57</ele>
        <time>2021-06-05T23:11:56Z</time>
      </trkpt>
      <trkpt lat="43.08553" lon="-0.61129">
        <ele>324.77</ele>
        <time>2021-06-05T23:12:00Z</time>
      </trkpt>
      <trkpt lat="43.08489" lon="-0.61162">
        <ele>322.43</ele>
        <time>2021-06-05T23:12:04Z</time>
      </trkpt>
      <trkpt lat="43.08474" lon="-0.61166">
        <ele>320.17</ele>
        <time>2021-06-05T23:12:07Z</time>
      </trkpt>
      <trkpt lat="43.08455" lon="-0.61166">
        <ele>318.85</ele>
        <time>2021-06-05T23:12:11Z</time>
      </trkpt>
      <trkpt lat="43.08437" lon="-0.61158">
        <ele>318.61</ele>
        <time>2021-06-05T23:12:15Z</time>
      </trkpt>
      <trkpt lat="43.08413" lon="-0.61135">
        <ele>319.81</ele>
        <time>2021-06-05T23:12:18Z</time>
      </trkpt>
      <trkpt lat="43.08377" lon="-0.6111">
        <ele>318.43</ele>
        <time>2021-06-05T23:12:22Z</time>
      </trkpt>
      <trkpt lat="43.08365" lon="-0.61096">
        <ele>318.79</ele>
        <time>2021-06-05T23:12:26Z</time>
      </trkpt>
      <trkpt lat="43.08355" lon="-0.6108">
        <ele>319.68</ele>
        <time>2021-06-05T23:12:30Z</time>
      </trkpt>
      <trkpt lat="43.08346" lon="-0.61053">
        <ele>322.73</ele>
        <time>2021-06-05T23:12:33Z</time>
      </trkpt>
      <trkpt lat="43.08325" lon="-0.60969">
        <ele>333.16</ele>
        <time>2021-06-05T23:12:37Z</time>
      </trkpt>
      <trkpt lat="43.08308" lon="-0.60912">
        <ele>334.06</ele>
        <time>2021-06-05T23:12:41Z</time>
      </trkpt>
      <trkpt lat="43.08304" lon="-0.60882">
        <ele>335.48</ele>
        <time>2021-06-05T23:12:44Z</time>
      </trkpt>
      <trkpt lat="43.08301" lon="-0.60871">
        <ele>336.23</ele>
        <time>2021-06-05T23:12:48Z</time>
      </trkpt>
      <trkpt lat="43.08294" lon="-0.60858">
        <ele>336.58</ele>
        <time>2021-06-05T23:12:52Z</time>
      </trkpt>
      <trkpt lat="43.08284" lon="-0.60848">
        <ele>335.82</ele>
        <time>2021-06-05T23:12:55Z</time>
      </trkpt>
      <trkpt lat="43.08274" lon="-0.60844">
        <ele>335.2</ele>
        <time>2021-06-05T23:12:59Z</time>
      </trkpt>
      <trkpt lat="43.08267" lon="-0.60845">
        <ele>335.13</ele>
        <time>2021-06-05T23:13:03Z</time>
      </trkpt>
      <trkpt lat="43.0823" lon="-0.60869">
        <ele>332.04</ele>
        <time>2021-06-05T23:13:07Z</time>
      </trkpt>
      <trkpt lat="43.0821" lon="-0.60876">
        <ele>328.43</ele>
        <time>2021-06-05T23:13:10Z</time>
      </trkpt>
      <trkpt lat="43.08181" lon="-0.60871">
        <ele>324.55</ele>
        <time>2021-06-05T23:13:14Z</time>
      </trkpt>
      <trkpt lat="43.08143" lon="-0.60855">
        <ele>324.73</ele>
        <time>2021-06-05T23:13:18Z</time>
      </trkpt>
      <trkpt lat="43.08133" lon="-0.60854">
        <ele>325.2</ele>
        <time>2021-06-05T23:13:21Z</time>
      </trkpt>
      <trkpt lat="43.08125" lon="-0.60856">
        <ele>325.56</ele>
        <time>2021-06-05T23:13:25Z</time>
      </trkpt>
      <trkpt lat="43.08105" lon="-0.60872">
        <ele>325.07</ele>
        <time>2021-06-05T23:13:29Z</time>
      </trkpt>
      <trkpt lat="43.08043" lon="-0.60885">
        <ele>328.55</ele>
        <time>2021-06-05T23:13:32Z</time>
      </trkpt>
      <trkpt lat="43.08027" lon="-0.60885">
        <ele>329</ele>
        <time>2021-06-05T23:13:36Z</time>
      </trkpt>
      <trkpt lat="43.07978" lon="-0.60879">
        <ele>329</ele>
        <time>2021-06-05T23:13:40Z</time>
      </trkpt>
      <trkpt lat="43.07921" lon="-0.60863">
        <ele>329</ele>
        <time>2021-06-05T23:13:44Z</time>
      </trkpt>
      <trkpt lat="43.07881" lon="-0.60845">
        <ele>329</ele>
        <time>2021-06-05T23:13:47Z</time>
      </trkpt>
      <trkpt lat="43.07801" lon="-0.60787">
        <ele>333.38</ele>
        <time>2021-06-05T23:13:51Z</time>
      </trkpt>
      <trkpt lat="43.07785" lon="-0.60769">
        <ele>334.61</ele>
        <time>2021-06-05T23:13:55Z</time>
      </trkpt>
      <trkpt lat="43.07753" lon="-0.6074">
        <ele>336.22</ele>
        <time>2021-06-05T23:13:58Z</time>
      </trkpt>
      <trkpt lat="43.07728" lon="-0.60723">
        <ele>336.31</ele>
        <time>2021-06-05T23:14:02Z</time>
      </trkpt>
      <trkpt lat="43.07699" lon="-0.60691">
        <ele>336.69</ele>
        <time>2021-06-05T23:14:06Z</time>
      </trkpt>
      <trkpt lat="43.07692" lon="-0.60677">
        <ele>336.35</ele>
        <time>2021-06-05T23:14:10Z</time>
      </trkpt>
      <trkpt lat="43.07666" lon="-0.60612">
        <ele>331.9</ele>
        <time>2021-06-05T23:14:13Z</time>
      </trkpt>
      <trkpt lat="43.07681" lon="-0.60575">
        <ele>335.66</ele>
        <time>2021-06-05T23:14:16Z</time>
      </trkpt>
      <trkpt lat="43.07689" lon="-0.60527">
        <ele>340.92</ele>
        <time>2021-06-05T23:14:19Z</time>
      </trkpt>
      <trkpt lat="43.07689" lon="-0.60495">
        <ele>343.27</ele>
        <time>2021-06-05T23:14:22Z</time>
      </trkpt>
      <trkpt lat="43.07686" lon="-0.60403">
        <ele>340.95</ele>
        <time>2021-06-05T23:14:25Z</time>
      </trkpt>
      <trkpt lat="43.07687" lon="-0.60359">
        <ele>339.33</ele>
        <time>2021-06-05T23:14:28Z</time>
      </trkpt>
      <trkpt lat="43.07695" lon="-0.60308">
        <ele>337.48</ele>
        <time>2021-06-05T23:14:31Z</time>
      </trkpt>
      <trkpt lat="43.07691" lon="-0.60267">
        <ele>337.15</ele>
        <time>2021-06-05T23:14:34Z</time>
      </trkpt>
      <trkpt lat="43.07691" lon="-0.60238">
        <ele>338.7</ele>
        <time>2021-06-05T23:14:37Z</time>
      </trkpt>
      <trkpt lat="43.07704" lon="-0.60106">
        <ele>343.48</ele>
        <time>2021-06-05T23:14:40Z</time>
      </trkpt>
      <trkpt lat="43.07705" lon="-0.60068">
        <ele>342.14</ele>
        <time>2021-06-05T23:14:43Z</time>
      </trkpt>
      <trkpt lat="43.07698" lon="-0.60003">
        <ele>339.47</ele>
        <time>2021-06-05T23:14:46Z</time>
      </trkpt>
      <trkpt lat="43.07699" lon="-0.59975">
        <ele>341.32</ele>
        <time>2021-06-05T23:14:49Z</time>
      </trkpt>
      <trkpt lat="43.07713" lon="-0.59915">
        <ele>345.28</ele>
        <time>2021-06-05T23:14:52Z</time>
      </trkpt>
      <trkpt lat="43.07722" lon="-0.59853">
        <ele>346.62</ele>
        <time>2021-06-05T23:14:55Z</time>
      </trkpt>
      <trkpt lat="43.07723" lon="-0.59731">
        <ele>350.74</ele>
        <time>2021-06-05T23:14:58Z</time>
      </trkpt>
      <trkpt lat="43.07728" lon="-0.59705">
        <ele>350.73</ele>
        <time>2021-06-05T23:15:01Z</time>
      </trkpt>
      <trkpt lat="43.0774" lon="-0.5968">
        <ele>348.75</ele>
        <time>2021-06-05T23:15:04Z</time>
      </trkpt>
      <trkpt lat="43.07771" lon="-0.59637">
        <ele>349.16</ele>
        <time>2021-06-05T23:15:06Z</time>
      </trkpt>
      <trkpt lat="43.07788" lon="-0.59594">
        <ele>352.45</ele>
        <time>2021-06-05T23:15:09Z</time>
      </trkpt>
      <trkpt lat="43.07794" lon="-0.59569">
        <ele>354.53</ele>
        <time>2021-06-05T23:15:12Z</time>
      </trkpt>
      <trkpt lat="43.07789" lon="-0.5949">
        <ele>355.55</ele>
        <time>2021-06-05T23:15:15Z</time>
      </trkpt>
      <trkpt lat="43.07791" lon="-0.59459">
        <ele>355.47</ele>
        <time>2021-06-05T23:15:18Z</time>
      </trkpt>
      <trkpt lat="43.07797" lon="-0.59429">
        <ele>356.94</ele>
        <time>2021-06-05T23:15:21Z</time>
      </trkpt>
      <trkpt lat="43.07822" lon="-0.59365">
        <ele>361.06</ele>
        <time>2021-06-05T23:15:24Z</time>
      </trkpt>
      <trkpt lat="43.07831" lon="-0.59338">
        <ele>361.21</ele>
        <time>2021-06-05T23:15:27Z</time>
      </trkpt>
      <trkpt lat="43.07845" lon="-0.59234">
        <ele>365.21</ele>
        <time>2021-06-05T23:15:30Z</time>
      </trkpt>
      <trkpt lat="43.07852" lon="-0.59085">
        <ele>370.22</ele>
        <time>2021-06-05T23:15:33Z</time>
      </trkpt>
      <trkpt lat="43.07844" lon="-0.59017">
        <ele>370.32</ele>
        <time>2021-06-05T23:15:36Z</time>
      </trkpt>
      <trkpt lat="43.0785" lon="-0.58845">
        <ele>374.16</ele>
        <time>2021-06-05T23:15:39Z</time>
      </trkpt>
      <trkpt lat="43.07871" lon="-0.58754">
        <ele>381.97</ele>
        <time>2021-06-05T23:15:42Z</time>
      </trkpt>
      <trkpt lat="43.07893" lon="-0.58668">
        <ele>387.65</ele>
        <time>2021-06-05T23:15:45Z</time>
      </trkpt>
      <trkpt lat="43.07903" lon="-0.58617">
        <ele>388.04</ele>
        <time>2021-06-05T23:15:48Z</time>
      </trkpt>
      <trkpt lat="43.07905" lon="-0.58595">
        <ele>389.63</ele>
        <time>2021-06-05T23:15:51Z</time>
      </trkpt>
      <trkpt lat="43.07905" lon="-0.58565">
        <ele>391.1</ele>
        <time>2021-06-05T23:15:54Z</time>
      </trkpt>
      <trkpt lat="43.07895" lon="-0.58473">
        <ele>390.77</ele>
        <time>2021-06-05T23:15:57Z</time>
      </trkpt>
      <trkpt lat="43.07869" lon="-0.58374">
        <ele>397.68</ele>
        <time>2021-06-05T23:16:00Z</time>
      </trkpt>
      <trkpt lat="43.07866" lon="-0.58231">
        <ele>404.44</ele>
        <time>2021-06-05T23:16:03Z</time>
      </trkpt>
      <trkpt lat="43.0787" lon="-0.5821">
        <ele>404.86</ele>
        <time>2021-06-05T23:16:06Z</time>
      </trkpt>
      <trkpt lat="43.07881" lon="-0.58179">
        <ele>404.11</ele>
        <time>2021-06-05T23:16:09Z</time>
      </trkpt>
      <trkpt lat="43.07886" lon="-0.58158">
        <ele>405.44</ele>
        <time>2021-06-05T23:16:11Z</time>
      </trkpt>
      <trkpt lat="43.07886" lon="-0.58125">
        <ele>408.78</ele>
        <time>2021-06-05T23:16:14Z</time>
      </trkpt>
      <trkpt lat="43.07889" lon="-0.58095">
        <ele>408.99</ele>
        <time>2021-06-05T23:16:17Z</time>
      </trkpt>
      <trkpt lat="43.07909" lon="-0.58002">
        <ele>424.73</ele>
        <time>2021-06-05T23:16:20Z</time>
      </trkpt>
      <trkpt lat="43.07911" lon="-0.57976">
        <ele>426.93</ele>
        <time>2021-06-05T23:16:23Z</time>
      </trkpt>
      <trkpt lat="43.07912" lon="-0.57922">
        <ele>424.06</ele>
        <time>2021-06-05T23:16:26Z</time>
      </trkpt>
      <trkpt lat="43.07915" lon="-0.57904">
        <ele>424.32</ele>
        <time>2021-06-05T23:16:29Z</time>
      </trkpt>
      <trkpt lat="43.07925" lon="-0.57885">
        <ele>427.05</ele>
        <time>2021-06-05T23:16:32Z</time>
      </trkpt>
      <trkpt lat="43.07964" lon="-0.57826">
        <ele>431.28</ele>
        <time>2021-06-05T23:16:35Z</time>
      </trkpt>
      <trkpt lat="43.07976" lon="-0.57813">
        <ele>434.95</ele>
        <time>2021-06-05T23:16:38Z</time>
      </trkpt>
      <trkpt lat="43.07982" lon="-0.5781">
        <ele>436.28</ele>
        <time>2021-06-05T23:16:41Z</time>
      </trkpt>
      <trkpt lat="43.0799" lon="-0.57811">
        <ele>436.63</ele>
        <time>2021-06-05T23:16:44Z</time>
      </trkpt>
      <trkpt lat="43.07997" lon="-0.57819">
        <ele>436.14</ele>
        <time>2021-06-05T23:16:47Z</time>
      </trkpt>
      <trkpt lat="43.08014" lon="-0.5788">
        <ele>440.6</ele>
        <time>2021-06-05T23:16:50Z</time>
      </trkpt>
      <trkpt lat="43.08024" lon="-0.57893">
        <ele>439.79</ele>
        <time>2021-06-05T23:16:53Z</time>
      </trkpt>
      <trkpt lat="43.08046" lon="-0.57898">
        <ele>438.06</ele>
        <time>2021-06-05T23:16:56Z</time>
      </trkpt>
      <trkpt lat="43.08065" lon="-0.57898">
        <ele>438.47</ele>
        <time>2021-06-05T23:16:59Z</time>
      </trkpt>
      <trkpt lat="43.08078" lon="-0.57895">
        <ele>439.69</ele>
        <time>2021-06-05T23:17:02Z</time>
      </trkpt>
      <trkpt lat="43.08089" lon="-0.57887">
        <ele>440.08</ele>
        <time>2021-06-05T23:17:05Z</time>
      </trkpt>
      <trkpt lat="43.08095" lon="-0.57874">
        <ele>439.25</ele>
        <time>2021-06-05T23:17:08Z</time>
      </trkpt>
      <trkpt lat="43.08099" lon="-0.5786">
        <ele>437.29</ele>
        <time>2021-06-05T23:17:11Z</time>
      </trkpt>
      <trkpt lat="43.08111" lon="-0.57737">
        <ele>436.07</ele>
        <time>2021-06-05T23:17:13Z</time>
      </trkpt>
      <trkpt lat="43.08113" lon="-0.57698">
        <ele>433.89</ele>
        <time>2021-06-05T23:17:16Z</time>
      </trkpt>
      <trkpt lat="43.08109" lon="-0.57661">
        <ele>438.1</ele>
        <time>2021-06-05T23:17:19Z</time>
      </trkpt>
      <trkpt lat="43.08098" lon="-0.57625">
        <ele>443.5</ele>
        <time>2021-06-05T23:17:22Z</time>
      </trkpt>
      <trkpt lat="43.08054" lon="-0.57549">
        <ele>446.95</ele>
        <time>2021-06-05T23:17:25Z</time>
      </trkpt>
      <trkpt lat="43.08051" lon="-0.57532">
        <ele>448.05</ele>
        <time>2021-06-05T23:17:28Z</time>
      </trkpt>
      <trkpt lat="43.08052" lon="-0.57511">
        <ele>447.72</ele>
        <time>2021-06-05T23:17:31Z</time>
      </trkpt>
      <trkpt lat="43.08069" lon="-0.57421">
        <ele>454.65</ele>
        <time>2021-06-05T23:17:34Z</time>
      </trkpt>
      <trkpt lat="43.08102" lon="-0.57355">
        <ele>460.8</ele>
        <time>2021-06-05T23:17:37Z</time>
      </trkpt>
      <trkpt lat="43.08115" lon="-0.57324">
        <ele>459.84</ele>
        <time>2021-06-05T23:17:40Z</time>
      </trkpt>
      <trkpt lat="43.08121" lon="-0.57298">
        <ele>458.75</ele>
        <time>2021-06-05T23:17:43Z</time>
      </trkpt>
      <trkpt lat="43.08122" lon="-0.57233">
        <ele>456.53</ele>
        <time>2021-06-05T23:17:46Z</time>
      </trkpt>
      <trkpt lat="43.08113" lon="-0.57169">
        <ele>459.95</ele>
        <time>2021-06-05T23:17:49Z</time>
      </trkpt>
      <trkpt lat="43.08105" lon="-0.5714">
        <ele>462.89</ele>
        <time>2021-06-05T23:17:52Z</time>
      </trkpt>
      <trkpt lat="43.08091" lon="-0.57116">
        <ele>464.74</ele>
        <time>2021-06-05T23:17:55Z</time>
      </trkpt>
      <trkpt lat="43.08063" lon="-0.57072">
        <ele>466.3</ele>
        <time>2021-06-05T23:17:58Z</time>
      </trkpt>
      <trkpt lat="43.08056" lon="-0.57052">
        <ele>465</ele>
        <time>2021-06-05T23:18:01Z</time>
      </trkpt>
      <trkpt lat="43.08051" lon="-0.57022">
        <ele>467.36</ele>
        <time>2021-06-05T23:18:04Z</time>
      </trkpt>
      <trkpt lat="43.08057" lon="-0.56929">
        <ele>469.67</ele>
        <time>2021-06-05T23:18:07Z</time>
      </trkpt>
      <trkpt lat="43.08049" lon="-0.56876">
        <ele>474.7</ele>
        <time>2021-06-05T23:18:10Z</time>
      </trkpt>
      <trkpt lat="43.08027" lon="-0.56815">
        <ele>478.1</ele>
        <time>2021-06-05T23:18:13Z</time>
      </trkpt>
      <trkpt lat="43.08013" lon="-0.56767">
        <ele>481.43</ele>
        <time>2021-06-05T23:18:16Z</time>
      </trkpt>
      <trkpt lat="43.08009" lon="-0.56736">
        <ele>484.67</ele>
        <time>2021-06-05T23:18:18Z</time>
      </trkpt>
      <trkpt lat="43.08027" lon="-0.56625">
        <ele>486.67</ele>
        <time>2021-06-05T23:18:21Z</time>
      </trkpt>
      <trkpt lat="43.08028" lon="-0.56569">
        <ele>487.53</ele>
        <time>2021-06-05T23:18:24Z</time>
      </trkpt>
      <trkpt lat="43.07997" lon="-0.56385">
        <ele>491.38</ele>
        <time>2021-06-05T23:18:27Z</time>
      </trkpt>
      <trkpt lat="43.07991" lon="-0.56372">
        <ele>491.39</ele>
        <time>2021-06-05T23:18:30Z</time>
      </trkpt>
      <trkpt lat="43.07965" lon="-0.56345">
        <ele>497.26</ele>
        <time>2021-06-05T23:18:33Z</time>
      </trkpt>
      <trkpt lat="43.07956" lon="-0.56341">
        <ele>500.52</ele>
        <time>2021-06-05T23:18:36Z</time>
      </trkpt>
      <trkpt lat="43.0789" lon="-0.56335">
        <ele>520.1</ele>
        <time>2021-06-05T23:18:39Z</time>
      </trkpt>
      <trkpt lat="43.07877" lon="-0.56327">
        <ele>518.42</ele>
        <time>2021-06-05T23:18:42Z</time>
      </trkpt>
      <trkpt lat="43.07841" lon="-0.56287">
        <ele>511.57</ele>
        <time>2021-06-05T23:18:45Z</time>
      </trkpt>
      <trkpt lat="43.07829" lon="-0.56266">
        <ele>512.36</ele>
        <time>2021-06-05T23:18:48Z</time>
      </trkpt>
      <trkpt lat="43.07815" lon="-0.56187">
        <ele>516.96</ele>
        <time>2021-06-05T23:18:51Z</time>
      </trkpt>
      <trkpt lat="43.07803" lon="-0.5609">
        <ele>520.82</ele>
        <time>2021-06-05T23:18:54Z</time>
      </trkpt>
      <trkpt lat="43.07797" lon="-0.5606">
        <ele>524.63</ele>
        <time>2021-06-05T23:18:57Z</time>
      </trkpt>
      <trkpt lat="43.07788" lon="-0.56032">
        <ele>526.51</ele>
        <time>2021-06-05T23:19:00Z</time>
      </trkpt>
      <trkpt lat="43.0774" lon="-0.55973">
        <ele>526.19</ele>
        <time>2021-06-05T23:19:03Z</time>
      </trkpt>
      <trkpt lat="43.07733" lon="-0.55957">
        <ele>526.92</ele>
        <time>2021-06-05T23:19:06Z</time>
      </trkpt>
      <trkpt lat="43.07724" lon="-0.55912">
        <ele>526.38</ele>
        <time>2021-06-05T23:19:09Z</time>
      </trkpt>
      <trkpt lat="43.07696" lon="-0.55809">
        <ele>532.76</ele>
        <time>2021-06-05T23:19:12Z</time>
      </trkpt>
      <trkpt lat="43.07689" lon="-0.55764">
        <ele>537.45</ele>
        <time>2021-06-05T23:19:15Z</time>
      </trkpt>
      <trkpt lat="43.0769" lon="-0.55708">
        <ele>542.74</ele>
        <time>2021-06-05T23:19:18Z</time>
      </trkpt>
      <trkpt lat="43.0768" lon="-0.55665">
        <ele>545.54</ele>
        <time>2021-06-05T23:19:21Z</time>
      </trkpt>
      <trkpt lat="43.07651" lon="-0.55504">
        <ele>545.93</ele>
        <time>2021-06-05T23:19:23Z</time>
      </trkpt>
      <trkpt lat="43.0763" lon="-0.55422">
        <ele>548.87</ele>
        <time>2021-06-05T23:19:26Z</time>
      </trkpt>
      <trkpt lat="43.07613" lon="-0.55373">
        <ele>554.31</ele>
        <time>2021-06-05T23:19:29Z</time>
      </trkpt>
      <trkpt lat="43.07559" lon="-0.55307">
        <ele>565.28</ele>
        <time>2021-06-05T23:19:32Z</time>
      </trkpt>
      <trkpt lat="43.07533" lon="-0.55235">
        <ele>562.24</ele>
        <time>2021-06-05T23:19:35Z</time>
      </trkpt>
      <trkpt lat="43.0753" lon="-0.55213">
        <ele>561.97</ele>
        <time>2021-06-05T23:19:38Z</time>
      </trkpt>
      <trkpt lat="43.07529" lon="-0.55192">
        <ele>563.23</ele>
        <time>2021-06-05T23:19:41Z</time>
      </trkpt>
      <trkpt lat="43.07531" lon="-0.55163">
        <ele>567.19</ele>
        <time>2021-06-05T23:19:44Z</time>
      </trkpt>
      <trkpt lat="43.07538" lon="-0.5513">
        <ele>571.49</ele>
        <time>2021-06-05T23:19:47Z</time>
      </trkpt>
      <trkpt lat="43.07539" lon="-0.55107">
        <ele>574.03</ele>
        <time>2021-06-05T23:19:50Z</time>
      </trkpt>
      <trkpt lat="43.07514" lon="-0.54899">
        <ele>590.46</ele>
        <time>2021-06-05T23:19:53Z</time>
      </trkpt>
      <trkpt lat="43.07486" lon="-0.54631">
        <ele>610.9</ele>
        <time>2021-06-05T23:19:56Z</time>
      </trkpt>
      <trkpt lat="43.07463" lon="-0.54522">
        <ele>624.69</ele>
        <time>2021-06-05T23:19:59Z</time>
      </trkpt>
      <trkpt lat="43.07463" lon="-0.54493">
        <ele>624.05</ele>
        <time>2021-06-05T23:20:02Z</time>
      </trkpt>
      <trkpt lat="43.07477" lon="-0.54412">
        <ele>628.07</ele>
        <time>2021-06-05T23:20:05Z</time>
      </trkpt>
      <trkpt lat="43.07475" lon="-0.54387">
        <ele>630.41</ele>
        <time>2021-06-05T23:20:08Z</time>
      </trkpt>
      <trkpt lat="43.07459" lon="-0.54332">
        <ele>642.49</ele>
        <time>2021-06-05T23:20:11Z</time>
      </trkpt>
      <trkpt lat="43.07454" lon="-0.543">
        <ele>646.81</ele>
        <time>2021-06-05T23:20:14Z</time>
      </trkpt>
      <trkpt lat="43.07453" lon="-0.5427">
        <ele>647.31</ele>
        <time>2021-06-05T23:20:17Z</time>
      </trkpt>
      <trkpt lat="43.07461" lon="-0.54209">
        <ele>643.41</ele>
        <time>2021-06-05T23:20:20Z</time>
      </trkpt>
      <trkpt lat="43.07461" lon="-0.54174">
        <ele>643.37</ele>
        <time>2021-06-05T23:20:23Z</time>
      </trkpt>
      <trkpt lat="43.07454" lon="-0.54143">
        <ele>646.77</ele>
        <time>2021-06-05T23:20:26Z</time>
      </trkpt>
      <trkpt lat="43.07446" lon="-0.54115">
        <ele>652.25</ele>
        <time>2021-06-05T23:20:28Z</time>
      </trkpt>
      <trkpt lat="43.07433" lon="-0.54081">
        <ele>658.95</ele>
        <time>2021-06-05T23:20:31Z</time>
      </trkpt>
      <trkpt lat="43.07396" lon="-0.54011">
        <ele>663.93</ele>
        <time>2021-06-05T23:20:34Z</time>
      </trkpt>
      <trkpt lat="43.0737" lon="-0.53965">
        <ele>671.2</ele>
        <time>2021-06-05T23:20:37Z</time>
      </trkpt>
      <trkpt lat="43.0735" lon="-0.53919">
        <ele>675.85</ele>
        <time>2021-06-05T23:20:40Z</time>
      </trkpt>
      <trkpt lat="43.07336" lon="-0.53874">
        <ele>686.34</ele>
        <time>2021-06-05T23:20:43Z</time>
      </trkpt>
      <trkpt lat="43.07323" lon="-0.5379">
        <ele>693.23</ele>
        <time>2021-06-05T23:20:46Z</time>
      </trkpt>
      <trkpt lat="43.07321" lon="-0.53752">
        <ele>694.4</ele>
        <time>2021-06-05T23:20:49Z</time>
      </trkpt>
      <trkpt lat="43.07324" lon="-0.53721">
        <ele>695.95</ele>
        <time>2021-06-05T23:20:52Z</time>
      </trkpt>
      <trkpt lat="43.07341" lon="-0.53615">
        <ele>704.59</ele>
        <time>2021-06-05T23:20:55Z</time>
      </trkpt>
      <trkpt lat="43.07341" lon="-0.5359">
        <ele>706.16</ele>
        <time>2021-06-05T23:20:58Z</time>
      </trkpt>
      <trkpt lat="43.07336" lon="-0.53524">
        <ele>715.3</ele>
        <time>2021-06-05T23:21:01Z</time>
      </trkpt>
      <trkpt lat="43.07331" lon="-0.53487">
        <ele>718.38</ele>
        <time>2021-06-05T23:21:04Z</time>
      </trkpt>
      <trkpt lat="43.07323" lon="-0.53454">
        <ele>721.66</ele>
        <time>2021-06-05T23:21:07Z</time>
      </trkpt>
      <trkpt lat="43.073" lon="-0.53405">
        <ele>731.14</ele>
        <time>2021-06-05T23:21:10Z</time>
      </trkpt>
      <trkpt lat="43.07291" lon="-0.53377">
        <ele>738.02</ele>
        <time>2021-06-05T23:21:13Z</time>
      </trkpt>
      <trkpt lat="43.07285" lon="-0.53309">
        <ele>753.63</ele>
        <time>2021-06-05T23:21:16Z</time>
      </trkpt>
      <trkpt lat="43.07286" lon="-0.53283">
        <ele>759.57</ele>
        <time>2021-06-05T23:21:19Z</time>
      </trkpt>
      <trkpt lat="43.07292" lon="-0.53264">
        <ele>761.2</ele>
        <time>2021-06-05T23:21:22Z</time>
      </trkpt>
      <trkpt lat="43.07318" lon="-0.53201">
        <ele>766.76</ele>
        <time>2021-06-05T23:21:25Z</time>
      </trkpt>
      <trkpt lat="43.07339" lon="-0.53163">
        <ele>764.5</ele>
        <time>2021-06-05T23:21:28Z</time>
      </trkpt>
      <trkpt lat="43.07345" lon="-0.53144">
        <ele>764.15</ele>
        <time>2021-06-05T23:21:30Z</time>
      </trkpt>
      <trkpt lat="43.0735" lon="-0.53121">
        <ele>764.82</ele>
        <time>2021-06-05T23:21:33Z</time>
      </trkpt>
      <trkpt lat="43.07351" lon="-0.531">
        <ele>766.76</ele>
        <time>2021-06-05T23:21:36Z</time>
      </trkpt>
      <trkpt lat="43.0735" lon="-0.53061">
        <ele>769.18</ele>
        <time>2021-06-05T23:21:39Z</time>
      </trkpt>
      <trkpt lat="43.07343" lon="-0.53029">
        <ele>772.43</ele>
        <time>2021-06-05T23:21:42Z</time>
      </trkpt>
      <trkpt lat="43.07339" lon="-0.5302">
        <ele>774.82</ele>
        <time>2021-06-05T23:21:45Z</time>
      </trkpt>
      <trkpt lat="43.07332" lon="-0.53011">
        <ele>779.03</ele>
        <time>2021-06-05T23:21:48Z</time>
      </trkpt>
      <trkpt lat="43.07303" lon="-0.52989">
        <ele>791.93</ele>
        <time>2021-06-05T23:21:51Z</time>
      </trkpt>
      <trkpt lat="43.0729" lon="-0.52975">
        <ele>794.91</ele>
        <time>2021-06-05T23:21:54Z</time>
      </trkpt>
      <trkpt lat="43.07277" lon="-0.52958">
        <ele>796.03</ele>
        <time>2021-06-05T23:21:57Z</time>
      </trkpt>
      <trkpt lat="43.0725" lon="-0.52913">
        <ele>805.13</ele>
        <time>2021-06-05T23:22:00Z</time>
      </trkpt>
      <trkpt lat="43.07247" lon="-0.52904">
        <ele>803.71</ele>
        <time>2021-06-05T23:22:03Z</time>
      </trkpt>
      <trkpt lat="43.07237" lon="-0.52856">
        <ele>794.9</ele>
        <time>2021-06-05T23:22:06Z</time>
      </trkpt>
      <trkpt lat="43.07234" lon="-0.52846">
        <ele>794.48</ele>
        <time>2021-06-05T23:22:09Z</time>
      </trkpt>
      <trkpt lat="43.07226" lon="-0.5283">
        <ele>794.41</ele>
        <time>2021-06-05T23:22:12Z</time>
      </trkpt>
      <trkpt lat="43.07213" lon="-0.52816">
        <ele>799.3</ele>
        <time>2021-06-05T23:22:15Z</time>
      </trkpt>
      <trkpt lat="43.07205" lon="-0.52811">
        <ele>802.37</ele>
        <time>2021-06-05T23:22:18Z</time>
      </trkpt>
      <trkpt lat="43.07196" lon="-0.52808">
        <ele>806.16</ele>
        <time>2021-06-05T23:22:21Z</time>
      </trkpt>
      <trkpt lat="43.0717" lon="-0.52804">
        <ele>820.98</ele>
        <time>2021-06-05T23:22:24Z</time>
      </trkpt>
      <trkpt lat="43.07164" lon="-0.528">
        <ele>823.55</ele>
        <time>2021-06-05T23:22:27Z</time>
      </trkpt>
      <trkpt lat="43.07154" lon="-0.52786">
        <ele>824.47</ele>
        <time>2021-06-05T23:22:30Z</time>
      </trkpt>
      <trkpt lat="43.07148" lon="-0.52763">
        <ele>821.78</ele>
        <time>2021-06-05T23:22:33Z</time>
      </trkpt>
      <trkpt lat="43.07141" lon="-0.52719">
        <ele>817.92</ele>
        <time>2021-06-05T23:22:35Z</time>
      </trkpt>
      <trkpt lat="43.0713" lon="-0.52677">
        <ele>820.49</ele>
        <time>2021-06-05T23:22:38Z</time>
      </trkpt>
      <trkpt lat="43.0712" lon="-0.5263">
        <ele>821.74</ele>
        <time>2021-06-05T23:22:41Z</time>
      </trkpt>
      <trkpt lat="43.07097" lon="-0.52573">
        <ele>832.31</ele>
        <time>2021-06-05T23:22:44Z</time>
      </trkpt>
      <trkpt lat="43.07019" lon="-0.5231">
        <ele>868.68</ele>
        <time>2021-06-05T23:22:47Z</time>
      </trkpt>
      <trkpt lat="43.07001" lon="-0.52164">
        <ele>891.69</ele>
        <time>2021-06-05T23:22:50Z</time>
      </trkpt>
      <trkpt lat="43.07012" lon="-0.52051">
        <ele>896.69</ele>
        <time>2021-06-05T23:22:53Z</time>
      </trkpt>
      <trkpt lat="43.0701" lon="-0.52">
        <ele>900.39</ele>
        <time>2021-06-05T23:22:56Z</time>
      </trkpt>
      <trkpt lat="43.07004" lon="-0.51956">
        <ele>907.32</ele>
        <time>2021-06-05T23:22:59Z</time>
      </trkpt>
      <trkpt lat="43.07003" lon="-0.51944">
        <ele>909.13</ele>
        <time>2021-06-05T23:23:02Z</time>
      </trkpt>
      <trkpt lat="43.07006" lon="-0.51919">
        <ele>916.17</ele>
        <time>2021-06-05T23:23:05Z</time>
      </trkpt>
      <trkpt lat="43.07045" lon="-0.51776">
        <ele>919.04</ele>
        <time>2021-06-05T23:23:08Z</time>
      </trkpt>
      <trkpt lat="43.07054" lon="-0.51691">
        <ele>925.27</ele>
        <time>2021-06-05T23:23:11Z</time>
      </trkpt>
      <trkpt lat="43.07054" lon="-0.51669">
        <ele>929.42</ele>
        <time>2021-06-05T23:23:14Z</time>
      </trkpt>
      <trkpt lat="43.07053" lon="-0.51645">
        <ele>934.37</ele>
        <time>2021-06-05T23:23:17Z</time>
      </trkpt>
      <trkpt lat="43.07047" lon="-0.51603">
        <ele>939.87</ele>
        <time>2021-06-05T23:23:20Z</time>
      </trkpt>
      <trkpt lat="43.07047" lon="-0.51593">
        <ele>939.29</ele>
        <time>2021-06-05T23:23:23Z</time>
      </trkpt>
      <trkpt lat="43.07058" lon="-0.51523">
        <ele>942.23</ele>
        <time>2021-06-05T23:23:26Z</time>
      </trkpt>
      <trkpt lat="43.07059" lon="-0.51451">
        <ele>954.44</ele>
        <time>2021-06-05T23:23:29Z</time>
      </trkpt>
      <trkpt lat="43.07075" lon="-0.51364">
        <ele>960.57</ele>
        <time>2021-06-05T23:23:32Z</time>
      </trkpt>
      <trkpt lat="43.07077" lon="-0.51347">
        <ele>961.13</ele>
        <time>2021-06-05T23:23:35Z</time>
      </trkpt>
      <trkpt lat="43.07076" lon="-0.51297">
        <ele>963.69</ele>
        <time>2021-06-05T23:23:38Z</time>
      </trkpt>
      <trkpt lat="43.07072" lon="-0.51286">
        <ele>964.9</ele>
        <time>2021-06-05T23:23:40Z</time>
      </trkpt>
      <trkpt lat="43.07064" lon="-0.51271">
        <ele>967.28</ele>
        <time>2021-06-05T23:23:43Z</time>
      </trkpt>
      <trkpt lat="43.07038" lon="-0.51231">
        <ele>982</ele>
        <time>2021-06-05T23:23:46Z</time>
      </trkpt>
      <trkpt lat="43.07033" lon="-0.51222">
        <ele>985.33</ele>
        <time>2021-06-05T23:23:49Z</time>
      </trkpt>
      <trkpt lat="43.07032" lon="-0.51207">
        <ele>983.32</ele>
        <time>2021-06-05T23:23:52Z</time>
      </trkpt>
      <trkpt lat="43.07034" lon="-0.51169">
        <ele>976.31</ele>
        <time>2021-06-05T23:23:55Z</time>
      </trkpt>
      <trkpt lat="43.07025" lon="-0.51136">
        <ele>979.15</ele>
        <time>2021-06-05T23:23:58Z</time>
      </trkpt>
      <trkpt lat="43.07006" lon="-0.51087">
        <ele>991.71</ele>
        <time>2021-06-05T23:24:01Z</time>
      </trkpt>
      <trkpt lat="43.07002" lon="-0.51076">
        <ele>994.43</ele>
        <time>2021-06-05T23:24:04Z</time>
      </trkpt>
      <trkpt lat="43.06995" lon="-0.51066">
        <ele>997.4</ele>
        <time>2021-06-05T23:24:07Z</time>
      </trkpt>
      <trkpt lat="43.06977" lon="-0.51052">
        <ele>1001.52</ele>
        <time>2021-06-05T23:24:10Z</time>
      </trkpt>
      <trkpt lat="43.06943" lon="-0.5103">
        <ele>1005.01</ele>
        <time>2021-06-05T23:24:13Z</time>
      </trkpt>
      <trkpt lat="43.06861" lon="-0.51008">
        <ele>1017.46</ele>
        <time>2021-06-05T23:24:16Z</time>
      </trkpt>
      <trkpt lat="43.06853" lon="-0.51001">
        <ele>1019.18</ele>
        <time>2021-06-05T23:24:19Z</time>
      </trkpt>
      <trkpt lat="43.06851" lon="-0.50989">
        <ele>1021.29</ele>
        <time>2021-06-05T23:24:22Z</time>
      </trkpt>
      <trkpt lat="43.06855" lon="-0.50981">
        <ele>1021.36</ele>
        <time>2021-06-05T23:24:25Z</time>
      </trkpt>
      <trkpt lat="43.06913" lon="-0.5094">
        <ele>1023.6</ele>
        <time>2021-06-05T23:24:28Z</time>
      </trkpt>
      <trkpt lat="43.06943" lon="-0.50916">
        <ele>1028.35</ele>
        <time>2021-06-05T23:24:31Z</time>
      </trkpt>
      <trkpt lat="43.0697" lon="-0.50888">
        <ele>1033.25</ele>
        <time>2021-06-05T23:24:34Z</time>
      </trkpt>
      <trkpt lat="43.07012" lon="-0.50835">
        <ele>1033.12</ele>
        <time>2021-06-05T23:24:37Z</time>
      </trkpt>
      <trkpt lat="43.0704" lon="-0.50796">
        <ele>1034.69</ele>
        <time>2021-06-05T23:24:40Z</time>
      </trkpt>
      <trkpt lat="43.07045" lon="-0.50784">
        <ele>1035.52</ele>
        <time>2021-06-05T23:24:43Z</time>
      </trkpt>
      <trkpt lat="43.07047" lon="-0.50775">
        <ele>1036.02</ele>
        <time>2021-06-05T23:24:45Z</time>
      </trkpt>
      <trkpt lat="43.07047" lon="-0.50751">
        <ele>1036.47</ele>
        <time>2021-06-05T23:24:48Z</time>
      </trkpt>
      <trkpt lat="43.07047" lon="-0.50751">
        <ele>1036.47</ele>
        <time>2021-06-05T23:24:48Z</time>
      </trkpt>
      <trkpt lat="43.07043" lon="-0.50721">
        <ele>1037.64</ele>
        <time>2021-06-05T23:24:51Z</time>
      </trkpt>
      <trkpt lat="43.07032" lon="-0.50681">
        <ele>1041.25</ele>
        <time>2021-06-05T23:24:53Z</time>
      </trkpt>
      <trkpt lat="43.07023" lon="-0.5066">
        <ele>1041.93</ele>
        <time>2021-06-05T23:24:56Z</time>
      </trkpt>
      <trkpt lat="43.07009" lon="-0.50634">
        <ele>1039.99</ele>
        <time>2021-06-05T23:24:58Z</time>
      </trkpt>
      <trkpt lat="43.07003" lon="-0.50629">
        <ele>1040.07</ele>
        <time>2021-06-05T23:25:01Z</time>
      </trkpt>
      <trkpt lat="43.06984" lon="-0.50621">
        <ele>1043.07</ele>
        <time>2021-06-05T23:25:03Z</time>
      </trkpt>
      <trkpt lat="43.06973" lon="-0.50612">
        <ele>1043.09</ele>
        <time>2021-06-05T23:25:05Z</time>
      </trkpt>
      <trkpt lat="43.06951" lon="-0.50565">
        <ele>1038.83</ele>
        <time>2021-06-05T23:25:08Z</time>
      </trkpt>
      <trkpt lat="43.06934" lon="-0.50535">
        <ele>1039.95</ele>
        <time>2021-06-05T23:25:10Z</time>
      </trkpt>
      <trkpt lat="43.06921" lon="-0.50498">
        <ele>1039.53</ele>
        <time>2021-06-05T23:25:13Z</time>
      </trkpt>
      <trkpt lat="43.06918" lon="-0.5047">
        <ele>1039.34</ele>
        <time>2021-06-05T23:25:15Z</time>
      </trkpt>
      <trkpt lat="43.06919" lon="-0.50452">
        <ele>1038.96</ele>
        <time>2021-06-05T23:25:17Z</time>
      </trkpt>
      <trkpt lat="43.06939" lon="-0.50377">
        <ele>1029.32</ele>
        <time>2021-06-05T23:25:20Z</time>
      </trkpt>
      <trkpt lat="43.06942" lon="-0.50359">
        <ele>1029.43</ele>
        <time>2021-06-05T23:25:22Z</time>
      </trkpt>
      <trkpt lat="43.06946" lon="-0.50306">
        <ele>1027.16</ele>
        <time>2021-06-05T23:25:25Z</time>
      </trkpt>
      <trkpt lat="43.06946" lon="-0.50288">
        <ele>1027.29</ele>
        <time>2021-06-05T23:25:27Z</time>
      </trkpt>
      <trkpt lat="43.06938" lon="-0.50222">
        <ele>1027.55</ele>
        <time>2021-06-05T23:25:30Z</time>
      </trkpt>
      <trkpt lat="43.06933" lon="-0.5021">
        <ele>1026.36</ele>
        <time>2021-06-05T23:25:32Z</time>
      </trkpt>
      <trkpt lat="43.0692" lon="-0.50185">
        <ele>1025.65</ele>
        <time>2021-06-05T23:25:34Z</time>
      </trkpt>
      <trkpt lat="43.06889" lon="-0.50152">
        <ele>1027.27</ele>
        <time>2021-06-05T23:25:37Z</time>
      </trkpt>
      <trkpt lat="43.06854" lon="-0.50101">
        <ele>1018.57</ele>
        <time>2021-06-05T23:25:39Z</time>
      </trkpt>
      <trkpt lat="43.06841" lon="-0.50089">
        <ele>1016.5</ele>
        <time>2021-06-05T23:25:42Z</time>
      </trkpt>
      <trkpt lat="43.06816" lon="-0.50078">
        <ele>1016.36</ele>
        <time>2021-06-05T23:25:44Z</time>
      </trkpt>
      <trkpt lat="43.06796" lon="-0.50062">
        <ele>1014.21</ele>
        <time>2021-06-05T23:25:46Z</time>
      </trkpt>
      <trkpt lat="43.06781" lon="-0.50054">
        <ele>1012.49</ele>
        <time>2021-06-05T23:25:49Z</time>
      </trkpt>
      <trkpt lat="43.06745" lon="-0.50052">
        <ele>1011.12</ele>
        <time>2021-06-05T23:25:51Z</time>
      </trkpt>
      <trkpt lat="43.06712" lon="-0.50044">
        <ele>1006.28</ele>
        <time>2021-06-05T23:25:54Z</time>
      </trkpt>
      <trkpt lat="43.06704" lon="-0.50045">
        <ele>1005.43</ele>
        <time>2021-06-05T23:25:56Z</time>
      </trkpt>
      <trkpt lat="43.06687" lon="-0.50054">
        <ele>1005.57</ele>
        <time>2021-06-05T23:25:59Z</time>
      </trkpt>
      <trkpt lat="43.06598" lon="-0.50123">
        <ele>1017.75</ele>
        <time>2021-06-05T23:26:01Z</time>
      </trkpt>
      <trkpt lat="43.0653" lon="-0.50195">
        <ele>1018.21</ele>
        <time>2021-06-05T23:26:03Z</time>
      </trkpt>
      <trkpt lat="43.06517" lon="-0.50199">
        <ele>1016.9</ele>
        <time>2021-06-05T23:26:06Z</time>
      </trkpt>
      <trkpt lat="43.06506" lon="-0.50195">
        <ele>1014.85</ele>
        <time>2021-06-05T23:26:08Z</time>
      </trkpt>
      <trkpt lat="43.06503" lon="-0.50192">
        <ele>1014.15</ele>
        <time>2021-06-05T23:26:11Z</time>
      </trkpt>
      <trkpt lat="43.065" lon="-0.50185">
        <ele>1013.38</ele>
        <time>2021-06-05T23:26:13Z</time>
      </trkpt>
      <trkpt lat="43.06498" lon="-0.50167">
        <ele>1012.66</ele>
        <time>2021-06-05T23:26:15Z</time>
      </trkpt>
      <trkpt lat="43.06498" lon="-0.50133">
        <ele>1011.22</ele>
        <time>2021-06-05T23:26:18Z</time>
      </trkpt>
      <trkpt lat="43.06499" lon="-0.50109">
        <ele>1010.69</ele>
        <time>2021-06-05T23:26:20Z</time>
      </trkpt>
      <trkpt lat="43.0652" lon="-0.50005">
        <ele>1010.27</ele>
        <time>2021-06-05T23:26:23Z</time>
      </trkpt>
      <trkpt lat="43.06524" lon="-0.49981">
        <ele>1010.71</ele>
        <time>2021-06-05T23:26:25Z</time>
      </trkpt>
      <trkpt lat="43.06525" lon="-0.49934">
        <ele>1012.04</ele>
        <time>2021-06-05T23:26:28Z</time>
      </trkpt>
      <trkpt lat="43.06524" lon="-0.49916">
        <ele>1012.41</ele>
        <time>2021-06-05T23:26:30Z</time>
      </trkpt>
      <trkpt lat="43.06517" lon="-0.49883">
        <ele>1011.59</ele>
        <time>2021-06-05T23:26:32Z</time>
      </trkpt>
      <trkpt lat="43.06509" lon="-0.4985">
        <ele>1009.23</ele>
        <time>2021-06-05T23:26:35Z</time>
      </trkpt>
      <trkpt lat="43.06504" lon="-0.49837">
        <ele>1007.98</ele>
        <time>2021-06-05T23:26:37Z</time>
      </trkpt>
      <trkpt lat="43.06499" lon="-0.49828">
        <ele>1007.29</ele>
        <time>2021-06-05T23:26:40Z</time>
      </trkpt>
      <trkpt lat="43.06488" lon="-0.4982">
        <ele>1006.5</ele>
        <time>2021-06-05T23:26:42Z</time>
      </trkpt>
      <trkpt lat="43.06482" lon="-0.49819">
        <ele>1006.52</ele>
        <time>2021-06-05T23:26:44Z</time>
      </trkpt>
      <trkpt lat="43.06478" lon="-0.4982">
        <ele>1006.87</ele>
        <time>2021-06-05T23:26:47Z</time>
      </trkpt>
      <trkpt lat="43.06442" lon="-0.49854">
        <ele>1013.41</ele>
        <time>2021-06-05T23:26:49Z</time>
      </trkpt>
      <trkpt lat="43.06428" lon="-0.49865">
        <ele>1015.95</ele>
        <time>2021-06-05T23:26:52Z</time>
      </trkpt>
      <trkpt lat="43.06409" lon="-0.4987">
        <ele>1017.84</ele>
        <time>2021-06-05T23:26:54Z</time>
      </trkpt>
      <trkpt lat="43.06394" lon="-0.49868">
        <ele>1018.27</ele>
        <time>2021-06-05T23:26:57Z</time>
      </trkpt>
      <trkpt lat="43.06382" lon="-0.4986">
        <ele>1017.78</ele>
        <time>2021-06-05T23:26:59Z</time>
      </trkpt>
      <trkpt lat="43.06373" lon="-0.49849">
        <ele>1017.22</ele>
        <time>2021-06-05T23:27:01Z</time>
      </trkpt>
      <trkpt lat="43.06341" lon="-0.49805">
        <ele>1018.91</ele>
        <time>2021-06-05T23:27:04Z</time>
      </trkpt>
      <trkpt lat="43.06319" lon="-0.4977">
        <ele>1015.3</ele>
        <time>2021-06-05T23:27:06Z</time>
      </trkpt>
      <trkpt lat="43.06295" lon="-0.49747">
        <ele>1013.69</ele>
        <time>2021-06-05T23:27:09Z</time>
      </trkpt>
      <trkpt lat="43.0627" lon="-0.49715">
        <ele>1012.08</ele>
        <time>2021-06-05T23:27:11Z</time>
      </trkpt>
      <trkpt lat="43.06255" lon="-0.49704">
        <ele>1011.47</ele>
        <time>2021-06-05T23:27:13Z</time>
      </trkpt>
      <trkpt lat="43.06238" lon="-0.49698">
        <ele>1012.77</ele>
        <time>2021-06-05T23:27:16Z</time>
      </trkpt>
      <trkpt lat="43.06225" lon="-0.49691">
        <ele>1013.54</ele>
        <time>2021-06-05T23:27:18Z</time>
      </trkpt>
      <trkpt lat="43.06194" lon="-0.49653">
        <ele>1012.16</ele>
        <time>2021-06-05T23:27:21Z</time>
      </trkpt>
      <trkpt lat="43.06183" lon="-0.49646">
        <ele>1013.2</ele>
        <time>2021-06-05T23:27:23Z</time>
      </trkpt>
      <trkpt lat="43.0617" lon="-0.49642">
        <ele>1014.34</ele>
        <time>2021-06-05T23:27:26Z</time>
      </trkpt>
      <trkpt lat="43.06143" lon="-0.49638">
        <ele>1016.33</ele>
        <time>2021-06-05T23:27:28Z</time>
      </trkpt>
      <trkpt lat="43.06115" lon="-0.49638">
        <ele>1017.45</ele>
        <time>2021-06-05T23:27:30Z</time>
      </trkpt>
      <trkpt lat="43.06087" lon="-0.49623">
        <ele>1015.58</ele>
        <time>2021-06-05T23:27:33Z</time>
      </trkpt>
      <trkpt lat="43.06078" lon="-0.4962">
        <ele>1016.05</ele>
        <time>2021-06-05T23:27:35Z</time>
      </trkpt>
      <trkpt lat="43.06061" lon="-0.49617">
        <ele>1019.4</ele>
        <time>2021-06-05T23:27:38Z</time>
      </trkpt>
      <trkpt lat="43.06052" lon="-0.49613">
        <ele>1020.82</ele>
        <time>2021-06-05T23:27:40Z</time>
      </trkpt>
      <trkpt lat="43.06047" lon="-0.49609">
        <ele>1021.48</ele>
        <time>2021-06-05T23:27:42Z</time>
      </trkpt>
      <trkpt lat="43.06037" lon="-0.49596">
        <ele>1021.87</ele>
        <time>2021-06-05T23:27:45Z</time>
      </trkpt>
      <trkpt lat="43.06008" lon="-0.49466">
        <ele>1018.2</ele>
        <time>2021-06-05T23:27:47Z</time>
      </trkpt>
      <trkpt lat="43.06005" lon="-0.49436">
        <ele>1018.34</ele>
        <time>2021-06-05T23:27:50Z</time>
      </trkpt>
      <trkpt lat="43.06007" lon="-0.49411">
        <ele>1016.9</ele>
        <time>2021-06-05T23:27:52Z</time>
      </trkpt>
      <trkpt lat="43.06026" lon="-0.49364">
        <ele>1012.31</ele>
        <time>2021-06-05T23:27:55Z</time>
      </trkpt>
      <trkpt lat="43.0605" lon="-0.49312">
        <ele>1010.37</ele>
        <time>2021-06-05T23:27:57Z</time>
      </trkpt>
      <trkpt lat="43.06061" lon="-0.49274">
        <ele>1009.4</ele>
        <time>2021-06-05T23:27:59Z</time>
      </trkpt>
      <trkpt lat="43.0606" lon="-0.49243">
        <ele>1010.64</ele>
        <time>2021-06-05T23:28:02Z</time>
      </trkpt>
      <trkpt lat="43.06011" lon="-0.49097">
        <ele>1011.72</ele>
        <time>2021-06-05T23:28:04Z</time>
      </trkpt>
      <trkpt lat="43.06006" lon="-0.49088">
        <ele>1011.02</ele>
        <time>2021-06-05T23:28:07Z</time>
      </trkpt>
      <trkpt lat="43.05999" lon="-0.49084">
        <ele>1010.99</ele>
        <time>2021-06-05T23:28:09Z</time>
      </trkpt>
      <trkpt lat="43.05993" lon="-0.49084">
        <ele>1010.05</ele>
        <time>2021-06-05T23:28:11Z</time>
      </trkpt>
      <trkpt lat="43.05987" lon="-0.49088">
        <ele>1009.75</ele>
        <time>2021-06-05T23:28:14Z</time>
      </trkpt>
      <trkpt lat="43.05971" lon="-0.49115">
        <ele>1011.35</ele>
        <time>2021-06-05T23:28:16Z</time>
      </trkpt>
      <trkpt lat="43.05954" lon="-0.49136">
        <ele>1011.58</ele>
        <time>2021-06-05T23:28:19Z</time>
      </trkpt>
      <trkpt lat="43.0595" lon="-0.49145">
        <ele>1011.87</ele>
        <time>2021-06-05T23:28:21Z</time>
      </trkpt>
      <trkpt lat="43.05946" lon="-0.49157">
        <ele>1012.4</ele>
        <time>2021-06-05T23:28:24Z</time>
      </trkpt>
      <trkpt lat="43.05938" lon="-0.49246">
        <ele>1014.23</ele>
        <time>2021-06-05T23:28:26Z</time>
      </trkpt>
      <trkpt lat="43.05929" lon="-0.49297">
        <ele>1014.62</ele>
        <time>2021-06-05T23:28:28Z</time>
      </trkpt>
      <trkpt lat="43.05921" lon="-0.49318">
        <ele>1016.22</ele>
        <time>2021-06-05T23:28:31Z</time>
      </trkpt>
      <trkpt lat="43.05914" lon="-0.4933">
        <ele>1018.04</ele>
        <time>2021-06-05T23:28:33Z</time>
      </trkpt>
      <trkpt lat="43.05891" lon="-0.49347">
        <ele>1021.8</ele>
        <time>2021-06-05T23:28:36Z</time>
      </trkpt>
      <trkpt lat="43.05875" lon="-0.49346">
        <ele>1020.83</ele>
        <time>2021-06-05T23:28:38Z</time>
      </trkpt>
      <trkpt lat="43.05867" lon="-0.49341">
        <ele>1018.13</ele>
        <time>2021-06-05T23:28:40Z</time>
      </trkpt>
      <trkpt lat="43.05841" lon="-0.49316">
        <ele>1007.5</ele>
        <time>2021-06-05T23:28:43Z</time>
      </trkpt>
      <trkpt lat="43.05836" lon="-0.49304">
        <ele>1005.02</ele>
        <time>2021-06-05T23:28:45Z</time>
      </trkpt>
      <trkpt lat="43.05836" lon="-0.49292">
        <ele>1004.09</ele>
        <time>2021-06-05T23:28:48Z</time>
      </trkpt>
      <trkpt lat="43.05841" lon="-0.49279">
        <ele>1003.09</ele>
        <time>2021-06-05T23:28:50Z</time>
      </trkpt>
      <trkpt lat="43.05868" lon="-0.49242">
        <ele>1002.74</ele>
        <time>2021-06-05T23:28:52Z</time>
      </trkpt>
      <trkpt lat="43.05882" lon="-0.49218">
        <ele>1003.71</ele>
        <time>2021-06-05T23:28:55Z</time>
      </trkpt>
      <trkpt lat="43.05897" lon="-0.49152">
        <ele>997.55</ele>
        <time>2021-06-05T23:28:57Z</time>
      </trkpt>
      <trkpt lat="43.05905" lon="-0.49126">
        <ele>994.97</ele>
        <time>2021-06-05T23:29:00Z</time>
      </trkpt>
      <trkpt lat="43.05916" lon="-0.49105">
        <ele>993.89</ele>
        <time>2021-06-05T23:29:02Z</time>
      </trkpt>
      <trkpt lat="43.05936" lon="-0.49077">
        <ele>996.55</ele>
        <time>2021-06-05T23:29:05Z</time>
      </trkpt>
      <trkpt lat="43.05943" lon="-0.49063">
        <ele>995.41</ele>
        <time>2021-06-05T23:29:07Z</time>
      </trkpt>
      <trkpt lat="43.0597" lon="-0.48994">
        <ele>981.57</ele>
        <time>2021-06-05T23:29:09Z</time>
      </trkpt>
      <trkpt lat="43.06007" lon="-0.48918">
        <ele>971.59</ele>
        <time>2021-06-05T23:29:12Z</time>
      </trkpt>
      <trkpt lat="43.06023" lon="-0.48869">
        <ele>960.03</ele>
        <time>2021-06-05T23:29:14Z</time>
      </trkpt>
      <trkpt lat="43.06027" lon="-0.48861">
        <ele>957.99</ele>
        <time>2021-06-05T23:29:17Z</time>
      </trkpt>
      <trkpt lat="43.06049" lon="-0.48839">
        <ele>955.45</ele>
        <time>2021-06-05T23:29:19Z</time>
      </trkpt>
      <trkpt lat="43.0605" lon="-0.48829">
        <ele>953.98</ele>
        <time>2021-06-05T23:29:21Z</time>
      </trkpt>
      <trkpt lat="43.06048" lon="-0.48825">
        <ele>953.33</ele>
        <time>2021-06-05T23:29:24Z</time>
      </trkpt>
      <trkpt lat="43.06043" lon="-0.48822">
        <ele>952.46</ele>
        <time>2021-06-05T23:29:26Z</time>
      </trkpt>
      <trkpt lat="43.06037" lon="-0.48824">
        <ele>952.17</ele>
        <time>2021-06-05T23:29:29Z</time>
      </trkpt>
      <trkpt lat="43.06027" lon="-0.48831">
        <ele>952.47</ele>
        <time>2021-06-05T23:29:31Z</time>
      </trkpt>
      <trkpt lat="43.06005" lon="-0.48857">
        <ele>954.75</ele>
        <time>2021-06-05T23:29:34Z</time>
      </trkpt>
      <trkpt lat="43.0597" lon="-0.48884">
        <ele>952.97</ele>
        <time>2021-06-05T23:29:36Z</time>
      </trkpt>
      <trkpt lat="43.05956" lon="-0.48903">
        <ele>954.93</ele>
        <time>2021-06-05T23:29:38Z</time>
      </trkpt>
      <trkpt lat="43.05947" lon="-0.48911">
        <ele>954.88</ele>
        <time>2021-06-05T23:29:41Z</time>
      </trkpt>
      <trkpt lat="43.05927" lon="-0.48921">
        <ele>951.24</ele>
        <time>2021-06-05T23:29:43Z</time>
      </trkpt>
      <trkpt lat="43.05918" lon="-0.48924">
        <ele>949.15</ele>
        <time>2021-06-05T23:29:46Z</time>
      </trkpt>
      <trkpt lat="43.05909" lon="-0.48924">
        <ele>948.36</ele>
        <time>2021-06-05T23:29:48Z</time>
      </trkpt>
      <trkpt lat="43.05899" lon="-0.48917">
        <ele>946.48</ele>
        <time>2021-06-05T23:29:50Z</time>
      </trkpt>
      <trkpt lat="43.05895" lon="-0.48911">
        <ele>945.36</ele>
        <time>2021-06-05T23:29:53Z</time>
      </trkpt>
      <trkpt lat="43.05895" lon="-0.48901">
        <ele>943.77</ele>
        <time>2021-06-05T23:29:55Z</time>
      </trkpt>
      <trkpt lat="43.05907" lon="-0.48872">
        <ele>939.35</ele>
        <time>2021-06-05T23:29:58Z</time>
      </trkpt>
      <trkpt lat="43.0596" lon="-0.4869">
        <ele>918.92</ele>
        <time>2021-06-05T23:30:00Z</time>
      </trkpt>
      <trkpt lat="43.0598" lon="-0.48626">
        <ele>911.88</ele>
        <time>2021-06-05T23:30:03Z</time>
      </trkpt>
      <trkpt lat="43.06002" lon="-0.48563">
        <ele>907.15</ele>
        <time>2021-06-05T23:30:05Z</time>
      </trkpt>
      <trkpt lat="43.06056" lon="-0.48224">
        <ele>888.11</ele>
        <time>2021-06-05T23:30:07Z</time>
      </trkpt>
      <trkpt lat="43.06076" lon="-0.48033">
        <ele>882.93</ele>
        <time>2021-06-05T23:30:10Z</time>
      </trkpt>
      <trkpt lat="43.06113" lon="-0.47872">
        <ele>880.39</ele>
        <time>2021-06-05T23:30:12Z</time>
      </trkpt>
      <trkpt lat="43.06123" lon="-0.47848">
        <ele>879.94</ele>
        <time>2021-06-05T23:30:15Z</time>
      </trkpt>
      <trkpt lat="43.06136" lon="-0.47826">
        <ele>879.61</ele>
        <time>2021-06-05T23:30:17Z</time>
      </trkpt>
      <trkpt lat="43.0618" lon="-0.47714">
        <ele>880.28</ele>
        <time>2021-06-05T23:30:19Z</time>
      </trkpt>
      <trkpt lat="43.06229" lon="-0.47539">
        <ele>878.15</ele>
        <time>2021-06-05T23:30:22Z</time>
      </trkpt>
      <trkpt lat="43.06259" lon="-0.47448">
        <ele>879.67</ele>
        <time>2021-06-05T23:30:24Z</time>
      </trkpt>
      <trkpt lat="43.06273" lon="-0.47421">
        <ele>879.72</ele>
        <time>2021-06-05T23:30:27Z</time>
      </trkpt>
      <trkpt lat="43.06333" lon="-0.47394">
        <ele>877.65</ele>
        <time>2021-06-05T23:30:29Z</time>
      </trkpt>
      <trkpt lat="43.06348" lon="-0.47377">
        <ele>878.43</ele>
        <time>2021-06-05T23:30:32Z</time>
      </trkpt>
      <trkpt lat="43.06373" lon="-0.47323">
        <ele>879.59</ele>
        <time>2021-06-05T23:30:34Z</time>
      </trkpt>
      <trkpt lat="43.06397" lon="-0.47241">
        <ele>878.52</ele>
        <time>2021-06-05T23:30:36Z</time>
      </trkpt>
      <trkpt lat="43.06414" lon="-0.47175">
        <ele>878.47</ele>
        <time>2021-06-05T23:30:39Z</time>
      </trkpt>
      <trkpt lat="43.06425" lon="-0.47142">
        <ele>878.6</ele>
        <time>2021-06-05T23:30:41Z</time>
      </trkpt>
      <trkpt lat="43.06437" lon="-0.47125">
        <ele>878.75</ele>
        <time>2021-06-05T23:30:44Z</time>
      </trkpt>
      <trkpt lat="43.06492" lon="-0.47068">
        <ele>876.6</ele>
        <time>2021-06-05T23:30:46Z</time>
      </trkpt>
      <trkpt lat="43.06501" lon="-0.47057">
        <ele>876.06</ele>
        <time>2021-06-05T23:30:48Z</time>
      </trkpt>
      <trkpt lat="43.06505" lon="-0.47047">
        <ele>875.7</ele>
        <time>2021-06-05T23:30:51Z</time>
      </trkpt>
      <trkpt lat="43.06507" lon="-0.47029">
        <ele>875.03</ele>
        <time>2021-06-05T23:30:53Z</time>
      </trkpt>
      <trkpt lat="43.06505" lon="-0.47003">
        <ele>874.83</ele>
        <time>2021-06-05T23:30:56Z</time>
      </trkpt>
      <trkpt lat="43.06506" lon="-0.46965">
        <ele>875.38</ele>
        <time>2021-06-05T23:30:58Z</time>
      </trkpt>
      <trkpt lat="43.06511" lon="-0.46941">
        <ele>876.33</ele>
        <time>2021-06-05T23:31:01Z</time>
      </trkpt>
      <trkpt lat="43.06533" lon="-0.46843">
        <ele>880.93</ele>
        <time>2021-06-05T23:31:03Z</time>
      </trkpt>
      <trkpt lat="43.06546" lon="-0.46582">
        <ele>883.65</ele>
        <time>2021-06-05T23:31:05Z</time>
      </trkpt>
      <trkpt lat="43.06543" lon="-0.4655">
        <ele>882.99</ele>
        <time>2021-06-05T23:31:08Z</time>
      </trkpt>
      <trkpt lat="43.06534" lon="-0.46511">
        <ele>881.63</ele>
        <time>2021-06-05T23:31:10Z</time>
      </trkpt>
      <trkpt lat="43.06533" lon="-0.46493">
        <ele>880.99</ele>
        <time>2021-06-05T23:31:13Z</time>
      </trkpt>
      <trkpt lat="43.06537" lon="-0.46444">
        <ele>879.17</ele>
        <time>2021-06-05T23:31:15Z</time>
      </trkpt>
      <trkpt lat="43.06535" lon="-0.4642">
        <ele>875.99</ele>
        <time>2021-06-05T23:31:17Z</time>
      </trkpt>
      <trkpt lat="43.06537" lon="-0.46407">
        <ele>874.32</ele>
        <time>2021-06-05T23:31:20Z</time>
      </trkpt>
      <trkpt lat="43.0655" lon="-0.46375">
        <ele>873.51</ele>
        <time>2021-06-05T23:31:22Z</time>
      </trkpt>
      <trkpt lat="43.06562" lon="-0.4633">
        <ele>870.71</ele>
        <time>2021-06-05T23:31:25Z</time>
      </trkpt>
      <trkpt lat="43.06572" lon="-0.463">
        <ele>870.97</ele>
        <time>2021-06-05T23:31:27Z</time>
      </trkpt>
      <trkpt lat="43.06595" lon="-0.46249">
        <ele>872.66</ele>
        <time>2021-06-05T23:31:30Z</time>
      </trkpt>
      <trkpt lat="43.06616" lon="-0.46179">
        <ele>871.29</ele>
        <time>2021-06-05T23:31:32Z</time>
      </trkpt>
      <trkpt lat="43.06625" lon="-0.46161">
        <ele>871.98</ele>
        <time>2021-06-05T23:31:34Z</time>
      </trkpt>
      <trkpt lat="43.06631" lon="-0.46146">
        <ele>871.71</ele>
        <time>2021-06-05T23:31:37Z</time>
      </trkpt>
      <trkpt lat="43.06632" lon="-0.46102">
        <ele>869.39</ele>
        <time>2021-06-05T23:31:39Z</time>
      </trkpt>
      <trkpt lat="43.06629" lon="-0.46017">
        <ele>866.87</ele>
        <time>2021-06-05T23:31:42Z</time>
      </trkpt>
      <trkpt lat="43.06627" lon="-0.46002">
        <ele>867.11</ele>
        <time>2021-06-05T23:31:44Z</time>
      </trkpt>
      <trkpt lat="43.06623" lon="-0.4599">
        <ele>866.64</ele>
        <time>2021-06-05T23:31:46Z</time>
      </trkpt>
      <trkpt lat="43.06613" lon="-0.45981">
        <ele>864.16</ele>
        <time>2021-06-05T23:31:49Z</time>
      </trkpt>
      <trkpt lat="43.06576" lon="-0.45955">
        <ele>855.35</ele>
        <time>2021-06-05T23:31:51Z</time>
      </trkpt>
      <trkpt lat="43.06561" lon="-0.45933">
        <ele>854.71</ele>
        <time>2021-06-05T23:31:54Z</time>
      </trkpt>
      <trkpt lat="43.06548" lon="-0.45896">
        <ele>855.7</ele>
        <time>2021-06-05T23:31:56Z</time>
      </trkpt>
      <trkpt lat="43.06542" lon="-0.45887">
        <ele>855.32</ele>
        <time>2021-06-05T23:31:59Z</time>
      </trkpt>
      <trkpt lat="43.06511" lon="-0.45874">
        <ele>850.08</ele>
        <time>2021-06-05T23:32:01Z</time>
      </trkpt>
      <trkpt lat="43.06469" lon="-0.45835">
        <ele>847.16</ele>
        <time>2021-06-05T23:32:03Z</time>
      </trkpt>
      <trkpt lat="43.06446" lon="-0.4582">
        <ele>843.74</ele>
        <time>2021-06-05T23:32:06Z</time>
      </trkpt>
      <trkpt lat="43.06429" lon="-0.45815">
        <ele>841.57</ele>
        <time>2021-06-05T23:32:08Z</time>
      </trkpt>
      <trkpt lat="43.06411" lon="-0.45813">
        <ele>839.78</ele>
        <time>2021-06-05T23:32:11Z</time>
      </trkpt>
      <trkpt lat="43.06392" lon="-0.45809">
        <ele>839.98</ele>
        <time>2021-06-05T23:32:13Z</time>
      </trkpt>
      <trkpt lat="43.06377" lon="-0.45801">
        <ele>840</ele>
        <time>2021-06-05T23:32:15Z</time>
      </trkpt>
      <trkpt lat="43.0635" lon="-0.45777">
        <ele>838.8</ele>
        <time>2021-06-05T23:32:18Z</time>
      </trkpt>
      <trkpt lat="43.06343" lon="-0.45775">
        <ele>837.92</ele>
        <time>2021-06-05T23:32:20Z</time>
      </trkpt>
      <trkpt lat="43.06333" lon="-0.45775">
        <ele>836.88</ele>
        <time>2021-06-05T23:32:23Z</time>
      </trkpt>
      <trkpt lat="43.06309" lon="-0.45786">
        <ele>835.24</ele>
        <time>2021-06-05T23:32:25Z</time>
      </trkpt>
      <trkpt lat="43.06295" lon="-0.45788">
        <ele>834.76</ele>
        <time>2021-06-05T23:32:28Z</time>
      </trkpt>
      <trkpt lat="43.06282" lon="-0.45785">
        <ele>834.37</ele>
        <time>2021-06-05T23:32:30Z</time>
      </trkpt>
      <trkpt lat="43.0625" lon="-0.45765">
        <ele>832.71</ele>
        <time>2021-06-05T23:32:32Z</time>
      </trkpt>
      <trkpt lat="43.06235" lon="-0.4576">
        <ele>833.1</ele>
        <time>2021-06-05T23:32:35Z</time>
      </trkpt>
      <trkpt lat="43.06208" lon="-0.45761">
        <ele>834.59</ele>
        <time>2021-06-05T23:32:37Z</time>
      </trkpt>
      <trkpt lat="43.06196" lon="-0.45759">
        <ele>834.25</ele>
        <time>2021-06-05T23:32:40Z</time>
      </trkpt>
      <trkpt lat="43.06185" lon="-0.45753">
        <ele>831.99</ele>
        <time>2021-06-05T23:32:42Z</time>
      </trkpt>
      <trkpt lat="43.0616" lon="-0.45729">
        <ele>828.5</ele>
        <time>2021-06-05T23:32:44Z</time>
      </trkpt>
      <trkpt lat="43.06153" lon="-0.45721">
        <ele>827.92</ele>
        <time>2021-06-05T23:32:47Z</time>
      </trkpt>
      <trkpt lat="43.06152" lon="-0.45714">
        <ele>827.56</ele>
        <time>2021-06-05T23:32:49Z</time>
      </trkpt>
      <trkpt lat="43.06153" lon="-0.45705">
        <ele>827.07</ele>
        <time>2021-06-05T23:32:52Z</time>
      </trkpt>
      <trkpt lat="43.06159" lon="-0.45694">
        <ele>826.22</ele>
        <time>2021-06-05T23:32:54Z</time>
      </trkpt>
      <trkpt lat="43.06196" lon="-0.45666">
        <ele>821.82</ele>
        <time>2021-06-05T23:32:57Z</time>
      </trkpt>
      <trkpt lat="43.0621" lon="-0.45646">
        <ele>819.97</ele>
        <time>2021-06-05T23:32:59Z</time>
      </trkpt>
      <trkpt lat="43.06214" lon="-0.45634">
        <ele>818.98</ele>
        <time>2021-06-05T23:33:01Z</time>
      </trkpt>
      <trkpt lat="43.06218" lon="-0.45614">
        <ele>817.59</ele>
        <time>2021-06-05T23:33:04Z</time>
      </trkpt>
      <trkpt lat="43.06217" lon="-0.45604">
        <ele>816.13</ele>
        <time>2021-06-05T23:33:06Z</time>
      </trkpt>
      <trkpt lat="43.06212" lon="-0.4559">
        <ele>813.97</ele>
        <time>2021-06-05T23:33:09Z</time>
      </trkpt>
      <trkpt lat="43.06206" lon="-0.4558">
        <ele>812.11</ele>
        <time>2021-06-05T23:33:11Z</time>
      </trkpt>
      <trkpt lat="43.0619" lon="-0.45571">
        <ele>810.33</ele>
        <time>2021-06-05T23:33:13Z</time>
      </trkpt>
      <trkpt lat="43.06086" lon="-0.4556">
        <ele>802.42</ele>
        <time>2021-06-05T23:33:16Z</time>
      </trkpt>
      <trkpt lat="43.06072" lon="-0.45556">
        <ele>799.03</ele>
        <time>2021-06-05T23:33:18Z</time>
      </trkpt>
      <trkpt lat="43.05957" lon="-0.45503">
        <ele>781.98</ele>
        <time>2021-06-05T23:33:21Z</time>
      </trkpt>
      <trkpt lat="43.05918" lon="-0.45492">
        <ele>776.1</ele>
        <time>2021-06-05T23:33:23Z</time>
      </trkpt>
      <trkpt lat="43.05891" lon="-0.45477">
        <ele>772.89</ele>
        <time>2021-06-05T23:33:26Z</time>
      </trkpt>
      <trkpt lat="43.05868" lon="-0.45475">
        <ele>769.54</ele>
        <time>2021-06-05T23:33:28Z</time>
      </trkpt>
      <trkpt lat="43.05862" lon="-0.45473">
        <ele>768.3</ele>
        <time>2021-06-05T23:33:30Z</time>
      </trkpt>
      <trkpt lat="43.05858" lon="-0.45467">
        <ele>766.92</ele>
        <time>2021-06-05T23:33:33Z</time>
      </trkpt>
      <trkpt lat="43.05856" lon="-0.45461">
        <ele>765.77</ele>
        <time>2021-06-05T23:33:35Z</time>
      </trkpt>
      <trkpt lat="43.05855" lon="-0.45451">
        <ele>764.64</ele>
        <time>2021-06-05T23:33:38Z</time>
      </trkpt>
      <trkpt lat="43.05857" lon="-0.45443">
        <ele>764.08</ele>
        <time>2021-06-05T23:33:40Z</time>
      </trkpt>
      <trkpt lat="43.05861" lon="-0.45436">
        <ele>763.79</ele>
        <time>2021-06-05T23:33:42Z</time>
      </trkpt>
      <trkpt lat="43.05876" lon="-0.45428">
        <ele>763.89</ele>
        <time>2021-06-05T23:33:45Z</time>
      </trkpt>
      <trkpt lat="43.05896" lon="-0.45425">
        <ele>764.09</ele>
        <time>2021-06-05T23:33:47Z</time>
      </trkpt>
      <trkpt lat="43.05939" lon="-0.45432">
        <ele>763.82</ele>
        <time>2021-06-05T23:33:50Z</time>
      </trkpt>
      <trkpt lat="43.05956" lon="-0.45432">
        <ele>763.49</ele>
        <time>2021-06-05T23:33:52Z</time>
      </trkpt>
      <trkpt lat="43.0597" lon="-0.45426">
        <ele>762.02</ele>
        <time>2021-06-05T23:33:54Z</time>
      </trkpt>
      <trkpt lat="43.05983" lon="-0.45412">
        <ele>760.49</ele>
        <time>2021-06-05T23:33:57Z</time>
      </trkpt>
      <trkpt lat="43.0601" lon="-0.45362">
        <ele>753.26</ele>
        <time>2021-06-05T23:33:59Z</time>
      </trkpt>
      <trkpt lat="43.06023" lon="-0.45351">
        <ele>750.86</ele>
        <time>2021-06-05T23:34:02Z</time>
      </trkpt>
      <trkpt lat="43.0605" lon="-0.4534">
        <ele>749.24</ele>
        <time>2021-06-05T23:34:04Z</time>
      </trkpt>
      <trkpt lat="43.06084" lon="-0.45322">
        <ele>747.95</ele>
        <time>2021-06-05T23:34:07Z</time>
      </trkpt>
      <trkpt lat="43.06186" lon="-0.45247">
        <ele>736.62</ele>
        <time>2021-06-05T23:34:09Z</time>
      </trkpt>
      <trkpt lat="43.06207" lon="-0.45224">
        <ele>733.65</ele>
        <time>2021-06-05T23:34:11Z</time>
      </trkpt>
      <trkpt lat="43.06226" lon="-0.45193">
        <ele>729.29</ele>
        <time>2021-06-05T23:34:14Z</time>
      </trkpt>
      <trkpt lat="43.06286" lon="-0.45069">
        <ele>722.94</ele>
        <time>2021-06-05T23:34:16Z</time>
      </trkpt>
      <trkpt lat="43.0629" lon="-0.45056">
        <ele>721.68</ele>
        <time>2021-06-05T23:34:19Z</time>
      </trkpt>
      <trkpt lat="43.06293" lon="-0.45038">
        <ele>720.35</ele>
        <time>2021-06-05T23:34:21Z</time>
      </trkpt>
      <trkpt lat="43.06301" lon="-0.44936">
        <ele>720.49</ele>
        <time>2021-06-05T23:34:23Z</time>
      </trkpt>
      <trkpt lat="43.06301" lon="-0.4492">
        <ele>718.61</ele>
        <time>2021-06-05T23:34:26Z</time>
      </trkpt>
      <trkpt lat="43.06296" lon="-0.44884">
        <ele>713.76</ele>
        <time>2021-06-05T23:34:28Z</time>
      </trkpt>
      <trkpt lat="43.06293" lon="-0.44801">
        <ele>709.47</ele>
        <time>2021-06-05T23:34:31Z</time>
      </trkpt>
      <trkpt lat="43.0629" lon="-0.44782">
        <ele>707.58</ele>
        <time>2021-06-05T23:34:33Z</time>
      </trkpt>
      <trkpt lat="43.06279" lon="-0.44738">
        <ele>700.47</ele>
        <time>2021-06-05T23:34:36Z</time>
      </trkpt>
      <trkpt lat="43.06263" lon="-0.44643">
        <ele>703.52</ele>
        <time>2021-06-05T23:34:38Z</time>
      </trkpt>
      <trkpt lat="43.06258" lon="-0.44607">
        <ele>697.6</ele>
        <time>2021-06-05T23:34:40Z</time>
      </trkpt>
      <trkpt lat="43.06257" lon="-0.44578">
        <ele>695.57</ele>
        <time>2021-06-05T23:34:43Z</time>
      </trkpt>
      <trkpt lat="43.06264" lon="-0.44435">
        <ele>684.97</ele>
        <time>2021-06-05T23:34:45Z</time>
      </trkpt>
      <trkpt lat="43.06262" lon="-0.44362">
        <ele>677.73</ele>
        <time>2021-06-05T23:34:48Z</time>
      </trkpt>
      <trkpt lat="43.06261" lon="-0.4418">
        <ele>668.32</ele>
        <time>2021-06-05T23:34:50Z</time>
      </trkpt>
      <trkpt lat="43.06254" lon="-0.44103">
        <ele>659.97</ele>
        <time>2021-06-05T23:34:52Z</time>
      </trkpt>
      <trkpt lat="43.06256" lon="-0.44085">
        <ele>659.84</ele>
        <time>2021-06-05T23:34:55Z</time>
      </trkpt>
      <trkpt lat="43.06264" lon="-0.44058">
        <ele>662.24</ele>
        <time>2021-06-05T23:34:57Z</time>
      </trkpt>
      <trkpt lat="43.06264" lon="-0.44051">
        <ele>661.59</ele>
        <time>2021-06-05T23:35:00Z</time>
      </trkpt>
      <trkpt lat="43.06262" lon="-0.44042">
        <ele>659.75</ele>
        <time>2021-06-05T23:35:02Z</time>
      </trkpt>
      <trkpt lat="43.06258" lon="-0.44038">
        <ele>657.57</ele>
        <time>2021-06-05T23:35:05Z</time>
      </trkpt>
      <trkpt lat="43.06251" lon="-0.44034">
        <ele>654.25</ele>
        <time>2021-06-05T23:35:07Z</time>
      </trkpt>
      <trkpt lat="43.06245" lon="-0.44035">
        <ele>650.75</ele>
        <time>2021-06-05T23:35:09Z</time>
      </trkpt>
      <trkpt lat="43.06239" lon="-0.44042">
        <ele>647.87</ele>
        <time>2021-06-05T23:35:12Z</time>
      </trkpt>
      <trkpt lat="43.06235" lon="-0.44052">
        <ele>646.43</ele>
        <time>2021-06-05T23:35:14Z</time>
      </trkpt>
      <trkpt lat="43.06235" lon="-0.44113">
        <ele>650.38</ele>
        <time>2021-06-05T23:35:17Z</time>
      </trkpt>
      <trkpt lat="43.06207" lon="-0.44208">
        <ele>642.49</ele>
        <time>2021-06-05T23:35:19Z</time>
      </trkpt>
      <trkpt lat="43.06184" lon="-0.44301">
        <ele>638.82</ele>
        <time>2021-06-05T23:35:21Z</time>
      </trkpt>
      <trkpt lat="43.06171" lon="-0.44337">
        <ele>635.03</ele>
        <time>2021-06-05T23:35:24Z</time>
      </trkpt>
      <trkpt lat="43.06154" lon="-0.44372">
        <ele>633.47</ele>
        <time>2021-06-05T23:35:26Z</time>
      </trkpt>
      <trkpt lat="43.06134" lon="-0.44406">
        <ele>630.63</ele>
        <time>2021-06-05T23:35:29Z</time>
      </trkpt>
      <trkpt lat="43.06108" lon="-0.44439">
        <ele>628.65</ele>
        <time>2021-06-05T23:35:31Z</time>
      </trkpt>
      <trkpt lat="43.06097" lon="-0.44462">
        <ele>628.82</ele>
        <time>2021-06-05T23:35:34Z</time>
      </trkpt>
      <trkpt lat="43.0608" lon="-0.44506">
        <ele>628.13</ele>
        <time>2021-06-05T23:35:36Z</time>
      </trkpt>
      <trkpt lat="43.06071" lon="-0.44511">
        <ele>626.09</ele>
        <time>2021-06-05T23:35:38Z</time>
      </trkpt>
      <trkpt lat="43.06064" lon="-0.44508">
        <ele>623.84</ele>
        <time>2021-06-05T23:35:41Z</time>
      </trkpt>
      <trkpt lat="43.0606" lon="-0.44501">
        <ele>622.25</ele>
        <time>2021-06-05T23:35:43Z</time>
      </trkpt>
      <trkpt lat="43.0606" lon="-0.44486">
        <ele>621.91</ele>
        <time>2021-06-05T23:35:46Z</time>
      </trkpt>
      <trkpt lat="43.06065" lon="-0.44465">
        <ele>621.77</ele>
        <time>2021-06-05T23:35:48Z</time>
      </trkpt>
      <trkpt lat="43.0606" lon="-0.44406">
        <ele>615.1</ele>
        <time>2021-06-05T23:35:50Z</time>
      </trkpt>
      <trkpt lat="43.06061" lon="-0.44378">
        <ele>612.35</ele>
        <time>2021-06-05T23:35:53Z</time>
      </trkpt>
      <trkpt lat="43.06064" lon="-0.44353">
        <ele>609.77</ele>
        <time>2021-06-05T23:35:55Z</time>
      </trkpt>
      <trkpt lat="43.06049" lon="-0.44302">
        <ele>603.35</ele>
        <time>2021-06-05T23:35:58Z</time>
      </trkpt>
      <trkpt lat="43.06046" lon="-0.44275">
        <ele>601.99</ele>
        <time>2021-06-05T23:36:00Z</time>
      </trkpt>
      <trkpt lat="43.06055" lon="-0.44223">
        <ele>601.97</ele>
        <time>2021-06-05T23:36:03Z</time>
      </trkpt>
      <trkpt lat="43.06053" lon="-0.44176">
        <ele>594.23</ele>
        <time>2021-06-05T23:36:05Z</time>
      </trkpt>
      <trkpt lat="43.06057" lon="-0.44141">
        <ele>589.5</ele>
        <time>2021-06-05T23:36:07Z</time>
      </trkpt>
      <trkpt lat="43.06056" lon="-0.44117">
        <ele>587.58</ele>
        <time>2021-06-05T23:36:10Z</time>
      </trkpt>
      <trkpt lat="43.06038" lon="-0.44035">
        <ele>579.49</ele>
        <time>2021-06-05T23:36:12Z</time>
      </trkpt>
      <trkpt lat="43.06037" lon="-0.44004">
        <ele>575.79</ele>
        <time>2021-06-05T23:36:15Z</time>
      </trkpt>
      <trkpt lat="43.06042" lon="-0.43948">
        <ele>574.38</ele>
        <time>2021-06-05T23:36:17Z</time>
      </trkpt>
      <trkpt lat="43.06052" lon="-0.43921">
        <ele>574.85</ele>
        <time>2021-06-05T23:36:19Z</time>
      </trkpt>
      <trkpt lat="43.06119" lon="-0.43849">
        <ele>566.41</ele>
        <time>2021-06-05T23:36:22Z</time>
      </trkpt>
      <trkpt lat="43.06148" lon="-0.43808">
        <ele>566.94</ele>
        <time>2021-06-05T23:36:24Z</time>
      </trkpt>
      <trkpt lat="43.0617" lon="-0.43787">
        <ele>566.67</ele>
        <time>2021-06-05T23:36:27Z</time>
      </trkpt>
      <trkpt lat="43.06175" lon="-0.43778">
        <ele>566.14</ele>
        <time>2021-06-05T23:36:29Z</time>
      </trkpt>
      <trkpt lat="43.06173" lon="-0.43766">
        <ele>563.35</ele>
        <time>2021-06-05T23:36:32Z</time>
      </trkpt>
      <trkpt lat="43.06165" lon="-0.43757">
        <ele>560.01</ele>
        <time>2021-06-05T23:36:34Z</time>
      </trkpt>
      <trkpt lat="43.06158" lon="-0.43755">
        <ele>558.91</ele>
        <time>2021-06-05T23:36:36Z</time>
      </trkpt>
      <trkpt lat="43.06124" lon="-0.43782">
        <ele>559.04</ele>
        <time>2021-06-05T23:36:39Z</time>
      </trkpt>
      <trkpt lat="43.06105" lon="-0.4379">
        <ele>557.57</ele>
        <time>2021-06-05T23:36:41Z</time>
      </trkpt>
      <trkpt lat="43.06085" lon="-0.43792">
        <ele>554.48</ele>
        <time>2021-06-05T23:36:44Z</time>
      </trkpt>
      <trkpt lat="43.06052" lon="-0.43793">
        <ele>546.77</ele>
        <time>2021-06-05T23:36:46Z</time>
      </trkpt>
      <trkpt lat="43.05939" lon="-0.43809">
        <ele>529.87</ele>
        <time>2021-06-05T23:36:48Z</time>
      </trkpt>
      <trkpt lat="43.05913" lon="-0.43821">
        <ele>526.28</ele>
        <time>2021-06-05T23:36:51Z</time>
      </trkpt>
      <trkpt lat="43.05899" lon="-0.43838">
        <ele>525.15</ele>
        <time>2021-06-05T23:36:53Z</time>
      </trkpt>
      <trkpt lat="43.05872" lon="-0.43898">
        <ele>524.28</ele>
        <time>2021-06-05T23:36:56Z</time>
      </trkpt>
      <trkpt lat="43.05847" lon="-0.43933">
        <ele>519.24</ele>
        <time>2021-06-05T23:36:58Z</time>
      </trkpt>
      <trkpt lat="43.05804" lon="-0.43984">
        <ele>511.39</ele>
        <time>2021-06-05T23:37:01Z</time>
      </trkpt>
      <trkpt lat="43.05791" lon="-0.43992">
        <ele>510.86</ele>
        <time>2021-06-05T23:37:03Z</time>
      </trkpt>
      <trkpt lat="43.05785" lon="-0.43993">
        <ele>510.17</ele>
        <time>2021-06-05T23:37:05Z</time>
      </trkpt>
      <trkpt lat="43.05769" lon="-0.43989">
        <ele>508.29</ele>
        <time>2021-06-05T23:37:08Z</time>
      </trkpt>
      <trkpt lat="43.05758" lon="-0.43975">
        <ele>505.14</ele>
        <time>2021-06-05T23:37:10Z</time>
      </trkpt>
      <trkpt lat="43.05753" lon="-0.43958">
        <ele>502.18</ele>
        <time>2021-06-05T23:37:13Z</time>
      </trkpt>
      <trkpt lat="43.0575" lon="-0.43937">
        <ele>498.92</ele>
        <time>2021-06-05T23:37:15Z</time>
      </trkpt>
      <trkpt lat="43.05746" lon="-0.43894">
        <ele>495.65</ele>
        <time>2021-06-05T23:37:17Z</time>
      </trkpt>
      <trkpt lat="43.05723" lon="-0.43768">
        <ele>485.3</ele>
        <time>2021-06-05T23:37:20Z</time>
      </trkpt>
      <trkpt lat="43.05719" lon="-0.43733">
        <ele>485.55</ele>
        <time>2021-06-05T23:37:22Z</time>
      </trkpt>
      <trkpt lat="43.05721" lon="-0.43705">
        <ele>489.13</ele>
        <time>2021-06-05T23:37:25Z</time>
      </trkpt>
      <trkpt lat="43.05731" lon="-0.43669">
        <ele>494.32</ele>
        <time>2021-06-05T23:37:27Z</time>
      </trkpt>
      <trkpt lat="43.05787" lon="-0.43538">
        <ele>469.66</ele>
        <time>2021-06-05T23:37:30Z</time>
      </trkpt>
      <trkpt lat="43.05798" lon="-0.4349">
        <ele>465.43</ele>
        <time>2021-06-05T23:37:32Z</time>
      </trkpt>
      <trkpt lat="43.05811" lon="-0.43322">
        <ele>460.58</ele>
        <time>2021-06-05T23:37:34Z</time>
      </trkpt>
      <trkpt lat="43.05812" lon="-0.43233">
        <ele>457.52</ele>
        <time>2021-06-05T23:37:37Z</time>
      </trkpt>
      <trkpt lat="43.05807" lon="-0.43111">
        <ele>452</ele>
        <time>2021-06-05T23:37:39Z</time>
      </trkpt>
      <trkpt lat="43.05802" lon="-0.43064">
        <ele>451.4</ele>
        <time>2021-06-05T23:37:42Z</time>
      </trkpt>
      <trkpt lat="43.05795" lon="-0.43039">
        <ele>451.16</ele>
        <time>2021-06-05T23:37:44Z</time>
      </trkpt>
      <trkpt lat="43.05777" lon="-0.43001">
        <ele>450.06</ele>
        <time>2021-06-05T23:37:46Z</time>
      </trkpt>
      <trkpt lat="43.05759" lon="-0.42981">
        <ele>450.22</ele>
        <time>2021-06-05T23:37:49Z</time>
      </trkpt>
      <trkpt lat="43.0596" lon="-0.42794">
        <ele>443.05</ele>
        <time>2021-06-05T23:37:55Z</time>
      </trkpt>
      <trkpt lat="43.05971" lon="-0.42775">
        <ele>441.96</ele>
        <time>2021-06-05T23:38:01Z</time>
      </trkpt>
      <trkpt lat="43.05981" lon="-0.42737">
        <ele>440.36</ele>
        <time>2021-06-05T23:38:07Z</time>
      </trkpt>
      <trkpt lat="43.05981" lon="-0.42723">
        <ele>440.02</ele>
        <time>2021-06-05T23:38:13Z</time>
      </trkpt>
      <trkpt lat="43.05975" lon="-0.42714">
        <ele>439.97</ele>
        <time>2021-06-05T23:38:20Z</time>
      </trkpt>
      <trkpt lat="43.05973" lon="-0.42707">
        <ele>439.99</ele>
        <time>2021-06-05T23:38:28Z</time>
      </trkpt>
      <trkpt lat="43.05961" lon="-0.42694">
        <ele>440.4</ele>
        <time>2021-06-05T23:38:35Z</time>
      </trkpt>
      <trkpt lat="43.05937" lon="-0.42678">
        <ele>440.65</ele>
        <time>2021-06-05T23:38:42Z</time>
      </trkpt>
      <trkpt lat="43.05876" lon="-0.42651">
        <ele>439.97</ele>
        <time>2021-06-05T23:38:50Z</time>
      </trkpt>
      <trkpt lat="43.05834" lon="-0.42643">
        <ele>438.14</ele>
        <time>2021-06-05T23:38:57Z</time>
      </trkpt>
      <trkpt lat="43.05782" lon="-0.42636">
        <ele>438.73</ele>
        <time>2021-06-05T23:39:05Z</time>
      </trkpt>
      <trkpt lat="43.05729" lon="-0.42637">
        <ele>438.98</ele>
        <time>2021-06-05T23:39:12Z</time>
      </trkpt>
      <trkpt lat="43.05519" lon="-0.42656">
        <ele>439.73</ele>
        <time>2021-06-05T23:39:19Z</time>
      </trkpt>
      <trkpt lat="43.05217" lon="-0.42676">
        <ele>442.11</ele>
        <time>2021-06-05T23:39:27Z</time>
      </trkpt>
      <trkpt lat="43.05137" lon="-0.42683">
        <ele>437.88</ele>
        <time>2021-06-05T23:39:34Z</time>
      </trkpt>
      <trkpt lat="43.04936" lon="-0.42711">
        <ele>435.72</ele>
        <time>2021-06-05T23:39:42Z</time>
      </trkpt>
      <trkpt lat="43.04879" lon="-0.42712">
        <ele>435.62</ele>
        <time>2021-06-05T23:39:49Z</time>
      </trkpt>
      <trkpt lat="43.04841" lon="-0.4271">
        <ele>436.27</ele>
        <time>2021-06-05T23:39:56Z</time>
      </trkpt>
      <trkpt lat="43.04781" lon="-0.42699">
        <ele>437.24</ele>
        <time>2021-06-05T23:40:04Z</time>
      </trkpt>
      <trkpt lat="43.04712" lon="-0.42679">
        <ele>435.98</ele>
        <time>2021-06-05T23:40:11Z</time>
      </trkpt>
      <trkpt lat="43.04639" lon="-0.42653">
        <ele>437.49</ele>
        <time>2021-06-05T23:40:18Z</time>
      </trkpt>
      <trkpt lat="43.03785" lon="-0.42352">
        <ele>449.02</ele>
        <time>2021-06-05T23:40:26Z</time>
      </trkpt>
      <trkpt lat="43.03763" lon="-0.42349">
        <ele>449.68</ele>
        <time>2021-06-05T23:40:33Z</time>
      </trkpt>
      <trkpt lat="43.03726" lon="-0.42357">
        <ele>450.96</ele>
        <time>2021-06-05T23:40:41Z</time>
      </trkpt>
      <trkpt lat="43.03722" lon="-0.42364">
        <ele>451.01</ele>
        <time>2021-06-05T23:40:44Z</time>
      </trkpt>
      <trkpt lat="43.03716" lon="-0.4237">
        <ele>451.23</ele>
        <time>2021-06-05T23:40:47Z</time>
      </trkpt>
      <trkpt lat="43.03707" lon="-0.42372">
        <ele>451.53</ele>
        <time>2021-06-05T23:40:50Z</time>
      </trkpt>
      <trkpt lat="43.03698" lon="-0.42368">
        <ele>451.87</ele>
        <time>2021-06-05T23:40:53Z</time>
      </trkpt>
      <trkpt lat="43.03691" lon="-0.42358">
        <ele>452.11</ele>
        <time>2021-06-05T23:40:57Z</time>
      </trkpt>
      <trkpt lat="43.03689" lon="-0.4235">
        <ele>452.13</ele>
        <time>2021-06-05T23:41:00Z</time>
      </trkpt>
      <trkpt lat="43.03689" lon="-0.4234">
        <ele>452.05</ele>
        <time>2021-06-05T23:41:03Z</time>
      </trkpt>
      <trkpt lat="43.03665" lon="-0.42312">
        <ele>451.2</ele>
        <time>2021-06-05T23:41:06Z</time>
      </trkpt>
      <trkpt lat="43.03629" lon="-0.42297">
        <ele>449.68</ele>
        <time>2021-06-05T23:41:10Z</time>
      </trkpt>
      <trkpt lat="43.03361" lon="-0.42203">
        <ele>452.31</ele>
        <time>2021-06-05T23:41:13Z</time>
      </trkpt>
      <trkpt lat="43.03314" lon="-0.42192">
        <ele>452.68</ele>
        <time>2021-06-05T23:41:16Z</time>
      </trkpt>
      <trkpt lat="43.03259" lon="-0.42182">
        <ele>451.51</ele>
        <time>2021-06-05T23:41:19Z</time>
      </trkpt>
      <trkpt lat="43.03139" lon="-0.42177">
        <ele>454.37</ele>
        <time>2021-06-05T23:41:23Z</time>
      </trkpt>
      <trkpt lat="43.03017" lon="-0.42175">
        <ele>453.39</ele>
        <time>2021-06-05T23:41:26Z</time>
      </trkpt>
      <trkpt lat="43.02747" lon="-0.42159">
        <ele>456.73</ele>
        <time>2021-06-05T23:41:29Z</time>
      </trkpt>
      <trkpt lat="43.02576" lon="-0.42153">
        <ele>461.13</ele>
        <time>2021-06-05T23:41:32Z</time>
      </trkpt>
      <trkpt lat="43.0249" lon="-0.42152">
        <ele>460.67</ele>
        <time>2021-06-05T23:41:36Z</time>
      </trkpt>
      <trkpt lat="43.02457" lon="-0.42154">
        <ele>461.31</ele>
        <time>2021-06-05T23:41:39Z</time>
      </trkpt>
      <trkpt lat="43.02421" lon="-0.42169">
        <ele>462.09</ele>
        <time>2021-06-05T23:41:42Z</time>
      </trkpt>
      <trkpt lat="43.02416" lon="-0.42176">
        <ele>462.32</ele>
        <time>2021-06-05T23:41:45Z</time>
      </trkpt>
      <trkpt lat="43.0241" lon="-0.4219">
        <ele>462.62</ele>
        <time>2021-06-05T23:41:50Z</time>
      </trkpt>
      <trkpt lat="43.02405" lon="-0.42194">
        <ele>462.56</ele>
        <time>2021-06-05T23:41:54Z</time>
      </trkpt>
      <trkpt lat="43.02398" lon="-0.42197">
        <ele>462.34</ele>
        <time>2021-06-05T23:41:59Z</time>
      </trkpt>
      <trkpt lat="43.02392" lon="-0.42196">
        <ele>462.12</ele>
        <time>2021-06-05T23:42:04Z</time>
      </trkpt>
      <trkpt lat="43.02383" lon="-0.4219">
        <ele>461.83</ele>
        <time>2021-06-05T23:42:08Z</time>
      </trkpt>
      <trkpt lat="43.0238" lon="-0.42185">
        <ele>461.8</ele>
        <time>2021-06-05T23:42:13Z</time>
      </trkpt>
      <trkpt lat="43.02296" lon="-0.4219">
        <ele>459.22</ele>
        <time>2021-06-05T23:42:17Z</time>
      </trkpt>
      <trkpt lat="43.02044" lon="-0.42283">
        <ele>463.52</ele>
        <time>2021-06-05T23:42:22Z</time>
      </trkpt>
      <trkpt lat="43.01969" lon="-0.423">
        <ele>464.04</ele>
        <time>2021-06-05T23:42:27Z</time>
      </trkpt>
      <trkpt lat="43.01872" lon="-0.42316">
        <ele>467.22</ele>
        <time>2021-06-05T23:42:31Z</time>
      </trkpt>
      <trkpt lat="43.01844" lon="-0.42316">
        <ele>468.86</ele>
        <time>2021-06-05T23:42:36Z</time>
      </trkpt>
      <trkpt lat="43.01545" lon="-0.42297">
        <ele>480.16</ele>
        <time>2021-06-05T23:42:40Z</time>
      </trkpt>
      <trkpt lat="43.01517" lon="-0.42297">
        <ele>479.58</ele>
        <time>2021-06-05T23:42:45Z</time>
      </trkpt>
      <trkpt lat="43.01421" lon="-0.42307">
        <ele>476.08</ele>
        <time>2021-06-05T23:42:50Z</time>
      </trkpt>
      <trkpt lat="43.01276" lon="-0.42304">
        <ele>472.9</ele>
        <time>2021-06-05T23:42:54Z</time>
      </trkpt>
      <trkpt lat="43.01217" lon="-0.42297">
        <ele>473.32</ele>
        <time>2021-06-05T23:42:59Z</time>
      </trkpt>
      <trkpt lat="43.0119" lon="-0.4229">
        <ele>474.97</ele>
        <time>2021-06-05T23:43:03Z</time>
      </trkpt>
      <trkpt lat="43.01152" lon="-0.42274">
        <ele>473.45</ele>
        <time>2021-06-05T23:43:08Z</time>
      </trkpt>
      <trkpt lat="43.00996" lon="-0.422">
        <ele>471.92</ele>
        <time>2021-06-05T23:43:13Z</time>
      </trkpt>
      <trkpt lat="43.00902" lon="-0.42139">
        <ele>479.65</ele>
        <time>2021-06-05T23:43:17Z</time>
      </trkpt>
      <trkpt lat="43.0085" lon="-0.42111">
        <ele>484.19</ele>
        <time>2021-06-05T23:43:22Z</time>
      </trkpt>
      <trkpt lat="43.00801" lon="-0.42094">
        <ele>483.4</ele>
        <time>2021-06-05T23:43:26Z</time>
      </trkpt>
      <trkpt lat="43.0075" lon="-0.42084">
        <ele>486.42</ele>
        <time>2021-06-05T23:43:31Z</time>
      </trkpt>
      <trkpt lat="43.00723" lon="-0.42083">
        <ele>488.92</ele>
        <time>2021-06-05T23:43:36Z</time>
      </trkpt>
      <trkpt lat="43.00677" lon="-0.42092">
        <ele>487.39</ele>
        <time>2021-06-05T23:43:40Z</time>
      </trkpt>
      <trkpt lat="43.0065" lon="-0.42102">
        <ele>486.48</ele>
        <time>2021-06-05T23:43:45Z</time>
      </trkpt>
      <trkpt lat="43.00578" lon="-0.42141">
        <ele>483.08</ele>
        <time>2021-06-05T23:43:49Z</time>
      </trkpt>
      <trkpt lat="43.00533" lon="-0.42154">
        <ele>490.28</ele>
        <time>2021-06-05T23:43:54Z</time>
      </trkpt>
      <trkpt lat="43.00497" lon="-0.42154">
        <ele>487.27</ele>
        <time>2021-06-05T23:43:59Z</time>
      </trkpt>
      <trkpt lat="43.00463" lon="-0.42145">
        <ele>482.29</ele>
        <time>2021-06-05T23:44:03Z</time>
      </trkpt>
      <trkpt lat="43.00388" lon="-0.42107">
        <ele>477.33</ele>
        <time>2021-06-05T23:44:08Z</time>
      </trkpt>
      <trkpt lat="43.0029" lon="-0.42048">
        <ele>483.31</ele>
        <time>2021-06-05T23:44:12Z</time>
      </trkpt>
      <trkpt lat="43.00223" lon="-0.42017">
        <ele>485.53</ele>
        <time>2021-06-05T23:44:17Z</time>
      </trkpt>
      <trkpt lat="43.00193" lon="-0.4201">
        <ele>489.75</ele>
        <time>2021-06-05T23:44:22Z</time>
      </trkpt>
      <trkpt lat="43.00158" lon="-0.42008">
        <ele>490.15</ele>
        <time>2021-06-05T23:44:26Z</time>
      </trkpt>
      <trkpt lat="43.00137" lon="-0.42011">
        <ele>488.44</ele>
        <time>2021-06-05T23:44:31Z</time>
      </trkpt>
      <trkpt lat="43.00112" lon="-0.42016">
        <ele>484.48</ele>
        <time>2021-06-05T23:44:35Z</time>
      </trkpt>
      <trkpt lat="43.00086" lon="-0.42025">
        <ele>482.98</ele>
        <time>2021-06-05T23:44:40Z</time>
      </trkpt>
      <trkpt lat="42.9976" lon="-0.42164">
        <ele>484.88</ele>
        <time>2021-06-05T23:44:45Z</time>
      </trkpt>
      <trkpt lat="42.99702" lon="-0.42184">
        <ele>484.98</ele>
        <time>2021-06-05T23:44:49Z</time>
      </trkpt>
      <trkpt lat="42.99653" lon="-0.42195">
        <ele>487.08</ele>
        <time>2021-06-05T23:44:54Z</time>
      </trkpt>
      <trkpt lat="42.99286" lon="-0.42238">
        <ele>495.83</ele>
        <time>2021-06-05T23:44:58Z</time>
      </trkpt>
      <trkpt lat="42.99289" lon="-0.4226">
        <ele>499.23</ele>
        <time>2021-06-05T23:45:00Z</time>
      </trkpt>
      <trkpt lat="42.99281" lon="-0.4227">
        <ele>499.99</ele>
        <time>2021-06-05T23:45:07Z</time>
      </trkpt>
      <trkpt lat="42.99169" lon="-0.42422">
        <ele>513.41</ele>
        <time>2021-06-05T23:45:14Z</time>
      </trkpt>
      <trkpt lat="42.99152" lon="-0.42437">
        <ele>513.57</ele>
        <time>2021-06-05T23:45:21Z</time>
      </trkpt>
      <trkpt lat="42.99107" lon="-0.42463">
        <ele>516.69</ele>
        <time>2021-06-05T23:45:28Z</time>
      </trkpt>
      <trkpt lat="42.99012" lon="-0.42515">
        <ele>519.8</ele>
        <time>2021-06-05T23:45:35Z</time>
      </trkpt>
      <trkpt lat="42.98937" lon="-0.42587">
        <ele>525.36</ele>
        <time>2021-06-05T23:45:42Z</time>
      </trkpt>
      <trkpt lat="42.98909" lon="-0.42623">
        <ele>525.84</ele>
        <time>2021-06-05T23:45:49Z</time>
      </trkpt>
      <trkpt lat="42.98879" lon="-0.42646">
        <ele>526.34</ele>
        <time>2021-06-05T23:45:56Z</time>
      </trkpt>
      <trkpt lat="42.98861" lon="-0.42656">
        <ele>527.19</ele>
        <time>2021-06-05T23:46:03Z</time>
      </trkpt>
      <trkpt lat="42.98845" lon="-0.42656">
        <ele>527.01</ele>
        <time>2021-06-05T23:46:10Z</time>
      </trkpt>
      <trkpt lat="42.98829" lon="-0.42654">
        <ele>526.69</ele>
        <time>2021-06-05T23:46:17Z</time>
      </trkpt>
      <trkpt lat="42.98828" lon="-0.42664">
        <ele>528.38</ele>
        <time>2021-06-05T23:46:18Z</time>
      </trkpt>
      <trkpt lat="42.98828" lon="-0.42664">
        <ele>528.38</ele>
        <time>2021-06-05T23:46:18Z</time>
      </trkpt>
      <trkpt lat="42.98829" lon="-0.42654">
        <ele>526.69</ele>
        <time>2021-06-05T23:46:19Z</time>
      </trkpt>
      <trkpt lat="42.98819" lon="-0.42651">
        <ele>526.56</ele>
        <time>2021-06-05T23:46:22Z</time>
      </trkpt>
      <trkpt lat="42.98811" lon="-0.42643">
        <ele>526.13</ele>
        <time>2021-06-05T23:46:24Z</time>
      </trkpt>
      <trkpt lat="42.98808" lon="-0.42645">
        <ele>526.33</ele>
        <time>2021-06-05T23:46:27Z</time>
      </trkpt>
      <trkpt lat="42.98803" lon="-0.42644">
        <ele>526.36</ele>
        <time>2021-06-05T23:46:30Z</time>
      </trkpt>
      <trkpt lat="42.98799" lon="-0.4264">
        <ele>526.06</ele>
        <time>2021-06-05T23:46:33Z</time>
      </trkpt>
      <trkpt lat="42.98798" lon="-0.42632">
        <ele>525.49</ele>
        <time>2021-06-05T23:46:36Z</time>
      </trkpt>
      <trkpt lat="42.98801" lon="-0.42625">
        <ele>524.99</ele>
        <time>2021-06-05T23:46:39Z</time>
      </trkpt>
      <trkpt lat="42.98808" lon="-0.42622">
        <ele>524.77</ele>
        <time>2021-06-05T23:46:42Z</time>
      </trkpt>
      <trkpt lat="42.98816" lon="-0.42269">
        <ele>510.34</ele>
        <time>2021-06-05T23:46:45Z</time>
      </trkpt>
      <trkpt lat="42.98818" lon="-0.42254">
        <ele>509.28</ele>
        <time>2021-06-05T23:46:48Z</time>
      </trkpt>
      <trkpt lat="42.98823" lon="-0.42242">
        <ele>508.55</ele>
        <time>2021-06-05T23:46:51Z</time>
      </trkpt>
      <trkpt lat="42.98831" lon="-0.42237">
        <ele>508.08</ele>
        <time>2021-06-05T23:46:54Z</time>
      </trkpt>
      <trkpt lat="42.98839" lon="-0.42235">
        <ele>507.82</ele>
        <time>2021-06-05T23:46:56Z</time>
      </trkpt>
      <trkpt lat="42.9897" lon="-0.42261">
        <ele>504.5</ele>
        <time>2021-06-05T23:46:59Z</time>
      </trkpt>
      <trkpt lat="42.98981" lon="-0.4226">
        <ele>504.06</ele>
        <time>2021-06-05T23:47:02Z</time>
      </trkpt>
      <trkpt lat="42.98991" lon="-0.42257">
        <ele>503.59</ele>
        <time>2021-06-05T23:47:05Z</time>
      </trkpt>
      <trkpt lat="42.9905" lon="-0.42216">
        <ele>503.85</ele>
        <time>2021-06-05T23:47:08Z</time>
      </trkpt>
      <trkpt lat="42.99062" lon="-0.42213">
        <ele>503.93</ele>
        <time>2021-06-05T23:47:11Z</time>
      </trkpt>
      <trkpt lat="42.99073" lon="-0.42214">
        <ele>503.8</ele>
        <time>2021-06-05T23:47:14Z</time>
      </trkpt>
      <trkpt lat="42.99121" lon="-0.42223">
        <ele>502.04</ele>
        <time>2021-06-05T23:47:17Z</time>
      </trkpt>
      <trkpt lat="42.99215" lon="-0.42244">
        <ele>501.25</ele>
        <time>2021-06-05T23:47:20Z</time>
      </trkpt>
      <trkpt lat="42.99237" lon="-0.42246">
        <ele>499.68</ele>
        <time>2021-06-05T23:47:23Z</time>
      </trkpt>
      <trkpt lat="42.99278" lon="-0.42239">
        <ele>495.63</ele>
        <time>2021-06-05T23:47:26Z</time>
      </trkpt>
      <trkpt lat="42.99417" lon="-0.42223">
        <ele>496.09</ele>
        <time>2021-06-05T23:47:29Z</time>
      </trkpt>
      <trkpt lat="42.99362" lon="-0.42057">
        <ele>486.98</ele>
        <time>2021-06-05T23:47:33Z</time>
      </trkpt>
      <trkpt lat="42.9936" lon="-0.42028">
        <ele>488.96</ele>
        <time>2021-06-05T23:47:37Z</time>
      </trkpt>
      <trkpt lat="42.99368" lon="-0.4194">
        <ele>491.93</ele>
        <time>2021-06-05T23:47:40Z</time>
      </trkpt>
      <trkpt lat="42.99373" lon="-0.41923">
        <ele>492.36</ele>
        <time>2021-06-05T23:47:44Z</time>
      </trkpt>
      <trkpt lat="42.99369" lon="-0.419">
        <ele>493.05</ele>
        <time>2021-06-05T23:47:48Z</time>
      </trkpt>
      <trkpt lat="42.99371" lon="-0.41819">
        <ele>495.17</ele>
        <time>2021-06-05T23:47:52Z</time>
      </trkpt>
      <trkpt lat="42.9937" lon="-0.41806">
        <ele>495.01</ele>
        <time>2021-06-05T23:47:56Z</time>
      </trkpt>
      <trkpt lat="42.99363" lon="-0.41792">
        <ele>494.47</ele>
        <time>2021-06-05T23:47:59Z</time>
      </trkpt>
      <trkpt lat="42.99325" lon="-0.41751">
        <ele>496.34</ele>
        <time>2021-06-05T23:48:03Z</time>
      </trkpt>
      <trkpt lat="42.99277" lon="-0.41709">
        <ele>497.46</ele>
        <time>2021-06-05T23:48:07Z</time>
      </trkpt>
      <trkpt lat="42.99252" lon="-0.41683">
        <ele>503.64</ele>
        <time>2021-06-05T23:48:11Z</time>
      </trkpt>
      <trkpt lat="42.9925" lon="-0.41675">
        <ele>505.93</ele>
        <time>2021-06-05T23:48:14Z</time>
      </trkpt>
      <trkpt lat="42.99254" lon="-0.41654">
        <ele>509.01</ele>
        <time>2021-06-05T23:48:18Z</time>
      </trkpt>
      <trkpt lat="42.99261" lon="-0.41644">
        <ele>509.76</ele>
        <time>2021-06-05T23:48:22Z</time>
      </trkpt>
      <trkpt lat="42.99286" lon="-0.41625">
        <ele>511.63</ele>
        <time>2021-06-05T23:48:26Z</time>
      </trkpt>
      <trkpt lat="42.99313" lon="-0.41554">
        <ele>520.13</ele>
        <time>2021-06-05T23:48:30Z</time>
      </trkpt>
      <trkpt lat="42.99326" lon="-0.41495">
        <ele>524.08</ele>
        <time>2021-06-05T23:48:33Z</time>
      </trkpt>
      <trkpt lat="42.99327" lon="-0.41455">
        <ele>526.17</ele>
        <time>2021-06-05T23:48:37Z</time>
      </trkpt>
      <trkpt lat="42.99327" lon="-0.41426">
        <ele>527.52</ele>
        <time>2021-06-05T23:48:41Z</time>
      </trkpt>
      <trkpt lat="42.993" lon="-0.4141">
        <ele>528.42</ele>
        <time>2021-06-05T23:48:43Z</time>
      </trkpt>
      <trkpt lat="42.99153" lon="-0.41321">
        <ele>524.91</ele>
        <time>2021-06-05T23:48:45Z</time>
      </trkpt>
      <trkpt lat="42.99122" lon="-0.41305">
        <ele>527.91</ele>
        <time>2021-06-05T23:48:47Z</time>
      </trkpt>
      <trkpt lat="42.99034" lon="-0.41272">
        <ele>531.02</ele>
        <time>2021-06-05T23:48:49Z</time>
      </trkpt>
      <trkpt lat="42.99002" lon="-0.41263">
        <ele>532.27</ele>
        <time>2021-06-05T23:48:51Z</time>
      </trkpt>
      <trkpt lat="42.98956" lon="-0.41263">
        <ele>532.83</ele>
        <time>2021-06-05T23:48:53Z</time>
      </trkpt>
      <trkpt lat="42.98938" lon="-0.41267">
        <ele>534.97</ele>
        <time>2021-06-05T23:48:55Z</time>
      </trkpt>
      <trkpt lat="42.98928" lon="-0.41276">
        <ele>536.45</ele>
        <time>2021-06-05T23:48:57Z</time>
      </trkpt>
      <trkpt lat="42.98919" lon="-0.41289">
        <ele>536.15</ele>
        <time>2021-06-05T23:48:59Z</time>
      </trkpt>
      <trkpt lat="42.98914" lon="-0.41302">
        <ele>535.08</ele>
        <time>2021-06-05T23:49:01Z</time>
      </trkpt>
      <trkpt lat="42.98903" lon="-0.41367">
        <ele>534.1</ele>
        <time>2021-06-05T23:49:03Z</time>
      </trkpt>
      <trkpt lat="42.98878" lon="-0.41441">
        <ele>544.7</ele>
        <time>2021-06-05T23:49:05Z</time>
      </trkpt>
      <trkpt lat="42.98828" lon="-0.41484">
        <ele>547.03</ele>
        <time>2021-06-05T23:49:07Z</time>
      </trkpt>
      <trkpt lat="42.98793" lon="-0.4153">
        <ele>544.09</ele>
        <time>2021-06-05T23:49:09Z</time>
      </trkpt>
      <trkpt lat="42.98778" lon="-0.41534">
        <ele>542.84</ele>
        <time>2021-06-05T23:49:11Z</time>
      </trkpt>
      <trkpt lat="42.98771" lon="-0.41533">
        <ele>543.44</ele>
        <time>2021-06-05T23:49:13Z</time>
      </trkpt>
      <trkpt lat="42.98762" lon="-0.41526">
        <ele>544.97</ele>
        <time>2021-06-05T23:49:15Z</time>
      </trkpt>
      <trkpt lat="42.98737" lon="-0.41499">
        <ele>547.82</ele>
        <time>2021-06-05T23:49:17Z</time>
      </trkpt>
      <trkpt lat="42.98723" lon="-0.4148">
        <ele>548.89</ele>
        <time>2021-06-05T23:49:19Z</time>
      </trkpt>
      <trkpt lat="42.9869" lon="-0.41413">
        <ele>557.64</ele>
        <time>2021-06-05T23:49:21Z</time>
      </trkpt>
      <trkpt lat="42.98678" lon="-0.41403">
        <ele>559.56</ele>
        <time>2021-06-05T23:49:23Z</time>
      </trkpt>
      <trkpt lat="42.9867" lon="-0.414">
        <ele>560.28</ele>
        <time>2021-06-05T23:49:25Z</time>
      </trkpt>
      <trkpt lat="42.98619" lon="-0.41393">
        <ele>557.92</ele>
        <time>2021-06-05T23:49:27Z</time>
      </trkpt>
      <trkpt lat="42.98613" lon="-0.41389">
        <ele>558.04</ele>
        <time>2021-06-05T23:49:29Z</time>
      </trkpt>
      <trkpt lat="42.98583" lon="-0.41355">
        <ele>561.47</ele>
        <time>2021-06-05T23:49:31Z</time>
      </trkpt>
      <trkpt lat="42.98555" lon="-0.41319">
        <ele>564.04</ele>
        <time>2021-06-05T23:49:33Z</time>
      </trkpt>
      <trkpt lat="42.98498" lon="-0.41206">
        <ele>575.17</ele>
        <time>2021-06-05T23:49:36Z</time>
      </trkpt>
      <trkpt lat="42.98462" lon="-0.41167">
        <ele>577.98</ele>
        <time>2021-06-05T23:49:38Z</time>
      </trkpt>
      <trkpt lat="42.98428" lon="-0.41136">
        <ele>585.03</ele>
        <time>2021-06-05T23:49:40Z</time>
      </trkpt>
      <trkpt lat="42.98407" lon="-0.41131">
        <ele>586.43</ele>
        <time>2021-06-05T23:49:42Z</time>
      </trkpt>
      <trkpt lat="42.98397" lon="-0.41134">
        <ele>585.75</ele>
        <time>2021-06-05T23:49:44Z</time>
      </trkpt>
      <trkpt lat="42.98375" lon="-0.41151">
        <ele>580.47</ele>
        <time>2021-06-05T23:49:46Z</time>
      </trkpt>
      <trkpt lat="42.98365" lon="-0.41154">
        <ele>578.23</ele>
        <time>2021-06-05T23:49:48Z</time>
      </trkpt>
      <trkpt lat="42.98353" lon="-0.41152">
        <ele>578.17</ele>
        <time>2021-06-05T23:49:50Z</time>
      </trkpt>
      <trkpt lat="42.98341" lon="-0.41143">
        <ele>580.12</ele>
        <time>2021-06-05T23:49:52Z</time>
      </trkpt>
      <trkpt lat="42.98336" lon="-0.41135">
        <ele>581.99</ele>
        <time>2021-06-05T23:49:54Z</time>
      </trkpt>
      <trkpt lat="42.98326" lon="-0.4109">
        <ele>589.94</ele>
        <time>2021-06-05T23:49:56Z</time>
      </trkpt>
      <trkpt lat="42.98323" lon="-0.41084">
        <ele>590.38</ele>
        <time>2021-06-05T23:49:58Z</time>
      </trkpt>
      <trkpt lat="42.98319" lon="-0.41079">
        <ele>590.26</ele>
        <time>2021-06-05T23:50:00Z</time>
      </trkpt>
      <trkpt lat="42.98301" lon="-0.41071">
        <ele>588.63</ele>
        <time>2021-06-05T23:50:02Z</time>
      </trkpt>
      <trkpt lat="42.98286" lon="-0.4105">
        <ele>589.2</ele>
        <time>2021-06-05T23:50:04Z</time>
      </trkpt>
      <trkpt lat="42.98244" lon="-0.41015">
        <ele>598.26</ele>
        <time>2021-06-05T23:50:06Z</time>
      </trkpt>
      <trkpt lat="42.98238" lon="-0.41007">
        <ele>599.46</ele>
        <time>2021-06-05T23:50:08Z</time>
      </trkpt>
      <trkpt lat="42.98239" lon="-0.40986">
        <ele>602.48</ele>
        <time>2021-06-05T23:50:10Z</time>
      </trkpt>
      <trkpt lat="42.98238" lon="-0.40977">
        <ele>603.47</ele>
        <time>2021-06-05T23:50:12Z</time>
      </trkpt>
      <trkpt lat="42.98222" lon="-0.40967">
        <ele>604</ele>
        <time>2021-06-05T23:50:14Z</time>
      </trkpt>
      <trkpt lat="42.9818" lon="-0.40953">
        <ele>603.37</ele>
        <time>2021-06-05T23:50:16Z</time>
      </trkpt>
      <trkpt lat="42.98112" lon="-0.40953">
        <ele>608.08</ele>
        <time>2021-06-05T23:50:18Z</time>
      </trkpt>
      <trkpt lat="42.98075" lon="-0.40949">
        <ele>605.59</ele>
        <time>2021-06-05T23:50:20Z</time>
      </trkpt>
      <trkpt lat="42.9806" lon="-0.40943">
        <ele>601.16</ele>
        <time>2021-06-05T23:50:22Z</time>
      </trkpt>
      <trkpt lat="42.98052" lon="-0.40933">
        <ele>600.34</ele>
        <time>2021-06-05T23:50:24Z</time>
      </trkpt>
      <trkpt lat="42.98035" lon="-0.40904">
        <ele>600.32</ele>
        <time>2021-06-05T23:50:26Z</time>
      </trkpt>
      <trkpt lat="42.98023" lon="-0.40877">
        <ele>601.87</ele>
        <time>2021-06-05T23:50:28Z</time>
      </trkpt>
      <trkpt lat="42.97998" lon="-0.40842">
        <ele>600.63</ele>
        <time>2021-06-05T23:50:30Z</time>
      </trkpt>
      <trkpt lat="42.97989" lon="-0.40823">
        <ele>602.11</ele>
        <time>2021-06-05T23:50:32Z</time>
      </trkpt>
      <trkpt lat="42.97978" lon="-0.40793">
        <ele>602.77</ele>
        <time>2021-06-05T23:50:34Z</time>
      </trkpt>
      <trkpt lat="42.97975" lon="-0.40767">
        <ele>602.99</ele>
        <time>2021-06-05T23:50:36Z</time>
      </trkpt>
      <trkpt lat="42.97966" lon="-0.40735">
        <ele>604.8</ele>
        <time>2021-06-05T23:50:38Z</time>
      </trkpt>
      <trkpt lat="42.97946" lon="-0.40704">
        <ele>607.91</ele>
        <time>2021-06-05T23:50:40Z</time>
      </trkpt>
      <trkpt lat="42.97935" lon="-0.40694">
        <ele>608.13</ele>
        <time>2021-06-05T23:50:42Z</time>
      </trkpt>
      <trkpt lat="42.97911" lon="-0.40684">
        <ele>606.54</ele>
        <time>2021-06-05T23:50:44Z</time>
      </trkpt>
      <trkpt lat="42.97876" lon="-0.40675">
        <ele>605.2</ele>
        <time>2021-06-05T23:50:46Z</time>
      </trkpt>
      <trkpt lat="42.97859" lon="-0.40668">
        <ele>603.92</ele>
        <time>2021-06-05T23:50:48Z</time>
      </trkpt>
      <trkpt lat="42.97847" lon="-0.40655">
        <ele>604.31</ele>
        <time>2021-06-05T23:50:50Z</time>
      </trkpt>
      <trkpt lat="42.97842" lon="-0.40645">
        <ele>604.26</ele>
        <time>2021-06-05T23:50:52Z</time>
      </trkpt>
      <trkpt lat="42.97839" lon="-0.40631">
        <ele>605.42</ele>
        <time>2021-06-05T23:50:54Z</time>
      </trkpt>
      <trkpt lat="42.97838" lon="-0.40604">
        <ele>608.73</ele>
        <time>2021-06-05T23:50:56Z</time>
      </trkpt>
      <trkpt lat="42.97836" lon="-0.40594">
        <ele>608.55</ele>
        <time>2021-06-05T23:50:58Z</time>
      </trkpt>
      <trkpt lat="42.97832" lon="-0.40587">
        <ele>607.48</ele>
        <time>2021-06-05T23:51:01Z</time>
      </trkpt>
      <trkpt lat="42.97805" lon="-0.40553">
        <ele>599.5</ele>
        <time>2021-06-05T23:51:03Z</time>
      </trkpt>
      <trkpt lat="42.97782" lon="-0.40519">
        <ele>609.97</ele>
        <time>2021-06-05T23:51:05Z</time>
      </trkpt>
      <trkpt lat="42.97781" lon="-0.40513">
        <ele>610.77</ele>
        <time>2021-06-05T23:51:07Z</time>
      </trkpt>
      <trkpt lat="42.97781" lon="-0.40505">
        <ele>611.05</ele>
        <time>2021-06-05T23:51:09Z</time>
      </trkpt>
      <trkpt lat="42.97787" lon="-0.40493">
        <ele>610.05</ele>
        <time>2021-06-05T23:51:11Z</time>
      </trkpt>
      <trkpt lat="42.97793" lon="-0.40485">
        <ele>609.36</ele>
        <time>2021-06-05T23:51:13Z</time>
      </trkpt>
      <trkpt lat="42.97795" lon="-0.40478">
        <ele>609.47</ele>
        <time>2021-06-05T23:51:15Z</time>
      </trkpt>
      <trkpt lat="42.97794" lon="-0.4047">
        <ele>610.03</ele>
        <time>2021-06-05T23:51:17Z</time>
      </trkpt>
      <trkpt lat="42.97791" lon="-0.40462">
        <ele>610.9</ele>
        <time>2021-06-05T23:51:19Z</time>
      </trkpt>
      <trkpt lat="42.97775" lon="-0.40453">
        <ele>612.07</ele>
        <time>2021-06-05T23:51:21Z</time>
      </trkpt>
      <trkpt lat="42.97762" lon="-0.4045">
        <ele>613.91</ele>
        <time>2021-06-05T23:51:23Z</time>
      </trkpt>
      <trkpt lat="42.97739" lon="-0.4045">
        <ele>616.28</ele>
        <time>2021-06-05T23:51:25Z</time>
      </trkpt>
      <trkpt lat="42.97701" lon="-0.40461">
        <ele>620.14</ele>
        <time>2021-06-05T23:51:27Z</time>
      </trkpt>
      <trkpt lat="42.97686" lon="-0.4046">
        <ele>622.04</ele>
        <time>2021-06-05T23:51:29Z</time>
      </trkpt>
      <trkpt lat="42.97638" lon="-0.40418">
        <ele>630.55</ele>
        <time>2021-06-05T23:51:31Z</time>
      </trkpt>
      <trkpt lat="42.97615" lon="-0.40392">
        <ele>636.45</ele>
        <time>2021-06-05T23:51:33Z</time>
      </trkpt>
      <trkpt lat="42.97599" lon="-0.40368">
        <ele>639.08</ele>
        <time>2021-06-05T23:51:35Z</time>
      </trkpt>
      <trkpt lat="42.97596" lon="-0.4036">
        <ele>639.22</ele>
        <time>2021-06-05T23:51:37Z</time>
      </trkpt>
      <trkpt lat="42.97592" lon="-0.4033">
        <ele>638.66</ele>
        <time>2021-06-05T23:51:39Z</time>
      </trkpt>
      <trkpt lat="42.97588" lon="-0.40317">
        <ele>638.88</ele>
        <time>2021-06-05T23:51:41Z</time>
      </trkpt>
      <trkpt lat="42.97577" lon="-0.40302">
        <ele>640.95</ele>
        <time>2021-06-05T23:51:43Z</time>
      </trkpt>
      <trkpt lat="42.97571" lon="-0.40297">
        <ele>643.22</ele>
        <time>2021-06-05T23:51:45Z</time>
      </trkpt>
      <trkpt lat="42.97562" lon="-0.40296">
        <ele>646.71</ele>
        <time>2021-06-05T23:51:47Z</time>
      </trkpt>
      <trkpt lat="42.97557" lon="-0.403">
        <ele>649.34</ele>
        <time>2021-06-05T23:51:49Z</time>
      </trkpt>
      <trkpt lat="42.9755" lon="-0.4031">
        <ele>651.26</ele>
        <time>2021-06-05T23:51:51Z</time>
      </trkpt>
      <trkpt lat="42.9755" lon="-0.40318">
        <ele>651.47</ele>
        <time>2021-06-05T23:51:53Z</time>
      </trkpt>
      <trkpt lat="42.97552" lon="-0.40329">
        <ele>650.92</ele>
        <time>2021-06-05T23:51:55Z</time>
      </trkpt>
      <trkpt lat="42.97561" lon="-0.40349">
        <ele>649.83</ele>
        <time>2021-06-05T23:51:57Z</time>
      </trkpt>
      <trkpt lat="42.97561" lon="-0.40358">
        <ele>650.38</ele>
        <time>2021-06-05T23:51:59Z</time>
      </trkpt>
      <trkpt lat="42.97557" lon="-0.40366">
        <ele>652.18</ele>
        <time>2021-06-05T23:52:01Z</time>
      </trkpt>
      <trkpt lat="42.9755" lon="-0.40371">
        <ele>655.35</ele>
        <time>2021-06-05T23:52:03Z</time>
      </trkpt>
      <trkpt lat="42.97543" lon="-0.40371">
        <ele>657.58</ele>
        <time>2021-06-05T23:52:05Z</time>
      </trkpt>
      <trkpt lat="42.97536" lon="-0.40366">
        <ele>659.82</ele>
        <time>2021-06-05T23:52:07Z</time>
      </trkpt>
      <trkpt lat="42.97529" lon="-0.40356">
        <ele>660.79</ele>
        <time>2021-06-05T23:52:09Z</time>
      </trkpt>
      <trkpt lat="42.97526" lon="-0.40347">
        <ele>660.8</ele>
        <time>2021-06-05T23:52:11Z</time>
      </trkpt>
      <trkpt lat="42.97526" lon="-0.40334">
        <ele>659.53</ele>
        <time>2021-06-05T23:52:13Z</time>
      </trkpt>
      <trkpt lat="42.97527" lon="-0.40318">
        <ele>657.07</ele>
        <time>2021-06-05T23:52:15Z</time>
      </trkpt>
      <trkpt lat="42.97533" lon="-0.40292">
        <ele>654.4</ele>
        <time>2021-06-05T23:52:17Z</time>
      </trkpt>
      <trkpt lat="42.97531" lon="-0.40283">
        <ele>654.44</ele>
        <time>2021-06-05T23:52:19Z</time>
      </trkpt>
      <trkpt lat="42.97526" lon="-0.40276">
        <ele>655.34</ele>
        <time>2021-06-05T23:52:21Z</time>
      </trkpt>
      <trkpt lat="42.97522" lon="-0.40274">
        <ele>656.56</ele>
        <time>2021-06-05T23:52:23Z</time>
      </trkpt>
      <trkpt lat="42.97515" lon="-0.40273">
        <ele>658.45</ele>
        <time>2021-06-05T23:52:26Z</time>
      </trkpt>
      <trkpt lat="42.97507" lon="-0.40276">
        <ele>660.84</ele>
        <time>2021-06-05T23:52:28Z</time>
      </trkpt>
      <trkpt lat="42.97498" lon="-0.40275">
        <ele>663.64</ele>
        <time>2021-06-05T23:52:30Z</time>
      </trkpt>
      <trkpt lat="42.97492" lon="-0.40269">
        <ele>666.92</ele>
        <time>2021-06-05T23:52:32Z</time>
      </trkpt>
      <trkpt lat="42.97487" lon="-0.40259">
        <ele>668.45</ele>
        <time>2021-06-05T23:52:34Z</time>
      </trkpt>
      <trkpt lat="42.97485" lon="-0.40238">
        <ele>669.94</ele>
        <time>2021-06-05T23:52:36Z</time>
      </trkpt>
      <trkpt lat="42.97485" lon="-0.40175">
        <ele>676.56</ele>
        <time>2021-06-05T23:52:38Z</time>
      </trkpt>
      <trkpt lat="42.97483" lon="-0.40145">
        <ele>679.28</ele>
        <time>2021-06-05T23:52:40Z</time>
      </trkpt>
      <trkpt lat="42.97469" lon="-0.40027">
        <ele>682</ele>
        <time>2021-06-05T23:52:42Z</time>
      </trkpt>
      <trkpt lat="42.97465" lon="-0.39939">
        <ele>685.25</ele>
        <time>2021-06-05T23:52:44Z</time>
      </trkpt>
      <trkpt lat="42.97463" lon="-0.39913">
        <ele>686.32</ele>
        <time>2021-06-05T23:52:46Z</time>
      </trkpt>
      <trkpt lat="42.97452" lon="-0.39876">
        <ele>692.59</ele>
        <time>2021-06-05T23:52:48Z</time>
      </trkpt>
      <trkpt lat="42.9745" lon="-0.39862">
        <ele>693.9</ele>
        <time>2021-06-05T23:52:50Z</time>
      </trkpt>
      <trkpt lat="42.97447" lon="-0.39818">
        <ele>688.97</ele>
        <time>2021-06-05T23:52:52Z</time>
      </trkpt>
      <trkpt lat="42.97444" lon="-0.39804">
        <ele>688.58</ele>
        <time>2021-06-05T23:52:54Z</time>
      </trkpt>
      <trkpt lat="42.97437" lon="-0.39786">
        <ele>691.67</ele>
        <time>2021-06-05T23:52:56Z</time>
      </trkpt>
      <trkpt lat="42.97413" lon="-0.39754">
        <ele>698.84</ele>
        <time>2021-06-05T23:52:58Z</time>
      </trkpt>
      <trkpt lat="42.97401" lon="-0.39735">
        <ele>702.66</ele>
        <time>2021-06-05T23:53:00Z</time>
      </trkpt>
      <trkpt lat="42.974" lon="-0.39715">
        <ele>703.28</ele>
        <time>2021-06-05T23:53:02Z</time>
      </trkpt>
      <trkpt lat="42.97415" lon="-0.39672">
        <ele>697.76</ele>
        <time>2021-06-05T23:53:04Z</time>
      </trkpt>
      <trkpt lat="42.97417" lon="-0.39613">
        <ele>701.99</ele>
        <time>2021-06-05T23:53:06Z</time>
      </trkpt>
      <trkpt lat="42.97426" lon="-0.39581">
        <ele>703.83</ele>
        <time>2021-06-05T23:53:08Z</time>
      </trkpt>
      <trkpt lat="42.97428" lon="-0.39568">
        <ele>703.9</ele>
        <time>2021-06-05T23:53:10Z</time>
      </trkpt>
      <trkpt lat="42.97429" lon="-0.39557">
        <ele>705.49</ele>
        <time>2021-06-05T23:53:12Z</time>
      </trkpt>
      <trkpt lat="42.97424" lon="-0.39525">
        <ele>711.09</ele>
        <time>2021-06-05T23:53:14Z</time>
      </trkpt>
      <trkpt lat="42.97417" lon="-0.39508">
        <ele>715.49</ele>
        <time>2021-06-05T23:53:16Z</time>
      </trkpt>
      <trkpt lat="42.97411" lon="-0.39504">
        <ele>720.48</ele>
        <time>2021-06-05T23:53:18Z</time>
      </trkpt>
      <trkpt lat="42.97407" lon="-0.39504">
        <ele>722.86</ele>
        <time>2021-06-05T23:53:20Z</time>
      </trkpt>
      <trkpt lat="42.97402" lon="-0.39472">
        <ele>723.17</ele>
        <time>2021-06-05T23:53:23Z</time>
      </trkpt>
      <trkpt lat="42.97399" lon="-0.39425">
        <ele>718.5</ele>
        <time>2021-06-05T23:53:26Z</time>
      </trkpt>
      <trkpt lat="42.97397" lon="-0.39412">
        <ele>718.07</ele>
        <time>2021-06-05T23:53:29Z</time>
      </trkpt>
      <trkpt lat="42.97392" lon="-0.39398">
        <ele>718.07</ele>
        <time>2021-06-05T23:53:32Z</time>
      </trkpt>
      <trkpt lat="42.97387" lon="-0.39388">
        <ele>718.7</ele>
        <time>2021-06-05T23:53:35Z</time>
      </trkpt>
      <trkpt lat="42.97378" lon="-0.3938">
        <ele>720.58</ele>
        <time>2021-06-05T23:53:38Z</time>
      </trkpt>
      <trkpt lat="42.97354" lon="-0.39367">
        <ele>724.67</ele>
        <time>2021-06-05T23:53:40Z</time>
      </trkpt>
      <trkpt lat="42.97333" lon="-0.39356">
        <ele>726.32</ele>
        <time>2021-06-05T23:53:43Z</time>
      </trkpt>
      <trkpt lat="42.97307" lon="-0.39339">
        <ele>731.86</ele>
        <time>2021-06-05T23:53:46Z</time>
      </trkpt>
      <trkpt lat="42.9725" lon="-0.39276">
        <ele>749.29</ele>
        <time>2021-06-05T23:53:49Z</time>
      </trkpt>
      <trkpt lat="42.97245" lon="-0.3927">
        <ele>749.83</ele>
        <time>2021-06-05T23:53:52Z</time>
      </trkpt>
      <trkpt lat="42.97238" lon="-0.39261">
        <ele>749.61</ele>
        <time>2021-06-05T23:53:55Z</time>
      </trkpt>
      <trkpt lat="42.97189" lon="-0.39183">
        <ele>748.53</ele>
        <time>2021-06-05T23:53:58Z</time>
      </trkpt>
      <trkpt lat="42.972" lon="-0.39146">
        <ele>745.57</ele>
        <time>2021-06-05T23:54:01Z</time>
      </trkpt>
      <trkpt lat="42.97212" lon="-0.39123">
        <ele>746.1</ele>
        <time>2021-06-05T23:54:04Z</time>
      </trkpt>
      <trkpt lat="42.97223" lon="-0.39134">
        <ele>742.34</ele>
        <time>2021-06-05T23:54:12Z</time>
      </trkpt>
      <trkpt lat="42.97302" lon="-0.39255">
        <ele>734</ele>
        <time>2021-06-05T23:54:21Z</time>
      </trkpt>
      <trkpt lat="42.97302" lon="-0.39255">
        <ele>734</ele>
        <time>2021-06-05T23:54:21Z</time>
      </trkpt>
      <trkpt lat="42.97365" lon="-0.39356">
        <ele>720.15</ele>
        <time>2021-06-05T23:54:34Z</time>
      </trkpt>
      <trkpt lat="42.97359" lon="-0.3937">
        <ele>724.26</ele>
        <time>2021-06-05T23:54:36Z</time>
      </trkpt>
      <trkpt lat="42.97354" lon="-0.39367">
        <ele>724.67</ele>
        <time>2021-06-05T23:54:40Z</time>
      </trkpt>
      <trkpt lat="42.97333" lon="-0.39356">
        <ele>726.32</ele>
        <time>2021-06-05T23:54:44Z</time>
      </trkpt>
      <trkpt lat="42.97307" lon="-0.39339">
        <ele>731.86</ele>
        <time>2021-06-05T23:54:48Z</time>
      </trkpt>
      <trkpt lat="42.9725" lon="-0.39276">
        <ele>749.29</ele>
        <time>2021-06-05T23:54:52Z</time>
      </trkpt>
      <trkpt lat="42.97245" lon="-0.3927">
        <ele>749.83</ele>
        <time>2021-06-05T23:54:56Z</time>
      </trkpt>
      <trkpt lat="42.97238" lon="-0.39261">
        <ele>749.61</ele>
        <time>2021-06-05T23:55:00Z</time>
      </trkpt>
      <trkpt lat="42.97189" lon="-0.39183">
        <ele>748.53</ele>
        <time>2021-06-05T23:55:04Z</time>
      </trkpt>
      <trkpt lat="42.972" lon="-0.39146">
        <ele>745.57</ele>
        <time>2021-06-05T23:55:08Z</time>
      </trkpt>
      <trkpt lat="42.97212" lon="-0.39123">
        <ele>746.1</ele>
        <time>2021-06-05T23:55:12Z</time>
      </trkpt>
      <trkpt lat="42.97223" lon="-0.39134">
        <ele>742.34</ele>
        <time>2021-06-05T23:55:17Z</time>
      </trkpt>
      <trkpt lat="42.97273" lon="-0.39211">
        <ele>739.03</ele>
        <time>2021-06-05T23:55:23Z</time>
      </trkpt>
      <trkpt lat="42.97279" lon="-0.392">
        <ele>738.97</ele>
        <time>2021-06-05T23:55:25Z</time>
      </trkpt>
      <trkpt lat="42.97316" lon="-0.39157">
        <ele>738.18</ele>
        <time>2021-06-05T23:55:27Z</time>
      </trkpt>
      <trkpt lat="42.97323" lon="-0.39139">
        <ele>736.21</ele>
        <time>2021-06-05T23:55:29Z</time>
      </trkpt>
      <trkpt lat="42.97323" lon="-0.39134">
        <ele>735.82</ele>
        <time>2021-06-05T23:55:30Z</time>
      </trkpt>
      <trkpt lat="42.97321" lon="-0.39119">
        <ele>735.24</ele>
        <time>2021-06-05T23:55:32Z</time>
      </trkpt>
      <trkpt lat="42.97291" lon="-0.39051">
        <ele>744.05</ele>
        <time>2021-06-05T23:55:34Z</time>
      </trkpt>
      <trkpt lat="42.97281" lon="-0.39014">
        <ele>749.16</ele>
        <time>2021-06-05T23:55:36Z</time>
      </trkpt>
      <trkpt lat="42.97273" lon="-0.38977">
        <ele>752.6</ele>
        <time>2021-06-05T23:55:37Z</time>
      </trkpt>
      <trkpt lat="42.97258" lon="-0.3892">
        <ele>753.23</ele>
        <time>2021-06-05T23:55:39Z</time>
      </trkpt>
      <trkpt lat="42.97237" lon="-0.38881">
        <ele>758.57</ele>
        <time>2021-06-05T23:55:41Z</time>
      </trkpt>
      <trkpt lat="42.97221" lon="-0.38837">
        <ele>770.35</ele>
        <time>2021-06-05T23:55:43Z</time>
      </trkpt>
      <trkpt lat="42.97215" lon="-0.38792">
        <ele>769.34</ele>
        <time>2021-06-05T23:55:44Z</time>
      </trkpt>
      <trkpt lat="42.9717" lon="-0.38626">
        <ele>794.18</ele>
        <time>2021-06-05T23:55:46Z</time>
      </trkpt>
      <trkpt lat="42.97184" lon="-0.38553">
        <ele>780.89</ele>
        <time>2021-06-05T23:55:48Z</time>
      </trkpt>
      <trkpt lat="42.97189" lon="-0.3851">
        <ele>781.35</ele>
        <time>2021-06-05T23:55:50Z</time>
      </trkpt>
      <trkpt lat="42.97181" lon="-0.38471">
        <ele>787.31</ele>
        <time>2021-06-05T23:55:51Z</time>
      </trkpt>
      <trkpt lat="42.97154" lon="-0.3841">
        <ele>793.63</ele>
        <time>2021-06-05T23:55:53Z</time>
      </trkpt>
      <trkpt lat="42.97109" lon="-0.38282">
        <ele>797.59</ele>
        <time>2021-06-05T23:55:55Z</time>
      </trkpt>
      <trkpt lat="42.97098" lon="-0.3827">
        <ele>800.78</ele>
        <time>2021-06-05T23:55:57Z</time>
      </trkpt>
      <trkpt lat="42.97045" lon="-0.38236">
        <ele>812.02</ele>
        <time>2021-06-05T23:55:58Z</time>
      </trkpt>
      <trkpt lat="42.97034" lon="-0.38219">
        <ele>812.16</ele>
        <time>2021-06-05T23:56:00Z</time>
      </trkpt>
      <trkpt lat="42.97029" lon="-0.38207">
        <ele>811.55</ele>
        <time>2021-06-05T23:56:02Z</time>
      </trkpt>
      <trkpt lat="42.97007" lon="-0.38109">
        <ele>810.86</ele>
        <time>2021-06-05T23:56:04Z</time>
      </trkpt>
      <trkpt lat="42.97004" lon="-0.38101">
        <ele>811.04</ele>
        <time>2021-06-05T23:56:05Z</time>
      </trkpt>
      <trkpt lat="42.96983" lon="-0.38065">
        <ele>810.84</ele>
        <time>2021-06-05T23:56:07Z</time>
      </trkpt>
      <trkpt lat="42.96976" lon="-0.38059">
        <ele>811.17</ele>
        <time>2021-06-05T23:56:09Z</time>
      </trkpt>
      <trkpt lat="42.96972" lon="-0.3806">
        <ele>811.79</ele>
        <time>2021-06-05T23:56:11Z</time>
      </trkpt>
      <trkpt lat="42.96968" lon="-0.38066">
        <ele>814.31</ele>
        <time>2021-06-05T23:56:13Z</time>
      </trkpt>
      <trkpt lat="42.96967" lon="-0.38073">
        <ele>815.68</ele>
        <time>2021-06-05T23:56:14Z</time>
      </trkpt>
      <trkpt lat="42.96968" lon="-0.38085">
        <ele>817.58</ele>
        <time>2021-06-05T23:56:16Z</time>
      </trkpt>
      <trkpt lat="42.96976" lon="-0.38115">
        <ele>822.43</ele>
        <time>2021-06-05T23:56:18Z</time>
      </trkpt>
      <trkpt lat="42.96993" lon="-0.38146">
        <ele>821.58</ele>
        <time>2021-06-05T23:56:20Z</time>
      </trkpt>
      <trkpt lat="42.96997" lon="-0.38157">
        <ele>820.98</ele>
        <time>2021-06-05T23:56:21Z</time>
      </trkpt>
      <trkpt lat="42.96998" lon="-0.38167">
        <ele>821.08</ele>
        <time>2021-06-05T23:56:23Z</time>
      </trkpt>
      <trkpt lat="42.96996" lon="-0.38212">
        <ele>825.5</ele>
        <time>2021-06-05T23:56:25Z</time>
      </trkpt>
      <trkpt lat="42.97001" lon="-0.3824">
        <ele>825.88</ele>
        <time>2021-06-05T23:56:27Z</time>
      </trkpt>
      <trkpt lat="42.96999" lon="-0.38252">
        <ele>827.22</ele>
        <time>2021-06-05T23:56:28Z</time>
      </trkpt>
      <trkpt lat="42.96993" lon="-0.38256">
        <ele>828.41</ele>
        <time>2021-06-05T23:56:30Z</time>
      </trkpt>
      <trkpt lat="42.9699" lon="-0.38253">
        <ele>828.93</ele>
        <time>2021-06-05T23:56:32Z</time>
      </trkpt>
      <trkpt lat="42.96985" lon="-0.38238">
        <ele>829.51</ele>
        <time>2021-06-05T23:56:34Z</time>
      </trkpt>
      <trkpt lat="42.96983" lon="-0.38222">
        <ele>829.9</ele>
        <time>2021-06-05T23:56:35Z</time>
      </trkpt>
      <trkpt lat="42.96981" lon="-0.38171">
        <ele>828.67</ele>
        <time>2021-06-05T23:56:37Z</time>
      </trkpt>
      <trkpt lat="42.96978" lon="-0.38159">
        <ele>828.78</ele>
        <time>2021-06-05T23:56:39Z</time>
      </trkpt>
      <trkpt lat="42.96974" lon="-0.38152">
        <ele>829.32</ele>
        <time>2021-06-05T23:56:41Z</time>
      </trkpt>
      <trkpt lat="42.96968" lon="-0.38146">
        <ele>829.48</ele>
        <time>2021-06-05T23:56:42Z</time>
      </trkpt>
      <trkpt lat="42.96953" lon="-0.38136">
        <ele>829.7</ele>
        <time>2021-06-05T23:56:44Z</time>
      </trkpt>
      <trkpt lat="42.96946" lon="-0.38126">
        <ele>828.95</ele>
        <time>2021-06-05T23:56:46Z</time>
      </trkpt>
      <trkpt lat="42.9694" lon="-0.38105">
        <ele>826.67</ele>
        <time>2021-06-05T23:56:48Z</time>
      </trkpt>
      <trkpt lat="42.96936" lon="-0.38099">
        <ele>826.14</ele>
        <time>2021-06-05T23:56:49Z</time>
      </trkpt>
      <trkpt lat="42.96931" lon="-0.38094">
        <ele>825.96</ele>
        <time>2021-06-05T23:56:51Z</time>
      </trkpt>
      <trkpt lat="42.96919" lon="-0.3809">
        <ele>826.77</ele>
        <time>2021-06-05T23:56:53Z</time>
      </trkpt>
      <trkpt lat="42.969" lon="-0.38094">
        <ele>829.55</ele>
        <time>2021-06-05T23:56:55Z</time>
      </trkpt>
      <trkpt lat="42.96894" lon="-0.38094">
        <ele>830.42</ele>
        <time>2021-06-05T23:56:57Z</time>
      </trkpt>
      <trkpt lat="42.96888" lon="-0.38092">
        <ele>831.22</ele>
        <time>2021-06-05T23:56:58Z</time>
      </trkpt>
      <trkpt lat="42.96882" lon="-0.38088">
        <ele>833.43</ele>
        <time>2021-06-05T23:57:00Z</time>
      </trkpt>
      <trkpt lat="42.96867" lon="-0.38071">
        <ele>838.59</ele>
        <time>2021-06-05T23:57:02Z</time>
      </trkpt>
      <trkpt lat="42.96861" lon="-0.38057">
        <ele>839.3</ele>
        <time>2021-06-05T23:57:04Z</time>
      </trkpt>
      <trkpt lat="42.96863" lon="-0.38039">
        <ele>838.75</ele>
        <time>2021-06-05T23:57:05Z</time>
      </trkpt>
      <trkpt lat="42.96865" lon="-0.38033">
        <ele>837.55</ele>
        <time>2021-06-05T23:57:07Z</time>
      </trkpt>
      <trkpt lat="42.96877" lon="-0.38018">
        <ele>831.24</ele>
        <time>2021-06-05T23:57:09Z</time>
      </trkpt>
      <trkpt lat="42.96884" lon="-0.38005">
        <ele>828.39</ele>
        <time>2021-06-05T23:57:11Z</time>
      </trkpt>
      <trkpt lat="42.96885" lon="-0.37996">
        <ele>827.87</ele>
        <time>2021-06-05T23:57:12Z</time>
      </trkpt>
      <trkpt lat="42.96883" lon="-0.37974">
        <ele>828.54</ele>
        <time>2021-06-05T23:57:14Z</time>
      </trkpt>
      <trkpt lat="42.96874" lon="-0.37956">
        <ele>831.22</ele>
        <time>2021-06-05T23:57:16Z</time>
      </trkpt>
      <trkpt lat="42.96869" lon="-0.3795">
        <ele>832.8</ele>
        <time>2021-06-05T23:57:18Z</time>
      </trkpt>
      <trkpt lat="42.96854" lon="-0.37944">
        <ele>837.16</ele>
        <time>2021-06-05T23:57:19Z</time>
      </trkpt>
      <trkpt lat="42.96837" lon="-0.37943">
        <ele>841.86</ele>
        <time>2021-06-05T23:57:21Z</time>
      </trkpt>
      <trkpt lat="42.9683" lon="-0.37941">
        <ele>844.52</ele>
        <time>2021-06-05T23:57:23Z</time>
      </trkpt>
      <trkpt lat="42.9682" lon="-0.37932">
        <ele>849.17</ele>
        <time>2021-06-05T23:57:25Z</time>
      </trkpt>
      <trkpt lat="42.96816" lon="-0.37924">
        <ele>849.54</ele>
        <time>2021-06-05T23:57:26Z</time>
      </trkpt>
      <trkpt lat="42.96815" lon="-0.37916">
        <ele>848.68</ele>
        <time>2021-06-05T23:57:28Z</time>
      </trkpt>
      <trkpt lat="42.96818" lon="-0.37873">
        <ele>843.82</ele>
        <time>2021-06-05T23:57:30Z</time>
      </trkpt>
      <trkpt lat="42.96817" lon="-0.37859">
        <ele>843.33</ele>
        <time>2021-06-05T23:57:32Z</time>
      </trkpt>
      <trkpt lat="42.96797" lon="-0.37814">
        <ele>850.85</ele>
        <time>2021-06-05T23:57:33Z</time>
      </trkpt>
      <trkpt lat="42.96794" lon="-0.378">
        <ele>850.5</ele>
        <time>2021-06-05T23:57:35Z</time>
      </trkpt>
      <trkpt lat="42.96794" lon="-0.3776">
        <ele>845.14</ele>
        <time>2021-06-05T23:57:37Z</time>
      </trkpt>
      <trkpt lat="42.96793" lon="-0.37749">
        <ele>844.09</ele>
        <time>2021-06-05T23:57:39Z</time>
      </trkpt>
      <trkpt lat="42.96789" lon="-0.3774">
        <ele>844.45</ele>
        <time>2021-06-05T23:57:41Z</time>
      </trkpt>
      <trkpt lat="42.96783" lon="-0.37731">
        <ele>845.45</ele>
        <time>2021-06-05T23:57:42Z</time>
      </trkpt>
      <trkpt lat="42.9676" lon="-0.37703">
        <ele>859.5</ele>
        <time>2021-06-05T23:57:44Z</time>
      </trkpt>
      <trkpt lat="42.96754" lon="-0.37693">
        <ele>861.75</ele>
        <time>2021-06-05T23:57:46Z</time>
      </trkpt>
      <trkpt lat="42.9675" lon="-0.37678">
        <ele>861.43</ele>
        <time>2021-06-05T23:57:48Z</time>
      </trkpt>
      <trkpt lat="42.96749" lon="-0.37661">
        <ele>859.44</ele>
        <time>2021-06-05T23:57:49Z</time>
      </trkpt>
      <trkpt lat="42.9675" lon="-0.37646">
        <ele>857.49</ele>
        <time>2021-06-05T23:57:51Z</time>
      </trkpt>
      <trkpt lat="42.96756" lon="-0.37638">
        <ele>854.38</ele>
        <time>2021-06-05T23:57:53Z</time>
      </trkpt>
      <trkpt lat="42.96779" lon="-0.37616">
        <ele>845.73</ele>
        <time>2021-06-05T23:57:55Z</time>
      </trkpt>
      <trkpt lat="42.96797" lon="-0.37596">
        <ele>848.15</ele>
        <time>2021-06-05T23:57:56Z</time>
      </trkpt>
      <trkpt lat="42.96798" lon="-0.3758">
        <ele>851.55</ele>
        <time>2021-06-05T23:57:58Z</time>
      </trkpt>
      <trkpt lat="42.96791" lon="-0.37567">
        <ele>853.94</ele>
        <time>2021-06-05T23:58:00Z</time>
      </trkpt>
      <trkpt lat="42.96777" lon="-0.37554">
        <ele>856.05</ele>
        <time>2021-06-05T23:58:02Z</time>
      </trkpt>
      <trkpt lat="42.96763" lon="-0.37533">
        <ele>856.39</ele>
        <time>2021-06-05T23:58:03Z</time>
      </trkpt>
      <trkpt lat="42.9676" lon="-0.37486">
        <ele>859.42</ele>
        <time>2021-06-05T23:58:05Z</time>
      </trkpt>
      <trkpt lat="42.9675" lon="-0.37426">
        <ele>866.69</ele>
        <time>2021-06-05T23:58:07Z</time>
      </trkpt>
      <trkpt lat="42.96753" lon="-0.3735">
        <ele>867.34</ele>
        <time>2021-06-05T23:58:09Z</time>
      </trkpt>
      <trkpt lat="42.96738" lon="-0.37223">
        <ele>870.16</ele>
        <time>2021-06-05T23:58:10Z</time>
      </trkpt>
      <trkpt lat="42.9674" lon="-0.37191">
        <ele>873.87</ele>
        <time>2021-06-05T23:58:12Z</time>
      </trkpt>
      <trkpt lat="42.96749" lon="-0.37173">
        <ele>876.5</ele>
        <time>2021-06-05T23:58:14Z</time>
      </trkpt>
      <trkpt lat="42.96759" lon="-0.37164">
        <ele>878.05</ele>
        <time>2021-06-05T23:58:16Z</time>
      </trkpt>
      <trkpt lat="42.96771" lon="-0.37164">
        <ele>879.34</ele>
        <time>2021-06-05T23:58:17Z</time>
      </trkpt>
      <trkpt lat="42.96782" lon="-0.3717">
        <ele>880.91</ele>
        <time>2021-06-05T23:58:19Z</time>
      </trkpt>
      <trkpt lat="42.96817" lon="-0.37236">
        <ele>885.1</ele>
        <time>2021-06-05T23:58:21Z</time>
      </trkpt>
      <trkpt lat="42.96836" lon="-0.37255">
        <ele>887.99</ele>
        <time>2021-06-05T23:58:23Z</time>
      </trkpt>
      <trkpt lat="42.9686" lon="-0.37264">
        <ele>892.39</ele>
        <time>2021-06-05T23:58:25Z</time>
      </trkpt>
      <trkpt lat="42.96883" lon="-0.37257">
        <ele>893.88</ele>
        <time>2021-06-05T23:58:26Z</time>
      </trkpt>
      <trkpt lat="42.96898" lon="-0.37245">
        <ele>895.79</ele>
        <time>2021-06-05T23:58:28Z</time>
      </trkpt>
      <trkpt lat="42.96906" lon="-0.37227">
        <ele>897.61</ele>
        <time>2021-06-05T23:58:30Z</time>
      </trkpt>
      <trkpt lat="42.96906" lon="-0.37201">
        <ele>901.76</ele>
        <time>2021-06-05T23:58:32Z</time>
      </trkpt>
      <trkpt lat="42.96888" lon="-0.37161">
        <ele>905.31</ele>
        <time>2021-06-05T23:58:33Z</time>
      </trkpt>
      <trkpt lat="42.96884" lon="-0.37145">
        <ele>903.61</ele>
        <time>2021-06-05T23:58:35Z</time>
      </trkpt>
      <trkpt lat="42.96884" lon="-0.37134">
        <ele>903.11</ele>
        <time>2021-06-05T23:58:37Z</time>
      </trkpt>
      <trkpt lat="42.96892" lon="-0.37092">
        <ele>906.23</ele>
        <time>2021-06-05T23:58:39Z</time>
      </trkpt>
      <trkpt lat="42.96892" lon="-0.37079">
        <ele>907.42</ele>
        <time>2021-06-05T23:58:40Z</time>
      </trkpt>
      <trkpt lat="42.96887" lon="-0.37064">
        <ele>908.48</ele>
        <time>2021-06-05T23:58:42Z</time>
      </trkpt>
      <trkpt lat="42.96879" lon="-0.37043">
        <ele>910.5</ele>
        <time>2021-06-05T23:58:44Z</time>
      </trkpt>
      <trkpt lat="42.96859" lon="-0.37005">
        <ele>913.66</ele>
        <time>2021-06-05T23:58:46Z</time>
      </trkpt>
      <trkpt lat="42.9683" lon="-0.36953">
        <ele>916.99</ele>
        <time>2021-06-05T23:58:47Z</time>
      </trkpt>
      <trkpt lat="42.96815" lon="-0.369">
        <ele>921.59</ele>
        <time>2021-06-05T23:58:49Z</time>
      </trkpt>
      <trkpt lat="42.96795" lon="-0.36854">
        <ele>924.04</ele>
        <time>2021-06-05T23:58:51Z</time>
      </trkpt>
      <trkpt lat="42.96786" lon="-0.36827">
        <ele>927.11</ele>
        <time>2021-06-05T23:58:53Z</time>
      </trkpt>
      <trkpt lat="42.96774" lon="-0.36783">
        <ele>934.83</ele>
        <time>2021-06-05T23:58:54Z</time>
      </trkpt>
      <trkpt lat="42.96771" lon="-0.36762">
        <ele>934.97</ele>
        <time>2021-06-05T23:58:56Z</time>
      </trkpt>
      <trkpt lat="42.96768" lon="-0.3671">
        <ele>935.76</ele>
        <time>2021-06-05T23:58:58Z</time>
      </trkpt>
      <trkpt lat="42.96759" lon="-0.36661">
        <ele>935.49</ele>
        <time>2021-06-05T23:59:00Z</time>
      </trkpt>
      <trkpt lat="42.96748" lon="-0.36618">
        <ele>940.45</ele>
        <time>2021-06-05T23:59:01Z</time>
      </trkpt>
      <trkpt lat="42.96731" lon="-0.36576">
        <ele>938.98</ele>
        <time>2021-06-05T23:59:03Z</time>
      </trkpt>
      <trkpt lat="42.96723" lon="-0.36545">
        <ele>936.96</ele>
        <time>2021-06-05T23:59:05Z</time>
      </trkpt>
      <trkpt lat="42.9672" lon="-0.36492">
        <ele>941.98</ele>
        <time>2021-06-05T23:59:07Z</time>
      </trkpt>
      <trkpt lat="42.96717" lon="-0.36469">
        <ele>946.83</ele>
        <time>2021-06-05T23:59:09Z</time>
      </trkpt>
      <trkpt lat="42.96698" lon="-0.36406">
        <ele>951.36</ele>
        <time>2021-06-05T23:59:10Z</time>
      </trkpt>
      <trkpt lat="42.96693" lon="-0.36338">
        <ele>960.17</ele>
        <time>2021-06-05T23:59:12Z</time>
      </trkpt>
      <trkpt lat="42.96688" lon="-0.36305">
        <ele>968.61</ele>
        <time>2021-06-05T23:59:14Z</time>
      </trkpt>
      <trkpt lat="42.96672" lon="-0.36245">
        <ele>971.96</ele>
        <time>2021-06-05T23:59:16Z</time>
      </trkpt>
      <trkpt lat="42.96646" lon="-0.36128">
        <ele>974.48</ele>
        <time>2021-06-05T23:59:17Z</time>
      </trkpt>
      <trkpt lat="42.96643" lon="-0.36066">
        <ele>981.39</ele>
        <time>2021-06-05T23:59:19Z</time>
      </trkpt>
      <trkpt lat="42.96627" lon="-0.35993">
        <ele>985.83</ele>
        <time>2021-06-05T23:59:21Z</time>
      </trkpt>
      <trkpt lat="42.96626" lon="-0.35935">
        <ele>989.46</ele>
        <time>2021-06-05T23:59:23Z</time>
      </trkpt>
      <trkpt lat="42.96623" lon="-0.35871">
        <ele>993.71</ele>
        <time>2021-06-05T23:59:24Z</time>
      </trkpt>
      <trkpt lat="42.96617" lon="-0.3582">
        <ele>1000.16</ele>
        <time>2021-06-05T23:59:26Z</time>
      </trkpt>
      <trkpt lat="42.96606" lon="-0.35769">
        <ele>1006.76</ele>
        <time>2021-06-05T23:59:28Z</time>
      </trkpt>
      <trkpt lat="42.96594" lon="-0.35721">
        <ele>1013.28</ele>
        <time>2021-06-05T23:59:30Z</time>
      </trkpt>
      <trkpt lat="42.96565" lon="-0.35617">
        <ele>1013.3</ele>
        <time>2021-06-05T23:59:31Z</time>
      </trkpt>
      <trkpt lat="42.96546" lon="-0.35593">
        <ele>1020.4</ele>
        <time>2021-06-05T23:59:33Z</time>
      </trkpt>
      <trkpt lat="42.96516" lon="-0.35566">
        <ele>1027.53</ele>
        <time>2021-06-05T23:59:35Z</time>
      </trkpt>
      <trkpt lat="42.96498" lon="-0.35538">
        <ele>1029.39</ele>
        <time>2021-06-05T23:59:37Z</time>
      </trkpt>
      <trkpt lat="42.96453" lon="-0.35489">
        <ele>1027.46</ele>
        <time>2021-06-05T23:59:38Z</time>
      </trkpt>
      <trkpt lat="42.96411" lon="-0.35418">
        <ele>1033.56</ele>
        <time>2021-06-05T23:59:40Z</time>
      </trkpt>
      <trkpt lat="42.96399" lon="-0.35368">
        <ele>1036.68</ele>
        <time>2021-06-05T23:59:42Z</time>
      </trkpt>
      <trkpt lat="42.96385" lon="-0.35341">
        <ele>1041.52</ele>
        <time>2021-06-05T23:59:44Z</time>
      </trkpt>
      <trkpt lat="42.96366" lon="-0.35322">
        <ele>1044.01</ele>
        <time>2021-06-05T23:59:45Z</time>
      </trkpt>
      <trkpt lat="42.96355" lon="-0.35294">
        <ele>1047.88</ele>
        <time>2021-06-05T23:59:47Z</time>
      </trkpt>
      <trkpt lat="42.96345" lon="-0.3525">
        <ele>1051</ele>
        <time>2021-06-05T23:59:49Z</time>
      </trkpt>
      <trkpt lat="42.9634" lon="-0.35145">
        <ele>1054.09</ele>
        <time>2021-06-05T23:59:51Z</time>
      </trkpt>
      <trkpt lat="42.96345" lon="-0.35117">
        <ele>1056.85</ele>
        <time>2021-06-05T23:59:53Z</time>
      </trkpt>
      <trkpt lat="42.96379" lon="-0.35061">
        <ele>1069.05</ele>
        <time>2021-06-05T23:59:54Z</time>
      </trkpt>
      <trkpt lat="42.96379" lon="-0.35035">
        <ele>1068.53</ele>
        <time>2021-06-05T23:59:56Z</time>
      </trkpt>
      <trkpt lat="42.9639" lon="-0.34945">
        <ele>1072.27</ele>
        <time>2021-06-05T23:59:58Z</time>
      </trkpt>
      <trkpt lat="42.96395" lon="-0.34916">
        <ele>1076.41</ele>
        <time>2021-06-06T00:00:00Z</time>
      </trkpt>
      <trkpt lat="42.96427" lon="-0.34874">
        <ele>1087.27</ele>
        <time>2021-06-06T00:00:01Z</time>
      </trkpt>
      <trkpt lat="42.96432" lon="-0.34861">
        <ele>1088.94</ele>
        <time>2021-06-06T00:00:03Z</time>
      </trkpt>
      <trkpt lat="42.96428" lon="-0.34811">
        <ele>1090.68</ele>
        <time>2021-06-06T00:00:05Z</time>
      </trkpt>
      <trkpt lat="42.9642" lon="-0.34784">
        <ele>1090.83</ele>
        <time>2021-06-06T00:00:07Z</time>
      </trkpt>
      <trkpt lat="42.96404" lon="-0.34761">
        <ele>1088.75</ele>
        <time>2021-06-06T00:00:08Z</time>
      </trkpt>
      <trkpt lat="42.96401" lon="-0.34744">
        <ele>1089.94</ele>
        <time>2021-06-06T00:00:10Z</time>
      </trkpt>
      <trkpt lat="42.96404" lon="-0.34715">
        <ele>1094.56</ele>
        <time>2021-06-06T00:00:12Z</time>
      </trkpt>
      <trkpt lat="42.96407" lon="-0.34632">
        <ele>1102.35</ele>
        <time>2021-06-06T00:00:14Z</time>
      </trkpt>
      <trkpt lat="42.964" lon="-0.34616">
        <ele>1101.48</ele>
        <time>2021-06-06T00:00:15Z</time>
      </trkpt>
      <trkpt lat="42.96395" lon="-0.34613">
        <ele>1100.4</ele>
        <time>2021-06-06T00:00:17Z</time>
      </trkpt>
      <trkpt lat="42.96381" lon="-0.34614">
        <ele>1104.37</ele>
        <time>2021-06-06T00:00:19Z</time>
      </trkpt>
      <trkpt lat="42.96375" lon="-0.34623">
        <ele>1106.52</ele>
        <time>2021-06-06T00:00:21Z</time>
      </trkpt>
      <trkpt lat="42.96357" lon="-0.34695">
        <ele>1101.97</ele>
        <time>2021-06-06T00:00:22Z</time>
      </trkpt>
      <trkpt lat="42.96301" lon="-0.34761">
        <ele>1120.89</ele>
        <time>2021-06-06T00:00:24Z</time>
      </trkpt>
      <trkpt lat="42.96278" lon="-0.34777">
        <ele>1125.96</ele>
        <time>2021-06-06T00:00:26Z</time>
      </trkpt>
      <trkpt lat="42.96242" lon="-0.34875">
        <ele>1123.73</ele>
        <time>2021-06-06T00:00:28Z</time>
      </trkpt>
      <trkpt lat="42.96235" lon="-0.3492">
        <ele>1125.82</ele>
        <time>2021-06-06T00:00:29Z</time>
      </trkpt>
      <trkpt lat="42.96235" lon="-0.34955">
        <ele>1123.38</ele>
        <time>2021-06-06T00:00:31Z</time>
      </trkpt>
      <trkpt lat="42.96228" lon="-0.34965">
        <ele>1126.77</ele>
        <time>2021-06-06T00:00:33Z</time>
      </trkpt>
      <trkpt lat="42.96223" lon="-0.34966">
        <ele>1130.39</ele>
        <time>2021-06-06T00:00:35Z</time>
      </trkpt>
      <trkpt lat="42.96219" lon="-0.34961">
        <ele>1133.32</ele>
        <time>2021-06-06T00:00:37Z</time>
      </trkpt>
      <trkpt lat="42.96229" lon="-0.34851">
        <ele>1138.59</ele>
        <time>2021-06-06T00:00:38Z</time>
      </trkpt>
      <trkpt lat="42.96255" lon="-0.34714">
        <ele>1149.99</ele>
        <time>2021-06-06T00:00:40Z</time>
      </trkpt>
      <trkpt lat="42.96252" lon="-0.34599">
        <ele>1170.56</ele>
        <time>2021-06-06T00:00:42Z</time>
      </trkpt>
      <trkpt lat="42.96263" lon="-0.34564">
        <ele>1168.64</ele>
        <time>2021-06-06T00:00:44Z</time>
      </trkpt>
      <trkpt lat="42.96278" lon="-0.34561">
        <ele>1159.21</ele>
        <time>2021-06-06T00:00:45Z</time>
      </trkpt>
      <trkpt lat="42.96302" lon="-0.3455">
        <ele>1155.18</ele>
        <time>2021-06-06T00:00:47Z</time>
      </trkpt>
      <trkpt lat="42.96312" lon="-0.34502">
        <ele>1156.26</ele>
        <time>2021-06-06T00:00:49Z</time>
      </trkpt>
      <trkpt lat="42.96312" lon="-0.34461">
        <ele>1160.88</ele>
        <time>2021-06-06T00:00:51Z</time>
      </trkpt>
      <trkpt lat="42.96309" lon="-0.34427">
        <ele>1170.34</ele>
        <time>2021-06-06T00:00:52Z</time>
      </trkpt>
      <trkpt lat="42.96323" lon="-0.34377">
        <ele>1174.52</ele>
        <time>2021-06-06T00:00:54Z</time>
      </trkpt>
      <trkpt lat="42.96324" lon="-0.34321">
        <ele>1182.25</ele>
        <time>2021-06-06T00:00:56Z</time>
      </trkpt>
      <trkpt lat="42.9633" lon="-0.34284">
        <ele>1180.93</ele>
        <time>2021-06-06T00:00:58Z</time>
      </trkpt>
      <trkpt lat="42.96337" lon="-0.34255">
        <ele>1180.1</ele>
        <time>2021-06-06T00:00:59Z</time>
      </trkpt>
      <trkpt lat="42.9634" lon="-0.34221">
        <ele>1179.02</ele>
        <time>2021-06-06T00:01:01Z</time>
      </trkpt>
      <trkpt lat="42.96348" lon="-0.34192">
        <ele>1182.46</ele>
        <time>2021-06-06T00:01:03Z</time>
      </trkpt>
      <trkpt lat="42.96348" lon="-0.34164">
        <ele>1188.18</ele>
        <time>2021-06-06T00:01:05Z</time>
      </trkpt>
      <trkpt lat="42.9635" lon="-0.34129">
        <ele>1193.85</ele>
        <time>2021-06-06T00:01:06Z</time>
      </trkpt>
      <trkpt lat="42.96347" lon="-0.34111">
        <ele>1191.91</ele>
        <time>2021-06-06T00:01:08Z</time>
      </trkpt>
      <trkpt lat="42.96332" lon="-0.34068">
        <ele>1182.91</ele>
        <time>2021-06-06T00:01:10Z</time>
      </trkpt>
      <trkpt lat="42.96301" lon="-0.33985">
        <ele>1182.75</ele>
        <time>2021-06-06T00:01:12Z</time>
      </trkpt>
      <trkpt lat="42.963" lon="-0.33975">
        <ele>1184.02</ele>
        <time>2021-06-06T00:01:13Z</time>
      </trkpt>
      <trkpt lat="42.963" lon="-0.33961">
        <ele>1185.85</ele>
        <time>2021-06-06T00:01:15Z</time>
      </trkpt>
      <trkpt lat="42.9631" lon="-0.33943">
        <ele>1190.1</ele>
        <time>2021-06-06T00:01:17Z</time>
      </trkpt>
      <trkpt lat="42.96316" lon="-0.33938">
        <ele>1191.96</ele>
        <time>2021-06-06T00:01:19Z</time>
      </trkpt>
      <trkpt lat="42.96359" lon="-0.33929">
        <ele>1203.62</ele>
        <time>2021-06-06T00:01:21Z</time>
      </trkpt>
      <trkpt lat="42.96375" lon="-0.33931">
        <ele>1208.98</ele>
        <time>2021-06-06T00:01:22Z</time>
      </trkpt>
      <trkpt lat="42.96382" lon="-0.33936">
        <ele>1211.42</ele>
        <time>2021-06-06T00:01:24Z</time>
      </trkpt>
      <trkpt lat="42.9639" lon="-0.33943">
        <ele>1213.6</ele>
        <time>2021-06-06T00:01:26Z</time>
      </trkpt>
      <trkpt lat="42.96397" lon="-0.33953">
        <ele>1214.59</ele>
        <time>2021-06-06T00:01:28Z</time>
      </trkpt>
      <trkpt lat="42.96405" lon="-0.33971">
        <ele>1213.83</ele>
        <time>2021-06-06T00:01:29Z</time>
      </trkpt>
      <trkpt lat="42.96408" lon="-0.3399">
        <ele>1211.4</ele>
        <time>2021-06-06T00:01:31Z</time>
      </trkpt>
      <trkpt lat="42.96407" lon="-0.34009">
        <ele>1208.62</ele>
        <time>2021-06-06T00:01:33Z</time>
      </trkpt>
      <trkpt lat="42.96415" lon="-0.34131">
        <ele>1213.35</ele>
        <time>2021-06-06T00:01:35Z</time>
      </trkpt>
      <trkpt lat="42.96418" lon="-0.34149">
        <ele>1213.56</ele>
        <time>2021-06-06T00:01:36Z</time>
      </trkpt>
      <trkpt lat="42.96466" lon="-0.34317">
        <ele>1220.45</ele>
        <time>2021-06-06T00:01:38Z</time>
      </trkpt>
      <trkpt lat="42.96472" lon="-0.34333">
        <ele>1218.87</ele>
        <time>2021-06-06T00:01:40Z</time>
      </trkpt>
      <trkpt lat="42.9648" lon="-0.34342">
        <ele>1217.45</ele>
        <time>2021-06-06T00:01:42Z</time>
      </trkpt>
      <trkpt lat="42.9649" lon="-0.34346">
        <ele>1218.63</ele>
        <time>2021-06-06T00:01:43Z</time>
      </trkpt>
      <trkpt lat="42.96499" lon="-0.3434">
        <ele>1221.17</ele>
        <time>2021-06-06T00:01:45Z</time>
      </trkpt>
      <trkpt lat="42.96507" lon="-0.34324">
        <ele>1226.51</ele>
        <time>2021-06-06T00:01:47Z</time>
      </trkpt>
      <trkpt lat="42.9651" lon="-0.343">
        <ele>1231.45</ele>
        <time>2021-06-06T00:01:49Z</time>
      </trkpt>
      <trkpt lat="42.9651" lon="-0.34264">
        <ele>1236.09</ele>
        <time>2021-06-06T00:01:50Z</time>
      </trkpt>
      <trkpt lat="42.96507" lon="-0.34212">
        <ele>1244.04</ele>
        <time>2021-06-06T00:01:52Z</time>
      </trkpt>
      <trkpt lat="42.96502" lon="-0.34174">
        <ele>1250.41</ele>
        <time>2021-06-06T00:01:54Z</time>
      </trkpt>
      <trkpt lat="42.96495" lon="-0.34082">
        <ele>1260.86</ele>
        <time>2021-06-06T00:01:56Z</time>
      </trkpt>
      <trkpt lat="42.9649" lon="-0.3406">
        <ele>1258.54</ele>
        <time>2021-06-06T00:01:57Z</time>
      </trkpt>
      <trkpt lat="42.96479" lon="-0.3402">
        <ele>1254.67</ele>
        <time>2021-06-06T00:01:59Z</time>
      </trkpt>
      <trkpt lat="42.96476" lon="-0.33995">
        <ele>1254.01</ele>
        <time>2021-06-06T00:02:01Z</time>
      </trkpt>
      <trkpt lat="42.96474" lon="-0.33946">
        <ele>1256.78</ele>
        <time>2021-06-06T00:02:03Z</time>
      </trkpt>
      <trkpt lat="42.96466" lon="-0.3392">
        <ele>1252.68</ele>
        <time>2021-06-06T00:02:05Z</time>
      </trkpt>
      <trkpt lat="42.96463" lon="-0.33907">
        <ele>1252.6</ele>
        <time>2021-06-06T00:02:06Z</time>
      </trkpt>
      <trkpt lat="42.96468" lon="-0.33857">
        <ele>1260.21</ele>
        <time>2021-06-06T00:02:08Z</time>
      </trkpt>
      <trkpt lat="42.96465" lon="-0.33845">
        <ele>1259.44</ele>
        <time>2021-06-06T00:02:10Z</time>
      </trkpt>
      <trkpt lat="42.9645" lon="-0.338">
        <ele>1260.27</ele>
        <time>2021-06-06T00:02:12Z</time>
      </trkpt>
      <trkpt lat="42.96448" lon="-0.33783">
        <ele>1265.59</ele>
        <time>2021-06-06T00:02:13Z</time>
      </trkpt>
      <trkpt lat="42.96451" lon="-0.33739">
        <ele>1279.27</ele>
        <time>2021-06-06T00:02:15Z</time>
      </trkpt>
      <trkpt lat="42.9645" lon="-0.3372">
        <ele>1282.53</ele>
        <time>2021-06-06T00:02:17Z</time>
      </trkpt>
      <trkpt lat="42.96437" lon="-0.33642">
        <ele>1295.41</ele>
        <time>2021-06-06T00:02:19Z</time>
      </trkpt>
      <trkpt lat="42.96428" lon="-0.33575">
        <ele>1301.13</ele>
        <time>2021-06-06T00:02:20Z</time>
      </trkpt>
      <trkpt lat="42.96407" lon="-0.33515">
        <ele>1294.97</ele>
        <time>2021-06-06T00:02:22Z</time>
      </trkpt>
      <trkpt lat="42.96373" lon="-0.33436">
        <ele>1304.15</ele>
        <time>2021-06-06T00:02:24Z</time>
      </trkpt>
      <trkpt lat="42.96365" lon="-0.33411">
        <ele>1310.04</ele>
        <time>2021-06-06T00:02:26Z</time>
      </trkpt>
      <trkpt lat="42.96329" lon="-0.3335">
        <ele>1314.47</ele>
        <time>2021-06-06T00:02:27Z</time>
      </trkpt>
      <trkpt lat="42.96319" lon="-0.33337">
        <ele>1311.97</ele>
        <time>2021-06-06T00:02:29Z</time>
      </trkpt>
      <trkpt lat="42.96283" lon="-0.33302">
        <ele>1308.01</ele>
        <time>2021-06-06T00:02:31Z</time>
      </trkpt>
      <trkpt lat="42.9624" lon="-0.33265">
        <ele>1324.72</ele>
        <time>2021-06-06T00:02:33Z</time>
      </trkpt>
      <trkpt lat="42.96229" lon="-0.33263">
        <ele>1327.18</ele>
        <time>2021-06-06T00:02:34Z</time>
      </trkpt>
      <trkpt lat="42.96173" lon="-0.3326">
        <ele>1333.19</ele>
        <time>2021-06-06T00:02:36Z</time>
      </trkpt>
      <trkpt lat="42.9616" lon="-0.33262">
        <ele>1334.05</ele>
        <time>2021-06-06T00:02:38Z</time>
      </trkpt>
      <trkpt lat="42.96149" lon="-0.33268">
        <ele>1334.4</ele>
        <time>2021-06-06T00:02:40Z</time>
      </trkpt>
      <trkpt lat="42.96117" lon="-0.33305">
        <ele>1332.21</ele>
        <time>2021-06-06T00:02:41Z</time>
      </trkpt>
      <trkpt lat="42.96108" lon="-0.3331">
        <ele>1332.64</ele>
        <time>2021-06-06T00:02:43Z</time>
      </trkpt>
      <trkpt lat="42.96097" lon="-0.33305">
        <ele>1334.67</ele>
        <time>2021-06-06T00:02:45Z</time>
      </trkpt>
      <trkpt lat="42.96073" lon="-0.33281">
        <ele>1344.06</ele>
        <time>2021-06-06T00:02:47Z</time>
      </trkpt>
      <trkpt lat="42.96063" lon="-0.33278">
        <ele>1346.31</ele>
        <time>2021-06-06T00:02:49Z</time>
      </trkpt>
      <trkpt lat="42.96045" lon="-0.33278">
        <ele>1349.29</ele>
        <time>2021-06-06T00:02:50Z</time>
      </trkpt>
      <trkpt lat="42.96031" lon="-0.33284">
        <ele>1351.05</ele>
        <time>2021-06-06T00:02:52Z</time>
      </trkpt>
      <trkpt lat="42.96012" lon="-0.33298">
        <ele>1353.85</ele>
        <time>2021-06-06T00:02:54Z</time>
      </trkpt>
      <trkpt lat="42.95987" lon="-0.33305">
        <ele>1354.75</ele>
        <time>2021-06-06T00:02:56Z</time>
      </trkpt>
      <trkpt lat="42.95977" lon="-0.33305">
        <ele>1354.27</ele>
        <time>2021-06-06T00:02:57Z</time>
      </trkpt>
      <trkpt lat="42.95917" lon="-0.33294">
        <ele>1355.69</ele>
        <time>2021-06-06T00:02:59Z</time>
      </trkpt>
      <trkpt lat="42.95906" lon="-0.33294">
        <ele>1355.53</ele>
        <time>2021-06-06T00:03:01Z</time>
      </trkpt>
      <trkpt lat="42.95879" lon="-0.33301">
        <ele>1355.47</ele>
        <time>2021-06-06T00:03:03Z</time>
      </trkpt>
      <trkpt lat="42.95861" lon="-0.333">
        <ele>1355.99</ele>
        <time>2021-06-06T00:03:04Z</time>
      </trkpt>
      <trkpt lat="42.95846" lon="-0.33298">
        <ele>1356.39</ele>
        <time>2021-06-06T00:03:06Z</time>
      </trkpt>
      <trkpt lat="42.95829" lon="-0.33289">
        <ele>1356.42</ele>
        <time>2021-06-06T00:03:08Z</time>
      </trkpt>
      <trkpt lat="42.9581" lon="-0.33267">
        <ele>1356.33</ele>
        <time>2021-06-06T00:03:10Z</time>
      </trkpt>
      <trkpt lat="42.95807" lon="-0.3326">
        <ele>1356.6</ele>
        <time>2021-06-06T00:03:11Z</time>
      </trkpt>
      <trkpt lat="42.95809" lon="-0.33246">
        <ele>1357.41</ele>
        <time>2021-06-06T00:03:13Z</time>
      </trkpt>
      <trkpt lat="42.95813" lon="-0.33238">
        <ele>1358.56</ele>
        <time>2021-06-06T00:03:15Z</time>
      </trkpt>
      <trkpt lat="42.95817" lon="-0.33235">
        <ele>1359.28</ele>
        <time>2021-06-06T00:03:17Z</time>
      </trkpt>
      <trkpt lat="42.95827" lon="-0.33234">
        <ele>1360.16</ele>
        <time>2021-06-06T00:03:18Z</time>
      </trkpt>
      <trkpt lat="42.9584" lon="-0.33237">
        <ele>1360.26</ele>
        <time>2021-06-06T00:03:20Z</time>
      </trkpt>
      <trkpt lat="42.95848" lon="-0.33242">
        <ele>1359.13</ele>
        <time>2021-06-06T00:03:22Z</time>
      </trkpt>
      <trkpt lat="42.95865" lon="-0.33265">
        <ele>1357.31</ele>
        <time>2021-06-06T00:03:24Z</time>
      </trkpt>
      <trkpt lat="42.95881" lon="-0.3327">
        <ele>1357.72</ele>
        <time>2021-06-06T00:03:25Z</time>
      </trkpt>
      <trkpt lat="42.95911" lon="-0.33261">
        <ele>1362.55</ele>
        <time>2021-06-06T00:03:27Z</time>
      </trkpt>
      <trkpt lat="42.9592" lon="-0.3326">
        <ele>1363.27</ele>
        <time>2021-06-06T00:03:29Z</time>
      </trkpt>
      <trkpt lat="42.95939" lon="-0.33263">
        <ele>1362.54</ele>
        <time>2021-06-06T00:03:31Z</time>
      </trkpt>
      <trkpt lat="42.95952" lon="-0.33262">
        <ele>1363.09</ele>
        <time>2021-06-06T00:03:33Z</time>
      </trkpt>
      <trkpt lat="42.95965" lon="-0.33256">
        <ele>1364.38</ele>
        <time>2021-06-06T00:03:34Z</time>
      </trkpt>
      <trkpt lat="42.95973" lon="-0.3325">
        <ele>1366.1</ele>
        <time>2021-06-06T00:03:36Z</time>
      </trkpt>
      <trkpt lat="42.9598" lon="-0.3324">
        <ele>1368.02</ele>
        <time>2021-06-06T00:03:38Z</time>
      </trkpt>
      <trkpt lat="42.9599" lon="-0.33195">
        <ele>1373.63</ele>
        <time>2021-06-06T00:03:40Z</time>
      </trkpt>
      <trkpt lat="42.95994" lon="-0.33186">
        <ele>1374.67</ele>
        <time>2021-06-06T00:03:41Z</time>
      </trkpt>
      <trkpt lat="42.96043" lon="-0.33127">
        <ele>1382.05</ele>
        <time>2021-06-06T00:03:43Z</time>
      </trkpt>
      <trkpt lat="42.96056" lon="-0.33123">
        <ele>1382.07</ele>
        <time>2021-06-06T00:03:45Z</time>
      </trkpt>
      <trkpt lat="42.96087" lon="-0.33116">
        <ele>1382.47</ele>
        <time>2021-06-06T00:03:47Z</time>
      </trkpt>
      <trkpt lat="42.96103" lon="-0.33107">
        <ele>1388.57</ele>
        <time>2021-06-06T00:03:48Z</time>
      </trkpt>
      <trkpt lat="42.96112" lon="-0.33105">
        <ele>1390.69</ele>
        <time>2021-06-06T00:03:50Z</time>
      </trkpt>
      <trkpt lat="42.96121" lon="-0.33109">
        <ele>1389.78</ele>
        <time>2021-06-06T00:03:52Z</time>
      </trkpt>
      <trkpt lat="42.96131" lon="-0.3311">
        <ele>1390.09</ele>
        <time>2021-06-06T00:03:54Z</time>
      </trkpt>
      <trkpt lat="42.96151" lon="-0.33104">
        <ele>1392.34</ele>
        <time>2021-06-06T00:03:55Z</time>
      </trkpt>
      <trkpt lat="42.96184" lon="-0.33088">
        <ele>1397.53</ele>
        <time>2021-06-06T00:03:57Z</time>
      </trkpt>
      <trkpt lat="42.96221" lon="-0.33063">
        <ele>1402.65</ele>
        <time>2021-06-06T00:03:59Z</time>
      </trkpt>
      <trkpt lat="42.9625" lon="-0.33047">
        <ele>1404.5</ele>
        <time>2021-06-06T00:04:01Z</time>
      </trkpt>
      <trkpt lat="42.96275" lon="-0.33038">
        <ele>1410.09</ele>
        <time>2021-06-06T00:04:02Z</time>
      </trkpt>
      <trkpt lat="42.96294" lon="-0.33039">
        <ele>1418.79</ele>
        <time>2021-06-06T00:04:04Z</time>
      </trkpt>
      <trkpt lat="42.9631" lon="-0.33047">
        <ele>1422.76</ele>
        <time>2021-06-06T00:04:06Z</time>
      </trkpt>
      <trkpt lat="42.96327" lon="-0.33063">
        <ele>1425.57</ele>
        <time>2021-06-06T00:04:08Z</time>
      </trkpt>
      <trkpt lat="42.96337" lon="-0.33089">
        <ele>1421.36</ele>
        <time>2021-06-06T00:04:09Z</time>
      </trkpt>
      <trkpt lat="42.96349" lon="-0.33115">
        <ele>1419.64</ele>
        <time>2021-06-06T00:04:11Z</time>
      </trkpt>
      <trkpt lat="42.96358" lon="-0.33123">
        <ele>1421.91</ele>
        <time>2021-06-06T00:04:13Z</time>
      </trkpt>
      <trkpt lat="42.96369" lon="-0.33124">
        <ele>1425.83</ele>
        <time>2021-06-06T00:04:15Z</time>
      </trkpt>
      <trkpt lat="42.96381" lon="-0.33128">
        <ele>1428.18</ele>
        <time>2021-06-06T00:04:17Z</time>
      </trkpt>
      <trkpt lat="42.96413" lon="-0.33145">
        <ele>1426.4</ele>
        <time>2021-06-06T00:04:18Z</time>
      </trkpt>
      <trkpt lat="42.96437" lon="-0.33155">
        <ele>1433.45</ele>
        <time>2021-06-06T00:04:20Z</time>
      </trkpt>
      <trkpt lat="42.96446" lon="-0.33166">
        <ele>1433.44</ele>
        <time>2021-06-06T00:04:22Z</time>
      </trkpt>
      <trkpt lat="42.96451" lon="-0.33176">
        <ele>1432.07</ele>
        <time>2021-06-06T00:04:24Z</time>
      </trkpt>
      <trkpt lat="42.96458" lon="-0.33184">
        <ele>1432.64</ele>
        <time>2021-06-06T00:04:25Z</time>
      </trkpt>
      <trkpt lat="42.96477" lon="-0.33199">
        <ele>1436.28</ele>
        <time>2021-06-06T00:04:27Z</time>
      </trkpt>
      <trkpt lat="42.96484" lon="-0.33217">
        <ele>1432.95</ele>
        <time>2021-06-06T00:04:29Z</time>
      </trkpt>
      <trkpt lat="42.96493" lon="-0.33227">
        <ele>1435.33</ele>
        <time>2021-06-06T00:04:31Z</time>
      </trkpt>
      <trkpt lat="42.96497" lon="-0.33238">
        <ele>1434.56</ele>
        <time>2021-06-06T00:04:32Z</time>
      </trkpt>
      <trkpt lat="42.96497" lon="-0.33255">
        <ele>1430.41</ele>
        <time>2021-06-06T00:04:34Z</time>
      </trkpt>
      <trkpt lat="42.96499" lon="-0.33269">
        <ele>1428.56</ele>
        <time>2021-06-06T00:04:36Z</time>
      </trkpt>
      <trkpt lat="42.96507" lon="-0.33294">
        <ele>1432.57</ele>
        <time>2021-06-06T00:04:38Z</time>
      </trkpt>
      <trkpt lat="42.96508" lon="-0.33318">
        <ele>1432.82</ele>
        <time>2021-06-06T00:04:39Z</time>
      </trkpt>
      <trkpt lat="42.9651" lon="-0.33336">
        <ele>1434.3</ele>
        <time>2021-06-06T00:04:41Z</time>
      </trkpt>
      <trkpt lat="42.96526" lon="-0.33394">
        <ele>1450.46</ele>
        <time>2021-06-06T00:04:43Z</time>
      </trkpt>
      <trkpt lat="42.96529" lon="-0.33414">
        <ele>1448.23</ele>
        <time>2021-06-06T00:04:45Z</time>
      </trkpt>
      <trkpt lat="42.96537" lon="-0.33431">
        <ele>1444.9</ele>
        <time>2021-06-06T00:04:46Z</time>
      </trkpt>
      <trkpt lat="42.96558" lon="-0.33451">
        <ele>1446.39</ele>
        <time>2021-06-06T00:04:48Z</time>
      </trkpt>
      <trkpt lat="42.96563" lon="-0.33452">
        <ele>1446.92</ele>
        <time>2021-06-06T00:04:50Z</time>
      </trkpt>
      <trkpt lat="42.96595" lon="-0.33441">
        <ele>1459.71</ele>
        <time>2021-06-06T00:04:52Z</time>
      </trkpt>
      <trkpt lat="42.96617" lon="-0.3344">
        <ele>1470.66</ele>
        <time>2021-06-06T00:04:53Z</time>
      </trkpt>
      <trkpt lat="42.96627" lon="-0.33447">
        <ele>1474.58</ele>
        <time>2021-06-06T00:04:55Z</time>
      </trkpt>
      <trkpt lat="42.96631" lon="-0.33453">
        <ele>1474.51</ele>
        <time>2021-06-06T00:04:57Z</time>
      </trkpt>
      <trkpt lat="42.96638" lon="-0.33482">
        <ele>1467.02</ele>
        <time>2021-06-06T00:04:59Z</time>
      </trkpt>
      <trkpt lat="42.96639" lon="-0.33505">
        <ele>1461.09</ele>
        <time>2021-06-06T00:05:01Z</time>
      </trkpt>
      <trkpt lat="42.96645" lon="-0.33525">
        <ele>1458.55</ele>
        <time>2021-06-06T00:05:02Z</time>
      </trkpt>
      <trkpt lat="42.96654" lon="-0.33535">
        <ele>1458.33</ele>
        <time>2021-06-06T00:05:04Z</time>
      </trkpt>
      <trkpt lat="42.96673" lon="-0.33549">
        <ele>1462.08</ele>
        <time>2021-06-06T00:05:06Z</time>
      </trkpt>
      <trkpt lat="42.96692" lon="-0.33557">
        <ele>1469.13</ele>
        <time>2021-06-06T00:05:08Z</time>
      </trkpt>
      <trkpt lat="42.96715" lon="-0.33557">
        <ele>1476.24</ele>
        <time>2021-06-06T00:05:09Z</time>
      </trkpt>
      <trkpt lat="42.96735" lon="-0.33562">
        <ele>1479.96</ele>
        <time>2021-06-06T00:05:11Z</time>
      </trkpt>
      <trkpt lat="42.9676" lon="-0.33587">
        <ele>1481.33</ele>
        <time>2021-06-06T00:05:13Z</time>
      </trkpt>
      <trkpt lat="42.96771" lon="-0.33591">
        <ele>1482.18</ele>
        <time>2021-06-06T00:05:15Z</time>
      </trkpt>
      <trkpt lat="42.96785" lon="-0.33593">
        <ele>1483.81</ele>
        <time>2021-06-06T00:05:16Z</time>
      </trkpt>
      <trkpt lat="42.9679" lon="-0.33597">
        <ele>1481.99</ele>
        <time>2021-06-06T00:05:18Z</time>
      </trkpt>
      <trkpt lat="42.96794" lon="-0.33603">
        <ele>1479.5</ele>
        <time>2021-06-06T00:05:20Z</time>
      </trkpt>
      <trkpt lat="42.96804" lon="-0.33627">
        <ele>1468.51</ele>
        <time>2021-06-06T00:05:22Z</time>
      </trkpt>
      <trkpt lat="42.96829" lon="-0.33652">
        <ele>1471.51</ele>
        <time>2021-06-06T00:05:23Z</time>
      </trkpt>
      <trkpt lat="42.9684" lon="-0.33657">
        <ele>1475.64</ele>
        <time>2021-06-06T00:05:25Z</time>
      </trkpt>
      <trkpt lat="42.96858" lon="-0.33658">
        <ele>1484.21</ele>
        <time>2021-06-06T00:05:27Z</time>
      </trkpt>
      <trkpt lat="42.9688" lon="-0.33665">
        <ele>1495.88</ele>
        <time>2021-06-06T00:05:29Z</time>
      </trkpt>
      <trkpt lat="42.96886" lon="-0.33671">
        <ele>1498.18</ele>
        <time>2021-06-06T00:05:30Z</time>
      </trkpt>
      <trkpt lat="42.96889" lon="-0.33679">
        <ele>1498.27</ele>
        <time>2021-06-06T00:05:32Z</time>
      </trkpt>
      <trkpt lat="42.96889" lon="-0.33689">
        <ele>1496.38</ele>
        <time>2021-06-06T00:05:34Z</time>
      </trkpt>
      <trkpt lat="42.96881" lon="-0.33715">
        <ele>1486.83</ele>
        <time>2021-06-06T00:05:36Z</time>
      </trkpt>
      <trkpt lat="42.96882" lon="-0.33726">
        <ele>1485.7</ele>
        <time>2021-06-06T00:05:37Z</time>
      </trkpt>
      <trkpt lat="42.9689" lon="-0.33742">
        <ele>1490.98</ele>
        <time>2021-06-06T00:05:39Z</time>
      </trkpt>
      <trkpt lat="42.96892" lon="-0.33753">
        <ele>1492.86</ele>
        <time>2021-06-06T00:05:41Z</time>
      </trkpt>
      <trkpt lat="42.96885" lon="-0.33778">
        <ele>1491.45</ele>
        <time>2021-06-06T00:05:43Z</time>
      </trkpt>
      <trkpt lat="42.96882" lon="-0.33793">
        <ele>1491.27</ele>
        <time>2021-06-06T00:05:45Z</time>
      </trkpt>
      <trkpt lat="42.96883" lon="-0.33803">
        <ele>1493.29</ele>
        <time>2021-06-06T00:05:46Z</time>
      </trkpt>
      <trkpt lat="42.96887" lon="-0.33832">
        <ele>1500.31</ele>
        <time>2021-06-06T00:05:48Z</time>
      </trkpt>
      <trkpt lat="42.96898" lon="-0.33884">
        <ele>1504.15</ele>
        <time>2021-06-06T00:05:50Z</time>
      </trkpt>
      <trkpt lat="42.96901" lon="-0.33929">
        <ele>1501.25</ele>
        <time>2021-06-06T00:05:52Z</time>
      </trkpt>
      <trkpt lat="42.96926" lon="-0.34024">
        <ele>1508.64</ele>
        <time>2021-06-06T00:05:53Z</time>
      </trkpt>
      <trkpt lat="42.96932" lon="-0.34041">
        <ele>1513.15</ele>
        <time>2021-06-06T00:05:55Z</time>
      </trkpt>
      <trkpt lat="42.9694" lon="-0.34054">
        <ele>1518.54</ele>
        <time>2021-06-06T00:05:57Z</time>
      </trkpt>
      <trkpt lat="42.96944" lon="-0.34068">
        <ele>1520.56</ele>
        <time>2021-06-06T00:05:59Z</time>
      </trkpt>
      <trkpt lat="42.96942" lon="-0.34081">
        <ele>1519.58</ele>
        <time>2021-06-06T00:06:00Z</time>
      </trkpt>
      <trkpt lat="42.96926" lon="-0.34121">
        <ele>1510.15</ele>
        <time>2021-06-06T00:06:02Z</time>
      </trkpt>
      <trkpt lat="42.96925" lon="-0.34135">
        <ele>1510.92</ele>
        <time>2021-06-06T00:06:04Z</time>
      </trkpt>
      <trkpt lat="42.9693" lon="-0.3415">
        <ele>1516.21</ele>
        <time>2021-06-06T00:06:06Z</time>
      </trkpt>
      <trkpt lat="42.9696" lon="-0.34208">
        <ele>1532.41</ele>
        <time>2021-06-06T00:06:07Z</time>
      </trkpt>
      <trkpt lat="42.9697" lon="-0.34233">
        <ele>1534.15</ele>
        <time>2021-06-06T00:06:09Z</time>
      </trkpt>
      <trkpt lat="42.96987" lon="-0.34279">
        <ele>1541.02</ele>
        <time>2021-06-06T00:06:11Z</time>
      </trkpt>
      <trkpt lat="42.96989" lon="-0.34292">
        <ele>1540.93</ele>
        <time>2021-06-06T00:06:13Z</time>
      </trkpt>
      <trkpt lat="42.96984" lon="-0.3433">
        <ele>1533.11</ele>
        <time>2021-06-06T00:06:14Z</time>
      </trkpt>
      <trkpt lat="42.96982" lon="-0.34359">
        <ele>1527.22</ele>
        <time>2021-06-06T00:06:16Z</time>
      </trkpt>
      <trkpt lat="42.96986" lon="-0.34373">
        <ele>1525.97</ele>
        <time>2021-06-06T00:06:18Z</time>
      </trkpt>
      <trkpt lat="42.96994" lon="-0.34382">
        <ele>1527.02</ele>
        <time>2021-06-06T00:06:20Z</time>
      </trkpt>
      <trkpt lat="42.97018" lon="-0.34401">
        <ele>1535.57</ele>
        <time>2021-06-06T00:06:21Z</time>
      </trkpt>
      <trkpt lat="42.97028" lon="-0.34415">
        <ele>1535.96</ele>
        <time>2021-06-06T00:06:23Z</time>
      </trkpt>
      <trkpt lat="42.97065" lon="-0.34489">
        <ele>1544.67</ele>
        <time>2021-06-06T00:06:25Z</time>
      </trkpt>
      <trkpt lat="42.9708" lon="-0.34526">
        <ele>1549.49</ele>
        <time>2021-06-06T00:06:27Z</time>
      </trkpt>
      <trkpt lat="42.97086" lon="-0.34534">
        <ele>1553.06</ele>
        <time>2021-06-06T00:06:29Z</time>
      </trkpt>
      <trkpt lat="42.97099" lon="-0.34547">
        <ele>1561.09</ele>
        <time>2021-06-06T00:06:30Z</time>
      </trkpt>
      <trkpt lat="42.97142" lon="-0.34575">
        <ele>1571.56</ele>
        <time>2021-06-06T00:06:32Z</time>
      </trkpt>
      <trkpt lat="42.97146" lon="-0.34583">
        <ele>1571.6</ele>
        <time>2021-06-06T00:06:34Z</time>
      </trkpt>
      <trkpt lat="42.97157" lon="-0.34625">
        <ele>1560.24</ele>
        <time>2021-06-06T00:06:36Z</time>
      </trkpt>
      <trkpt lat="42.97157" lon="-0.34649">
        <ele>1554.66</ele>
        <time>2021-06-06T00:06:37Z</time>
      </trkpt>
      <trkpt lat="42.9716" lon="-0.34665">
        <ele>1555.65</ele>
        <time>2021-06-06T00:06:39Z</time>
      </trkpt>
      <trkpt lat="42.97164" lon="-0.34675">
        <ele>1558.19</ele>
        <time>2021-06-06T00:06:41Z</time>
      </trkpt>
      <trkpt lat="42.97171" lon="-0.34678">
        <ele>1559.21</ele>
        <time>2021-06-06T00:06:43Z</time>
      </trkpt>
      <trkpt lat="42.97177" lon="-0.34677">
        <ele>1558.21</ele>
        <time>2021-06-06T00:06:44Z</time>
      </trkpt>
      <trkpt lat="42.97182" lon="-0.34669">
        <ele>1558.14</ele>
        <time>2021-06-06T00:06:46Z</time>
      </trkpt>
      <trkpt lat="42.97185" lon="-0.34638">
        <ele>1562.48</ele>
        <time>2021-06-06T00:06:48Z</time>
      </trkpt>
      <trkpt lat="42.97185" lon="-0.34601">
        <ele>1575.87</ele>
        <time>2021-06-06T00:06:50Z</time>
      </trkpt>
      <trkpt lat="42.9719" lon="-0.34588">
        <ele>1580.4</ele>
        <time>2021-06-06T00:06:51Z</time>
      </trkpt>
      <trkpt lat="42.97197" lon="-0.34579">
        <ele>1583.07</ele>
        <time>2021-06-06T00:06:53Z</time>
      </trkpt>
      <trkpt lat="42.97206" lon="-0.34576">
        <ele>1583.05</ele>
        <time>2021-06-06T00:06:55Z</time>
      </trkpt>
      <trkpt lat="42.97244" lon="-0.34577">
        <ele>1582.74</ele>
        <time>2021-06-06T00:06:57Z</time>
      </trkpt>
      <trkpt lat="42.97251" lon="-0.3458">
        <ele>1582.14</ele>
        <time>2021-06-06T00:06:58Z</time>
      </trkpt>
      <trkpt lat="42.97257" lon="-0.3459">
        <ele>1581.25</ele>
        <time>2021-06-06T00:07:00Z</time>
      </trkpt>
      <trkpt lat="42.97262" lon="-0.34603">
        <ele>1579.43</ele>
        <time>2021-06-06T00:07:02Z</time>
      </trkpt>
      <trkpt lat="42.97264" lon="-0.34619">
        <ele>1576.45</ele>
        <time>2021-06-06T00:07:04Z</time>
      </trkpt>
      <trkpt lat="42.9727" lon="-0.34634">
        <ele>1575.46</ele>
        <time>2021-06-06T00:07:05Z</time>
      </trkpt>
      <trkpt lat="42.97278" lon="-0.34641">
        <ele>1576.67</ele>
        <time>2021-06-06T00:07:07Z</time>
      </trkpt>
      <trkpt lat="42.97296" lon="-0.34646">
        <ele>1581.65</ele>
        <time>2021-06-06T00:07:09Z</time>
      </trkpt>
      <trkpt lat="42.97333" lon="-0.34651">
        <ele>1588.1</ele>
        <time>2021-06-06T00:07:11Z</time>
      </trkpt>
      <trkpt lat="42.97345" lon="-0.34651">
        <ele>1588.68</ele>
        <time>2021-06-06T00:07:13Z</time>
      </trkpt>
      <trkpt lat="42.97353" lon="-0.34648">
        <ele>1589.45</ele>
        <time>2021-06-06T00:07:14Z</time>
      </trkpt>
      <trkpt lat="42.97362" lon="-0.34638">
        <ele>1591.08</ele>
        <time>2021-06-06T00:07:16Z</time>
      </trkpt>
      <trkpt lat="42.97368" lon="-0.34625">
        <ele>1592.61</ele>
        <time>2021-06-06T00:07:18Z</time>
      </trkpt>
      <trkpt lat="42.97368" lon="-0.34611">
        <ele>1594.54</ele>
        <time>2021-06-06T00:07:20Z</time>
      </trkpt>
      <trkpt lat="42.97362" lon="-0.34565">
        <ele>1603.95</ele>
        <time>2021-06-06T00:07:21Z</time>
      </trkpt>
      <trkpt lat="42.97366" lon="-0.34548">
        <ele>1606.78</ele>
        <time>2021-06-06T00:07:23Z</time>
      </trkpt>
      <trkpt lat="42.97373" lon="-0.34538">
        <ele>1607.94</ele>
        <time>2021-06-06T00:07:25Z</time>
      </trkpt>
      <trkpt lat="42.97396" lon="-0.34527">
        <ele>1607.55</ele>
        <time>2021-06-06T00:07:27Z</time>
      </trkpt>
      <trkpt lat="42.9741" lon="-0.34517">
        <ele>1607.18</ele>
        <time>2021-06-06T00:07:28Z</time>
      </trkpt>
      <trkpt lat="42.97417" lon="-0.34503">
        <ele>1606.91</ele>
        <time>2021-06-06T00:07:30Z</time>
      </trkpt>
      <trkpt lat="42.97425" lon="-0.34472">
        <ele>1609.91</ele>
        <time>2021-06-06T00:07:32Z</time>
      </trkpt>
      <trkpt lat="42.97436" lon="-0.3445">
        <ele>1613.4</ele>
        <time>2021-06-06T00:07:34Z</time>
      </trkpt>
      <trkpt lat="42.97447" lon="-0.34444">
        <ele>1614.58</ele>
        <time>2021-06-06T00:07:35Z</time>
      </trkpt>
      <trkpt lat="42.97464" lon="-0.34444">
        <ele>1617.55</ele>
        <time>2021-06-06T00:07:37Z</time>
      </trkpt>
      <trkpt lat="42.97477" lon="-0.34449">
        <ele>1619.25</ele>
        <time>2021-06-06T00:07:39Z</time>
      </trkpt>
      <trkpt lat="42.97512" lon="-0.34478">
        <ele>1622.12</ele>
        <time>2021-06-06T00:07:41Z</time>
      </trkpt>
      <trkpt lat="42.97539" lon="-0.3452">
        <ele>1624.2</ele>
        <time>2021-06-06T00:07:42Z</time>
      </trkpt>
      <trkpt lat="42.9755" lon="-0.3453">
        <ele>1625.8</ele>
        <time>2021-06-06T00:07:44Z</time>
      </trkpt>
      <trkpt lat="42.9756" lon="-0.34533">
        <ele>1626.55</ele>
        <time>2021-06-06T00:07:46Z</time>
      </trkpt>
      <trkpt lat="42.97574" lon="-0.34529">
        <ele>1626.84</ele>
        <time>2021-06-06T00:07:48Z</time>
      </trkpt>
      <trkpt lat="42.97587" lon="-0.34519">
        <ele>1628.82</ele>
        <time>2021-06-06T00:07:49Z</time>
      </trkpt>
      <trkpt lat="42.97599" lon="-0.34498">
        <ele>1633.47</ele>
        <time>2021-06-06T00:07:51Z</time>
      </trkpt>
      <trkpt lat="42.97609" lon="-0.34486">
        <ele>1636.99</ele>
        <time>2021-06-06T00:07:53Z</time>
      </trkpt>
      <trkpt lat="42.97617" lon="-0.34484">
        <ele>1638.02</ele>
        <time>2021-06-06T00:07:55Z</time>
      </trkpt>
      <trkpt lat="42.97626" lon="-0.34487">
        <ele>1638.08</ele>
        <time>2021-06-06T00:07:57Z</time>
      </trkpt>
      <trkpt lat="42.97645" lon="-0.34513">
        <ele>1635.75</ele>
        <time>2021-06-06T00:07:58Z</time>
      </trkpt>
      <trkpt lat="42.9766" lon="-0.34524">
        <ele>1635.8</ele>
        <time>2021-06-06T00:08:00Z</time>
      </trkpt>
      <trkpt lat="42.97682" lon="-0.34533">
        <ele>1638.29</ele>
        <time>2021-06-06T00:08:02Z</time>
      </trkpt>
      <trkpt lat="42.97694" lon="-0.34534">
        <ele>1641.11</ele>
        <time>2021-06-06T00:08:04Z</time>
      </trkpt>
      <trkpt lat="42.97715" lon="-0.34523">
        <ele>1645.25</ele>
        <time>2021-06-06T00:08:05Z</time>
      </trkpt>
      <trkpt lat="42.97727" lon="-0.3451">
        <ele>1646.87</ele>
        <time>2021-06-06T00:08:07Z</time>
      </trkpt>
      <trkpt lat="42.97748" lon="-0.34463">
        <ele>1650.36</ele>
        <time>2021-06-06T00:08:09Z</time>
      </trkpt>
      <trkpt lat="42.97778" lon="-0.3442">
        <ele>1656.25</ele>
        <time>2021-06-06T00:08:11Z</time>
      </trkpt>
      <trkpt lat="42.97808" lon="-0.34355">
        <ele>1658.79</ele>
        <time>2021-06-06T00:08:12Z</time>
      </trkpt>
      <trkpt lat="42.97816" lon="-0.34316">
        <ele>1668.41</ele>
        <time>2021-06-06T00:08:14Z</time>
      </trkpt>
      <trkpt lat="42.97823" lon="-0.34306">
        <ele>1669.94</ele>
        <time>2021-06-06T00:08:16Z</time>
      </trkpt>
      <trkpt lat="42.97837" lon="-0.343">
        <ele>1668.38</ele>
        <time>2021-06-06T00:08:18Z</time>
      </trkpt>
      <trkpt lat="42.97852" lon="-0.343">
        <ele>1666.16</ele>
        <time>2021-06-06T00:08:19Z</time>
      </trkpt>
      <trkpt lat="42.97874" lon="-0.3431">
        <ele>1663.59</ele>
        <time>2021-06-06T00:08:21Z</time>
      </trkpt>
      <trkpt lat="42.97889" lon="-0.3431">
        <ele>1665.54</ele>
        <time>2021-06-06T00:08:23Z</time>
      </trkpt>
      <trkpt lat="42.97897" lon="-0.343">
        <ele>1668.9</ele>
        <time>2021-06-06T00:08:25Z</time>
      </trkpt>
      <trkpt lat="42.97897" lon="-0.34289">
        <ele>1672.35</ele>
        <time>2021-06-06T00:08:26Z</time>
      </trkpt>
      <trkpt lat="42.97895" lon="-0.3428">
        <ele>1674.82</ele>
        <time>2021-06-06T00:08:28Z</time>
      </trkpt>
      <trkpt lat="42.97886" lon="-0.34273">
        <ele>1676.36</ele>
        <time>2021-06-06T00:08:30Z</time>
      </trkpt>
      <trkpt lat="42.97849" lon="-0.34278">
        <ele>1673.96</ele>
        <time>2021-06-06T00:08:32Z</time>
      </trkpt>
      <trkpt lat="42.97819" lon="-0.34275">
        <ele>1683.31</ele>
        <time>2021-06-06T00:08:33Z</time>
      </trkpt>
      <trkpt lat="42.97807" lon="-0.34279">
        <ele>1686.2</ele>
        <time>2021-06-06T00:08:35Z</time>
      </trkpt>
      <trkpt lat="42.97788" lon="-0.34302">
        <ele>1680.78</ele>
        <time>2021-06-06T00:08:37Z</time>
      </trkpt>
      <trkpt lat="42.97775" lon="-0.34313">
        <ele>1678.94</ele>
        <time>2021-06-06T00:08:39Z</time>
      </trkpt>
      <trkpt lat="42.97747" lon="-0.34324">
        <ele>1680.11</ele>
        <time>2021-06-06T00:08:41Z</time>
      </trkpt>
      <trkpt lat="42.97734" lon="-0.34322">
        <ele>1681.04</ele>
        <time>2021-06-06T00:08:42Z</time>
      </trkpt>
      <trkpt lat="42.97724" lon="-0.34317">
        <ele>1682.42</ele>
        <time>2021-06-06T00:08:44Z</time>
      </trkpt>
      <trkpt lat="42.97715" lon="-0.34307">
        <ele>1683.11</ele>
        <time>2021-06-06T00:08:46Z</time>
      </trkpt>
      <trkpt lat="42.97709" lon="-0.34292">
        <ele>1684.64</ele>
        <time>2021-06-06T00:08:48Z</time>
      </trkpt>
      <trkpt lat="42.97698" lon="-0.34231">
        <ele>1692.34</ele>
        <time>2021-06-06T00:08:49Z</time>
      </trkpt>
      <trkpt lat="42.97691" lon="-0.34207">
        <ele>1694.73</ele>
        <time>2021-06-06T00:08:51Z</time>
      </trkpt>
      <trkpt lat="42.97679" lon="-0.3419">
        <ele>1695.94</ele>
        <time>2021-06-06T00:08:53Z</time>
      </trkpt>
      <trkpt lat="42.97652" lon="-0.34155">
        <ele>1697.4</ele>
        <time>2021-06-06T00:08:55Z</time>
      </trkpt>
      <trkpt lat="42.97639" lon="-0.34129">
        <ele>1699.09</ele>
        <time>2021-06-06T00:08:56Z</time>
      </trkpt>
      <trkpt lat="42.9763" lon="-0.34101">
        <ele>1700.22</ele>
        <time>2021-06-06T00:08:58Z</time>
      </trkpt>
      <trkpt lat="42.97627" lon="-0.34074">
        <ele>1702.3</ele>
        <time>2021-06-06T00:09:00Z</time>
      </trkpt>
      <trkpt lat="42.97629" lon="-0.34043">
        <ele>1705.08</ele>
        <time>2021-06-06T00:09:02Z</time>
      </trkpt>
      <trkpt lat="42.97635" lon="-0.34019">
        <ele>1707.39</ele>
        <time>2021-06-06T00:09:03Z</time>
      </trkpt>
      <trkpt lat="42.97658" lon="-0.33979">
        <ele>1710.76</ele>
        <time>2021-06-06T00:09:05Z</time>
      </trkpt>
      <trkpt lat="42.97663" lon="-0.33965">
        <ele>1710.36</ele>
        <time>2021-06-06T00:09:07Z</time>
      </trkpt>
      <trkpt lat="42.97663" lon="-0.3395">
        <ele>1709.37</ele>
        <time>2021-06-06T00:09:09Z</time>
      </trkpt>
      <trkpt lat="42.97642" lon="-0.33903">
        <ele>1705.31</ele>
        <time>2021-06-06T00:09:10Z</time>
      </trkpt>
      <trkpt lat="42.97638" lon="-0.3389">
        <ele>1704.52</ele>
        <time>2021-06-06T00:09:12Z</time>
      </trkpt>
      <trkpt lat="42.97626" lon="-0.33833">
        <ele>1691.74</ele>
        <time>2021-06-06T00:09:14Z</time>
      </trkpt>
      <trkpt lat="42.97618" lon="-0.33811">
        <ele>1690.36</ele>
        <time>2021-06-06T00:09:16Z</time>
      </trkpt>
      <trkpt lat="42.97607" lon="-0.33793">
        <ele>1690.71</ele>
        <time>2021-06-06T00:09:17Z</time>
      </trkpt>
      <trkpt lat="42.9754" lon="-0.33739">
        <ele>1693.13</ele>
        <time>2021-06-06T00:09:19Z</time>
      </trkpt>
      <trkpt lat="42.97529" lon="-0.33725">
        <ele>1690.65</ele>
        <time>2021-06-06T00:09:21Z</time>
      </trkpt>
      <trkpt lat="42.97522" lon="-0.33711">
        <ele>1688.15</ele>
        <time>2021-06-06T00:09:23Z</time>
      </trkpt>
      <trkpt lat="42.97514" lon="-0.33683">
        <ele>1682.84</ele>
        <time>2021-06-06T00:09:25Z</time>
      </trkpt>
      <trkpt lat="42.97515" lon="-0.3363">
        <ele>1677.88</ele>
        <time>2021-06-06T00:09:26Z</time>
      </trkpt>
      <trkpt lat="42.97506" lon="-0.33555">
        <ele>1672.03</ele>
        <time>2021-06-06T00:09:28Z</time>
      </trkpt>
      <trkpt lat="42.97499" lon="-0.33509">
        <ele>1667.85</ele>
        <time>2021-06-06T00:09:30Z</time>
      </trkpt>
      <trkpt lat="42.97492" lon="-0.33485">
        <ele>1666.74</ele>
        <time>2021-06-06T00:09:32Z</time>
      </trkpt>
      <trkpt lat="42.97485" lon="-0.33465">
        <ele>1665.49</ele>
        <time>2021-06-06T00:09:33Z</time>
      </trkpt>
      <trkpt lat="42.97472" lon="-0.33443">
        <ele>1664.84</ele>
        <time>2021-06-06T00:09:35Z</time>
      </trkpt>
      <trkpt lat="42.97445" lon="-0.33412">
        <ele>1665.94</ele>
        <time>2021-06-06T00:09:37Z</time>
      </trkpt>
      <trkpt lat="42.97436" lon="-0.33393">
        <ele>1665.79</ele>
        <time>2021-06-06T00:09:39Z</time>
      </trkpt>
      <trkpt lat="42.97409" lon="-0.33309">
        <ele>1659.77</ele>
        <time>2021-06-06T00:09:40Z</time>
      </trkpt>
      <trkpt lat="42.97393" lon="-0.33273">
        <ele>1657.39</ele>
        <time>2021-06-06T00:09:42Z</time>
      </trkpt>
      <trkpt lat="42.97368" lon="-0.33242">
        <ele>1655.61</ele>
        <time>2021-06-06T00:09:44Z</time>
      </trkpt>
      <trkpt lat="42.97336" lon="-0.33212">
        <ele>1649.68</ele>
        <time>2021-06-06T00:09:46Z</time>
      </trkpt>
      <trkpt lat="42.97312" lon="-0.33202">
        <ele>1646.73</ele>
        <time>2021-06-06T00:09:47Z</time>
      </trkpt>
      <trkpt lat="42.97295" lon="-0.33197">
        <ele>1643.85</ele>
        <time>2021-06-06T00:09:49Z</time>
      </trkpt>
      <trkpt lat="42.97279" lon="-0.33196">
        <ele>1640.56</ele>
        <time>2021-06-06T00:09:51Z</time>
      </trkpt>
      <trkpt lat="42.9726" lon="-0.33197">
        <ele>1642.13</ele>
        <time>2021-06-06T00:09:53Z</time>
      </trkpt>
      <trkpt lat="42.97234" lon="-0.33204">
        <ele>1645.85</ele>
        <time>2021-06-06T00:09:54Z</time>
      </trkpt>
      <trkpt lat="42.97223" lon="-0.33199">
        <ele>1644.65</ele>
        <time>2021-06-06T00:09:56Z</time>
      </trkpt>
      <trkpt lat="42.97217" lon="-0.33188">
        <ele>1643.14</ele>
        <time>2021-06-06T00:09:58Z</time>
      </trkpt>
      <trkpt lat="42.97215" lon="-0.33169">
        <ele>1639.26</ele>
        <time>2021-06-06T00:10:00Z</time>
      </trkpt>
      <trkpt lat="42.97217" lon="-0.33153">
        <ele>1636.89</ele>
        <time>2021-06-06T00:10:01Z</time>
      </trkpt>
      <trkpt lat="42.97225" lon="-0.33112">
        <ele>1629.49</ele>
        <time>2021-06-06T00:10:03Z</time>
      </trkpt>
      <trkpt lat="42.97224" lon="-0.331">
        <ele>1628.1</ele>
        <time>2021-06-06T00:10:05Z</time>
      </trkpt>
      <trkpt lat="42.97221" lon="-0.33093">
        <ele>1627.58</ele>
        <time>2021-06-06T00:10:07Z</time>
      </trkpt>
      <trkpt lat="42.97205" lon="-0.3307">
        <ele>1627.11</ele>
        <time>2021-06-06T00:10:09Z</time>
      </trkpt>
      <trkpt lat="42.97192" lon="-0.3304">
        <ele>1623.8</ele>
        <time>2021-06-06T00:10:10Z</time>
      </trkpt>
      <trkpt lat="42.97177" lon="-0.33014">
        <ele>1624.64</ele>
        <time>2021-06-06T00:10:12Z</time>
      </trkpt>
      <trkpt lat="42.97166" lon="-0.32976">
        <ele>1626.21</ele>
        <time>2021-06-06T00:10:14Z</time>
      </trkpt>
      <trkpt lat="42.97152" lon="-0.32903">
        <ele>1618.53</ele>
        <time>2021-06-06T00:10:16Z</time>
      </trkpt>
      <trkpt lat="42.97148" lon="-0.32871">
        <ele>1618.8</ele>
        <time>2021-06-06T00:10:17Z</time>
      </trkpt>
      <trkpt lat="42.97148" lon="-0.3286">
        <ele>1618.93</ele>
        <time>2021-06-06T00:10:19Z</time>
      </trkpt>
      <trkpt lat="42.97157" lon="-0.32825">
        <ele>1613.41</ele>
        <time>2021-06-06T00:10:21Z</time>
      </trkpt>
      <trkpt lat="42.97155" lon="-0.32815">
        <ele>1612.19</ele>
        <time>2021-06-06T00:10:23Z</time>
      </trkpt>
      <trkpt lat="42.97149" lon="-0.32805">
        <ele>1611.92</ele>
        <time>2021-06-06T00:10:24Z</time>
      </trkpt>
      <trkpt lat="42.97134" lon="-0.32787">
        <ele>1610.54</ele>
        <time>2021-06-06T00:10:26Z</time>
      </trkpt>
      <trkpt lat="42.97123" lon="-0.32769">
        <ele>1610.34</ele>
        <time>2021-06-06T00:10:28Z</time>
      </trkpt>
      <trkpt lat="42.97118" lon="-0.32752">
        <ele>1609.06</ele>
        <time>2021-06-06T00:10:30Z</time>
      </trkpt>
      <trkpt lat="42.97118" lon="-0.3274">
        <ele>1608.35</ele>
        <time>2021-06-06T00:10:31Z</time>
      </trkpt>
      <trkpt lat="42.97122" lon="-0.3272">
        <ele>1607.29</ele>
        <time>2021-06-06T00:10:33Z</time>
      </trkpt>
      <trkpt lat="42.97133" lon="-0.32696">
        <ele>1610.06</ele>
        <time>2021-06-06T00:10:35Z</time>
      </trkpt>
      <trkpt lat="42.97179" lon="-0.3262">
        <ele>1611.73</ele>
        <time>2021-06-06T00:10:37Z</time>
      </trkpt>
      <trkpt lat="42.97191" lon="-0.32608">
        <ele>1609.02</ele>
        <time>2021-06-06T00:10:38Z</time>
      </trkpt>
      <trkpt lat="42.97224" lon="-0.32582">
        <ele>1604.48</ele>
        <time>2021-06-06T00:10:40Z</time>
      </trkpt>
      <trkpt lat="42.97239" lon="-0.32562">
        <ele>1601.4</ele>
        <time>2021-06-06T00:10:42Z</time>
      </trkpt>
      <trkpt lat="42.97246" lon="-0.32541">
        <ele>1599.58</ele>
        <time>2021-06-06T00:10:44Z</time>
      </trkpt>
      <trkpt lat="42.97249" lon="-0.32527">
        <ele>1597.63</ele>
        <time>2021-06-06T00:10:45Z</time>
      </trkpt>
      <trkpt lat="42.97248" lon="-0.32509">
        <ele>1591.92</ele>
        <time>2021-06-06T00:10:47Z</time>
      </trkpt>
      <trkpt lat="42.97244" lon="-0.32493">
        <ele>1588.38</ele>
        <time>2021-06-06T00:10:49Z</time>
      </trkpt>
      <trkpt lat="42.97239" lon="-0.32483">
        <ele>1587.29</ele>
        <time>2021-06-06T00:10:51Z</time>
      </trkpt>
      <trkpt lat="42.97231" lon="-0.32472">
        <ele>1586.73</ele>
        <time>2021-06-06T00:10:53Z</time>
      </trkpt>
      <trkpt lat="42.97222" lon="-0.32468">
        <ele>1586.79</ele>
        <time>2021-06-06T00:10:54Z</time>
      </trkpt>
      <trkpt lat="42.97181" lon="-0.3247">
        <ele>1586.68</ele>
        <time>2021-06-06T00:10:56Z</time>
      </trkpt>
      <trkpt lat="42.97158" lon="-0.32462">
        <ele>1585.7</ele>
        <time>2021-06-06T00:10:58Z</time>
      </trkpt>
      <trkpt lat="42.97142" lon="-0.32463">
        <ele>1589.45</ele>
        <time>2021-06-06T00:11:00Z</time>
      </trkpt>
      <trkpt lat="42.9713" lon="-0.3246">
        <ele>1591.09</ele>
        <time>2021-06-06T00:11:01Z</time>
      </trkpt>
      <trkpt lat="42.97096" lon="-0.32435">
        <ele>1591.98</ele>
        <time>2021-06-06T00:11:03Z</time>
      </trkpt>
      <trkpt lat="42.97087" lon="-0.32422">
        <ele>1592.42</ele>
        <time>2021-06-06T00:11:05Z</time>
      </trkpt>
      <trkpt lat="42.97087" lon="-0.3241">
        <ele>1591.92</ele>
        <time>2021-06-06T00:11:07Z</time>
      </trkpt>
      <trkpt lat="42.97092" lon="-0.32399">
        <ele>1590.34</ele>
        <time>2021-06-06T00:11:08Z</time>
      </trkpt>
      <trkpt lat="42.97098" lon="-0.32391">
        <ele>1587.5</ele>
        <time>2021-06-06T00:11:10Z</time>
      </trkpt>
      <trkpt lat="42.9713" lon="-0.32369">
        <ele>1572.25</ele>
        <time>2021-06-06T00:11:12Z</time>
      </trkpt>
      <trkpt lat="42.97137" lon="-0.32355">
        <ele>1566.69</ele>
        <time>2021-06-06T00:11:14Z</time>
      </trkpt>
      <trkpt lat="42.97143" lon="-0.32335">
        <ele>1562.24</ele>
        <time>2021-06-06T00:11:15Z</time>
      </trkpt>
      <trkpt lat="42.97144" lon="-0.32321">
        <ele>1560.46</ele>
        <time>2021-06-06T00:11:17Z</time>
      </trkpt>
      <trkpt lat="42.97144" lon="-0.32309">
        <ele>1560.03</ele>
        <time>2021-06-06T00:11:19Z</time>
      </trkpt>
      <trkpt lat="42.97136" lon="-0.32288">
        <ele>1566.59</ele>
        <time>2021-06-06T00:11:21Z</time>
      </trkpt>
      <trkpt lat="42.97135" lon="-0.32275">
        <ele>1569.52</ele>
        <time>2021-06-06T00:11:22Z</time>
      </trkpt>
      <trkpt lat="42.97136" lon="-0.32264">
        <ele>1573.1</ele>
        <time>2021-06-06T00:11:24Z</time>
      </trkpt>
      <trkpt lat="42.97142" lon="-0.32241">
        <ele>1575.29</ele>
        <time>2021-06-06T00:11:26Z</time>
      </trkpt>
      <trkpt lat="42.97146" lon="-0.32232">
        <ele>1573.5</ele>
        <time>2021-06-06T00:11:28Z</time>
      </trkpt>
      <trkpt lat="42.97178" lon="-0.32212">
        <ele>1559.57</ele>
        <time>2021-06-06T00:11:29Z</time>
      </trkpt>
      <trkpt lat="42.97185" lon="-0.32201">
        <ele>1556.1</ele>
        <time>2021-06-06T00:11:31Z</time>
      </trkpt>
      <trkpt lat="42.97194" lon="-0.32174">
        <ele>1557.15</ele>
        <time>2021-06-06T00:11:33Z</time>
      </trkpt>
      <trkpt lat="42.97215" lon="-0.32132">
        <ele>1553.72</ele>
        <time>2021-06-06T00:11:35Z</time>
      </trkpt>
      <trkpt lat="42.97221" lon="-0.32117">
        <ele>1550.22</ele>
        <time>2021-06-06T00:11:37Z</time>
      </trkpt>
      <trkpt lat="42.97227" lon="-0.32091">
        <ele>1545.57</ele>
        <time>2021-06-06T00:11:38Z</time>
      </trkpt>
      <trkpt lat="42.97227" lon="-0.32079">
        <ele>1544.21</ele>
        <time>2021-06-06T00:11:40Z</time>
      </trkpt>
      <trkpt lat="42.97224" lon="-0.32051">
        <ele>1541.29</ele>
        <time>2021-06-06T00:11:42Z</time>
      </trkpt>
      <trkpt lat="42.97225" lon="-0.32028">
        <ele>1541.35</ele>
        <time>2021-06-06T00:11:44Z</time>
      </trkpt>
      <trkpt lat="42.97237" lon="-0.31952">
        <ele>1543.39</ele>
        <time>2021-06-06T00:11:45Z</time>
      </trkpt>
      <trkpt lat="42.97242" lon="-0.31897">
        <ele>1543.33</ele>
        <time>2021-06-06T00:11:47Z</time>
      </trkpt>
      <trkpt lat="42.97249" lon="-0.31861">
        <ele>1544.94</ele>
        <time>2021-06-06T00:11:49Z</time>
      </trkpt>
      <trkpt lat="42.97251" lon="-0.31835">
        <ele>1544.32</ele>
        <time>2021-06-06T00:11:51Z</time>
      </trkpt>
      <trkpt lat="42.97254" lon="-0.31822">
        <ele>1546.09</ele>
        <time>2021-06-06T00:11:52Z</time>
      </trkpt>
      <trkpt lat="42.97258" lon="-0.31815">
        <ele>1546.47</ele>
        <time>2021-06-06T00:11:54Z</time>
      </trkpt>
      <trkpt lat="42.97264" lon="-0.31809">
        <ele>1545.76</ele>
        <time>2021-06-06T00:11:56Z</time>
      </trkpt>
      <trkpt lat="42.97283" lon="-0.31803">
        <ele>1543.67</ele>
        <time>2021-06-06T00:11:58Z</time>
      </trkpt>
      <trkpt lat="42.97333" lon="-0.31803">
        <ele>1540.67</ele>
        <time>2021-06-06T00:11:59Z</time>
      </trkpt>
      <trkpt lat="42.97374" lon="-0.31818">
        <ele>1526.71</ele>
        <time>2021-06-06T00:12:01Z</time>
      </trkpt>
      <trkpt lat="42.97392" lon="-0.3182">
        <ele>1519.45</ele>
        <time>2021-06-06T00:12:03Z</time>
      </trkpt>
      <trkpt lat="42.97417" lon="-0.31826">
        <ele>1510.19</ele>
        <time>2021-06-06T00:12:05Z</time>
      </trkpt>
      <trkpt lat="42.97437" lon="-0.31833">
        <ele>1503.46</ele>
        <time>2021-06-06T00:12:06Z</time>
      </trkpt>
      <trkpt lat="42.97443" lon="-0.31832">
        <ele>1503.81</ele>
        <time>2021-06-06T00:12:08Z</time>
      </trkpt>
      <trkpt lat="42.97449" lon="-0.31828">
        <ele>1506.22</ele>
        <time>2021-06-06T00:12:10Z</time>
      </trkpt>
      <trkpt lat="42.97453" lon="-0.3182">
        <ele>1510.56</ele>
        <time>2021-06-06T00:12:12Z</time>
      </trkpt>
      <trkpt lat="42.97462" lon="-0.31809">
        <ele>1514.64</ele>
        <time>2021-06-06T00:12:13Z</time>
      </trkpt>
      <trkpt lat="42.97505" lon="-0.31788">
        <ele>1516.79</ele>
        <time>2021-06-06T00:12:15Z</time>
      </trkpt>
      <trkpt lat="42.97536" lon="-0.31764">
        <ele>1510.95</ele>
        <time>2021-06-06T00:12:17Z</time>
      </trkpt>
      <trkpt lat="42.97555" lon="-0.31732">
        <ele>1505.48</ele>
        <time>2021-06-06T00:12:19Z</time>
      </trkpt>
      <trkpt lat="42.97565" lon="-0.317">
        <ele>1503.77</ele>
        <time>2021-06-06T00:12:21Z</time>
      </trkpt>
      <trkpt lat="42.97569" lon="-0.31674">
        <ele>1503.5</ele>
        <time>2021-06-06T00:12:22Z</time>
      </trkpt>
      <trkpt lat="42.9757" lon="-0.31646">
        <ele>1503.35</ele>
        <time>2021-06-06T00:12:24Z</time>
      </trkpt>
      <trkpt lat="42.97565" lon="-0.31558">
        <ele>1504.73</ele>
        <time>2021-06-06T00:12:26Z</time>
      </trkpt>
      <trkpt lat="42.97564" lon="-0.31504">
        <ele>1505.46</ele>
        <time>2021-06-06T00:12:28Z</time>
      </trkpt>
      <trkpt lat="42.97561" lon="-0.31486">
        <ele>1506.63</ele>
        <time>2021-06-06T00:12:29Z</time>
      </trkpt>
      <trkpt lat="42.97553" lon="-0.31469">
        <ele>1514.1</ele>
        <time>2021-06-06T00:12:31Z</time>
      </trkpt>
      <trkpt lat="42.97554" lon="-0.31462">
        <ele>1513.57</ele>
        <time>2021-06-06T00:12:33Z</time>
      </trkpt>
      <trkpt lat="42.97558" lon="-0.3145">
        <ele>1508.82</ele>
        <time>2021-06-06T00:12:35Z</time>
      </trkpt>
      <trkpt lat="42.97565" lon="-0.31438">
        <ele>1499.14</ele>
        <time>2021-06-06T00:12:36Z</time>
      </trkpt>
      <trkpt lat="42.97569" lon="-0.31421">
        <ele>1494.35</ele>
        <time>2021-06-06T00:12:38Z</time>
      </trkpt>
      <trkpt lat="42.97573" lon="-0.31351">
        <ele>1491.7</ele>
        <time>2021-06-06T00:12:40Z</time>
      </trkpt>
      <trkpt lat="42.97565" lon="-0.31319">
        <ele>1497.58</ele>
        <time>2021-06-06T00:12:42Z</time>
      </trkpt>
      <trkpt lat="42.97562" lon="-0.31295">
        <ele>1500.39</ele>
        <time>2021-06-06T00:12:43Z</time>
      </trkpt>
      <trkpt lat="42.97566" lon="-0.31275">
        <ele>1497.31</ele>
        <time>2021-06-06T00:12:45Z</time>
      </trkpt>
      <trkpt lat="42.97574" lon="-0.31253">
        <ele>1491.42</ele>
        <time>2021-06-06T00:12:47Z</time>
      </trkpt>
      <trkpt lat="42.97587" lon="-0.31219">
        <ele>1483.76</ele>
        <time>2021-06-06T00:12:49Z</time>
      </trkpt>
      <trkpt lat="42.97604" lon="-0.31148">
        <ele>1481.2</ele>
        <time>2021-06-06T00:12:50Z</time>
      </trkpt>
      <trkpt lat="42.97616" lon="-0.31083">
        <ele>1475.31</ele>
        <time>2021-06-06T00:12:52Z</time>
      </trkpt>
      <trkpt lat="42.97617" lon="-0.31061">
        <ele>1474.05</ele>
        <time>2021-06-06T00:12:54Z</time>
      </trkpt>
      <trkpt lat="42.97614" lon="-0.31045">
        <ele>1472.65</ele>
        <time>2021-06-06T00:12:56Z</time>
      </trkpt>
      <trkpt lat="42.97611" lon="-0.31035">
        <ele>1472.02</ele>
        <time>2021-06-06T00:12:57Z</time>
      </trkpt>
      <trkpt lat="42.97559" lon="-0.30974">
        <ele>1469.49</ele>
        <time>2021-06-06T00:12:59Z</time>
      </trkpt>
      <trkpt lat="42.97524" lon="-0.30913">
        <ele>1461.54</ele>
        <time>2021-06-06T00:13:01Z</time>
      </trkpt>
      <trkpt lat="42.97483" lon="-0.30872">
        <ele>1462.09</ele>
        <time>2021-06-06T00:13:03Z</time>
      </trkpt>
      <trkpt lat="42.97467" lon="-0.30844">
        <ele>1463.91</ele>
        <time>2021-06-06T00:13:05Z</time>
      </trkpt>
      <trkpt lat="42.97449" lon="-0.30801">
        <ele>1464.25</ele>
        <time>2021-06-06T00:13:06Z</time>
      </trkpt>
      <trkpt lat="42.97446" lon="-0.30792">
        <ele>1464.01</ele>
        <time>2021-06-06T00:13:08Z</time>
      </trkpt>
      <trkpt lat="42.97448" lon="-0.3078">
        <ele>1461.42</ele>
        <time>2021-06-06T00:13:10Z</time>
      </trkpt>
      <trkpt lat="42.97453" lon="-0.30767">
        <ele>1457.15</ele>
        <time>2021-06-06T00:13:12Z</time>
      </trkpt>
      <trkpt lat="42.97462" lon="-0.30748">
        <ele>1450.76</ele>
        <time>2021-06-06T00:13:13Z</time>
      </trkpt>
      <trkpt lat="42.97467" lon="-0.30723">
        <ele>1448.23</ele>
        <time>2021-06-06T00:13:15Z</time>
      </trkpt>
      <trkpt lat="42.97481" lon="-0.30598">
        <ele>1447.49</ele>
        <time>2021-06-06T00:13:17Z</time>
      </trkpt>
      <trkpt lat="42.97479" lon="-0.30576">
        <ele>1445.57</ele>
        <time>2021-06-06T00:13:19Z</time>
      </trkpt>
      <trkpt lat="42.97475" lon="-0.30566">
        <ele>1444.98</ele>
        <time>2021-06-06T00:13:20Z</time>
      </trkpt>
      <trkpt lat="42.97461" lon="-0.30548">
        <ele>1444.55</ele>
        <time>2021-06-06T00:13:22Z</time>
      </trkpt>
      <trkpt lat="42.97439" lon="-0.30533">
        <ele>1446.83</ele>
        <time>2021-06-06T00:13:24Z</time>
      </trkpt>
      <trkpt lat="42.97428" lon="-0.30524">
        <ele>1448.84</ele>
        <time>2021-06-06T00:13:26Z</time>
      </trkpt>
      <trkpt lat="42.97414" lon="-0.30508">
        <ele>1447.85</ele>
        <time>2021-06-06T00:13:27Z</time>
      </trkpt>
      <trkpt lat="42.97393" lon="-0.30477">
        <ele>1439.78</ele>
        <time>2021-06-06T00:13:29Z</time>
      </trkpt>
      <trkpt lat="42.97385" lon="-0.30468">
        <ele>1437.68</ele>
        <time>2021-06-06T00:13:31Z</time>
      </trkpt>
      <trkpt lat="42.97378" lon="-0.30464">
        <ele>1436.53</ele>
        <time>2021-06-06T00:13:33Z</time>
      </trkpt>
      <trkpt lat="42.97367" lon="-0.30463">
        <ele>1436.21</ele>
        <time>2021-06-06T00:13:34Z</time>
      </trkpt>
      <trkpt lat="42.97352" lon="-0.30464">
        <ele>1439.06</ele>
        <time>2021-06-06T00:13:36Z</time>
      </trkpt>
      <trkpt lat="42.97344" lon="-0.30462">
        <ele>1440.2</ele>
        <time>2021-06-06T00:13:38Z</time>
      </trkpt>
      <trkpt lat="42.97322" lon="-0.30444">
        <ele>1439.59</ele>
        <time>2021-06-06T00:13:40Z</time>
      </trkpt>
      <trkpt lat="42.97313" lon="-0.30443">
        <ele>1441.92</ele>
        <time>2021-06-06T00:13:41Z</time>
      </trkpt>
      <trkpt lat="42.973" lon="-0.30445">
        <ele>1447.04</ele>
        <time>2021-06-06T00:13:43Z</time>
      </trkpt>
      <trkpt lat="42.97283" lon="-0.30445">
        <ele>1452.06</ele>
        <time>2021-06-06T00:13:45Z</time>
      </trkpt>
      <trkpt lat="42.97275" lon="-0.30442">
        <ele>1451.36</ele>
        <time>2021-06-06T00:13:47Z</time>
      </trkpt>
      <trkpt lat="42.97268" lon="-0.30435">
        <ele>1447.79</ele>
        <time>2021-06-06T00:13:49Z</time>
      </trkpt>
      <trkpt lat="42.97256" lon="-0.30414">
        <ele>1437.83</ele>
        <time>2021-06-06T00:13:50Z</time>
      </trkpt>
      <trkpt lat="42.97242" lon="-0.30397">
        <ele>1436.15</ele>
        <time>2021-06-06T00:13:52Z</time>
      </trkpt>
      <trkpt lat="42.97228" lon="-0.30369">
        <ele>1434.63</ele>
        <time>2021-06-06T00:13:54Z</time>
      </trkpt>
      <trkpt lat="42.97207" lon="-0.30344">
        <ele>1436.7</ele>
        <time>2021-06-06T00:13:56Z</time>
      </trkpt>
      <trkpt lat="42.97172" lon="-0.30285">
        <ele>1436.63</ele>
        <time>2021-06-06T00:13:57Z</time>
      </trkpt>
      <trkpt lat="42.97147" lon="-0.30233">
        <ele>1434.52</ele>
        <time>2021-06-06T00:13:59Z</time>
      </trkpt>
      <trkpt lat="42.9713" lon="-0.30208">
        <ele>1432.46</ele>
        <time>2021-06-06T00:14:01Z</time>
      </trkpt>
      <trkpt lat="42.97115" lon="-0.30192">
        <ele>1433.34</ele>
        <time>2021-06-06T00:14:03Z</time>
      </trkpt>
      <trkpt lat="42.97094" lon="-0.30175">
        <ele>1434.52</ele>
        <time>2021-06-06T00:14:04Z</time>
      </trkpt>
      <trkpt lat="42.97041" lon="-0.30128">
        <ele>1426.64</ele>
        <time>2021-06-06T00:14:06Z</time>
      </trkpt>
      <trkpt lat="42.97028" lon="-0.30114">
        <ele>1429.88</ele>
        <time>2021-06-06T00:14:08Z</time>
      </trkpt>
      <trkpt lat="42.97021" lon="-0.30096">
        <ele>1427.89</ele>
        <time>2021-06-06T00:14:10Z</time>
      </trkpt>
      <trkpt lat="42.97012" lon="-0.30064">
        <ele>1423.81</ele>
        <time>2021-06-06T00:14:11Z</time>
      </trkpt>
      <trkpt lat="42.97006" lon="-0.30053">
        <ele>1423.32</ele>
        <time>2021-06-06T00:14:13Z</time>
      </trkpt>
      <trkpt lat="42.97" lon="-0.3005">
        <ele>1423.99</ele>
        <time>2021-06-06T00:14:15Z</time>
      </trkpt>
      <trkpt lat="42.96991" lon="-0.30051">
        <ele>1424.05</ele>
        <time>2021-06-06T00:14:17Z</time>
      </trkpt>
      <trkpt lat="42.96977" lon="-0.30059">
        <ele>1426.71</ele>
        <time>2021-06-06T00:14:18Z</time>
      </trkpt>
      <trkpt lat="42.96899" lon="-0.30122">
        <ele>1423.21</ele>
        <time>2021-06-06T00:14:20Z</time>
      </trkpt>
      <trkpt lat="42.96868" lon="-0.30149">
        <ele>1423.02</ele>
        <time>2021-06-06T00:14:22Z</time>
      </trkpt>
      <trkpt lat="42.96836" lon="-0.30195">
        <ele>1435.94</ele>
        <time>2021-06-06T00:14:24Z</time>
      </trkpt>
      <trkpt lat="42.9683" lon="-0.30201">
        <ele>1435.29</ele>
        <time>2021-06-06T00:14:25Z</time>
      </trkpt>
      <trkpt lat="42.96824" lon="-0.30203">
        <ele>1433.23</ele>
        <time>2021-06-06T00:14:27Z</time>
      </trkpt>
      <trkpt lat="42.96791" lon="-0.30197">
        <ele>1416.98</ele>
        <time>2021-06-06T00:14:29Z</time>
      </trkpt>
      <trkpt lat="42.96779" lon="-0.30199">
        <ele>1414.13</ele>
        <time>2021-06-06T00:14:31Z</time>
      </trkpt>
      <trkpt lat="42.96756" lon="-0.30214">
        <ele>1418.09</ele>
        <time>2021-06-06T00:14:33Z</time>
      </trkpt>
      <trkpt lat="42.9671" lon="-0.30261">
        <ele>1425.86</ele>
        <time>2021-06-06T00:14:34Z</time>
      </trkpt>
      <trkpt lat="42.96695" lon="-0.30273">
        <ele>1427.39</ele>
        <time>2021-06-06T00:14:36Z</time>
      </trkpt>
      <trkpt lat="42.96683" lon="-0.30275">
        <ele>1427.44</ele>
        <time>2021-06-06T00:14:38Z</time>
      </trkpt>
      <trkpt lat="42.96665" lon="-0.30274">
        <ele>1425.95</ele>
        <time>2021-06-06T00:14:40Z</time>
      </trkpt>
      <trkpt lat="42.96655" lon="-0.30271">
        <ele>1424.08</ele>
        <time>2021-06-06T00:14:41Z</time>
      </trkpt>
      <trkpt lat="42.96648" lon="-0.30264">
        <ele>1421.52</ele>
        <time>2021-06-06T00:14:43Z</time>
      </trkpt>
      <trkpt lat="42.96638" lon="-0.30247">
        <ele>1415.63</ele>
        <time>2021-06-06T00:14:45Z</time>
      </trkpt>
      <trkpt lat="42.96628" lon="-0.30225">
        <ele>1406.3</ele>
        <time>2021-06-06T00:14:47Z</time>
      </trkpt>
      <trkpt lat="42.96611" lon="-0.30195">
        <ele>1404.07</ele>
        <time>2021-06-06T00:14:48Z</time>
      </trkpt>
      <trkpt lat="42.96601" lon="-0.30187">
        <ele>1403.43</ele>
        <time>2021-06-06T00:14:50Z</time>
      </trkpt>
      <trkpt lat="42.96596" lon="-0.30185">
        <ele>1403.33</ele>
        <time>2021-06-06T00:14:52Z</time>
      </trkpt>
      <trkpt lat="42.96589" lon="-0.30186">
        <ele>1403.64</ele>
        <time>2021-06-06T00:14:54Z</time>
      </trkpt>
      <trkpt lat="42.96525" lon="-0.30224">
        <ele>1399.47</ele>
        <time>2021-06-06T00:14:55Z</time>
      </trkpt>
      <trkpt lat="42.96477" lon="-0.30262">
        <ele>1390.32</ele>
        <time>2021-06-06T00:14:57Z</time>
      </trkpt>
      <trkpt lat="42.96462" lon="-0.30279">
        <ele>1388.88</ele>
        <time>2021-06-06T00:14:59Z</time>
      </trkpt>
      <trkpt lat="42.96438" lon="-0.30296">
        <ele>1386.46</ele>
        <time>2021-06-06T00:15:01Z</time>
      </trkpt>
      <trkpt lat="42.96427" lon="-0.30314">
        <ele>1388.92</ele>
        <time>2021-06-06T00:15:02Z</time>
      </trkpt>
      <trkpt lat="42.96419" lon="-0.30322">
        <ele>1389.06</ele>
        <time>2021-06-06T00:15:04Z</time>
      </trkpt>
      <trkpt lat="42.9641" lon="-0.30326">
        <ele>1389.29</ele>
        <time>2021-06-06T00:15:06Z</time>
      </trkpt>
      <trkpt lat="42.9638" lon="-0.30331">
        <ele>1394.21</ele>
        <time>2021-06-06T00:15:08Z</time>
      </trkpt>
      <trkpt lat="42.96371" lon="-0.30325">
        <ele>1395.8</ele>
        <time>2021-06-06T00:15:09Z</time>
      </trkpt>
      <trkpt lat="42.96354" lon="-0.30279">
        <ele>1390.54</ele>
        <time>2021-06-06T00:15:11Z</time>
      </trkpt>
      <trkpt lat="42.96328" lon="-0.3016">
        <ele>1384.63</ele>
        <time>2021-06-06T00:15:13Z</time>
      </trkpt>
      <trkpt lat="42.96292" lon="-0.30059">
        <ele>1385.58</ele>
        <time>2021-06-06T00:15:15Z</time>
      </trkpt>
      <trkpt lat="42.96276" lon="-0.30021">
        <ele>1385.71</ele>
        <time>2021-06-06T00:15:17Z</time>
      </trkpt>
      <trkpt lat="42.96257" lon="-0.29944">
        <ele>1374.33</ele>
        <time>2021-06-06T00:15:18Z</time>
      </trkpt>
      <trkpt lat="42.96243" lon="-0.29925">
        <ele>1383.95</ele>
        <time>2021-06-06T00:15:20Z</time>
      </trkpt>
      <trkpt lat="42.96231" lon="-0.29898">
        <ele>1382.99</ele>
        <time>2021-06-06T00:15:22Z</time>
      </trkpt>
      <trkpt lat="42.96213" lon="-0.29875">
        <ele>1384.18</ele>
        <time>2021-06-06T00:15:24Z</time>
      </trkpt>
      <trkpt lat="42.96175" lon="-0.29801">
        <ele>1360.59</ele>
        <time>2021-06-06T00:15:25Z</time>
      </trkpt>
      <trkpt lat="42.96167" lon="-0.29791">
        <ele>1359.67</ele>
        <time>2021-06-06T00:15:27Z</time>
      </trkpt>
      <trkpt lat="42.9613" lon="-0.2977">
        <ele>1373.66</ele>
        <time>2021-06-06T00:15:29Z</time>
      </trkpt>
      <trkpt lat="42.96094" lon="-0.29737">
        <ele>1381.68</ele>
        <time>2021-06-06T00:15:31Z</time>
      </trkpt>
      <trkpt lat="42.96081" lon="-0.29709">
        <ele>1377.15</ele>
        <time>2021-06-06T00:15:32Z</time>
      </trkpt>
      <trkpt lat="42.9606" lon="-0.29652">
        <ele>1371.72</ele>
        <time>2021-06-06T00:15:34Z</time>
      </trkpt>
      <trkpt lat="42.9604" lon="-0.29612">
        <ele>1366.34</ele>
        <time>2021-06-06T00:15:36Z</time>
      </trkpt>
      <trkpt lat="42.96025" lon="-0.29591">
        <ele>1367.7</ele>
        <time>2021-06-06T00:15:38Z</time>
      </trkpt>
      <trkpt lat="42.96013" lon="-0.2958">
        <ele>1370.84</ele>
        <time>2021-06-06T00:15:39Z</time>
      </trkpt>
      <trkpt lat="42.95988" lon="-0.29564">
        <ele>1372.44</ele>
        <time>2021-06-06T00:15:41Z</time>
      </trkpt>
      <trkpt lat="42.95957" lon="-0.29531">
        <ele>1374.83</ele>
        <time>2021-06-06T00:15:43Z</time>
      </trkpt>
      <trkpt lat="42.95947" lon="-0.29511">
        <ele>1376.01</ele>
        <time>2021-06-06T00:15:45Z</time>
      </trkpt>
      <trkpt lat="42.95941" lon="-0.29491">
        <ele>1377.08</ele>
        <time>2021-06-06T00:15:46Z</time>
      </trkpt>
      <trkpt lat="42.95936" lon="-0.29454">
        <ele>1373.31</ele>
        <time>2021-06-06T00:15:48Z</time>
      </trkpt>
      <trkpt lat="42.95932" lon="-0.29443">
        <ele>1370.02</ele>
        <time>2021-06-06T00:15:50Z</time>
      </trkpt>
      <trkpt lat="42.95879" lon="-0.29374">
        <ele>1368.54</ele>
        <time>2021-06-06T00:15:52Z</time>
      </trkpt>
      <trkpt lat="42.95856" lon="-0.29327">
        <ele>1369.92</ele>
        <time>2021-06-06T00:15:53Z</time>
      </trkpt>
      <trkpt lat="42.9584" lon="-0.29312">
        <ele>1378.27</ele>
        <time>2021-06-06T00:15:55Z</time>
      </trkpt>
      <trkpt lat="42.95831" lon="-0.29299">
        <ele>1380.71</ele>
        <time>2021-06-06T00:15:57Z</time>
      </trkpt>
      <trkpt lat="42.95827" lon="-0.29279">
        <ele>1378.64</ele>
        <time>2021-06-06T00:15:59Z</time>
      </trkpt>
      <trkpt lat="42.9583" lon="-0.29237">
        <ele>1369.87</ele>
        <time>2021-06-06T00:16:01Z</time>
      </trkpt>
      <trkpt lat="42.95829" lon="-0.29223">
        <ele>1369.53</ele>
        <time>2021-06-06T00:16:02Z</time>
      </trkpt>
      <trkpt lat="42.95825" lon="-0.29209">
        <ele>1367.63</ele>
        <time>2021-06-06T00:16:04Z</time>
      </trkpt>
      <trkpt lat="42.9582" lon="-0.29196">
        <ele>1367.45</ele>
        <time>2021-06-06T00:16:06Z</time>
      </trkpt>
      <trkpt lat="42.95808" lon="-0.29181">
        <ele>1368.58</ele>
        <time>2021-06-06T00:16:08Z</time>
      </trkpt>
      <trkpt lat="42.95805" lon="-0.29173">
        <ele>1366.53</ele>
        <time>2021-06-06T00:16:09Z</time>
      </trkpt>
      <trkpt lat="42.95804" lon="-0.29164">
        <ele>1364.12</ele>
        <time>2021-06-06T00:16:11Z</time>
      </trkpt>
      <trkpt lat="42.95806" lon="-0.29135">
        <ele>1352.84</ele>
        <time>2021-06-06T00:16:13Z</time>
      </trkpt>
      <trkpt lat="42.95806" lon="-0.29124">
        <ele>1343.27</ele>
        <time>2021-06-06T00:16:15Z</time>
      </trkpt>
      <trkpt lat="42.95803" lon="-0.29117">
        <ele>1339.9</ele>
        <time>2021-06-06T00:16:16Z</time>
      </trkpt>
      <trkpt lat="42.95795" lon="-0.29107">
        <ele>1346.63</ele>
        <time>2021-06-06T00:16:18Z</time>
      </trkpt>
      <trkpt lat="42.95769" lon="-0.29101">
        <ele>1380.52</ele>
        <time>2021-06-06T00:16:20Z</time>
      </trkpt>
      <trkpt lat="42.9574" lon="-0.2906">
        <ele>1351.81</ele>
        <time>2021-06-06T00:16:22Z</time>
      </trkpt>
      <trkpt lat="42.95736" lon="-0.29059">
        <ele>1360.04</ele>
        <time>2021-06-06T00:16:23Z</time>
      </trkpt>
      <trkpt lat="42.95696" lon="-0.29068">
        <ele>1425.95</ele>
        <time>2021-06-06T00:16:25Z</time>
      </trkpt>
      <trkpt lat="42.95621" lon="-0.29074">
        <ele>1493.33</ele>
        <time>2021-06-06T00:16:27Z</time>
      </trkpt>
      <trkpt lat="42.95608" lon="-0.29072">
        <ele>1501.41</ele>
        <time>2021-06-06T00:16:29Z</time>
      </trkpt>
      <trkpt lat="42.95589" lon="-0.29061">
        <ele>1514.86</ele>
        <time>2021-06-06T00:16:30Z</time>
      </trkpt>
      <trkpt lat="42.95519" lon="-0.2899">
        <ele>1437.55</ele>
        <time>2021-06-06T00:16:32Z</time>
      </trkpt>
      <trkpt lat="42.95507" lon="-0.28977">
        <ele>1420.73</ele>
        <time>2021-06-06T00:16:34Z</time>
      </trkpt>
      <trkpt lat="42.95499" lon="-0.28964">
        <ele>1404.81</ele>
        <time>2021-06-06T00:16:36Z</time>
      </trkpt>
      <trkpt lat="42.95497" lon="-0.28952">
        <ele>1390.05</ele>
        <time>2021-06-06T00:16:37Z</time>
      </trkpt>
      <trkpt lat="42.95496" lon="-0.2894">
        <ele>1374.46</ele>
        <time>2021-06-06T00:16:39Z</time>
      </trkpt>
      <trkpt lat="42.95495" lon="-0.28929">
        <ele>1364.76</ele>
        <time>2021-06-06T00:16:41Z</time>
      </trkpt>
      <trkpt lat="42.95491" lon="-0.2892">
        <ele>1358.69</ele>
        <time>2021-06-06T00:16:43Z</time>
      </trkpt>
      <trkpt lat="42.95485" lon="-0.28911">
        <ele>1358.38</ele>
        <time>2021-06-06T00:16:45Z</time>
      </trkpt>
      <trkpt lat="42.9546" lon="-0.2889">
        <ele>1368.83</ele>
        <time>2021-06-06T00:16:46Z</time>
      </trkpt>
      <trkpt lat="42.95444" lon="-0.28866">
        <ele>1373.8</ele>
        <time>2021-06-06T00:16:48Z</time>
      </trkpt>
      <trkpt lat="42.95439" lon="-0.28856">
        <ele>1373.09</ele>
        <time>2021-06-06T00:16:50Z</time>
      </trkpt>
      <trkpt lat="42.95435" lon="-0.2884">
        <ele>1372.01</ele>
        <time>2021-06-06T00:16:52Z</time>
      </trkpt>
      <trkpt lat="42.9543" lon="-0.28806">
        <ele>1363.57</ele>
        <time>2021-06-06T00:16:53Z</time>
      </trkpt>
      <trkpt lat="42.95423" lon="-0.28781">
        <ele>1362.18</ele>
        <time>2021-06-06T00:16:55Z</time>
      </trkpt>
      <trkpt lat="42.95401" lon="-0.2872">
        <ele>1367.88</ele>
        <time>2021-06-06T00:16:57Z</time>
      </trkpt>
      <trkpt lat="42.95392" lon="-0.2869">
        <ele>1367.15</ele>
        <time>2021-06-06T00:16:59Z</time>
      </trkpt>
      <trkpt lat="42.95391" lon="-0.28674">
        <ele>1366.8</ele>
        <time>2021-06-06T00:17:00Z</time>
      </trkpt>
      <trkpt lat="42.95395" lon="-0.28663">
        <ele>1366.55</ele>
        <time>2021-06-06T00:17:02Z</time>
      </trkpt>
      <trkpt lat="42.95402" lon="-0.2865">
        <ele>1366.21</ele>
        <time>2021-06-06T00:17:04Z</time>
      </trkpt>
      <trkpt lat="42.9541" lon="-0.28636">
        <ele>1363.6</ele>
        <time>2021-06-06T00:17:06Z</time>
      </trkpt>
      <trkpt lat="42.95421" lon="-0.28601">
        <ele>1361.77</ele>
        <time>2021-06-06T00:17:07Z</time>
      </trkpt>
      <trkpt lat="42.9544" lon="-0.28566">
        <ele>1358.3</ele>
        <time>2021-06-06T00:17:09Z</time>
      </trkpt>
      <trkpt lat="42.95462" lon="-0.28513">
        <ele>1361.05</ele>
        <time>2021-06-06T00:17:11Z</time>
      </trkpt>
      <trkpt lat="42.95494" lon="-0.28457">
        <ele>1357.53</ele>
        <time>2021-06-06T00:17:13Z</time>
      </trkpt>
      <trkpt lat="42.95503" lon="-0.28412">
        <ele>1357.19</ele>
        <time>2021-06-06T00:17:14Z</time>
      </trkpt>
      <trkpt lat="42.95505" lon="-0.28394">
        <ele>1356.85</ele>
        <time>2021-06-06T00:17:16Z</time>
      </trkpt>
      <trkpt lat="42.95503" lon="-0.28379">
        <ele>1355.86</ele>
        <time>2021-06-06T00:17:18Z</time>
      </trkpt>
      <trkpt lat="42.95491" lon="-0.2835">
        <ele>1361.23</ele>
        <time>2021-06-06T00:17:20Z</time>
      </trkpt>
      <trkpt lat="42.95489" lon="-0.2834">
        <ele>1361.07</ele>
        <time>2021-06-06T00:17:21Z</time>
      </trkpt>
      <trkpt lat="42.95491" lon="-0.28325">
        <ele>1360.81</ele>
        <time>2021-06-06T00:17:23Z</time>
      </trkpt>
      <trkpt lat="42.95494" lon="-0.28311">
        <ele>1356.35</ele>
        <time>2021-06-06T00:17:25Z</time>
      </trkpt>
      <trkpt lat="42.95497" lon="-0.28247">
        <ele>1361.86</ele>
        <time>2021-06-06T00:17:27Z</time>
      </trkpt>
      <trkpt lat="42.95502" lon="-0.28184">
        <ele>1355.6</ele>
        <time>2021-06-06T00:17:29Z</time>
      </trkpt>
      <trkpt lat="42.955" lon="-0.28158">
        <ele>1360.95</ele>
        <time>2021-06-06T00:17:30Z</time>
      </trkpt>
      <trkpt lat="42.95487" lon="-0.28123">
        <ele>1381.32</ele>
        <time>2021-06-06T00:17:32Z</time>
      </trkpt>
      <trkpt lat="42.95487" lon="-0.28109">
        <ele>1383.09</ele>
        <time>2021-06-06T00:17:34Z</time>
      </trkpt>
      <trkpt lat="42.95491" lon="-0.28094">
        <ele>1381.93</ele>
        <time>2021-06-06T00:17:36Z</time>
      </trkpt>
      <trkpt lat="42.95512" lon="-0.28055">
        <ele>1381.04</ele>
        <time>2021-06-06T00:17:37Z</time>
      </trkpt>
      <trkpt lat="42.95518" lon="-0.28038">
        <ele>1382.49</ele>
        <time>2021-06-06T00:17:39Z</time>
      </trkpt>
      <trkpt lat="42.95523" lon="-0.28001">
        <ele>1387.54</ele>
        <time>2021-06-06T00:17:41Z</time>
      </trkpt>
      <trkpt lat="42.95531" lon="-0.27967">
        <ele>1385.63</ele>
        <time>2021-06-06T00:17:43Z</time>
      </trkpt>
      <trkpt lat="42.95543" lon="-0.2782">
        <ele>1386.53</ele>
        <time>2021-06-06T00:17:44Z</time>
      </trkpt>
      <trkpt lat="42.95541" lon="-0.278">
        <ele>1389.09</ele>
        <time>2021-06-06T00:17:46Z</time>
      </trkpt>
      <trkpt lat="42.95534" lon="-0.27773">
        <ele>1392.93</ele>
        <time>2021-06-06T00:17:48Z</time>
      </trkpt>
      <trkpt lat="42.95531" lon="-0.27746">
        <ele>1395.63</ele>
        <time>2021-06-06T00:17:50Z</time>
      </trkpt>
      <trkpt lat="42.95532" lon="-0.27733">
        <ele>1396.95</ele>
        <time>2021-06-06T00:17:51Z</time>
      </trkpt>
      <trkpt lat="42.95538" lon="-0.27721">
        <ele>1397.13</ele>
        <time>2021-06-06T00:17:53Z</time>
      </trkpt>
      <trkpt lat="42.95594" lon="-0.27663">
        <ele>1402.54</ele>
        <time>2021-06-06T00:17:55Z</time>
      </trkpt>
      <trkpt lat="42.95641" lon="-0.27627">
        <ele>1406.62</ele>
        <time>2021-06-06T00:17:57Z</time>
      </trkpt>
      <trkpt lat="42.95648" lon="-0.27626">
        <ele>1407.97</ele>
        <time>2021-06-06T00:17:58Z</time>
      </trkpt>
      <trkpt lat="42.95663" lon="-0.27627">
        <ele>1409.43</ele>
        <time>2021-06-06T00:18:00Z</time>
      </trkpt>
      <trkpt lat="42.95685" lon="-0.27633">
        <ele>1410.61</ele>
        <time>2021-06-06T00:18:02Z</time>
      </trkpt>
      <trkpt lat="42.95719" lon="-0.27637">
        <ele>1415.06</ele>
        <time>2021-06-06T00:18:04Z</time>
      </trkpt>
      <trkpt lat="42.95735" lon="-0.27644">
        <ele>1415.48</ele>
        <time>2021-06-06T00:18:05Z</time>
      </trkpt>
      <trkpt lat="42.95761" lon="-0.27661">
        <ele>1411.54</ele>
        <time>2021-06-06T00:18:07Z</time>
      </trkpt>
      <trkpt lat="42.95771" lon="-0.27664">
        <ele>1410.82</ele>
        <time>2021-06-06T00:18:09Z</time>
      </trkpt>
      <trkpt lat="42.9578" lon="-0.2766">
        <ele>1411.44</ele>
        <time>2021-06-06T00:18:11Z</time>
      </trkpt>
      <trkpt lat="42.95786" lon="-0.2765">
        <ele>1411.56</ele>
        <time>2021-06-06T00:18:13Z</time>
      </trkpt>
      <trkpt lat="42.95814" lon="-0.27547">
        <ele>1431.5</ele>
        <time>2021-06-06T00:18:14Z</time>
      </trkpt>
      <trkpt lat="42.95822" lon="-0.27498">
        <ele>1440.38</ele>
        <time>2021-06-06T00:18:16Z</time>
      </trkpt>
      <trkpt lat="42.95828" lon="-0.27484">
        <ele>1438.12</ele>
        <time>2021-06-06T00:18:18Z</time>
      </trkpt>
      <trkpt lat="42.95841" lon="-0.27458">
        <ele>1434.64</ele>
        <time>2021-06-06T00:18:20Z</time>
      </trkpt>
      <trkpt lat="42.95845" lon="-0.27445">
        <ele>1433.57</ele>
        <time>2021-06-06T00:18:21Z</time>
      </trkpt>
      <trkpt lat="42.95843" lon="-0.27423">
        <ele>1433.01</ele>
        <time>2021-06-06T00:18:23Z</time>
      </trkpt>
      <trkpt lat="42.95822" lon="-0.27376">
        <ele>1437.45</ele>
        <time>2021-06-06T00:18:25Z</time>
      </trkpt>
      <trkpt lat="42.9581" lon="-0.27339">
        <ele>1442.64</ele>
        <time>2021-06-06T00:18:27Z</time>
      </trkpt>
      <trkpt lat="42.95805" lon="-0.27288">
        <ele>1443.23</ele>
        <time>2021-06-06T00:18:28Z</time>
      </trkpt>
      <trkpt lat="42.95806" lon="-0.27271">
        <ele>1442.77</ele>
        <time>2021-06-06T00:18:30Z</time>
      </trkpt>
      <trkpt lat="42.95811" lon="-0.27251">
        <ele>1443.35</ele>
        <time>2021-06-06T00:18:32Z</time>
      </trkpt>
      <trkpt lat="42.95832" lon="-0.27188">
        <ele>1441.21</ele>
        <time>2021-06-06T00:18:34Z</time>
      </trkpt>
      <trkpt lat="42.95835" lon="-0.2717">
        <ele>1441.1</ele>
        <time>2021-06-06T00:18:35Z</time>
      </trkpt>
      <trkpt lat="42.95835" lon="-0.27153">
        <ele>1442.56</ele>
        <time>2021-06-06T00:18:37Z</time>
      </trkpt>
      <trkpt lat="42.95832" lon="-0.27113">
        <ele>1442.52</ele>
        <time>2021-06-06T00:18:39Z</time>
      </trkpt>
      <trkpt lat="42.95828" lon="-0.27093">
        <ele>1442.35</ele>
        <time>2021-06-06T00:18:41Z</time>
      </trkpt>
      <trkpt lat="42.95828" lon="-0.2707">
        <ele>1441.67</ele>
        <time>2021-06-06T00:18:42Z</time>
      </trkpt>
      <trkpt lat="42.9583" lon="-0.27058">
        <ele>1441.17</ele>
        <time>2021-06-06T00:18:44Z</time>
      </trkpt>
      <trkpt lat="42.95834" lon="-0.27047">
        <ele>1441.42</ele>
        <time>2021-06-06T00:18:46Z</time>
      </trkpt>
      <trkpt lat="42.95856" lon="-0.27016">
        <ele>1441.09</ele>
        <time>2021-06-06T00:18:48Z</time>
      </trkpt>
      <trkpt lat="42.95862" lon="-0.27004">
        <ele>1440.36</ele>
        <time>2021-06-06T00:18:49Z</time>
      </trkpt>
      <trkpt lat="42.95883" lon="-0.26928">
        <ele>1443.57</ele>
        <time>2021-06-06T00:18:51Z</time>
      </trkpt>
      <trkpt lat="42.9591" lon="-0.26894">
        <ele>1443.08</ele>
        <time>2021-06-06T00:18:53Z</time>
      </trkpt>
      <trkpt lat="42.95921" lon="-0.26875">
        <ele>1443.86</ele>
        <time>2021-06-06T00:18:55Z</time>
      </trkpt>
      <trkpt lat="42.95935" lon="-0.26846">
        <ele>1444.36</ele>
        <time>2021-06-06T00:18:57Z</time>
      </trkpt>
      <trkpt lat="42.95937" lon="-0.2683">
        <ele>1444.65</ele>
        <time>2021-06-06T00:18:58Z</time>
      </trkpt>
      <trkpt lat="42.95942" lon="-0.26769">
        <ele>1444.79</ele>
        <time>2021-06-06T00:19:00Z</time>
      </trkpt>
      <trkpt lat="42.95989" lon="-0.26526">
        <ele>1450.7</ele>
        <time>2021-06-06T00:19:02Z</time>
      </trkpt>
      <trkpt lat="42.95991" lon="-0.26504">
        <ele>1452.2</ele>
        <time>2021-06-06T00:19:04Z</time>
      </trkpt>
      <trkpt lat="42.95994" lon="-0.26489">
        <ele>1453.54</ele>
        <time>2021-06-06T00:19:05Z</time>
      </trkpt>
      <trkpt lat="42.96" lon="-0.26475">
        <ele>1454.27</ele>
        <time>2021-06-06T00:19:07Z</time>
      </trkpt>
      <trkpt lat="42.96018" lon="-0.26442">
        <ele>1455.58</ele>
        <time>2021-06-06T00:19:09Z</time>
      </trkpt>
      <trkpt lat="42.96028" lon="-0.26416">
        <ele>1458.04</ele>
        <time>2021-06-06T00:19:11Z</time>
      </trkpt>
      <trkpt lat="42.96041" lon="-0.26376">
        <ele>1462.35</ele>
        <time>2021-06-06T00:19:12Z</time>
      </trkpt>
      <trkpt lat="42.96045" lon="-0.26353">
        <ele>1464.36</ele>
        <time>2021-06-06T00:19:14Z</time>
      </trkpt>
      <trkpt lat="42.96055" lon="-0.26277">
        <ele>1467.47</ele>
        <time>2021-06-06T00:19:16Z</time>
      </trkpt>
      <trkpt lat="42.96064" lon="-0.26177">
        <ele>1469.14</ele>
        <time>2021-06-06T00:19:18Z</time>
      </trkpt>
      <trkpt lat="42.96059" lon="-0.26026">
        <ele>1467.36</ele>
        <time>2021-06-06T00:19:19Z</time>
      </trkpt>
      <trkpt lat="42.96056" lon="-0.26017">
        <ele>1466.64</ele>
        <time>2021-06-06T00:19:21Z</time>
      </trkpt>
      <trkpt lat="42.96038" lon="-0.25986">
        <ele>1461.6</ele>
        <time>2021-06-06T00:19:23Z</time>
      </trkpt>
      <trkpt lat="42.96033" lon="-0.25964">
        <ele>1459.29</ele>
        <time>2021-06-06T00:19:25Z</time>
      </trkpt>
      <trkpt lat="42.96033" lon="-0.25938">
        <ele>1456.69</ele>
        <time>2021-06-06T00:19:26Z</time>
      </trkpt>
      <trkpt lat="42.96036" lon="-0.25915">
        <ele>1455.98</ele>
        <time>2021-06-06T00:19:28Z</time>
      </trkpt>
      <trkpt lat="42.96056" lon="-0.25857">
        <ele>1453.42</ele>
        <time>2021-06-06T00:19:30Z</time>
      </trkpt>
      <trkpt lat="42.96078" lon="-0.25755">
        <ele>1444.87</ele>
        <time>2021-06-06T00:19:32Z</time>
      </trkpt>
      <trkpt lat="42.96081" lon="-0.25702">
        <ele>1442.83</ele>
        <time>2021-06-06T00:19:33Z</time>
      </trkpt>
      <trkpt lat="42.96081" lon="-0.25649">
        <ele>1440.29</ele>
        <time>2021-06-06T00:19:35Z</time>
      </trkpt>
      <trkpt lat="42.96078" lon="-0.2563">
        <ele>1438.11</ele>
        <time>2021-06-06T00:19:37Z</time>
      </trkpt>
      <trkpt lat="42.96072" lon="-0.25619">
        <ele>1435.83</ele>
        <time>2021-06-06T00:19:39Z</time>
      </trkpt>
      <trkpt lat="42.9604" lon="-0.2559">
        <ele>1426.44</ele>
        <time>2021-06-06T00:19:41Z</time>
      </trkpt>
      <trkpt lat="42.96033" lon="-0.25578">
        <ele>1424.88</ele>
        <time>2021-06-06T00:19:42Z</time>
      </trkpt>
      <trkpt lat="42.96028" lon="-0.25559">
        <ele>1425.6</ele>
        <time>2021-06-06T00:19:44Z</time>
      </trkpt>
      <trkpt lat="42.96025" lon="-0.25532">
        <ele>1426.57</ele>
        <time>2021-06-06T00:19:46Z</time>
      </trkpt>
      <trkpt lat="42.96028" lon="-0.25495">
        <ele>1425.52</ele>
        <time>2021-06-06T00:19:48Z</time>
      </trkpt>
      <trkpt lat="42.96032" lon="-0.25478">
        <ele>1424.53</ele>
        <time>2021-06-06T00:19:49Z</time>
      </trkpt>
      <trkpt lat="42.96045" lon="-0.25455">
        <ele>1423.64</ele>
        <time>2021-06-06T00:19:51Z</time>
      </trkpt>
      <trkpt lat="42.9607" lon="-0.25421">
        <ele>1422.02</ele>
        <time>2021-06-06T00:19:53Z</time>
      </trkpt>
      <trkpt lat="42.96095" lon="-0.25404">
        <ele>1421.74</ele>
        <time>2021-06-06T00:19:55Z</time>
      </trkpt>
      <trkpt lat="42.96106" lon="-0.25399">
        <ele>1422.03</ele>
        <time>2021-06-06T00:19:56Z</time>
      </trkpt>
      <trkpt lat="42.96115" lon="-0.25385">
        <ele>1420.37</ele>
        <time>2021-06-06T00:19:58Z</time>
      </trkpt>
      <trkpt lat="42.96116" lon="-0.25378">
        <ele>1419.08</ele>
        <time>2021-06-06T00:20:00Z</time>
      </trkpt>
      <trkpt lat="42.96118" lon="-0.25287">
        <ele>1404.71</ele>
        <time>2021-06-06T00:20:02Z</time>
      </trkpt>
      <trkpt lat="42.96119" lon="-0.25272">
        <ele>1403.83</ele>
        <time>2021-06-06T00:20:03Z</time>
      </trkpt>
      <trkpt lat="42.96125" lon="-0.25255">
        <ele>1404.14</ele>
        <time>2021-06-06T00:20:05Z</time>
      </trkpt>
      <trkpt lat="42.96126" lon="-0.25237">
        <ele>1404.41</ele>
        <time>2021-06-06T00:20:07Z</time>
      </trkpt>
      <trkpt lat="42.96121" lon="-0.25224">
        <ele>1403.43</ele>
        <time>2021-06-06T00:20:09Z</time>
      </trkpt>
      <trkpt lat="42.96103" lon="-0.25201">
        <ele>1398.66</ele>
        <time>2021-06-06T00:20:10Z</time>
      </trkpt>
      <trkpt lat="42.96095" lon="-0.25184">
        <ele>1396.48</ele>
        <time>2021-06-06T00:20:12Z</time>
      </trkpt>
      <trkpt lat="42.96094" lon="-0.25169">
        <ele>1395.46</ele>
        <time>2021-06-06T00:20:14Z</time>
      </trkpt>
      <trkpt lat="42.96096" lon="-0.25156">
        <ele>1395.54</ele>
        <time>2021-06-06T00:20:16Z</time>
      </trkpt>
      <trkpt lat="42.96113" lon="-0.25098">
        <ele>1395.54</ele>
        <time>2021-06-06T00:20:17Z</time>
      </trkpt>
      <trkpt lat="42.96116" lon="-0.25081">
        <ele>1394.88</ele>
        <time>2021-06-06T00:20:19Z</time>
      </trkpt>
      <trkpt lat="42.96114" lon="-0.25068">
        <ele>1393.06</ele>
        <time>2021-06-06T00:20:21Z</time>
      </trkpt>
      <trkpt lat="42.96109" lon="-0.25053">
        <ele>1390.67</ele>
        <time>2021-06-06T00:20:23Z</time>
      </trkpt>
      <trkpt lat="42.96102" lon="-0.25045">
        <ele>1389.64</ele>
        <time>2021-06-06T00:20:25Z</time>
      </trkpt>
      <trkpt lat="42.96092" lon="-0.25038">
        <ele>1388.28</ele>
        <time>2021-06-06T00:20:26Z</time>
      </trkpt>
      <trkpt lat="42.96077" lon="-0.25036">
        <ele>1386.24</ele>
        <time>2021-06-06T00:20:28Z</time>
      </trkpt>
      <trkpt lat="42.96036" lon="-0.25033">
        <ele>1377.4</ele>
        <time>2021-06-06T00:20:30Z</time>
      </trkpt>
      <trkpt lat="42.96024" lon="-0.25027">
        <ele>1373.78</ele>
        <time>2021-06-06T00:20:32Z</time>
      </trkpt>
      <trkpt lat="42.96017" lon="-0.25017">
        <ele>1371.56</ele>
        <time>2021-06-06T00:20:33Z</time>
      </trkpt>
      <trkpt lat="42.96007" lon="-0.24989">
        <ele>1369.64</ele>
        <time>2021-06-06T00:20:35Z</time>
      </trkpt>
      <trkpt lat="42.96003" lon="-0.24962">
        <ele>1369.05</ele>
        <time>2021-06-06T00:20:37Z</time>
      </trkpt>
      <trkpt lat="42.96005" lon="-0.24942">
        <ele>1369.47</ele>
        <time>2021-06-06T00:20:39Z</time>
      </trkpt>
      <trkpt lat="42.96028" lon="-0.2486">
        <ele>1366.97</ele>
        <time>2021-06-06T00:20:40Z</time>
      </trkpt>
      <trkpt lat="42.96047" lon="-0.24838">
        <ele>1366.77</ele>
        <time>2021-06-06T00:20:42Z</time>
      </trkpt>
      <trkpt lat="42.96058" lon="-0.24822">
        <ele>1365.08</ele>
        <time>2021-06-06T00:20:44Z</time>
      </trkpt>
      <trkpt lat="42.9607" lon="-0.248">
        <ele>1361.96</ele>
        <time>2021-06-06T00:20:46Z</time>
      </trkpt>
      <trkpt lat="42.96078" lon="-0.2478">
        <ele>1358.61</ele>
        <time>2021-06-06T00:20:47Z</time>
      </trkpt>
      <trkpt lat="42.96082" lon="-0.24765">
        <ele>1357.78</ele>
        <time>2021-06-06T00:20:49Z</time>
      </trkpt>
      <trkpt lat="42.9609" lon="-0.24722">
        <ele>1357.24</ele>
        <time>2021-06-06T00:20:51Z</time>
      </trkpt>
      <trkpt lat="42.96102" lon="-0.24678">
        <ele>1353.26</ele>
        <time>2021-06-06T00:20:53Z</time>
      </trkpt>
      <trkpt lat="42.96125" lon="-0.24612">
        <ele>1348.45</ele>
        <time>2021-06-06T00:20:54Z</time>
      </trkpt>
      <trkpt lat="42.96133" lon="-0.24593">
        <ele>1347.01</ele>
        <time>2021-06-06T00:20:56Z</time>
      </trkpt>
      <trkpt lat="42.96229" lon="-0.24498">
        <ele>1339.68</ele>
        <time>2021-06-06T00:20:58Z</time>
      </trkpt>
      <trkpt lat="42.96247" lon="-0.24478">
        <ele>1337.81</ele>
        <time>2021-06-06T00:21:00Z</time>
      </trkpt>
      <trkpt lat="42.96257" lon="-0.24463">
        <ele>1335.63</ele>
        <time>2021-06-06T00:21:01Z</time>
      </trkpt>
      <trkpt lat="42.96267" lon="-0.24441">
        <ele>1331.47</ele>
        <time>2021-06-06T00:21:03Z</time>
      </trkpt>
      <trkpt lat="42.96298" lon="-0.2436">
        <ele>1322.69</ele>
        <time>2021-06-06T00:21:05Z</time>
      </trkpt>
      <trkpt lat="42.96311" lon="-0.24337">
        <ele>1320.9</ele>
        <time>2021-06-06T00:21:07Z</time>
      </trkpt>
      <trkpt lat="42.96341" lon="-0.24296">
        <ele>1319.1</ele>
        <time>2021-06-06T00:21:09Z</time>
      </trkpt>
      <trkpt lat="42.96347" lon="-0.2428">
        <ele>1319.52</ele>
        <time>2021-06-06T00:21:10Z</time>
      </trkpt>
      <trkpt lat="42.96348" lon="-0.24265">
        <ele>1318.7</ele>
        <time>2021-06-06T00:21:12Z</time>
      </trkpt>
      <trkpt lat="42.96341" lon="-0.24249">
        <ele>1315.87</ele>
        <time>2021-06-06T00:21:14Z</time>
      </trkpt>
      <trkpt lat="42.96337" lon="-0.24244">
        <ele>1314.6</ele>
        <time>2021-06-06T00:21:16Z</time>
      </trkpt>
      <trkpt lat="42.96331" lon="-0.24239">
        <ele>1312.85</ele>
        <time>2021-06-06T00:21:17Z</time>
      </trkpt>
      <trkpt lat="42.96323" lon="-0.24236">
        <ele>1310.01</ele>
        <time>2021-06-06T00:21:19Z</time>
      </trkpt>
      <trkpt lat="42.96301" lon="-0.24235">
        <ele>1303.4</ele>
        <time>2021-06-06T00:21:21Z</time>
      </trkpt>
      <trkpt lat="42.96289" lon="-0.24227">
        <ele>1300.53</ele>
        <time>2021-06-06T00:21:23Z</time>
      </trkpt>
      <trkpt lat="42.96281" lon="-0.24218">
        <ele>1299.06</ele>
        <time>2021-06-06T00:21:24Z</time>
      </trkpt>
      <trkpt lat="42.96275" lon="-0.24202">
        <ele>1298.98</ele>
        <time>2021-06-06T00:21:26Z</time>
      </trkpt>
      <trkpt lat="42.96271" lon="-0.24185">
        <ele>1298.81</ele>
        <time>2021-06-06T00:21:28Z</time>
      </trkpt>
      <trkpt lat="42.96271" lon="-0.2416">
        <ele>1298.26</ele>
        <time>2021-06-06T00:21:30Z</time>
      </trkpt>
      <trkpt lat="42.96274" lon="-0.24147">
        <ele>1297.31</ele>
        <time>2021-06-06T00:21:31Z</time>
      </trkpt>
      <trkpt lat="42.96283" lon="-0.24131">
        <ele>1295.8</ele>
        <time>2021-06-06T00:21:33Z</time>
      </trkpt>
      <trkpt lat="42.963" lon="-0.24114">
        <ele>1294.73</ele>
        <time>2021-06-06T00:21:35Z</time>
      </trkpt>
      <trkpt lat="42.96309" lon="-0.24108">
        <ele>1293.73</ele>
        <time>2021-06-06T00:21:37Z</time>
      </trkpt>
      <trkpt lat="42.96323" lon="-0.24105">
        <ele>1291.15</ele>
        <time>2021-06-06T00:21:38Z</time>
      </trkpt>
      <trkpt lat="42.96342" lon="-0.24107">
        <ele>1290.85</ele>
        <time>2021-06-06T00:21:40Z</time>
      </trkpt>
      <trkpt lat="42.96357" lon="-0.24106">
        <ele>1291.55</ele>
        <time>2021-06-06T00:21:42Z</time>
      </trkpt>
      <trkpt lat="42.9637" lon="-0.24096">
        <ele>1290.6</ele>
        <time>2021-06-06T00:21:44Z</time>
      </trkpt>
      <trkpt lat="42.96377" lon="-0.2409">
        <ele>1289.9</ele>
        <time>2021-06-06T00:21:45Z</time>
      </trkpt>
      <trkpt lat="42.96413" lon="-0.24022">
        <ele>1287.47</ele>
        <time>2021-06-06T00:21:47Z</time>
      </trkpt>
      <trkpt lat="42.96417" lon="-0.24005">
        <ele>1286.62</ele>
        <time>2021-06-06T00:21:49Z</time>
      </trkpt>
      <trkpt lat="42.96416" lon="-0.23992">
        <ele>1285.18</ele>
        <time>2021-06-06T00:21:51Z</time>
      </trkpt>
      <trkpt lat="42.96413" lon="-0.23981">
        <ele>1283.58</ele>
        <time>2021-06-06T00:21:53Z</time>
      </trkpt>
      <trkpt lat="42.96398" lon="-0.23953">
        <ele>1278.13</ele>
        <time>2021-06-06T00:21:54Z</time>
      </trkpt>
      <trkpt lat="42.96391" lon="-0.23925">
        <ele>1274.14</ele>
        <time>2021-06-06T00:21:56Z</time>
      </trkpt>
      <trkpt lat="42.96388" lon="-0.23906">
        <ele>1271.89</ele>
        <time>2021-06-06T00:21:58Z</time>
      </trkpt>
      <trkpt lat="42.9639" lon="-0.23891">
        <ele>1271.48</ele>
        <time>2021-06-06T00:22:00Z</time>
      </trkpt>
      <trkpt lat="42.964" lon="-0.23867">
        <ele>1273.66</ele>
        <time>2021-06-06T00:22:01Z</time>
      </trkpt>
      <trkpt lat="42.96402" lon="-0.23849">
        <ele>1274.17</ele>
        <time>2021-06-06T00:22:03Z</time>
      </trkpt>
      <trkpt lat="42.96398" lon="-0.23823">
        <ele>1272.37</ele>
        <time>2021-06-06T00:22:05Z</time>
      </trkpt>
      <trkpt lat="42.96376" lon="-0.23752">
        <ele>1268.68</ele>
        <time>2021-06-06T00:22:07Z</time>
      </trkpt>
      <trkpt lat="42.9636" lon="-0.23709">
        <ele>1263.51</ele>
        <time>2021-06-06T00:22:08Z</time>
      </trkpt>
      <trkpt lat="42.96342" lon="-0.23671">
        <ele>1258.04</ele>
        <time>2021-06-06T00:22:10Z</time>
      </trkpt>
      <trkpt lat="42.96316" lon="-0.23621">
        <ele>1249.74</ele>
        <time>2021-06-06T00:22:12Z</time>
      </trkpt>
      <trkpt lat="42.96305" lon="-0.23592">
        <ele>1248.76</ele>
        <time>2021-06-06T00:22:14Z</time>
      </trkpt>
      <trkpt lat="42.96266" lon="-0.23452">
        <ele>1238.78</ele>
        <time>2021-06-06T00:22:15Z</time>
      </trkpt>
      <trkpt lat="42.96234" lon="-0.23351">
        <ele>1230.15</ele>
        <time>2021-06-06T00:22:17Z</time>
      </trkpt>
      <trkpt lat="42.96232" lon="-0.23328">
        <ele>1228.65</ele>
        <time>2021-06-06T00:22:19Z</time>
      </trkpt>
      <trkpt lat="42.96235" lon="-0.23296">
        <ele>1227</ele>
        <time>2021-06-06T00:22:21Z</time>
      </trkpt>
      <trkpt lat="42.96268" lon="-0.23178">
        <ele>1218.71</ele>
        <time>2021-06-06T00:22:22Z</time>
      </trkpt>
      <trkpt lat="42.96277" lon="-0.23159">
        <ele>1217.06</ele>
        <time>2021-06-06T00:22:24Z</time>
      </trkpt>
      <trkpt lat="42.96288" lon="-0.23145">
        <ele>1216.04</ele>
        <time>2021-06-06T00:22:26Z</time>
      </trkpt>
      <trkpt lat="42.96337" lon="-0.23095">
        <ele>1211.33</ele>
        <time>2021-06-06T00:22:28Z</time>
      </trkpt>
      <trkpt lat="42.96356" lon="-0.23085">
        <ele>1211.51</ele>
        <time>2021-06-06T00:22:29Z</time>
      </trkpt>
      <trkpt lat="42.96392" lon="-0.23088">
        <ele>1209.82</ele>
        <time>2021-06-06T00:22:31Z</time>
      </trkpt>
      <trkpt lat="42.96403" lon="-0.23085">
        <ele>1209.21</ele>
        <time>2021-06-06T00:22:33Z</time>
      </trkpt>
      <trkpt lat="42.96411" lon="-0.2308">
        <ele>1208.74</ele>
        <time>2021-06-06T00:22:35Z</time>
      </trkpt>
      <trkpt lat="42.96417" lon="-0.2307">
        <ele>1208.06</ele>
        <time>2021-06-06T00:22:37Z</time>
      </trkpt>
      <trkpt lat="42.96421" lon="-0.2305">
        <ele>1206.73</ele>
        <time>2021-06-06T00:22:38Z</time>
      </trkpt>
      <trkpt lat="42.96426" lon="-0.23015">
        <ele>1202.7</ele>
        <time>2021-06-06T00:22:40Z</time>
      </trkpt>
      <trkpt lat="42.96431" lon="-0.23001">
        <ele>1201.17</ele>
        <time>2021-06-06T00:22:42Z</time>
      </trkpt>
      <trkpt lat="42.96435" lon="-0.22993">
        <ele>1200.76</ele>
        <time>2021-06-06T00:22:44Z</time>
      </trkpt>
      <trkpt lat="42.96452" lon="-0.22974">
        <ele>1200.78</ele>
        <time>2021-06-06T00:22:45Z</time>
      </trkpt>
      <trkpt lat="42.96476" lon="-0.22955">
        <ele>1200.32</ele>
        <time>2021-06-06T00:22:47Z</time>
      </trkpt>
      <trkpt lat="42.9649" lon="-0.2294">
        <ele>1197.76</ele>
        <time>2021-06-06T00:22:49Z</time>
      </trkpt>
      <trkpt lat="42.96507" lon="-0.22905">
        <ele>1192.53</ele>
        <time>2021-06-06T00:22:51Z</time>
      </trkpt>
      <trkpt lat="42.96539" lon="-0.22791">
        <ele>1179.26</ele>
        <time>2021-06-06T00:22:52Z</time>
      </trkpt>
      <trkpt lat="42.96546" lon="-0.22774">
        <ele>1178.07</ele>
        <time>2021-06-06T00:22:54Z</time>
      </trkpt>
      <trkpt lat="42.96555" lon="-0.22762">
        <ele>1176.81</ele>
        <time>2021-06-06T00:22:56Z</time>
      </trkpt>
      <trkpt lat="42.96569" lon="-0.22755">
        <ele>1175.93</ele>
        <time>2021-06-06T00:22:58Z</time>
      </trkpt>
      <trkpt lat="42.96581" lon="-0.22754">
        <ele>1176.47</ele>
        <time>2021-06-06T00:22:59Z</time>
      </trkpt>
      <trkpt lat="42.96596" lon="-0.22757">
        <ele>1177.2</ele>
        <time>2021-06-06T00:23:01Z</time>
      </trkpt>
      <trkpt lat="42.96611" lon="-0.22766">
        <ele>1178.25</ele>
        <time>2021-06-06T00:23:03Z</time>
      </trkpt>
      <trkpt lat="42.96638" lon="-0.2279">
        <ele>1178.92</ele>
        <time>2021-06-06T00:23:05Z</time>
      </trkpt>
      <trkpt lat="42.96649" lon="-0.22794">
        <ele>1177.99</ele>
        <time>2021-06-06T00:23:06Z</time>
      </trkpt>
      <trkpt lat="42.96661" lon="-0.22793">
        <ele>1176.49</ele>
        <time>2021-06-06T00:23:08Z</time>
      </trkpt>
      <trkpt lat="42.96679" lon="-0.22783">
        <ele>1172.74</ele>
        <time>2021-06-06T00:23:10Z</time>
      </trkpt>
      <trkpt lat="42.96711" lon="-0.22747">
        <ele>1166.56</ele>
        <time>2021-06-06T00:23:12Z</time>
      </trkpt>
      <trkpt lat="42.96718" lon="-0.22732">
        <ele>1165.69</ele>
        <time>2021-06-06T00:23:13Z</time>
      </trkpt>
      <trkpt lat="42.9672" lon="-0.2272">
        <ele>1164.76</ele>
        <time>2021-06-06T00:23:15Z</time>
      </trkpt>
      <trkpt lat="42.9672" lon="-0.22704">
        <ele>1164.14</ele>
        <time>2021-06-06T00:23:17Z</time>
      </trkpt>
      <trkpt lat="42.96711" lon="-0.22662">
        <ele>1161.38</ele>
        <time>2021-06-06T00:23:19Z</time>
      </trkpt>
      <trkpt lat="42.96709" lon="-0.22637">
        <ele>1159.35</ele>
        <time>2021-06-06T00:23:21Z</time>
      </trkpt>
      <trkpt lat="42.9673" lon="-0.22508">
        <ele>1148.55</ele>
        <time>2021-06-06T00:23:22Z</time>
      </trkpt>
      <trkpt lat="42.96728" lon="-0.22492">
        <ele>1147.28</ele>
        <time>2021-06-06T00:23:24Z</time>
      </trkpt>
      <trkpt lat="42.96723" lon="-0.22472">
        <ele>1145.02</ele>
        <time>2021-06-06T00:23:26Z</time>
      </trkpt>
      <trkpt lat="42.96702" lon="-0.22439">
        <ele>1142.69</ele>
        <time>2021-06-06T00:23:28Z</time>
      </trkpt>
      <trkpt lat="42.96665" lon="-0.22396">
        <ele>1144.46</ele>
        <time>2021-06-06T00:23:29Z</time>
      </trkpt>
      <trkpt lat="42.9665" lon="-0.22389">
        <ele>1145</ele>
        <time>2021-06-06T00:23:31Z</time>
      </trkpt>
      <trkpt lat="42.96636" lon="-0.22386">
        <ele>1145.11</ele>
        <time>2021-06-06T00:23:33Z</time>
      </trkpt>
      <trkpt lat="42.96624" lon="-0.22386">
        <ele>1144.7</ele>
        <time>2021-06-06T00:23:35Z</time>
      </trkpt>
      <trkpt lat="42.9661" lon="-0.22389">
        <ele>1143.99</ele>
        <time>2021-06-06T00:23:36Z</time>
      </trkpt>
      <trkpt lat="42.96583" lon="-0.22401">
        <ele>1144</ele>
        <time>2021-06-06T00:23:38Z</time>
      </trkpt>
      <trkpt lat="42.96567" lon="-0.22403">
        <ele>1143.71</ele>
        <time>2021-06-06T00:23:40Z</time>
      </trkpt>
      <trkpt lat="42.96528" lon="-0.22398">
        <ele>1137.94</ele>
        <time>2021-06-06T00:23:42Z</time>
      </trkpt>
      <trkpt lat="42.96522" lon="-0.22394">
        <ele>1136.11</ele>
        <time>2021-06-06T00:23:43Z</time>
      </trkpt>
      <trkpt lat="42.96514" lon="-0.22385">
        <ele>1133.09</ele>
        <time>2021-06-06T00:23:45Z</time>
      </trkpt>
      <trkpt lat="42.96509" lon="-0.22366">
        <ele>1129.73</ele>
        <time>2021-06-06T00:23:47Z</time>
      </trkpt>
      <trkpt lat="42.96511" lon="-0.2234">
        <ele>1126.33</ele>
        <time>2021-06-06T00:23:49Z</time>
      </trkpt>
      <trkpt lat="42.96528" lon="-0.22285">
        <ele>1121.28</ele>
        <time>2021-06-06T00:23:50Z</time>
      </trkpt>
      <trkpt lat="42.96561" lon="-0.22202">
        <ele>1121.38</ele>
        <time>2021-06-06T00:23:52Z</time>
      </trkpt>
      <trkpt lat="42.96563" lon="-0.22182">
        <ele>1119.95</ele>
        <time>2021-06-06T00:23:54Z</time>
      </trkpt>
      <trkpt lat="42.96563" lon="-0.22173">
        <ele>1118.59</ele>
        <time>2021-06-06T00:23:56Z</time>
      </trkpt>
      <trkpt lat="42.9655" lon="-0.22129">
        <ele>1110.64</ele>
        <time>2021-06-06T00:23:57Z</time>
      </trkpt>
      <trkpt lat="42.96548" lon="-0.22113">
        <ele>1109.82</ele>
        <time>2021-06-06T00:23:59Z</time>
      </trkpt>
      <trkpt lat="42.9655" lon="-0.22083">
        <ele>1108.06</ele>
        <time>2021-06-06T00:24:01Z</time>
      </trkpt>
      <trkpt lat="42.96556" lon="-0.22042">
        <ele>1106.81</ele>
        <time>2021-06-06T00:24:03Z</time>
      </trkpt>
      <trkpt lat="42.96565" lon="-0.22018">
        <ele>1108.04</ele>
        <time>2021-06-06T00:24:05Z</time>
      </trkpt>
      <trkpt lat="42.96585" lon="-0.21984">
        <ele>1109.1</ele>
        <time>2021-06-06T00:24:06Z</time>
      </trkpt>
      <trkpt lat="42.9659" lon="-0.21966">
        <ele>1108.92</ele>
        <time>2021-06-06T00:24:08Z</time>
      </trkpt>
      <trkpt lat="42.96592" lon="-0.21953">
        <ele>1108.55</ele>
        <time>2021-06-06T00:24:10Z</time>
      </trkpt>
      <trkpt lat="42.96592" lon="-0.21906">
        <ele>1103.72</ele>
        <time>2021-06-06T00:24:12Z</time>
      </trkpt>
      <trkpt lat="42.96607" lon="-0.21825">
        <ele>1098.59</ele>
        <time>2021-06-06T00:24:13Z</time>
      </trkpt>
      <trkpt lat="42.9661" lon="-0.21777">
        <ele>1089.43</ele>
        <time>2021-06-06T00:24:15Z</time>
      </trkpt>
      <trkpt lat="42.96612" lon="-0.21765">
        <ele>1088.17</ele>
        <time>2021-06-06T00:24:17Z</time>
      </trkpt>
      <trkpt lat="42.96629" lon="-0.2172">
        <ele>1086.58</ele>
        <time>2021-06-06T00:24:19Z</time>
      </trkpt>
      <trkpt lat="42.96636" lon="-0.21674">
        <ele>1080.64</ele>
        <time>2021-06-06T00:24:20Z</time>
      </trkpt>
      <trkpt lat="42.9664" lon="-0.21624">
        <ele>1075.11</ele>
        <time>2021-06-06T00:24:22Z</time>
      </trkpt>
      <trkpt lat="42.96638" lon="-0.2159">
        <ele>1070.6</ele>
        <time>2021-06-06T00:24:24Z</time>
      </trkpt>
      <trkpt lat="42.96649" lon="-0.21547">
        <ele>1067.38</ele>
        <time>2021-06-06T00:24:26Z</time>
      </trkpt>
      <trkpt lat="42.96646" lon="-0.21532">
        <ele>1064.9</ele>
        <time>2021-06-06T00:24:27Z</time>
      </trkpt>
      <trkpt lat="42.96643" lon="-0.21525">
        <ele>1063.28</ele>
        <time>2021-06-06T00:24:29Z</time>
      </trkpt>
      <trkpt lat="42.96636" lon="-0.21521">
        <ele>1061.39</ele>
        <time>2021-06-06T00:24:31Z</time>
      </trkpt>
      <trkpt lat="42.96628" lon="-0.2152">
        <ele>1059.87</ele>
        <time>2021-06-06T00:24:33Z</time>
      </trkpt>
      <trkpt lat="42.96621" lon="-0.21524">
        <ele>1059.11</ele>
        <time>2021-06-06T00:24:34Z</time>
      </trkpt>
      <trkpt lat="42.96615" lon="-0.21532">
        <ele>1059.6</ele>
        <time>2021-06-06T00:24:36Z</time>
      </trkpt>
      <trkpt lat="42.96607" lon="-0.21556">
        <ele>1063.24</ele>
        <time>2021-06-06T00:24:38Z</time>
      </trkpt>
      <trkpt lat="42.96597" lon="-0.21592">
        <ele>1063.99</ele>
        <time>2021-06-06T00:24:40Z</time>
      </trkpt>
      <trkpt lat="42.96589" lon="-0.21607">
        <ele>1063.78</ele>
        <time>2021-06-06T00:24:41Z</time>
      </trkpt>
      <trkpt lat="42.96583" lon="-0.21614">
        <ele>1063.48</ele>
        <time>2021-06-06T00:24:43Z</time>
      </trkpt>
      <trkpt lat="42.96576" lon="-0.2162">
        <ele>1062.63</ele>
        <time>2021-06-06T00:24:45Z</time>
      </trkpt>
      <trkpt lat="42.96556" lon="-0.21627">
        <ele>1058.71</ele>
        <time>2021-06-06T00:24:47Z</time>
      </trkpt>
      <trkpt lat="42.96541" lon="-0.21636">
        <ele>1056.64</ele>
        <time>2021-06-06T00:24:49Z</time>
      </trkpt>
      <trkpt lat="42.96527" lon="-0.21652">
        <ele>1055.26</ele>
        <time>2021-06-06T00:24:50Z</time>
      </trkpt>
      <trkpt lat="42.96487" lon="-0.21705">
        <ele>1052.71</ele>
        <time>2021-06-06T00:24:52Z</time>
      </trkpt>
      <trkpt lat="42.96386" lon="-0.21809">
        <ele>1036.44</ele>
        <time>2021-06-06T00:24:54Z</time>
      </trkpt>
      <trkpt lat="42.96354" lon="-0.21849">
        <ele>1033.88</ele>
        <time>2021-06-06T00:24:56Z</time>
      </trkpt>
      <trkpt lat="42.96334" lon="-0.21871">
        <ele>1036.05</ele>
        <time>2021-06-06T00:24:57Z</time>
      </trkpt>
      <trkpt lat="42.96325" lon="-0.21877">
        <ele>1035.32</ele>
        <time>2021-06-06T00:24:59Z</time>
      </trkpt>
      <trkpt lat="42.96316" lon="-0.21879">
        <ele>1034.02</ele>
        <time>2021-06-06T00:25:01Z</time>
      </trkpt>
      <trkpt lat="42.96305" lon="-0.21876">
        <ele>1032</ele>
        <time>2021-06-06T00:25:03Z</time>
      </trkpt>
      <trkpt lat="42.96295" lon="-0.21866">
        <ele>1029.37</ele>
        <time>2021-06-06T00:25:04Z</time>
      </trkpt>
      <trkpt lat="42.96291" lon="-0.21856">
        <ele>1027.63</ele>
        <time>2021-06-06T00:25:06Z</time>
      </trkpt>
      <trkpt lat="42.96289" lon="-0.21842">
        <ele>1025.86</ele>
        <time>2021-06-06T00:25:08Z</time>
      </trkpt>
      <trkpt lat="42.9629" lon="-0.21818">
        <ele>1022.73</ele>
        <time>2021-06-06T00:25:10Z</time>
      </trkpt>
      <trkpt lat="42.96286" lon="-0.21804">
        <ele>1020.69</ele>
        <time>2021-06-06T00:25:11Z</time>
      </trkpt>
      <trkpt lat="42.96281" lon="-0.21798">
        <ele>1019.59</ele>
        <time>2021-06-06T00:25:13Z</time>
      </trkpt>
      <trkpt lat="42.96271" lon="-0.21791">
        <ele>1018.06</ele>
        <time>2021-06-06T00:25:15Z</time>
      </trkpt>
      <trkpt lat="42.9626" lon="-0.21788">
        <ele>1016.93</ele>
        <time>2021-06-06T00:25:17Z</time>
      </trkpt>
      <trkpt lat="42.96253" lon="-0.21788">
        <ele>1016.61</ele>
        <time>2021-06-06T00:25:18Z</time>
      </trkpt>
      <trkpt lat="42.96246" lon="-0.21792">
        <ele>1016.26</ele>
        <time>2021-06-06T00:25:20Z</time>
      </trkpt>
      <trkpt lat="42.96235" lon="-0.21808">
        <ele>1014.92</ele>
        <time>2021-06-06T00:25:22Z</time>
      </trkpt>
      <trkpt lat="42.96221" lon="-0.21846">
        <ele>1013.56</ele>
        <time>2021-06-06T00:25:24Z</time>
      </trkpt>
      <trkpt lat="42.96221" lon="-0.21859">
        <ele>1014.21</ele>
        <time>2021-06-06T00:25:25Z</time>
      </trkpt>
      <trkpt lat="42.96232" lon="-0.21903">
        <ele>1018.53</ele>
        <time>2021-06-06T00:25:27Z</time>
      </trkpt>
      <trkpt lat="42.96232" lon="-0.21916">
        <ele>1018.43</ele>
        <time>2021-06-06T00:25:29Z</time>
      </trkpt>
      <trkpt lat="42.96229" lon="-0.21925">
        <ele>1017.8</ele>
        <time>2021-06-06T00:25:31Z</time>
      </trkpt>
      <trkpt lat="42.96222" lon="-0.21933">
        <ele>1016.52</ele>
        <time>2021-06-06T00:25:33Z</time>
      </trkpt>
      <trkpt lat="42.96211" lon="-0.21937">
        <ele>1012.4</ele>
        <time>2021-06-06T00:25:34Z</time>
      </trkpt>
      <trkpt lat="42.96198" lon="-0.21936">
        <ele>1007.36</ele>
        <time>2021-06-06T00:25:36Z</time>
      </trkpt>
      <trkpt lat="42.96151" lon="-0.21923">
        <ele>994.58</ele>
        <time>2021-06-06T00:25:38Z</time>
      </trkpt>
      <trkpt lat="42.96144" lon="-0.21923">
        <ele>992.92</ele>
        <time>2021-06-06T00:25:40Z</time>
      </trkpt>
      <trkpt lat="42.9613" lon="-0.21931">
        <ele>990.2</ele>
        <time>2021-06-06T00:25:41Z</time>
      </trkpt>
      <trkpt lat="42.96122" lon="-0.21942">
        <ele>987.9</ele>
        <time>2021-06-06T00:25:43Z</time>
      </trkpt>
      <trkpt lat="42.96117" lon="-0.21959">
        <ele>986.76</ele>
        <time>2021-06-06T00:25:45Z</time>
      </trkpt>
      <trkpt lat="42.96119" lon="-0.21985">
        <ele>989.17</ele>
        <time>2021-06-06T00:25:47Z</time>
      </trkpt>
      <trkpt lat="42.96126" lon="-0.22019">
        <ele>996.77</ele>
        <time>2021-06-06T00:25:48Z</time>
      </trkpt>
      <trkpt lat="42.96124" lon="-0.22035">
        <ele>997.92</ele>
        <time>2021-06-06T00:25:50Z</time>
      </trkpt>
      <trkpt lat="42.96119" lon="-0.22047">
        <ele>996.37</ele>
        <time>2021-06-06T00:25:52Z</time>
      </trkpt>
      <trkpt lat="42.96112" lon="-0.22052">
        <ele>994.15</ele>
        <time>2021-06-06T00:25:54Z</time>
      </trkpt>
      <trkpt lat="42.96097" lon="-0.2205">
        <ele>988.23</ele>
        <time>2021-06-06T00:25:55Z</time>
      </trkpt>
      <trkpt lat="42.96093" lon="-0.22048">
        <ele>986.46</ele>
        <time>2021-06-06T00:25:57Z</time>
      </trkpt>
      <trkpt lat="42.9609" lon="-0.22042">
        <ele>985.03</ele>
        <time>2021-06-06T00:25:59Z</time>
      </trkpt>
      <trkpt lat="42.96087" lon="-0.22028">
        <ele>983.3</ele>
        <time>2021-06-06T00:26:01Z</time>
      </trkpt>
      <trkpt lat="42.96082" lon="-0.21987">
        <ele>978.86</ele>
        <time>2021-06-06T00:26:02Z</time>
      </trkpt>
      <trkpt lat="42.96067" lon="-0.21927">
        <ele>976.69</ele>
        <time>2021-06-06T00:26:04Z</time>
      </trkpt>
      <trkpt lat="42.96065" lon="-0.21912">
        <ele>976.97</ele>
        <time>2021-06-06T00:26:06Z</time>
      </trkpt>
      <trkpt lat="42.96067" lon="-0.21895">
        <ele>978.53</ele>
        <time>2021-06-06T00:26:08Z</time>
      </trkpt>
      <trkpt lat="42.96081" lon="-0.21852">
        <ele>980.13</ele>
        <time>2021-06-06T00:26:09Z</time>
      </trkpt>
      <trkpt lat="42.96085" lon="-0.21833">
        <ele>980.2</ele>
        <time>2021-06-06T00:26:11Z</time>
      </trkpt>
      <trkpt lat="42.96079" lon="-0.21772">
        <ele>973.18</ele>
        <time>2021-06-06T00:26:13Z</time>
      </trkpt>
      <trkpt lat="42.96082" lon="-0.21751">
        <ele>972.6</ele>
        <time>2021-06-06T00:26:15Z</time>
      </trkpt>
      <trkpt lat="42.96091" lon="-0.21718">
        <ele>971.22</ele>
        <time>2021-06-06T00:26:17Z</time>
      </trkpt>
      <trkpt lat="42.96091" lon="-0.21696">
        <ele>969.3</ele>
        <time>2021-06-06T00:26:18Z</time>
      </trkpt>
      <trkpt lat="42.96088" lon="-0.21666">
        <ele>965.86</ele>
        <time>2021-06-06T00:26:20Z</time>
      </trkpt>
      <trkpt lat="42.96089" lon="-0.21639">
        <ele>962.35</ele>
        <time>2021-06-06T00:26:22Z</time>
      </trkpt>
      <trkpt lat="42.96099" lon="-0.21517">
        <ele>958.84</ele>
        <time>2021-06-06T00:26:24Z</time>
      </trkpt>
      <trkpt lat="42.961" lon="-0.21491">
        <ele>957.72</ele>
        <time>2021-06-06T00:26:25Z</time>
      </trkpt>
      <trkpt lat="42.96096" lon="-0.21462">
        <ele>955.45</ele>
        <time>2021-06-06T00:26:27Z</time>
      </trkpt>
      <trkpt lat="42.96088" lon="-0.21441">
        <ele>951.73</ele>
        <time>2021-06-06T00:26:29Z</time>
      </trkpt>
      <trkpt lat="42.96065" lon="-0.21412">
        <ele>946.79</ele>
        <time>2021-06-06T00:26:31Z</time>
      </trkpt>
      <trkpt lat="42.96057" lon="-0.21396">
        <ele>945.35</ele>
        <time>2021-06-06T00:26:32Z</time>
      </trkpt>
      <trkpt lat="42.96052" lon="-0.21374">
        <ele>944.6</ele>
        <time>2021-06-06T00:26:34Z</time>
      </trkpt>
      <trkpt lat="42.96052" lon="-0.2136">
        <ele>944.34</ele>
        <time>2021-06-06T00:26:36Z</time>
      </trkpt>
      <trkpt lat="42.9606" lon="-0.21324">
        <ele>941.88</ele>
        <time>2021-06-06T00:26:38Z</time>
      </trkpt>
      <trkpt lat="42.96062" lon="-0.21305">
        <ele>941.18</ele>
        <time>2021-06-06T00:26:39Z</time>
      </trkpt>
      <trkpt lat="42.96063" lon="-0.21149">
        <ele>929.73</ele>
        <time>2021-06-06T00:26:41Z</time>
      </trkpt>
      <trkpt lat="42.9606" lon="-0.21135">
        <ele>928.2</ele>
        <time>2021-06-06T00:26:43Z</time>
      </trkpt>
      <trkpt lat="42.96055" lon="-0.21125">
        <ele>926.32</ele>
        <time>2021-06-06T00:26:45Z</time>
      </trkpt>
      <trkpt lat="42.96045" lon="-0.2112">
        <ele>923.78</ele>
        <time>2021-06-06T00:26:46Z</time>
      </trkpt>
      <trkpt lat="42.96035" lon="-0.21121">
        <ele>921.58</ele>
        <time>2021-06-06T00:26:48Z</time>
      </trkpt>
      <trkpt lat="42.96026" lon="-0.21129">
        <ele>920.54</ele>
        <time>2021-06-06T00:26:50Z</time>
      </trkpt>
      <trkpt lat="42.96019" lon="-0.21144">
        <ele>920.47</ele>
        <time>2021-06-06T00:26:52Z</time>
      </trkpt>
      <trkpt lat="42.96009" lon="-0.21174">
        <ele>921.55</ele>
        <time>2021-06-06T00:26:53Z</time>
      </trkpt>
      <trkpt lat="42.95996" lon="-0.2119">
        <ele>921.82</ele>
        <time>2021-06-06T00:26:55Z</time>
      </trkpt>
      <trkpt lat="42.95932" lon="-0.21263">
        <ele>914.16</ele>
        <time>2021-06-06T00:26:57Z</time>
      </trkpt>
      <trkpt lat="42.95921" lon="-0.21281">
        <ele>913.25</ele>
        <time>2021-06-06T00:26:59Z</time>
      </trkpt>
      <trkpt lat="42.95898" lon="-0.21323">
        <ele>912.74</ele>
        <time>2021-06-06T00:27:01Z</time>
      </trkpt>
      <trkpt lat="42.95886" lon="-0.21336">
        <ele>911.12</ele>
        <time>2021-06-06T00:27:02Z</time>
      </trkpt>
      <trkpt lat="42.95869" lon="-0.21351">
        <ele>905.6</ele>
        <time>2021-06-06T00:27:04Z</time>
      </trkpt>
      <trkpt lat="42.95861" lon="-0.21359">
        <ele>903.88</ele>
        <time>2021-06-06T00:27:06Z</time>
      </trkpt>
      <trkpt lat="42.95855" lon="-0.21371">
        <ele>902.58</ele>
        <time>2021-06-06T00:27:08Z</time>
      </trkpt>
      <trkpt lat="42.95852" lon="-0.21387">
        <ele>902.17</ele>
        <time>2021-06-06T00:27:09Z</time>
      </trkpt>
      <trkpt lat="42.95848" lon="-0.21424">
        <ele>904.91</ele>
        <time>2021-06-06T00:27:11Z</time>
      </trkpt>
      <trkpt lat="42.95845" lon="-0.21436">
        <ele>905.61</ele>
        <time>2021-06-06T00:27:13Z</time>
      </trkpt>
      <trkpt lat="42.95841" lon="-0.21446">
        <ele>905.39</ele>
        <time>2021-06-06T00:27:15Z</time>
      </trkpt>
      <trkpt lat="42.95812" lon="-0.21503">
        <ele>899.29</ele>
        <time>2021-06-06T00:27:16Z</time>
      </trkpt>
      <trkpt lat="42.95798" lon="-0.21518">
        <ele>896.53</ele>
        <time>2021-06-06T00:27:18Z</time>
      </trkpt>
      <trkpt lat="42.95775" lon="-0.2153">
        <ele>892.55</ele>
        <time>2021-06-06T00:27:20Z</time>
      </trkpt>
      <trkpt lat="42.95759" lon="-0.21541">
        <ele>890.3</ele>
        <time>2021-06-06T00:27:22Z</time>
      </trkpt>
      <trkpt lat="42.95739" lon="-0.2156">
        <ele>887.11</ele>
        <time>2021-06-06T00:27:23Z</time>
      </trkpt>
      <trkpt lat="42.9573" lon="-0.21563">
        <ele>885.63</ele>
        <time>2021-06-06T00:27:25Z</time>
      </trkpt>
      <trkpt lat="42.95714" lon="-0.21563">
        <ele>883.6</ele>
        <time>2021-06-06T00:27:27Z</time>
      </trkpt>
      <trkpt lat="42.95703" lon="-0.21559">
        <ele>882.67</ele>
        <time>2021-06-06T00:27:29Z</time>
      </trkpt>
      <trkpt lat="42.9568" lon="-0.21547">
        <ele>882</ele>
        <time>2021-06-06T00:27:30Z</time>
      </trkpt>
      <trkpt lat="42.95656" lon="-0.21527">
        <ele>882.38</ele>
        <time>2021-06-06T00:27:32Z</time>
      </trkpt>
      <trkpt lat="42.95647" lon="-0.21514">
        <ele>882.72</ele>
        <time>2021-06-06T00:27:34Z</time>
      </trkpt>
      <trkpt lat="42.95637" lon="-0.21491">
        <ele>883.05</ele>
        <time>2021-06-06T00:27:36Z</time>
      </trkpt>
      <trkpt lat="42.95618" lon="-0.21437">
        <ele>881.55</ele>
        <time>2021-06-06T00:27:37Z</time>
      </trkpt>
      <trkpt lat="42.95616" lon="-0.21424">
        <ele>880.66</ele>
        <time>2021-06-06T00:27:39Z</time>
      </trkpt>
      <trkpt lat="42.95617" lon="-0.21379">
        <ele>878.38</ele>
        <time>2021-06-06T00:27:41Z</time>
      </trkpt>
      <trkpt lat="42.95619" lon="-0.21368">
        <ele>877.7</ele>
        <time>2021-06-06T00:27:43Z</time>
      </trkpt>
      <trkpt lat="42.95649" lon="-0.2132">
        <ele>877</ele>
        <time>2021-06-06T00:27:45Z</time>
      </trkpt>
      <trkpt lat="42.95663" lon="-0.21278">
        <ele>876.15</ele>
        <time>2021-06-06T00:27:46Z</time>
      </trkpt>
      <trkpt lat="42.95666" lon="-0.21229">
        <ele>873.44</ele>
        <time>2021-06-06T00:27:48Z</time>
      </trkpt>
      <trkpt lat="42.95708" lon="-0.21108">
        <ele>870.57</ele>
        <time>2021-06-06T00:27:50Z</time>
      </trkpt>
      <trkpt lat="42.95722" lon="-0.21077">
        <ele>871.24</ele>
        <time>2021-06-06T00:27:52Z</time>
      </trkpt>
      <trkpt lat="42.95767" lon="-0.21006">
        <ele>872.55</ele>
        <time>2021-06-06T00:27:53Z</time>
      </trkpt>
      <trkpt lat="42.9584" lon="-0.20886">
        <ele>871.69</ele>
        <time>2021-06-06T00:27:55Z</time>
      </trkpt>
      <trkpt lat="42.95915" lon="-0.20745">
        <ele>866.72</ele>
        <time>2021-06-06T00:27:57Z</time>
      </trkpt>
      <trkpt lat="42.95976" lon="-0.20655">
        <ele>866.2</ele>
        <time>2021-06-06T00:27:59Z</time>
      </trkpt>
      <trkpt lat="42.96008" lon="-0.20596">
        <ele>863.31</ele>
        <time>2021-06-06T00:28:00Z</time>
      </trkpt>
      <trkpt lat="42.96051" lon="-0.20477">
        <ele>862.13</ele>
        <time>2021-06-06T00:28:02Z</time>
      </trkpt>
      <trkpt lat="42.96099" lon="-0.20347">
        <ele>861.39</ele>
        <time>2021-06-06T00:28:04Z</time>
      </trkpt>
      <trkpt lat="42.96109" lon="-0.20325">
        <ele>861.88</ele>
        <time>2021-06-06T00:28:06Z</time>
      </trkpt>
      <trkpt lat="42.96129" lon="-0.20296">
        <ele>863.71</ele>
        <time>2021-06-06T00:28:07Z</time>
      </trkpt>
      <trkpt lat="42.96153" lon="-0.20272">
        <ele>864.89</ele>
        <time>2021-06-06T00:28:09Z</time>
      </trkpt>
      <trkpt lat="42.96171" lon="-0.2026">
        <ele>865.51</ele>
        <time>2021-06-06T00:28:11Z</time>
      </trkpt>
      <trkpt lat="42.96231" lon="-0.20226">
        <ele>864.53</ele>
        <time>2021-06-06T00:28:13Z</time>
      </trkpt>
      <trkpt lat="42.9631" lon="-0.20181">
        <ele>861.52</ele>
        <time>2021-06-06T00:28:14Z</time>
      </trkpt>
      <trkpt lat="42.96346" lon="-0.20165">
        <ele>860.46</ele>
        <time>2021-06-06T00:28:16Z</time>
      </trkpt>
      <trkpt lat="42.96359" lon="-0.20162">
        <ele>859.89</ele>
        <time>2021-06-06T00:28:18Z</time>
      </trkpt>
      <trkpt lat="42.96386" lon="-0.2016">
        <ele>860.63</ele>
        <time>2021-06-06T00:28:20Z</time>
      </trkpt>
      <trkpt lat="42.96408" lon="-0.20163">
        <ele>861.49</ele>
        <time>2021-06-06T00:28:21Z</time>
      </trkpt>
      <trkpt lat="42.96422" lon="-0.20168">
        <ele>861.88</ele>
        <time>2021-06-06T00:28:23Z</time>
      </trkpt>
      <trkpt lat="42.96443" lon="-0.20187">
        <ele>861.78</ele>
        <time>2021-06-06T00:28:25Z</time>
      </trkpt>
      <trkpt lat="42.96451" lon="-0.20189">
        <ele>861.38</ele>
        <time>2021-06-06T00:28:27Z</time>
      </trkpt>
      <trkpt lat="42.96461" lon="-0.20188">
        <ele>860.7</ele>
        <time>2021-06-06T00:28:29Z</time>
      </trkpt>
      <trkpt lat="42.96499" lon="-0.20169">
        <ele>859.91</ele>
        <time>2021-06-06T00:28:30Z</time>
      </trkpt>
      <trkpt lat="42.9651" lon="-0.20168">
        <ele>860.65</ele>
        <time>2021-06-06T00:28:32Z</time>
      </trkpt>
      <trkpt lat="42.96547" lon="-0.2019">
        <ele>862.57</ele>
        <time>2021-06-06T00:28:34Z</time>
      </trkpt>
      <trkpt lat="42.96581" lon="-0.2022">
        <ele>865.76</ele>
        <time>2021-06-06T00:28:36Z</time>
      </trkpt>
      <trkpt lat="42.96602" lon="-0.20224">
        <ele>864.72</ele>
        <time>2021-06-06T00:28:37Z</time>
      </trkpt>
      <trkpt lat="42.96636" lon="-0.20247">
        <ele>862.11</ele>
        <time>2021-06-06T00:28:39Z</time>
      </trkpt>
      <trkpt lat="42.96649" lon="-0.20252">
        <ele>862.61</ele>
        <time>2021-06-06T00:28:41Z</time>
      </trkpt>
      <trkpt lat="42.96658" lon="-0.20253">
        <ele>862.97</ele>
        <time>2021-06-06T00:28:43Z</time>
      </trkpt>
      <trkpt lat="42.96712" lon="-0.20245">
        <ele>863.51</ele>
        <time>2021-06-06T00:28:44Z</time>
      </trkpt>
      <trkpt lat="42.96735" lon="-0.20237">
        <ele>862.87</ele>
        <time>2021-06-06T00:28:46Z</time>
      </trkpt>
      <trkpt lat="42.96779" lon="-0.20215">
        <ele>861.66</ele>
        <time>2021-06-06T00:28:48Z</time>
      </trkpt>
      <trkpt lat="42.96817" lon="-0.20192">
        <ele>864.28</ele>
        <time>2021-06-06T00:28:50Z</time>
      </trkpt>
      <trkpt lat="42.96839" lon="-0.20169">
        <ele>863.56</ele>
        <time>2021-06-06T00:28:51Z</time>
      </trkpt>
      <trkpt lat="42.96934" lon="-0.20043">
        <ele>863.32</ele>
        <time>2021-06-06T00:28:53Z</time>
      </trkpt>
      <trkpt lat="42.96954" lon="-0.20004">
        <ele>858.85</ele>
        <time>2021-06-06T00:28:55Z</time>
      </trkpt>
      <trkpt lat="42.97017" lon="-0.19837">
        <ele>853.06</ele>
        <time>2021-06-06T00:28:57Z</time>
      </trkpt>
      <trkpt lat="42.97028" lon="-0.19817">
        <ele>854.49</ele>
        <time>2021-06-06T00:28:58Z</time>
      </trkpt>
      <trkpt lat="42.97043" lon="-0.19796">
        <ele>855.88</ele>
        <time>2021-06-06T00:29:00Z</time>
      </trkpt>
      <trkpt lat="42.97076" lon="-0.19756">
        <ele>855.77</ele>
        <time>2021-06-06T00:29:02Z</time>
      </trkpt>
      <trkpt lat="42.97136" lon="-0.19673">
        <ele>860.51</ele>
        <time>2021-06-06T00:29:04Z</time>
      </trkpt>
      <trkpt lat="42.97248" lon="-0.19507">
        <ele>864.6</ele>
        <time>2021-06-06T00:29:05Z</time>
      </trkpt>
      <trkpt lat="42.9727" lon="-0.19471">
        <ele>867.91</ele>
        <time>2021-06-06T00:29:07Z</time>
      </trkpt>
      <trkpt lat="42.97287" lon="-0.19433">
        <ele>868.78</ele>
        <time>2021-06-06T00:29:09Z</time>
      </trkpt>
      <trkpt lat="42.97297" lon="-0.19375">
        <ele>868.88</ele>
        <time>2021-06-06T00:29:11Z</time>
      </trkpt>
      <trkpt lat="42.97313" lon="-0.19346">
        <ele>870.82</ele>
        <time>2021-06-06T00:29:13Z</time>
      </trkpt>
      <trkpt lat="42.97326" lon="-0.19326">
        <ele>873.31</ele>
        <time>2021-06-06T00:29:14Z</time>
      </trkpt>
      <trkpt lat="42.97332" lon="-0.19311">
        <ele>875.29</ele>
        <time>2021-06-06T00:29:16Z</time>
      </trkpt>
      <trkpt lat="42.97335" lon="-0.19296">
        <ele>875.45</ele>
        <time>2021-06-06T00:29:18Z</time>
      </trkpt>
      <trkpt lat="42.97338" lon="-0.19286">
        <ele>875.02</ele>
        <time>2021-06-06T00:29:20Z</time>
      </trkpt>
      <trkpt lat="42.97351" lon="-0.19269">
        <ele>874.35</ele>
        <time>2021-06-06T00:29:21Z</time>
      </trkpt>
      <trkpt lat="42.97378" lon="-0.19243">
        <ele>872.37</ele>
        <time>2021-06-06T00:29:23Z</time>
      </trkpt>
      <trkpt lat="42.97399" lon="-0.19215">
        <ele>869.75</ele>
        <time>2021-06-06T00:29:25Z</time>
      </trkpt>
      <trkpt lat="42.97443" lon="-0.19114">
        <ele>864.78</ele>
        <time>2021-06-06T00:29:27Z</time>
      </trkpt>
      <trkpt lat="42.97452" lon="-0.1909">
        <ele>866.65</ele>
        <time>2021-06-06T00:29:28Z</time>
      </trkpt>
      <trkpt lat="42.97464" lon="-0.19013">
        <ele>859.67</ele>
        <time>2021-06-06T00:29:30Z</time>
      </trkpt>
      <trkpt lat="42.97481" lon="-0.18937">
        <ele>854.17</ele>
        <time>2021-06-06T00:29:32Z</time>
      </trkpt>
      <trkpt lat="42.97481" lon="-0.18922">
        <ele>853.04</ele>
        <time>2021-06-06T00:29:34Z</time>
      </trkpt>
      <trkpt lat="42.97479" lon="-0.18894">
        <ele>852.45</ele>
        <time>2021-06-06T00:29:35Z</time>
      </trkpt>
      <trkpt lat="42.97475" lon="-0.18876">
        <ele>852.65</ele>
        <time>2021-06-06T00:29:37Z</time>
      </trkpt>
      <trkpt lat="42.97458" lon="-0.18818">
        <ele>853.27</ele>
        <time>2021-06-06T00:29:39Z</time>
      </trkpt>
      <trkpt lat="42.97454" lon="-0.18794">
        <ele>853.04</ele>
        <time>2021-06-06T00:29:41Z</time>
      </trkpt>
      <trkpt lat="42.97454" lon="-0.18778">
        <ele>852.68</ele>
        <time>2021-06-06T00:29:42Z</time>
      </trkpt>
      <trkpt lat="42.97459" lon="-0.18754">
        <ele>851.62</ele>
        <time>2021-06-06T00:29:44Z</time>
      </trkpt>
      <trkpt lat="42.97462" lon="-0.18745">
        <ele>851.09</ele>
        <time>2021-06-06T00:29:46Z</time>
      </trkpt>
      <trkpt lat="42.97484" lon="-0.18715">
        <ele>849.96</ele>
        <time>2021-06-06T00:29:48Z</time>
      </trkpt>
      <trkpt lat="42.97491" lon="-0.18699">
        <ele>850.33</ele>
        <time>2021-06-06T00:29:49Z</time>
      </trkpt>
      <trkpt lat="42.97503" lon="-0.18628">
        <ele>848.57</ele>
        <time>2021-06-06T00:29:51Z</time>
      </trkpt>
      <trkpt lat="42.97507" lon="-0.18615">
        <ele>847.13</ele>
        <time>2021-06-06T00:29:53Z</time>
      </trkpt>
      <trkpt lat="42.97514" lon="-0.18597">
        <ele>845.47</ele>
        <time>2021-06-06T00:29:55Z</time>
      </trkpt>
      <trkpt lat="42.97525" lon="-0.18578">
        <ele>843.89</ele>
        <time>2021-06-06T00:29:57Z</time>
      </trkpt>
      <trkpt lat="42.97558" lon="-0.18533">
        <ele>842.21</ele>
        <time>2021-06-06T00:29:58Z</time>
      </trkpt>
      <trkpt lat="42.97569" lon="-0.18514">
        <ele>842.96</ele>
        <time>2021-06-06T00:30:00Z</time>
      </trkpt>
      <trkpt lat="42.97578" lon="-0.18486">
        <ele>843.56</ele>
        <time>2021-06-06T00:30:02Z</time>
      </trkpt>
      <trkpt lat="42.97597" lon="-0.18416">
        <ele>844.52</ele>
        <time>2021-06-06T00:30:04Z</time>
      </trkpt>
      <trkpt lat="42.97628" lon="-0.18331">
        <ele>845.22</ele>
        <time>2021-06-06T00:30:05Z</time>
      </trkpt>
      <trkpt lat="42.97646" lon="-0.18266">
        <ele>843.82</ele>
        <time>2021-06-06T00:30:07Z</time>
      </trkpt>
      <trkpt lat="42.97691" lon="-0.18164">
        <ele>841.71</ele>
        <time>2021-06-06T00:30:09Z</time>
      </trkpt>
      <trkpt lat="42.9774" lon="-0.18072">
        <ele>840.44</ele>
        <time>2021-06-06T00:30:11Z</time>
      </trkpt>
      <trkpt lat="42.97745" lon="-0.1805">
        <ele>840.67</ele>
        <time>2021-06-06T00:30:12Z</time>
      </trkpt>
      <trkpt lat="42.97753" lon="-0.17964">
        <ele>838.37</ele>
        <time>2021-06-06T00:30:14Z</time>
      </trkpt>
      <trkpt lat="42.97765" lon="-0.17886">
        <ele>834.01</ele>
        <time>2021-06-06T00:30:16Z</time>
      </trkpt>
      <trkpt lat="42.97782" lon="-0.17791">
        <ele>832.96</ele>
        <time>2021-06-06T00:30:18Z</time>
      </trkpt>
      <trkpt lat="42.97798" lon="-0.17722">
        <ele>830.49</ele>
        <time>2021-06-06T00:30:19Z</time>
      </trkpt>
      <trkpt lat="42.97812" lon="-0.1769">
        <ele>829.28</ele>
        <time>2021-06-06T00:30:21Z</time>
      </trkpt>
      <trkpt lat="42.97823" lon="-0.17658">
        <ele>829.22</ele>
        <time>2021-06-06T00:30:23Z</time>
      </trkpt>
      <trkpt lat="42.97827" lon="-0.17623">
        <ele>829.3</ele>
        <time>2021-06-06T00:30:25Z</time>
      </trkpt>
      <trkpt lat="42.97828" lon="-0.17586">
        <ele>829.71</ele>
        <time>2021-06-06T00:30:26Z</time>
      </trkpt>
      <trkpt lat="42.97827" lon="-0.17544">
        <ele>829.31</ele>
        <time>2021-06-06T00:30:28Z</time>
      </trkpt>
      <trkpt lat="42.97823" lon="-0.17503">
        <ele>826.52</ele>
        <time>2021-06-06T00:30:30Z</time>
      </trkpt>
      <trkpt lat="42.97822" lon="-0.17416">
        <ele>827.36</ele>
        <time>2021-06-06T00:30:32Z</time>
      </trkpt>
      <trkpt lat="42.97823" lon="-0.17336">
        <ele>830.99</ele>
        <time>2021-06-06T00:30:33Z</time>
      </trkpt>
      <trkpt lat="42.97826" lon="-0.17308">
        <ele>834.43</ele>
        <time>2021-06-06T00:30:35Z</time>
      </trkpt>
      <trkpt lat="42.97831" lon="-0.17284">
        <ele>838.59</ele>
        <time>2021-06-06T00:30:37Z</time>
      </trkpt>
      <trkpt lat="42.97839" lon="-0.17259">
        <ele>840.38</ele>
        <time>2021-06-06T00:30:39Z</time>
      </trkpt>
      <trkpt lat="42.97896" lon="-0.1712">
        <ele>841.3</ele>
        <time>2021-06-06T00:30:41Z</time>
      </trkpt>
      <trkpt lat="42.97902" lon="-0.17088">
        <ele>840.26</ele>
        <time>2021-06-06T00:30:42Z</time>
      </trkpt>
      <trkpt lat="42.97902" lon="-0.17055">
        <ele>838.79</ele>
        <time>2021-06-06T00:30:44Z</time>
      </trkpt>
      <trkpt lat="42.97905" lon="-0.17015">
        <ele>840.98</ele>
        <time>2021-06-06T00:30:46Z</time>
      </trkpt>
      <trkpt lat="42.97912" lon="-0.16997">
        <ele>841.87</ele>
        <time>2021-06-06T00:30:48Z</time>
      </trkpt>
      <trkpt lat="42.9794" lon="-0.16941">
        <ele>844.38</ele>
        <time>2021-06-06T00:30:49Z</time>
      </trkpt>
      <trkpt lat="42.97975" lon="-0.16808">
        <ele>837.9</ele>
        <time>2021-06-06T00:30:51Z</time>
      </trkpt>
      <trkpt lat="42.9798" lon="-0.16777">
        <ele>837.35</ele>
        <time>2021-06-06T00:30:53Z</time>
      </trkpt>
      <trkpt lat="42.97974" lon="-0.16624">
        <ele>836.84</ele>
        <time>2021-06-06T00:30:55Z</time>
      </trkpt>
      <trkpt lat="42.97964" lon="-0.16529">
        <ele>829.68</ele>
        <time>2021-06-06T00:30:56Z</time>
      </trkpt>
      <trkpt lat="42.97964" lon="-0.16494">
        <ele>825.76</ele>
        <time>2021-06-06T00:30:58Z</time>
      </trkpt>
      <trkpt lat="42.97976" lon="-0.16359">
        <ele>825.77</ele>
        <time>2021-06-06T00:31:00Z</time>
      </trkpt>
      <trkpt lat="42.97959" lon="-0.1625">
        <ele>820.65</ele>
        <time>2021-06-06T00:31:02Z</time>
      </trkpt>
      <trkpt lat="42.97959" lon="-0.16224">
        <ele>818.16</ele>
        <time>2021-06-06T00:31:03Z</time>
      </trkpt>
      <trkpt lat="42.97975" lon="-0.15993">
        <ele>809.18</ele>
        <time>2021-06-06T00:31:05Z</time>
      </trkpt>
      <trkpt lat="42.97979" lon="-0.15956">
        <ele>808.76</ele>
        <time>2021-06-06T00:31:07Z</time>
      </trkpt>
      <trkpt lat="42.97997" lon="-0.15891">
        <ele>805.89</ele>
        <time>2021-06-06T00:31:09Z</time>
      </trkpt>
      <trkpt lat="42.98022" lon="-0.15766">
        <ele>794.16</ele>
        <time>2021-06-06T00:31:10Z</time>
      </trkpt>
      <trkpt lat="42.98092" lon="-0.15446">
        <ele>779.1</ele>
        <time>2021-06-06T00:31:12Z</time>
      </trkpt>
      <trkpt lat="42.98107" lon="-0.15411">
        <ele>778.54</ele>
        <time>2021-06-06T00:31:14Z</time>
      </trkpt>
      <trkpt lat="42.98156" lon="-0.15322">
        <ele>778.26</ele>
        <time>2021-06-06T00:31:16Z</time>
      </trkpt>
      <trkpt lat="42.98188" lon="-0.15268">
        <ele>775.93</ele>
        <time>2021-06-06T00:31:17Z</time>
      </trkpt>
      <trkpt lat="42.98239" lon="-0.15174">
        <ele>771.57</ele>
        <time>2021-06-06T00:31:19Z</time>
      </trkpt>
      <trkpt lat="42.98254" lon="-0.15131">
        <ele>770.02</ele>
        <time>2021-06-06T00:31:21Z</time>
      </trkpt>
      <trkpt lat="42.98281" lon="-0.15005">
        <ele>764.89</ele>
        <time>2021-06-06T00:31:23Z</time>
      </trkpt>
      <trkpt lat="42.98305" lon="-0.14931">
        <ele>761.9</ele>
        <time>2021-06-06T00:31:25Z</time>
      </trkpt>
      <trkpt lat="42.98326" lon="-0.14882">
        <ele>761.48</ele>
        <time>2021-06-06T00:31:26Z</time>
      </trkpt>
      <trkpt lat="42.98342" lon="-0.14841">
        <ele>762.36</ele>
        <time>2021-06-06T00:31:28Z</time>
      </trkpt>
      <trkpt lat="42.98349" lon="-0.14807">
        <ele>762.52</ele>
        <time>2021-06-06T00:31:30Z</time>
      </trkpt>
      <trkpt lat="42.98354" lon="-0.14777">
        <ele>762.36</ele>
        <time>2021-06-06T00:31:32Z</time>
      </trkpt>
      <trkpt lat="42.98364" lon="-0.14651">
        <ele>762.33</ele>
        <time>2021-06-06T00:31:33Z</time>
      </trkpt>
      <trkpt lat="42.98368" lon="-0.14624">
        <ele>761.38</ele>
        <time>2021-06-06T00:31:35Z</time>
      </trkpt>
      <trkpt lat="42.98374" lon="-0.14607">
        <ele>761.67</ele>
        <time>2021-06-06T00:31:37Z</time>
      </trkpt>
      <trkpt lat="42.98393" lon="-0.14574">
        <ele>764.61</ele>
        <time>2021-06-06T00:31:39Z</time>
      </trkpt>
      <trkpt lat="42.98507" lon="-0.14413">
        <ele>755.46</ele>
        <time>2021-06-06T00:31:40Z</time>
      </trkpt>
      <trkpt lat="42.98521" lon="-0.14388">
        <ele>756.47</ele>
        <time>2021-06-06T00:31:42Z</time>
      </trkpt>
      <trkpt lat="42.98533" lon="-0.14363">
        <ele>756.07</ele>
        <time>2021-06-06T00:31:44Z</time>
      </trkpt>
      <trkpt lat="42.98541" lon="-0.1434">
        <ele>756.53</ele>
        <time>2021-06-06T00:31:46Z</time>
      </trkpt>
      <trkpt lat="42.98551" lon="-0.14292">
        <ele>754.08</ele>
        <time>2021-06-06T00:31:47Z</time>
      </trkpt>
      <trkpt lat="42.98569" lon="-0.14227">
        <ele>747.6</ele>
        <time>2021-06-06T00:31:49Z</time>
      </trkpt>
      <trkpt lat="42.98638" lon="-0.14065">
        <ele>742.17</ele>
        <time>2021-06-06T00:31:51Z</time>
      </trkpt>
      <trkpt lat="42.98672" lon="-0.13963">
        <ele>735.85</ele>
        <time>2021-06-06T00:31:53Z</time>
      </trkpt>
      <trkpt lat="42.98771" lon="-0.13726">
        <ele>737.52</ele>
        <time>2021-06-06T00:31:54Z</time>
      </trkpt>
      <trkpt lat="42.98801" lon="-0.13646">
        <ele>732.71</ele>
        <time>2021-06-06T00:31:56Z</time>
      </trkpt>
      <trkpt lat="42.98825" lon="-0.1355">
        <ele>730.74</ele>
        <time>2021-06-06T00:31:58Z</time>
      </trkpt>
      <trkpt lat="42.9884" lon="-0.13507">
        <ele>729.97</ele>
        <time>2021-06-06T00:32:00Z</time>
      </trkpt>
      <trkpt lat="42.98876" lon="-0.13445">
        <ele>727.05</ele>
        <time>2021-06-06T00:32:01Z</time>
      </trkpt>
      <trkpt lat="42.98914" lon="-0.13344">
        <ele>725.54</ele>
        <time>2021-06-06T00:32:03Z</time>
      </trkpt>
      <trkpt lat="42.98927" lon="-0.1332">
        <ele>725.24</ele>
        <time>2021-06-06T00:32:05Z</time>
      </trkpt>
      <trkpt lat="42.98978" lon="-0.13259">
        <ele>725.29</ele>
        <time>2021-06-06T00:32:07Z</time>
      </trkpt>
      <trkpt lat="42.98987" lon="-0.13247">
        <ele>724.84</ele>
        <time>2021-06-06T00:32:09Z</time>
      </trkpt>
      <trkpt lat="42.98991" lon="-0.13237">
        <ele>724.45</ele>
        <time>2021-06-06T00:32:10Z</time>
      </trkpt>
      <trkpt lat="42.98999" lon="-0.13215">
        <ele>722.89</ele>
        <time>2021-06-06T00:32:12Z</time>
      </trkpt>
      <trkpt lat="42.99008" lon="-0.13165">
        <ele>717.45</ele>
        <time>2021-06-06T00:32:14Z</time>
      </trkpt>
      <trkpt lat="42.99014" lon="-0.13151">
        <ele>717.21</ele>
        <time>2021-06-06T00:32:16Z</time>
      </trkpt>
      <trkpt lat="42.99027" lon="-0.13134">
        <ele>717.35</ele>
        <time>2021-06-06T00:32:17Z</time>
      </trkpt>
      <trkpt lat="42.99102" lon="-0.13051">
        <ele>714.11</ele>
        <time>2021-06-06T00:32:19Z</time>
      </trkpt>
      <trkpt lat="42.99166" lon="-0.12956">
        <ele>714.26</ele>
        <time>2021-06-06T00:32:21Z</time>
      </trkpt>
      <trkpt lat="42.99171" lon="-0.12943">
        <ele>712.97</ele>
        <time>2021-06-06T00:32:23Z</time>
      </trkpt>
      <trkpt lat="42.99199" lon="-0.12811">
        <ele>702.04</ele>
        <time>2021-06-06T00:32:24Z</time>
      </trkpt>
      <trkpt lat="42.99216" lon="-0.12773">
        <ele>699.99</ele>
        <time>2021-06-06T00:32:26Z</time>
      </trkpt>
      <trkpt lat="42.99242" lon="-0.12725">
        <ele>697.21</ele>
        <time>2021-06-06T00:32:28Z</time>
      </trkpt>
      <trkpt lat="42.99261" lon="-0.12672">
        <ele>695.89</ele>
        <time>2021-06-06T00:32:30Z</time>
      </trkpt>
      <trkpt lat="42.99282" lon="-0.12565">
        <ele>691.96</ele>
        <time>2021-06-06T00:32:31Z</time>
      </trkpt>
      <trkpt lat="42.99291" lon="-0.12542">
        <ele>690.03</ele>
        <time>2021-06-06T00:32:33Z</time>
      </trkpt>
      <trkpt lat="42.99355" lon="-0.12451">
        <ele>681.34</ele>
        <time>2021-06-06T00:32:35Z</time>
      </trkpt>
      <trkpt lat="42.99372" lon="-0.12429">
        <ele>677.21</ele>
        <time>2021-06-06T00:32:37Z</time>
      </trkpt>
      <trkpt lat="42.99378" lon="-0.12425">
        <ele>675.84</ele>
        <time>2021-06-06T00:32:38Z</time>
      </trkpt>
      <trkpt lat="42.99408" lon="-0.12409">
        <ele>674.33</ele>
        <time>2021-06-06T00:32:40Z</time>
      </trkpt>
      <trkpt lat="42.99428" lon="-0.12389">
        <ele>675.13</ele>
        <time>2021-06-06T00:32:42Z</time>
      </trkpt>
      <trkpt lat="42.99447" lon="-0.12359">
        <ele>674.19</ele>
        <time>2021-06-06T00:32:44Z</time>
      </trkpt>
      <trkpt lat="42.99461" lon="-0.12327">
        <ele>672.88</ele>
        <time>2021-06-06T00:32:45Z</time>
      </trkpt>
      <trkpt lat="42.99475" lon="-0.12292">
        <ele>670.31</ele>
        <time>2021-06-06T00:32:47Z</time>
      </trkpt>
      <trkpt lat="42.99512" lon="-0.12147">
        <ele>656.3</ele>
        <time>2021-06-06T00:32:49Z</time>
      </trkpt>
      <trkpt lat="42.99513" lon="-0.12123">
        <ele>654.75</ele>
        <time>2021-06-06T00:32:51Z</time>
      </trkpt>
      <trkpt lat="42.9951" lon="-0.12099">
        <ele>653.52</ele>
        <time>2021-06-06T00:32:53Z</time>
      </trkpt>
      <trkpt lat="42.99485" lon="-0.12023">
        <ele>645.11</ele>
        <time>2021-06-06T00:32:54Z</time>
      </trkpt>
      <trkpt lat="42.99483" lon="-0.12003">
        <ele>644.09</ele>
        <time>2021-06-06T00:32:56Z</time>
      </trkpt>
      <trkpt lat="42.99502" lon="-0.11859">
        <ele>633.96</ele>
        <time>2021-06-06T00:32:58Z</time>
      </trkpt>
      <trkpt lat="42.99506" lon="-0.11843">
        <ele>633.07</ele>
        <time>2021-06-06T00:33:00Z</time>
      </trkpt>
      <trkpt lat="42.99532" lon="-0.11786">
        <ele>631.69</ele>
        <time>2021-06-06T00:33:01Z</time>
      </trkpt>
      <trkpt lat="42.99548" lon="-0.1177">
        <ele>630.64</ele>
        <time>2021-06-06T00:33:03Z</time>
      </trkpt>
      <trkpt lat="42.9956" lon="-0.11765">
        <ele>630.48</ele>
        <time>2021-06-06T00:33:05Z</time>
      </trkpt>
      <trkpt lat="42.99615" lon="-0.1176">
        <ele>628.29</ele>
        <time>2021-06-06T00:33:07Z</time>
      </trkpt>
      <trkpt lat="42.99683" lon="-0.11741">
        <ele>622.34</ele>
        <time>2021-06-06T00:33:08Z</time>
      </trkpt>
      <trkpt lat="42.99731" lon="-0.11726">
        <ele>616.53</ele>
        <time>2021-06-06T00:33:10Z</time>
      </trkpt>
      <trkpt lat="42.99749" lon="-0.11717">
        <ele>613.61</ele>
        <time>2021-06-06T00:33:12Z</time>
      </trkpt>
      <trkpt lat="42.99775" lon="-0.11696">
        <ele>614.68</ele>
        <time>2021-06-06T00:33:14Z</time>
      </trkpt>
      <trkpt lat="42.99796" lon="-0.11671">
        <ele>613.3</ele>
        <time>2021-06-06T00:33:15Z</time>
      </trkpt>
      <trkpt lat="42.99818" lon="-0.11633">
        <ele>612.18</ele>
        <time>2021-06-06T00:33:17Z</time>
      </trkpt>
      <trkpt lat="42.99836" lon="-0.11591">
        <ele>604.73</ele>
        <time>2021-06-06T00:33:19Z</time>
      </trkpt>
      <trkpt lat="42.99843" lon="-0.1157">
        <ele>603.12</ele>
        <time>2021-06-06T00:33:21Z</time>
      </trkpt>
      <trkpt lat="42.99845" lon="-0.11552">
        <ele>600.99</ele>
        <time>2021-06-06T00:33:22Z</time>
      </trkpt>
      <trkpt lat="42.99844" lon="-0.11495">
        <ele>592.91</ele>
        <time>2021-06-06T00:33:24Z</time>
      </trkpt>
      <trkpt lat="42.99858" lon="-0.11443">
        <ele>590.41</ele>
        <time>2021-06-06T00:33:26Z</time>
      </trkpt>
      <trkpt lat="42.99863" lon="-0.11409">
        <ele>590.13</ele>
        <time>2021-06-06T00:33:28Z</time>
      </trkpt>
      <trkpt lat="42.99862" lon="-0.11338">
        <ele>585.1</ele>
        <time>2021-06-06T00:33:29Z</time>
      </trkpt>
      <trkpt lat="42.9987" lon="-0.11307">
        <ele>583.71</ele>
        <time>2021-06-06T00:33:31Z</time>
      </trkpt>
      <trkpt lat="42.99883" lon="-0.11281">
        <ele>583.69</ele>
        <time>2021-06-06T00:33:33Z</time>
      </trkpt>
      <trkpt lat="42.99922" lon="-0.11219">
        <ele>591.93</ele>
        <time>2021-06-06T00:33:35Z</time>
      </trkpt>
      <trkpt lat="42.99927" lon="-0.11207">
        <ele>593.53</ele>
        <time>2021-06-06T00:33:37Z</time>
      </trkpt>
      <trkpt lat="42.99929" lon="-0.11197">
        <ele>593.34</ele>
        <time>2021-06-06T00:33:38Z</time>
      </trkpt>
      <trkpt lat="42.99929" lon="-0.11182">
        <ele>590.23</ele>
        <time>2021-06-06T00:33:40Z</time>
      </trkpt>
      <trkpt lat="42.99926" lon="-0.11171">
        <ele>585.93</ele>
        <time>2021-06-06T00:33:42Z</time>
      </trkpt>
      <trkpt lat="42.99911" lon="-0.11145">
        <ele>570.91</ele>
        <time>2021-06-06T00:33:44Z</time>
      </trkpt>
      <trkpt lat="42.99908" lon="-0.11128">
        <ele>566.66</ele>
        <time>2021-06-06T00:33:45Z</time>
      </trkpt>
      <trkpt lat="42.99908" lon="-0.11108">
        <ele>564.37</ele>
        <time>2021-06-06T00:33:47Z</time>
      </trkpt>
      <trkpt lat="42.99915" lon="-0.11051">
        <ele>557.86</ele>
        <time>2021-06-06T00:33:49Z</time>
      </trkpt>
      <trkpt lat="42.99919" lon="-0.10929">
        <ele>551.62</ele>
        <time>2021-06-06T00:33:51Z</time>
      </trkpt>
      <trkpt lat="42.99924" lon="-0.10894">
        <ele>546.85</ele>
        <time>2021-06-06T00:33:52Z</time>
      </trkpt>
      <trkpt lat="42.99932" lon="-0.10882">
        <ele>546.18</ele>
        <time>2021-06-06T00:33:54Z</time>
      </trkpt>
      <trkpt lat="42.9994" lon="-0.10872">
        <ele>545.89</ele>
        <time>2021-06-06T00:33:56Z</time>
      </trkpt>
      <trkpt lat="42.99949" lon="-0.10867">
        <ele>546.39</ele>
        <time>2021-06-06T00:33:58Z</time>
      </trkpt>
      <trkpt lat="42.9996" lon="-0.10865">
        <ele>547.34</ele>
        <time>2021-06-06T00:33:59Z</time>
      </trkpt>
      <trkpt lat="42.99998" lon="-0.10873">
        <ele>555.61</ele>
        <time>2021-06-06T00:34:01Z</time>
      </trkpt>
      <trkpt lat="43.00016" lon="-0.10873">
        <ele>556.81</ele>
        <time>2021-06-06T00:34:03Z</time>
      </trkpt>
      <trkpt lat="43.0003" lon="-0.10868">
        <ele>555.38</ele>
        <time>2021-06-06T00:34:05Z</time>
      </trkpt>
      <trkpt lat="43.00085" lon="-0.10835">
        <ele>547.59</ele>
        <time>2021-06-06T00:34:06Z</time>
      </trkpt>
      <trkpt lat="43.00113" lon="-0.10816">
        <ele>543.79</ele>
        <time>2021-06-06T00:34:08Z</time>
      </trkpt>
      <trkpt lat="43.00137" lon="-0.10793">
        <ele>539.2</ele>
        <time>2021-06-06T00:34:10Z</time>
      </trkpt>
      <trkpt lat="43.00164" lon="-0.10763">
        <ele>536.88</ele>
        <time>2021-06-06T00:34:12Z</time>
      </trkpt>
      <trkpt lat="43.00275" lon="-0.10672">
        <ele>525.25</ele>
        <time>2021-06-06T00:34:13Z</time>
      </trkpt>
      <trkpt lat="43.00309" lon="-0.10625">
        <ele>517.62</ele>
        <time>2021-06-06T00:34:15Z</time>
      </trkpt>
      <trkpt lat="43.0032" lon="-0.10612">
        <ele>515.88</ele>
        <time>2021-06-06T00:34:17Z</time>
      </trkpt>
      <trkpt lat="43.00336" lon="-0.10594">
        <ele>514.08</ele>
        <time>2021-06-06T00:34:19Z</time>
      </trkpt>
      <trkpt lat="43.0036" lon="-0.10578">
        <ele>513.03</ele>
        <time>2021-06-06T00:34:21Z</time>
      </trkpt>
      <trkpt lat="43.00367" lon="-0.10571">
        <ele>511.87</ele>
        <time>2021-06-06T00:34:22Z</time>
      </trkpt>
      <trkpt lat="43.00375" lon="-0.10561">
        <ele>510.11</ele>
        <time>2021-06-06T00:34:24Z</time>
      </trkpt>
      <trkpt lat="43.00409" lon="-0.10494">
        <ele>501.37</ele>
        <time>2021-06-06T00:34:26Z</time>
      </trkpt>
      <trkpt lat="43.00431" lon="-0.10463">
        <ele>498.07</ele>
        <time>2021-06-06T00:34:28Z</time>
      </trkpt>
      <trkpt lat="43.00473" lon="-0.10421">
        <ele>492.84</ele>
        <time>2021-06-06T00:34:29Z</time>
      </trkpt>
      <trkpt lat="43.00478" lon="-0.10414">
        <ele>492.03</ele>
        <time>2021-06-06T00:34:31Z</time>
      </trkpt>
      <trkpt lat="43.00481" lon="-0.10407">
        <ele>491.44</ele>
        <time>2021-06-06T00:34:33Z</time>
      </trkpt>
      <trkpt lat="43.00485" lon="-0.10383">
        <ele>488.86</ele>
        <time>2021-06-06T00:34:35Z</time>
      </trkpt>
      <trkpt lat="43.00491" lon="-0.10325">
        <ele>485.05</ele>
        <time>2021-06-06T00:34:36Z</time>
      </trkpt>
      <trkpt lat="43.00494" lon="-0.10314">
        <ele>484.41</ele>
        <time>2021-06-06T00:34:38Z</time>
      </trkpt>
      <trkpt lat="43.00532" lon="-0.10253">
        <ele>477.94</ele>
        <time>2021-06-06T00:34:40Z</time>
      </trkpt>
      <trkpt lat="43.00551" lon="-0.10212">
        <ele>475.79</ele>
        <time>2021-06-06T00:34:42Z</time>
      </trkpt>
      <trkpt lat="43.00579" lon="-0.10184">
        <ele>474.92</ele>
        <time>2021-06-06T00:34:43Z</time>
      </trkpt>
      <trkpt lat="43.00613" lon="-0.10165">
        <ele>472.68</ele>
        <time>2021-06-06T00:34:45Z</time>
      </trkpt>
      <trkpt lat="43.00655" lon="-0.10165">
        <ele>473.22</ele>
        <time>2021-06-06T00:34:47Z</time>
      </trkpt>
      <trkpt lat="43.00694" lon="-0.10156">
        <ele>473.82</ele>
        <time>2021-06-06T00:34:49Z</time>
      </trkpt>
      <trkpt lat="43.007" lon="-0.10153">
        <ele>473.38</ele>
        <time>2021-06-06T00:34:50Z</time>
      </trkpt>
      <trkpt lat="43.00708" lon="-0.10144">
        <ele>471.91</ele>
        <time>2021-06-06T00:34:52Z</time>
      </trkpt>
      <trkpt lat="43.0071" lon="-0.10138">
        <ele>470.83</ele>
        <time>2021-06-06T00:34:54Z</time>
      </trkpt>
      <trkpt lat="43.00709" lon="-0.10119">
        <ele>467.77</ele>
        <time>2021-06-06T00:34:56Z</time>
      </trkpt>
      <trkpt lat="43.00701" lon="-0.10115">
        <ele>466.93</ele>
        <time>2021-06-06T00:34:57Z</time>
      </trkpt>
      <trkpt lat="43.00684" lon="-0.10114">
        <ele>466.2</ele>
        <time>2021-06-06T00:34:59Z</time>
      </trkpt>
      <trkpt lat="43.00682" lon="-0.10123">
        <ele>467.61</ele>
        <time>2021-06-06T00:35:00Z</time>
      </trkpt>
      <trkpt lat="43.00679" lon="-0.10126">
        <ele>468.1</ele>
        <time>2021-06-06T00:35:02Z</time>
      </trkpt>
      <trkpt lat="43.00675" lon="-0.10128">
        <ele>468.07</ele>
        <time>2021-06-06T00:35:04Z</time>
      </trkpt>
      <trkpt lat="43.00652" lon="-0.10126">
        <ele>468.24</ele>
        <time>2021-06-06T00:35:05Z</time>
      </trkpt>
      <trkpt lat="43.00652" lon="-0.10126">
        <ele>468.24</ele>
        <time>2021-06-06T00:35:05Z</time>
      </trkpt>
      <trkpt lat="43.00612" lon="-0.10124">
        <ele>468.42</ele>
        <time>2021-06-06T00:35:08Z</time>
      </trkpt>
      <trkpt lat="43.00604" lon="-0.1012">
        <ele>468.67</ele>
        <time>2021-06-06T00:35:11Z</time>
      </trkpt>
      <trkpt lat="43.0059" lon="-0.10109">
        <ele>468.7</ele>
        <time>2021-06-06T00:35:14Z</time>
      </trkpt>
      <trkpt lat="43.0058" lon="-0.10094">
        <ele>468.42</ele>
        <time>2021-06-06T00:35:17Z</time>
      </trkpt>
      <trkpt lat="43.00578" lon="-0.10087">
        <ele>468.27</ele>
        <time>2021-06-06T00:35:20Z</time>
      </trkpt>
      <trkpt lat="43.00585" lon="-0.10069">
        <ele>467.37</ele>
        <time>2021-06-06T00:35:23Z</time>
      </trkpt>
      <trkpt lat="43.0058" lon="-0.10041">
        <ele>465.98</ele>
        <time>2021-06-06T00:35:26Z</time>
      </trkpt>
      <trkpt lat="43.00752" lon="-0.09984">
        <ele>460.97</ele>
        <time>2021-06-06T00:35:28Z</time>
      </trkpt>
      <trkpt lat="43.0078" lon="-0.09969">
        <ele>461.46</ele>
        <time>2021-06-06T00:35:30Z</time>
      </trkpt>
      <trkpt lat="43.00796" lon="-0.09943">
        <ele>457.03</ele>
        <time>2021-06-06T00:35:32Z</time>
      </trkpt>
      <trkpt lat="43.00806" lon="-0.09918">
        <ele>452.22</ele>
        <time>2021-06-06T00:35:34Z</time>
      </trkpt>
      <trkpt lat="43.00818" lon="-0.09897">
        <ele>449</ele>
        <time>2021-06-06T00:35:36Z</time>
      </trkpt>
      <trkpt lat="43.00829" lon="-0.09888">
        <ele>448.91</ele>
        <time>2021-06-06T00:35:38Z</time>
      </trkpt>
      <trkpt lat="43.00856" lon="-0.09878">
        <ele>449.55</ele>
        <time>2021-06-06T00:35:40Z</time>
      </trkpt>
      <trkpt lat="43.01017" lon="-0.09871">
        <ele>448.92</ele>
        <time>2021-06-06T00:35:42Z</time>
      </trkpt>
      <trkpt lat="43.01063" lon="-0.09873">
        <ele>447.73</ele>
        <time>2021-06-06T00:35:44Z</time>
      </trkpt>
      <trkpt lat="43.01077" lon="-0.09881">
        <ele>448.25</ele>
        <time>2021-06-06T00:35:46Z</time>
      </trkpt>
      <trkpt lat="43.01091" lon="-0.09894">
        <ele>450.36</ele>
        <time>2021-06-06T00:35:48Z</time>
      </trkpt>
      <trkpt lat="43.01098" lon="-0.09898">
        <ele>450.73</ele>
        <time>2021-06-06T00:35:50Z</time>
      </trkpt>
      <trkpt lat="43.01106" lon="-0.09898">
        <ele>450.15</ele>
        <time>2021-06-06T00:35:52Z</time>
      </trkpt>
      <trkpt lat="43.01115" lon="-0.09893">
        <ele>448.53</ele>
        <time>2021-06-06T00:35:54Z</time>
      </trkpt>
      <trkpt lat="43.01133" lon="-0.09872">
        <ele>442.29</ele>
        <time>2021-06-06T00:35:56Z</time>
      </trkpt>
      <trkpt lat="43.01154" lon="-0.09853">
        <ele>439.6</ele>
        <time>2021-06-06T00:35:58Z</time>
      </trkpt>
      <trkpt lat="43.01225" lon="-0.09829">
        <ele>439.08</ele>
        <time>2021-06-06T00:36:00Z</time>
      </trkpt>
      <trkpt lat="43.01248" lon="-0.09825">
        <ele>436.09</ele>
        <time>2021-06-06T00:36:02Z</time>
      </trkpt>
      <trkpt lat="43.01266" lon="-0.09828">
        <ele>436.01</ele>
        <time>2021-06-06T00:36:04Z</time>
      </trkpt>
      <trkpt lat="43.01273" lon="-0.0983">
        <ele>436.36</ele>
        <time>2021-06-06T00:36:06Z</time>
      </trkpt>
      <trkpt lat="43.01296" lon="-0.09847">
        <ele>438.3</ele>
        <time>2021-06-06T00:36:08Z</time>
      </trkpt>
      <trkpt lat="43.01307" lon="-0.09851">
        <ele>438.26</ele>
        <time>2021-06-06T00:36:10Z</time>
      </trkpt>
      <trkpt lat="43.01317" lon="-0.09849">
        <ele>436.02</ele>
        <time>2021-06-06T00:36:11Z</time>
      </trkpt>
      <trkpt lat="43.01322" lon="-0.09845">
        <ele>433.89</ele>
        <time>2021-06-06T00:36:13Z</time>
      </trkpt>
      <trkpt lat="43.0133" lon="-0.09832">
        <ele>429.2</ele>
        <time>2021-06-06T00:36:15Z</time>
      </trkpt>
      <trkpt lat="43.01325" lon="-0.09823">
        <ele>428.33</ele>
        <time>2021-06-06T00:36:16Z</time>
      </trkpt>
      <trkpt lat="43.01325" lon="-0.0981">
        <ele>426.24</ele>
        <time>2021-06-06T00:36:17Z</time>
      </trkpt>
      <trkpt lat="43.01303" lon="-0.09802">
        <ele>427.32</ele>
        <time>2021-06-06T00:36:18Z</time>
      </trkpt>
      <trkpt lat="43.0129" lon="-0.098">
        <ele>428.08</ele>
        <time>2021-06-06T00:36:19Z</time>
      </trkpt>
      <trkpt lat="43.01227" lon="-0.09804">
        <ele>430.56</ele>
        <time>2021-06-06T00:36:20Z</time>
      </trkpt>
      <trkpt lat="43.01216" lon="-0.09802">
        <ele>430.7</ele>
        <time>2021-06-06T00:36:21Z</time>
      </trkpt>
      <trkpt lat="43.01208" lon="-0.09798">
        <ele>430.31</ele>
        <time>2021-06-06T00:36:22Z</time>
      </trkpt>
      <trkpt lat="43.01198" lon="-0.09784">
        <ele>428.81</ele>
        <time>2021-06-06T00:36:23Z</time>
      </trkpt>
      <trkpt lat="43.0119" lon="-0.09751">
        <ele>426.08</ele>
        <time>2021-06-06T00:36:24Z</time>
      </trkpt>
      <trkpt lat="43.01181" lon="-0.09753">
        <ele>426.09</ele>
        <time>2021-06-06T00:36:28Z</time>
      </trkpt>
      <trkpt lat="43.01173" lon="-0.09746">
        <ele>426</ele>
        <time>2021-06-06T00:36:33Z</time>
      </trkpt>
      <trkpt lat="43.01169" lon="-0.09735">
        <ele>426</ele>
        <time>2021-06-06T00:36:38Z</time>
      </trkpt>
      <trkpt lat="43.01171" lon="-0.09723">
        <ele>426</ele>
        <time>2021-06-06T00:36:43Z</time>
      </trkpt>
      <trkpt lat="43.01178" lon="-0.09714">
        <ele>426.28</ele>
        <time>2021-06-06T00:36:47Z</time>
      </trkpt>
      <trkpt lat="43.01186" lon="-0.09713">
        <ele>426.34</ele>
        <time>2021-06-06T00:36:52Z</time>
      </trkpt>
      <trkpt lat="43.01225" lon="-0.09356">
        <ele>422</ele>
        <time>2021-06-06T00:36:57Z</time>
      </trkpt>
      <trkpt lat="43.01295" lon="-0.08672">
        <ele>418.18</ele>
        <time>2021-06-06T00:37:01Z</time>
      </trkpt>
      <trkpt lat="43.01289" lon="-0.08667">
        <ele>418.01</ele>
        <time>2021-06-06T00:37:05Z</time>
      </trkpt>
      <trkpt lat="43.01285" lon="-0.0866">
        <ele>418.07</ele>
        <time>2021-06-06T00:37:09Z</time>
      </trkpt>
      <trkpt lat="43.01285" lon="-0.08646">
        <ele>418.18</ele>
        <time>2021-06-06T00:37:13Z</time>
      </trkpt>
      <trkpt lat="43.0129" lon="-0.08634">
        <ele>418.61</ele>
        <time>2021-06-06T00:37:16Z</time>
      </trkpt>
      <trkpt lat="43.01299" lon="-0.0863">
        <ele>419.09</ele>
        <time>2021-06-06T00:37:20Z</time>
      </trkpt>
      <trkpt lat="43.01308" lon="-0.08634">
        <ele>419.19</ele>
        <time>2021-06-06T00:37:24Z</time>
      </trkpt>
      <trkpt lat="43.01314" lon="-0.08644">
        <ele>418.88</ele>
        <time>2021-06-06T00:37:28Z</time>
      </trkpt>
      <trkpt lat="43.0132" lon="-0.08648">
        <ele>418.83</ele>
        <time>2021-06-06T00:37:31Z</time>
      </trkpt>
      <trkpt lat="43.01342" lon="-0.08656">
        <ele>419.32</ele>
        <time>2021-06-06T00:37:35Z</time>
      </trkpt>
      <trkpt lat="43.01588" lon="-0.08707">
        <ele>419.29</ele>
        <time>2021-06-06T00:37:39Z</time>
      </trkpt>
      <trkpt lat="43.01634" lon="-0.08714">
        <ele>418.12</ele>
        <time>2021-06-06T00:37:43Z</time>
      </trkpt>
      <trkpt lat="43.0173" lon="-0.08715">
        <ele>417.72</ele>
        <time>2021-06-06T00:37:46Z</time>
      </trkpt>
      <trkpt lat="43.01779" lon="-0.08709">
        <ele>419</ele>
        <time>2021-06-06T00:37:50Z</time>
      </trkpt>
      <trkpt lat="43.01854" lon="-0.08692">
        <ele>417.65</ele>
        <time>2021-06-06T00:37:54Z</time>
      </trkpt>
      <trkpt lat="43.01926" lon="-0.08666">
        <ele>420.01</ele>
        <time>2021-06-06T00:37:58Z</time>
      </trkpt>
      <trkpt lat="43.02064" lon="-0.08592">
        <ele>418.3</ele>
        <time>2021-06-06T00:38:01Z</time>
      </trkpt>
      <trkpt lat="43.02442" lon="-0.08372">
        <ele>419.44</ele>
        <time>2021-06-06T00:38:05Z</time>
      </trkpt>
      <trkpt lat="43.02532" lon="-0.08317">
        <ele>419.31</ele>
        <time>2021-06-06T00:38:09Z</time>
      </trkpt>
      <trkpt lat="43.02597" lon="-0.08261">
        <ele>416.04</ele>
        <time>2021-06-06T00:38:12Z</time>
      </trkpt>
      <trkpt lat="43.02648" lon="-0.082">
        <ele>415.54</ele>
        <time>2021-06-06T00:38:16Z</time>
      </trkpt>
      <trkpt lat="43.02667" lon="-0.08174">
        <ele>416.45</ele>
        <time>2021-06-06T00:38:20Z</time>
      </trkpt>
      <trkpt lat="43.02704" lon="-0.08114">
        <ele>416.41</ele>
        <time>2021-06-06T00:38:24Z</time>
      </trkpt>
      <trkpt lat="43.02742" lon="-0.08036">
        <ele>413.81</ele>
        <time>2021-06-06T00:38:27Z</time>
      </trkpt>
      <trkpt lat="43.02767" lon="-0.07965">
        <ele>410</ele>
        <time>2021-06-06T00:38:31Z</time>
      </trkpt>
      <trkpt lat="43.02787" lon="-0.07896">
        <ele>411.4</ele>
        <time>2021-06-06T00:38:35Z</time>
      </trkpt>
      <trkpt lat="43.02797" lon="-0.07841">
        <ele>414.42</ele>
        <time>2021-06-06T00:38:39Z</time>
      </trkpt>
      <trkpt lat="43.02804" lon="-0.07794">
        <ele>417.4</ele>
        <time>2021-06-06T00:38:42Z</time>
      </trkpt>
      <trkpt lat="43.0283" lon="-0.07573">
        <ele>417.18</ele>
        <time>2021-06-06T00:38:46Z</time>
      </trkpt>
      <trkpt lat="43.02894" lon="-0.07032">
        <ele>405.13</ele>
        <time>2021-06-06T00:38:50Z</time>
      </trkpt>
      <trkpt lat="43.02902" lon="-0.06978">
        <ele>407.18</ele>
        <time>2021-06-06T00:38:54Z</time>
      </trkpt>
      <trkpt lat="43.02912" lon="-0.06927">
        <ele>408.93</ele>
        <time>2021-06-06T00:38:57Z</time>
      </trkpt>
      <trkpt lat="43.02935" lon="-0.06845">
        <ele>407.8</ele>
        <time>2021-06-06T00:39:01Z</time>
      </trkpt>
      <trkpt lat="43.02956" lon="-0.06788">
        <ele>406.38</ele>
        <time>2021-06-06T00:39:05Z</time>
      </trkpt>
      <trkpt lat="43.02978" lon="-0.06737">
        <ele>406.77</ele>
        <time>2021-06-06T00:39:08Z</time>
      </trkpt>
      <trkpt lat="43.03007" lon="-0.06679">
        <ele>406.29</ele>
        <time>2021-06-06T00:39:12Z</time>
      </trkpt>
      <trkpt lat="43.03039" lon="-0.06626">
        <ele>404.46</ele>
        <time>2021-06-06T00:39:16Z</time>
      </trkpt>
      <trkpt lat="43.03085" lon="-0.06564">
        <ele>405.07</ele>
        <time>2021-06-06T00:39:20Z</time>
      </trkpt>
      <trkpt lat="43.03125" lon="-0.0652">
        <ele>406.36</ele>
        <time>2021-06-06T00:39:23Z</time>
      </trkpt>
      <trkpt lat="43.03164" lon="-0.06485">
        <ele>406</ele>
        <time>2021-06-06T00:39:27Z</time>
      </trkpt>
      <trkpt lat="43.03239" lon="-0.0643">
        <ele>406.58</ele>
        <time>2021-06-06T00:39:31Z</time>
      </trkpt>
      <trkpt lat="43.03341" lon="-0.06384">
        <ele>403.28</ele>
        <time>2021-06-06T00:39:35Z</time>
      </trkpt>
      <trkpt lat="43.03411" lon="-0.06367">
        <ele>401.79</ele>
        <time>2021-06-06T00:39:38Z</time>
      </trkpt>
      <trkpt lat="43.03488" lon="-0.06363">
        <ele>403.97</ele>
        <time>2021-06-06T00:39:42Z</time>
      </trkpt>
      <trkpt lat="43.03557" lon="-0.06367">
        <ele>402.66</ele>
        <time>2021-06-06T00:39:46Z</time>
      </trkpt>
      <trkpt lat="43.03623" lon="-0.06385">
        <ele>401.41</ele>
        <time>2021-06-06T00:39:50Z</time>
      </trkpt>
      <trkpt lat="43.03783" lon="-0.06448">
        <ele>404.09</ele>
        <time>2021-06-06T00:39:53Z</time>
      </trkpt>
      <trkpt lat="43.03794" lon="-0.06445">
        <ele>404.56</ele>
        <time>2021-06-06T00:39:54Z</time>
      </trkpt>
      <trkpt lat="43.03805" lon="-0.06449">
        <ele>404.98</ele>
        <time>2021-06-06T00:39:56Z</time>
      </trkpt>
      <trkpt lat="43.03817" lon="-0.06451">
        <ele>404.67</ele>
        <time>2021-06-06T00:39:57Z</time>
      </trkpt>
      <trkpt lat="43.0383" lon="-0.06448">
        <ele>404.24</ele>
        <time>2021-06-06T00:39:58Z</time>
      </trkpt>
      <trkpt lat="43.03842" lon="-0.06436">
        <ele>403.9</ele>
        <time>2021-06-06T00:39:59Z</time>
      </trkpt>
      <trkpt lat="43.03859" lon="-0.06394">
        <ele>402.27</ele>
        <time>2021-06-06T00:40:00Z</time>
      </trkpt>
      <trkpt lat="43.03866" lon="-0.06388">
        <ele>401.81</ele>
        <time>2021-06-06T00:40:01Z</time>
      </trkpt>
      <trkpt lat="43.0388" lon="-0.0638">
        <ele>401.01</ele>
        <time>2021-06-06T00:40:03Z</time>
      </trkpt>
      <trkpt lat="43.03909" lon="-0.06378">
        <ele>400.59</ele>
        <time>2021-06-06T00:40:04Z</time>
      </trkpt>
      <trkpt lat="43.03997" lon="-0.06413">
        <ele>399.13</ele>
        <time>2021-06-06T00:40:05Z</time>
      </trkpt>
      <trkpt lat="43.04004" lon="-0.06421">
        <ele>399.13</ele>
        <time>2021-06-06T00:40:06Z</time>
      </trkpt>
      <trkpt lat="43.04008" lon="-0.06435">
        <ele>399.48</ele>
        <time>2021-06-06T00:40:07Z</time>
      </trkpt>
      <trkpt lat="43.04015" lon="-0.06501">
        <ele>400.89</ele>
        <time>2021-06-06T00:40:08Z</time>
      </trkpt>
      <trkpt lat="43.04023" lon="-0.06524">
        <ele>400.91</ele>
        <time>2021-06-06T00:40:09Z</time>
      </trkpt>
      <trkpt lat="43.04029" lon="-0.06533">
        <ele>401.26</ele>
        <time>2021-06-06T00:40:11Z</time>
      </trkpt>
      <trkpt lat="43.04036" lon="-0.06535">
        <ele>401.85</ele>
        <time>2021-06-06T00:40:14Z</time>
      </trkpt>
      <trkpt lat="43.04042" lon="-0.06539">
        <ele>402.78</ele>
        <time>2021-06-06T00:40:18Z</time>
      </trkpt>
      <trkpt lat="43.04048" lon="-0.06545">
        <ele>404.17</ele>
        <time>2021-06-06T00:40:21Z</time>
      </trkpt>
      <trkpt lat="43.04052" lon="-0.06554">
        <ele>405.98</ele>
        <time>2021-06-06T00:40:25Z</time>
      </trkpt>
      <trkpt lat="43.04062" lon="-0.06558">
        <ele>409.71</ele>
        <time>2021-06-06T00:40:28Z</time>
      </trkpt>
      <trkpt lat="43.04073" lon="-0.0656">
        <ele>414.23</ele>
        <time>2021-06-06T00:40:32Z</time>
      </trkpt>
      <trkpt lat="43.0408" lon="-0.06555">
        <ele>416.47</ele>
        <time>2021-06-06T00:40:35Z</time>
      </trkpt>
      <trkpt lat="43.04085" lon="-0.06547">
        <ele>416.63</ele>
        <time>2021-06-06T00:40:39Z</time>
      </trkpt>
      <trkpt lat="43.0409" lon="-0.06531">
        <ele>414.98</ele>
        <time>2021-06-06T00:40:42Z</time>
      </trkpt>
      <trkpt lat="43.04095" lon="-0.06525">
        <ele>414.9</ele>
        <time>2021-06-06T00:40:46Z</time>
      </trkpt>
      <trkpt lat="43.04103" lon="-0.06505">
        <ele>412.1</ele>
        <time>2021-06-06T00:40:49Z</time>
      </trkpt>
      <trkpt lat="43.04112" lon="-0.06493">
        <ele>410.94</ele>
        <time>2021-06-06T00:40:53Z</time>
      </trkpt>
      <trkpt lat="43.04126" lon="-0.06479">
        <ele>407.89</ele>
        <time>2021-06-06T00:40:56Z</time>
      </trkpt>
      <trkpt lat="43.04163" lon="-0.06454">
        <ele>406.5</ele>
        <time>2021-06-06T00:41:00Z</time>
      </trkpt>
      <trkpt lat="43.04241" lon="-0.06406">
        <ele>408.21</ele>
        <time>2021-06-06T00:41:03Z</time>
      </trkpt>
      <trkpt lat="43.04274" lon="-0.06372">
        <ele>411.75</ele>
        <time>2021-06-06T00:41:07Z</time>
      </trkpt>
      <trkpt lat="43.04297" lon="-0.06341">
        <ele>414.91</ele>
        <time>2021-06-06T00:41:10Z</time>
      </trkpt>
      <trkpt lat="43.04354" lon="-0.06254">
        <ele>415.86</ele>
        <time>2021-06-06T00:41:14Z</time>
      </trkpt>
      <trkpt lat="43.04384" lon="-0.06214">
        <ele>415.14</ele>
        <time>2021-06-06T00:41:18Z</time>
      </trkpt>
      <trkpt lat="43.04593" lon="-0.06019">
        <ele>414.13</ele>
        <time>2021-06-06T00:41:21Z</time>
      </trkpt>
      <trkpt lat="43.04768" lon="-0.05843">
        <ele>414.29</ele>
        <time>2021-06-06T00:41:25Z</time>
      </trkpt>
      <trkpt lat="43.04848" lon="-0.05766">
        <ele>413.29</ele>
        <time>2021-06-06T00:41:28Z</time>
      </trkpt>
      <trkpt lat="43.04872" lon="-0.05738">
        <ele>421.45</ele>
        <time>2021-06-06T00:41:32Z</time>
      </trkpt>
      <trkpt lat="43.04893" lon="-0.05709">
        <ele>427.41</ele>
        <time>2021-06-06T00:41:35Z</time>
      </trkpt>
      <trkpt lat="43.05003" lon="-0.05513">
        <ele>422.69</ele>
        <time>2021-06-06T00:41:39Z</time>
      </trkpt>
      <trkpt lat="43.05036" lon="-0.0547">
        <ele>416.78</ele>
        <time>2021-06-06T00:41:42Z</time>
      </trkpt>
      <trkpt lat="43.05082" lon="-0.05416">
        <ele>416.13</ele>
        <time>2021-06-06T00:41:46Z</time>
      </trkpt>
      <trkpt lat="43.05143" lon="-0.05345">
        <ele>409.7</ele>
        <time>2021-06-06T00:41:49Z</time>
      </trkpt>
      <trkpt lat="43.05169" lon="-0.05318">
        <ele>408.69</ele>
        <time>2021-06-06T00:41:53Z</time>
      </trkpt>
      <trkpt lat="43.05254" lon="-0.05246">
        <ele>415.48</ele>
        <time>2021-06-06T00:41:56Z</time>
      </trkpt>
      <trkpt lat="43.05268" lon="-0.0523">
        <ele>416.08</ele>
        <time>2021-06-06T00:42:00Z</time>
      </trkpt>
      <trkpt lat="43.05278" lon="-0.05213">
        <ele>415.27</ele>
        <time>2021-06-06T00:42:03Z</time>
      </trkpt>
      <trkpt lat="43.05286" lon="-0.05193">
        <ele>414.58</ele>
        <time>2021-06-06T00:42:07Z</time>
      </trkpt>
      <trkpt lat="43.05316" lon="-0.05136">
        <ele>411.59</ele>
        <time>2021-06-06T00:42:10Z</time>
      </trkpt>
      <trkpt lat="43.05409" lon="-0.05045">
        <ele>423.32</ele>
        <time>2021-06-06T00:42:14Z</time>
      </trkpt>
      <trkpt lat="43.0546" lon="-0.04973">
        <ele>420.26</ele>
        <time>2021-06-06T00:42:17Z</time>
      </trkpt>
      <trkpt lat="43.0548" lon="-0.04955">
        <ele>418.69</ele>
        <time>2021-06-06T00:42:21Z</time>
      </trkpt>
      <trkpt lat="43.05513" lon="-0.04933">
        <ele>428.92</ele>
        <time>2021-06-06T00:42:24Z</time>
      </trkpt>
      <trkpt lat="43.05529" lon="-0.04918">
        <ele>433.12</ele>
        <time>2021-06-06T00:42:28Z</time>
      </trkpt>
      <trkpt lat="43.05575" lon="-0.04861">
        <ele>433.15</ele>
        <time>2021-06-06T00:42:31Z</time>
      </trkpt>
      <trkpt lat="43.05613" lon="-0.04821">
        <ele>432.28</ele>
        <time>2021-06-06T00:42:35Z</time>
      </trkpt>
      <trkpt lat="43.05625" lon="-0.04813">
        <ele>431.72</ele>
        <time>2021-06-06T00:42:38Z</time>
      </trkpt>
      <trkpt lat="43.05674" lon="-0.04792">
        <ele>435.22</ele>
        <time>2021-06-06T00:42:42Z</time>
      </trkpt>
      <trkpt lat="43.05689" lon="-0.04783">
        <ele>435.66</ele>
        <time>2021-06-06T00:42:45Z</time>
      </trkpt>
      <trkpt lat="43.05701" lon="-0.04771">
        <ele>434.35</ele>
        <time>2021-06-06T00:42:49Z</time>
      </trkpt>
      <trkpt lat="43.05745" lon="-0.04721">
        <ele>428.15</ele>
        <time>2021-06-06T00:42:53Z</time>
      </trkpt>
      <trkpt lat="43.05773" lon="-0.047">
        <ele>429.22</ele>
        <time>2021-06-06T00:42:56Z</time>
      </trkpt>
      <trkpt lat="43.05829" lon="-0.04664">
        <ele>420.02</ele>
        <time>2021-06-06T00:43:00Z</time>
      </trkpt>
      <trkpt lat="43.05899" lon="-0.04602">
        <ele>431.19</ele>
        <time>2021-06-06T00:43:03Z</time>
      </trkpt>
      <trkpt lat="43.06039" lon="-0.04455">
        <ele>429.61</ele>
        <time>2021-06-06T00:43:07Z</time>
      </trkpt>
      <trkpt lat="43.06127" lon="-0.04367">
        <ele>426.48</ele>
        <time>2021-06-06T00:43:10Z</time>
      </trkpt>
      <trkpt lat="43.06155" lon="-0.04342">
        <ele>422.13</ele>
        <time>2021-06-06T00:43:14Z</time>
      </trkpt>
      <trkpt lat="43.06181" lon="-0.04324">
        <ele>423.71</ele>
        <time>2021-06-06T00:43:17Z</time>
      </trkpt>
      <trkpt lat="43.0621" lon="-0.04308">
        <ele>425.72</ele>
        <time>2021-06-06T00:43:21Z</time>
      </trkpt>
      <trkpt lat="43.06255" lon="-0.04293">
        <ele>430.21</ele>
        <time>2021-06-06T00:43:24Z</time>
      </trkpt>
      <trkpt lat="43.06287" lon="-0.04292">
        <ele>430.55</ele>
        <time>2021-06-06T00:43:28Z</time>
      </trkpt>
      <trkpt lat="43.06323" lon="-0.04279">
        <ele>428.34</ele>
        <time>2021-06-06T00:43:31Z</time>
      </trkpt>
      <trkpt lat="43.06386" lon="-0.04252">
        <ele>414.92</ele>
        <time>2021-06-06T00:43:35Z</time>
      </trkpt>
      <trkpt lat="43.06403" lon="-0.04247">
        <ele>409.95</ele>
        <time>2021-06-06T00:43:38Z</time>
      </trkpt>
      <trkpt lat="43.06416" lon="-0.04249">
        <ele>407.81</ele>
        <time>2021-06-06T00:43:42Z</time>
      </trkpt>
      <trkpt lat="43.06422" lon="-0.04251">
        <ele>407.3</ele>
        <time>2021-06-06T00:43:45Z</time>
      </trkpt>
      <trkpt lat="43.06431" lon="-0.04257">
        <ele>408.44</ele>
        <time>2021-06-06T00:43:49Z</time>
      </trkpt>
      <trkpt lat="43.06485" lon="-0.0432">
        <ele>399.9</ele>
        <time>2021-06-06T00:43:52Z</time>
      </trkpt>
      <trkpt lat="43.06519" lon="-0.04355">
        <ele>393.59</ele>
        <time>2021-06-06T00:43:56Z</time>
      </trkpt>
      <trkpt lat="43.06546" lon="-0.04376">
        <ele>393.75</ele>
        <time>2021-06-06T00:43:59Z</time>
      </trkpt>
      <trkpt lat="43.06589" lon="-0.04396">
        <ele>396.77</ele>
        <time>2021-06-06T00:44:03Z</time>
      </trkpt>
      <trkpt lat="43.06611" lon="-0.04396">
        <ele>400.01</ele>
        <time>2021-06-06T00:44:06Z</time>
      </trkpt>
      <trkpt lat="43.06626" lon="-0.0439">
        <ele>399.66</ele>
        <time>2021-06-06T00:44:10Z</time>
      </trkpt>
      <trkpt lat="43.0664" lon="-0.0438">
        <ele>400</ele>
        <time>2021-06-06T00:44:13Z</time>
      </trkpt>
      <trkpt lat="43.06656" lon="-0.04356">
        <ele>400.86</ele>
        <time>2021-06-06T00:44:17Z</time>
      </trkpt>
      <trkpt lat="43.0666" lon="-0.04337">
        <ele>400.67</ele>
        <time>2021-06-06T00:44:20Z</time>
      </trkpt>
      <trkpt lat="43.06673" lon="-0.04304">
        <ele>399.7</ele>
        <time>2021-06-06T00:44:24Z</time>
      </trkpt>
      <trkpt lat="43.06693" lon="-0.0427">
        <ele>397.39</ele>
        <time>2021-06-06T00:44:28Z</time>
      </trkpt>
      <trkpt lat="43.06723" lon="-0.04231">
        <ele>393.28</ele>
        <time>2021-06-06T00:44:31Z</time>
      </trkpt>
      <trkpt lat="43.06731" lon="-0.04226">
        <ele>392.7</ele>
        <time>2021-06-06T00:44:35Z</time>
      </trkpt>
      <trkpt lat="43.06737" lon="-0.04226">
        <ele>392.75</ele>
        <time>2021-06-06T00:44:38Z</time>
      </trkpt>
      <trkpt lat="43.06743" lon="-0.04228">
        <ele>393.08</ele>
        <time>2021-06-06T00:44:42Z</time>
      </trkpt>
      <trkpt lat="43.06757" lon="-0.04236">
        <ele>394.83</ele>
        <time>2021-06-06T00:44:45Z</time>
      </trkpt>
      <trkpt lat="43.06796" lon="-0.04266">
        <ele>401.46</ele>
        <time>2021-06-06T00:44:49Z</time>
      </trkpt>
      <trkpt lat="43.06854" lon="-0.04315">
        <ele>415.46</ele>
        <time>2021-06-06T00:44:52Z</time>
      </trkpt>
      <trkpt lat="43.06867" lon="-0.04328">
        <ele>416.53</ele>
        <time>2021-06-06T00:44:56Z</time>
      </trkpt>
      <trkpt lat="43.06875" lon="-0.04342">
        <ele>415.55</ele>
        <time>2021-06-06T00:44:59Z</time>
      </trkpt>
      <trkpt lat="43.06888" lon="-0.04381">
        <ele>415.41</ele>
        <time>2021-06-06T00:45:03Z</time>
      </trkpt>
      <trkpt lat="43.06899" lon="-0.04407">
        <ele>416.13</ele>
        <time>2021-06-06T00:45:06Z</time>
      </trkpt>
      <trkpt lat="43.06934" lon="-0.0446">
        <ele>422.36</ele>
        <time>2021-06-06T00:45:10Z</time>
      </trkpt>
      <trkpt lat="43.06958" lon="-0.04486">
        <ele>426.1</ele>
        <time>2021-06-06T00:45:13Z</time>
      </trkpt>
      <trkpt lat="43.0698" lon="-0.04505">
        <ele>430.87</ele>
        <time>2021-06-06T00:45:17Z</time>
      </trkpt>
      <trkpt lat="43.06997" lon="-0.04508">
        <ele>432.43</ele>
        <time>2021-06-06T00:45:20Z</time>
      </trkpt>
      <trkpt lat="43.07016" lon="-0.04504">
        <ele>431.68</ele>
        <time>2021-06-06T00:45:24Z</time>
      </trkpt>
      <trkpt lat="43.07107" lon="-0.04444">
        <ele>421.82</ele>
        <time>2021-06-06T00:45:27Z</time>
      </trkpt>
      <trkpt lat="43.07122" lon="-0.04442">
        <ele>422.2</ele>
        <time>2021-06-06T00:45:31Z</time>
      </trkpt>
      <trkpt lat="43.07133" lon="-0.04445">
        <ele>423.74</ele>
        <time>2021-06-06T00:45:34Z</time>
      </trkpt>
      <trkpt lat="43.07207" lon="-0.04494">
        <ele>440.23</ele>
        <time>2021-06-06T00:45:38Z</time>
      </trkpt>
      <trkpt lat="43.07225" lon="-0.04503">
        <ele>441.62</ele>
        <time>2021-06-06T00:45:41Z</time>
      </trkpt>
      <trkpt lat="43.07249" lon="-0.04511">
        <ele>440.48</ele>
        <time>2021-06-06T00:45:45Z</time>
      </trkpt>
      <trkpt lat="43.07258" lon="-0.04519">
        <ele>440.41</ele>
        <time>2021-06-06T00:45:48Z</time>
      </trkpt>
      <trkpt lat="43.07269" lon="-0.04532">
        <ele>441.48</ele>
        <time>2021-06-06T00:45:52Z</time>
      </trkpt>
      <trkpt lat="43.07331" lon="-0.04615">
        <ele>442.4</ele>
        <time>2021-06-06T00:45:56Z</time>
      </trkpt>
      <trkpt lat="43.07373" lon="-0.04651">
        <ele>444.66</ele>
        <time>2021-06-06T00:45:59Z</time>
      </trkpt>
      <trkpt lat="43.07416" lon="-0.04682">
        <ele>445.94</ele>
        <time>2021-06-06T00:46:03Z</time>
      </trkpt>
      <trkpt lat="43.07446" lon="-0.04706">
        <ele>444.11</ele>
        <time>2021-06-06T00:46:06Z</time>
      </trkpt>
      <trkpt lat="43.07464" lon="-0.04719">
        <ele>442.33</ele>
        <time>2021-06-06T00:46:10Z</time>
      </trkpt>
      <trkpt lat="43.07493" lon="-0.04734">
        <ele>440.25</ele>
        <time>2021-06-06T00:46:13Z</time>
      </trkpt>
      <trkpt lat="43.07505" lon="-0.04735">
        <ele>438.36</ele>
        <time>2021-06-06T00:46:17Z</time>
      </trkpt>
      <trkpt lat="43.07526" lon="-0.04729">
        <ele>435.59</ele>
        <time>2021-06-06T00:46:20Z</time>
      </trkpt>
      <trkpt lat="43.07548" lon="-0.04716">
        <ele>434.79</ele>
        <time>2021-06-06T00:46:24Z</time>
      </trkpt>
      <trkpt lat="43.07563" lon="-0.04704">
        <ele>434.98</ele>
        <time>2021-06-06T00:46:27Z</time>
      </trkpt>
      <trkpt lat="43.07584" lon="-0.04691">
        <ele>435.93</ele>
        <time>2021-06-06T00:46:31Z</time>
      </trkpt>
      <trkpt lat="43.07677" lon="-0.04638">
        <ele>428.15</ele>
        <time>2021-06-06T00:46:34Z</time>
      </trkpt>
      <trkpt lat="43.07682" lon="-0.04641">
        <ele>427.98</ele>
        <time>2021-06-06T00:46:37Z</time>
      </trkpt>
      <trkpt lat="43.07694" lon="-0.04661">
        <ele>427.86</ele>
        <time>2021-06-06T00:46:40Z</time>
      </trkpt>
      <trkpt lat="43.077" lon="-0.04687">
        <ele>430.36</ele>
        <time>2021-06-06T00:46:43Z</time>
      </trkpt>
      <trkpt lat="43.07707" lon="-0.04767">
        <ele>433.46</ele>
        <time>2021-06-06T00:46:46Z</time>
      </trkpt>
      <trkpt lat="43.07706" lon="-0.04785">
        <ele>432.4</ele>
        <time>2021-06-06T00:46:49Z</time>
      </trkpt>
      <trkpt lat="43.07687" lon="-0.04814">
        <ele>432.48</ele>
        <time>2021-06-06T00:46:52Z</time>
      </trkpt>
      <trkpt lat="43.07666" lon="-0.0486">
        <ele>433.28</ele>
        <time>2021-06-06T00:46:55Z</time>
      </trkpt>
      <trkpt lat="43.07656" lon="-0.04871">
        <ele>434.08</ele>
        <time>2021-06-06T00:46:58Z</time>
      </trkpt>
      <trkpt lat="43.07637" lon="-0.04883">
        <ele>437.51</ele>
        <time>2021-06-06T00:47:01Z</time>
      </trkpt>
      <trkpt lat="43.07619" lon="-0.04898">
        <ele>440.09</ele>
        <time>2021-06-06T00:47:04Z</time>
      </trkpt>
      <trkpt lat="43.07577" lon="-0.04956">
        <ele>446.71</ele>
        <time>2021-06-06T00:47:07Z</time>
      </trkpt>
      <trkpt lat="43.07545" lon="-0.05007">
        <ele>454.43</ele>
        <time>2021-06-06T00:47:10Z</time>
      </trkpt>
      <trkpt lat="43.07511" lon="-0.05067">
        <ele>461.52</ele>
        <time>2021-06-06T00:47:13Z</time>
      </trkpt>
      <trkpt lat="43.07501" lon="-0.05096">
        <ele>461.52</ele>
        <time>2021-06-06T00:47:16Z</time>
      </trkpt>
      <trkpt lat="43.07465" lon="-0.05282">
        <ele>458.55</ele>
        <time>2021-06-06T00:47:19Z</time>
      </trkpt>
      <trkpt lat="43.07447" lon="-0.05334">
        <ele>460.21</ele>
        <time>2021-06-06T00:47:22Z</time>
      </trkpt>
      <trkpt lat="43.07429" lon="-0.05373">
        <ele>463.96</ele>
        <time>2021-06-06T00:47:25Z</time>
      </trkpt>
      <trkpt lat="43.07408" lon="-0.05401">
        <ele>465.9</ele>
        <time>2021-06-06T00:47:28Z</time>
      </trkpt>
      <trkpt lat="43.07361" lon="-0.05452">
        <ele>465.1</ele>
        <time>2021-06-06T00:47:31Z</time>
      </trkpt>
      <trkpt lat="43.07328" lon="-0.05486">
        <ele>464.92</ele>
        <time>2021-06-06T00:47:34Z</time>
      </trkpt>
      <trkpt lat="43.07303" lon="-0.05506">
        <ele>468.17</ele>
        <time>2021-06-06T00:47:37Z</time>
      </trkpt>
      <trkpt lat="43.07289" lon="-0.05522">
        <ele>472.4</ele>
        <time>2021-06-06T00:47:40Z</time>
      </trkpt>
      <trkpt lat="43.07284" lon="-0.05536">
        <ele>474.08</ele>
        <time>2021-06-06T00:47:43Z</time>
      </trkpt>
      <trkpt lat="43.07282" lon="-0.0555">
        <ele>474.69</ele>
        <time>2021-06-06T00:47:46Z</time>
      </trkpt>
      <trkpt lat="43.07287" lon="-0.05573">
        <ele>474.54</ele>
        <time>2021-06-06T00:47:49Z</time>
      </trkpt>
      <trkpt lat="43.07326" lon="-0.05637">
        <ele>472.01</ele>
        <time>2021-06-06T00:47:52Z</time>
      </trkpt>
      <trkpt lat="43.0733" lon="-0.05662">
        <ele>472.83</ele>
        <time>2021-06-06T00:47:55Z</time>
      </trkpt>
      <trkpt lat="43.0733" lon="-0.05689">
        <ele>474.06</ele>
        <time>2021-06-06T00:47:58Z</time>
      </trkpt>
      <trkpt lat="43.07328" lon="-0.05718">
        <ele>474.41</ele>
        <time>2021-06-06T00:48:01Z</time>
      </trkpt>
      <trkpt lat="43.07323" lon="-0.05747">
        <ele>475.26</ele>
        <time>2021-06-06T00:48:05Z</time>
      </trkpt>
      <trkpt lat="43.07311" lon="-0.05776">
        <ele>478.93</ele>
        <time>2021-06-06T00:48:08Z</time>
      </trkpt>
      <trkpt lat="43.07276" lon="-0.05821">
        <ele>483.08</ele>
        <time>2021-06-06T00:48:11Z</time>
      </trkpt>
      <trkpt lat="43.07264" lon="-0.05839">
        <ele>482.07</ele>
        <time>2021-06-06T00:48:14Z</time>
      </trkpt>
      <trkpt lat="43.07252" lon="-0.0586">
        <ele>480.7</ele>
        <time>2021-06-06T00:48:17Z</time>
      </trkpt>
      <trkpt lat="43.07244" lon="-0.05868">
        <ele>481.02</ele>
        <time>2021-06-06T00:48:20Z</time>
      </trkpt>
      <trkpt lat="43.07183" lon="-0.0589">
        <ele>485.18</ele>
        <time>2021-06-06T00:48:23Z</time>
      </trkpt>
      <trkpt lat="43.07158" lon="-0.05895">
        <ele>485.85</ele>
        <time>2021-06-06T00:48:26Z</time>
      </trkpt>
      <trkpt lat="43.07128" lon="-0.05905">
        <ele>489.95</ele>
        <time>2021-06-06T00:48:29Z</time>
      </trkpt>
      <trkpt lat="43.07119" lon="-0.05909">
        <ele>491.54</ele>
        <time>2021-06-06T00:48:32Z</time>
      </trkpt>
      <trkpt lat="43.07101" lon="-0.05924">
        <ele>493.93</ele>
        <time>2021-06-06T00:48:35Z</time>
      </trkpt>
      <trkpt lat="43.07056" lon="-0.06027">
        <ele>489.29</ele>
        <time>2021-06-06T00:48:38Z</time>
      </trkpt>
      <trkpt lat="43.07043" lon="-0.0606">
        <ele>489.79</ele>
        <time>2021-06-06T00:48:41Z</time>
      </trkpt>
      <trkpt lat="43.07027" lon="-0.06093">
        <ele>490.97</ele>
        <time>2021-06-06T00:48:44Z</time>
      </trkpt>
      <trkpt lat="43.07016" lon="-0.06105">
        <ele>491.82</ele>
        <time>2021-06-06T00:48:47Z</time>
      </trkpt>
      <trkpt lat="43.07005" lon="-0.06114">
        <ele>492.51</ele>
        <time>2021-06-06T00:48:50Z</time>
      </trkpt>
      <trkpt lat="43.06988" lon="-0.06121">
        <ele>492.6</ele>
        <time>2021-06-06T00:48:53Z</time>
      </trkpt>
      <trkpt lat="43.0697" lon="-0.06123">
        <ele>492.15</ele>
        <time>2021-06-06T00:48:56Z</time>
      </trkpt>
      <trkpt lat="43.0696" lon="-0.06122">
        <ele>492.72</ele>
        <time>2021-06-06T00:48:59Z</time>
      </trkpt>
      <trkpt lat="43.06946" lon="-0.06117">
        <ele>493.58</ele>
        <time>2021-06-06T00:49:02Z</time>
      </trkpt>
      <trkpt lat="43.06911" lon="-0.06092">
        <ele>499.69</ele>
        <time>2021-06-06T00:49:05Z</time>
      </trkpt>
      <trkpt lat="43.06901" lon="-0.0609">
        <ele>500.86</ele>
        <time>2021-06-06T00:49:08Z</time>
      </trkpt>
      <trkpt lat="43.06896" lon="-0.06096">
        <ele>501.18</ele>
        <time>2021-06-06T00:49:11Z</time>
      </trkpt>
      <trkpt lat="43.06894" lon="-0.061">
        <ele>501.26</ele>
        <time>2021-06-06T00:49:14Z</time>
      </trkpt>
      <trkpt lat="43.06897" lon="-0.06109">
        <ele>500.61</ele>
        <time>2021-06-06T00:49:17Z</time>
      </trkpt>
      <trkpt lat="43.06936" lon="-0.0618">
        <ele>501.89</ele>
        <time>2021-06-06T00:49:20Z</time>
      </trkpt>
      <trkpt lat="43.06966" lon="-0.06263">
        <ele>500.22</ele>
        <time>2021-06-06T00:49:23Z</time>
      </trkpt>
      <trkpt lat="43.06982" lon="-0.06315">
        <ele>500.09</ele>
        <time>2021-06-06T00:49:26Z</time>
      </trkpt>
      <trkpt lat="43.06986" lon="-0.06336">
        <ele>500.66</ele>
        <time>2021-06-06T00:49:29Z</time>
      </trkpt>
      <trkpt lat="43.06987" lon="-0.06352">
        <ele>501.4</ele>
        <time>2021-06-06T00:49:32Z</time>
      </trkpt>
      <trkpt lat="43.06982" lon="-0.06408">
        <ele>504.7</ele>
        <time>2021-06-06T00:49:35Z</time>
      </trkpt>
      <trkpt lat="43.06975" lon="-0.0645">
        <ele>505.24</ele>
        <time>2021-06-06T00:49:38Z</time>
      </trkpt>
      <trkpt lat="43.06965" lon="-0.06496">
        <ele>505.51</ele>
        <time>2021-06-06T00:49:41Z</time>
      </trkpt>
      <trkpt lat="43.06977" lon="-0.06525">
        <ele>505.81</ele>
        <time>2021-06-06T00:49:44Z</time>
      </trkpt>
      <trkpt lat="43.06983" lon="-0.06572">
        <ele>509.72</ele>
        <time>2021-06-06T00:49:47Z</time>
      </trkpt>
      <trkpt lat="43.06982" lon="-0.06575">
        <ele>510.14</ele>
        <time>2021-06-06T00:49:50Z</time>
      </trkpt>
      <trkpt lat="43.06957" lon="-0.06595">
        <ele>512.36</ele>
        <time>2021-06-06T00:49:53Z</time>
      </trkpt>
      <trkpt lat="43.06945" lon="-0.06608">
        <ele>513.75</ele>
        <time>2021-06-06T00:49:56Z</time>
      </trkpt>
      <trkpt lat="43.06933" lon="-0.06631">
        <ele>515.48</ele>
        <time>2021-06-06T00:49:59Z</time>
      </trkpt>
      <trkpt lat="43.06931" lon="-0.06645">
        <ele>515.86</ele>
        <time>2021-06-06T00:50:02Z</time>
      </trkpt>
      <trkpt lat="43.06933" lon="-0.0666">
        <ele>515.34</ele>
        <time>2021-06-06T00:50:05Z</time>
      </trkpt>
      <trkpt lat="43.0694" lon="-0.06687">
        <ele>513.95</ele>
        <time>2021-06-06T00:50:08Z</time>
      </trkpt>
      <trkpt lat="43.0694" lon="-0.06695">
        <ele>513.85</ele>
        <time>2021-06-06T00:50:11Z</time>
      </trkpt>
      <trkpt lat="43.06933" lon="-0.0671">
        <ele>515.96</ele>
        <time>2021-06-06T00:50:14Z</time>
      </trkpt>
      <trkpt lat="43.06923" lon="-0.06746">
        <ele>517.44</ele>
        <time>2021-06-06T00:50:17Z</time>
      </trkpt>
      <trkpt lat="43.06912" lon="-0.06774">
        <ele>517.79</ele>
        <time>2021-06-06T00:50:20Z</time>
      </trkpt>
      <trkpt lat="43.06902" lon="-0.06794">
        <ele>518.87</ele>
        <time>2021-06-06T00:50:23Z</time>
      </trkpt>
      <trkpt lat="43.06891" lon="-0.06809">
        <ele>520.81</ele>
        <time>2021-06-06T00:50:26Z</time>
      </trkpt>
      <trkpt lat="43.06811" lon="-0.06916">
        <ele>540.59</ele>
        <time>2021-06-06T00:50:29Z</time>
      </trkpt>
      <trkpt lat="43.06771" lon="-0.06976">
        <ele>544.62</ele>
        <time>2021-06-06T00:50:32Z</time>
      </trkpt>
      <trkpt lat="43.06752" lon="-0.07035">
        <ele>543.56</ele>
        <time>2021-06-06T00:50:35Z</time>
      </trkpt>
      <trkpt lat="43.06744" lon="-0.07068">
        <ele>549</ele>
        <time>2021-06-06T00:50:38Z</time>
      </trkpt>
      <trkpt lat="43.06742" lon="-0.07084">
        <ele>551.45</ele>
        <time>2021-06-06T00:50:41Z</time>
      </trkpt>
      <trkpt lat="43.06776" lon="-0.07195">
        <ele>544.06</ele>
        <time>2021-06-06T00:50:44Z</time>
      </trkpt>
      <trkpt lat="43.06791" lon="-0.07231">
        <ele>546.63</ele>
        <time>2021-06-06T00:50:47Z</time>
      </trkpt>
      <trkpt lat="43.06853" lon="-0.07358">
        <ele>549.93</ele>
        <time>2021-06-06T00:50:50Z</time>
      </trkpt>
      <trkpt lat="43.06867" lon="-0.07381">
        <ele>551.87</ele>
        <time>2021-06-06T00:50:53Z</time>
      </trkpt>
      <trkpt lat="43.06929" lon="-0.07453">
        <ele>557.47</ele>
        <time>2021-06-06T00:50:56Z</time>
      </trkpt>
      <trkpt lat="43.07007" lon="-0.07532">
        <ele>560.89</ele>
        <time>2021-06-06T00:50:59Z</time>
      </trkpt>
      <trkpt lat="43.07013" lon="-0.07542">
        <ele>560.8</ele>
        <time>2021-06-06T00:51:02Z</time>
      </trkpt>
      <trkpt lat="43.07022" lon="-0.07561">
        <ele>560.81</ele>
        <time>2021-06-06T00:51:05Z</time>
      </trkpt>
      <trkpt lat="43.07041" lon="-0.07574">
        <ele>560.33</ele>
        <time>2021-06-06T00:51:08Z</time>
      </trkpt>
      <trkpt lat="43.07046" lon="-0.07608">
        <ele>562.47</ele>
        <time>2021-06-06T00:51:11Z</time>
      </trkpt>
      <trkpt lat="43.07053" lon="-0.07628">
        <ele>563.4</ele>
        <time>2021-06-06T00:51:13Z</time>
      </trkpt>
      <trkpt lat="43.07059" lon="-0.07642">
        <ele>563.82</ele>
        <time>2021-06-06T00:51:16Z</time>
      </trkpt>
      <trkpt lat="43.07061" lon="-0.07664">
        <ele>564.52</ele>
        <time>2021-06-06T00:51:18Z</time>
      </trkpt>
      <trkpt lat="43.07064" lon="-0.07677">
        <ele>564.89</ele>
        <time>2021-06-06T00:51:21Z</time>
      </trkpt>
      <trkpt lat="43.07076" lon="-0.07707">
        <ele>565.37</ele>
        <time>2021-06-06T00:51:23Z</time>
      </trkpt>
      <trkpt lat="43.07086" lon="-0.07716">
        <ele>564.98</ele>
        <time>2021-06-06T00:51:26Z</time>
      </trkpt>
      <trkpt lat="43.07091" lon="-0.07727">
        <ele>564.96</ele>
        <time>2021-06-06T00:51:29Z</time>
      </trkpt>
      <trkpt lat="43.07093" lon="-0.07777">
        <ele>562.73</ele>
        <time>2021-06-06T00:51:31Z</time>
      </trkpt>
      <trkpt lat="43.07104" lon="-0.07806">
        <ele>561.74</ele>
        <time>2021-06-06T00:51:34Z</time>
      </trkpt>
      <trkpt lat="43.07109" lon="-0.0781">
        <ele>561.29</ele>
        <time>2021-06-06T00:51:36Z</time>
      </trkpt>
      <trkpt lat="43.07125" lon="-0.07808">
        <ele>560.41</ele>
        <time>2021-06-06T00:51:39Z</time>
      </trkpt>
      <trkpt lat="43.07138" lon="-0.0781">
        <ele>559.73</ele>
        <time>2021-06-06T00:51:41Z</time>
      </trkpt>
      <trkpt lat="43.0716" lon="-0.07816">
        <ele>560.27</ele>
        <time>2021-06-06T00:51:44Z</time>
      </trkpt>
      <trkpt lat="43.07171" lon="-0.0782">
        <ele>559.93</ele>
        <time>2021-06-06T00:51:47Z</time>
      </trkpt>
      <trkpt lat="43.07192" lon="-0.07851">
        <ele>557.11</ele>
        <time>2021-06-06T00:51:49Z</time>
      </trkpt>
      <trkpt lat="43.07208" lon="-0.07865">
        <ele>555.29</ele>
        <time>2021-06-06T00:51:52Z</time>
      </trkpt>
      <trkpt lat="43.07235" lon="-0.07871">
        <ele>554.01</ele>
        <time>2021-06-06T00:51:54Z</time>
      </trkpt>
      <trkpt lat="43.07301" lon="-0.07873">
        <ele>549.45</ele>
        <time>2021-06-06T00:51:57Z</time>
      </trkpt>
      <trkpt lat="43.07388" lon="-0.07881">
        <ele>548</ele>
        <time>2021-06-06T00:51:59Z</time>
      </trkpt>
      <trkpt lat="43.07414" lon="-0.07847">
        <ele>547</ele>
        <time>2021-06-06T00:52:01Z</time>
      </trkpt>
      <trkpt lat="43.07428" lon="-0.07833">
        <ele>546.57</ele>
        <time>2021-06-06T00:52:03Z</time>
      </trkpt>
      <trkpt lat="43.07444" lon="-0.07829">
        <ele>545.72</ele>
        <time>2021-06-06T00:52:05Z</time>
      </trkpt>
      <trkpt lat="43.07504" lon="-0.07827">
        <ele>544.21</ele>
        <time>2021-06-06T00:52:07Z</time>
      </trkpt>
      <trkpt lat="43.07512" lon="-0.07823">
        <ele>543.2</ele>
        <time>2021-06-06T00:52:09Z</time>
      </trkpt>
      <trkpt lat="43.07553" lon="-0.07795">
        <ele>537.73</ele>
        <time>2021-06-06T00:52:11Z</time>
      </trkpt>
      <trkpt lat="43.07602" lon="-0.07773">
        <ele>536.41</ele>
        <time>2021-06-06T00:52:13Z</time>
      </trkpt>
      <trkpt lat="43.07633" lon="-0.07765">
        <ele>536.87</ele>
        <time>2021-06-06T00:52:15Z</time>
      </trkpt>
      <trkpt lat="43.07649" lon="-0.07757">
        <ele>536.86</ele>
        <time>2021-06-06T00:52:17Z</time>
      </trkpt>
      <trkpt lat="43.07666" lon="-0.07742">
        <ele>536.41</ele>
        <time>2021-06-06T00:52:19Z</time>
      </trkpt>
      <trkpt lat="43.07699" lon="-0.07697">
        <ele>531.33</ele>
        <time>2021-06-06T00:52:22Z</time>
      </trkpt>
      <trkpt lat="43.07727" lon="-0.07677">
        <ele>528.79</ele>
        <time>2021-06-06T00:52:24Z</time>
      </trkpt>
      <trkpt lat="43.07763" lon="-0.07655">
        <ele>528.2</ele>
        <time>2021-06-06T00:52:26Z</time>
      </trkpt>
      <trkpt lat="43.07777" lon="-0.07643">
        <ele>527.42</ele>
        <time>2021-06-06T00:52:28Z</time>
      </trkpt>
      <trkpt lat="43.07816" lon="-0.07592">
        <ele>526.79</ele>
        <time>2021-06-06T00:52:30Z</time>
      </trkpt>
      <trkpt lat="43.07846" lon="-0.07569">
        <ele>527.16</ele>
        <time>2021-06-06T00:52:32Z</time>
      </trkpt>
      <trkpt lat="43.07874" lon="-0.0754">
        <ele>528.2</ele>
        <time>2021-06-06T00:52:34Z</time>
      </trkpt>
      <trkpt lat="43.07904" lon="-0.07519">
        <ele>529.52</ele>
        <time>2021-06-06T00:52:36Z</time>
      </trkpt>
      <trkpt lat="43.07933" lon="-0.07483">
        <ele>527.46</ele>
        <time>2021-06-06T00:52:38Z</time>
      </trkpt>
      <trkpt lat="43.07984" lon="-0.07454">
        <ele>526.46</ele>
        <time>2021-06-06T00:52:40Z</time>
      </trkpt>
      <trkpt lat="43.07999" lon="-0.07441">
        <ele>527.79</ele>
        <time>2021-06-06T00:52:42Z</time>
      </trkpt>
      <trkpt lat="43.08019" lon="-0.07416">
        <ele>528.98</ele>
        <time>2021-06-06T00:52:44Z</time>
      </trkpt>
      <trkpt lat="43.08042" lon="-0.07398">
        <ele>530</ele>
        <time>2021-06-06T00:52:46Z</time>
      </trkpt>
      <trkpt lat="43.0805" lon="-0.07385">
        <ele>529.79</ele>
        <time>2021-06-06T00:52:48Z</time>
      </trkpt>
      <trkpt lat="43.08059" lon="-0.07363">
        <ele>529.89</ele>
        <time>2021-06-06T00:52:50Z</time>
      </trkpt>
      <trkpt lat="43.08068" lon="-0.07329">
        <ele>527.83</ele>
        <time>2021-06-06T00:52:52Z</time>
      </trkpt>
      <trkpt lat="43.08069" lon="-0.07313">
        <ele>527.25</ele>
        <time>2021-06-06T00:52:54Z</time>
      </trkpt>
      <trkpt lat="43.08066" lon="-0.07272">
        <ele>524.88</ele>
        <time>2021-06-06T00:52:56Z</time>
      </trkpt>
      <trkpt lat="43.08069" lon="-0.0726">
        <ele>524.38</ele>
        <time>2021-06-06T00:52:58Z</time>
      </trkpt>
      <trkpt lat="43.08074" lon="-0.07251">
        <ele>523.37</ele>
        <time>2021-06-06T00:53:00Z</time>
      </trkpt>
      <trkpt lat="43.0808" lon="-0.07246">
        <ele>522.09</ele>
        <time>2021-06-06T00:53:02Z</time>
      </trkpt>
      <trkpt lat="43.08091" lon="-0.07245">
        <ele>521.23</ele>
        <time>2021-06-06T00:53:04Z</time>
      </trkpt>
      <trkpt lat="43.08144" lon="-0.07272">
        <ele>518.36</ele>
        <time>2021-06-06T00:53:06Z</time>
      </trkpt>
      <trkpt lat="43.08153" lon="-0.07274">
        <ele>516.53</ele>
        <time>2021-06-06T00:53:08Z</time>
      </trkpt>
      <trkpt lat="43.08178" lon="-0.07269">
        <ele>514.67</ele>
        <time>2021-06-06T00:53:10Z</time>
      </trkpt>
      <trkpt lat="43.08192" lon="-0.07268">
        <ele>514.74</ele>
        <time>2021-06-06T00:53:12Z</time>
      </trkpt>
      <trkpt lat="43.08213" lon="-0.07271">
        <ele>512.97</ele>
        <time>2021-06-06T00:53:14Z</time>
      </trkpt>
      <trkpt lat="43.08253" lon="-0.07281">
        <ele>514.23</ele>
        <time>2021-06-06T00:53:16Z</time>
      </trkpt>
      <trkpt lat="43.08269" lon="-0.0728">
        <ele>517.18</ele>
        <time>2021-06-06T00:53:18Z</time>
      </trkpt>
      <trkpt lat="43.08285" lon="-0.07275">
        <ele>519.8</ele>
        <time>2021-06-06T00:53:20Z</time>
      </trkpt>
      <trkpt lat="43.08305" lon="-0.07279">
        <ele>519.69</ele>
        <time>2021-06-06T00:53:22Z</time>
      </trkpt>
      <trkpt lat="43.08355" lon="-0.07304">
        <ele>516.32</ele>
        <time>2021-06-06T00:53:24Z</time>
      </trkpt>
      <trkpt lat="43.08393" lon="-0.07336">
        <ele>507.39</ele>
        <time>2021-06-06T00:53:26Z</time>
      </trkpt>
      <trkpt lat="43.08424" lon="-0.07349">
        <ele>508.48</ele>
        <time>2021-06-06T00:53:28Z</time>
      </trkpt>
      <trkpt lat="43.08475" lon="-0.0735">
        <ele>509.49</ele>
        <time>2021-06-06T00:53:30Z</time>
      </trkpt>
      <trkpt lat="43.08567" lon="-0.07339">
        <ele>513.03</ele>
        <time>2021-06-06T00:53:32Z</time>
      </trkpt>
      <trkpt lat="43.08577" lon="-0.07339">
        <ele>514.26</ele>
        <time>2021-06-06T00:53:34Z</time>
      </trkpt>
      <trkpt lat="43.0859" lon="-0.07343">
        <ele>515.1</ele>
        <time>2021-06-06T00:53:36Z</time>
      </trkpt>
      <trkpt lat="43.08618" lon="-0.07358">
        <ele>511.74</ele>
        <time>2021-06-06T00:53:38Z</time>
      </trkpt>
      <trkpt lat="43.08642" lon="-0.07368">
        <ele>505.55</ele>
        <time>2021-06-06T00:53:40Z</time>
      </trkpt>
      <trkpt lat="43.08687" lon="-0.07377">
        <ele>498.8</ele>
        <time>2021-06-06T00:53:42Z</time>
      </trkpt>
      <trkpt lat="43.08708" lon="-0.07372">
        <ele>497.93</ele>
        <time>2021-06-06T00:53:44Z</time>
      </trkpt>
      <trkpt lat="43.08726" lon="-0.07362">
        <ele>497.88</ele>
        <time>2021-06-06T00:53:46Z</time>
      </trkpt>
      <trkpt lat="43.08735" lon="-0.07354">
        <ele>498.7</ele>
        <time>2021-06-06T00:53:48Z</time>
      </trkpt>
      <trkpt lat="43.08744" lon="-0.0735">
        <ele>497.88</ele>
        <time>2021-06-06T00:53:50Z</time>
      </trkpt>
      <trkpt lat="43.08753" lon="-0.0735">
        <ele>495.81</ele>
        <time>2021-06-06T00:53:52Z</time>
      </trkpt>
      <trkpt lat="43.0876" lon="-0.07348">
        <ele>495.34</ele>
        <time>2021-06-06T00:53:54Z</time>
      </trkpt>
      <trkpt lat="43.08771" lon="-0.07338">
        <ele>497.39</ele>
        <time>2021-06-06T00:53:56Z</time>
      </trkpt>
      <trkpt lat="43.0878" lon="-0.07334">
        <ele>497.36</ele>
        <time>2021-06-06T00:53:58Z</time>
      </trkpt>
      <trkpt lat="43.08788" lon="-0.07337">
        <ele>495.38</ele>
        <time>2021-06-06T00:54:00Z</time>
      </trkpt>
      <trkpt lat="43.08805" lon="-0.07348">
        <ele>489.21</ele>
        <time>2021-06-06T00:54:02Z</time>
      </trkpt>
      <trkpt lat="43.08821" lon="-0.0735">
        <ele>487.97</ele>
        <time>2021-06-06T00:54:04Z</time>
      </trkpt>
      <trkpt lat="43.08858" lon="-0.07349">
        <ele>485.9</ele>
        <time>2021-06-06T00:54:06Z</time>
      </trkpt>
      <trkpt lat="43.08901" lon="-0.07353">
        <ele>483.73</ele>
        <time>2021-06-06T00:54:08Z</time>
      </trkpt>
      <trkpt lat="43.08996" lon="-0.07375">
        <ele>473.68</ele>
        <time>2021-06-06T00:54:10Z</time>
      </trkpt>
      <trkpt lat="43.09022" lon="-0.07378">
        <ele>474.01</ele>
        <time>2021-06-06T00:54:12Z</time>
      </trkpt>
      <trkpt lat="43.0906" lon="-0.07397">
        <ele>467.35</ele>
        <time>2021-06-06T00:54:14Z</time>
      </trkpt>
      <trkpt lat="43.09143" lon="-0.07427">
        <ele>463.97</ele>
        <time>2021-06-06T00:54:16Z</time>
      </trkpt>
      <trkpt lat="43.09198" lon="-0.0744">
        <ele>460.76</ele>
        <time>2021-06-06T00:54:18Z</time>
      </trkpt>
      <trkpt lat="43.09286" lon="-0.07466">
        <ele>451.85</ele>
        <time>2021-06-06T00:54:20Z</time>
      </trkpt>
      <trkpt lat="43.09303" lon="-0.07474">
        <ele>448.6</ele>
        <time>2021-06-06T00:54:22Z</time>
      </trkpt>
      <trkpt lat="43.0932" lon="-0.07486">
        <ele>449.25</ele>
        <time>2021-06-06T00:54:24Z</time>
      </trkpt>
      <trkpt lat="43.09388" lon="-0.07552">
        <ele>439.04</ele>
        <time>2021-06-06T00:54:26Z</time>
      </trkpt>
      <trkpt lat="43.09422" lon="-0.07581">
        <ele>436.02</ele>
        <time>2021-06-06T00:54:28Z</time>
      </trkpt>
      <trkpt lat="43.0947" lon="-0.07603">
        <ele>433.2</ele>
        <time>2021-06-06T00:54:30Z</time>
      </trkpt>
      <trkpt lat="43.09485" lon="-0.07607">
        <ele>431.92</ele>
        <time>2021-06-06T00:54:32Z</time>
      </trkpt>
      <trkpt lat="43.09494" lon="-0.07607">
        <ele>431.55</ele>
        <time>2021-06-06T00:54:34Z</time>
      </trkpt>
      <trkpt lat="43.0951" lon="-0.076">
        <ele>431.64</ele>
        <time>2021-06-06T00:54:37Z</time>
      </trkpt>
      <trkpt lat="43.09518" lon="-0.07589">
        <ele>433.27</ele>
        <time>2021-06-06T00:54:39Z</time>
      </trkpt>
      <trkpt lat="43.09546" lon="-0.07533">
        <ele>434.18</ele>
        <time>2021-06-06T00:54:41Z</time>
      </trkpt>
      <trkpt lat="43.09544" lon="-0.07554">
        <ele>432.27</ele>
        <time>2021-06-06T00:54:42Z</time>
      </trkpt>
      <trkpt lat="43.09525" lon="-0.07597">
        <ele>429.48</ele>
        <time>2021-06-06T00:54:44Z</time>
      </trkpt>
      <trkpt lat="43.09513" lon="-0.07614">
        <ele>427.11</ele>
        <time>2021-06-06T00:54:45Z</time>
      </trkpt>
      <trkpt lat="43.09501" lon="-0.07624">
        <ele>427.07</ele>
        <time>2021-06-06T00:54:47Z</time>
      </trkpt>
      <trkpt lat="43.09476" lon="-0.07638">
        <ele>428.42</ele>
        <time>2021-06-06T00:54:49Z</time>
      </trkpt>
      <trkpt lat="43.09468" lon="-0.07651">
        <ele>429.05</ele>
        <time>2021-06-06T00:54:50Z</time>
      </trkpt>
      <trkpt lat="43.09462" lon="-0.0768">
        <ele>434.55</ele>
        <time>2021-06-06T00:54:52Z</time>
      </trkpt>
      <trkpt lat="43.09466" lon="-0.0769">
        <ele>435.2</ele>
        <time>2021-06-06T00:54:53Z</time>
      </trkpt>
      <trkpt lat="43.09478" lon="-0.07716">
        <ele>432.99</ele>
        <time>2021-06-06T00:54:55Z</time>
      </trkpt>
      <trkpt lat="43.09502" lon="-0.07738">
        <ele>428.88</ele>
        <time>2021-06-06T00:54:57Z</time>
      </trkpt>
      <trkpt lat="43.09521" lon="-0.07766">
        <ele>428.52</ele>
        <time>2021-06-06T00:54:58Z</time>
      </trkpt>
      <trkpt lat="43.09539" lon="-0.0783">
        <ele>432.04</ele>
        <time>2021-06-06T00:55:00Z</time>
      </trkpt>
      <trkpt lat="43.09548" lon="-0.07875">
        <ele>435.08</ele>
        <time>2021-06-06T00:55:01Z</time>
      </trkpt>
      <trkpt lat="43.09567" lon="-0.07917">
        <ele>433.58</ele>
        <time>2021-06-06T00:55:04Z</time>
      </trkpt>
      <trkpt lat="43.09585" lon="-0.07963">
        <ele>432.07</ele>
        <time>2021-06-06T00:55:06Z</time>
      </trkpt>
      <trkpt lat="43.09596" lon="-0.0801">
        <ele>432.39</ele>
        <time>2021-06-06T00:55:09Z</time>
      </trkpt>
      <trkpt lat="43.09647" lon="-0.08242">
        <ele>430.89</ele>
        <time>2021-06-06T00:55:13Z</time>
      </trkpt>
      <trkpt lat="43.09664" lon="-0.08309">
        <ele>431.1</ele>
        <time>2021-06-06T00:55:18Z</time>
      </trkpt>
      <trkpt lat="43.09669" lon="-0.08336">
        <ele>430.99</ele>
        <time>2021-06-06T00:55:22Z</time>
      </trkpt>
      <trkpt lat="43.09669" lon="-0.08366">
        <ele>430.91</ele>
        <time>2021-06-06T00:55:27Z</time>
      </trkpt>
      <trkpt lat="43.09665" lon="-0.08396">
        <ele>431.56</ele>
        <time>2021-06-06T00:55:29Z</time>
      </trkpt>
      <trkpt lat="43.09668" lon="-0.08447">
        <ele>431.79</ele>
        <time>2021-06-06T00:55:32Z</time>
      </trkpt>
      <trkpt lat="43.09708" lon="-0.08599">
        <ele>433.33</ele>
        <time>2021-06-06T00:55:35Z</time>
      </trkpt>
      <trkpt lat="43.09711" lon="-0.08617">
        <ele>433.05</ele>
        <time>2021-06-06T00:55:38Z</time>
      </trkpt>
      <trkpt lat="43.09712" lon="-0.08635">
        <ele>432.3</ele>
        <time>2021-06-06T00:55:41Z</time>
      </trkpt>
      <trkpt lat="43.09696" lon="-0.08779">
        <ele>430.93</ele>
        <time>2021-06-06T00:55:44Z</time>
      </trkpt>
      <trkpt lat="43.09688" lon="-0.08827">
        <ele>431.08</ele>
        <time>2021-06-06T00:55:47Z</time>
      </trkpt>
      <trkpt lat="43.09686" lon="-0.08857">
        <ele>431.51</ele>
        <time>2021-06-06T00:55:50Z</time>
      </trkpt>
      <trkpt lat="43.09687" lon="-0.08889">
        <ele>432.38</ele>
        <time>2021-06-06T00:55:53Z</time>
      </trkpt>
      <trkpt lat="43.09695" lon="-0.08931">
        <ele>431.93</ele>
        <time>2021-06-06T00:55:56Z</time>
      </trkpt>
      <trkpt lat="43.09743" lon="-0.09004">
        <ele>428.9</ele>
        <time>2021-06-06T00:55:58Z</time>
      </trkpt>
      <trkpt lat="43.09748" lon="-0.09012">
        <ele>428.6</ele>
        <time>2021-06-06T00:56:01Z</time>
      </trkpt>
      <trkpt lat="43.09753" lon="-0.09026">
        <ele>427.85</ele>
        <time>2021-06-06T00:56:04Z</time>
      </trkpt>
      <trkpt lat="43.09779" lon="-0.09244">
        <ele>419.92</ele>
        <time>2021-06-06T00:56:07Z</time>
      </trkpt>
      <trkpt lat="43.09778" lon="-0.09257">
        <ele>419.73</ele>
        <time>2021-06-06T00:56:10Z</time>
      </trkpt>
      <trkpt lat="43.09775" lon="-0.09263">
        <ele>419.81</ele>
        <time>2021-06-06T00:56:13Z</time>
      </trkpt>
      <trkpt lat="43.09766" lon="-0.09268">
        <ele>420.42</ele>
        <time>2021-06-06T00:56:16Z</time>
      </trkpt>
      <trkpt lat="43.09708" lon="-0.09286">
        <ele>423.59</ele>
        <time>2021-06-06T00:56:19Z</time>
      </trkpt>
      <trkpt lat="43.09707" lon="-0.09392">
        <ele>423.59</ele>
        <time>2021-06-06T00:56:22Z</time>
      </trkpt>
      <trkpt lat="43.09695" lon="-0.09474">
        <ele>427.12</ele>
        <time>2021-06-06T00:56:26Z</time>
      </trkpt>
      <trkpt lat="43.09674" lon="-0.09586">
        <ele>430.73</ele>
        <time>2021-06-06T00:56:30Z</time>
      </trkpt>
      <trkpt lat="43.09659" lon="-0.09847">
        <ele>436.5</ele>
        <time>2021-06-06T00:56:35Z</time>
      </trkpt>
      <trkpt lat="43.09648" lon="-0.09895">
        <ele>439.79</ele>
        <time>2021-06-06T00:56:39Z</time>
      </trkpt>
      <trkpt lat="43.09623" lon="-0.09968">
        <ele>443.74</ele>
        <time>2021-06-06T00:56:43Z</time>
      </trkpt>
      <trkpt lat="43.09578" lon="-0.10077">
        <ele>443.4</ele>
        <time>2021-06-06T00:56:48Z</time>
      </trkpt>
      <trkpt lat="43.0948" lon="-0.10325">
        <ele>437.64</ele>
        <time>2021-06-06T00:56:52Z</time>
      </trkpt>
      <trkpt lat="43.09466" lon="-0.10363">
        <ele>438.1</ele>
        <time>2021-06-06T00:56:56Z</time>
      </trkpt>
      <trkpt lat="43.0946" lon="-0.10399">
        <ele>437.08</ele>
        <time>2021-06-06T00:57:01Z</time>
      </trkpt>
      <trkpt lat="43.09462" lon="-0.10435">
        <ele>436.89</ele>
        <time>2021-06-06T00:57:05Z</time>
      </trkpt>
      <trkpt lat="43.09468" lon="-0.10482">
        <ele>436</ele>
        <time>2021-06-06T00:57:09Z</time>
      </trkpt>
      <trkpt lat="43.0949" lon="-0.10626">
        <ele>431.17</ele>
        <time>2021-06-06T00:57:14Z</time>
      </trkpt>
      <trkpt lat="43.09489" lon="-0.10748">
        <ele>422.53</ele>
        <time>2021-06-06T00:57:18Z</time>
      </trkpt>
      <trkpt lat="43.09484" lon="-0.10836">
        <ele>421.88</ele>
        <time>2021-06-06T00:57:22Z</time>
      </trkpt>
      <trkpt lat="43.09472" lon="-0.10892">
        <ele>420.91</ele>
        <time>2021-06-06T00:57:27Z</time>
      </trkpt>
      <trkpt lat="43.09454" lon="-0.10957">
        <ele>419.08</ele>
        <time>2021-06-06T00:57:31Z</time>
      </trkpt>
      <trkpt lat="43.09434" lon="-0.11022">
        <ele>416.18</ele>
        <time>2021-06-06T00:57:35Z</time>
      </trkpt>
      <trkpt lat="43.09431" lon="-0.11043">
        <ele>415.5</ele>
        <time>2021-06-06T00:57:40Z</time>
      </trkpt>
      <trkpt lat="43.09433" lon="-0.11078">
        <ele>413.66</ele>
        <time>2021-06-06T00:57:44Z</time>
      </trkpt>
      <trkpt lat="43.09472" lon="-0.11303">
        <ele>412.51</ele>
        <time>2021-06-06T00:57:48Z</time>
      </trkpt>
      <trkpt lat="43.09491" lon="-0.1137">
        <ele>416.37</ele>
        <time>2021-06-06T00:57:53Z</time>
      </trkpt>
      <trkpt lat="43.09514" lon="-0.11442">
        <ele>420.44</ele>
        <time>2021-06-06T00:57:57Z</time>
      </trkpt>
      <trkpt lat="43.09514" lon="-0.1146">
        <ele>418.55</ele>
        <time>2021-06-06T00:58:01Z</time>
      </trkpt>
      <trkpt lat="43.09512" lon="-0.11478">
        <ele>416.3</ele>
        <time>2021-06-06T00:58:06Z</time>
      </trkpt>
      <trkpt lat="43.09496" lon="-0.11535">
        <ele>409.45</ele>
        <time>2021-06-06T00:58:10Z</time>
      </trkpt>
      <trkpt lat="43.09509" lon="-0.11589">
        <ele>409.58</ele>
        <time>2021-06-06T00:58:12Z</time>
      </trkpt>
      <trkpt lat="43.09516" lon="-0.11614">
        <ele>410.31</ele>
        <time>2021-06-06T00:58:14Z</time>
      </trkpt>
      <trkpt lat="43.09515" lon="-0.11628">
        <ele>412.54</ele>
        <time>2021-06-06T00:58:16Z</time>
      </trkpt>
      <trkpt lat="43.0952" lon="-0.11655">
        <ele>415.94</ele>
        <time>2021-06-06T00:58:18Z</time>
      </trkpt>
      <trkpt lat="43.09548" lon="-0.11711">
        <ele>415.83</ele>
        <time>2021-06-06T00:58:20Z</time>
      </trkpt>
      <trkpt lat="43.09553" lon="-0.11732">
        <ele>415.97</ele>
        <time>2021-06-06T00:58:22Z</time>
      </trkpt>
      <trkpt lat="43.0956" lon="-0.11777">
        <ele>414.24</ele>
        <time>2021-06-06T00:58:25Z</time>
      </trkpt>
      <trkpt lat="43.09559" lon="-0.118">
        <ele>414.47</ele>
        <time>2021-06-06T00:58:27Z</time>
      </trkpt>
      <trkpt lat="43.09555" lon="-0.11819">
        <ele>414.81</ele>
        <time>2021-06-06T00:58:29Z</time>
      </trkpt>
      <trkpt lat="43.09517" lon="-0.11905">
        <ele>427.96</ele>
        <time>2021-06-06T00:58:31Z</time>
      </trkpt>
      <trkpt lat="43.09517" lon="-0.11912">
        <ele>428.39</ele>
        <time>2021-06-06T00:58:33Z</time>
      </trkpt>
      <trkpt lat="43.09518" lon="-0.11917">
        <ele>428.13</ele>
        <time>2021-06-06T00:58:35Z</time>
      </trkpt>
      <trkpt lat="43.09529" lon="-0.11932">
        <ele>423.77</ele>
        <time>2021-06-06T00:58:37Z</time>
      </trkpt>
      <trkpt lat="43.0959" lon="-0.11981">
        <ele>404.87</ele>
        <time>2021-06-06T00:58:39Z</time>
      </trkpt>
      <trkpt lat="43.096" lon="-0.11996">
        <ele>402.03</ele>
        <time>2021-06-06T00:58:41Z</time>
      </trkpt>
      <trkpt lat="43.09607" lon="-0.12017">
        <ele>399.42</ele>
        <time>2021-06-06T00:58:43Z</time>
      </trkpt>
      <trkpt lat="43.0961" lon="-0.12032">
        <ele>398.25</ele>
        <time>2021-06-06T00:58:46Z</time>
      </trkpt>
      <trkpt lat="43.09609" lon="-0.12055">
        <ele>397.66</ele>
        <time>2021-06-06T00:58:48Z</time>
      </trkpt>
      <trkpt lat="43.09556" lon="-0.12164">
        <ele>394.21</ele>
        <time>2021-06-06T00:58:50Z</time>
      </trkpt>
      <trkpt lat="43.09554" lon="-0.12178">
        <ele>392.43</ele>
        <time>2021-06-06T00:58:52Z</time>
      </trkpt>
      <trkpt lat="43.09555" lon="-0.12187">
        <ele>391.08</ele>
        <time>2021-06-06T00:58:54Z</time>
      </trkpt>
      <trkpt lat="43.09558" lon="-0.12197">
        <ele>389.55</ele>
        <time>2021-06-06T00:58:56Z</time>
      </trkpt>
      <trkpt lat="43.09587" lon="-0.12233">
        <ele>386.12</ele>
        <time>2021-06-06T00:58:58Z</time>
      </trkpt>
      <trkpt lat="43.09595" lon="-0.12245">
        <ele>386.01</ele>
        <time>2021-06-06T00:59:00Z</time>
      </trkpt>
      <trkpt lat="43.09598" lon="-0.12256">
        <ele>386.32</ele>
        <time>2021-06-06T00:59:02Z</time>
      </trkpt>
      <trkpt lat="43.09607" lon="-0.12309">
        <ele>389.34</ele>
        <time>2021-06-06T00:59:04Z</time>
      </trkpt>
      <trkpt lat="43.09615" lon="-0.12407">
        <ele>384.92</ele>
        <time>2021-06-06T00:59:07Z</time>
      </trkpt>
      <trkpt lat="43.0962" lon="-0.12434">
        <ele>384.45</ele>
        <time>2021-06-06T00:59:09Z</time>
      </trkpt>
      <trkpt lat="43.09629" lon="-0.12458">
        <ele>383.34</ele>
        <time>2021-06-06T00:59:11Z</time>
      </trkpt>
      <trkpt lat="43.09655" lon="-0.125">
        <ele>380.65</ele>
        <time>2021-06-06T00:59:13Z</time>
      </trkpt>
      <trkpt lat="43.09675" lon="-0.12528">
        <ele>379.31</ele>
        <time>2021-06-06T00:59:15Z</time>
      </trkpt>
      <trkpt lat="43.09687" lon="-0.12561">
        <ele>381.16</ele>
        <time>2021-06-06T00:59:17Z</time>
      </trkpt>
      <trkpt lat="43.09718" lon="-0.12638">
        <ele>379.43</ele>
        <time>2021-06-06T00:59:19Z</time>
      </trkpt>
      <trkpt lat="43.09731" lon="-0.12682">
        <ele>379.71</ele>
        <time>2021-06-06T00:59:21Z</time>
      </trkpt>
      <trkpt lat="43.09743" lon="-0.12746">
        <ele>382.99</ele>
        <time>2021-06-06T00:59:23Z</time>
      </trkpt>
      <trkpt lat="43.09758" lon="-0.12796">
        <ele>383</ele>
        <time>2021-06-06T00:59:25Z</time>
      </trkpt>
      <trkpt lat="43.09762" lon="-0.12807">
        <ele>383.39</ele>
        <time>2021-06-06T00:59:28Z</time>
      </trkpt>
      <trkpt lat="43.09784" lon="-0.12838">
        <ele>376.89</ele>
        <time>2021-06-06T00:59:30Z</time>
      </trkpt>
      <trkpt lat="43.09787" lon="-0.12847">
        <ele>375.66</ele>
        <time>2021-06-06T00:59:32Z</time>
      </trkpt>
      <trkpt lat="43.09791" lon="-0.12876">
        <ele>376.51</ele>
        <time>2021-06-06T00:59:34Z</time>
      </trkpt>
      <trkpt lat="43.09792" lon="-0.12997">
        <ele>388.74</ele>
        <time>2021-06-06T00:59:36Z</time>
      </trkpt>
      <trkpt lat="43.09793" lon="-0.13007">
        <ele>389.85</ele>
        <time>2021-06-06T00:59:38Z</time>
      </trkpt>
      <trkpt lat="43.09796" lon="-0.13019">
        <ele>389.94</ele>
        <time>2021-06-06T00:59:40Z</time>
      </trkpt>
      <trkpt lat="43.09813" lon="-0.13067">
        <ele>387.58</ele>
        <time>2021-06-06T00:59:42Z</time>
      </trkpt>
      <trkpt lat="43.09828" lon="-0.131">
        <ele>380.98</ele>
        <time>2021-06-06T00:59:44Z</time>
      </trkpt>
      <trkpt lat="43.09863" lon="-0.13172">
        <ele>367.53</ele>
        <time>2021-06-06T00:59:46Z</time>
      </trkpt>
      <trkpt lat="43.09886" lon="-0.13205">
        <ele>362.95</ele>
        <time>2021-06-06T00:59:49Z</time>
      </trkpt>
      <trkpt lat="43.09912" lon="-0.13238">
        <ele>359.54</ele>
        <time>2021-06-06T00:59:51Z</time>
      </trkpt>
      <trkpt lat="43.0993" lon="-0.1327">
        <ele>359.63</ele>
        <time>2021-06-06T00:59:53Z</time>
      </trkpt>
      <trkpt lat="43.09949" lon="-0.13313">
        <ele>360.38</ele>
        <time>2021-06-06T00:59:55Z</time>
      </trkpt>
      <trkpt lat="43.09967" lon="-0.13385">
        <ele>356.69</ele>
        <time>2021-06-06T00:59:57Z</time>
      </trkpt>
      <trkpt lat="43.09983" lon="-0.13435">
        <ele>358.29</ele>
        <time>2021-06-06T00:59:59Z</time>
      </trkpt>
      <trkpt lat="43.09999" lon="-0.13468">
        <ele>359.67</ele>
        <time>2021-06-06T01:00:01Z</time>
      </trkpt>
      <trkpt lat="43.10004" lon="-0.13484">
        <ele>360.54</ele>
        <time>2021-06-06T01:00:03Z</time>
      </trkpt>
      <trkpt lat="43.10007" lon="-0.13506">
        <ele>361.68</ele>
        <time>2021-06-06T01:00:05Z</time>
      </trkpt>
      <trkpt lat="43.10006" lon="-0.13529">
        <ele>362.54</ele>
        <time>2021-06-06T01:00:07Z</time>
      </trkpt>
      <trkpt lat="43.10004" lon="-0.13541">
        <ele>362.69</ele>
        <time>2021-06-06T01:00:10Z</time>
      </trkpt>
      <trkpt lat="43.0999" lon="-0.13584">
        <ele>361.62</ele>
        <time>2021-06-06T01:00:12Z</time>
      </trkpt>
      <trkpt lat="43.09958" lon="-0.1372">
        <ele>360.02</ele>
        <time>2021-06-06T01:00:14Z</time>
      </trkpt>
      <trkpt lat="43.09944" lon="-0.1383">
        <ele>356.89</ele>
        <time>2021-06-06T01:00:16Z</time>
      </trkpt>
      <trkpt lat="43.09969" lon="-0.1384">
        <ele>357.86</ele>
        <time>2021-06-06T01:00:18Z</time>
      </trkpt>
      <trkpt lat="43.0998" lon="-0.13843">
        <ele>358.29</ele>
        <time>2021-06-06T01:00:21Z</time>
      </trkpt>
      <trkpt lat="43.09997" lon="-0.13843">
        <ele>358.91</ele>
        <time>2021-06-06T01:00:24Z</time>
      </trkpt>
      <trkpt lat="43.10009" lon="-0.13845">
        <ele>359.14</ele>
        <time>2021-06-06T01:00:26Z</time>
      </trkpt>
      <trkpt lat="43.10018" lon="-0.13851">
        <ele>359.4</ele>
        <time>2021-06-06T01:00:29Z</time>
      </trkpt>
      <trkpt lat="43.10023" lon="-0.13862">
        <ele>359.79</ele>
        <time>2021-06-06T01:00:32Z</time>
      </trkpt>
      <trkpt lat="43.10024" lon="-0.13874">
        <ele>359.53</ele>
        <time>2021-06-06T01:00:34Z</time>
      </trkpt>
      <trkpt lat="43.10019" lon="-0.13929">
        <ele>357.95</ele>
        <time>2021-06-06T01:00:37Z</time>
      </trkpt>
      <trkpt lat="43.10019" lon="-0.13981">
        <ele>356.24</ele>
        <time>2021-06-06T01:00:39Z</time>
      </trkpt>
      <trkpt lat="43.10022" lon="-0.14006">
        <ele>356.38</ele>
        <time>2021-06-06T01:00:42Z</time>
      </trkpt>
      <trkpt lat="43.10023" lon="-0.14046">
        <ele>357.23</ele>
        <time>2021-06-06T01:00:45Z</time>
      </trkpt>
      <trkpt lat="43.10027" lon="-0.14065">
        <ele>357.94</ele>
        <time>2021-06-06T01:00:47Z</time>
      </trkpt>
      <trkpt lat="43.10029" lon="-0.14068">
        <ele>358.05</ele>
        <time>2021-06-06T01:00:50Z</time>
      </trkpt>
      <trkpt lat="43.10042" lon="-0.14077">
        <ele>358.9</ele>
        <time>2021-06-06T01:00:52Z</time>
      </trkpt>
      <trkpt lat="43.10051" lon="-0.14086">
        <ele>359.67</ele>
        <time>2021-06-06T01:00:55Z</time>
      </trkpt>
      <trkpt lat="43.10054" lon="-0.14098">
        <ele>359.89</ele>
        <time>2021-06-06T01:00:58Z</time>
      </trkpt>
      <trkpt lat="43.10055" lon="-0.14116">
        <ele>359.97</ele>
        <time>2021-06-06T01:01:00Z</time>
      </trkpt>
      <trkpt lat="43.10054" lon="-0.14174">
        <ele>357.72</ele>
        <time>2021-06-06T01:01:03Z</time>
      </trkpt>
      <trkpt lat="43.10069" lon="-0.14187">
        <ele>356.79</ele>
        <time>2021-06-06T01:01:06Z</time>
      </trkpt>
      <trkpt lat="43.10136" lon="-0.14193">
        <ele>353.16</ele>
        <time>2021-06-06T01:01:08Z</time>
      </trkpt>
      <trkpt lat="43.10175" lon="-0.14225">
        <ele>351.39</ele>
        <time>2021-06-06T01:01:11Z</time>
      </trkpt>
      <trkpt lat="43.10224" lon="-0.14292">
        <ele>344.92</ele>
        <time>2021-06-06T01:01:13Z</time>
      </trkpt>
      <trkpt lat="43.10261" lon="-0.14329">
        <ele>345.08</ele>
        <time>2021-06-06T01:01:16Z</time>
      </trkpt>
      <trkpt lat="43.10274" lon="-0.1435">
        <ele>347.77</ele>
        <time>2021-06-06T01:01:19Z</time>
      </trkpt>
      <trkpt lat="43.10293" lon="-0.14404">
        <ele>352.16</ele>
        <time>2021-06-06T01:01:21Z</time>
      </trkpt>
      <trkpt lat="43.10303" lon="-0.14422">
        <ele>354.49</ele>
        <time>2021-06-06T01:01:24Z</time>
      </trkpt>
      <trkpt lat="43.10307" lon="-0.14426">
        <ele>355.67</ele>
        <time>2021-06-06T01:01:26Z</time>
      </trkpt>
      <trkpt lat="43.10314" lon="-0.14423">
        <ele>356.52</ele>
        <time>2021-06-06T01:01:29Z</time>
      </trkpt>
      <trkpt lat="43.10334" lon="-0.14393">
        <ele>357.48</ele>
        <time>2021-06-06T01:01:32Z</time>
      </trkpt>
      <trkpt lat="43.1036" lon="-0.14336">
        <ele>355.44</ele>
        <time>2021-06-06T01:01:34Z</time>
      </trkpt>
      <trkpt lat="43.10365" lon="-0.14329">
        <ele>354.41</ele>
        <time>2021-06-06T01:01:37Z</time>
      </trkpt>
      <trkpt lat="43.10369" lon="-0.14327">
        <ele>354.74</ele>
        <time>2021-06-06T01:01:39Z</time>
      </trkpt>
      <trkpt lat="43.10377" lon="-0.14328">
        <ele>356.38</ele>
        <time>2021-06-06T01:01:42Z</time>
      </trkpt>
      <trkpt lat="43.10316" lon="-0.1445">
        <ele>361.44</ele>
        <time>2021-06-06T01:01:48Z</time>
      </trkpt>
      <trkpt lat="43.10294" lon="-0.14489">
        <ele>365.01</ele>
        <time>2021-06-06T01:01:54Z</time>
      </trkpt>
      <trkpt lat="43.10247" lon="-0.14559">
        <ele>363.13</ele>
        <time>2021-06-06T01:02:01Z</time>
      </trkpt>
      <trkpt lat="43.10224" lon="-0.14597">
        <ele>364.98</ele>
        <time>2021-06-06T01:02:07Z</time>
      </trkpt>
      <trkpt lat="43.10202" lon="-0.14643">
        <ele>364.31</ele>
        <time>2021-06-06T01:02:13Z</time>
      </trkpt>
      <trkpt lat="43.10186" lon="-0.14685">
        <ele>361.78</ele>
        <time>2021-06-06T01:02:19Z</time>
      </trkpt>
      <trkpt lat="43.10174" lon="-0.14729">
        <ele>360.74</ele>
        <time>2021-06-06T01:02:25Z</time>
      </trkpt>
      <trkpt lat="43.10135" lon="-0.14945">
        <ele>355.72</ele>
        <time>2021-06-06T01:02:31Z</time>
      </trkpt>
      <trkpt lat="43.10096" lon="-0.15154">
        <ele>358.83</ele>
        <time>2021-06-06T01:02:38Z</time>
      </trkpt>
      <trkpt lat="43.10072" lon="-0.15272">
        <ele>364.39</ele>
        <time>2021-06-06T01:02:44Z</time>
      </trkpt>
      <trkpt lat="43.10066" lon="-0.15309">
        <ele>365.65</ele>
        <time>2021-06-06T01:02:50Z</time>
      </trkpt>
      <trkpt lat="43.10066" lon="-0.15328">
        <ele>365.2</ele>
        <time>2021-06-06T01:02:56Z</time>
      </trkpt>
      <trkpt lat="43.1007" lon="-0.15371">
        <ele>363.45</ele>
        <time>2021-06-06T01:03:02Z</time>
      </trkpt>
      <trkpt lat="43.10094" lon="-0.15545">
        <ele>367.24</ele>
        <time>2021-06-06T01:03:09Z</time>
      </trkpt>
      <trkpt lat="43.10137" lon="-0.15725">
        <ele>354.24</ele>
        <time>2021-06-06T01:03:15Z</time>
      </trkpt>
      <trkpt lat="43.10146" lon="-0.15748">
        <ele>355.24</ele>
        <time>2021-06-06T01:03:21Z</time>
      </trkpt>
      <trkpt lat="43.10156" lon="-0.15766">
        <ele>357.17</ele>
        <time>2021-06-06T01:03:27Z</time>
      </trkpt>
      <trkpt lat="43.10232" lon="-0.15868">
        <ele>359.27</ele>
        <time>2021-06-06T01:03:33Z</time>
      </trkpt>
      <trkpt lat="43.10276" lon="-0.15905">
        <ele>358.81</ele>
        <time>2021-06-06T01:03:39Z</time>
      </trkpt>
      <trkpt lat="43.10291" lon="-0.15914">
        <ele>359.5</ele>
        <time>2021-06-06T01:03:46Z</time>
      </trkpt>
      <trkpt lat="43.1033" lon="-0.15919">
        <ele>359.21</ele>
        <time>2021-06-06T01:03:52Z</time>
      </trkpt>
      <trkpt lat="43.10332" lon="-0.15889">
        <ele>359.14</ele>
        <time>2021-06-06T01:03:55Z</time>
      </trkpt>
      <trkpt lat="43.10335" lon="-0.15874">
        <ele>359.49</ele>
        <time>2021-06-06T01:03:58Z</time>
      </trkpt>
      <trkpt lat="43.10349" lon="-0.15876">
        <ele>359.17</ele>
        <time>2021-06-06T01:04:00Z</time>
      </trkpt>
      <trkpt lat="43.10349" lon="-0.15876">
        <ele>359.17</ele>
        <time>2021-06-06T01:04:00Z</time>
      </trkpt>
      <trkpt lat="43.1036" lon="-0.15877">
        <ele>358.85</ele>
        <time>2021-06-06T01:04:03Z</time>
      </trkpt>
      <trkpt lat="43.10361" lon="-0.15924">
        <ele>358.02</ele>
        <time>2021-06-06T01:04:09Z</time>
      </trkpt>
      <trkpt lat="43.10342" lon="-0.15927">
        <ele>358.7</ele>
        <time>2021-06-06T01:04:12Z</time>
      </trkpt>
      <trkpt lat="43.10351" lon="-0.15966">
        <ele>357.58</ele>
        <time>2021-06-06T01:04:20Z</time>
      </trkpt>
      <trkpt lat="43.10361" lon="-0.16018">
        <ele>357</ele>
        <time>2021-06-06T01:04:28Z</time>
      </trkpt>
      <trkpt lat="43.10372" lon="-0.16062">
        <ele>356.4</ele>
        <time>2021-06-06T01:04:36Z</time>
      </trkpt>
      <trkpt lat="43.1037" lon="-0.16094">
        <ele>356.67</ele>
        <time>2021-06-06T01:04:43Z</time>
      </trkpt>
      <trkpt lat="43.10365" lon="-0.16121">
        <ele>357.19</ele>
        <time>2021-06-06T01:04:51Z</time>
      </trkpt>
      <trkpt lat="43.10313" lon="-0.16293">
        <ele>348.7</ele>
        <time>2021-06-06T01:04:59Z</time>
      </trkpt>
      <trkpt lat="43.10303" lon="-0.16327">
        <ele>350.2</ele>
        <time>2021-06-06T01:05:07Z</time>
      </trkpt>
      <trkpt lat="43.10297" lon="-0.16362">
        <ele>350.33</ele>
        <time>2021-06-06T01:05:14Z</time>
      </trkpt>
      <trkpt lat="43.10288" lon="-0.16453">
        <ele>346.37</ele>
        <time>2021-06-06T01:05:22Z</time>
      </trkpt>
      <trkpt lat="43.10279" lon="-0.16527">
        <ele>345.04</ele>
        <time>2021-06-06T01:05:30Z</time>
      </trkpt>
      <trkpt lat="43.10241" lon="-0.16716">
        <ele>340.85</ele>
        <time>2021-06-06T01:05:37Z</time>
      </trkpt>
      <trkpt lat="43.10223" lon="-0.16866">
        <ele>341.87</ele>
        <time>2021-06-06T01:05:45Z</time>
      </trkpt>
      <trkpt lat="43.10221" lon="-0.16895">
        <ele>340.85</ele>
        <time>2021-06-06T01:05:53Z</time>
      </trkpt>
      <trkpt lat="43.10224" lon="-0.16935">
        <ele>341.05</ele>
        <time>2021-06-06T01:06:01Z</time>
      </trkpt>
      <trkpt lat="43.10289" lon="-0.17203">
        <ele>346.27</ele>
        <time>2021-06-06T01:06:08Z</time>
      </trkpt>
      <trkpt lat="43.10382" lon="-0.17457">
        <ele>342.93</ele>
        <time>2021-06-06T01:06:16Z</time>
      </trkpt>
      <trkpt lat="43.10396" lon="-0.1749">
        <ele>343.97</ele>
        <time>2021-06-06T01:06:24Z</time>
      </trkpt>
      <trkpt lat="43.10413" lon="-0.1752">
        <ele>345.49</ele>
        <time>2021-06-06T01:06:32Z</time>
      </trkpt>
      <trkpt lat="43.10424" lon="-0.17542">
        <ele>349.57</ele>
        <time>2021-06-06T01:06:39Z</time>
      </trkpt>
      <trkpt lat="43.10431" lon="-0.17569">
        <ele>351.82</ele>
        <time>2021-06-06T01:06:47Z</time>
      </trkpt>
      <trkpt lat="43.10435" lon="-0.17597">
        <ele>350.9</ele>
        <time>2021-06-06T01:06:55Z</time>
      </trkpt>
      <trkpt lat="43.10442" lon="-0.17624">
        <ele>350.67</ele>
        <time>2021-06-06T01:07:03Z</time>
      </trkpt>
      <trkpt lat="43.10448" lon="-0.17644">
        <ele>350.03</ele>
        <time>2021-06-06T01:07:10Z</time>
      </trkpt>
      <trkpt lat="43.10492" lon="-0.17733">
        <ele>351.95</ele>
        <time>2021-06-06T01:07:18Z</time>
      </trkpt>
      <trkpt lat="43.106" lon="-0.18036">
        <ele>345.84</ele>
        <time>2021-06-06T01:07:26Z</time>
      </trkpt>
      <trkpt lat="43.10609" lon="-0.1807">
        <ele>342</ele>
        <time>2021-06-06T01:07:34Z</time>
      </trkpt>
      <trkpt lat="43.10701" lon="-0.18545">
        <ele>334.24</ele>
        <time>2021-06-06T01:07:41Z</time>
      </trkpt>
      <trkpt lat="43.10705" lon="-0.18621">
        <ele>332.21</ele>
        <time>2021-06-06T01:07:49Z</time>
      </trkpt>
      <trkpt lat="43.10709" lon="-0.18636">
        <ele>331.06</ele>
        <time>2021-06-06T01:07:57Z</time>
      </trkpt>
      <trkpt lat="43.10715" lon="-0.18649">
        <ele>330.02</ele>
        <time>2021-06-06T01:08:04Z</time>
      </trkpt>
      <trkpt lat="43.10774" lon="-0.18724">
        <ele>327.74</ele>
        <time>2021-06-06T01:08:12Z</time>
      </trkpt>
      <trkpt lat="43.11005" lon="-0.18972">
        <ele>320.19</ele>
        <time>2021-06-06T01:08:20Z</time>
      </trkpt>
      <trkpt lat="43.11061" lon="-0.19008">
        <ele>318.9</ele>
        <time>2021-06-06T01:08:28Z</time>
      </trkpt>
      <trkpt lat="43.11138" lon="-0.19044">
        <ele>320</ele>
        <time>2021-06-06T01:08:35Z</time>
      </trkpt>
      <trkpt lat="43.1126" lon="-0.19098">
        <ele>323.1</ele>
        <time>2021-06-06T01:08:43Z</time>
      </trkpt>
      <trkpt lat="43.11428" lon="-0.19241">
        <ele>323.15</ele>
        <time>2021-06-06T01:08:51Z</time>
      </trkpt>
      <trkpt lat="43.11502" lon="-0.1931">
        <ele>316.82</ele>
        <time>2021-06-06T01:08:59Z</time>
      </trkpt>
      <trkpt lat="43.11541" lon="-0.19332">
        <ele>318.17</ele>
        <time>2021-06-06T01:09:06Z</time>
      </trkpt>
      <trkpt lat="43.1186" lon="-0.19464">
        <ele>314.63</ele>
        <time>2021-06-06T01:09:14Z</time>
      </trkpt>
      <trkpt lat="43.11906" lon="-0.19487">
        <ele>315.46</ele>
        <time>2021-06-06T01:09:22Z</time>
      </trkpt>
      <trkpt lat="43.11978" lon="-0.19545">
        <ele>319.02</ele>
        <time>2021-06-06T01:09:30Z</time>
      </trkpt>
      <trkpt lat="43.1203" lon="-0.19649">
        <ele>316.55</ele>
        <time>2021-06-06T01:09:37Z</time>
      </trkpt>
      <trkpt lat="43.12099" lon="-0.19882">
        <ele>319.55</ele>
        <time>2021-06-06T01:09:45Z</time>
      </trkpt>
      <trkpt lat="43.12311" lon="-0.20577">
        <ele>311.1</ele>
        <time>2021-06-06T01:09:53Z</time>
      </trkpt>
      <trkpt lat="43.12321" lon="-0.20601">
        <ele>312.82</ele>
        <time>2021-06-06T01:10:01Z</time>
      </trkpt>
      <trkpt lat="43.12334" lon="-0.20627">
        <ele>314.42</ele>
        <time>2021-06-06T01:10:08Z</time>
      </trkpt>
      <trkpt lat="43.12349" lon="-0.20652">
        <ele>313.52</ele>
        <time>2021-06-06T01:10:16Z</time>
      </trkpt>
      <trkpt lat="43.12412" lon="-0.20728">
        <ele>313.2</ele>
        <time>2021-06-06T01:10:24Z</time>
      </trkpt>
      <trkpt lat="43.12425" lon="-0.20734">
        <ele>312.8</ele>
        <time>2021-06-06T01:10:32Z</time>
      </trkpt>
      <trkpt lat="43.12482" lon="-0.20747">
        <ele>310.93</ele>
        <time>2021-06-06T01:10:39Z</time>
      </trkpt>
      <trkpt lat="43.12528" lon="-0.20752">
        <ele>306.18</ele>
        <time>2021-06-06T01:10:47Z</time>
      </trkpt>
      <trkpt lat="43.12646" lon="-0.20755">
        <ele>307.19</ele>
        <time>2021-06-06T01:10:55Z</time>
      </trkpt>
      <trkpt lat="43.12725" lon="-0.20755">
        <ele>308.75</ele>
        <time>2021-06-06T01:11:02Z</time>
      </trkpt>
      <trkpt lat="43.12797" lon="-0.20758">
        <ele>312.05</ele>
        <time>2021-06-06T01:11:10Z</time>
      </trkpt>
      <trkpt lat="43.12863" lon="-0.20773">
        <ele>311</ele>
        <time>2021-06-06T01:11:18Z</time>
      </trkpt>
      <trkpt lat="43.12953" lon="-0.20842">
        <ele>309</ele>
        <time>2021-06-06T01:11:26Z</time>
      </trkpt>
      <trkpt lat="43.12961" lon="-0.20856">
        <ele>309</ele>
        <time>2021-06-06T01:11:33Z</time>
      </trkpt>
      <trkpt lat="43.12979" lon="-0.20871">
        <ele>308.72</ele>
        <time>2021-06-06T01:11:41Z</time>
      </trkpt>
      <trkpt lat="43.12999" lon="-0.20879">
        <ele>308.96</ele>
        <time>2021-06-06T01:11:49Z</time>
      </trkpt>
      <trkpt lat="43.13112" lon="-0.20972">
        <ele>306</ele>
        <time>2021-06-06T01:11:57Z</time>
      </trkpt>
      <trkpt lat="43.13139" lon="-0.21008">
        <ele>304.98</ele>
        <time>2021-06-06T01:12:04Z</time>
      </trkpt>
      <trkpt lat="43.13158" lon="-0.21055">
        <ele>304</ele>
        <time>2021-06-06T01:12:12Z</time>
      </trkpt>
      <trkpt lat="43.13176" lon="-0.21088">
        <ele>302.5</ele>
        <time>2021-06-06T01:12:20Z</time>
      </trkpt>
      <trkpt lat="43.13199" lon="-0.21115">
        <ele>300.31</ele>
        <time>2021-06-06T01:12:28Z</time>
      </trkpt>
      <trkpt lat="43.13287" lon="-0.21184">
        <ele>294.66</ele>
        <time>2021-06-06T01:12:35Z</time>
      </trkpt>
      <trkpt lat="43.1354" lon="-0.21398">
        <ele>295.72</ele>
        <time>2021-06-06T01:12:43Z</time>
      </trkpt>
      <trkpt lat="43.13575" lon="-0.21417">
        <ele>296</ele>
        <time>2021-06-06T01:12:51Z</time>
      </trkpt>
      <trkpt lat="43.1379" lon="-0.21544">
        <ele>293.59</ele>
        <time>2021-06-06T01:12:59Z</time>
      </trkpt>
      <trkpt lat="43.14078" lon="-0.2172">
        <ele>291.73</ele>
        <time>2021-06-06T01:13:06Z</time>
      </trkpt>
      <trkpt lat="43.1493" lon="-0.22246">
        <ele>291.59</ele>
        <time>2021-06-06T01:13:14Z</time>
      </trkpt>
      <trkpt lat="43.15036" lon="-0.22346">
        <ele>293.44</ele>
        <time>2021-06-06T01:13:22Z</time>
      </trkpt>
      <trkpt lat="43.15098" lon="-0.2241">
        <ele>293.43</ele>
        <time>2021-06-06T01:13:29Z</time>
      </trkpt>
      <trkpt lat="43.15183" lon="-0.22491">
        <ele>293.78</ele>
        <time>2021-06-06T01:13:37Z</time>
      </trkpt>
      <trkpt lat="43.15035" lon="-0.22744">
        <ele>295.59</ele>
        <time>2021-06-06T01:13:42Z</time>
      </trkpt>
      <trkpt lat="43.14771" lon="-0.23188">
        <ele>291.51</ele>
        <time>2021-06-06T01:13:47Z</time>
      </trkpt>
      <trkpt lat="43.14759" lon="-0.23221">
        <ele>291.71</ele>
        <time>2021-06-06T01:13:52Z</time>
      </trkpt>
      <trkpt lat="43.1475" lon="-0.23252">
        <ele>293.04</ele>
        <time>2021-06-06T01:13:57Z</time>
      </trkpt>
      <trkpt lat="43.14743" lon="-0.23311">
        <ele>296.84</ele>
        <time>2021-06-06T01:14:02Z</time>
      </trkpt>
      <trkpt lat="43.14738" lon="-0.23493">
        <ele>298.94</ele>
        <time>2021-06-06T01:14:07Z</time>
      </trkpt>
      <trkpt lat="43.14734" lon="-0.23523">
        <ele>300.22</ele>
        <time>2021-06-06T01:14:12Z</time>
      </trkpt>
      <trkpt lat="43.14726" lon="-0.23548">
        <ele>301.07</ele>
        <time>2021-06-06T01:14:17Z</time>
      </trkpt>
      <trkpt lat="43.14711" lon="-0.2358">
        <ele>301.83</ele>
        <time>2021-06-06T01:14:22Z</time>
      </trkpt>
      <trkpt lat="43.1467" lon="-0.23639">
        <ele>301.92</ele>
        <time>2021-06-06T01:14:27Z</time>
      </trkpt>
      <trkpt lat="43.14627" lon="-0.23689">
        <ele>298.32</ele>
        <time>2021-06-06T01:14:32Z</time>
      </trkpt>
      <trkpt lat="43.14604" lon="-0.23724">
        <ele>294.17</ele>
        <time>2021-06-06T01:14:37Z</time>
      </trkpt>
      <trkpt lat="43.14583" lon="-0.23777">
        <ele>294.03</ele>
        <time>2021-06-06T01:14:42Z</time>
      </trkpt>
      <trkpt lat="43.14483" lon="-0.23991">
        <ele>294.93</ele>
        <time>2021-06-06T01:14:47Z</time>
      </trkpt>
      <trkpt lat="43.14455" lon="-0.24069">
        <ele>294.74</ele>
        <time>2021-06-06T01:14:52Z</time>
      </trkpt>
      <trkpt lat="43.14446" lon="-0.24104">
        <ele>294.2</ele>
        <time>2021-06-06T01:14:57Z</time>
      </trkpt>
      <trkpt lat="43.14436" lon="-0.24178">
        <ele>295.72</ele>
        <time>2021-06-06T01:15:02Z</time>
      </trkpt>
      <trkpt lat="43.14427" lon="-0.24227">
        <ele>295.8</ele>
        <time>2021-06-06T01:15:07Z</time>
      </trkpt>
      <trkpt lat="43.1441" lon="-0.24283">
        <ele>298.53</ele>
        <time>2021-06-06T01:15:12Z</time>
      </trkpt>
      <trkpt lat="43.14373" lon="-0.2436">
        <ele>300.16</ele>
        <time>2021-06-06T01:15:17Z</time>
      </trkpt>
      <trkpt lat="43.14312" lon="-0.24479">
        <ele>293.84</ele>
        <time>2021-06-06T01:15:22Z</time>
      </trkpt>
      <trkpt lat="43.14278" lon="-0.24551">
        <ele>295.31</ele>
        <time>2021-06-06T01:15:27Z</time>
      </trkpt>
      <trkpt lat="43.14078" lon="-0.24993">
        <ele>309.78</ele>
        <time>2021-06-06T01:15:32Z</time>
      </trkpt>
      <trkpt lat="43.1407" lon="-0.25042">
        <ele>305.26</ele>
        <time>2021-06-06T01:15:37Z</time>
      </trkpt>
      <trkpt lat="43.14066" lon="-0.25075">
        <ele>302.07</ele>
        <time>2021-06-06T01:15:42Z</time>
      </trkpt>
      <trkpt lat="43.14054" lon="-0.25246">
        <ele>300.19</ele>
        <time>2021-06-06T01:15:47Z</time>
      </trkpt>
      <trkpt lat="43.14057" lon="-0.25299">
        <ele>302.65</ele>
        <time>2021-06-06T01:15:52Z</time>
      </trkpt>
      <trkpt lat="43.1406" lon="-0.25323">
        <ele>303.17</ele>
        <time>2021-06-06T01:15:57Z</time>
      </trkpt>
      <trkpt lat="43.1407" lon="-0.25369">
        <ele>305.92</ele>
        <time>2021-06-06T01:16:02Z</time>
      </trkpt>
      <trkpt lat="43.1407" lon="-0.25382">
        <ele>307.47</ele>
        <time>2021-06-06T01:16:07Z</time>
      </trkpt>
      <trkpt lat="43.14066" lon="-0.25403">
        <ele>311.39</ele>
        <time>2021-06-06T01:16:12Z</time>
      </trkpt>
      <trkpt lat="43.14032" lon="-0.25493">
        <ele>322.61</ele>
        <time>2021-06-06T01:16:17Z</time>
      </trkpt>
      <trkpt lat="43.13982" lon="-0.25576">
        <ele>321.83</ele>
        <time>2021-06-06T01:16:22Z</time>
      </trkpt>
      <trkpt lat="43.13929" lon="-0.2568">
        <ele>325.04</ele>
        <time>2021-06-06T01:16:27Z</time>
      </trkpt>
      <trkpt lat="43.13894" lon="-0.25731">
        <ele>328.3</ele>
        <time>2021-06-06T01:16:32Z</time>
      </trkpt>
      <trkpt lat="43.13875" lon="-0.25768">
        <ele>329.63</ele>
        <time>2021-06-06T01:16:37Z</time>
      </trkpt>
      <trkpt lat="43.13863" lon="-0.25811">
        <ele>330.17</ele>
        <time>2021-06-06T01:16:42Z</time>
      </trkpt>
      <trkpt lat="43.13832" lon="-0.25998">
        <ele>335.05</ele>
        <time>2021-06-06T01:16:47Z</time>
      </trkpt>
      <trkpt lat="43.13835" lon="-0.26019">
        <ele>335</ele>
        <time>2021-06-06T01:16:52Z</time>
      </trkpt>
      <trkpt lat="43.13923" lon="-0.2638">
        <ele>333.43</ele>
        <time>2021-06-06T01:16:57Z</time>
      </trkpt>
      <trkpt lat="43.13795" lon="-0.26727">
        <ele>336.59</ele>
        <time>2021-06-06T01:17:01Z</time>
      </trkpt>
      <trkpt lat="43.13688" lon="-0.27007">
        <ele>333.82</ele>
        <time>2021-06-06T01:17:04Z</time>
      </trkpt>
      <trkpt lat="43.13658" lon="-0.27076">
        <ele>333</ele>
        <time>2021-06-06T01:17:07Z</time>
      </trkpt>
      <trkpt lat="43.13604" lon="-0.27169">
        <ele>334.24</ele>
        <time>2021-06-06T01:17:10Z</time>
      </trkpt>
      <trkpt lat="43.13504" lon="-0.27336">
        <ele>334.47</ele>
        <time>2021-06-06T01:17:13Z</time>
      </trkpt>
      <trkpt lat="43.13483" lon="-0.27362">
        <ele>332.52</ele>
        <time>2021-06-06T01:17:17Z</time>
      </trkpt>
      <trkpt lat="43.13456" lon="-0.27384">
        <ele>328.07</ele>
        <time>2021-06-06T01:17:20Z</time>
      </trkpt>
      <trkpt lat="43.13433" lon="-0.27392">
        <ele>324.94</ele>
        <time>2021-06-06T01:17:23Z</time>
      </trkpt>
      <trkpt lat="43.13406" lon="-0.27398">
        <ele>322.03</ele>
        <time>2021-06-06T01:17:26Z</time>
      </trkpt>
      <trkpt lat="43.13318" lon="-0.27406">
        <ele>317</ele>
        <time>2021-06-06T01:17:29Z</time>
      </trkpt>
      <trkpt lat="43.13274" lon="-0.27434">
        <ele>315.23</ele>
        <time>2021-06-06T01:17:33Z</time>
      </trkpt>
      <trkpt lat="43.13244" lon="-0.27477">
        <ele>312.27</ele>
        <time>2021-06-06T01:17:36Z</time>
      </trkpt>
      <trkpt lat="43.13177" lon="-0.27639">
        <ele>306.63</ele>
        <time>2021-06-06T01:17:39Z</time>
      </trkpt>
      <trkpt lat="43.13157" lon="-0.27683">
        <ele>305.57</ele>
        <time>2021-06-06T01:17:42Z</time>
      </trkpt>
      <trkpt lat="43.13146" lon="-0.27735">
        <ele>303.74</ele>
        <time>2021-06-06T01:17:45Z</time>
      </trkpt>
      <trkpt lat="43.13144" lon="-0.27772">
        <ele>305.08</ele>
        <time>2021-06-06T01:17:49Z</time>
      </trkpt>
      <trkpt lat="43.1315" lon="-0.27806">
        <ele>306.64</ele>
        <time>2021-06-06T01:17:52Z</time>
      </trkpt>
      <trkpt lat="43.1317" lon="-0.27869">
        <ele>309.63</ele>
        <time>2021-06-06T01:17:55Z</time>
      </trkpt>
      <trkpt lat="43.13198" lon="-0.27943">
        <ele>306.86</ele>
        <time>2021-06-06T01:17:58Z</time>
      </trkpt>
      <trkpt lat="43.13205" lon="-0.2797">
        <ele>306.24</ele>
        <time>2021-06-06T01:18:01Z</time>
      </trkpt>
      <trkpt lat="43.13207" lon="-0.27998">
        <ele>304.78</ele>
        <time>2021-06-06T01:18:05Z</time>
      </trkpt>
      <trkpt lat="43.13205" lon="-0.28031">
        <ele>303.85</ele>
        <time>2021-06-06T01:18:08Z</time>
      </trkpt>
      <trkpt lat="43.13186" lon="-0.28133">
        <ele>298.23</ele>
        <time>2021-06-06T01:18:11Z</time>
      </trkpt>
      <trkpt lat="43.13156" lon="-0.28402">
        <ele>298.85</ele>
        <time>2021-06-06T01:18:14Z</time>
      </trkpt>
      <trkpt lat="43.13148" lon="-0.28591">
        <ele>305.95</ele>
        <time>2021-06-06T01:18:17Z</time>
      </trkpt>
      <trkpt lat="43.13151" lon="-0.28666">
        <ele>307.55</ele>
        <time>2021-06-06T01:18:21Z</time>
      </trkpt>
      <trkpt lat="43.1316" lon="-0.28795">
        <ele>317.3</ele>
        <time>2021-06-06T01:18:24Z</time>
      </trkpt>
      <trkpt lat="43.13148" lon="-0.28954">
        <ele>323.03</ele>
        <time>2021-06-06T01:18:27Z</time>
      </trkpt>
      <trkpt lat="43.13151" lon="-0.29002">
        <ele>322.75</ele>
        <time>2021-06-06T01:18:30Z</time>
      </trkpt>
      <trkpt lat="43.13151" lon="-0.29038">
        <ele>321.82</ele>
        <time>2021-06-06T01:18:33Z</time>
      </trkpt>
      <trkpt lat="43.13145" lon="-0.29066">
        <ele>320.42</ele>
        <time>2021-06-06T01:18:37Z</time>
      </trkpt>
      <trkpt lat="43.13123" lon="-0.2912">
        <ele>318.47</ele>
        <time>2021-06-06T01:18:40Z</time>
      </trkpt>
      <trkpt lat="43.1311" lon="-0.29161">
        <ele>317.91</ele>
        <time>2021-06-06T01:18:43Z</time>
      </trkpt>
      <trkpt lat="43.13102" lon="-0.29204">
        <ele>316.95</ele>
        <time>2021-06-06T01:18:46Z</time>
      </trkpt>
      <trkpt lat="43.131" lon="-0.29233">
        <ele>317.3</ele>
        <time>2021-06-06T01:18:49Z</time>
      </trkpt>
      <trkpt lat="43.13106" lon="-0.29298">
        <ele>313.27</ele>
        <time>2021-06-06T01:18:52Z</time>
      </trkpt>
      <trkpt lat="43.13112" lon="-0.29336">
        <ele>311.09</ele>
        <time>2021-06-06T01:18:56Z</time>
      </trkpt>
      <trkpt lat="43.13126" lon="-0.29376">
        <ele>311.81</ele>
        <time>2021-06-06T01:18:59Z</time>
      </trkpt>
      <trkpt lat="43.13173" lon="-0.29463">
        <ele>310.9</ele>
        <time>2021-06-06T01:19:02Z</time>
      </trkpt>
      <trkpt lat="43.13185" lon="-0.29494">
        <ele>316.58</ele>
        <time>2021-06-06T01:19:05Z</time>
      </trkpt>
      <trkpt lat="43.1319" lon="-0.29528">
        <ele>319.19</ele>
        <time>2021-06-06T01:19:08Z</time>
      </trkpt>
      <trkpt lat="43.13192" lon="-0.2959">
        <ele>319.42</ele>
        <time>2021-06-06T01:19:12Z</time>
      </trkpt>
      <trkpt lat="43.13181" lon="-0.29677">
        <ele>316.71</ele>
        <time>2021-06-06T01:19:15Z</time>
      </trkpt>
      <trkpt lat="43.13171" lon="-0.29717">
        <ele>314.02</ele>
        <time>2021-06-06T01:19:18Z</time>
      </trkpt>
      <trkpt lat="43.1314" lon="-0.2981">
        <ele>312.25</ele>
        <time>2021-06-06T01:19:21Z</time>
      </trkpt>
      <trkpt lat="43.13086" lon="-0.29932">
        <ele>310.83</ele>
        <time>2021-06-06T01:19:24Z</time>
      </trkpt>
      <trkpt lat="43.13067" lon="-0.29966">
        <ele>310.48</ele>
        <time>2021-06-06T01:19:28Z</time>
      </trkpt>
      <trkpt lat="43.13028" lon="-0.30029">
        <ele>307.01</ele>
        <time>2021-06-06T01:19:31Z</time>
      </trkpt>
      <trkpt lat="43.12944" lon="-0.30138">
        <ele>311.02</ele>
        <time>2021-06-06T01:19:34Z</time>
      </trkpt>
      <trkpt lat="43.12869" lon="-0.30241">
        <ele>311.68</ele>
        <time>2021-06-06T01:19:37Z</time>
      </trkpt>
      <trkpt lat="43.12847" lon="-0.30268">
        <ele>311.67</ele>
        <time>2021-06-06T01:19:40Z</time>
      </trkpt>
      <trkpt lat="43.12818" lon="-0.3029">
        <ele>311</ele>
        <time>2021-06-06T01:19:44Z</time>
      </trkpt>
      <trkpt lat="43.12801" lon="-0.30298">
        <ele>311.17</ele>
        <time>2021-06-06T01:19:47Z</time>
      </trkpt>
      <trkpt lat="43.12699" lon="-0.30335">
        <ele>312.21</ele>
        <time>2021-06-06T01:19:50Z</time>
      </trkpt>
      <trkpt lat="43.12712" lon="-0.30416">
        <ele>315.96</ele>
        <time>2021-06-06T01:20:02Z</time>
      </trkpt>
      <trkpt lat="43.12715" lon="-0.3042">
        <ele>316</ele>
        <time>2021-06-06T01:20:13Z</time>
      </trkpt>
      <trkpt lat="43.12722" lon="-0.30466">
        <ele>315.23</ele>
        <time>2021-06-06T01:20:25Z</time>
      </trkpt>
      <trkpt lat="43.12752" lon="-0.3074">
        <ele>319.14</ele>
        <time>2021-06-06T01:20:36Z</time>
      </trkpt>
      <trkpt lat="43.12752" lon="-0.30756">
        <ele>320.3</ele>
        <time>2021-06-06T01:20:48Z</time>
      </trkpt>
      <trkpt lat="43.12752" lon="-0.30765">
        <ele>320.99</ele>
        <time>2021-06-06T01:20:51Z</time>
      </trkpt>
      <trkpt lat="43.12746" lon="-0.30783">
        <ele>322.51</ele>
        <time>2021-06-06T01:20:55Z</time>
      </trkpt>
      <trkpt lat="43.12738" lon="-0.30789">
        <ele>323.43</ele>
        <time>2021-06-06T01:20:59Z</time>
      </trkpt>
      <trkpt lat="43.12689" lon="-0.30799">
        <ele>326.05</ele>
        <time>2021-06-06T01:21:02Z</time>
      </trkpt>
      <trkpt lat="43.1269" lon="-0.30847">
        <ele>330.13</ele>
        <time>2021-06-06T01:21:06Z</time>
      </trkpt>
      <trkpt lat="43.1268" lon="-0.30888">
        <ele>334.44</ele>
        <time>2021-06-06T01:21:10Z</time>
      </trkpt>
      <trkpt lat="43.12675" lon="-0.30921">
        <ele>335.99</ele>
        <time>2021-06-06T01:21:14Z</time>
      </trkpt>
      <trkpt lat="43.12687" lon="-0.30982">
        <ele>336</ele>
        <time>2021-06-06T01:21:18Z</time>
      </trkpt>
      <trkpt lat="43.12735" lon="-0.31183">
        <ele>334.93</ele>
        <time>2021-06-06T01:21:22Z</time>
      </trkpt>
      <trkpt lat="43.1275" lon="-0.31279">
        <ele>333.97</ele>
        <time>2021-06-06T01:21:26Z</time>
      </trkpt>
      <trkpt lat="43.12747" lon="-0.31308">
        <ele>333.42</ele>
        <time>2021-06-06T01:21:30Z</time>
      </trkpt>
      <trkpt lat="43.12742" lon="-0.3133">
        <ele>331.31</ele>
        <time>2021-06-06T01:21:34Z</time>
      </trkpt>
      <trkpt lat="43.1273" lon="-0.31351">
        <ele>329.25</ele>
        <time>2021-06-06T01:21:38Z</time>
      </trkpt>
      <trkpt lat="43.12618" lon="-0.31465">
        <ele>319.95</ele>
        <time>2021-06-06T01:21:42Z</time>
      </trkpt>
      <trkpt lat="43.12596" lon="-0.31497">
        <ele>319.8</ele>
        <time>2021-06-06T01:21:46Z</time>
      </trkpt>
      <trkpt lat="43.12585" lon="-0.31532">
        <ele>319.17</ele>
        <time>2021-06-06T01:21:50Z</time>
      </trkpt>
      <trkpt lat="43.12582" lon="-0.31567">
        <ele>318.51</ele>
        <time>2021-06-06T01:21:54Z</time>
      </trkpt>
      <trkpt lat="43.12602" lon="-0.31669">
        <ele>317.68</ele>
        <time>2021-06-06T01:21:58Z</time>
      </trkpt>
      <trkpt lat="43.12604" lon="-0.31699">
        <ele>317.74</ele>
        <time>2021-06-06T01:22:02Z</time>
      </trkpt>
      <trkpt lat="43.12601" lon="-0.3173">
        <ele>317.83</ele>
        <time>2021-06-06T01:22:06Z</time>
      </trkpt>
      <trkpt lat="43.12577" lon="-0.31828">
        <ele>318.8</ele>
        <time>2021-06-06T01:22:10Z</time>
      </trkpt>
      <trkpt lat="43.1255" lon="-0.31885">
        <ele>318.11</ele>
        <time>2021-06-06T01:22:14Z</time>
      </trkpt>
      <trkpt lat="43.12538" lon="-0.32025">
        <ele>328.45</ele>
        <time>2021-06-06T01:22:18Z</time>
      </trkpt>
      <trkpt lat="43.12552" lon="-0.32183">
        <ele>332.23</ele>
        <time>2021-06-06T01:22:22Z</time>
      </trkpt>
      <trkpt lat="43.12569" lon="-0.32286">
        <ele>338.28</ele>
        <time>2021-06-06T01:22:26Z</time>
      </trkpt>
      <trkpt lat="43.12573" lon="-0.32327">
        <ele>340.25</ele>
        <time>2021-06-06T01:22:29Z</time>
      </trkpt>
      <trkpt lat="43.12572" lon="-0.32405">
        <ele>348.29</ele>
        <time>2021-06-06T01:22:33Z</time>
      </trkpt>
      <trkpt lat="43.1255" lon="-0.32534">
        <ele>350.02</ele>
        <time>2021-06-06T01:22:37Z</time>
      </trkpt>
      <trkpt lat="43.12547" lon="-0.32591">
        <ele>348.64</ele>
        <time>2021-06-06T01:22:41Z</time>
      </trkpt>
      <trkpt lat="43.12548" lon="-0.32621">
        <ele>347.37</ele>
        <time>2021-06-06T01:22:45Z</time>
      </trkpt>
      <trkpt lat="43.12602" lon="-0.32867">
        <ele>342.15</ele>
        <time>2021-06-06T01:22:49Z</time>
      </trkpt>
      <trkpt lat="43.12622" lon="-0.32921">
        <ele>343.24</ele>
        <time>2021-06-06T01:22:53Z</time>
      </trkpt>
      <trkpt lat="43.12638" lon="-0.32952">
        <ele>344.65</ele>
        <time>2021-06-06T01:22:57Z</time>
      </trkpt>
      <trkpt lat="43.12756" lon="-0.33112">
        <ele>344.18</ele>
        <time>2021-06-06T01:23:01Z</time>
      </trkpt>
      <trkpt lat="43.1277" lon="-0.33137">
        <ele>344.43</ele>
        <time>2021-06-06T01:23:05Z</time>
      </trkpt>
      <trkpt lat="43.12775" lon="-0.33156">
        <ele>344.8</ele>
        <time>2021-06-06T01:23:09Z</time>
      </trkpt>
      <trkpt lat="43.12773" lon="-0.33183">
        <ele>344.76</ele>
        <time>2021-06-06T01:23:13Z</time>
      </trkpt>
      <trkpt lat="43.1274" lon="-0.33348">
        <ele>349.68</ele>
        <time>2021-06-06T01:23:17Z</time>
      </trkpt>
      <trkpt lat="43.12719" lon="-0.33435">
        <ele>346.13</ele>
        <time>2021-06-06T01:23:21Z</time>
      </trkpt>
      <trkpt lat="43.12717" lon="-0.33463">
        <ele>345.76</ele>
        <time>2021-06-06T01:23:25Z</time>
      </trkpt>
      <trkpt lat="43.12718" lon="-0.33495">
        <ele>345.86</ele>
        <time>2021-06-06T01:23:29Z</time>
      </trkpt>
      <trkpt lat="43.12741" lon="-0.33626">
        <ele>344.34</ele>
        <time>2021-06-06T01:23:33Z</time>
      </trkpt>
      <trkpt lat="43.12758" lon="-0.33693">
        <ele>345.56</ele>
        <time>2021-06-06T01:23:37Z</time>
      </trkpt>
      <trkpt lat="43.1277" lon="-0.33774">
        <ele>346.12</ele>
        <time>2021-06-06T01:23:41Z</time>
      </trkpt>
      <trkpt lat="43.1277" lon="-0.33797">
        <ele>345.64</ele>
        <time>2021-06-06T01:23:45Z</time>
      </trkpt>
      <trkpt lat="43.12759" lon="-0.33862">
        <ele>341.96</ele>
        <time>2021-06-06T01:23:49Z</time>
      </trkpt>
      <trkpt lat="43.12758" lon="-0.33905">
        <ele>340.73</ele>
        <time>2021-06-06T01:23:53Z</time>
      </trkpt>
      <trkpt lat="43.12764" lon="-0.3396">
        <ele>341.52</ele>
        <time>2021-06-06T01:23:56Z</time>
      </trkpt>
      <trkpt lat="43.12796" lon="-0.34043">
        <ele>343.75</ele>
        <time>2021-06-06T01:24:00Z</time>
      </trkpt>
      <trkpt lat="43.12809" lon="-0.34096">
        <ele>345.2</ele>
        <time>2021-06-06T01:24:04Z</time>
      </trkpt>
      <trkpt lat="43.12821" lon="-0.34196">
        <ele>344.11</ele>
        <time>2021-06-06T01:24:08Z</time>
      </trkpt>
      <trkpt lat="43.12829" lon="-0.34248">
        <ele>343.61</ele>
        <time>2021-06-06T01:24:12Z</time>
      </trkpt>
      <trkpt lat="43.12833" lon="-0.34268">
        <ele>342.67</ele>
        <time>2021-06-06T01:24:16Z</time>
      </trkpt>
      <trkpt lat="43.12864" lon="-0.34375">
        <ele>340.6</ele>
        <time>2021-06-06T01:24:20Z</time>
      </trkpt>
      <trkpt lat="43.12973" lon="-0.3461">
        <ele>344.06</ele>
        <time>2021-06-06T01:24:24Z</time>
      </trkpt>
      <trkpt lat="43.12999" lon="-0.34693">
        <ele>343.87</ele>
        <time>2021-06-06T01:24:28Z</time>
      </trkpt>
      <trkpt lat="43.13002" lon="-0.34709">
        <ele>344.24</ele>
        <time>2021-06-06T01:24:32Z</time>
      </trkpt>
      <trkpt lat="43.13" lon="-0.34736">
        <ele>343.5</ele>
        <time>2021-06-06T01:24:36Z</time>
      </trkpt>
      <trkpt lat="43.12994" lon="-0.34767">
        <ele>341.98</ele>
        <time>2021-06-06T01:24:40Z</time>
      </trkpt>
      <trkpt lat="43.12983" lon="-0.34802">
        <ele>340.43</ele>
        <time>2021-06-06T01:24:44Z</time>
      </trkpt>
      <trkpt lat="43.12981" lon="-0.34841">
        <ele>341.28</ele>
        <time>2021-06-06T01:24:48Z</time>
      </trkpt>
      <trkpt lat="43.12984" lon="-0.34881">
        <ele>342.29</ele>
        <time>2021-06-06T01:24:52Z</time>
      </trkpt>
      <trkpt lat="43.13007" lon="-0.35124">
        <ele>347.39</ele>
        <time>2021-06-06T01:24:56Z</time>
      </trkpt>
      <trkpt lat="43.13034" lon="-0.3528">
        <ele>344.93</ele>
        <time>2021-06-06T01:25:00Z</time>
      </trkpt>
      <trkpt lat="43.1307" lon="-0.35397">
        <ele>343.13</ele>
        <time>2021-06-06T01:25:04Z</time>
      </trkpt>
      <trkpt lat="43.13131" lon="-0.35505">
        <ele>348.13</ele>
        <time>2021-06-06T01:25:08Z</time>
      </trkpt>
      <trkpt lat="43.13136" lon="-0.35543">
        <ele>347.65</ele>
        <time>2021-06-06T01:25:12Z</time>
      </trkpt>
      <trkpt lat="43.13134" lon="-0.35584">
        <ele>346.86</ele>
        <time>2021-06-06T01:25:16Z</time>
      </trkpt>
      <trkpt lat="43.13142" lon="-0.3562">
        <ele>348.3</ele>
        <time>2021-06-06T01:25:20Z</time>
      </trkpt>
      <trkpt lat="43.13149" lon="-0.35635">
        <ele>348.55</ele>
        <time>2021-06-06T01:25:24Z</time>
      </trkpt>
      <trkpt lat="43.13236" lon="-0.35741">
        <ele>353.83</ele>
        <time>2021-06-06T01:25:27Z</time>
      </trkpt>
      <trkpt lat="43.13287" lon="-0.35838">
        <ele>356.76</ele>
        <time>2021-06-06T01:25:31Z</time>
      </trkpt>
      <trkpt lat="43.13324" lon="-0.35871">
        <ele>360.41</ele>
        <time>2021-06-06T01:25:35Z</time>
      </trkpt>
      <trkpt lat="43.13368" lon="-0.35892">
        <ele>361.46</ele>
        <time>2021-06-06T01:25:39Z</time>
      </trkpt>
      <trkpt lat="43.13436" lon="-0.35894">
        <ele>369</ele>
        <time>2021-06-06T01:25:43Z</time>
      </trkpt>
      <trkpt lat="43.13461" lon="-0.35876">
        <ele>372.92</ele>
        <time>2021-06-06T01:25:47Z</time>
      </trkpt>
      <trkpt lat="43.13496" lon="-0.3584">
        <ele>377.06</ele>
        <time>2021-06-06T01:25:51Z</time>
      </trkpt>
      <trkpt lat="43.1352" lon="-0.35826">
        <ele>379.73</ele>
        <time>2021-06-06T01:25:55Z</time>
      </trkpt>
      <trkpt lat="43.13563" lon="-0.35831">
        <ele>385.87</ele>
        <time>2021-06-06T01:25:59Z</time>
      </trkpt>
      <trkpt lat="43.13645" lon="-0.35873">
        <ele>397.86</ele>
        <time>2021-06-06T01:26:03Z</time>
      </trkpt>
      <trkpt lat="43.1368" lon="-0.35874">
        <ele>396.95</ele>
        <time>2021-06-06T01:26:07Z</time>
      </trkpt>
      <trkpt lat="43.13701" lon="-0.35888">
        <ele>395.31</ele>
        <time>2021-06-06T01:26:11Z</time>
      </trkpt>
      <trkpt lat="43.13709" lon="-0.35908">
        <ele>394.09</ele>
        <time>2021-06-06T01:26:15Z</time>
      </trkpt>
      <trkpt lat="43.13708" lon="-0.35923">
        <ele>394.31</ele>
        <time>2021-06-06T01:26:19Z</time>
      </trkpt>
      <trkpt lat="43.13702" lon="-0.35924">
        <ele>395.12</ele>
        <time>2021-06-06T01:26:23Z</time>
      </trkpt>
      <trkpt lat="43.13675" lon="-0.35907">
        <ele>397.62</ele>
        <time>2021-06-06T01:26:27Z</time>
      </trkpt>
      <trkpt lat="43.13651" lon="-0.35911">
        <ele>398.67</ele>
        <time>2021-06-06T01:26:31Z</time>
      </trkpt>
      <trkpt lat="43.13643" lon="-0.35925">
        <ele>398.54</ele>
        <time>2021-06-06T01:26:35Z</time>
      </trkpt>
      <trkpt lat="43.13644" lon="-0.35936">
        <ele>398.15</ele>
        <time>2021-06-06T01:26:39Z</time>
      </trkpt>
      <trkpt lat="43.13648" lon="-0.35947">
        <ele>397.58</ele>
        <time>2021-06-06T01:26:43Z</time>
      </trkpt>
      <trkpt lat="43.13697" lon="-0.35988">
        <ele>397.63</ele>
        <time>2021-06-06T01:26:47Z</time>
      </trkpt>
      <trkpt lat="43.1373" lon="-0.36008">
        <ele>401.29</ele>
        <time>2021-06-06T01:26:51Z</time>
      </trkpt>
      <trkpt lat="43.13764" lon="-0.36037">
        <ele>405.3</ele>
        <time>2021-06-06T01:26:55Z</time>
      </trkpt>
      <trkpt lat="43.13788" lon="-0.36052">
        <ele>407.41</ele>
        <time>2021-06-06T01:26:58Z</time>
      </trkpt>
      <trkpt lat="43.1382" lon="-0.36058">
        <ele>407.85</ele>
        <time>2021-06-06T01:27:02Z</time>
      </trkpt>
      <trkpt lat="43.13841" lon="-0.36064">
        <ele>409.64</ele>
        <time>2021-06-06T01:27:06Z</time>
      </trkpt>
      <trkpt lat="43.1387" lon="-0.36062">
        <ele>411.95</ele>
        <time>2021-06-06T01:27:10Z</time>
      </trkpt>
      <trkpt lat="43.1388" lon="-0.36065">
        <ele>413.23</ele>
        <time>2021-06-06T01:27:14Z</time>
      </trkpt>
      <trkpt lat="43.13877" lon="-0.36078">
        <ele>415.43</ele>
        <time>2021-06-06T01:27:17Z</time>
      </trkpt>
      <trkpt lat="43.13868" lon="-0.36091">
        <ele>417.28</ele>
        <time>2021-06-06T01:27:19Z</time>
      </trkpt>
      <trkpt lat="43.13842" lon="-0.36103">
        <ele>417.32</ele>
        <time>2021-06-06T01:27:22Z</time>
      </trkpt>
      <trkpt lat="43.13796" lon="-0.36118">
        <ele>416.31</ele>
        <time>2021-06-06T01:27:24Z</time>
      </trkpt>
      <trkpt lat="43.13779" lon="-0.36129">
        <ele>416.33</ele>
        <time>2021-06-06T01:27:27Z</time>
      </trkpt>
      <trkpt lat="43.13759" lon="-0.36149">
        <ele>417.57</ele>
        <time>2021-06-06T01:27:29Z</time>
      </trkpt>
      <trkpt lat="43.13745" lon="-0.36165">
        <ele>418.38</ele>
        <time>2021-06-06T01:27:32Z</time>
      </trkpt>
      <trkpt lat="43.13736" lon="-0.36195">
        <ele>420.95</ele>
        <time>2021-06-06T01:27:34Z</time>
      </trkpt>
      <trkpt lat="43.13711" lon="-0.36307">
        <ele>423.7</ele>
        <time>2021-06-06T01:27:37Z</time>
      </trkpt>
      <trkpt lat="43.13706" lon="-0.36351">
        <ele>425.08</ele>
        <time>2021-06-06T01:27:39Z</time>
      </trkpt>
      <trkpt lat="43.13703" lon="-0.36566">
        <ele>441.17</ele>
        <time>2021-06-06T01:27:42Z</time>
      </trkpt>
      <trkpt lat="43.137" lon="-0.36669">
        <ele>445.19</ele>
        <time>2021-06-06T01:27:44Z</time>
      </trkpt>
      <trkpt lat="43.13691" lon="-0.36733">
        <ele>445.85</ele>
        <time>2021-06-06T01:27:47Z</time>
      </trkpt>
      <trkpt lat="43.13687" lon="-0.36781">
        <ele>444.79</ele>
        <time>2021-06-06T01:27:49Z</time>
      </trkpt>
      <trkpt lat="43.13687" lon="-0.36846">
        <ele>446.68</ele>
        <time>2021-06-06T01:27:52Z</time>
      </trkpt>
      <trkpt lat="43.13684" lon="-0.36876">
        <ele>448.19</ele>
        <time>2021-06-06T01:27:54Z</time>
      </trkpt>
      <trkpt lat="43.13675" lon="-0.3691">
        <ele>449.72</ele>
        <time>2021-06-06T01:27:57Z</time>
      </trkpt>
      <trkpt lat="43.1366" lon="-0.36939">
        <ele>450.88</ele>
        <time>2021-06-06T01:27:59Z</time>
      </trkpt>
      <trkpt lat="43.13643" lon="-0.36959">
        <ele>451.39</ele>
        <time>2021-06-06T01:28:02Z</time>
      </trkpt>
      <trkpt lat="43.13631" lon="-0.36971">
        <ele>451.28</ele>
        <time>2021-06-06T01:28:04Z</time>
      </trkpt>
      <trkpt lat="43.13604" lon="-0.36985">
        <ele>450.55</ele>
        <time>2021-06-06T01:28:07Z</time>
      </trkpt>
      <trkpt lat="43.1354" lon="-0.36998">
        <ele>449</ele>
        <time>2021-06-06T01:28:10Z</time>
      </trkpt>
      <trkpt lat="43.13522" lon="-0.37007">
        <ele>449.85</ele>
        <time>2021-06-06T01:28:12Z</time>
      </trkpt>
      <trkpt lat="43.13512" lon="-0.37021">
        <ele>451.48</ele>
        <time>2021-06-06T01:28:15Z</time>
      </trkpt>
      <trkpt lat="43.13501" lon="-0.3705">
        <ele>454.43</ele>
        <time>2021-06-06T01:28:17Z</time>
      </trkpt>
      <trkpt lat="43.13495" lon="-0.37082">
        <ele>456.91</ele>
        <time>2021-06-06T01:28:20Z</time>
      </trkpt>
      <trkpt lat="43.13504" lon="-0.37125">
        <ele>451.37</ele>
        <time>2021-06-06T01:28:22Z</time>
      </trkpt>
      <trkpt lat="43.13501" lon="-0.37153">
        <ele>448.72</ele>
        <time>2021-06-06T01:28:25Z</time>
      </trkpt>
      <trkpt lat="43.13495" lon="-0.3717">
        <ele>447.84</ele>
        <time>2021-06-06T01:28:27Z</time>
      </trkpt>
      <trkpt lat="43.13484" lon="-0.37179">
        <ele>449.47</ele>
        <time>2021-06-06T01:28:30Z</time>
      </trkpt>
      <trkpt lat="43.13455" lon="-0.37197">
        <ele>453.04</ele>
        <time>2021-06-06T01:28:32Z</time>
      </trkpt>
      <trkpt lat="43.13443" lon="-0.37215">
        <ele>453.87</ele>
        <time>2021-06-06T01:28:35Z</time>
      </trkpt>
      <trkpt lat="43.1344" lon="-0.37236">
        <ele>454.95</ele>
        <time>2021-06-06T01:28:37Z</time>
      </trkpt>
      <trkpt lat="43.13445" lon="-0.37282">
        <ele>455.03</ele>
        <time>2021-06-06T01:28:40Z</time>
      </trkpt>
      <trkpt lat="43.13437" lon="-0.37337">
        <ele>459.18</ele>
        <time>2021-06-06T01:28:42Z</time>
      </trkpt>
      <trkpt lat="43.13439" lon="-0.37352">
        <ele>459.3</ele>
        <time>2021-06-06T01:28:45Z</time>
      </trkpt>
      <trkpt lat="43.13448" lon="-0.37385">
        <ele>457.59</ele>
        <time>2021-06-06T01:28:47Z</time>
      </trkpt>
      <trkpt lat="43.13471" lon="-0.37408">
        <ele>453.75</ele>
        <time>2021-06-06T01:28:50Z</time>
      </trkpt>
      <trkpt lat="43.13478" lon="-0.3742">
        <ele>452.14</ele>
        <time>2021-06-06T01:28:52Z</time>
      </trkpt>
      <trkpt lat="43.13481" lon="-0.37447">
        <ele>451.39</ele>
        <time>2021-06-06T01:28:55Z</time>
      </trkpt>
      <trkpt lat="43.13473" lon="-0.37483">
        <ele>452.31</ele>
        <time>2021-06-06T01:28:57Z</time>
      </trkpt>
      <trkpt lat="43.13459" lon="-0.3751">
        <ele>454.09</ele>
        <time>2021-06-06T01:29:00Z</time>
      </trkpt>
      <trkpt lat="43.13441" lon="-0.37534">
        <ele>455.42</ele>
        <time>2021-06-06T01:29:02Z</time>
      </trkpt>
      <trkpt lat="43.13405" lon="-0.37569">
        <ele>457.29</ele>
        <time>2021-06-06T01:29:05Z</time>
      </trkpt>
      <trkpt lat="43.13364" lon="-0.37597">
        <ele>460.13</ele>
        <time>2021-06-06T01:29:07Z</time>
      </trkpt>
      <trkpt lat="43.13337" lon="-0.37638">
        <ele>458.88</ele>
        <time>2021-06-06T01:29:10Z</time>
      </trkpt>
      <trkpt lat="43.13324" lon="-0.37646">
        <ele>459.74</ele>
        <time>2021-06-06T01:29:12Z</time>
      </trkpt>
      <trkpt lat="43.13298" lon="-0.37652">
        <ele>462.55</ele>
        <time>2021-06-06T01:29:15Z</time>
      </trkpt>
      <trkpt lat="43.13288" lon="-0.37671">
        <ele>462.25</ele>
        <time>2021-06-06T01:29:17Z</time>
      </trkpt>
      <trkpt lat="43.1328" lon="-0.37702">
        <ele>461.28</ele>
        <time>2021-06-06T01:29:20Z</time>
      </trkpt>
      <trkpt lat="43.13268" lon="-0.37722">
        <ele>461.18</ele>
        <time>2021-06-06T01:29:22Z</time>
      </trkpt>
      <trkpt lat="43.13144" lon="-0.37841">
        <ele>468.36</ele>
        <time>2021-06-06T01:29:25Z</time>
      </trkpt>
      <trkpt lat="43.1313" lon="-0.37848">
        <ele>468.29</ele>
        <time>2021-06-06T01:29:27Z</time>
      </trkpt>
      <trkpt lat="43.13109" lon="-0.37851">
        <ele>467.47</ele>
        <time>2021-06-06T01:29:30Z</time>
      </trkpt>
      <trkpt lat="43.13108" lon="-0.37881">
        <ele>465.16</ele>
        <time>2021-06-06T01:29:34Z</time>
      </trkpt>
      <trkpt lat="43.13114" lon="-0.37898">
        <ele>464.91</ele>
        <time>2021-06-06T01:29:38Z</time>
      </trkpt>
      <trkpt lat="43.13126" lon="-0.37914">
        <ele>465.63</ele>
        <time>2021-06-06T01:29:42Z</time>
      </trkpt>
      <trkpt lat="43.13209" lon="-0.37972">
        <ele>471.6</ele>
        <time>2021-06-06T01:29:46Z</time>
      </trkpt>
      <trkpt lat="43.13242" lon="-0.38004">
        <ele>477.23</ele>
        <time>2021-06-06T01:29:50Z</time>
      </trkpt>
      <trkpt lat="43.13277" lon="-0.38015">
        <ele>482.14</ele>
        <time>2021-06-06T01:29:54Z</time>
      </trkpt>
      <trkpt lat="43.1334" lon="-0.38026">
        <ele>485.61</ele>
        <time>2021-06-06T01:29:58Z</time>
      </trkpt>
      <trkpt lat="43.13414" lon="-0.38006">
        <ele>484</ele>
        <time>2021-06-06T01:30:02Z</time>
      </trkpt>
      <trkpt lat="43.1352" lon="-0.37999">
        <ele>475.28</ele>
        <time>2021-06-06T01:30:06Z</time>
      </trkpt>
      <trkpt lat="43.1365" lon="-0.37956">
        <ele>472.2</ele>
        <time>2021-06-06T01:30:10Z</time>
      </trkpt>
      <trkpt lat="43.13719" lon="-0.37954">
        <ele>467.35</ele>
        <time>2021-06-06T01:30:14Z</time>
      </trkpt>
      <trkpt lat="43.13782" lon="-0.37933">
        <ele>463.65</ele>
        <time>2021-06-06T01:30:18Z</time>
      </trkpt>
      <trkpt lat="43.13865" lon="-0.37922">
        <ele>461</ele>
        <time>2021-06-06T01:30:22Z</time>
      </trkpt>
      <trkpt lat="43.13886" lon="-0.37908">
        <ele>461.05</ele>
        <time>2021-06-06T01:30:26Z</time>
      </trkpt>
      <trkpt lat="43.13937" lon="-0.37834">
        <ele>460.54</ele>
        <time>2021-06-06T01:30:30Z</time>
      </trkpt>
      <trkpt lat="43.13971" lon="-0.37808">
        <ele>460.93</ele>
        <time>2021-06-06T01:30:34Z</time>
      </trkpt>
      <trkpt lat="43.14015" lon="-0.37783">
        <ele>462.09</ele>
        <time>2021-06-06T01:30:38Z</time>
      </trkpt>
      <trkpt lat="43.1404" lon="-0.37771">
        <ele>461.77</ele>
        <time>2021-06-06T01:30:42Z</time>
      </trkpt>
      <trkpt lat="43.1407" lon="-0.37764">
        <ele>461.51</ele>
        <time>2021-06-06T01:30:46Z</time>
      </trkpt>
      <trkpt lat="43.14091" lon="-0.37768">
        <ele>461.46</ele>
        <time>2021-06-06T01:30:50Z</time>
      </trkpt>
      <trkpt lat="43.14168" lon="-0.37761">
        <ele>459.21</ele>
        <time>2021-06-06T01:30:54Z</time>
      </trkpt>
      <trkpt lat="43.1419" lon="-0.37781">
        <ele>461.02</ele>
        <time>2021-06-06T01:30:58Z</time>
      </trkpt>
      <trkpt lat="43.14225" lon="-0.37821">
        <ele>458.79</ele>
        <time>2021-06-06T01:31:02Z</time>
      </trkpt>
      <trkpt lat="43.1424" lon="-0.37833">
        <ele>457.39</ele>
        <time>2021-06-06T01:31:06Z</time>
      </trkpt>
      <trkpt lat="43.14295" lon="-0.37846">
        <ele>455.62</ele>
        <time>2021-06-06T01:31:10Z</time>
      </trkpt>
      <trkpt lat="43.14361" lon="-0.37874">
        <ele>455.02</ele>
        <time>2021-06-06T01:31:14Z</time>
      </trkpt>
      <trkpt lat="43.14434" lon="-0.37886">
        <ele>456.23</ele>
        <time>2021-06-06T01:31:18Z</time>
      </trkpt>
      <trkpt lat="43.14462" lon="-0.37906">
        <ele>452.92</ele>
        <time>2021-06-06T01:31:22Z</time>
      </trkpt>
      <trkpt lat="43.14529" lon="-0.3798">
        <ele>450.26</ele>
        <time>2021-06-06T01:31:26Z</time>
      </trkpt>
      <trkpt lat="43.14563" lon="-0.38009">
        <ele>446.14</ele>
        <time>2021-06-06T01:31:30Z</time>
      </trkpt>
      <trkpt lat="43.14585" lon="-0.38015">
        <ele>443.79</ele>
        <time>2021-06-06T01:31:34Z</time>
      </trkpt>
      <trkpt lat="43.14643" lon="-0.38013">
        <ele>442.76</ele>
        <time>2021-06-06T01:31:38Z</time>
      </trkpt>
      <trkpt lat="43.14706" lon="-0.38019">
        <ele>435.5</ele>
        <time>2021-06-06T01:31:42Z</time>
      </trkpt>
      <trkpt lat="43.14742" lon="-0.38037">
        <ele>432.29</ele>
        <time>2021-06-06T01:31:46Z</time>
      </trkpt>
      <trkpt lat="43.14771" lon="-0.38062">
        <ele>427.91</ele>
        <time>2021-06-06T01:31:50Z</time>
      </trkpt>
      <trkpt lat="43.1478" lon="-0.38083">
        <ele>424.77</ele>
        <time>2021-06-06T01:31:54Z</time>
      </trkpt>
      <trkpt lat="43.14791" lon="-0.38134">
        <ele>422.8</ele>
        <time>2021-06-06T01:31:57Z</time>
      </trkpt>
      <trkpt lat="43.14811" lon="-0.38236">
        <ele>416.08</ele>
        <time>2021-06-06T01:32:01Z</time>
      </trkpt>
      <trkpt lat="43.14823" lon="-0.38341">
        <ele>415.01</ele>
        <time>2021-06-06T01:32:05Z</time>
      </trkpt>
      <trkpt lat="43.14838" lon="-0.38405">
        <ele>412.08</ele>
        <time>2021-06-06T01:32:09Z</time>
      </trkpt>
      <trkpt lat="43.14894" lon="-0.38483">
        <ele>404.17</ele>
        <time>2021-06-06T01:32:13Z</time>
      </trkpt>
      <trkpt lat="43.14942" lon="-0.38574">
        <ele>401.29</ele>
        <time>2021-06-06T01:32:17Z</time>
      </trkpt>
      <trkpt lat="43.14976" lon="-0.38592">
        <ele>396.72</ele>
        <time>2021-06-06T01:32:21Z</time>
      </trkpt>
      <trkpt lat="43.15016" lon="-0.38625">
        <ele>389.05</ele>
        <time>2021-06-06T01:32:25Z</time>
      </trkpt>
      <trkpt lat="43.1508" lon="-0.38621">
        <ele>383.7</ele>
        <time>2021-06-06T01:32:29Z</time>
      </trkpt>
      <trkpt lat="43.15118" lon="-0.38628">
        <ele>379.82</ele>
        <time>2021-06-06T01:32:33Z</time>
      </trkpt>
      <trkpt lat="43.15133" lon="-0.38643">
        <ele>378.43</ele>
        <time>2021-06-06T01:32:37Z</time>
      </trkpt>
      <trkpt lat="43.15151" lon="-0.38679">
        <ele>377.12</ele>
        <time>2021-06-06T01:32:41Z</time>
      </trkpt>
      <trkpt lat="43.15236" lon="-0.3876">
        <ele>372.93</ele>
        <time>2021-06-06T01:32:45Z</time>
      </trkpt>
      <trkpt lat="43.15281" lon="-0.38799">
        <ele>373.2</ele>
        <time>2021-06-06T01:32:49Z</time>
      </trkpt>
      <trkpt lat="43.15298" lon="-0.38803">
        <ele>374.36</ele>
        <time>2021-06-06T01:32:53Z</time>
      </trkpt>
      <trkpt lat="43.15315" lon="-0.388">
        <ele>375.22</ele>
        <time>2021-06-06T01:32:57Z</time>
      </trkpt>
      <trkpt lat="43.15326" lon="-0.38796">
        <ele>375.62</ele>
        <time>2021-06-06T01:33:01Z</time>
      </trkpt>
      <trkpt lat="43.15346" lon="-0.38793">
        <ele>376.26</ele>
        <time>2021-06-06T01:33:05Z</time>
      </trkpt>
      <trkpt lat="43.15514" lon="-0.38809">
        <ele>366.87</ele>
        <time>2021-06-06T01:33:09Z</time>
      </trkpt>
      <trkpt lat="43.15577" lon="-0.38805">
        <ele>361.68</ele>
        <time>2021-06-06T01:33:13Z</time>
      </trkpt>
      <trkpt lat="43.15638" lon="-0.38797">
        <ele>354.81</ele>
        <time>2021-06-06T01:33:17Z</time>
      </trkpt>
      <trkpt lat="43.15659" lon="-0.38802">
        <ele>353.44</ele>
        <time>2021-06-06T01:33:21Z</time>
      </trkpt>
      <trkpt lat="43.15659" lon="-0.38836">
        <ele>354.81</ele>
        <time>2021-06-06T01:33:24Z</time>
      </trkpt>
      <trkpt lat="43.15667" lon="-0.3889">
        <ele>351.8</ele>
        <time>2021-06-06T01:33:26Z</time>
      </trkpt>
      <trkpt lat="43.15693" lon="-0.38984">
        <ele>344.72</ele>
        <time>2021-06-06T01:33:28Z</time>
      </trkpt>
      <trkpt lat="43.15714" lon="-0.39073">
        <ele>338.61</ele>
        <time>2021-06-06T01:33:31Z</time>
      </trkpt>
      <trkpt lat="43.15724" lon="-0.39129">
        <ele>334.59</ele>
        <time>2021-06-06T01:33:33Z</time>
      </trkpt>
      <trkpt lat="43.15723" lon="-0.39154">
        <ele>334.35</ele>
        <time>2021-06-06T01:33:35Z</time>
      </trkpt>
      <trkpt lat="43.15717" lon="-0.39187">
        <ele>330.97</ele>
        <time>2021-06-06T01:33:38Z</time>
      </trkpt>
      <trkpt lat="43.157" lon="-0.39228">
        <ele>326.31</ele>
        <time>2021-06-06T01:33:40Z</time>
      </trkpt>
      <trkpt lat="43.157" lon="-0.39239">
        <ele>325.44</ele>
        <time>2021-06-06T01:33:42Z</time>
      </trkpt>
      <trkpt lat="43.15704" lon="-0.39248">
        <ele>324.49</ele>
        <time>2021-06-06T01:33:45Z</time>
      </trkpt>
      <trkpt lat="43.1571" lon="-0.39256">
        <ele>323.28</ele>
        <time>2021-06-06T01:33:47Z</time>
      </trkpt>
      <trkpt lat="43.15729" lon="-0.3927">
        <ele>321.28</ele>
        <time>2021-06-06T01:33:49Z</time>
      </trkpt>
      <trkpt lat="43.15739" lon="-0.39274">
        <ele>320.58</ele>
        <time>2021-06-06T01:33:52Z</time>
      </trkpt>
      <trkpt lat="43.15759" lon="-0.39276">
        <ele>319.1</ele>
        <time>2021-06-06T01:33:54Z</time>
      </trkpt>
      <trkpt lat="43.15808" lon="-0.39273">
        <ele>314.01</ele>
        <time>2021-06-06T01:33:56Z</time>
      </trkpt>
      <trkpt lat="43.15819" lon="-0.39274">
        <ele>313.15</ele>
        <time>2021-06-06T01:33:59Z</time>
      </trkpt>
      <trkpt lat="43.15836" lon="-0.39283">
        <ele>311.89</ele>
        <time>2021-06-06T01:34:01Z</time>
      </trkpt>
      <trkpt lat="43.15847" lon="-0.39298">
        <ele>311.16</ele>
        <time>2021-06-06T01:34:03Z</time>
      </trkpt>
      <trkpt lat="43.15863" lon="-0.39325">
        <ele>309.83</ele>
        <time>2021-06-06T01:34:06Z</time>
      </trkpt>
      <trkpt lat="43.15925" lon="-0.39464">
        <ele>302.07</ele>
        <time>2021-06-06T01:34:08Z</time>
      </trkpt>
      <trkpt lat="43.16007" lon="-0.39658">
        <ele>291.06</ele>
        <time>2021-06-06T01:34:10Z</time>
      </trkpt>
      <trkpt lat="43.16054" lon="-0.39762">
        <ele>291.79</ele>
        <time>2021-06-06T01:34:13Z</time>
      </trkpt>
      <trkpt lat="43.16056" lon="-0.39772">
        <ele>292.58</ele>
        <time>2021-06-06T01:34:15Z</time>
      </trkpt>
      <trkpt lat="43.16056" lon="-0.39783">
        <ele>293.55</ele>
        <time>2021-06-06T01:34:17Z</time>
      </trkpt>
      <trkpt lat="43.16053" lon="-0.39792">
        <ele>294.21</ele>
        <time>2021-06-06T01:34:20Z</time>
      </trkpt>
      <trkpt lat="43.16043" lon="-0.39803">
        <ele>294.43</ele>
        <time>2021-06-06T01:34:22Z</time>
      </trkpt>
      <trkpt lat="43.16024" lon="-0.39817">
        <ele>294.44</ele>
        <time>2021-06-06T01:34:24Z</time>
      </trkpt>
      <trkpt lat="43.16016" lon="-0.39829">
        <ele>295.15</ele>
        <time>2021-06-06T01:34:27Z</time>
      </trkpt>
      <trkpt lat="43.1601" lon="-0.39844">
        <ele>296.4</ele>
        <time>2021-06-06T01:34:29Z</time>
      </trkpt>
      <trkpt lat="43.16005" lon="-0.39874">
        <ele>298.75</ele>
        <time>2021-06-06T01:34:31Z</time>
      </trkpt>
      <trkpt lat="43.16005" lon="-0.39907">
        <ele>301.3</ele>
        <time>2021-06-06T01:34:33Z</time>
      </trkpt>
      <trkpt lat="43.16008" lon="-0.39953">
        <ele>304.72</ele>
        <time>2021-06-06T01:34:36Z</time>
      </trkpt>
      <trkpt lat="43.16013" lon="-0.39996">
        <ele>306.89</ele>
        <time>2021-06-06T01:34:38Z</time>
      </trkpt>
      <trkpt lat="43.16018" lon="-0.40062">
        <ele>309.5</ele>
        <time>2021-06-06T01:34:40Z</time>
      </trkpt>
      <trkpt lat="43.16022" lon="-0.40099">
        <ele>311.23</ele>
        <time>2021-06-06T01:34:43Z</time>
      </trkpt>
      <trkpt lat="43.16029" lon="-0.40127">
        <ele>313.82</ele>
        <time>2021-06-06T01:34:45Z</time>
      </trkpt>
      <trkpt lat="43.16039" lon="-0.40152">
        <ele>316.53</ele>
        <time>2021-06-06T01:34:47Z</time>
      </trkpt>
      <trkpt lat="43.16045" lon="-0.40177">
        <ele>317.74</ele>
        <time>2021-06-06T01:34:50Z</time>
      </trkpt>
      <trkpt lat="43.16051" lon="-0.40207">
        <ele>318.67</ele>
        <time>2021-06-06T01:34:52Z</time>
      </trkpt>
      <trkpt lat="43.16056" lon="-0.40299">
        <ele>329.26</ele>
        <time>2021-06-06T01:34:54Z</time>
      </trkpt>
      <trkpt lat="43.1606" lon="-0.40338">
        <ele>337.9</ele>
        <time>2021-06-06T01:34:57Z</time>
      </trkpt>
      <trkpt lat="43.16059" lon="-0.40379">
        <ele>346.47</ele>
        <time>2021-06-06T01:34:59Z</time>
      </trkpt>
      <trkpt lat="43.1606" lon="-0.40393">
        <ele>348.55</ele>
        <time>2021-06-06T01:35:01Z</time>
      </trkpt>
      <trkpt lat="43.16066" lon="-0.40408">
        <ele>349.65</ele>
        <time>2021-06-06T01:35:04Z</time>
      </trkpt>
      <trkpt lat="43.16071" lon="-0.40416">
        <ele>349.54</ele>
        <time>2021-06-06T01:35:06Z</time>
      </trkpt>
      <trkpt lat="43.16078" lon="-0.40423">
        <ele>348.74</ele>
        <time>2021-06-06T01:35:08Z</time>
      </trkpt>
      <trkpt lat="43.16108" lon="-0.40436">
        <ele>342.75</ele>
        <time>2021-06-06T01:35:11Z</time>
      </trkpt>
      <trkpt lat="43.16115" lon="-0.40444">
        <ele>341.8</ele>
        <time>2021-06-06T01:35:13Z</time>
      </trkpt>
      <trkpt lat="43.16119" lon="-0.40456">
        <ele>342.47</ele>
        <time>2021-06-06T01:35:15Z</time>
      </trkpt>
      <trkpt lat="43.16121" lon="-0.40474">
        <ele>344.48</ele>
        <time>2021-06-06T01:35:18Z</time>
      </trkpt>
      <trkpt lat="43.16118" lon="-0.40531">
        <ele>350.55</ele>
        <time>2021-06-06T01:35:20Z</time>
      </trkpt>
      <trkpt lat="43.16115" lon="-0.40559">
        <ele>349.32</ele>
        <time>2021-06-06T01:35:22Z</time>
      </trkpt>
      <trkpt lat="43.16113" lon="-0.4057">
        <ele>348.52</ele>
        <time>2021-06-06T01:35:25Z</time>
      </trkpt>
      <trkpt lat="43.16107" lon="-0.40581">
        <ele>348.75</ele>
        <time>2021-06-06T01:35:27Z</time>
      </trkpt>
      <trkpt lat="43.16098" lon="-0.40589">
        <ele>350.6</ele>
        <time>2021-06-06T01:35:29Z</time>
      </trkpt>
      <trkpt lat="43.16068" lon="-0.40599">
        <ele>358.22</ele>
        <time>2021-06-06T01:35:32Z</time>
      </trkpt>
      <trkpt lat="43.16056" lon="-0.40609">
        <ele>360.95</ele>
        <time>2021-06-06T01:35:34Z</time>
      </trkpt>
      <trkpt lat="43.1605" lon="-0.40628">
        <ele>362.73</ele>
        <time>2021-06-06T01:35:36Z</time>
      </trkpt>
      <trkpt lat="43.16052" lon="-0.40646">
        <ele>362.98</ele>
        <time>2021-06-06T01:35:39Z</time>
      </trkpt>
      <trkpt lat="43.16058" lon="-0.40664">
        <ele>361.23</ele>
        <time>2021-06-06T01:35:41Z</time>
      </trkpt>
      <trkpt lat="43.16069" lon="-0.40681">
        <ele>357.4</ele>
        <time>2021-06-06T01:35:43Z</time>
      </trkpt>
      <trkpt lat="43.16073" lon="-0.40693">
        <ele>355.98</ele>
        <time>2021-06-06T01:35:46Z</time>
      </trkpt>
      <trkpt lat="43.16074" lon="-0.40709">
        <ele>356.9</ele>
        <time>2021-06-06T01:35:48Z</time>
      </trkpt>
      <trkpt lat="43.16064" lon="-0.40772">
        <ele>368.34</ele>
        <time>2021-06-06T01:35:50Z</time>
      </trkpt>
      <trkpt lat="43.16065" lon="-0.40785">
        <ele>369.75</ele>
        <time>2021-06-06T01:35:53Z</time>
      </trkpt>
      <trkpt lat="43.16069" lon="-0.40797">
        <ele>369.09</ele>
        <time>2021-06-06T01:35:55Z</time>
      </trkpt>
      <trkpt lat="43.16083" lon="-0.40809">
        <ele>364.23</ele>
        <time>2021-06-06T01:35:57Z</time>
      </trkpt>
      <trkpt lat="43.16115" lon="-0.40824">
        <ele>358.26</ele>
        <time>2021-06-06T01:36:00Z</time>
      </trkpt>
      <trkpt lat="43.16147" lon="-0.4083">
        <ele>357.28</ele>
        <time>2021-06-06T01:36:02Z</time>
      </trkpt>
      <trkpt lat="43.16172" lon="-0.40843">
        <ele>357.3</ele>
        <time>2021-06-06T01:36:04Z</time>
      </trkpt>
      <trkpt lat="43.16183" lon="-0.40853">
        <ele>356.48</ele>
        <time>2021-06-06T01:36:07Z</time>
      </trkpt>
      <trkpt lat="43.16188" lon="-0.40866">
        <ele>356.53</ele>
        <time>2021-06-06T01:36:09Z</time>
      </trkpt>
      <trkpt lat="43.162" lon="-0.40923">
        <ele>359.06</ele>
        <time>2021-06-06T01:36:11Z</time>
      </trkpt>
      <trkpt lat="43.16201" lon="-0.40939">
        <ele>361.39</ele>
        <time>2021-06-06T01:36:14Z</time>
      </trkpt>
      <trkpt lat="43.16199" lon="-0.40962">
        <ele>366.42</ele>
        <time>2021-06-06T01:36:16Z</time>
      </trkpt>
      <trkpt lat="43.16201" lon="-0.40977">
        <ele>368.53</ele>
        <time>2021-06-06T01:36:18Z</time>
      </trkpt>
      <trkpt lat="43.16206" lon="-0.4099">
        <ele>369.25</ele>
        <time>2021-06-06T01:36:21Z</time>
      </trkpt>
      <trkpt lat="43.16235" lon="-0.41039">
        <ele>373.54</ele>
        <time>2021-06-06T01:36:23Z</time>
      </trkpt>
      <trkpt lat="43.16257" lon="-0.41059">
        <ele>371</ele>
        <time>2021-06-06T01:36:25Z</time>
      </trkpt>
      <trkpt lat="43.16265" lon="-0.41076">
        <ele>370.94</ele>
        <time>2021-06-06T01:36:28Z</time>
      </trkpt>
      <trkpt lat="43.16269" lon="-0.41096">
        <ele>372.3</ele>
        <time>2021-06-06T01:36:30Z</time>
      </trkpt>
      <trkpt lat="43.1627" lon="-0.41117">
        <ele>373.28</ele>
        <time>2021-06-06T01:36:32Z</time>
      </trkpt>
      <trkpt lat="43.16269" lon="-0.41136">
        <ele>373.32</ele>
        <time>2021-06-06T01:36:35Z</time>
      </trkpt>
      <trkpt lat="43.16263" lon="-0.4116">
        <ele>373.73</ele>
        <time>2021-06-06T01:36:37Z</time>
      </trkpt>
      <trkpt lat="43.16236" lon="-0.41203">
        <ele>384.97</ele>
        <time>2021-06-06T01:36:39Z</time>
      </trkpt>
      <trkpt lat="43.16232" lon="-0.41231">
        <ele>391.26</ele>
        <time>2021-06-06T01:36:41Z</time>
      </trkpt>
      <trkpt lat="43.16234" lon="-0.41268">
        <ele>392.14</ele>
        <time>2021-06-06T01:36:44Z</time>
      </trkpt>
      <trkpt lat="43.16254" lon="-0.41336">
        <ele>381.73</ele>
        <time>2021-06-06T01:36:46Z</time>
      </trkpt>
      <trkpt lat="43.16254" lon="-0.41438">
        <ele>396.2</ele>
        <time>2021-06-06T01:36:48Z</time>
      </trkpt>
      <trkpt lat="43.16256" lon="-0.41587">
        <ele>390.64</ele>
        <time>2021-06-06T01:36:51Z</time>
      </trkpt>
      <trkpt lat="43.16241" lon="-0.41657">
        <ele>389.57</ele>
        <time>2021-06-06T01:36:53Z</time>
      </trkpt>
      <trkpt lat="43.16208" lon="-0.41698">
        <ele>391.78</ele>
        <time>2021-06-06T01:36:55Z</time>
      </trkpt>
      <trkpt lat="43.16126" lon="-0.41815">
        <ele>401.36</ele>
        <time>2021-06-06T01:36:58Z</time>
      </trkpt>
      <trkpt lat="43.16091" lon="-0.41882">
        <ele>405.08</ele>
        <time>2021-06-06T01:37:00Z</time>
      </trkpt>
      <trkpt lat="43.16081" lon="-0.4191">
        <ele>405.72</ele>
        <time>2021-06-06T01:37:02Z</time>
      </trkpt>
      <trkpt lat="43.1608" lon="-0.41929">
        <ele>406.38</ele>
        <time>2021-06-06T01:37:05Z</time>
      </trkpt>
      <trkpt lat="43.16081" lon="-0.41949">
        <ele>407.64</ele>
        <time>2021-06-06T01:37:07Z</time>
      </trkpt>
      <trkpt lat="43.16088" lon="-0.41965">
        <ele>409.69</ele>
        <time>2021-06-06T01:37:09Z</time>
      </trkpt>
      <trkpt lat="43.1614" lon="-0.42049">
        <ele>417.22</ele>
        <time>2021-06-06T01:37:12Z</time>
      </trkpt>
      <trkpt lat="43.16149" lon="-0.42074">
        <ele>419.12</ele>
        <time>2021-06-06T01:37:14Z</time>
      </trkpt>
      <trkpt lat="43.1615" lon="-0.42096">
        <ele>420.2</ele>
        <time>2021-06-06T01:37:16Z</time>
      </trkpt>
      <trkpt lat="43.16145" lon="-0.42138">
        <ele>421.07</ele>
        <time>2021-06-06T01:37:19Z</time>
      </trkpt>
      <trkpt lat="43.16146" lon="-0.42162">
        <ele>422.27</ele>
        <time>2021-06-06T01:37:21Z</time>
      </trkpt>
      <trkpt lat="43.16152" lon="-0.42197">
        <ele>423.67</ele>
        <time>2021-06-06T01:37:23Z</time>
      </trkpt>
      <trkpt lat="43.16158" lon="-0.42279">
        <ele>427.72</ele>
        <time>2021-06-06T01:37:26Z</time>
      </trkpt>
      <trkpt lat="43.16164" lon="-0.42318">
        <ele>431.12</ele>
        <time>2021-06-06T01:37:28Z</time>
      </trkpt>
      <trkpt lat="43.16166" lon="-0.42334">
        <ele>432.84</ele>
        <time>2021-06-06T01:37:30Z</time>
      </trkpt>
      <trkpt lat="43.16165" lon="-0.42376">
        <ele>437.69</ele>
        <time>2021-06-06T01:37:33Z</time>
      </trkpt>
      <trkpt lat="43.16167" lon="-0.42412">
        <ele>442.64</ele>
        <time>2021-06-06T01:37:35Z</time>
      </trkpt>
      <trkpt lat="43.16166" lon="-0.4243">
        <ele>445.19</ele>
        <time>2021-06-06T01:37:37Z</time>
      </trkpt>
      <trkpt lat="43.16162" lon="-0.42451">
        <ele>447.11</ele>
        <time>2021-06-06T01:37:40Z</time>
      </trkpt>
      <trkpt lat="43.16152" lon="-0.42485">
        <ele>451.07</ele>
        <time>2021-06-06T01:37:42Z</time>
      </trkpt>
      <trkpt lat="43.16145" lon="-0.42499">
        <ele>452.93</ele>
        <time>2021-06-06T01:37:44Z</time>
      </trkpt>
      <trkpt lat="43.16111" lon="-0.42539">
        <ele>454.15</ele>
        <time>2021-06-06T01:37:47Z</time>
      </trkpt>
      <trkpt lat="43.16087" lon="-0.4256">
        <ele>456.98</ele>
        <time>2021-06-06T01:37:49Z</time>
      </trkpt>
      <trkpt lat="43.16078" lon="-0.42563">
        <ele>457.1</ele>
        <time>2021-06-06T01:37:51Z</time>
      </trkpt>
      <trkpt lat="43.16065" lon="-0.42561">
        <ele>456.39</ele>
        <time>2021-06-06T01:37:54Z</time>
      </trkpt>
      <trkpt lat="43.16043" lon="-0.42555">
        <ele>454.35</ele>
        <time>2021-06-06T01:37:56Z</time>
      </trkpt>
      <trkpt lat="43.16031" lon="-0.42555">
        <ele>454.08</ele>
        <time>2021-06-06T01:37:58Z</time>
      </trkpt>
      <trkpt lat="43.16019" lon="-0.42562">
        <ele>454.14</ele>
        <time>2021-06-06T01:38:01Z</time>
      </trkpt>
      <trkpt lat="43.16012" lon="-0.42578">
        <ele>455.26</ele>
        <time>2021-06-06T01:38:03Z</time>
      </trkpt>
      <trkpt lat="43.16008" lon="-0.42595">
        <ele>456.44</ele>
        <time>2021-06-06T01:38:05Z</time>
      </trkpt>
      <trkpt lat="43.16021" lon="-0.42707">
        <ele>462.44</ele>
        <time>2021-06-06T01:38:08Z</time>
      </trkpt>
      <trkpt lat="43.16022" lon="-0.42735">
        <ele>463.99</ele>
        <time>2021-06-06T01:38:10Z</time>
      </trkpt>
      <trkpt lat="43.16014" lon="-0.428">
        <ele>466.46</ele>
        <time>2021-06-06T01:38:12Z</time>
      </trkpt>
      <trkpt lat="43.16003" lon="-0.42847">
        <ele>469.28</ele>
        <time>2021-06-06T01:38:15Z</time>
      </trkpt>
      <trkpt lat="43.15971" lon="-0.42912">
        <ele>472.98</ele>
        <time>2021-06-06T01:38:17Z</time>
      </trkpt>
      <trkpt lat="43.15966" lon="-0.42947">
        <ele>472.25</ele>
        <time>2021-06-06T01:38:19Z</time>
      </trkpt>
      <trkpt lat="43.15951" lon="-0.43216">
        <ele>472.35</ele>
        <time>2021-06-06T01:38:22Z</time>
      </trkpt>
      <trkpt lat="43.15948" lon="-0.43325">
        <ele>472.57</ele>
        <time>2021-06-06T01:38:24Z</time>
      </trkpt>
      <trkpt lat="43.15956" lon="-0.4343">
        <ele>474.36</ele>
        <time>2021-06-06T01:38:26Z</time>
      </trkpt>
      <trkpt lat="43.15963" lon="-0.43461">
        <ele>474.34</ele>
        <time>2021-06-06T01:38:29Z</time>
      </trkpt>
      <trkpt lat="43.16016" lon="-0.43569">
        <ele>473.67</ele>
        <time>2021-06-06T01:38:31Z</time>
      </trkpt>
      <trkpt lat="43.16031" lon="-0.43607">
        <ele>473.51</ele>
        <time>2021-06-06T01:38:33Z</time>
      </trkpt>
      <trkpt lat="43.16087" lon="-0.43845">
        <ele>467.92</ele>
        <time>2021-06-06T01:38:36Z</time>
      </trkpt>
      <trkpt lat="43.16091" lon="-0.43874">
        <ele>467.42</ele>
        <time>2021-06-06T01:38:38Z</time>
      </trkpt>
      <trkpt lat="43.16091" lon="-0.439">
        <ele>465.92</ele>
        <time>2021-06-06T01:38:40Z</time>
      </trkpt>
      <trkpt lat="43.16085" lon="-0.43985">
        <ele>462.47</ele>
        <time>2021-06-06T01:38:42Z</time>
      </trkpt>
      <trkpt lat="43.16101" lon="-0.44086">
        <ele>457.92</ele>
        <time>2021-06-06T01:38:45Z</time>
      </trkpt>
      <trkpt lat="43.16149" lon="-0.44257">
        <ele>452.66</ele>
        <time>2021-06-06T01:38:47Z</time>
      </trkpt>
      <trkpt lat="43.16192" lon="-0.44357">
        <ele>456.31</ele>
        <time>2021-06-06T01:38:49Z</time>
      </trkpt>
      <trkpt lat="43.16205" lon="-0.4438">
        <ele>458.51</ele>
        <time>2021-06-06T01:38:52Z</time>
      </trkpt>
      <trkpt lat="43.16227" lon="-0.44407">
        <ele>459.76</ele>
        <time>2021-06-06T01:38:54Z</time>
      </trkpt>
      <trkpt lat="43.16249" lon="-0.44437">
        <ele>456.82</ele>
        <time>2021-06-06T01:38:56Z</time>
      </trkpt>
      <trkpt lat="43.16264" lon="-0.44473">
        <ele>457.42</ele>
        <time>2021-06-06T01:38:59Z</time>
      </trkpt>
      <trkpt lat="43.16268" lon="-0.44497">
        <ele>457.69</ele>
        <time>2021-06-06T01:39:01Z</time>
      </trkpt>
      <trkpt lat="43.16287" lon="-0.44696">
        <ele>449.66</ele>
        <time>2021-06-06T01:39:03Z</time>
      </trkpt>
      <trkpt lat="43.1628" lon="-0.44953">
        <ele>447.17</ele>
        <time>2021-06-06T01:39:06Z</time>
      </trkpt>
      <trkpt lat="43.16274" lon="-0.45004">
        <ele>445.35</ele>
        <time>2021-06-06T01:39:08Z</time>
      </trkpt>
      <trkpt lat="43.16257" lon="-0.45085">
        <ele>436.69</ele>
        <time>2021-06-06T01:39:10Z</time>
      </trkpt>
      <trkpt lat="43.16264" lon="-0.45103">
        <ele>436.15</ele>
        <time>2021-06-06T01:39:13Z</time>
      </trkpt>
      <trkpt lat="43.16273" lon="-0.45117">
        <ele>435.96</ele>
        <time>2021-06-06T01:39:15Z</time>
      </trkpt>
      <trkpt lat="43.16276" lon="-0.45125">
        <ele>435.96</ele>
        <time>2021-06-06T01:39:17Z</time>
      </trkpt>
      <trkpt lat="43.16275" lon="-0.45132">
        <ele>435.94</ele>
        <time>2021-06-06T01:39:20Z</time>
      </trkpt>
      <trkpt lat="43.16255" lon="-0.45166">
        <ele>435.36</ele>
        <time>2021-06-06T01:39:22Z</time>
      </trkpt>
      <trkpt lat="43.16261" lon="-0.45229">
        <ele>438.98</ele>
        <time>2021-06-06T01:39:24Z</time>
      </trkpt>
      <trkpt lat="43.16268" lon="-0.45419">
        <ele>433.55</ele>
        <time>2021-06-06T01:39:27Z</time>
      </trkpt>
      <trkpt lat="43.16271" lon="-0.4544">
        <ele>432.93</ele>
        <time>2021-06-06T01:39:29Z</time>
      </trkpt>
      <trkpt lat="43.16304" lon="-0.45584">
        <ele>432.94</ele>
        <time>2021-06-06T01:39:31Z</time>
      </trkpt>
      <trkpt lat="43.16328" lon="-0.45737">
        <ele>429.72</ele>
        <time>2021-06-06T01:39:34Z</time>
      </trkpt>
      <trkpt lat="43.16335" lon="-0.45767">
        <ele>430.55</ele>
        <time>2021-06-06T01:39:36Z</time>
      </trkpt>
      <trkpt lat="43.16339" lon="-0.45777">
        <ele>430.76</ele>
        <time>2021-06-06T01:39:38Z</time>
      </trkpt>
      <trkpt lat="43.16344" lon="-0.45782">
        <ele>430.82</ele>
        <time>2021-06-06T01:39:41Z</time>
      </trkpt>
      <trkpt lat="43.16391" lon="-0.45811">
        <ele>426.62</ele>
        <time>2021-06-06T01:39:43Z</time>
      </trkpt>
      <trkpt lat="43.16402" lon="-0.45821">
        <ele>424.14</ele>
        <time>2021-06-06T01:39:45Z</time>
      </trkpt>
      <trkpt lat="43.16414" lon="-0.45837">
        <ele>422.94</ele>
        <time>2021-06-06T01:39:48Z</time>
      </trkpt>
      <trkpt lat="43.16431" lon="-0.4588">
        <ele>423.54</ele>
        <time>2021-06-06T01:39:50Z</time>
      </trkpt>
      <trkpt lat="43.16437" lon="-0.45891">
        <ele>423.2</ele>
        <time>2021-06-06T01:39:52Z</time>
      </trkpt>
      <trkpt lat="43.16473" lon="-0.4592">
        <ele>417</ele>
        <time>2021-06-06T01:39:55Z</time>
      </trkpt>
      <trkpt lat="43.16533" lon="-0.4601">
        <ele>411.32</ele>
        <time>2021-06-06T01:39:57Z</time>
      </trkpt>
      <trkpt lat="43.16551" lon="-0.46029">
        <ele>408.88</ele>
        <time>2021-06-06T01:39:59Z</time>
      </trkpt>
      <trkpt lat="43.16583" lon="-0.46045">
        <ele>404.62</ele>
        <time>2021-06-06T01:40:02Z</time>
      </trkpt>
      <trkpt lat="43.16601" lon="-0.46063">
        <ele>401.87</ele>
        <time>2021-06-06T01:40:04Z</time>
      </trkpt>
      <trkpt lat="43.16606" lon="-0.46076">
        <ele>402.27</ele>
        <time>2021-06-06T01:40:06Z</time>
      </trkpt>
      <trkpt lat="43.16622" lon="-0.46134">
        <ele>405.45</ele>
        <time>2021-06-06T01:40:09Z</time>
      </trkpt>
      <trkpt lat="43.16628" lon="-0.46144">
        <ele>404.64</ele>
        <time>2021-06-06T01:40:11Z</time>
      </trkpt>
      <trkpt lat="43.16641" lon="-0.46153">
        <ele>401.51</ele>
        <time>2021-06-06T01:40:13Z</time>
      </trkpt>
      <trkpt lat="43.16676" lon="-0.46164">
        <ele>394.29</ele>
        <time>2021-06-06T01:40:16Z</time>
      </trkpt>
      <trkpt lat="43.16682" lon="-0.46168">
        <ele>393.26</ele>
        <time>2021-06-06T01:40:18Z</time>
      </trkpt>
      <trkpt lat="43.16689" lon="-0.46176">
        <ele>392.83</ele>
        <time>2021-06-06T01:40:20Z</time>
      </trkpt>
      <trkpt lat="43.16695" lon="-0.46188">
        <ele>392.87</ele>
        <time>2021-06-06T01:40:23Z</time>
      </trkpt>
      <trkpt lat="43.16701" lon="-0.46205">
        <ele>393.68</ele>
        <time>2021-06-06T01:40:25Z</time>
      </trkpt>
      <trkpt lat="43.16722" lon="-0.46281">
        <ele>393.6</ele>
        <time>2021-06-06T01:40:27Z</time>
      </trkpt>
      <trkpt lat="43.16733" lon="-0.463">
        <ele>391.83</ele>
        <time>2021-06-06T01:40:30Z</time>
      </trkpt>
      <trkpt lat="43.16746" lon="-0.46308">
        <ele>388.99</ele>
        <time>2021-06-06T01:40:32Z</time>
      </trkpt>
      <trkpt lat="43.16754" lon="-0.46311">
        <ele>387.51</ele>
        <time>2021-06-06T01:40:34Z</time>
      </trkpt>
      <trkpt lat="43.16842" lon="-0.46318">
        <ele>376.4</ele>
        <time>2021-06-06T01:40:37Z</time>
      </trkpt>
      <trkpt lat="43.16855" lon="-0.46321">
        <ele>376.42</ele>
        <time>2021-06-06T01:40:39Z</time>
      </trkpt>
      <trkpt lat="43.16873" lon="-0.46328">
        <ele>374.15</ele>
        <time>2021-06-06T01:40:41Z</time>
      </trkpt>
      <trkpt lat="43.16886" lon="-0.46336">
        <ele>372.15</ele>
        <time>2021-06-06T01:40:43Z</time>
      </trkpt>
      <trkpt lat="43.16972" lon="-0.46413">
        <ele>358.44</ele>
        <time>2021-06-06T01:40:46Z</time>
      </trkpt>
      <trkpt lat="43.16987" lon="-0.46422">
        <ele>357.12</ele>
        <time>2021-06-06T01:40:48Z</time>
      </trkpt>
      <trkpt lat="43.17003" lon="-0.46426">
        <ele>355.03</ele>
        <time>2021-06-06T01:40:50Z</time>
      </trkpt>
      <trkpt lat="43.17025" lon="-0.46426">
        <ele>352.95</ele>
        <time>2021-06-06T01:40:53Z</time>
      </trkpt>
      <trkpt lat="43.17091" lon="-0.4642">
        <ele>347.79</ele>
        <time>2021-06-06T01:40:55Z</time>
      </trkpt>
      <trkpt lat="43.17104" lon="-0.46422">
        <ele>347.3</ele>
        <time>2021-06-06T01:40:57Z</time>
      </trkpt>
      <trkpt lat="43.17124" lon="-0.46432">
        <ele>346.05</ele>
        <time>2021-06-06T01:41:00Z</time>
      </trkpt>
      <trkpt lat="43.1719" lon="-0.46469">
        <ele>344.55</ele>
        <time>2021-06-06T01:41:02Z</time>
      </trkpt>
      <trkpt lat="43.17208" lon="-0.46482">
        <ele>346.36</ele>
        <time>2021-06-06T01:41:04Z</time>
      </trkpt>
      <trkpt lat="43.17237" lon="-0.46512">
        <ele>348.54</ele>
        <time>2021-06-06T01:41:07Z</time>
      </trkpt>
      <trkpt lat="43.17269" lon="-0.46538">
        <ele>348.94</ele>
        <time>2021-06-06T01:41:09Z</time>
      </trkpt>
      <trkpt lat="43.1734" lon="-0.46576">
        <ele>343.02</ele>
        <time>2021-06-06T01:41:11Z</time>
      </trkpt>
      <trkpt lat="43.17402" lon="-0.4665">
        <ele>343.42</ele>
        <time>2021-06-06T01:41:14Z</time>
      </trkpt>
      <trkpt lat="43.17446" lon="-0.46692">
        <ele>345.73</ele>
        <time>2021-06-06T01:41:16Z</time>
      </trkpt>
      <trkpt lat="43.17469" lon="-0.467">
        <ele>346.61</ele>
        <time>2021-06-06T01:41:18Z</time>
      </trkpt>
      <trkpt lat="43.17523" lon="-0.46676">
        <ele>348.94</ele>
        <time>2021-06-06T01:41:21Z</time>
      </trkpt>
      <trkpt lat="43.17554" lon="-0.46632">
        <ele>346.26</ele>
        <time>2021-06-06T01:41:23Z</time>
      </trkpt>
      <trkpt lat="43.17585" lon="-0.46614">
        <ele>349.51</ele>
        <time>2021-06-06T01:41:25Z</time>
      </trkpt>
      <trkpt lat="43.17598" lon="-0.46599">
        <ele>349.32</ele>
        <time>2021-06-06T01:41:28Z</time>
      </trkpt>
      <trkpt lat="43.17612" lon="-0.46589">
        <ele>350.37</ele>
        <time>2021-06-06T01:41:30Z</time>
      </trkpt>
      <trkpt lat="43.17629" lon="-0.46593">
        <ele>350.02</ele>
        <time>2021-06-06T01:41:32Z</time>
      </trkpt>
      <trkpt lat="43.17639" lon="-0.46609">
        <ele>350.83</ele>
        <time>2021-06-06T01:41:35Z</time>
      </trkpt>
      <trkpt lat="43.1766" lon="-0.46675">
        <ele>350.39</ele>
        <time>2021-06-06T01:41:37Z</time>
      </trkpt>
      <trkpt lat="43.17721" lon="-0.46706">
        <ele>344.86</ele>
        <time>2021-06-06T01:41:39Z</time>
      </trkpt>
      <trkpt lat="43.17796" lon="-0.46681">
        <ele>334.65</ele>
        <time>2021-06-06T01:41:42Z</time>
      </trkpt>
      <trkpt lat="43.17849" lon="-0.46696">
        <ele>331.95</ele>
        <time>2021-06-06T01:41:44Z</time>
      </trkpt>
      <trkpt lat="43.17871" lon="-0.4676">
        <ele>334</ele>
        <time>2021-06-06T01:41:46Z</time>
      </trkpt>
      <trkpt lat="43.17878" lon="-0.4683">
        <ele>335.17</ele>
        <time>2021-06-06T01:41:49Z</time>
      </trkpt>
      <trkpt lat="43.1787" lon="-0.46929">
        <ele>331.33</ele>
        <time>2021-06-06T01:41:51Z</time>
      </trkpt>
      <trkpt lat="43.17886" lon="-0.47029">
        <ele>329.02</ele>
        <time>2021-06-06T01:41:53Z</time>
      </trkpt>
      <trkpt lat="43.17919" lon="-0.47068">
        <ele>329.71</ele>
        <time>2021-06-06T01:41:56Z</time>
      </trkpt>
      <trkpt lat="43.18045" lon="-0.47103">
        <ele>328.44</ele>
        <time>2021-06-06T01:41:58Z</time>
      </trkpt>
      <trkpt lat="43.18095" lon="-0.47085">
        <ele>326.92</ele>
        <time>2021-06-06T01:42:00Z</time>
      </trkpt>
      <trkpt lat="43.18118" lon="-0.47063">
        <ele>325.73</ele>
        <time>2021-06-06T01:42:03Z</time>
      </trkpt>
      <trkpt lat="43.1816" lon="-0.47042">
        <ele>320.02</ele>
        <time>2021-06-06T01:42:05Z</time>
      </trkpt>
      <trkpt lat="43.18193" lon="-0.46985">
        <ele>315.62</ele>
        <time>2021-06-06T01:42:07Z</time>
      </trkpt>
      <trkpt lat="43.18214" lon="-0.46968">
        <ele>315.35</ele>
        <time>2021-06-06T01:42:10Z</time>
      </trkpt>
      <trkpt lat="43.18276" lon="-0.46972">
        <ele>315.15</ele>
        <time>2021-06-06T01:42:12Z</time>
      </trkpt>
      <trkpt lat="43.18339" lon="-0.46998">
        <ele>315.54</ele>
        <time>2021-06-06T01:42:14Z</time>
      </trkpt>
      <trkpt lat="43.18379" lon="-0.46975">
        <ele>316.06</ele>
        <time>2021-06-06T01:42:17Z</time>
      </trkpt>
      <trkpt lat="43.18411" lon="-0.46978">
        <ele>315.65</ele>
        <time>2021-06-06T01:42:19Z</time>
      </trkpt>
      <trkpt lat="43.18431" lon="-0.47">
        <ele>314.94</ele>
        <time>2021-06-06T01:42:21Z</time>
      </trkpt>
      <trkpt lat="43.18445" lon="-0.47136">
        <ele>320.63</ele>
        <time>2021-06-06T01:42:24Z</time>
      </trkpt>
      <trkpt lat="43.1849" lon="-0.47177">
        <ele>313.53</ele>
        <time>2021-06-06T01:42:26Z</time>
      </trkpt>
      <trkpt lat="43.18535" lon="-0.47179">
        <ele>313.25</ele>
        <time>2021-06-06T01:42:28Z</time>
      </trkpt>
      <trkpt lat="43.18674" lon="-0.47121">
        <ele>321.1</ele>
        <time>2021-06-06T01:42:31Z</time>
      </trkpt>
      <trkpt lat="43.18745" lon="-0.47117">
        <ele>318</ele>
        <time>2021-06-06T01:42:33Z</time>
      </trkpt>
      <trkpt lat="43.18807" lon="-0.47163">
        <ele>320.16</ele>
        <time>2021-06-06T01:42:35Z</time>
      </trkpt>
      <trkpt lat="43.1884" lon="-0.4717">
        <ele>320.09</ele>
        <time>2021-06-06T01:42:38Z</time>
      </trkpt>
      <trkpt lat="43.18916" lon="-0.47146">
        <ele>325.17</ele>
        <time>2021-06-06T01:42:40Z</time>
      </trkpt>
      <trkpt lat="43.18951" lon="-0.47162">
        <ele>327.42</ele>
        <time>2021-06-06T01:42:42Z</time>
      </trkpt>
      <trkpt lat="43.18993" lon="-0.47229">
        <ele>328.11</ele>
        <time>2021-06-06T01:42:44Z</time>
      </trkpt>
      <trkpt lat="43.19009" lon="-0.47297">
        <ele>320.79</ele>
        <time>2021-06-06T01:42:47Z</time>
      </trkpt>
      <trkpt lat="43.19034" lon="-0.47308">
        <ele>318.72</ele>
        <time>2021-06-06T01:42:49Z</time>
      </trkpt>
      <trkpt lat="43.19083" lon="-0.47299">
        <ele>314.25</ele>
        <time>2021-06-06T01:42:51Z</time>
      </trkpt>
      <trkpt lat="43.1911" lon="-0.47317">
        <ele>314.52</ele>
        <time>2021-06-06T01:42:54Z</time>
      </trkpt>
      <trkpt lat="43.19136" lon="-0.4734">
        <ele>315.49</ele>
        <time>2021-06-06T01:42:56Z</time>
      </trkpt>
      <trkpt lat="43.19146" lon="-0.47353">
        <ele>316.42</ele>
        <time>2021-06-06T01:42:58Z</time>
      </trkpt>
      <trkpt lat="43.19153" lon="-0.47368">
        <ele>317.49</ele>
        <time>2021-06-06T01:43:01Z</time>
      </trkpt>
      <trkpt lat="43.19161" lon="-0.47388">
        <ele>318.72</ele>
        <time>2021-06-06T01:43:03Z</time>
      </trkpt>
      <trkpt lat="43.19168" lon="-0.47448">
        <ele>317.67</ele>
        <time>2021-06-06T01:43:05Z</time>
      </trkpt>
      <trkpt lat="43.19177" lon="-0.47465">
        <ele>317.37</ele>
        <time>2021-06-06T01:43:08Z</time>
      </trkpt>
      <trkpt lat="43.19186" lon="-0.47474">
        <ele>318.48</ele>
        <time>2021-06-06T01:43:10Z</time>
      </trkpt>
      <trkpt lat="43.19196" lon="-0.47479">
        <ele>320.01</ele>
        <time>2021-06-06T01:43:12Z</time>
      </trkpt>
      <trkpt lat="43.19227" lon="-0.47482">
        <ele>318.41</ele>
        <time>2021-06-06T01:43:15Z</time>
      </trkpt>
      <trkpt lat="43.19234" lon="-0.47485">
        <ele>317.29</ele>
        <time>2021-06-06T01:43:17Z</time>
      </trkpt>
      <trkpt lat="43.19249" lon="-0.47499">
        <ele>315.15</ele>
        <time>2021-06-06T01:43:19Z</time>
      </trkpt>
      <trkpt lat="43.19267" lon="-0.47519">
        <ele>312.03</ele>
        <time>2021-06-06T01:43:22Z</time>
      </trkpt>
      <trkpt lat="43.19368" lon="-0.4766">
        <ele>313.97</ele>
        <time>2021-06-06T01:43:24Z</time>
      </trkpt>
      <trkpt lat="43.19358" lon="-0.47769">
        <ele>312.54</ele>
        <time>2021-06-06T01:43:26Z</time>
      </trkpt>
      <trkpt lat="43.19365" lon="-0.47818">
        <ele>307.94</ele>
        <time>2021-06-06T01:43:29Z</time>
      </trkpt>
      <trkpt lat="43.19369" lon="-0.47836">
        <ele>307.77</ele>
        <time>2021-06-06T01:43:31Z</time>
      </trkpt>
      <trkpt lat="43.19381" lon="-0.47858">
        <ele>307.68</ele>
        <time>2021-06-06T01:43:33Z</time>
      </trkpt>
      <trkpt lat="43.19392" lon="-0.47869">
        <ele>307.78</ele>
        <time>2021-06-06T01:43:36Z</time>
      </trkpt>
      <trkpt lat="43.19432" lon="-0.47899">
        <ele>309.58</ele>
        <time>2021-06-06T01:43:38Z</time>
      </trkpt>
      <trkpt lat="43.19468" lon="-0.4794">
        <ele>308.9</ele>
        <time>2021-06-06T01:43:40Z</time>
      </trkpt>
      <trkpt lat="43.19484" lon="-0.47954">
        <ele>307.67</ele>
        <time>2021-06-06T01:43:43Z</time>
      </trkpt>
      <trkpt lat="43.19538" lon="-0.47957">
        <ele>307.89</ele>
        <time>2021-06-06T01:43:45Z</time>
      </trkpt>
      <trkpt lat="43.19583" lon="-0.47967">
        <ele>307.36</ele>
        <time>2021-06-06T01:43:47Z</time>
      </trkpt>
      <trkpt lat="43.19592" lon="-0.47967">
        <ele>306.77</ele>
        <time>2021-06-06T01:43:50Z</time>
      </trkpt>
      <trkpt lat="43.19623" lon="-0.47884">
        <ele>307.89</ele>
        <time>2021-06-06T01:43:52Z</time>
      </trkpt>
      <trkpt lat="43.19666" lon="-0.47822">
        <ele>307.43</ele>
        <time>2021-06-06T01:43:54Z</time>
      </trkpt>
      <trkpt lat="43.19675" lon="-0.47818">
        <ele>307.11</ele>
        <time>2021-06-06T01:43:57Z</time>
      </trkpt>
      <trkpt lat="43.19687" lon="-0.47818">
        <ele>306.49</ele>
        <time>2021-06-06T01:43:59Z</time>
      </trkpt>
      <trkpt lat="43.19726" lon="-0.47858">
        <ele>303.89</ele>
        <time>2021-06-06T01:44:01Z</time>
      </trkpt>
      <trkpt lat="43.19797" lon="-0.47892">
        <ele>301.55</ele>
        <time>2021-06-06T01:44:04Z</time>
      </trkpt>
      <trkpt lat="43.19825" lon="-0.47884">
        <ele>300.39</ele>
        <time>2021-06-06T01:44:06Z</time>
      </trkpt>
      <trkpt lat="43.19924" lon="-0.47736">
        <ele>297.74</ele>
        <time>2021-06-06T01:44:08Z</time>
      </trkpt>
      <trkpt lat="43.19988" lon="-0.47699">
        <ele>295.87</ele>
        <time>2021-06-06T01:44:11Z</time>
      </trkpt>
      <trkpt lat="43.20021" lon="-0.47661">
        <ele>294.27</ele>
        <time>2021-06-06T01:44:13Z</time>
      </trkpt>
      <trkpt lat="43.20035" lon="-0.47653">
        <ele>294.36</ele>
        <time>2021-06-06T01:44:15Z</time>
      </trkpt>
      <trkpt lat="43.20043" lon="-0.47655">
        <ele>294.01</ele>
        <time>2021-06-06T01:44:18Z</time>
      </trkpt>
      <trkpt lat="43.20056" lon="-0.47669">
        <ele>292.61</ele>
        <time>2021-06-06T01:44:20Z</time>
      </trkpt>
      <trkpt lat="43.20089" lon="-0.47723">
        <ele>288.64</ele>
        <time>2021-06-06T01:44:22Z</time>
      </trkpt>
      <trkpt lat="43.20103" lon="-0.47734">
        <ele>289.64</ele>
        <time>2021-06-06T01:44:25Z</time>
      </trkpt>
      <trkpt lat="43.20115" lon="-0.47737">
        <ele>290.39</ele>
        <time>2021-06-06T01:44:27Z</time>
      </trkpt>
      <trkpt lat="43.20129" lon="-0.47735">
        <ele>290.27</ele>
        <time>2021-06-06T01:44:29Z</time>
      </trkpt>
      <trkpt lat="43.20134" lon="-0.47732">
        <ele>290.37</ele>
        <time>2021-06-06T01:44:32Z</time>
      </trkpt>
      <trkpt lat="43.20148" lon="-0.4772">
        <ele>289.94</ele>
        <time>2021-06-06T01:44:34Z</time>
      </trkpt>
      <trkpt lat="43.20173" lon="-0.47686">
        <ele>289.89</ele>
        <time>2021-06-06T01:44:36Z</time>
      </trkpt>
      <trkpt lat="43.20184" lon="-0.47668">
        <ele>290.32</ele>
        <time>2021-06-06T01:44:39Z</time>
      </trkpt>
      <trkpt lat="43.20187" lon="-0.4766">
        <ele>290.48</ele>
        <time>2021-06-06T01:44:41Z</time>
      </trkpt>
      <trkpt lat="43.20188" lon="-0.47636">
        <ele>291.16</ele>
        <time>2021-06-06T01:44:43Z</time>
      </trkpt>
      <trkpt lat="43.20191" lon="-0.47621">
        <ele>290.61</ele>
        <time>2021-06-06T01:44:46Z</time>
      </trkpt>
      <trkpt lat="43.20198" lon="-0.47608">
        <ele>289.49</ele>
        <time>2021-06-06T01:44:48Z</time>
      </trkpt>
      <trkpt lat="43.20208" lon="-0.476">
        <ele>288.26</ele>
        <time>2021-06-06T01:44:50Z</time>
      </trkpt>
      <trkpt lat="43.2022" lon="-0.47596">
        <ele>287.29</ele>
        <time>2021-06-06T01:44:52Z</time>
      </trkpt>
      <trkpt lat="43.20231" lon="-0.47597">
        <ele>286.08</ele>
        <time>2021-06-06T01:44:55Z</time>
      </trkpt>
      <trkpt lat="43.20246" lon="-0.47601">
        <ele>283.89</ele>
        <time>2021-06-06T01:44:57Z</time>
      </trkpt>
      <trkpt lat="43.20303" lon="-0.47624">
        <ele>280.36</ele>
        <time>2021-06-06T01:44:59Z</time>
      </trkpt>
      <trkpt lat="43.20313" lon="-0.47624">
        <ele>280.15</ele>
        <time>2021-06-06T01:45:02Z</time>
      </trkpt>
      <trkpt lat="43.20321" lon="-0.47619">
        <ele>279.79</ele>
        <time>2021-06-06T01:45:04Z</time>
      </trkpt>
      <trkpt lat="43.20327" lon="-0.47608">
        <ele>279.58</ele>
        <time>2021-06-06T01:45:06Z</time>
      </trkpt>
      <trkpt lat="43.20345" lon="-0.47555">
        <ele>279.33</ele>
        <time>2021-06-06T01:45:09Z</time>
      </trkpt>
      <trkpt lat="43.20354" lon="-0.47536">
        <ele>278</ele>
        <time>2021-06-06T01:45:11Z</time>
      </trkpt>
      <trkpt lat="43.20366" lon="-0.47528">
        <ele>276.37</ele>
        <time>2021-06-06T01:45:13Z</time>
      </trkpt>
      <trkpt lat="43.20376" lon="-0.47524">
        <ele>274.95</ele>
        <time>2021-06-06T01:45:16Z</time>
      </trkpt>
      <trkpt lat="43.20385" lon="-0.47524">
        <ele>273.69</ele>
        <time>2021-06-06T01:45:18Z</time>
      </trkpt>
      <trkpt lat="43.20406" lon="-0.47535">
        <ele>271.17</ele>
        <time>2021-06-06T01:45:20Z</time>
      </trkpt>
      <trkpt lat="43.20426" lon="-0.47565">
        <ele>269.88</ele>
        <time>2021-06-06T01:45:23Z</time>
      </trkpt>
      <trkpt lat="43.20501" lon="-0.47697">
        <ele>264.8</ele>
        <time>2021-06-06T01:45:25Z</time>
      </trkpt>
      <trkpt lat="43.20519" lon="-0.47703">
        <ele>264.16</ele>
        <time>2021-06-06T01:45:27Z</time>
      </trkpt>
      <trkpt lat="43.20566" lon="-0.47667">
        <ele>261.86</ele>
        <time>2021-06-06T01:45:30Z</time>
      </trkpt>
      <trkpt lat="43.20574" lon="-0.47671">
        <ele>260.59</ele>
        <time>2021-06-06T01:45:32Z</time>
      </trkpt>
      <trkpt lat="43.20582" lon="-0.47679">
        <ele>258.82</ele>
        <time>2021-06-06T01:45:34Z</time>
      </trkpt>
      <trkpt lat="43.20607" lon="-0.47722">
        <ele>253.19</ele>
        <time>2021-06-06T01:45:37Z</time>
      </trkpt>
      <trkpt lat="43.20629" lon="-0.47724">
        <ele>251.6</ele>
        <time>2021-06-06T01:45:39Z</time>
      </trkpt>
      <trkpt lat="43.20659" lon="-0.477">
        <ele>252.12</ele>
        <time>2021-06-06T01:45:41Z</time>
      </trkpt>
      <trkpt lat="43.20675" lon="-0.47698">
        <ele>251.09</ele>
        <time>2021-06-06T01:45:44Z</time>
      </trkpt>
      <trkpt lat="43.20692" lon="-0.47698">
        <ele>249.81</ele>
        <time>2021-06-06T01:45:46Z</time>
      </trkpt>
      <trkpt lat="43.20706" lon="-0.47692">
        <ele>249.36</ele>
        <time>2021-06-06T01:45:48Z</time>
      </trkpt>
      <trkpt lat="43.20735" lon="-0.47642">
        <ele>251.42</ele>
        <time>2021-06-06T01:45:51Z</time>
      </trkpt>
      <trkpt lat="43.20754" lon="-0.47637">
        <ele>250.17</ele>
        <time>2021-06-06T01:45:53Z</time>
      </trkpt>
      <trkpt lat="43.20772" lon="-0.47648">
        <ele>249.69</ele>
        <time>2021-06-06T01:45:55Z</time>
      </trkpt>
      <trkpt lat="43.20779" lon="-0.47658">
        <ele>249.32</ele>
        <time>2021-06-06T01:45:58Z</time>
      </trkpt>
      <trkpt lat="43.20796" lon="-0.4774">
        <ele>244.28</ele>
        <time>2021-06-06T01:46:00Z</time>
      </trkpt>
      <trkpt lat="43.20804" lon="-0.47775">
        <ele>241.19</ele>
        <time>2021-06-06T01:46:02Z</time>
      </trkpt>
      <trkpt lat="43.20812" lon="-0.47802">
        <ele>239.33</ele>
        <time>2021-06-06T01:46:05Z</time>
      </trkpt>
      <trkpt lat="43.20818" lon="-0.47814">
        <ele>238.22</ele>
        <time>2021-06-06T01:46:07Z</time>
      </trkpt>
      <trkpt lat="43.20833" lon="-0.47831">
        <ele>236.43</ele>
        <time>2021-06-06T01:46:09Z</time>
      </trkpt>
      <trkpt lat="43.20848" lon="-0.47839">
        <ele>235.05</ele>
        <time>2021-06-06T01:46:12Z</time>
      </trkpt>
      <trkpt lat="43.20925" lon="-0.47851">
        <ele>230.24</ele>
        <time>2021-06-06T01:46:14Z</time>
      </trkpt>
      <trkpt lat="43.20992" lon="-0.4782">
        <ele>230.98</ele>
        <time>2021-06-06T01:46:16Z</time>
      </trkpt>
      <trkpt lat="43.21034" lon="-0.47813">
        <ele>230.83</ele>
        <time>2021-06-06T01:46:19Z</time>
      </trkpt>
      <trkpt lat="43.21059" lon="-0.47819">
        <ele>226.89</ele>
        <time>2021-06-06T01:46:21Z</time>
      </trkpt>
      <trkpt lat="43.21119" lon="-0.47798">
        <ele>224.66</ele>
        <time>2021-06-06T01:46:23Z</time>
      </trkpt>
      <trkpt lat="43.21145" lon="-0.47813">
        <ele>218.88</ele>
        <time>2021-06-06T01:46:26Z</time>
      </trkpt>
      <trkpt lat="43.21175" lon="-0.4782">
        <ele>213.86</ele>
        <time>2021-06-06T01:46:28Z</time>
      </trkpt>
      <trkpt lat="43.2129" lon="-0.47746">
        <ele>212.3</ele>
        <time>2021-06-06T01:46:30Z</time>
      </trkpt>
      <trkpt lat="43.21333" lon="-0.4776">
        <ele>210.67</ele>
        <time>2021-06-06T01:46:33Z</time>
      </trkpt>
      <trkpt lat="43.21357" lon="-0.47753">
        <ele>209.16</ele>
        <time>2021-06-06T01:46:35Z</time>
      </trkpt>
      <trkpt lat="43.21481" lon="-0.47658">
        <ele>196.59</ele>
        <time>2021-06-06T01:46:37Z</time>
      </trkpt>
      <trkpt lat="43.21526" lon="-0.47598">
        <ele>189.37</ele>
        <time>2021-06-06T01:46:40Z</time>
      </trkpt>
      <trkpt lat="43.21538" lon="-0.47585">
        <ele>187.48</ele>
        <time>2021-06-06T01:46:42Z</time>
      </trkpt>
      <trkpt lat="43.21594" lon="-0.4754">
        <ele>181.84</ele>
        <time>2021-06-06T01:46:44Z</time>
      </trkpt>
      <trkpt lat="43.21607" lon="-0.47532">
        <ele>180.57</ele>
        <time>2021-06-06T01:46:47Z</time>
      </trkpt>
      <trkpt lat="43.21617" lon="-0.47528">
        <ele>180.23</ele>
        <time>2021-06-06T01:46:49Z</time>
      </trkpt>
      <trkpt lat="43.21632" lon="-0.47529">
        <ele>180.86</ele>
        <time>2021-06-06T01:46:51Z</time>
      </trkpt>
      <trkpt lat="43.21644" lon="-0.47534">
        <ele>181.75</ele>
        <time>2021-06-06T01:46:53Z</time>
      </trkpt>
      <trkpt lat="43.21672" lon="-0.47555">
        <ele>182.65</ele>
        <time>2021-06-06T01:46:56Z</time>
      </trkpt>
      <trkpt lat="43.21691" lon="-0.47573">
        <ele>181.88</ele>
        <time>2021-06-06T01:46:58Z</time>
      </trkpt>
      <trkpt lat="43.21723" lon="-0.47583">
        <ele>179.96</ele>
        <time>2021-06-06T01:47:00Z</time>
      </trkpt>
      <trkpt lat="43.21894" lon="-0.47634">
        <ele>177.33</ele>
        <time>2021-06-06T01:47:03Z</time>
      </trkpt>
      <trkpt lat="43.21905" lon="-0.47637">
        <ele>178.17</ele>
        <time>2021-06-06T01:47:05Z</time>
      </trkpt>
      <trkpt lat="43.21927" lon="-0.47636">
        <ele>179.8</ele>
        <time>2021-06-06T01:47:07Z</time>
      </trkpt>
      <trkpt lat="43.21947" lon="-0.47634">
        <ele>181.27</ele>
        <time>2021-06-06T01:47:10Z</time>
      </trkpt>
      <trkpt lat="43.21959" lon="-0.47635">
        <ele>181.71</ele>
        <time>2021-06-06T01:47:12Z</time>
      </trkpt>
      <trkpt lat="43.2205" lon="-0.47655">
        <ele>180.61</ele>
        <time>2021-06-06T01:47:15Z</time>
      </trkpt>
      <trkpt lat="43.22052" lon="-0.47664">
        <ele>180.24</ele>
        <time>2021-06-06T01:47:24Z</time>
      </trkpt>
      <trkpt lat="43.22081" lon="-0.47717">
        <ele>178.75</ele>
        <time>2021-06-06T01:47:33Z</time>
      </trkpt>
      <trkpt lat="43.22112" lon="-0.47796">
        <ele>182.65</ele>
        <time>2021-06-06T01:47:42Z</time>
      </trkpt>
      <trkpt lat="43.22127" lon="-0.47789">
        <ele>182.39</ele>
        <time>2021-06-06T01:47:48Z</time>
      </trkpt>
      <trkpt lat="43.22137" lon="-0.47787">
        <ele>182.32</ele>
        <time>2021-06-06T01:47:54Z</time>
      </trkpt>
      <trkpt lat="43.22147" lon="-0.47787">
        <ele>182.04</ele>
        <time>2021-06-06T01:47:59Z</time>
      </trkpt>
      <trkpt lat="43.2222" lon="-0.47843">
        <ele>178.57</ele>
        <time>2021-06-06T01:48:05Z</time>
      </trkpt>
      <trkpt lat="43.22293" lon="-0.47917">
        <ele>179</ele>
        <time>2021-06-06T01:48:11Z</time>
      </trkpt>
      <trkpt lat="43.22329" lon="-0.47949">
        <ele>180.31</ele>
        <time>2021-06-06T01:48:16Z</time>
      </trkpt>
      <trkpt lat="43.22369" lon="-0.47973">
        <ele>180.02</ele>
        <time>2021-06-06T01:48:22Z</time>
      </trkpt>
      <trkpt lat="43.22496" lon="-0.48033">
        <ele>178.28</ele>
        <time>2021-06-06T01:48:28Z</time>
      </trkpt>
      <trkpt lat="43.22535" lon="-0.48042">
        <ele>178.14</ele>
        <time>2021-06-06T01:48:34Z</time>
      </trkpt>
      <trkpt lat="43.22641" lon="-0.4804">
        <ele>181.47</ele>
        <time>2021-06-06T01:48:39Z</time>
      </trkpt>
      <trkpt lat="43.22663" lon="-0.48044">
        <ele>182.09</ele>
        <time>2021-06-06T01:48:45Z</time>
      </trkpt>
      <trkpt lat="43.22675" lon="-0.48049">
        <ele>182.59</ele>
        <time>2021-06-06T01:48:51Z</time>
      </trkpt>
      <trkpt lat="43.227" lon="-0.48064">
        <ele>183.23</ele>
        <time>2021-06-06T01:48:56Z</time>
      </trkpt>
      <trkpt lat="43.22763" lon="-0.48116">
        <ele>180.09</ele>
        <time>2021-06-06T01:49:02Z</time>
      </trkpt>
      <trkpt lat="43.22785" lon="-0.48131">
        <ele>179.19</ele>
        <time>2021-06-06T01:49:08Z</time>
      </trkpt>
      <trkpt lat="43.22814" lon="-0.48145">
        <ele>180.02</ele>
        <time>2021-06-06T01:49:13Z</time>
      </trkpt>
      <trkpt lat="43.22866" lon="-0.48156">
        <ele>179.61</ele>
        <time>2021-06-06T01:49:19Z</time>
      </trkpt>
      <trkpt lat="43.23185" lon="-0.48233">
        <ele>171.7</ele>
        <time>2021-06-06T01:49:25Z</time>
      </trkpt>
      <trkpt lat="43.23303" lon="-0.482">
        <ele>172.73</ele>
        <time>2021-06-06T01:49:31Z</time>
      </trkpt>
      <trkpt lat="43.23348" lon="-0.4822">
        <ele>174.74</ele>
        <time>2021-06-06T01:49:36Z</time>
      </trkpt>
      <trkpt lat="43.23489" lon="-0.48348">
        <ele>173.46</ele>
        <time>2021-06-06T01:49:42Z</time>
      </trkpt>
      <trkpt lat="43.23655" lon="-0.48481">
        <ele>174.77</ele>
        <time>2021-06-06T01:49:48Z</time>
      </trkpt>
      <trkpt lat="43.23901" lon="-0.4857">
        <ele>180.18</ele>
        <time>2021-06-06T01:49:53Z</time>
      </trkpt>
      <trkpt lat="43.23951" lon="-0.48586">
        <ele>184.66</ele>
        <time>2021-06-06T01:49:59Z</time>
      </trkpt>
      <trkpt lat="43.2404" lon="-0.48553">
        <ele>176.67</ele>
        <time>2021-06-06T01:50:05Z</time>
      </trkpt>
      <trkpt lat="43.24074" lon="-0.48563">
        <ele>177.64</ele>
        <time>2021-06-06T01:50:10Z</time>
      </trkpt>
      <trkpt lat="43.24103" lon="-0.48585">
        <ele>178.32</ele>
        <time>2021-06-06T01:50:16Z</time>
      </trkpt>
      <trkpt lat="43.24119" lon="-0.48608">
        <ele>177.48</ele>
        <time>2021-06-06T01:50:22Z</time>
      </trkpt>
      <trkpt lat="43.24139" lon="-0.48626">
        <ele>175.49</ele>
        <time>2021-06-06T01:50:27Z</time>
      </trkpt>
      <trkpt lat="43.24232" lon="-0.48674">
        <ele>173.27</ele>
        <time>2021-06-06T01:50:33Z</time>
      </trkpt>
      <trkpt lat="43.24259" lon="-0.48694">
        <ele>173.65</ele>
        <time>2021-06-06T01:50:39Z</time>
      </trkpt>
      <trkpt lat="43.24285" lon="-0.48724">
        <ele>173.68</ele>
        <time>2021-06-06T01:50:45Z</time>
      </trkpt>
      <trkpt lat="43.24311" lon="-0.48765">
        <ele>171.67</ele>
        <time>2021-06-06T01:50:50Z</time>
      </trkpt>
      <trkpt lat="43.24345" lon="-0.48812">
        <ele>169.83</ele>
        <time>2021-06-06T01:50:56Z</time>
      </trkpt>
      <trkpt lat="43.2437" lon="-0.48837">
        <ele>169.35</ele>
        <time>2021-06-06T01:51:02Z</time>
      </trkpt>
      <trkpt lat="43.24422" lon="-0.48879">
        <ele>166.54</ele>
        <time>2021-06-06T01:51:07Z</time>
      </trkpt>
      <trkpt lat="43.2446" lon="-0.48933">
        <ele>167.34</ele>
        <time>2021-06-06T01:51:13Z</time>
      </trkpt>
      <trkpt lat="43.24491" lon="-0.49001">
        <ele>170.37</ele>
        <time>2021-06-06T01:51:19Z</time>
      </trkpt>
      <trkpt lat="43.2451" lon="-0.49082">
        <ele>171.33</ele>
        <time>2021-06-06T01:51:24Z</time>
      </trkpt>
      <trkpt lat="43.24524" lon="-0.49123">
        <ele>173.38</ele>
        <time>2021-06-06T01:51:30Z</time>
      </trkpt>
      <trkpt lat="43.24548" lon="-0.49159">
        <ele>175.32</ele>
        <time>2021-06-06T01:51:36Z</time>
      </trkpt>
      <trkpt lat="43.24574" lon="-0.49186">
        <ele>178.37</ele>
        <time>2021-06-06T01:51:42Z</time>
      </trkpt>
      <trkpt lat="43.24606" lon="-0.49205">
        <ele>178.65</ele>
        <time>2021-06-06T01:51:47Z</time>
      </trkpt>
      <trkpt lat="43.24683" lon="-0.49244">
        <ele>174.95</ele>
        <time>2021-06-06T01:51:53Z</time>
      </trkpt>
      <trkpt lat="43.24719" lon="-0.4927">
        <ele>175.95</ele>
        <time>2021-06-06T01:51:59Z</time>
      </trkpt>
      <trkpt lat="43.2474" lon="-0.49291">
        <ele>177.33</ele>
        <time>2021-06-06T01:52:04Z</time>
      </trkpt>
      <trkpt lat="43.24809" lon="-0.49397">
        <ele>166.41</ele>
        <time>2021-06-06T01:52:10Z</time>
      </trkpt>
      <trkpt lat="43.24838" lon="-0.49426">
        <ele>168.4</ele>
        <time>2021-06-06T01:52:16Z</time>
      </trkpt>
      <trkpt lat="43.24872" lon="-0.49452">
        <ele>172.61</ele>
        <time>2021-06-06T01:52:21Z</time>
      </trkpt>
      <trkpt lat="43.24913" lon="-0.49477">
        <ele>175.12</ele>
        <time>2021-06-06T01:52:27Z</time>
      </trkpt>
      <trkpt lat="43.24959" lon="-0.49499">
        <ele>172.82</ele>
        <time>2021-06-06T01:52:33Z</time>
      </trkpt>
      <trkpt lat="43.25212" lon="-0.49596">
        <ele>175.96</ele>
        <time>2021-06-06T01:52:38Z</time>
      </trkpt>
      <trkpt lat="43.25247" lon="-0.49615">
        <ele>173.99</ele>
        <time>2021-06-06T01:52:44Z</time>
      </trkpt>
      <trkpt lat="43.25272" lon="-0.49641">
        <ele>176.73</ele>
        <time>2021-06-06T01:52:50Z</time>
      </trkpt>
      <trkpt lat="43.25336" lon="-0.4973">
        <ele>182.01</ele>
        <time>2021-06-06T01:52:56Z</time>
      </trkpt>
      <trkpt lat="43.25359" lon="-0.49755">
        <ele>182.88</ele>
        <time>2021-06-06T01:53:01Z</time>
      </trkpt>
      <trkpt lat="43.25383" lon="-0.49769">
        <ele>182.59</ele>
        <time>2021-06-06T01:53:07Z</time>
      </trkpt>
      <trkpt lat="43.25488" lon="-0.4981">
        <ele>178.33</ele>
        <time>2021-06-06T01:53:13Z</time>
      </trkpt>
      <trkpt lat="43.25515" lon="-0.49825">
        <ele>178.93</ele>
        <time>2021-06-06T01:53:18Z</time>
      </trkpt>
      <trkpt lat="43.25652" lon="-0.49932">
        <ele>175.5</ele>
        <time>2021-06-06T01:53:24Z</time>
      </trkpt>
      <trkpt lat="43.25671" lon="-0.49947">
        <ele>174.07</ele>
        <time>2021-06-06T01:53:30Z</time>
      </trkpt>
      <trkpt lat="43.25692" lon="-0.4996">
        <ele>173.64</ele>
        <time>2021-06-06T01:53:35Z</time>
      </trkpt>
      <trkpt lat="43.25717" lon="-0.49971">
        <ele>171.6</ele>
        <time>2021-06-06T01:53:41Z</time>
      </trkpt>
      <trkpt lat="43.25898" lon="-0.49994">
        <ele>164.6</ele>
        <time>2021-06-06T01:53:47Z</time>
      </trkpt>
      <trkpt lat="43.26093" lon="-0.50011">
        <ele>162.25</ele>
        <time>2021-06-06T01:53:52Z</time>
      </trkpt>
      <trkpt lat="43.26142" lon="-0.50037">
        <ele>163.21</ele>
        <time>2021-06-06T01:53:58Z</time>
      </trkpt>
      <trkpt lat="43.26268" lon="-0.50127">
        <ele>165.04</ele>
        <time>2021-06-06T01:54:04Z</time>
      </trkpt>
      <trkpt lat="43.26349" lon="-0.50184">
        <ele>166.62</ele>
        <time>2021-06-06T01:54:10Z</time>
      </trkpt>
      <trkpt lat="43.26491" lon="-0.50293">
        <ele>167.55</ele>
        <time>2021-06-06T01:54:15Z</time>
      </trkpt>
      <trkpt lat="43.26557" lon="-0.50319">
        <ele>164.93</ele>
        <time>2021-06-06T01:54:21Z</time>
      </trkpt>
      <trkpt lat="43.2669" lon="-0.50368">
        <ele>167</ele>
        <time>2021-06-06T01:54:27Z</time>
      </trkpt>
      <trkpt lat="43.26702" lon="-0.50372">
        <ele>166.71</ele>
        <time>2021-06-06T01:54:32Z</time>
      </trkpt>
      <trkpt lat="43.26904" lon="-0.50514">
        <ele>166.2</ele>
        <time>2021-06-06T01:54:38Z</time>
      </trkpt>
      <trkpt lat="43.27043" lon="-0.50597">
        <ele>162.16</ele>
        <time>2021-06-06T01:54:44Z</time>
      </trkpt>
      <trkpt lat="43.27114" lon="-0.50645">
        <ele>157.4</ele>
        <time>2021-06-06T01:54:49Z</time>
      </trkpt>
      <trkpt lat="43.2713" lon="-0.50652">
        <ele>157.96</ele>
        <time>2021-06-06T01:54:55Z</time>
      </trkpt>
      <trkpt lat="43.27147" lon="-0.50669">
        <ele>159.37</ele>
        <time>2021-06-06T01:55:01Z</time>
      </trkpt>
      <trkpt lat="43.27181" lon="-0.50683">
        <ele>161.14</ele>
        <time>2021-06-06T01:55:06Z</time>
      </trkpt>
      <trkpt lat="43.27222" lon="-0.50708">
        <ele>165.41</ele>
        <time>2021-06-06T01:55:12Z</time>
      </trkpt>
      <trkpt lat="43.27339" lon="-0.50803">
        <ele>166.71</ele>
        <time>2021-06-06T01:55:18Z</time>
      </trkpt>
      <trkpt lat="43.27484" lon="-0.50882">
        <ele>167.46</ele>
        <time>2021-06-06T01:55:23Z</time>
      </trkpt>
      <trkpt lat="43.27557" lon="-0.50907">
        <ele>163.64</ele>
        <time>2021-06-06T01:55:29Z</time>
      </trkpt>
      <trkpt lat="43.27643" lon="-0.50978">
        <ele>169</ele>
        <time>2021-06-06T01:55:35Z</time>
      </trkpt>
      <trkpt lat="43.27713" lon="-0.5099">
        <ele>167.34</ele>
        <time>2021-06-06T01:55:40Z</time>
      </trkpt>
      <trkpt lat="43.27759" lon="-0.5099">
        <ele>165.57</ele>
        <time>2021-06-06T01:55:46Z</time>
      </trkpt>
      <trkpt lat="43.27777" lon="-0.50984">
        <ele>164.47</ele>
        <time>2021-06-06T01:55:52Z</time>
      </trkpt>
      <trkpt lat="43.27827" lon="-0.50953">
        <ele>161.44</ele>
        <time>2021-06-06T01:55:57Z</time>
      </trkpt>
      <trkpt lat="43.2785" lon="-0.50948">
        <ele>161.7</ele>
        <time>2021-06-06T01:56:03Z</time>
      </trkpt>
      <trkpt lat="43.27897" lon="-0.50955">
        <ele>162.72</ele>
        <time>2021-06-06T01:56:09Z</time>
      </trkpt>
      <trkpt lat="43.27906" lon="-0.50951">
        <ele>162.38</ele>
        <time>2021-06-06T01:56:14Z</time>
      </trkpt>
      <trkpt lat="43.27949" lon="-0.50994">
        <ele>163.05</ele>
        <time>2021-06-06T01:56:19Z</time>
      </trkpt>
      <trkpt lat="43.2807" lon="-0.51059">
        <ele>169.14</ele>
        <time>2021-06-06T01:56:23Z</time>
      </trkpt>
      <trkpt lat="43.28085" lon="-0.51068">
        <ele>169.42</ele>
        <time>2021-06-06T01:56:27Z</time>
      </trkpt>
      <trkpt lat="43.28127" lon="-0.51085">
        <ele>169.63</ele>
        <time>2021-06-06T01:56:31Z</time>
      </trkpt>
      <trkpt lat="43.28178" lon="-0.51098">
        <ele>170.15</ele>
        <time>2021-06-06T01:56:36Z</time>
      </trkpt>
      <trkpt lat="43.28216" lon="-0.51106">
        <ele>168.55</ele>
        <time>2021-06-06T01:56:40Z</time>
      </trkpt>
      <trkpt lat="43.28236" lon="-0.51105">
        <ele>167.23</ele>
        <time>2021-06-06T01:56:44Z</time>
      </trkpt>
      <trkpt lat="43.28271" lon="-0.51093">
        <ele>164.7</ele>
        <time>2021-06-06T01:56:48Z</time>
      </trkpt>
      <trkpt lat="43.28277" lon="-0.51089">
        <ele>164.11</ele>
        <time>2021-06-06T01:56:52Z</time>
      </trkpt>
      <trkpt lat="43.28308" lon="-0.51087">
        <ele>164.09</ele>
        <time>2021-06-06T01:56:57Z</time>
      </trkpt>
      <trkpt lat="43.28348" lon="-0.51092">
        <ele>166.27</ele>
        <time>2021-06-06T01:57:01Z</time>
      </trkpt>
      <trkpt lat="43.28392" lon="-0.5111">
        <ele>167.81</ele>
        <time>2021-06-06T01:57:05Z</time>
      </trkpt>
      <trkpt lat="43.28452" lon="-0.51151">
        <ele>162.48</ele>
        <time>2021-06-06T01:57:09Z</time>
      </trkpt>
      <trkpt lat="43.2858" lon="-0.51288">
        <ele>166.5</ele>
        <time>2021-06-06T01:57:14Z</time>
      </trkpt>
      <trkpt lat="43.28607" lon="-0.51329">
        <ele>170.31</ele>
        <time>2021-06-06T01:57:18Z</time>
      </trkpt>
      <trkpt lat="43.28623" lon="-0.51358">
        <ele>172.72</ele>
        <time>2021-06-06T01:57:22Z</time>
      </trkpt>
      <trkpt lat="43.28651" lon="-0.5143">
        <ele>173.57</ele>
        <time>2021-06-06T01:57:26Z</time>
      </trkpt>
      <trkpt lat="43.28663" lon="-0.51451">
        <ele>173.15</ele>
        <time>2021-06-06T01:57:31Z</time>
      </trkpt>
      <trkpt lat="43.2868" lon="-0.51469">
        <ele>172.46</ele>
        <time>2021-06-06T01:57:35Z</time>
      </trkpt>
      <trkpt lat="43.28721" lon="-0.51503">
        <ele>173.12</ele>
        <time>2021-06-06T01:57:39Z</time>
      </trkpt>
      <trkpt lat="43.2877" lon="-0.51552">
        <ele>176.43</ele>
        <time>2021-06-06T01:57:43Z</time>
      </trkpt>
      <trkpt lat="43.28781" lon="-0.51568">
        <ele>177.81</ele>
        <time>2021-06-06T01:57:48Z</time>
      </trkpt>
      <trkpt lat="43.28794" lon="-0.51596">
        <ele>178.43</ele>
        <time>2021-06-06T01:57:52Z</time>
      </trkpt>
      <trkpt lat="43.28826" lon="-0.51701">
        <ele>178.02</ele>
        <time>2021-06-06T01:57:56Z</time>
      </trkpt>
      <trkpt lat="43.28852" lon="-0.5174">
        <ele>179.62</ele>
        <time>2021-06-06T01:58:00Z</time>
      </trkpt>
      <trkpt lat="43.28947" lon="-0.51776">
        <ele>178.84</ele>
        <time>2021-06-06T01:58:04Z</time>
      </trkpt>
      <trkpt lat="43.28962" lon="-0.51789">
        <ele>180.04</ele>
        <time>2021-06-06T01:58:09Z</time>
      </trkpt>
      <trkpt lat="43.28981" lon="-0.51813">
        <ele>182.13</ele>
        <time>2021-06-06T01:58:13Z</time>
      </trkpt>
      <trkpt lat="43.29031" lon="-0.51863">
        <ele>184.06</ele>
        <time>2021-06-06T01:58:17Z</time>
      </trkpt>
      <trkpt lat="43.29078" lon="-0.519">
        <ele>183.89</ele>
        <time>2021-06-06T01:58:21Z</time>
      </trkpt>
      <trkpt lat="43.29103" lon="-0.51917">
        <ele>185.44</ele>
        <time>2021-06-06T01:58:26Z</time>
      </trkpt>
      <trkpt lat="43.2912" lon="-0.51936">
        <ele>187.72</ele>
        <time>2021-06-06T01:58:30Z</time>
      </trkpt>
      <trkpt lat="43.29129" lon="-0.51954">
        <ele>188.9</ele>
        <time>2021-06-06T01:58:34Z</time>
      </trkpt>
      <trkpt lat="43.29135" lon="-0.5198">
        <ele>189.96</ele>
        <time>2021-06-06T01:58:38Z</time>
      </trkpt>
      <trkpt lat="43.29144" lon="-0.52064">
        <ele>195.04</ele>
        <time>2021-06-06T01:58:43Z</time>
      </trkpt>
      <trkpt lat="43.29154" lon="-0.5211">
        <ele>196.75</ele>
        <time>2021-06-06T01:58:47Z</time>
      </trkpt>
      <trkpt lat="43.29196" lon="-0.52176">
        <ele>201.75</ele>
        <time>2021-06-06T01:58:51Z</time>
      </trkpt>
      <trkpt lat="43.29209" lon="-0.52205">
        <ele>204.44</ele>
        <time>2021-06-06T01:58:55Z</time>
      </trkpt>
      <trkpt lat="43.29202" lon="-0.52363">
        <ele>223.13</ele>
        <time>2021-06-06T01:58:59Z</time>
      </trkpt>
      <trkpt lat="43.2924" lon="-0.52427">
        <ele>221.24</ele>
        <time>2021-06-06T01:59:04Z</time>
      </trkpt>
      <trkpt lat="43.29268" lon="-0.52459">
        <ele>219.44</ele>
        <time>2021-06-06T01:59:08Z</time>
      </trkpt>
      <trkpt lat="43.29282" lon="-0.52501">
        <ele>225.06</ele>
        <time>2021-06-06T01:59:12Z</time>
      </trkpt>
      <trkpt lat="43.29297" lon="-0.52526">
        <ele>228.73</ele>
        <time>2021-06-06T01:59:16Z</time>
      </trkpt>
      <trkpt lat="43.29359" lon="-0.52577">
        <ele>231.67</ele>
        <time>2021-06-06T01:59:21Z</time>
      </trkpt>
      <trkpt lat="43.2938" lon="-0.52578">
        <ele>229.47</ele>
        <time>2021-06-06T01:59:25Z</time>
      </trkpt>
      <trkpt lat="43.29399" lon="-0.52561">
        <ele>225.66</ele>
        <time>2021-06-06T01:59:29Z</time>
      </trkpt>
      <trkpt lat="43.29433" lon="-0.52569">
        <ele>224.83</ele>
        <time>2021-06-06T01:59:33Z</time>
      </trkpt>
      <trkpt lat="43.29468" lon="-0.52607">
        <ele>229.47</ele>
        <time>2021-06-06T01:59:38Z</time>
      </trkpt>
      <trkpt lat="43.29495" lon="-0.52644">
        <ele>234.2</ele>
        <time>2021-06-06T01:59:42Z</time>
      </trkpt>
      <trkpt lat="43.29521" lon="-0.52722">
        <ele>235.93</ele>
        <time>2021-06-06T01:59:46Z</time>
      </trkpt>
      <trkpt lat="43.29611" lon="-0.52828">
        <ele>245.33</ele>
        <time>2021-06-06T01:59:50Z</time>
      </trkpt>
      <trkpt lat="43.2968" lon="-0.52858">
        <ele>246.19</ele>
        <time>2021-06-06T01:59:55Z</time>
      </trkpt>
      <trkpt lat="43.29718" lon="-0.52888">
        <ele>246.54</ele>
        <time>2021-06-06T01:59:59Z</time>
      </trkpt>
      <trkpt lat="43.29775" lon="-0.52967">
        <ele>247.59</ele>
        <time>2021-06-06T02:00:03Z</time>
      </trkpt>
      <trkpt lat="43.29817" lon="-0.5303">
        <ele>243.78</ele>
        <time>2021-06-06T02:00:07Z</time>
      </trkpt>
      <trkpt lat="43.29858" lon="-0.5311">
        <ele>245.92</ele>
        <time>2021-06-06T02:00:11Z</time>
      </trkpt>
      <trkpt lat="43.29884" lon="-0.53154">
        <ele>247.72</ele>
        <time>2021-06-06T02:00:16Z</time>
      </trkpt>
      <trkpt lat="43.29912" lon="-0.53188">
        <ele>248.73</ele>
        <time>2021-06-06T02:00:20Z</time>
      </trkpt>
      <trkpt lat="43.30075" lon="-0.533">
        <ele>264.31</ele>
        <time>2021-06-06T02:00:24Z</time>
      </trkpt>
      <trkpt lat="43.30144" lon="-0.53368">
        <ele>269.49</ele>
        <time>2021-06-06T02:00:28Z</time>
      </trkpt>
      <trkpt lat="43.30213" lon="-0.53521">
        <ele>269.95</ele>
        <time>2021-06-06T02:00:33Z</time>
      </trkpt>
      <trkpt lat="43.30255" lon="-0.53592">
        <ele>275</ele>
        <time>2021-06-06T02:00:37Z</time>
      </trkpt>
      <trkpt lat="43.30287" lon="-0.53619">
        <ele>275.1</ele>
        <time>2021-06-06T02:00:41Z</time>
      </trkpt>
      <trkpt lat="43.3047" lon="-0.53692">
        <ele>280.45</ele>
        <time>2021-06-06T02:00:45Z</time>
      </trkpt>
      <trkpt lat="43.30514" lon="-0.53741">
        <ele>288.78</ele>
        <time>2021-06-06T02:00:50Z</time>
      </trkpt>
      <trkpt lat="43.3054" lon="-0.53824">
        <ele>288.03</ele>
        <time>2021-06-06T02:00:54Z</time>
      </trkpt>
      <trkpt lat="43.30581" lon="-0.53876">
        <ele>283.09</ele>
        <time>2021-06-06T02:00:58Z</time>
      </trkpt>
      <trkpt lat="43.30602" lon="-0.53884">
        <ele>281.57</ele>
        <time>2021-06-06T02:01:02Z</time>
      </trkpt>
      <trkpt lat="43.30622" lon="-0.53886">
        <ele>281.58</ele>
        <time>2021-06-06T02:01:07Z</time>
      </trkpt>
      <trkpt lat="43.30643" lon="-0.539">
        <ele>283.11</ele>
        <time>2021-06-06T02:01:11Z</time>
      </trkpt>
      <trkpt lat="43.30685" lon="-0.5399">
        <ele>282.77</ele>
        <time>2021-06-06T02:01:15Z</time>
      </trkpt>
      <trkpt lat="43.30709" lon="-0.54015">
        <ele>282.53</ele>
        <time>2021-06-06T02:01:19Z</time>
      </trkpt>
      <trkpt lat="43.30743" lon="-0.54036">
        <ele>285.26</ele>
        <time>2021-06-06T02:01:23Z</time>
      </trkpt>
      <trkpt lat="43.30834" lon="-0.54055">
        <ele>286.9</ele>
        <time>2021-06-06T02:01:28Z</time>
      </trkpt>
      <trkpt lat="43.30922" lon="-0.54096">
        <ele>293.27</ele>
        <time>2021-06-06T02:01:32Z</time>
      </trkpt>
      <trkpt lat="43.30953" lon="-0.54118">
        <ele>293.1</ele>
        <time>2021-06-06T02:01:36Z</time>
      </trkpt>
      <trkpt lat="43.30977" lon="-0.54154">
        <ele>292.74</ele>
        <time>2021-06-06T02:01:40Z</time>
      </trkpt>
      <trkpt lat="43.31046" lon="-0.54332">
        <ele>282.96</ele>
        <time>2021-06-06T02:01:45Z</time>
      </trkpt>
      <trkpt lat="43.31082" lon="-0.54405">
        <ele>284.41</ele>
        <time>2021-06-06T02:01:49Z</time>
      </trkpt>
      <trkpt lat="43.31117" lon="-0.54462">
        <ele>279.98</ele>
        <time>2021-06-06T02:01:53Z</time>
      </trkpt>
      <trkpt lat="43.31236" lon="-0.54551">
        <ele>276.04</ele>
        <time>2021-06-06T02:01:57Z</time>
      </trkpt>
      <trkpt lat="43.3127" lon="-0.5457">
        <ele>275.67</ele>
        <time>2021-06-06T02:02:02Z</time>
      </trkpt>
      <trkpt lat="43.31338" lon="-0.54673">
        <ele>276.35</ele>
        <time>2021-06-06T02:02:06Z</time>
      </trkpt>
      <trkpt lat="43.31518" lon="-0.54919">
        <ele>270.85</ele>
        <time>2021-06-06T02:02:10Z</time>
      </trkpt>
      <trkpt lat="43.31592" lon="-0.55042">
        <ele>263.61</ele>
        <time>2021-06-06T02:02:14Z</time>
      </trkpt>
      <trkpt lat="43.31615" lon="-0.55071">
        <ele>265.2</ele>
        <time>2021-06-06T02:02:18Z</time>
      </trkpt>
      <trkpt lat="43.31644" lon="-0.55085">
        <ele>268.41</ele>
        <time>2021-06-06T02:02:23Z</time>
      </trkpt>
      <trkpt lat="43.31728" lon="-0.55109">
        <ele>271.01</ele>
        <time>2021-06-06T02:02:27Z</time>
      </trkpt>
      <trkpt lat="43.31755" lon="-0.55119">
        <ele>272.32</ele>
        <time>2021-06-06T02:02:31Z</time>
      </trkpt>
      <trkpt lat="43.31796" lon="-0.55141">
        <ele>273.49</ele>
        <time>2021-06-06T02:02:35Z</time>
      </trkpt>
      <trkpt lat="43.31831" lon="-0.55167">
        <ele>275.07</ele>
        <time>2021-06-06T02:02:40Z</time>
      </trkpt>
      <trkpt lat="43.31988" lon="-0.55251">
        <ele>270.51</ele>
        <time>2021-06-06T02:02:44Z</time>
      </trkpt>
      <trkpt lat="43.32136" lon="-0.55287">
        <ele>266.63</ele>
        <time>2021-06-06T02:02:48Z</time>
      </trkpt>
      <trkpt lat="43.32165" lon="-0.553">
        <ele>262.86</ele>
        <time>2021-06-06T02:02:52Z</time>
      </trkpt>
      <trkpt lat="43.3219" lon="-0.55323">
        <ele>261.63</ele>
        <time>2021-06-06T02:02:57Z</time>
      </trkpt>
      <trkpt lat="43.32211" lon="-0.55353">
        <ele>261.53</ele>
        <time>2021-06-06T02:03:01Z</time>
      </trkpt>
      <trkpt lat="43.32227" lon="-0.55372">
        <ele>260.85</ele>
        <time>2021-06-06T02:03:05Z</time>
      </trkpt>
      <trkpt lat="43.32303" lon="-0.55448">
        <ele>255.1</ele>
        <time>2021-06-06T02:03:09Z</time>
      </trkpt>
      <trkpt lat="43.32348" lon="-0.55507">
        <ele>247.83</ele>
        <time>2021-06-06T02:03:14Z</time>
      </trkpt>
      <trkpt lat="43.32387" lon="-0.55528">
        <ele>248.62</ele>
        <time>2021-06-06T02:03:18Z</time>
      </trkpt>
      <trkpt lat="43.32405" lon="-0.55547">
        <ele>247.34</ele>
        <time>2021-06-06T02:03:22Z</time>
      </trkpt>
      <trkpt lat="43.32417" lon="-0.55572">
        <ele>245.24</ele>
        <time>2021-06-06T02:03:26Z</time>
      </trkpt>
      <trkpt lat="43.3243" lon="-0.55615">
        <ele>240.12</ele>
        <time>2021-06-06T02:03:30Z</time>
      </trkpt>
      <trkpt lat="43.32443" lon="-0.55645">
        <ele>237.33</ele>
        <time>2021-06-06T02:03:35Z</time>
      </trkpt>
      <trkpt lat="43.32454" lon="-0.55703">
        <ele>228.2</ele>
        <time>2021-06-06T02:03:39Z</time>
      </trkpt>
      <trkpt lat="43.32469" lon="-0.5574">
        <ele>226.49</ele>
        <time>2021-06-06T02:03:43Z</time>
      </trkpt>
      <trkpt lat="43.32476" lon="-0.55768">
        <ele>223.76</ele>
        <time>2021-06-06T02:03:47Z</time>
      </trkpt>
      <trkpt lat="43.32488" lon="-0.55786">
        <ele>222.97</ele>
        <time>2021-06-06T02:03:52Z</time>
      </trkpt>
      <trkpt lat="43.32549" lon="-0.55831">
        <ele>219.41</ele>
        <time>2021-06-06T02:03:56Z</time>
      </trkpt>
      <trkpt lat="43.32559" lon="-0.55886">
        <ele>209.1</ele>
        <time>2021-06-06T02:04:00Z</time>
      </trkpt>
      <trkpt lat="43.32556" lon="-0.5592">
        <ele>208.01</ele>
        <time>2021-06-06T02:04:04Z</time>
      </trkpt>
      <trkpt lat="43.32536" lon="-0.55995">
        <ele>199.05</ele>
        <time>2021-06-06T02:04:09Z</time>
      </trkpt>
      <trkpt lat="43.3253" lon="-0.5603">
        <ele>195.72</ele>
        <time>2021-06-06T02:04:13Z</time>
      </trkpt>
      <trkpt lat="43.32528" lon="-0.56071">
        <ele>196.65</ele>
        <time>2021-06-06T02:04:17Z</time>
      </trkpt>
      <trkpt lat="43.3252" lon="-0.56127">
        <ele>193.97</ele>
        <time>2021-06-06T02:04:21Z</time>
      </trkpt>
      <trkpt lat="43.3252" lon="-0.56158">
        <ele>190.81</ele>
        <time>2021-06-06T02:04:26Z</time>
      </trkpt>
      <trkpt lat="43.32529" lon="-0.56183">
        <ele>188.67</ele>
        <time>2021-06-06T02:04:30Z</time>
      </trkpt>
      <trkpt lat="43.32553" lon="-0.56207">
        <ele>188.23</ele>
        <time>2021-06-06T02:04:34Z</time>
      </trkpt>
      <trkpt lat="43.32592" lon="-0.56263">
        <ele>184.58</ele>
        <time>2021-06-06T02:04:38Z</time>
      </trkpt>
      <trkpt lat="43.32591" lon="-0.56283">
        <ele>183.78</ele>
        <time>2021-06-06T02:04:42Z</time>
      </trkpt>
      <trkpt lat="43.32578" lon="-0.563">
        <ele>182.79</ele>
        <time>2021-06-06T02:04:47Z</time>
      </trkpt>
      <trkpt lat="43.32564" lon="-0.56304">
        <ele>181.11</ele>
        <time>2021-06-06T02:04:51Z</time>
      </trkpt>
      <trkpt lat="43.32531" lon="-0.56301">
        <ele>174.38</ele>
        <time>2021-06-06T02:04:55Z</time>
      </trkpt>
      <trkpt lat="43.32502" lon="-0.56308">
        <ele>170.53</ele>
        <time>2021-06-06T02:04:59Z</time>
      </trkpt>
      <trkpt lat="43.32471" lon="-0.56326">
        <ele>165.98</ele>
        <time>2021-06-06T02:05:04Z</time>
      </trkpt>
      <trkpt lat="43.3244" lon="-0.56372">
        <ele>162.49</ele>
        <time>2021-06-06T02:05:08Z</time>
      </trkpt>
      <trkpt lat="43.32413" lon="-0.56396">
        <ele>156.63</ele>
        <time>2021-06-06T02:05:12Z</time>
      </trkpt>
      <trkpt lat="43.32364" lon="-0.56484">
        <ele>148.09</ele>
        <time>2021-06-06T02:05:16Z</time>
      </trkpt>
      <trkpt lat="43.32318" lon="-0.56545">
        <ele>145.7</ele>
        <time>2021-06-06T02:05:21Z</time>
      </trkpt>
      <trkpt lat="43.323" lon="-0.56573">
        <ele>145.02</ele>
        <time>2021-06-06T02:05:25Z</time>
      </trkpt>
      <trkpt lat="43.32293" lon="-0.56602">
        <ele>143.21</ele>
        <time>2021-06-06T02:05:29Z</time>
      </trkpt>
      <trkpt lat="43.32272" lon="-0.56769">
        <ele>134.43</ele>
        <time>2021-06-06T02:05:33Z</time>
      </trkpt>
      <trkpt lat="43.32223" lon="-0.57212">
        <ele>132.02</ele>
        <time>2021-06-06T02:05:37Z</time>
      </trkpt>
      <trkpt lat="43.3222" lon="-0.57231">
        <ele>132.42</ele>
        <time>2021-06-06T02:05:42Z</time>
      </trkpt>
      <trkpt lat="43.32215" lon="-0.57249">
        <ele>133.25</ele>
        <time>2021-06-06T02:05:46Z</time>
      </trkpt>
      <trkpt lat="43.32195" lon="-0.57295">
        <ele>133.58</ele>
        <time>2021-06-06T02:05:50Z</time>
      </trkpt>
      <trkpt lat="43.32046" lon="-0.57631">
        <ele>147.43</ele>
        <time>2021-06-06T02:05:54Z</time>
      </trkpt>
      <trkpt lat="43.31994" lon="-0.57751">
        <ele>149.54</ele>
        <time>2021-06-06T02:05:59Z</time>
      </trkpt>
      <trkpt lat="43.32106" lon="-0.57789">
        <ele>149.38</ele>
        <time>2021-06-06T02:06:11Z</time>
      </trkpt>
      <trkpt lat="43.32105" lon="-0.57814">
        <ele>149.18</ele>
        <time>2021-06-06T02:06:14Z</time>
      </trkpt>
      <trkpt lat="43.32055" lon="-0.57958">
        <ele>155.02</ele>
        <time>2021-06-06T02:06:18Z</time>
      </trkpt>
      <trkpt lat="43.32047" lon="-0.57969">
        <ele>155.32</ele>
        <time>2021-06-06T02:06:22Z</time>
      </trkpt>
      <trkpt lat="43.31961" lon="-0.5811">
        <ele>169.16</ele>
        <time>2021-06-06T02:06:26Z</time>
      </trkpt>
      <trkpt lat="43.31902" lon="-0.58174">
        <ele>177.19</ele>
        <time>2021-06-06T02:06:29Z</time>
      </trkpt>
      <trkpt lat="43.31899" lon="-0.5818">
        <ele>177.46</ele>
        <time>2021-06-06T02:06:33Z</time>
      </trkpt>
      <trkpt lat="43.31894" lon="-0.58199">
        <ele>177.89</ele>
        <time>2021-06-06T02:06:37Z</time>
      </trkpt>
      <trkpt lat="43.31895" lon="-0.58227">
        <ele>178.54</ele>
        <time>2021-06-06T02:06:41Z</time>
      </trkpt>
      <trkpt lat="43.31904" lon="-0.58287">
        <ele>182.88</ele>
        <time>2021-06-06T02:06:45Z</time>
      </trkpt>
      <trkpt lat="43.31921" lon="-0.58433">
        <ele>190.98</ele>
        <time>2021-06-06T02:06:48Z</time>
      </trkpt>
      <trkpt lat="43.31927" lon="-0.58465">
        <ele>191.72</ele>
        <time>2021-06-06T02:06:52Z</time>
      </trkpt>
      <trkpt lat="43.31957" lon="-0.58556">
        <ele>197.15</ele>
        <time>2021-06-06T02:06:56Z</time>
      </trkpt>
      <trkpt lat="43.32004" lon="-0.58642">
        <ele>204.79</ele>
        <time>2021-06-06T02:07:00Z</time>
      </trkpt>
      <trkpt lat="43.32019" lon="-0.58674">
        <ele>208.78</ele>
        <time>2021-06-06T02:07:03Z</time>
      </trkpt>
      <trkpt lat="43.32022" lon="-0.58689">
        <ele>209.61</ele>
        <time>2021-06-06T02:07:07Z</time>
      </trkpt>
      <trkpt lat="43.32019" lon="-0.58741">
        <ele>211.1</ele>
        <time>2021-06-06T02:07:11Z</time>
      </trkpt>
      <trkpt lat="43.32013" lon="-0.58803">
        <ele>215.14</ele>
        <time>2021-06-06T02:07:15Z</time>
      </trkpt>
      <trkpt lat="43.32005" lon="-0.58862">
        <ele>218.13</ele>
        <time>2021-06-06T02:07:19Z</time>
      </trkpt>
      <trkpt lat="43.31999" lon="-0.58895">
        <ele>220.76</ele>
        <time>2021-06-06T02:07:22Z</time>
      </trkpt>
      <trkpt lat="43.31991" lon="-0.58916">
        <ele>222.95</ele>
        <time>2021-06-06T02:07:26Z</time>
      </trkpt>
      <trkpt lat="43.31955" lon="-0.58984">
        <ele>224.65</ele>
        <time>2021-06-06T02:07:30Z</time>
      </trkpt>
      <trkpt lat="43.31936" lon="-0.59037">
        <ele>225.39</ele>
        <time>2021-06-06T02:07:34Z</time>
      </trkpt>
      <trkpt lat="43.31929" lon="-0.59074">
        <ele>228.27</ele>
        <time>2021-06-06T02:07:38Z</time>
      </trkpt>
      <trkpt lat="43.31927" lon="-0.59086">
        <ele>229.41</ele>
        <time>2021-06-06T02:07:41Z</time>
      </trkpt>
      <trkpt lat="43.31928" lon="-0.59097">
        <ele>230.26</ele>
        <time>2021-06-06T02:07:45Z</time>
      </trkpt>
      <trkpt lat="43.3193" lon="-0.59104">
        <ele>230.58</ele>
        <time>2021-06-06T02:07:49Z</time>
      </trkpt>
      <trkpt lat="43.31953" lon="-0.59171">
        <ele>227.55</ele>
        <time>2021-06-06T02:07:53Z</time>
      </trkpt>
      <trkpt lat="43.31995" lon="-0.59277">
        <ele>217.13</ele>
        <time>2021-06-06T02:07:56Z</time>
      </trkpt>
      <trkpt lat="43.32018" lon="-0.59388">
        <ele>213.39</ele>
        <time>2021-06-06T02:08:00Z</time>
      </trkpt>
      <trkpt lat="43.32046" lon="-0.59456">
        <ele>208.65</ele>
        <time>2021-06-06T02:08:04Z</time>
      </trkpt>
      <trkpt lat="43.32092" lon="-0.59557">
        <ele>198.36</ele>
        <time>2021-06-06T02:08:08Z</time>
      </trkpt>
      <trkpt lat="43.3213" lon="-0.59634">
        <ele>197.74</ele>
        <time>2021-06-06T02:08:12Z</time>
      </trkpt>
      <trkpt lat="43.32136" lon="-0.59672">
        <ele>198.04</ele>
        <time>2021-06-06T02:08:15Z</time>
      </trkpt>
      <trkpt lat="43.32136" lon="-0.59684">
        <ele>198.34</ele>
        <time>2021-06-06T02:08:19Z</time>
      </trkpt>
      <trkpt lat="43.32133" lon="-0.59693">
        <ele>198.19</ele>
        <time>2021-06-06T02:08:23Z</time>
      </trkpt>
      <trkpt lat="43.32128" lon="-0.59702">
        <ele>196.69</ele>
        <time>2021-06-06T02:08:27Z</time>
      </trkpt>
      <trkpt lat="43.32123" lon="-0.59705">
        <ele>195.52</ele>
        <time>2021-06-06T02:08:30Z</time>
      </trkpt>
      <trkpt lat="43.32118" lon="-0.59705">
        <ele>194.6</ele>
        <time>2021-06-06T02:08:34Z</time>
      </trkpt>
      <trkpt lat="43.32111" lon="-0.597">
        <ele>194.2</ele>
        <time>2021-06-06T02:08:38Z</time>
      </trkpt>
      <trkpt lat="43.32095" lon="-0.59675">
        <ele>193.28</ele>
        <time>2021-06-06T02:08:42Z</time>
      </trkpt>
      <trkpt lat="43.32085" lon="-0.59666">
        <ele>192.33</ele>
        <time>2021-06-06T02:08:46Z</time>
      </trkpt>
      <trkpt lat="43.32071" lon="-0.59659">
        <ele>191.36</ele>
        <time>2021-06-06T02:08:49Z</time>
      </trkpt>
      <trkpt lat="43.32042" lon="-0.59654">
        <ele>189.04</ele>
        <time>2021-06-06T02:08:53Z</time>
      </trkpt>
      <trkpt lat="43.3197" lon="-0.59654">
        <ele>185.54</ele>
        <time>2021-06-06T02:08:57Z</time>
      </trkpt>
      <trkpt lat="43.31957" lon="-0.59652">
        <ele>182.8</ele>
        <time>2021-06-06T02:09:01Z</time>
      </trkpt>
      <trkpt lat="43.31946" lon="-0.59646">
        <ele>181.99</ele>
        <time>2021-06-06T02:09:05Z</time>
      </trkpt>
      <trkpt lat="43.3192" lon="-0.59619">
        <ele>181.46</ele>
        <time>2021-06-06T02:09:08Z</time>
      </trkpt>
      <trkpt lat="43.31901" lon="-0.59611">
        <ele>177.79</ele>
        <time>2021-06-06T02:09:12Z</time>
      </trkpt>
      <trkpt lat="43.31896" lon="-0.59614">
        <ele>175.68</ele>
        <time>2021-06-06T02:09:16Z</time>
      </trkpt>
      <trkpt lat="43.31894" lon="-0.59619">
        <ele>173.93</ele>
        <time>2021-06-06T02:09:20Z</time>
      </trkpt>
      <trkpt lat="43.31893" lon="-0.59628">
        <ele>171.53</ele>
        <time>2021-06-06T02:09:23Z</time>
      </trkpt>
      <trkpt lat="43.31895" lon="-0.59638">
        <ele>169.76</ele>
        <time>2021-06-06T02:09:27Z</time>
      </trkpt>
      <trkpt lat="43.31902" lon="-0.59652">
        <ele>167.47</ele>
        <time>2021-06-06T02:09:31Z</time>
      </trkpt>
      <trkpt lat="43.31937" lon="-0.59692">
        <ele>165.03</ele>
        <time>2021-06-06T02:09:35Z</time>
      </trkpt>
      <trkpt lat="43.31963" lon="-0.59736">
        <ele>160.98</ele>
        <time>2021-06-06T02:09:39Z</time>
      </trkpt>
      <trkpt lat="43.3198" lon="-0.59771">
        <ele>158.55</ele>
        <time>2021-06-06T02:09:42Z</time>
      </trkpt>
      <trkpt lat="43.32001" lon="-0.59797">
        <ele>160.02</ele>
        <time>2021-06-06T02:09:46Z</time>
      </trkpt>
      <trkpt lat="43.32007" lon="-0.59808">
        <ele>159.91</ele>
        <time>2021-06-06T02:09:50Z</time>
      </trkpt>
      <trkpt lat="43.32008" lon="-0.59822">
        <ele>158.95</ele>
        <time>2021-06-06T02:09:54Z</time>
      </trkpt>
      <trkpt lat="43.32007" lon="-0.59855">
        <ele>153.68</ele>
        <time>2021-06-06T02:09:57Z</time>
      </trkpt>
      <trkpt lat="43.3201" lon="-0.59878">
        <ele>150.32</ele>
        <time>2021-06-06T02:10:01Z</time>
      </trkpt>
      <trkpt lat="43.3203" lon="-0.59951">
        <ele>143.76</ele>
        <time>2021-06-06T02:10:05Z</time>
      </trkpt>
      <trkpt lat="43.32051" lon="-0.60012">
        <ele>143.18</ele>
        <time>2021-06-06T02:10:09Z</time>
      </trkpt>
      <trkpt lat="43.32082" lon="-0.60169">
        <ele>133.94</ele>
        <time>2021-06-06T02:10:13Z</time>
      </trkpt>
      <trkpt lat="43.32154" lon="-0.60574">
        <ele>129.37</ele>
        <time>2021-06-06T02:10:16Z</time>
      </trkpt>
      <trkpt lat="43.32159" lon="-0.60601">
        <ele>129.71</ele>
        <time>2021-06-06T02:10:20Z</time>
      </trkpt>
      <trkpt lat="43.32159" lon="-0.60619">
        <ele>130.05</ele>
        <time>2021-06-06T02:10:24Z</time>
      </trkpt>
      <trkpt lat="43.32156" lon="-0.60637">
        <ele>130.91</ele>
        <time>2021-06-06T02:10:28Z</time>
      </trkpt>
      <trkpt lat="43.32146" lon="-0.6067">
        <ele>132.75</ele>
        <time>2021-06-06T02:10:32Z</time>
      </trkpt>
      <trkpt lat="43.32121" lon="-0.60722">
        <ele>133</ele>
        <time>2021-06-06T02:10:35Z</time>
      </trkpt>
      <trkpt lat="43.31913" lon="-0.61275">
        <ele>149.96</ele>
        <time>2021-06-06T02:10:39Z</time>
      </trkpt>
      <trkpt lat="43.31876" lon="-0.61349">
        <ele>154.41</ele>
        <time>2021-06-06T02:10:43Z</time>
      </trkpt>
      <trkpt lat="43.31857" lon="-0.61366">
        <ele>156.6</ele>
        <time>2021-06-06T02:10:47Z</time>
      </trkpt>
      <trkpt lat="43.31811" lon="-0.61374">
        <ele>160.4</ele>
        <time>2021-06-06T02:10:50Z</time>
      </trkpt>
      <trkpt lat="43.31787" lon="-0.6139">
        <ele>161.15</ele>
        <time>2021-06-06T02:10:54Z</time>
      </trkpt>
      <trkpt lat="43.31766" lon="-0.61434">
        <ele>164.54</ele>
        <time>2021-06-06T02:10:58Z</time>
      </trkpt>
      <trkpt lat="43.3175" lon="-0.61474">
        <ele>166.21</ele>
        <time>2021-06-06T02:11:02Z</time>
      </trkpt>
      <trkpt lat="43.31745" lon="-0.61496">
        <ele>168.19</ele>
        <time>2021-06-06T02:11:06Z</time>
      </trkpt>
      <trkpt lat="43.31744" lon="-0.61519">
        <ele>170.41</ele>
        <time>2021-06-06T02:11:09Z</time>
      </trkpt>
      <trkpt lat="43.31752" lon="-0.61543">
        <ele>172.19</ele>
        <time>2021-06-06T02:11:13Z</time>
      </trkpt>
      <trkpt lat="43.3176" lon="-0.61561">
        <ele>173.42</ele>
        <time>2021-06-06T02:11:17Z</time>
      </trkpt>
      <trkpt lat="43.31774" lon="-0.61578">
        <ele>175.41</ele>
        <time>2021-06-06T02:11:21Z</time>
      </trkpt>
      <trkpt lat="43.31841" lon="-0.61646">
        <ele>183.47</ele>
        <time>2021-06-06T02:11:24Z</time>
      </trkpt>
      <trkpt lat="43.3185" lon="-0.61664">
        <ele>184.51</ele>
        <time>2021-06-06T02:11:28Z</time>
      </trkpt>
      <trkpt lat="43.31867" lon="-0.61707">
        <ele>188.98</ele>
        <time>2021-06-06T02:11:32Z</time>
      </trkpt>
      <trkpt lat="43.319" lon="-0.61764">
        <ele>194.79</ele>
        <time>2021-06-06T02:11:36Z</time>
      </trkpt>
      <trkpt lat="43.3192" lon="-0.61787">
        <ele>195.86</ele>
        <time>2021-06-06T02:11:40Z</time>
      </trkpt>
      <trkpt lat="43.31953" lon="-0.61807">
        <ele>199.18</ele>
        <time>2021-06-06T02:11:43Z</time>
      </trkpt>
      <trkpt lat="43.31969" lon="-0.61821">
        <ele>201</ele>
        <time>2021-06-06T02:11:47Z</time>
      </trkpt>
      <trkpt lat="43.31983" lon="-0.61845">
        <ele>202.63</ele>
        <time>2021-06-06T02:11:51Z</time>
      </trkpt>
      <trkpt lat="43.32001" lon="-0.61918">
        <ele>207.15</ele>
        <time>2021-06-06T02:11:55Z</time>
      </trkpt>
      <trkpt lat="43.32024" lon="-0.61982">
        <ele>212.34</ele>
        <time>2021-06-06T02:11:59Z</time>
      </trkpt>
      <trkpt lat="43.32028" lon="-0.62014">
        <ele>214.55</ele>
        <time>2021-06-06T02:12:02Z</time>
      </trkpt>
      <trkpt lat="43.32022" lon="-0.62056">
        <ele>216.7</ele>
        <time>2021-06-06T02:12:06Z</time>
      </trkpt>
      <trkpt lat="43.31999" lon="-0.62171">
        <ele>223.05</ele>
        <time>2021-06-06T02:12:10Z</time>
      </trkpt>
      <trkpt lat="43.31972" lon="-0.62247">
        <ele>223.3</ele>
        <time>2021-06-06T02:12:14Z</time>
      </trkpt>
      <trkpt lat="43.31965" lon="-0.62291">
        <ele>218.92</ele>
        <time>2021-06-06T02:12:17Z</time>
      </trkpt>
      <trkpt lat="43.31935" lon="-0.62541">
        <ele>222.79</ele>
        <time>2021-06-06T02:12:21Z</time>
      </trkpt>
      <trkpt lat="43.31924" lon="-0.62587">
        <ele>224.85</ele>
        <time>2021-06-06T02:12:25Z</time>
      </trkpt>
      <trkpt lat="43.31902" lon="-0.62658">
        <ele>225.69</ele>
        <time>2021-06-06T02:12:29Z</time>
      </trkpt>
      <trkpt lat="43.31873" lon="-0.62721">
        <ele>222.12</ele>
        <time>2021-06-06T02:12:33Z</time>
      </trkpt>
      <trkpt lat="43.3186" lon="-0.6274">
        <ele>219.33</ele>
        <time>2021-06-06T02:12:36Z</time>
      </trkpt>
      <trkpt lat="43.31785" lon="-0.6283">
        <ele>221.65</ele>
        <time>2021-06-06T02:12:40Z</time>
      </trkpt>
      <trkpt lat="43.31647" lon="-0.63">
        <ele>236.95</ele>
        <time>2021-06-06T02:12:44Z</time>
      </trkpt>
      <trkpt lat="43.3158" lon="-0.63057">
        <ele>239.13</ele>
        <time>2021-06-06T02:12:48Z</time>
      </trkpt>
      <trkpt lat="43.31524" lon="-0.63097">
        <ele>238.69</ele>
        <time>2021-06-06T02:12:52Z</time>
      </trkpt>
      <trkpt lat="43.31504" lon="-0.63118">
        <ele>238.1</ele>
        <time>2021-06-06T02:12:55Z</time>
      </trkpt>
      <trkpt lat="43.31459" lon="-0.6322">
        <ele>232.09</ele>
        <time>2021-06-06T02:12:59Z</time>
      </trkpt>
      <trkpt lat="43.31453" lon="-0.63247">
        <ele>231.08</ele>
        <time>2021-06-06T02:13:03Z</time>
      </trkpt>
      <trkpt lat="43.31448" lon="-0.63299">
        <ele>230.85</ele>
        <time>2021-06-06T02:13:07Z</time>
      </trkpt>
      <trkpt lat="43.31437" lon="-0.63361">
        <ele>228.17</ele>
        <time>2021-06-06T02:13:10Z</time>
      </trkpt>
      <trkpt lat="43.31418" lon="-0.63378">
        <ele>230.75</ele>
        <time>2021-06-06T02:13:14Z</time>
      </trkpt>
      <trkpt lat="43.31335" lon="-0.63402">
        <ele>227.23</ele>
        <time>2021-06-06T02:13:18Z</time>
      </trkpt>
      <trkpt lat="43.31284" lon="-0.63423">
        <ele>219.59</ele>
        <time>2021-06-06T02:13:22Z</time>
      </trkpt>
      <trkpt lat="43.3123" lon="-0.63461">
        <ele>212.03</ele>
        <time>2021-06-06T02:13:26Z</time>
      </trkpt>
      <trkpt lat="43.3117" lon="-0.63461">
        <ele>209.98</ele>
        <time>2021-06-06T02:13:29Z</time>
      </trkpt>
      <trkpt lat="43.31129" lon="-0.63451">
        <ele>211.41</ele>
        <time>2021-06-06T02:13:33Z</time>
      </trkpt>
      <trkpt lat="43.31107" lon="-0.63455">
        <ele>210.44</ele>
        <time>2021-06-06T02:13:37Z</time>
      </trkpt>
      <trkpt lat="43.30971" lon="-0.63582">
        <ele>201.74</ele>
        <time>2021-06-06T02:13:41Z</time>
      </trkpt>
      <trkpt lat="43.30955" lon="-0.63611">
        <ele>198.61</ele>
        <time>2021-06-06T02:13:44Z</time>
      </trkpt>
      <trkpt lat="43.30931" lon="-0.6368">
        <ele>203.9</ele>
        <time>2021-06-06T02:13:48Z</time>
      </trkpt>
      <trkpt lat="43.30916" lon="-0.63825">
        <ele>218.2</ele>
        <time>2021-06-06T02:13:52Z</time>
      </trkpt>
      <trkpt lat="43.30903" lon="-0.63888">
        <ele>217.58</ele>
        <time>2021-06-06T02:13:56Z</time>
      </trkpt>
      <trkpt lat="43.30879" lon="-0.63912">
        <ele>220.83</ele>
        <time>2021-06-06T02:14:00Z</time>
      </trkpt>
      <trkpt lat="43.30869" lon="-0.63968">
        <ele>216.49</ele>
        <time>2021-06-06T02:14:03Z</time>
      </trkpt>
      <trkpt lat="43.30863" lon="-0.6398">
        <ele>217.09</ele>
        <time>2021-06-06T02:14:07Z</time>
      </trkpt>
      <trkpt lat="43.30836" lon="-0.64011">
        <ele>224</ele>
        <time>2021-06-06T02:14:11Z</time>
      </trkpt>
      <trkpt lat="43.30786" lon="-0.64121">
        <ele>226.36</ele>
        <time>2021-06-06T02:14:15Z</time>
      </trkpt>
      <trkpt lat="43.30745" lon="-0.64186">
        <ele>234.95</ele>
        <time>2021-06-06T02:14:19Z</time>
      </trkpt>
      <trkpt lat="43.30723" lon="-0.64209">
        <ele>240.09</ele>
        <time>2021-06-06T02:14:22Z</time>
      </trkpt>
      <trkpt lat="43.30687" lon="-0.64231">
        <ele>246.71</ele>
        <time>2021-06-06T02:14:26Z</time>
      </trkpt>
      <trkpt lat="43.30668" lon="-0.6426">
        <ele>247.63</ele>
        <time>2021-06-06T02:14:30Z</time>
      </trkpt>
      <trkpt lat="43.30645" lon="-0.64279">
        <ele>253.49</ele>
        <time>2021-06-06T02:14:34Z</time>
      </trkpt>
      <trkpt lat="43.30611" lon="-0.64335">
        <ele>258.57</ele>
        <time>2021-06-06T02:14:37Z</time>
      </trkpt>
      <trkpt lat="43.30545" lon="-0.64409">
        <ele>265.07</ele>
        <time>2021-06-06T02:14:41Z</time>
      </trkpt>
      <trkpt lat="43.30522" lon="-0.64447">
        <ele>263.29</ele>
        <time>2021-06-06T02:14:45Z</time>
      </trkpt>
      <trkpt lat="43.30502" lon="-0.64454">
        <ele>264.19</ele>
        <time>2021-06-06T02:14:49Z</time>
      </trkpt>
      <trkpt lat="43.30428" lon="-0.64424">
        <ele>270.08</ele>
        <time>2021-06-06T02:14:53Z</time>
      </trkpt>
      <trkpt lat="43.30396" lon="-0.64433">
        <ele>274.39</ele>
        <time>2021-06-06T02:14:56Z</time>
      </trkpt>
      <trkpt lat="43.30384" lon="-0.6445">
        <ele>276.73</ele>
        <time>2021-06-06T02:15:00Z</time>
      </trkpt>
      <trkpt lat="43.30381" lon="-0.64464">
        <ele>277.58</ele>
        <time>2021-06-06T02:15:04Z</time>
      </trkpt>
      <trkpt lat="43.30396" lon="-0.64498">
        <ele>275.54</ele>
        <time>2021-06-06T02:15:08Z</time>
      </trkpt>
      <trkpt lat="43.30396" lon="-0.64521">
        <ele>274.95</ele>
        <time>2021-06-06T02:15:11Z</time>
      </trkpt>
      <trkpt lat="43.30366" lon="-0.64605">
        <ele>281.66</ele>
        <time>2021-06-06T02:15:15Z</time>
      </trkpt>
      <trkpt lat="43.3035" lon="-0.647">
        <ele>286.36</ele>
        <time>2021-06-06T02:15:19Z</time>
      </trkpt>
      <trkpt lat="43.30329" lon="-0.6477">
        <ele>289.12</ele>
        <time>2021-06-06T02:15:23Z</time>
      </trkpt>
      <trkpt lat="43.30318" lon="-0.64816">
        <ele>290.38</ele>
        <time>2021-06-06T02:15:27Z</time>
      </trkpt>
      <trkpt lat="43.3034" lon="-0.65228">
        <ele>287.23</ele>
        <time>2021-06-06T02:15:30Z</time>
      </trkpt>
      <trkpt lat="43.30339" lon="-0.65257">
        <ele>287.15</ele>
        <time>2021-06-06T02:15:34Z</time>
      </trkpt>
      <trkpt lat="43.30334" lon="-0.65276">
        <ele>287</ele>
        <time>2021-06-06T02:15:38Z</time>
      </trkpt>
      <trkpt lat="43.30208" lon="-0.65485">
        <ele>284.03</ele>
        <time>2021-06-06T02:15:42Z</time>
      </trkpt>
      <trkpt lat="43.30032" lon="-0.65837">
        <ele>277.3</ele>
        <time>2021-06-06T02:15:46Z</time>
      </trkpt>
      <trkpt lat="43.30014" lon="-0.65876">
        <ele>277.04</ele>
        <time>2021-06-06T02:15:49Z</time>
      </trkpt>
      <trkpt lat="43.29991" lon="-0.65961">
        <ele>280.88</ele>
        <time>2021-06-06T02:15:53Z</time>
      </trkpt>
      <trkpt lat="43.29971" lon="-0.66049">
        <ele>281.14</ele>
        <time>2021-06-06T02:15:57Z</time>
      </trkpt>
      <trkpt lat="43.29952" lon="-0.66096">
        <ele>279.68</ele>
        <time>2021-06-06T02:16:01Z</time>
      </trkpt>
      <trkpt lat="43.29809" lon="-0.66319">
        <ele>267.86</ele>
        <time>2021-06-06T02:16:04Z</time>
      </trkpt>
      <trkpt lat="43.29775" lon="-0.66367">
        <ele>266.48</ele>
        <time>2021-06-06T02:16:08Z</time>
      </trkpt>
      <trkpt lat="43.29462" lon="-0.66689">
        <ele>258.36</ele>
        <time>2021-06-06T02:16:12Z</time>
      </trkpt>
      <trkpt lat="43.29302" lon="-0.66919">
        <ele>262.64</ele>
        <time>2021-06-06T02:16:16Z</time>
      </trkpt>
      <trkpt lat="43.29275" lon="-0.66965">
        <ele>261.54</ele>
        <time>2021-06-06T02:16:20Z</time>
      </trkpt>
      <trkpt lat="43.29265" lon="-0.66992">
        <ele>260.07</ele>
        <time>2021-06-06T02:16:23Z</time>
      </trkpt>
      <trkpt lat="43.29212" lon="-0.67174">
        <ele>256.07</ele>
        <time>2021-06-06T02:16:27Z</time>
      </trkpt>
      <trkpt lat="43.29204" lon="-0.67217">
        <ele>254.56</ele>
        <time>2021-06-06T02:16:31Z</time>
      </trkpt>
      <trkpt lat="43.29195" lon="-0.67295">
        <ele>255.19</ele>
        <time>2021-06-06T02:16:35Z</time>
      </trkpt>
      <trkpt lat="43.29211" lon="-0.67935">
        <ele>260.48</ele>
        <time>2021-06-06T02:16:38Z</time>
      </trkpt>
      <trkpt lat="43.29222" lon="-0.67994">
        <ele>258.02</ele>
        <time>2021-06-06T02:16:42Z</time>
      </trkpt>
      <trkpt lat="43.29318" lon="-0.68307">
        <ele>253.48</ele>
        <time>2021-06-06T02:16:46Z</time>
      </trkpt>
      <trkpt lat="43.29328" lon="-0.68364">
        <ele>255.06</ele>
        <time>2021-06-06T02:16:50Z</time>
      </trkpt>
      <trkpt lat="43.29324" lon="-0.6842">
        <ele>257.29</ele>
        <time>2021-06-06T02:16:54Z</time>
      </trkpt>
      <trkpt lat="43.29317" lon="-0.68449">
        <ele>258.08</ele>
        <time>2021-06-06T02:16:57Z</time>
      </trkpt>
      <trkpt lat="43.29258" lon="-0.68596">
        <ele>260.99</ele>
        <time>2021-06-06T02:17:01Z</time>
      </trkpt>
      <trkpt lat="43.29234" lon="-0.68701">
        <ele>258.5</ele>
        <time>2021-06-06T02:17:05Z</time>
      </trkpt>
      <trkpt lat="43.2919" lon="-0.69041">
        <ele>256.35</ele>
        <time>2021-06-06T02:17:09Z</time>
      </trkpt>
      <trkpt lat="43.29185" lon="-0.69108">
        <ele>257.57</ele>
        <time>2021-06-06T02:17:13Z</time>
      </trkpt>
      <trkpt lat="43.29189" lon="-0.69374">
        <ele>254.05</ele>
        <time>2021-06-06T02:17:16Z</time>
      </trkpt>
      <trkpt lat="43.292" lon="-0.69467">
        <ele>253.63</ele>
        <time>2021-06-06T02:17:20Z</time>
      </trkpt>
      <trkpt lat="43.29352" lon="-0.70021">
        <ele>255.85</ele>
        <time>2021-06-06T02:17:24Z</time>
      </trkpt>
      <trkpt lat="43.29398" lon="-0.70173">
        <ele>254.35</ele>
        <time>2021-06-06T02:17:28Z</time>
      </trkpt>
      <trkpt lat="43.29475" lon="-0.70327">
        <ele>250.55</ele>
        <time>2021-06-06T02:17:31Z</time>
      </trkpt>
      <trkpt lat="43.29546" lon="-0.70436">
        <ele>249.63</ele>
        <time>2021-06-06T02:17:35Z</time>
      </trkpt>
      <trkpt lat="43.29712" lon="-0.70618">
        <ele>234.75</ele>
        <time>2021-06-06T02:17:39Z</time>
      </trkpt>
      <trkpt lat="43.29766" lon="-0.7069">
        <ele>228.82</ele>
        <time>2021-06-06T02:17:43Z</time>
      </trkpt>
      <trkpt lat="43.29823" lon="-0.70844">
        <ele>218.91</ele>
        <time>2021-06-06T02:17:47Z</time>
      </trkpt>
      <trkpt lat="43.29868" lon="-0.70985">
        <ele>209.44</ele>
        <time>2021-06-06T02:17:50Z</time>
      </trkpt>
      <trkpt lat="43.29882" lon="-0.71021">
        <ele>206</ele>
        <time>2021-06-06T02:17:54Z</time>
      </trkpt>
      <trkpt lat="43.29906" lon="-0.71045">
        <ele>206.7</ele>
        <time>2021-06-06T02:17:58Z</time>
      </trkpt>
      <trkpt lat="43.2993" lon="-0.71061">
        <ele>208.01</ele>
        <time>2021-06-06T02:18:02Z</time>
      </trkpt>
      <trkpt lat="43.29968" lon="-0.71076">
        <ele>205.2</ele>
        <time>2021-06-06T02:18:05Z</time>
      </trkpt>
      <trkpt lat="43.3" lon="-0.71117">
        <ele>202.91</ele>
        <time>2021-06-06T02:18:09Z</time>
      </trkpt>
      <trkpt lat="43.3003" lon="-0.71182">
        <ele>199.19</ele>
        <time>2021-06-06T02:18:13Z</time>
      </trkpt>
      <trkpt lat="43.3007" lon="-0.71384">
        <ele>201.98</ele>
        <time>2021-06-06T02:18:17Z</time>
      </trkpt>
      <trkpt lat="43.30222" lon="-0.71753">
        <ele>206.2</ele>
        <time>2021-06-06T02:18:21Z</time>
      </trkpt>
      <trkpt lat="43.3024" lon="-0.71813">
        <ele>206.14</ele>
        <time>2021-06-06T02:18:24Z</time>
      </trkpt>
      <trkpt lat="43.30234" lon="-0.71869">
        <ele>207.79</ele>
        <time>2021-06-06T02:18:28Z</time>
      </trkpt>
      <trkpt lat="43.30203" lon="-0.71948">
        <ele>207.6</ele>
        <time>2021-06-06T02:18:32Z</time>
      </trkpt>
      <trkpt lat="43.30183" lon="-0.72008">
        <ele>205.17</ele>
        <time>2021-06-06T02:18:36Z</time>
      </trkpt>
      <trkpt lat="43.30156" lon="-0.72133">
        <ele>209.95</ele>
        <time>2021-06-06T02:18:40Z</time>
      </trkpt>
      <trkpt lat="43.30151" lon="-0.72196">
        <ele>212.19</ele>
        <time>2021-06-06T02:18:43Z</time>
      </trkpt>
      <trkpt lat="43.30172" lon="-0.72431">
        <ele>209.27</ele>
        <time>2021-06-06T02:18:47Z</time>
      </trkpt>
      <trkpt lat="43.30188" lon="-0.72537">
        <ele>207.47</ele>
        <time>2021-06-06T02:18:51Z</time>
      </trkpt>
      <trkpt lat="43.30336" lon="-0.72899">
        <ele>190.62</ele>
        <time>2021-06-06T02:18:55Z</time>
      </trkpt>
      <trkpt lat="43.30398" lon="-0.73016">
        <ele>191.8</ele>
        <time>2021-06-06T02:18:58Z</time>
      </trkpt>
      <trkpt lat="43.30431" lon="-0.73143">
        <ele>188.24</ele>
        <time>2021-06-06T02:19:02Z</time>
      </trkpt>
      <trkpt lat="43.30457" lon="-0.73212">
        <ele>187.61</ele>
        <time>2021-06-06T02:19:06Z</time>
      </trkpt>
      <trkpt lat="43.30481" lon="-0.73255">
        <ele>191.1</ele>
        <time>2021-06-06T02:19:10Z</time>
      </trkpt>
      <trkpt lat="43.30504" lon="-0.73356">
        <ele>194.04</ele>
        <time>2021-06-06T02:19:14Z</time>
      </trkpt>
      <trkpt lat="43.30518" lon="-0.73394">
        <ele>193.24</ele>
        <time>2021-06-06T02:19:17Z</time>
      </trkpt>
      <trkpt lat="43.3057" lon="-0.73463">
        <ele>195.83</ele>
        <time>2021-06-06T02:19:21Z</time>
      </trkpt>
      <trkpt lat="43.3063" lon="-0.73475">
        <ele>195</ele>
        <time>2021-06-06T02:19:25Z</time>
      </trkpt>
      <trkpt lat="43.30653" lon="-0.73489">
        <ele>194.19</ele>
        <time>2021-06-06T02:19:29Z</time>
      </trkpt>
      <trkpt lat="43.30669" lon="-0.73522">
        <ele>193.8</ele>
        <time>2021-06-06T02:19:33Z</time>
      </trkpt>
      <trkpt lat="43.30672" lon="-0.73559">
        <ele>189.66</ele>
        <time>2021-06-06T02:19:36Z</time>
      </trkpt>
      <trkpt lat="43.30649" lon="-0.737">
        <ele>175.49</ele>
        <time>2021-06-06T02:19:40Z</time>
      </trkpt>
      <trkpt lat="43.3064" lon="-0.73779">
        <ele>176.68</ele>
        <time>2021-06-06T02:19:44Z</time>
      </trkpt>
      <trkpt lat="43.30647" lon="-0.73833">
        <ele>173.03</ele>
        <time>2021-06-06T02:19:48Z</time>
      </trkpt>
      <trkpt lat="43.30715" lon="-0.73939">
        <ele>152.43</ele>
        <time>2021-06-06T02:19:51Z</time>
      </trkpt>
      <trkpt lat="43.30742" lon="-0.73983">
        <ele>148.82</ele>
        <time>2021-06-06T02:19:55Z</time>
      </trkpt>
      <trkpt lat="43.30924" lon="-0.74422">
        <ele>142.32</ele>
        <time>2021-06-06T02:19:59Z</time>
      </trkpt>
      <trkpt lat="43.30961" lon="-0.74512">
        <ele>144.74</ele>
        <time>2021-06-06T02:20:03Z</time>
      </trkpt>
      <trkpt lat="43.30976" lon="-0.74588">
        <ele>144</ele>
        <time>2021-06-06T02:20:07Z</time>
      </trkpt>
      <trkpt lat="43.30999" lon="-0.74659">
        <ele>141.52</ele>
        <time>2021-06-06T02:20:10Z</time>
      </trkpt>
      <trkpt lat="43.31015" lon="-0.74679">
        <ele>141.86</ele>
        <time>2021-06-06T02:20:14Z</time>
      </trkpt>
      <trkpt lat="43.31059" lon="-0.74695">
        <ele>144</ele>
        <time>2021-06-06T02:20:18Z</time>
      </trkpt>
      <trkpt lat="43.31079" lon="-0.74697">
        <ele>143.92</ele>
        <time>2021-06-06T02:20:22Z</time>
      </trkpt>
      <trkpt lat="43.31093" lon="-0.74694">
        <ele>144.35</ele>
        <time>2021-06-06T02:20:25Z</time>
      </trkpt>
      <trkpt lat="43.31108" lon="-0.74685">
        <ele>145.23</ele>
        <time>2021-06-06T02:20:29Z</time>
      </trkpt>
      <trkpt lat="43.31122" lon="-0.74683">
        <ele>145.03</ele>
        <time>2021-06-06T02:20:33Z</time>
      </trkpt>
      <trkpt lat="43.31208" lon="-0.74741">
        <ele>143.66</ele>
        <time>2021-06-06T02:20:37Z</time>
      </trkpt>
      <trkpt lat="43.31242" lon="-0.74777">
        <ele>143.01</ele>
        <time>2021-06-06T02:20:41Z</time>
      </trkpt>
      <trkpt lat="43.31275" lon="-0.74804">
        <ele>143</ele>
        <time>2021-06-06T02:20:44Z</time>
      </trkpt>
      <trkpt lat="43.31367" lon="-0.74832">
        <ele>140.04</ele>
        <time>2021-06-06T02:20:48Z</time>
      </trkpt>
      <trkpt lat="43.31488" lon="-0.74872">
        <ele>139.42</ele>
        <time>2021-06-06T02:20:52Z</time>
      </trkpt>
      <trkpt lat="43.31529" lon="-0.749">
        <ele>138.63</ele>
        <time>2021-06-06T02:20:56Z</time>
      </trkpt>
      <trkpt lat="43.31559" lon="-0.74911">
        <ele>139.41</ele>
        <time>2021-06-06T02:21:00Z</time>
      </trkpt>
      <trkpt lat="43.3159" lon="-0.74918">
        <ele>140.96</ele>
        <time>2021-06-06T02:21:03Z</time>
      </trkpt>
      <trkpt lat="43.31646" lon="-0.74962">
        <ele>138.75</ele>
        <time>2021-06-06T02:21:07Z</time>
      </trkpt>
      <trkpt lat="43.3168" lon="-0.74984">
        <ele>138</ele>
        <time>2021-06-06T02:21:11Z</time>
      </trkpt>
      <trkpt lat="43.31719" lon="-0.75021">
        <ele>138.96</ele>
        <time>2021-06-06T02:21:15Z</time>
      </trkpt>
      <trkpt lat="43.3177" lon="-0.75043">
        <ele>139</ele>
        <time>2021-06-06T02:21:18Z</time>
      </trkpt>
      <trkpt lat="43.31798" lon="-0.75039">
        <ele>138.72</ele>
        <time>2021-06-06T02:21:22Z</time>
      </trkpt>
      <trkpt lat="43.31837" lon="-0.75029">
        <ele>138.13</ele>
        <time>2021-06-06T02:21:26Z</time>
      </trkpt>
      <trkpt lat="43.31856" lon="-0.75032">
        <ele>138.8</ele>
        <time>2021-06-06T02:21:30Z</time>
      </trkpt>
      <trkpt lat="43.31909" lon="-0.75073">
        <ele>139.1</ele>
        <time>2021-06-06T02:21:34Z</time>
      </trkpt>
      <trkpt lat="43.31958" lon="-0.75133">
        <ele>137.53</ele>
        <time>2021-06-06T02:21:37Z</time>
      </trkpt>
      <trkpt lat="43.32002" lon="-0.75172">
        <ele>136.82</ele>
        <time>2021-06-06T02:21:41Z</time>
      </trkpt>
      <trkpt lat="43.31998" lon="-0.75259">
        <ele>136</ele>
        <time>2021-06-06T02:21:45Z</time>
      </trkpt>
      <trkpt lat="43.32038" lon="-0.7541">
        <ele>135.52</ele>
        <time>2021-06-06T02:21:48Z</time>
      </trkpt>
      <trkpt lat="43.32062" lon="-0.75477">
        <ele>135.05</ele>
        <time>2021-06-06T02:21:52Z</time>
      </trkpt>
      <trkpt lat="43.32066" lon="-0.75518">
        <ele>134.38</ele>
        <time>2021-06-06T02:21:56Z</time>
      </trkpt>
      <trkpt lat="43.32063" lon="-0.75542">
        <ele>134.26</ele>
        <time>2021-06-06T02:21:59Z</time>
      </trkpt>
      <trkpt lat="43.32053" lon="-0.75576">
        <ele>133.35</ele>
        <time>2021-06-06T02:22:03Z</time>
      </trkpt>
      <trkpt lat="43.32039" lon="-0.75603">
        <ele>132.87</ele>
        <time>2021-06-06T02:22:07Z</time>
      </trkpt>
      <trkpt lat="43.32034" lon="-0.75634">
        <ele>130.98</ele>
        <time>2021-06-06T02:22:10Z</time>
      </trkpt>
      <trkpt lat="43.32036" lon="-0.75651">
        <ele>129.68</ele>
        <time>2021-06-06T02:22:14Z</time>
      </trkpt>
      <trkpt lat="43.32039" lon="-0.75667">
        <ele>128.59</ele>
        <time>2021-06-06T02:22:17Z</time>
      </trkpt>
      <trkpt lat="43.32066" lon="-0.75748">
        <ele>128.77</ele>
        <time>2021-06-06T02:22:21Z</time>
      </trkpt>
      <trkpt lat="43.3207" lon="-0.75754">
        <ele>129.1</ele>
        <time>2021-06-06T02:22:25Z</time>
      </trkpt>
      <trkpt lat="43.32078" lon="-0.7576">
        <ele>129.69</ele>
        <time>2021-06-06T02:22:28Z</time>
      </trkpt>
      <trkpt lat="43.32077" lon="-0.75767">
        <ele>129.66</ele>
        <time>2021-06-06T02:22:33Z</time>
      </trkpt>
      <trkpt lat="43.32077" lon="-0.75782">
        <ele>129.76</ele>
        <time>2021-06-06T02:22:37Z</time>
      </trkpt>
      <trkpt lat="43.32095" lon="-0.75846">
        <ele>128.8</ele>
        <time>2021-06-06T02:22:42Z</time>
      </trkpt>
      <trkpt lat="43.32112" lon="-0.75888">
        <ele>128.92</ele>
        <time>2021-06-06T02:22:46Z</time>
      </trkpt>
      <trkpt lat="43.32125" lon="-0.75915">
        <ele>129.44</ele>
        <time>2021-06-06T02:22:51Z</time>
      </trkpt>
      <trkpt lat="43.32228" lon="-0.76048">
        <ele>129.95</ele>
        <time>2021-06-06T02:22:56Z</time>
      </trkpt>
      <trkpt lat="43.3221" lon="-0.76075">
        <ele>130</ele>
        <time>2021-06-06T02:23:00Z</time>
      </trkpt>
      <trkpt lat="43.32223" lon="-0.76091">
        <ele>129.77</ele>
        <time>2021-06-06T02:23:04Z</time>
      </trkpt>
      <trkpt lat="43.32223" lon="-0.76091">
        <ele>129.77</ele>
        <time>2021-06-06T02:23:04Z</time>
      </trkpt>
      <trkpt lat="43.32252" lon="-0.76127">
        <ele>129</ele>
        <time>2021-06-06T02:23:11Z</time>
      </trkpt>
      <trkpt lat="43.32248" lon="-0.76134">
        <ele>129.15</ele>
        <time>2021-06-06T02:23:12Z</time>
      </trkpt>
      <trkpt lat="43.32273" lon="-0.76165">
        <ele>129.75</ele>
        <time>2021-06-06T02:23:18Z</time>
      </trkpt>
      <trkpt lat="43.32294" lon="-0.76135">
        <ele>129.51</ele>
        <time>2021-06-06T02:23:24Z</time>
      </trkpt>
      <trkpt lat="43.32377" lon="-0.76242">
        <ele>126.56</ele>
        <time>2021-06-06T02:23:29Z</time>
      </trkpt>
      <trkpt lat="43.32374" lon="-0.76261">
        <ele>124.99</ele>
        <time>2021-06-06T02:23:34Z</time>
      </trkpt>
      <trkpt lat="43.32368" lon="-0.76284">
        <ele>121.35</ele>
        <time>2021-06-06T02:23:39Z</time>
      </trkpt>
      <trkpt lat="43.32265" lon="-0.76281">
        <ele>122.98</ele>
        <time>2021-06-06T02:23:40Z</time>
      </trkpt>
      <trkpt lat="43.32249" lon="-0.76283">
        <ele>122.94</ele>
        <time>2021-06-06T02:23:42Z</time>
      </trkpt>
      <trkpt lat="43.32241" lon="-0.76289">
        <ele>122.49</ele>
        <time>2021-06-06T02:23:44Z</time>
      </trkpt>
      <trkpt lat="43.32235" lon="-0.763">
        <ele>121.19</ele>
        <time>2021-06-06T02:23:46Z</time>
      </trkpt>
      <trkpt lat="43.32232" lon="-0.76311">
        <ele>119.47</ele>
        <time>2021-06-06T02:23:48Z</time>
      </trkpt>
      <trkpt lat="43.32233" lon="-0.76326">
        <ele>116.36</ele>
        <time>2021-06-06T02:23:49Z</time>
      </trkpt>
      <trkpt lat="43.32246" lon="-0.76375">
        <ele>111.58</ele>
        <time>2021-06-06T02:23:51Z</time>
      </trkpt>
      <trkpt lat="43.3227" lon="-0.76485">
        <ele>109.91</ele>
        <time>2021-06-06T02:23:53Z</time>
      </trkpt>
      <trkpt lat="43.3227" lon="-0.76513">
        <ele>112.4</ele>
        <time>2021-06-06T02:23:55Z</time>
      </trkpt>
      <trkpt lat="43.32271" lon="-0.76522">
        <ele>113.33</ele>
        <time>2021-06-06T02:23:57Z</time>
      </trkpt>
      <trkpt lat="43.32279" lon="-0.76535">
        <ele>115.21</ele>
        <time>2021-06-06T02:23:58Z</time>
      </trkpt>
      <trkpt lat="43.3229" lon="-0.76548">
        <ele>116.97</ele>
        <time>2021-06-06T02:24:00Z</time>
      </trkpt>
      <trkpt lat="43.32306" lon="-0.76563">
        <ele>117.99</ele>
        <time>2021-06-06T02:24:02Z</time>
      </trkpt>
      <trkpt lat="43.32363" lon="-0.76608">
        <ele>118.75</ele>
        <time>2021-06-06T02:24:04Z</time>
      </trkpt>
      <trkpt lat="43.32387" lon="-0.76637">
        <ele>119.92</ele>
        <time>2021-06-06T02:24:05Z</time>
      </trkpt>
      <trkpt lat="43.32399" lon="-0.76664">
        <ele>121.05</ele>
        <time>2021-06-06T02:24:07Z</time>
      </trkpt>
      <trkpt lat="43.32406" lon="-0.76685">
        <ele>122.7</ele>
        <time>2021-06-06T02:24:09Z</time>
      </trkpt>
      <trkpt lat="43.32427" lon="-0.76765">
        <ele>124.36</ele>
        <time>2021-06-06T02:24:11Z</time>
      </trkpt>
      <trkpt lat="43.32438" lon="-0.76794">
        <ele>123.72</ele>
        <time>2021-06-06T02:24:13Z</time>
      </trkpt>
      <trkpt lat="43.3245" lon="-0.76829">
        <ele>121.82</ele>
        <time>2021-06-06T02:24:14Z</time>
      </trkpt>
      <trkpt lat="43.32492" lon="-0.76991">
        <ele>124.1</ele>
        <time>2021-06-06T02:24:16Z</time>
      </trkpt>
      <trkpt lat="43.32493" lon="-0.77003">
        <ele>123.84</ele>
        <time>2021-06-06T02:24:18Z</time>
      </trkpt>
      <trkpt lat="43.32497" lon="-0.77061">
        <ele>121.38</ele>
        <time>2021-06-06T02:24:20Z</time>
      </trkpt>
      <trkpt lat="43.32498" lon="-0.77209">
        <ele>126.93</ele>
        <time>2021-06-06T02:24:21Z</time>
      </trkpt>
      <trkpt lat="43.325" lon="-0.77285">
        <ele>125.75</ele>
        <time>2021-06-06T02:24:23Z</time>
      </trkpt>
      <trkpt lat="43.32506" lon="-0.77318">
        <ele>125.35</ele>
        <time>2021-06-06T02:24:25Z</time>
      </trkpt>
      <trkpt lat="43.32513" lon="-0.77326">
        <ele>125.39</ele>
        <time>2021-06-06T02:24:36Z</time>
      </trkpt>
      <trkpt lat="43.32515" lon="-0.77337">
        <ele>125.3</ele>
        <time>2021-06-06T02:24:47Z</time>
      </trkpt>
      <trkpt lat="43.32525" lon="-0.77348">
        <ele>124.58</ele>
        <time>2021-06-06T02:24:58Z</time>
      </trkpt>
      <trkpt lat="43.32555" lon="-0.7737">
        <ele>123.01</ele>
        <time>2021-06-06T02:25:09Z</time>
      </trkpt>
      <trkpt lat="43.32634" lon="-0.77422">
        <ele>122</ele>
        <time>2021-06-06T02:25:21Z</time>
      </trkpt>
      <trkpt lat="43.32997" lon="-0.77642">
        <ele>123</ele>
        <time>2021-06-06T02:25:32Z</time>
      </trkpt>
      <trkpt lat="43.3404" lon="-0.78282">
        <ele>117.56</ele>
        <time>2021-06-06T02:25:43Z</time>
      </trkpt>
      <trkpt lat="43.34089" lon="-0.78339">
        <ele>116.96</ele>
        <time>2021-06-06T02:25:54Z</time>
      </trkpt>
      <trkpt lat="43.34173" lon="-0.78478">
        <ele>113.85</ele>
        <time>2021-06-06T02:26:05Z</time>
      </trkpt>
      <trkpt lat="43.34481" lon="-0.78995">
        <ele>114.26</ele>
        <time>2021-06-06T02:26:16Z</time>
      </trkpt>
      <trkpt lat="43.34497" lon="-0.79005">
        <ele>114.89</ele>
        <time>2021-06-06T02:26:27Z</time>
      </trkpt>
      <trkpt lat="43.34504" lon="-0.79004">
        <ele>115</ele>
        <time>2021-06-06T02:26:28Z</time>
      </trkpt>
      <trkpt lat="43.34511" lon="-0.79005">
        <ele>115</ele>
        <time>2021-06-06T02:26:28Z</time>
      </trkpt>
      <trkpt lat="43.34517" lon="-0.7901">
        <ele>115</ele>
        <time>2021-06-06T02:26:28Z</time>
      </trkpt>
      <trkpt lat="43.34521" lon="-0.79017">
        <ele>115</ele>
        <time>2021-06-06T02:26:29Z</time>
      </trkpt>
      <trkpt lat="43.34524" lon="-0.79026">
        <ele>115</ele>
        <time>2021-06-06T02:26:29Z</time>
      </trkpt>
      <trkpt lat="43.34524" lon="-0.79036">
        <ele>115</ele>
        <time>2021-06-06T02:26:30Z</time>
      </trkpt>
      <trkpt lat="43.34522" lon="-0.79044">
        <ele>115</ele>
        <time>2021-06-06T02:26:30Z</time>
      </trkpt>
      <trkpt lat="43.34523" lon="-0.7907">
        <ele>115</ele>
        <time>2021-06-06T02:26:31Z</time>
      </trkpt>
      <trkpt lat="43.34722" lon="-0.7941">
        <ele>112.23</ele>
        <time>2021-06-06T02:26:36Z</time>
      </trkpt>
      <trkpt lat="43.34769" lon="-0.79492">
        <ele>112.36</ele>
        <time>2021-06-06T02:26:41Z</time>
      </trkpt>
      <trkpt lat="43.34796" lon="-0.79531">
        <ele>113.25</ele>
        <time>2021-06-06T02:26:47Z</time>
      </trkpt>
      <trkpt lat="43.34895" lon="-0.79714">
        <ele>112.25</ele>
        <time>2021-06-06T02:26:52Z</time>
      </trkpt>
      <trkpt lat="43.34902" lon="-0.79732">
        <ele>112.03</ele>
        <time>2021-06-06T02:26:57Z</time>
      </trkpt>
      <trkpt lat="43.34958" lon="-0.79833">
        <ele>112.07</ele>
        <time>2021-06-06T02:27:03Z</time>
      </trkpt>
      <trkpt lat="43.35005" lon="-0.79884">
        <ele>109</ele>
        <time>2021-06-06T02:27:08Z</time>
      </trkpt>
      <trkpt lat="43.35114" lon="-0.79964">
        <ele>108</ele>
        <time>2021-06-06T02:27:14Z</time>
      </trkpt>
      <trkpt lat="43.35162" lon="-0.80016">
        <ele>109.07</ele>
        <time>2021-06-06T02:27:19Z</time>
      </trkpt>
      <trkpt lat="43.35188" lon="-0.8005">
        <ele>110.22</ele>
        <time>2021-06-06T02:27:24Z</time>
      </trkpt>
      <trkpt lat="43.35226" lon="-0.80111">
        <ele>110.74</ele>
        <time>2021-06-06T02:27:30Z</time>
      </trkpt>
      <trkpt lat="43.35313" lon="-0.80281">
        <ele>111.43</ele>
        <time>2021-06-06T02:27:35Z</time>
      </trkpt>
      <trkpt lat="43.35335" lon="-0.80317">
        <ele>111.68</ele>
        <time>2021-06-06T02:27:40Z</time>
      </trkpt>
      <trkpt lat="43.35376" lon="-0.80365">
        <ele>111.19</ele>
        <time>2021-06-06T02:27:46Z</time>
      </trkpt>
      <trkpt lat="43.3549" lon="-0.80474">
        <ele>108.8</ele>
        <time>2021-06-06T02:27:51Z</time>
      </trkpt>
      <trkpt lat="43.35872" lon="-0.80784">
        <ele>107.38</ele>
        <time>2021-06-06T02:27:56Z</time>
      </trkpt>
      <trkpt lat="43.35955" lon="-0.80875">
        <ele>109.14</ele>
        <time>2021-06-06T02:28:02Z</time>
      </trkpt>
      <trkpt lat="43.36029" lon="-0.80983">
        <ele>107.24</ele>
        <time>2021-06-06T02:28:07Z</time>
      </trkpt>
      <trkpt lat="43.36076" lon="-0.81068">
        <ele>105.45</ele>
        <time>2021-06-06T02:28:13Z</time>
      </trkpt>
      <trkpt lat="43.36103" lon="-0.81126">
        <ele>105.63</ele>
        <time>2021-06-06T02:28:18Z</time>
      </trkpt>
      <trkpt lat="43.3613" lon="-0.81191">
        <ele>105.14</ele>
        <time>2021-06-06T02:28:23Z</time>
      </trkpt>
      <trkpt lat="43.36151" lon="-0.81253">
        <ele>105.63</ele>
        <time>2021-06-06T02:28:29Z</time>
      </trkpt>
      <trkpt lat="43.36171" lon="-0.81323">
        <ele>106.64</ele>
        <time>2021-06-06T02:28:34Z</time>
      </trkpt>
      <trkpt lat="43.36192" lon="-0.81421">
        <ele>105.14</ele>
        <time>2021-06-06T02:28:39Z</time>
      </trkpt>
      <trkpt lat="43.36204" lon="-0.8149">
        <ele>104.54</ele>
        <time>2021-06-06T02:28:45Z</time>
      </trkpt>
      <trkpt lat="43.36208" lon="-0.81527">
        <ele>104.98</ele>
        <time>2021-06-06T02:28:50Z</time>
      </trkpt>
      <trkpt lat="43.36215" lon="-0.81597">
        <ele>104.59</ele>
        <time>2021-06-06T02:28:55Z</time>
      </trkpt>
      <trkpt lat="43.36217" lon="-0.81657">
        <ele>103.82</ele>
        <time>2021-06-06T02:29:01Z</time>
      </trkpt>
      <trkpt lat="43.36217" lon="-0.81729">
        <ele>104.26</ele>
        <time>2021-06-06T02:29:06Z</time>
      </trkpt>
      <trkpt lat="43.36195" lon="-0.82374">
        <ele>97.89</ele>
        <time>2021-06-06T02:29:12Z</time>
      </trkpt>
      <trkpt lat="43.36198" lon="-0.82409">
        <ele>100.42</ele>
        <time>2021-06-06T02:29:17Z</time>
      </trkpt>
      <trkpt lat="43.36202" lon="-0.82429">
        <ele>101.12</ele>
        <time>2021-06-06T02:29:22Z</time>
      </trkpt>
      <trkpt lat="43.36208" lon="-0.82434">
        <ele>101.29</ele>
        <time>2021-06-06T02:29:27Z</time>
      </trkpt>
      <trkpt lat="43.36212" lon="-0.8244">
        <ele>101.53</ele>
        <time>2021-06-06T02:29:32Z</time>
      </trkpt>
      <trkpt lat="43.36214" lon="-0.82448">
        <ele>101.75</ele>
        <time>2021-06-06T02:29:36Z</time>
      </trkpt>
      <trkpt lat="43.36216" lon="-0.82461">
        <ele>101.9</ele>
        <time>2021-06-06T02:29:41Z</time>
      </trkpt>
      <trkpt lat="43.36208" lon="-0.8248">
        <ele>102.27</ele>
        <time>2021-06-06T02:29:46Z</time>
      </trkpt>
      <trkpt lat="43.3621" lon="-0.82502">
        <ele>103.07</ele>
        <time>2021-06-06T02:29:50Z</time>
      </trkpt>
      <trkpt lat="43.36219" lon="-0.82545">
        <ele>104.51</ele>
        <time>2021-06-06T02:29:55Z</time>
      </trkpt>
      <trkpt lat="43.36337" lon="-0.82814">
        <ele>101.4</ele>
        <time>2021-06-06T02:30:00Z</time>
      </trkpt>
      <trkpt lat="43.36399" lon="-0.82928">
        <ele>99.85</ele>
        <time>2021-06-06T02:30:04Z</time>
      </trkpt>
      <trkpt lat="43.36599" lon="-0.83223">
        <ele>100.33</ele>
        <time>2021-06-06T02:30:09Z</time>
      </trkpt>
      <trkpt lat="43.36742" lon="-0.83377">
        <ele>102.51</ele>
        <time>2021-06-06T02:30:14Z</time>
      </trkpt>
      <trkpt lat="43.36827" lon="-0.83501">
        <ele>99.13</ele>
        <time>2021-06-06T02:30:18Z</time>
      </trkpt>
      <trkpt lat="43.36965" lon="-0.83707">
        <ele>96</ele>
        <time>2021-06-06T02:30:23Z</time>
      </trkpt>
      <trkpt lat="43.36991" lon="-0.83748">
        <ele>95.73</ele>
        <time>2021-06-06T02:30:28Z</time>
      </trkpt>
      <trkpt lat="43.37005" lon="-0.838">
        <ele>95.67</ele>
        <time>2021-06-06T02:30:32Z</time>
      </trkpt>
      <trkpt lat="43.37091" lon="-0.84183">
        <ele>92.56</ele>
        <time>2021-06-06T02:30:37Z</time>
      </trkpt>
      <trkpt lat="43.37101" lon="-0.84212">
        <ele>91.89</ele>
        <time>2021-06-06T02:30:42Z</time>
      </trkpt>
      <trkpt lat="43.37116" lon="-0.84274">
        <ele>92.72</ele>
        <time>2021-06-06T02:30:46Z</time>
      </trkpt>
      <trkpt lat="43.37119" lon="-0.8429">
        <ele>93.29</ele>
        <time>2021-06-06T02:30:51Z</time>
      </trkpt>
      <trkpt lat="43.37121" lon="-0.84315">
        <ele>94.54</ele>
        <time>2021-06-06T02:30:56Z</time>
      </trkpt>
      <trkpt lat="43.37133" lon="-0.84376">
        <ele>96.46</ele>
        <time>2021-06-06T02:31:00Z</time>
      </trkpt>
      <trkpt lat="43.37141" lon="-0.84412">
        <ele>96.58</ele>
        <time>2021-06-06T02:31:05Z</time>
      </trkpt>
      <trkpt lat="43.37161" lon="-0.84478">
        <ele>95.37</ele>
        <time>2021-06-06T02:31:10Z</time>
      </trkpt>
      <trkpt lat="43.37304" lon="-0.84908">
        <ele>89.41</ele>
        <time>2021-06-06T02:31:14Z</time>
      </trkpt>
      <trkpt lat="43.37324" lon="-0.84983">
        <ele>90.26</ele>
        <time>2021-06-06T02:31:19Z</time>
      </trkpt>
      <trkpt lat="43.37398" lon="-0.85433">
        <ele>91.39</ele>
        <time>2021-06-06T02:31:24Z</time>
      </trkpt>
      <trkpt lat="43.37399" lon="-0.85471">
        <ele>90.3</ele>
        <time>2021-06-06T02:31:28Z</time>
      </trkpt>
      <trkpt lat="43.37391" lon="-0.85523">
        <ele>88.92</ele>
        <time>2021-06-06T02:31:33Z</time>
      </trkpt>
      <trkpt lat="43.37371" lon="-0.85611">
        <ele>91.27</ele>
        <time>2021-06-06T02:31:38Z</time>
      </trkpt>
      <trkpt lat="43.37373" lon="-0.85649">
        <ele>91.34</ele>
        <time>2021-06-06T02:31:42Z</time>
      </trkpt>
      <trkpt lat="43.37387" lon="-0.85773">
        <ele>92.21</ele>
        <time>2021-06-06T02:31:47Z</time>
      </trkpt>
      <trkpt lat="43.37388" lon="-0.85816">
        <ele>93.06</ele>
        <time>2021-06-06T02:31:52Z</time>
      </trkpt>
      <trkpt lat="43.37381" lon="-0.85864">
        <ele>94.04</ele>
        <time>2021-06-06T02:31:56Z</time>
      </trkpt>
      <trkpt lat="43.37344" lon="-0.86015">
        <ele>100.9</ele>
        <time>2021-06-06T02:32:01Z</time>
      </trkpt>
      <trkpt lat="43.37344" lon="-0.8605">
        <ele>103.21</ele>
        <time>2021-06-06T02:32:06Z</time>
      </trkpt>
      <trkpt lat="43.37357" lon="-0.86144">
        <ele>105.13</ele>
        <time>2021-06-06T02:32:10Z</time>
      </trkpt>
      <trkpt lat="43.37375" lon="-0.86245">
        <ele>99.61</ele>
        <time>2021-06-06T02:32:15Z</time>
      </trkpt>
      <trkpt lat="43.3738" lon="-0.86268">
        <ele>101.17</ele>
        <time>2021-06-06T02:32:20Z</time>
      </trkpt>
      <trkpt lat="43.37424" lon="-0.86383">
        <ele>97.88</ele>
        <time>2021-06-06T02:32:24Z</time>
      </trkpt>
      <trkpt lat="43.37462" lon="-0.86517">
        <ele>97.26</ele>
        <time>2021-06-06T02:32:29Z</time>
      </trkpt>
      <trkpt lat="43.3748" lon="-0.86599">
        <ele>96.17</ele>
        <time>2021-06-06T02:32:34Z</time>
      </trkpt>
      <trkpt lat="43.37496" lon="-0.86728">
        <ele>98.14</ele>
        <time>2021-06-06T02:32:38Z</time>
      </trkpt>
      <trkpt lat="43.37508" lon="-0.8679">
        <ele>102.52</ele>
        <time>2021-06-06T02:32:43Z</time>
      </trkpt>
      <trkpt lat="43.37559" lon="-0.86921">
        <ele>97.32</ele>
        <time>2021-06-06T02:32:48Z</time>
      </trkpt>
      <trkpt lat="43.37573" lon="-0.86983">
        <ele>96.57</ele>
        <time>2021-06-06T02:32:52Z</time>
      </trkpt>
      <trkpt lat="43.37579" lon="-0.87023">
        <ele>96.33</ele>
        <time>2021-06-06T02:32:57Z</time>
      </trkpt>
      <trkpt lat="43.37581" lon="-0.87071">
        <ele>96.84</ele>
        <time>2021-06-06T02:33:02Z</time>
      </trkpt>
      <trkpt lat="43.37582" lon="-0.87171">
        <ele>96.4</ele>
        <time>2021-06-06T02:33:06Z</time>
      </trkpt>
      <trkpt lat="43.37591" lon="-0.87215">
        <ele>95.53</ele>
        <time>2021-06-06T02:33:11Z</time>
      </trkpt>
      <trkpt lat="43.37606" lon="-0.8725">
        <ele>97.64</ele>
        <time>2021-06-06T02:33:16Z</time>
      </trkpt>
      <trkpt lat="43.3775" lon="-0.87486">
        <ele>90.42</ele>
        <time>2021-06-06T02:33:20Z</time>
      </trkpt>
      <trkpt lat="43.3778" lon="-0.87526">
        <ele>87.71</ele>
        <time>2021-06-06T02:33:25Z</time>
      </trkpt>
      <trkpt lat="43.37818" lon="-0.87561">
        <ele>85.44</ele>
        <time>2021-06-06T02:33:30Z</time>
      </trkpt>
      <trkpt lat="43.37866" lon="-0.87589">
        <ele>83.98</ele>
        <time>2021-06-06T02:33:34Z</time>
      </trkpt>
      <trkpt lat="43.37904" lon="-0.87623">
        <ele>82.39</ele>
        <time>2021-06-06T02:33:39Z</time>
      </trkpt>
      <trkpt lat="43.37953" lon="-0.87693">
        <ele>84.55</ele>
        <time>2021-06-06T02:33:44Z</time>
      </trkpt>
      <trkpt lat="43.38027" lon="-0.87829">
        <ele>86.8</ele>
        <time>2021-06-06T02:33:48Z</time>
      </trkpt>
      <trkpt lat="43.38092" lon="-0.87975">
        <ele>84.89</ele>
        <time>2021-06-06T02:33:53Z</time>
      </trkpt>
      <trkpt lat="43.38184" lon="-0.88269">
        <ele>84.58</ele>
        <time>2021-06-06T02:33:58Z</time>
      </trkpt>
      <trkpt lat="43.38345" lon="-0.88772">
        <ele>83.2</ele>
        <time>2021-06-06T02:34:02Z</time>
      </trkpt>
      <trkpt lat="43.38359" lon="-0.88822">
        <ele>82</ele>
        <time>2021-06-06T02:34:07Z</time>
      </trkpt>
      <trkpt lat="43.38366" lon="-0.88864">
        <ele>82.65</ele>
        <time>2021-06-06T02:34:12Z</time>
      </trkpt>
      <trkpt lat="43.38398" lon="-0.89089">
        <ele>82.83</ele>
        <time>2021-06-06T02:34:16Z</time>
      </trkpt>
      <trkpt lat="43.38399" lon="-0.89143">
        <ele>82.12</ele>
        <time>2021-06-06T02:34:21Z</time>
      </trkpt>
      <trkpt lat="43.38377" lon="-0.89306">
        <ele>81.86</ele>
        <time>2021-06-06T02:34:26Z</time>
      </trkpt>
      <trkpt lat="43.38379" lon="-0.89314">
        <ele>82.04</ele>
        <time>2021-06-06T02:34:30Z</time>
      </trkpt>
      <trkpt lat="43.38377" lon="-0.89331">
        <ele>82.79</ele>
        <time>2021-06-06T02:34:35Z</time>
      </trkpt>
      <trkpt lat="43.38373" lon="-0.89339">
        <ele>82.92</ele>
        <time>2021-06-06T02:34:40Z</time>
      </trkpt>
      <trkpt lat="43.38354" lon="-0.8948">
        <ele>82.01</ele>
        <time>2021-06-06T02:34:45Z</time>
      </trkpt>
      <trkpt lat="43.38351" lon="-0.89525">
        <ele>81.04</ele>
        <time>2021-06-06T02:34:49Z</time>
      </trkpt>
      <trkpt lat="43.38352" lon="-0.89564">
        <ele>81.82</ele>
        <time>2021-06-06T02:34:54Z</time>
      </trkpt>
      <trkpt lat="43.38543" lon="-0.90358">
        <ele>79</ele>
        <time>2021-06-06T02:34:59Z</time>
      </trkpt>
      <trkpt lat="43.38547" lon="-0.90368">
        <ele>79</ele>
        <time>2021-06-06T02:35:03Z</time>
      </trkpt>
      <trkpt lat="43.38552" lon="-0.90396">
        <ele>79.22</ele>
        <time>2021-06-06T02:35:08Z</time>
      </trkpt>
      <trkpt lat="43.38665" lon="-0.90874">
        <ele>77.96</ele>
        <time>2021-06-06T02:35:13Z</time>
      </trkpt>
      <trkpt lat="43.38688" lon="-0.90927">
        <ele>78.15</ele>
        <time>2021-06-06T02:35:17Z</time>
      </trkpt>
      <trkpt lat="43.38695" lon="-0.90932">
        <ele>78</ele>
        <time>2021-06-06T02:35:21Z</time>
      </trkpt>
      <trkpt lat="43.387" lon="-0.9094">
        <ele>78</ele>
        <time>2021-06-06T02:35:26Z</time>
      </trkpt>
      <trkpt lat="43.38703" lon="-0.90951">
        <ele>77.56</ele>
        <time>2021-06-06T02:35:30Z</time>
      </trkpt>
      <trkpt lat="43.38703" lon="-0.90962">
        <ele>76.74</ele>
        <time>2021-06-06T02:35:34Z</time>
      </trkpt>
      <trkpt lat="43.387" lon="-0.90973">
        <ele>75.99</ele>
        <time>2021-06-06T02:35:38Z</time>
      </trkpt>
      <trkpt lat="43.38693" lon="-0.90981">
        <ele>76.09</ele>
        <time>2021-06-06T02:35:42Z</time>
      </trkpt>
      <trkpt lat="43.3869" lon="-0.9102">
        <ele>77.03</ele>
        <time>2021-06-06T02:35:47Z</time>
      </trkpt>
      <trkpt lat="43.38699" lon="-0.91087">
        <ele>77.85</ele>
        <time>2021-06-06T02:35:51Z</time>
      </trkpt>
      <trkpt lat="43.38702" lon="-0.91193">
        <ele>77.73</ele>
        <time>2021-06-06T02:35:55Z</time>
      </trkpt>
      <trkpt lat="43.38697" lon="-0.9131">
        <ele>75.91</ele>
        <time>2021-06-06T02:35:59Z</time>
      </trkpt>
      <trkpt lat="43.38616" lon="-0.92162">
        <ele>74</ele>
        <time>2021-06-06T02:36:03Z</time>
      </trkpt>
      <trkpt lat="43.38616" lon="-0.92297">
        <ele>74.12</ele>
        <time>2021-06-06T02:36:08Z</time>
      </trkpt>
      <trkpt lat="43.38617" lon="-0.92329">
        <ele>74.88</ele>
        <time>2021-06-06T02:36:12Z</time>
      </trkpt>
      <trkpt lat="43.38629" lon="-0.9245">
        <ele>74.15</ele>
        <time>2021-06-06T02:36:16Z</time>
      </trkpt>
      <trkpt lat="43.38644" lon="-0.92537">
        <ele>72.76</ele>
        <time>2021-06-06T02:36:20Z</time>
      </trkpt>
      <trkpt lat="43.38661" lon="-0.92609">
        <ele>75.98</ele>
        <time>2021-06-06T02:36:24Z</time>
      </trkpt>
      <trkpt lat="43.38678" lon="-0.92671">
        <ele>75.63</ele>
        <time>2021-06-06T02:36:28Z</time>
      </trkpt>
      <trkpt lat="43.38714" lon="-0.92774">
        <ele>73.84</ele>
        <time>2021-06-06T02:36:33Z</time>
      </trkpt>
      <trkpt lat="43.38721" lon="-0.92786">
        <ele>73.68</ele>
        <time>2021-06-06T02:36:37Z</time>
      </trkpt>
      <trkpt lat="43.38803" lon="-0.92964">
        <ele>71.72</ele>
        <time>2021-06-06T02:36:41Z</time>
      </trkpt>
      <trkpt lat="43.38815" lon="-0.92998">
        <ele>70.31</ele>
        <time>2021-06-06T02:36:45Z</time>
      </trkpt>
      <trkpt lat="43.38837" lon="-0.93087">
        <ele>72.03</ele>
        <time>2021-06-06T02:36:49Z</time>
      </trkpt>
      <trkpt lat="43.38847" lon="-0.93173">
        <ele>71.88</ele>
        <time>2021-06-06T02:36:54Z</time>
      </trkpt>
      <trkpt lat="43.38858" lon="-0.93533">
        <ele>73.48</ele>
        <time>2021-06-06T02:36:58Z</time>
      </trkpt>
      <trkpt lat="43.38862" lon="-0.93729">
        <ele>69.99</ele>
        <time>2021-06-06T02:37:02Z</time>
      </trkpt>
      <trkpt lat="43.3887" lon="-0.93763">
        <ele>69.54</ele>
        <time>2021-06-06T02:37:06Z</time>
      </trkpt>
      <trkpt lat="43.38876" lon="-0.9377">
        <ele>69.05</ele>
        <time>2021-06-06T02:37:09Z</time>
      </trkpt>
      <trkpt lat="43.3888" lon="-0.93781">
        <ele>68.57</ele>
        <time>2021-06-06T02:37:11Z</time>
      </trkpt>
      <trkpt lat="43.3888" lon="-0.9379">
        <ele>68.35</ele>
        <time>2021-06-06T02:37:13Z</time>
      </trkpt>
      <trkpt lat="43.38877" lon="-0.93798">
        <ele>68.39</ele>
        <time>2021-06-06T02:37:16Z</time>
      </trkpt>
      <trkpt lat="43.38871" lon="-0.93806">
        <ele>68.93</ele>
        <time>2021-06-06T02:37:18Z</time>
      </trkpt>
      <trkpt lat="43.38865" lon="-0.93838">
        <ele>70.12</ele>
        <time>2021-06-06T02:37:21Z</time>
      </trkpt>
      <trkpt lat="43.38871" lon="-0.94094">
        <ele>72.21</ele>
        <time>2021-06-06T02:37:23Z</time>
      </trkpt>
      <trkpt lat="43.38879" lon="-0.94131">
        <ele>71.1</ele>
        <time>2021-06-06T02:37:26Z</time>
      </trkpt>
      <trkpt lat="43.38933" lon="-0.94307">
        <ele>71</ele>
        <time>2021-06-06T02:37:28Z</time>
      </trkpt>
      <trkpt lat="43.38947" lon="-0.94333">
        <ele>70.92</ele>
        <time>2021-06-06T02:37:30Z</time>
      </trkpt>
      <trkpt lat="43.38953" lon="-0.94335">
        <ele>70.68</ele>
        <time>2021-06-06T02:37:34Z</time>
      </trkpt>
      <trkpt lat="43.38958" lon="-0.94339">
        <ele>70.51</ele>
        <time>2021-06-06T02:37:38Z</time>
      </trkpt>
      <trkpt lat="43.38981" lon="-0.94338">
        <ele>70.15</ele>
        <time>2021-06-06T02:37:42Z</time>
      </trkpt>
      <trkpt lat="43.38999" lon="-0.94326">
        <ele>69.76</ele>
        <time>2021-06-06T02:37:46Z</time>
      </trkpt>
      <trkpt lat="43.39023" lon="-0.94315">
        <ele>70.44</ele>
        <time>2021-06-06T02:37:50Z</time>
      </trkpt>
      <trkpt lat="43.39058" lon="-0.94305">
        <ele>71.06</ele>
        <time>2021-06-06T02:37:53Z</time>
      </trkpt>
      <trkpt lat="43.39096" lon="-0.94299">
        <ele>71.16</ele>
        <time>2021-06-06T02:37:57Z</time>
      </trkpt>
      <trkpt lat="43.39138" lon="-0.94288">
        <ele>69.78</ele>
        <time>2021-06-06T02:38:01Z</time>
      </trkpt>
      <trkpt lat="43.39169" lon="-0.94285">
        <ele>70.25</ele>
        <time>2021-06-06T02:38:05Z</time>
      </trkpt>
      <trkpt lat="43.39206" lon="-0.94293">
        <ele>70.1</ele>
        <time>2021-06-06T02:38:09Z</time>
      </trkpt>
      <trkpt lat="43.39232" lon="-0.94312">
        <ele>68.7</ele>
        <time>2021-06-06T02:38:13Z</time>
      </trkpt>
      <trkpt lat="43.39353" lon="-0.94419">
        <ele>60.46</ele>
        <time>2021-06-06T02:38:16Z</time>
      </trkpt>
      <trkpt lat="43.39378" lon="-0.94436">
        <ele>56.55</ele>
        <time>2021-06-06T02:38:20Z</time>
      </trkpt>
      <trkpt lat="43.39394" lon="-0.94444">
        <ele>54.31</ele>
        <time>2021-06-06T02:38:24Z</time>
      </trkpt>
      <trkpt lat="43.39469" lon="-0.94476">
        <ele>51.76</ele>
        <time>2021-06-06T02:38:28Z</time>
      </trkpt>
      <trkpt lat="43.39535" lon="-0.94509">
        <ele>53.04</ele>
        <time>2021-06-06T02:38:32Z</time>
      </trkpt>
      <trkpt lat="43.39555" lon="-0.94513">
        <ele>53.96</ele>
        <time>2021-06-06T02:38:36Z</time>
      </trkpt>
      <trkpt lat="43.39575" lon="-0.94511">
        <ele>56.38</ele>
        <time>2021-06-06T02:38:39Z</time>
      </trkpt>
      <trkpt lat="43.39585" lon="-0.94508">
        <ele>57.61</ele>
        <time>2021-06-06T02:38:45Z</time>
      </trkpt>
      <trkpt lat="43.39611" lon="-0.9448">
        <ele>61.29</ele>
        <time>2021-06-06T02:38:51Z</time>
      </trkpt>
      <trkpt lat="43.39666" lon="-0.9427">
        <ele>68.11</ele>
        <time>2021-06-06T02:38:56Z</time>
      </trkpt>
      <trkpt lat="43.39674" lon="-0.94264">
        <ele>69.45</ele>
        <time>2021-06-06T02:39:02Z</time>
      </trkpt>
      <trkpt lat="43.39684" lon="-0.9426">
        <ele>70.78</ele>
        <time>2021-06-06T02:39:08Z</time>
      </trkpt>
      <trkpt lat="43.39746" lon="-0.94251">
        <ele>80.85</ele>
        <time>2021-06-06T02:39:13Z</time>
      </trkpt>
      <trkpt lat="43.39858" lon="-0.94221">
        <ele>87</ele>
        <time>2021-06-06T02:39:19Z</time>
      </trkpt>
      <trkpt lat="43.39871" lon="-0.94215">
        <ele>86.66</ele>
        <time>2021-06-06T02:39:25Z</time>
      </trkpt>
      <trkpt lat="43.39886" lon="-0.94197">
        <ele>86.09</ele>
        <time>2021-06-06T02:39:30Z</time>
      </trkpt>
      <trkpt lat="43.39893" lon="-0.94182">
        <ele>85.93</ele>
        <time>2021-06-06T02:39:36Z</time>
      </trkpt>
      <trkpt lat="43.39955" lon="-0.9391">
        <ele>86.75</ele>
        <time>2021-06-06T02:39:42Z</time>
      </trkpt>
      <trkpt lat="43.39959" lon="-0.93903">
        <ele>86.16</ele>
        <time>2021-06-06T02:39:47Z</time>
      </trkpt>
      <trkpt lat="43.39927" lon="-0.93891">
        <ele>88.95</ele>
        <time>2021-06-06T02:39:51Z</time>
      </trkpt>
      <trkpt lat="43.39919" lon="-0.93885">
        <ele>89.6</ele>
        <time>2021-06-06T02:39:55Z</time>
      </trkpt>
      <trkpt lat="43.39926" lon="-0.93865">
        <ele>88.44</ele>
        <time>2021-06-06T02:39:58Z</time>
      </trkpt>
      <trkpt lat="43.39937" lon="-0.93869">
        <ele>87.97</ele>
        <time>2021-06-06T02:40:02Z</time>
      </trkpt>
      <trkpt lat="43.39937" lon="-0.93869">
        <ele>87.97</ele>
        <time>2021-06-06T02:40:02Z</time>
      </trkpt>
      <trkpt lat="43.39926" lon="-0.93865">
        <ele>88.44</ele>
        <time>2021-06-06T02:40:06Z</time>
      </trkpt>
      <trkpt lat="43.39919" lon="-0.93885">
        <ele>89.6</ele>
        <time>2021-06-06T02:40:08Z</time>
      </trkpt>
      <trkpt lat="43.39927" lon="-0.93891">
        <ele>88.95</ele>
        <time>2021-06-06T02:40:11Z</time>
      </trkpt>
      <trkpt lat="43.39959" lon="-0.93903">
        <ele>86.16</ele>
        <time>2021-06-06T02:40:14Z</time>
      </trkpt>
      <trkpt lat="43.39966" lon="-0.93905">
        <ele>85.56</ele>
        <time>2021-06-06T02:40:17Z</time>
      </trkpt>
      <trkpt lat="43.39969" lon="-0.93911">
        <ele>85.34</ele>
        <time>2021-06-06T02:40:21Z</time>
      </trkpt>
      <trkpt lat="43.39971" lon="-0.93925">
        <ele>84.87</ele>
        <time>2021-06-06T02:40:26Z</time>
      </trkpt>
      <trkpt lat="43.39978" lon="-0.93946">
        <ele>84</ele>
        <time>2021-06-06T02:40:30Z</time>
      </trkpt>
      <trkpt lat="43.39985" lon="-0.93977">
        <ele>84.17</ele>
        <time>2021-06-06T02:40:35Z</time>
      </trkpt>
      <trkpt lat="43.39996" lon="-0.94074">
        <ele>84.31</ele>
        <time>2021-06-06T02:40:39Z</time>
      </trkpt>
      <trkpt lat="43.39997" lon="-0.94132">
        <ele>82.24</ele>
        <time>2021-06-06T02:40:44Z</time>
      </trkpt>
      <trkpt lat="43.39976" lon="-0.94295">
        <ele>84.45</ele>
        <time>2021-06-06T02:40:48Z</time>
      </trkpt>
      <trkpt lat="43.3996" lon="-0.94333">
        <ele>85.46</ele>
        <time>2021-06-06T02:40:52Z</time>
      </trkpt>
      <trkpt lat="43.39956" lon="-0.94355">
        <ele>84.8</ele>
        <time>2021-06-06T02:40:57Z</time>
      </trkpt>
      <trkpt lat="43.39954" lon="-0.94384">
        <ele>84.12</ele>
        <time>2021-06-06T02:41:01Z</time>
      </trkpt>
      <trkpt lat="43.39956" lon="-0.94403">
        <ele>83.49</ele>
        <time>2021-06-06T02:41:06Z</time>
      </trkpt>
      <trkpt lat="43.39962" lon="-0.94434">
        <ele>82.77</ele>
        <time>2021-06-06T02:41:10Z</time>
      </trkpt>
      <trkpt lat="43.39973" lon="-0.9448">
        <ele>83.33</ele>
        <time>2021-06-06T02:41:14Z</time>
      </trkpt>
      <trkpt lat="43.40088" lon="-0.94803">
        <ele>83.06</ele>
        <time>2021-06-06T02:41:19Z</time>
      </trkpt>
      <trkpt lat="43.401" lon="-0.94835">
        <ele>81.93</ele>
        <time>2021-06-06T02:41:23Z</time>
      </trkpt>
      <trkpt lat="43.40123" lon="-0.94868">
        <ele>81.42</ele>
        <time>2021-06-06T02:41:28Z</time>
      </trkpt>
      <trkpt lat="43.40139" lon="-0.94875">
        <ele>81.99</ele>
        <time>2021-06-06T02:41:33Z</time>
      </trkpt>
      <trkpt lat="43.40146" lon="-0.94887">
        <ele>81.77</ele>
        <time>2021-06-06T02:41:38Z</time>
      </trkpt>
      <trkpt lat="43.40148" lon="-0.94902">
        <ele>81.69</ele>
        <time>2021-06-06T02:41:44Z</time>
      </trkpt>
      <trkpt lat="43.40144" lon="-0.94916">
        <ele>81.82</ele>
        <time>2021-06-06T02:41:49Z</time>
      </trkpt>
      <trkpt lat="43.40151" lon="-0.94955">
        <ele>80.56</ele>
        <time>2021-06-06T02:41:55Z</time>
      </trkpt>
      <trkpt lat="43.40348" lon="-0.9532">
        <ele>81.51</ele>
        <time>2021-06-06T02:42:00Z</time>
      </trkpt>
      <trkpt lat="43.40377" lon="-0.95363">
        <ele>81.97</ele>
        <time>2021-06-06T02:42:05Z</time>
      </trkpt>
      <trkpt lat="43.40448" lon="-0.95437">
        <ele>82.56</ele>
        <time>2021-06-06T02:42:11Z</time>
      </trkpt>
      <trkpt lat="43.40503" lon="-0.95487">
        <ele>83.89</ele>
        <time>2021-06-06T02:42:16Z</time>
      </trkpt>
      <trkpt lat="43.4056" lon="-0.95534">
        <ele>82.08</ele>
        <time>2021-06-06T02:42:22Z</time>
      </trkpt>
      <trkpt lat="43.40675" lon="-0.95617">
        <ele>82.78</ele>
        <time>2021-06-06T02:42:27Z</time>
      </trkpt>
      <trkpt lat="43.40726" lon="-0.95646">
        <ele>82.76</ele>
        <time>2021-06-06T02:42:32Z</time>
      </trkpt>
      <trkpt lat="43.40804" lon="-0.95668">
        <ele>82.8</ele>
        <time>2021-06-06T02:42:38Z</time>
      </trkpt>
      <trkpt lat="43.40836" lon="-0.9569">
        <ele>82.33</ele>
        <time>2021-06-06T02:42:43Z</time>
      </trkpt>
      <trkpt lat="43.40895" lon="-0.95749">
        <ele>80.04</ele>
        <time>2021-06-06T02:42:49Z</time>
      </trkpt>
      <trkpt lat="43.41082" lon="-0.95867">
        <ele>78</ele>
        <time>2021-06-06T02:42:54Z</time>
      </trkpt>
      <trkpt lat="43.41129" lon="-0.95891">
        <ele>76.27</ele>
        <time>2021-06-06T02:42:59Z</time>
      </trkpt>
      <trkpt lat="43.41186" lon="-0.95916">
        <ele>74.32</ele>
        <time>2021-06-06T02:43:05Z</time>
      </trkpt>
      <trkpt lat="43.41197" lon="-0.95924">
        <ele>74.16</ele>
        <time>2021-06-06T02:43:10Z</time>
      </trkpt>
      <trkpt lat="43.41239" lon="-0.95961">
        <ele>74.59</ele>
        <time>2021-06-06T02:43:16Z</time>
      </trkpt>
      <trkpt lat="43.41256" lon="-0.95976">
        <ele>75.11</ele>
        <time>2021-06-06T02:43:20Z</time>
      </trkpt>
      <trkpt lat="43.41465" lon="-0.96181">
        <ele>91.88</ele>
        <time>2021-06-06T02:43:24Z</time>
      </trkpt>
      <trkpt lat="43.4168" lon="-0.96337">
        <ele>86.93</ele>
        <time>2021-06-06T02:43:28Z</time>
      </trkpt>
      <trkpt lat="43.4172" lon="-0.96357">
        <ele>87.04</ele>
        <time>2021-06-06T02:43:32Z</time>
      </trkpt>
      <trkpt lat="43.41755" lon="-0.96366">
        <ele>88.97</ele>
        <time>2021-06-06T02:43:36Z</time>
      </trkpt>
      <trkpt lat="43.41775" lon="-0.96379">
        <ele>88.65</ele>
        <time>2021-06-06T02:43:40Z</time>
      </trkpt>
      <trkpt lat="43.41823" lon="-0.96416">
        <ele>85.07</ele>
        <time>2021-06-06T02:43:44Z</time>
      </trkpt>
      <trkpt lat="43.4187" lon="-0.96458">
        <ele>86</ele>
        <time>2021-06-06T02:43:48Z</time>
      </trkpt>
      <trkpt lat="43.41894" lon="-0.96485">
        <ele>85.98</ele>
        <time>2021-06-06T02:43:52Z</time>
      </trkpt>
      <trkpt lat="43.41916" lon="-0.96521">
        <ele>87.7</ele>
        <time>2021-06-06T02:43:56Z</time>
      </trkpt>
      <trkpt lat="43.41993" lon="-0.96657">
        <ele>88.74</ele>
        <time>2021-06-06T02:44:00Z</time>
      </trkpt>
      <trkpt lat="43.42054" lon="-0.96783">
        <ele>91.81</ele>
        <time>2021-06-06T02:44:04Z</time>
      </trkpt>
      <trkpt lat="43.42115" lon="-0.96931">
        <ele>85.43</ele>
        <time>2021-06-06T02:44:08Z</time>
      </trkpt>
      <trkpt lat="43.42123" lon="-0.96962">
        <ele>86.19</ele>
        <time>2021-06-06T02:44:12Z</time>
      </trkpt>
      <trkpt lat="43.42127" lon="-0.97058">
        <ele>86.81</ele>
        <time>2021-06-06T02:44:16Z</time>
      </trkpt>
      <trkpt lat="43.42135" lon="-0.97085">
        <ele>83.75</ele>
        <time>2021-06-06T02:44:20Z</time>
      </trkpt>
      <trkpt lat="43.42174" lon="-0.97155">
        <ele>80.71</ele>
        <time>2021-06-06T02:44:24Z</time>
      </trkpt>
      <trkpt lat="43.42196" lon="-0.97181">
        <ele>78.02</ele>
        <time>2021-06-06T02:44:28Z</time>
      </trkpt>
      <trkpt lat="43.4222" lon="-0.972">
        <ele>76.53</ele>
        <time>2021-06-06T02:44:32Z</time>
      </trkpt>
      <trkpt lat="43.4224" lon="-0.97207">
        <ele>74.83</ele>
        <time>2021-06-06T02:44:36Z</time>
      </trkpt>
      <trkpt lat="43.42292" lon="-0.972">
        <ele>72.22</ele>
        <time>2021-06-06T02:44:40Z</time>
      </trkpt>
      <trkpt lat="43.42317" lon="-0.97209">
        <ele>69.78</ele>
        <time>2021-06-06T02:44:44Z</time>
      </trkpt>
      <trkpt lat="43.42348" lon="-0.97226">
        <ele>68.05</ele>
        <time>2021-06-06T02:44:48Z</time>
      </trkpt>
      <trkpt lat="43.4236" lon="-0.97236">
        <ele>66.51</ele>
        <time>2021-06-06T02:44:52Z</time>
      </trkpt>
      <trkpt lat="43.42369" lon="-0.97254">
        <ele>63.76</ele>
        <time>2021-06-06T02:44:56Z</time>
      </trkpt>
      <trkpt lat="43.42392" lon="-0.97366">
        <ele>55.54</ele>
        <time>2021-06-06T02:45:01Z</time>
      </trkpt>
      <trkpt lat="43.42396" lon="-0.97448">
        <ele>53.56</ele>
        <time>2021-06-06T02:45:05Z</time>
      </trkpt>
      <trkpt lat="43.42409" lon="-0.97465">
        <ele>54.11</ele>
        <time>2021-06-06T02:45:09Z</time>
      </trkpt>
      <trkpt lat="43.42428" lon="-0.97475">
        <ele>53.64</ele>
        <time>2021-06-06T02:45:13Z</time>
      </trkpt>
      <trkpt lat="43.42525" lon="-0.97549">
        <ele>52.9</ele>
        <time>2021-06-06T02:45:17Z</time>
      </trkpt>
      <trkpt lat="43.42635" lon="-0.9758">
        <ele>54.72</ele>
        <time>2021-06-06T02:45:21Z</time>
      </trkpt>
      <trkpt lat="43.42654" lon="-0.97588">
        <ele>55.55</ele>
        <time>2021-06-06T02:45:25Z</time>
      </trkpt>
      <trkpt lat="43.42681" lon="-0.97613">
        <ele>54.97</ele>
        <time>2021-06-06T02:45:29Z</time>
      </trkpt>
      <trkpt lat="43.42783" lon="-0.97734">
        <ele>52.43</ele>
        <time>2021-06-06T02:45:33Z</time>
      </trkpt>
      <trkpt lat="43.42828" lon="-0.97773">
        <ele>53.96</ele>
        <time>2021-06-06T02:45:37Z</time>
      </trkpt>
      <trkpt lat="43.42892" lon="-0.97855">
        <ele>49.12</ele>
        <time>2021-06-06T02:45:41Z</time>
      </trkpt>
      <trkpt lat="43.42926" lon="-0.9788">
        <ele>49.33</ele>
        <time>2021-06-06T02:45:45Z</time>
      </trkpt>
      <trkpt lat="43.42976" lon="-0.97893">
        <ele>50.26</ele>
        <time>2021-06-06T02:45:49Z</time>
      </trkpt>
      <trkpt lat="43.4301" lon="-0.97921">
        <ele>52.34</ele>
        <time>2021-06-06T02:45:53Z</time>
      </trkpt>
      <trkpt lat="43.43045" lon="-0.97962">
        <ele>52.76</ele>
        <time>2021-06-06T02:45:57Z</time>
      </trkpt>
      <trkpt lat="43.43101" lon="-0.98055">
        <ele>50.99</ele>
        <time>2021-06-06T02:46:01Z</time>
      </trkpt>
      <trkpt lat="43.43144" lon="-0.98114">
        <ele>49.55</ele>
        <time>2021-06-06T02:46:05Z</time>
      </trkpt>
      <trkpt lat="43.43181" lon="-0.98202">
        <ele>48.64</ele>
        <time>2021-06-06T02:46:09Z</time>
      </trkpt>
      <trkpt lat="43.43217" lon="-0.98269">
        <ele>50.12</ele>
        <time>2021-06-06T02:46:13Z</time>
      </trkpt>
      <trkpt lat="43.43312" lon="-0.98385">
        <ele>50.25</ele>
        <time>2021-06-06T02:46:17Z</time>
      </trkpt>
      <trkpt lat="43.43388" lon="-0.98473">
        <ele>49</ele>
        <time>2021-06-06T02:46:21Z</time>
      </trkpt>
      <trkpt lat="43.434" lon="-0.9848">
        <ele>49.28</ele>
        <time>2021-06-06T02:46:25Z</time>
      </trkpt>
      <trkpt lat="43.43504" lon="-0.98509">
        <ele>52.11</ele>
        <time>2021-06-06T02:46:29Z</time>
      </trkpt>
      <trkpt lat="43.43589" lon="-0.98557">
        <ele>48.84</ele>
        <time>2021-06-06T02:46:33Z</time>
      </trkpt>
      <trkpt lat="43.43708" lon="-0.98602">
        <ele>47.69</ele>
        <time>2021-06-06T02:46:37Z</time>
      </trkpt>
      <trkpt lat="43.43774" lon="-0.98646">
        <ele>46.26</ele>
        <time>2021-06-06T02:46:41Z</time>
      </trkpt>
      <trkpt lat="43.43809" lon="-0.98676">
        <ele>45.1</ele>
        <time>2021-06-06T02:46:45Z</time>
      </trkpt>
      <trkpt lat="43.43824" lon="-0.98694">
        <ele>44.65</ele>
        <time>2021-06-06T02:46:49Z</time>
      </trkpt>
      <trkpt lat="43.43843" lon="-0.98724">
        <ele>44.02</ele>
        <time>2021-06-06T02:46:53Z</time>
      </trkpt>
      <trkpt lat="43.43848" lon="-0.98727">
        <ele>43.55</ele>
        <time>2021-06-06T02:46:58Z</time>
      </trkpt>
      <trkpt lat="43.43858" lon="-0.98727">
        <ele>42.65</ele>
        <time>2021-06-06T02:47:02Z</time>
      </trkpt>
      <trkpt lat="43.43884" lon="-0.98716">
        <ele>41.82</ele>
        <time>2021-06-06T02:47:06Z</time>
      </trkpt>
      <trkpt lat="43.43903" lon="-0.98705">
        <ele>42.21</ele>
        <time>2021-06-06T02:47:10Z</time>
      </trkpt>
      <trkpt lat="43.43948" lon="-0.98664">
        <ele>45.34</ele>
        <time>2021-06-06T02:47:14Z</time>
      </trkpt>
      <trkpt lat="43.43959" lon="-0.98659">
        <ele>46.17</ele>
        <time>2021-06-06T02:47:18Z</time>
      </trkpt>
      <trkpt lat="43.43986" lon="-0.98667">
        <ele>47</ele>
        <time>2021-06-06T02:47:22Z</time>
      </trkpt>
      <trkpt lat="43.44011" lon="-0.98671">
        <ele>46.81</ele>
        <time>2021-06-06T02:47:26Z</time>
      </trkpt>
      <trkpt lat="43.44032" lon="-0.98671">
        <ele>46.16</ele>
        <time>2021-06-06T02:47:30Z</time>
      </trkpt>
      <trkpt lat="43.44061" lon="-0.9866">
        <ele>44.96</ele>
        <time>2021-06-06T02:47:34Z</time>
      </trkpt>
      <trkpt lat="43.44068" lon="-0.98654">
        <ele>45</ele>
        <time>2021-06-06T02:47:38Z</time>
      </trkpt>
      <trkpt lat="43.44107" lon="-0.98601">
        <ele>44.31</ele>
        <time>2021-06-06T02:47:42Z</time>
      </trkpt>
      <trkpt lat="43.44185" lon="-0.98516">
        <ele>44.18</ele>
        <time>2021-06-06T02:47:46Z</time>
      </trkpt>
      <trkpt lat="43.44201" lon="-0.98492">
        <ele>45.64</ele>
        <time>2021-06-06T02:47:50Z</time>
      </trkpt>
      <trkpt lat="43.44211" lon="-0.98473">
        <ele>46.22</ele>
        <time>2021-06-06T02:47:54Z</time>
      </trkpt>
      <trkpt lat="43.44222" lon="-0.98444">
        <ele>47.98</ele>
        <time>2021-06-06T02:47:58Z</time>
      </trkpt>
      <trkpt lat="43.4425" lon="-0.98406">
        <ele>47</ele>
        <time>2021-06-06T02:48:02Z</time>
      </trkpt>
      <trkpt lat="43.44301" lon="-0.98368">
        <ele>46.81</ele>
        <time>2021-06-06T02:48:06Z</time>
      </trkpt>
      <trkpt lat="43.44337" lon="-0.98356">
        <ele>48.31</ele>
        <time>2021-06-06T02:48:10Z</time>
      </trkpt>
      <trkpt lat="43.44372" lon="-0.98347">
        <ele>49.2</ele>
        <time>2021-06-06T02:48:14Z</time>
      </trkpt>
      <trkpt lat="43.44397" lon="-0.98353">
        <ele>49.87</ele>
        <time>2021-06-06T02:48:18Z</time>
      </trkpt>
      <trkpt lat="43.44436" lon="-0.98376">
        <ele>49.46</ele>
        <time>2021-06-06T02:48:22Z</time>
      </trkpt>
      <trkpt lat="43.4446" lon="-0.98385">
        <ele>49.06</ele>
        <time>2021-06-06T02:48:26Z</time>
      </trkpt>
      <trkpt lat="43.44532" lon="-0.98375">
        <ele>52.15</ele>
        <time>2021-06-06T02:48:30Z</time>
      </trkpt>
      <trkpt lat="43.44558" lon="-0.98366">
        <ele>56.39</ele>
        <time>2021-06-06T02:48:34Z</time>
      </trkpt>
      <trkpt lat="43.44576" lon="-0.98353">
        <ele>61.1</ele>
        <time>2021-06-06T02:48:38Z</time>
      </trkpt>
      <trkpt lat="43.44596" lon="-0.98328">
        <ele>66.51</ele>
        <time>2021-06-06T02:48:42Z</time>
      </trkpt>
      <trkpt lat="43.44604" lon="-0.98295">
        <ele>66.84</ele>
        <time>2021-06-06T02:48:46Z</time>
      </trkpt>
      <trkpt lat="43.44605" lon="-0.98254">
        <ele>68.2</ele>
        <time>2021-06-06T02:48:50Z</time>
      </trkpt>
      <trkpt lat="43.44575" lon="-0.98105">
        <ele>68.19</ele>
        <time>2021-06-06T02:48:55Z</time>
      </trkpt>
      <trkpt lat="43.44576" lon="-0.98067">
        <ele>70.95</ele>
        <time>2021-06-06T02:48:59Z</time>
      </trkpt>
      <trkpt lat="43.4462" lon="-0.97967">
        <ele>77.54</ele>
        <time>2021-06-06T02:49:03Z</time>
      </trkpt>
      <trkpt lat="43.44641" lon="-0.97935">
        <ele>81.55</ele>
        <time>2021-06-06T02:49:07Z</time>
      </trkpt>
      <trkpt lat="43.44699" lon="-0.97892">
        <ele>91</ele>
        <time>2021-06-06T02:49:11Z</time>
      </trkpt>
      <trkpt lat="43.44764" lon="-0.97828">
        <ele>97.53</ele>
        <time>2021-06-06T02:49:15Z</time>
      </trkpt>
      <trkpt lat="43.44775" lon="-0.97801">
        <ele>98.68</ele>
        <time>2021-06-06T02:49:19Z</time>
      </trkpt>
      <trkpt lat="43.44771" lon="-0.97787">
        <ele>98.23</ele>
        <time>2021-06-06T02:49:23Z</time>
      </trkpt>
      <trkpt lat="43.4476" lon="-0.97773">
        <ele>97.19</ele>
        <time>2021-06-06T02:49:27Z</time>
      </trkpt>
      <trkpt lat="43.44718" lon="-0.97771">
        <ele>93.68</ele>
        <time>2021-06-06T02:49:31Z</time>
      </trkpt>
      <trkpt lat="43.44705" lon="-0.9776">
        <ele>92.12</ele>
        <time>2021-06-06T02:49:35Z</time>
      </trkpt>
      <trkpt lat="43.44697" lon="-0.97747">
        <ele>91.61</ele>
        <time>2021-06-06T02:49:39Z</time>
      </trkpt>
      <trkpt lat="43.44692" lon="-0.97731">
        <ele>92.18</ele>
        <time>2021-06-06T02:49:43Z</time>
      </trkpt>
      <trkpt lat="43.44692" lon="-0.97712">
        <ele>93.49</ele>
        <time>2021-06-06T02:49:47Z</time>
      </trkpt>
      <trkpt lat="43.447" lon="-0.97689">
        <ele>95.7</ele>
        <time>2021-06-06T02:49:51Z</time>
      </trkpt>
      <trkpt lat="43.44729" lon="-0.97658">
        <ele>98.92</ele>
        <time>2021-06-06T02:49:55Z</time>
      </trkpt>
      <trkpt lat="43.44759" lon="-0.97647">
        <ele>102.12</ele>
        <time>2021-06-06T02:49:59Z</time>
      </trkpt>
      <trkpt lat="43.44776" lon="-0.97648">
        <ele>103.8</ele>
        <time>2021-06-06T02:50:03Z</time>
      </trkpt>
      <trkpt lat="43.44792" lon="-0.97661">
        <ele>104.99</ele>
        <time>2021-06-06T02:50:07Z</time>
      </trkpt>
      <trkpt lat="43.44827" lon="-0.97719">
        <ele>106.38</ele>
        <time>2021-06-06T02:50:11Z</time>
      </trkpt>
      <trkpt lat="43.44841" lon="-0.9773">
        <ele>107.02</ele>
        <time>2021-06-06T02:50:15Z</time>
      </trkpt>
      <trkpt lat="43.44858" lon="-0.97735">
        <ele>107.88</ele>
        <time>2021-06-06T02:50:19Z</time>
      </trkpt>
      <trkpt lat="43.44919" lon="-0.97736">
        <ele>112.31</ele>
        <time>2021-06-06T02:50:23Z</time>
      </trkpt>
      <trkpt lat="43.44938" lon="-0.97748">
        <ele>111.2</ele>
        <time>2021-06-06T02:50:27Z</time>
      </trkpt>
      <trkpt lat="43.44984" lon="-0.97827">
        <ele>113.44</ele>
        <time>2021-06-06T02:50:31Z</time>
      </trkpt>
      <trkpt lat="43.44994" lon="-0.97838">
        <ele>113.07</ele>
        <time>2021-06-06T02:50:35Z</time>
      </trkpt>
      <trkpt lat="43.45018" lon="-0.9785">
        <ele>112.48</ele>
        <time>2021-06-06T02:50:39Z</time>
      </trkpt>
      <trkpt lat="43.45058" lon="-0.9785">
        <ele>108.1</ele>
        <time>2021-06-06T02:50:43Z</time>
      </trkpt>
      <trkpt lat="43.45073" lon="-0.97843">
        <ele>105.91</ele>
        <time>2021-06-06T02:50:48Z</time>
      </trkpt>
      <trkpt lat="43.45104" lon="-0.97778">
        <ele>98.51</ele>
        <time>2021-06-06T02:50:52Z</time>
      </trkpt>
      <trkpt lat="43.45119" lon="-0.97755">
        <ele>95.26</ele>
        <time>2021-06-06T02:50:56Z</time>
      </trkpt>
      <trkpt lat="43.45148" lon="-0.97745">
        <ele>92.45</ele>
        <time>2021-06-06T02:51:00Z</time>
      </trkpt>
      <trkpt lat="43.45228" lon="-0.97732">
        <ele>81.18</ele>
        <time>2021-06-06T02:51:04Z</time>
      </trkpt>
      <trkpt lat="43.4527" lon="-0.97739">
        <ele>76.4</ele>
        <time>2021-06-06T02:51:08Z</time>
      </trkpt>
      <trkpt lat="43.45309" lon="-0.97788">
        <ele>70.57</ele>
        <time>2021-06-06T02:51:12Z</time>
      </trkpt>
      <trkpt lat="43.45373" lon="-0.9785">
        <ele>61.07</ele>
        <time>2021-06-06T02:51:16Z</time>
      </trkpt>
      <trkpt lat="43.45413" lon="-0.97901">
        <ele>54.99</ele>
        <time>2021-06-06T02:51:20Z</time>
      </trkpt>
      <trkpt lat="43.45498" lon="-0.98092">
        <ele>51.67</ele>
        <time>2021-06-06T02:51:24Z</time>
      </trkpt>
      <trkpt lat="43.45522" lon="-0.98174">
        <ele>53.8</ele>
        <time>2021-06-06T02:51:28Z</time>
      </trkpt>
      <trkpt lat="43.45528" lon="-0.98179">
        <ele>53.58</ele>
        <time>2021-06-06T02:51:32Z</time>
      </trkpt>
      <trkpt lat="43.45533" lon="-0.98179">
        <ele>53.07</ele>
        <time>2021-06-06T02:51:36Z</time>
      </trkpt>
      <trkpt lat="43.45676" lon="-0.98136">
        <ele>49.73</ele>
        <time>2021-06-06T02:51:40Z</time>
      </trkpt>
      <trkpt lat="43.45755" lon="-0.98103">
        <ele>48.53</ele>
        <time>2021-06-06T02:51:44Z</time>
      </trkpt>
      <trkpt lat="43.45788" lon="-0.98067">
        <ele>47.42</ele>
        <time>2021-06-06T02:51:48Z</time>
      </trkpt>
      <trkpt lat="43.45836" lon="-0.9799">
        <ele>39.29</ele>
        <time>2021-06-06T02:51:52Z</time>
      </trkpt>
      <trkpt lat="43.45866" lon="-0.97972">
        <ele>31.1</ele>
        <time>2021-06-06T02:51:56Z</time>
      </trkpt>
      <trkpt lat="43.45924" lon="-0.97962">
        <ele>26.83</ele>
        <time>2021-06-06T02:52:00Z</time>
      </trkpt>
      <trkpt lat="43.45943" lon="-0.97949">
        <ele>28.42</ele>
        <time>2021-06-06T02:52:04Z</time>
      </trkpt>
      <trkpt lat="43.45965" lon="-0.97921">
        <ele>30.6</ele>
        <time>2021-06-06T02:52:08Z</time>
      </trkpt>
      <trkpt lat="43.45983" lon="-0.97891">
        <ele>33.73</ele>
        <time>2021-06-06T02:52:12Z</time>
      </trkpt>
      <trkpt lat="43.46002" lon="-0.9785">
        <ele>37.97</ele>
        <time>2021-06-06T02:52:16Z</time>
      </trkpt>
      <trkpt lat="43.46015" lon="-0.97825">
        <ele>37.84</ele>
        <time>2021-06-06T02:52:20Z</time>
      </trkpt>
      <trkpt lat="43.46033" lon="-0.97807">
        <ele>36.99</ele>
        <time>2021-06-06T02:52:24Z</time>
      </trkpt>
      <trkpt lat="43.46069" lon="-0.97785">
        <ele>37.5</ele>
        <time>2021-06-06T02:52:28Z</time>
      </trkpt>
      <trkpt lat="43.46113" lon="-0.97767">
        <ele>40.82</ele>
        <time>2021-06-06T02:52:32Z</time>
      </trkpt>
      <trkpt lat="43.46134" lon="-0.97768">
        <ele>40.94</ele>
        <time>2021-06-06T02:52:36Z</time>
      </trkpt>
      <trkpt lat="43.46205" lon="-0.97798">
        <ele>40.38</ele>
        <time>2021-06-06T02:52:40Z</time>
      </trkpt>
      <trkpt lat="43.46231" lon="-0.97802">
        <ele>39.08</ele>
        <time>2021-06-06T02:52:45Z</time>
      </trkpt>
      <trkpt lat="43.46243" lon="-0.97808">
        <ele>39</ele>
        <time>2021-06-06T02:52:49Z</time>
      </trkpt>
      <trkpt lat="43.4626" lon="-0.97826">
        <ele>38.9</ele>
        <time>2021-06-06T02:52:53Z</time>
      </trkpt>
      <trkpt lat="43.46276" lon="-0.97838">
        <ele>39.15</ele>
        <time>2021-06-06T02:52:57Z</time>
      </trkpt>
      <trkpt lat="43.46392" lon="-0.97898">
        <ele>36.92</ele>
        <time>2021-06-06T02:53:01Z</time>
      </trkpt>
      <trkpt lat="43.46507" lon="-0.97923">
        <ele>38.06</ele>
        <time>2021-06-06T02:53:05Z</time>
      </trkpt>
      <trkpt lat="43.4663" lon="-0.98007">
        <ele>40.67</ele>
        <time>2021-06-06T02:53:09Z</time>
      </trkpt>
      <trkpt lat="43.46778" lon="-0.98091">
        <ele>48.27</ele>
        <time>2021-06-06T02:53:13Z</time>
      </trkpt>
      <trkpt lat="43.4686" lon="-0.98156">
        <ele>52.16</ele>
        <time>2021-06-06T02:53:17Z</time>
      </trkpt>
      <trkpt lat="43.46968" lon="-0.98259">
        <ele>56</ele>
        <time>2021-06-06T02:53:21Z</time>
      </trkpt>
      <trkpt lat="43.47023" lon="-0.98297">
        <ele>58.81</ele>
        <time>2021-06-06T02:53:25Z</time>
      </trkpt>
      <trkpt lat="43.47084" lon="-0.98328">
        <ele>61.77</ele>
        <time>2021-06-06T02:53:29Z</time>
      </trkpt>
      <trkpt lat="43.4715" lon="-0.98369">
        <ele>59.83</ele>
        <time>2021-06-06T02:53:33Z</time>
      </trkpt>
      <trkpt lat="43.47158" lon="-0.98381">
        <ele>59.78</ele>
        <time>2021-06-06T02:53:37Z</time>
      </trkpt>
      <trkpt lat="43.47177" lon="-0.98416">
        <ele>60.36</ele>
        <time>2021-06-06T02:53:41Z</time>
      </trkpt>
      <trkpt lat="43.47202" lon="-0.9845">
        <ele>60.78</ele>
        <time>2021-06-06T02:53:45Z</time>
      </trkpt>
      <trkpt lat="43.47266" lon="-0.98522">
        <ele>57.28</ele>
        <time>2021-06-06T02:53:49Z</time>
      </trkpt>
      <trkpt lat="43.4728" lon="-0.98526">
        <ele>57.26</ele>
        <time>2021-06-06T02:53:53Z</time>
      </trkpt>
      <trkpt lat="43.47296" lon="-0.98594">
        <ele>56.95</ele>
        <time>2021-06-06T02:53:59Z</time>
      </trkpt>
      <trkpt lat="43.47549" lon="-0.9911">
        <ele>39.78</ele>
        <time>2021-06-06T02:54:05Z</time>
      </trkpt>
      <trkpt lat="43.47555" lon="-0.99128">
        <ele>38.72</ele>
        <time>2021-06-06T02:54:11Z</time>
      </trkpt>
      <trkpt lat="43.47667" lon="-0.99339">
        <ele>33.62</ele>
        <time>2021-06-06T02:54:17Z</time>
      </trkpt>
      <trkpt lat="43.4769" lon="-0.99369">
        <ele>35.05</ele>
        <time>2021-06-06T02:54:23Z</time>
      </trkpt>
      <trkpt lat="43.47748" lon="-0.99409">
        <ele>36.86</ele>
        <time>2021-06-06T02:54:29Z</time>
      </trkpt>
      <trkpt lat="43.47799" lon="-0.9949">
        <ele>35.71</ele>
        <time>2021-06-06T02:54:35Z</time>
      </trkpt>
      <trkpt lat="43.47813" lon="-0.99517">
        <ele>36.34</ele>
        <time>2021-06-06T02:54:41Z</time>
      </trkpt>
      <trkpt lat="43.47808" lon="-0.99537">
        <ele>36.92</ele>
        <time>2021-06-06T02:54:45Z</time>
      </trkpt>
      <trkpt lat="43.47805" lon="-0.99563">
        <ele>37</ele>
        <time>2021-06-06T02:54:49Z</time>
      </trkpt>
      <trkpt lat="43.47806" lon="-0.99608">
        <ele>36.95</ele>
        <time>2021-06-06T02:54:53Z</time>
      </trkpt>
      <trkpt lat="43.47802" lon="-0.99667">
        <ele>37.88</ele>
        <time>2021-06-06T02:54:57Z</time>
      </trkpt>
      <trkpt lat="43.47802" lon="-0.99743">
        <ele>39.47</ele>
        <time>2021-06-06T02:55:01Z</time>
      </trkpt>
      <trkpt lat="43.4778" lon="-0.99854">
        <ele>35.01</ele>
        <time>2021-06-06T02:55:06Z</time>
      </trkpt>
      <trkpt lat="43.47777" lon="-0.99863">
        <ele>35</ele>
        <time>2021-06-06T02:55:10Z</time>
      </trkpt>
      <trkpt lat="43.4777" lon="-0.99876">
        <ele>35.15</ele>
        <time>2021-06-06T02:55:14Z</time>
      </trkpt>
      <trkpt lat="43.4775" lon="-0.99888">
        <ele>35.98</ele>
        <time>2021-06-06T02:55:18Z</time>
      </trkpt>
      <trkpt lat="43.47744" lon="-0.99896">
        <ele>35.83</ele>
        <time>2021-06-06T02:55:22Z</time>
      </trkpt>
      <trkpt lat="43.47738" lon="-0.99926">
        <ele>35.81</ele>
        <time>2021-06-06T02:55:26Z</time>
      </trkpt>
      <trkpt lat="43.47738" lon="-1.00015">
        <ele>30.61</ele>
        <time>2021-06-06T02:55:30Z</time>
      </trkpt>
      <trkpt lat="43.47736" lon="-1.00041">
        <ele>29.25</ele>
        <time>2021-06-06T02:55:35Z</time>
      </trkpt>
      <trkpt lat="43.47733" lon="-1.00053">
        <ele>28.76</ele>
        <time>2021-06-06T02:55:39Z</time>
      </trkpt>
      <trkpt lat="43.47729" lon="-1.00058">
        <ele>28.7</ele>
        <time>2021-06-06T02:55:43Z</time>
      </trkpt>
      <trkpt lat="43.47719" lon="-1.00063">
        <ele>28.6</ele>
        <time>2021-06-06T02:55:47Z</time>
      </trkpt>
      <trkpt lat="43.4771" lon="-1.00065">
        <ele>28.06</ele>
        <time>2021-06-06T02:55:51Z</time>
      </trkpt>
      <trkpt lat="43.47686" lon="-1.00062">
        <ele>26.95</ele>
        <time>2021-06-06T02:55:55Z</time>
      </trkpt>
      <trkpt lat="43.4765" lon="-1.0005">
        <ele>25.04</ele>
        <time>2021-06-06T02:55:59Z</time>
      </trkpt>
      <trkpt lat="43.47629" lon="-1.00048">
        <ele>23.3</ele>
        <time>2021-06-06T02:56:03Z</time>
      </trkpt>
      <trkpt lat="43.47594" lon="-1.0005">
        <ele>21.25</ele>
        <time>2021-06-06T02:56:08Z</time>
      </trkpt>
      <trkpt lat="43.47509" lon="-1.00061">
        <ele>19.41</ele>
        <time>2021-06-06T02:56:12Z</time>
      </trkpt>
      <trkpt lat="43.47292" lon="-1.00065">
        <ele>21.35</ele>
        <time>2021-06-06T02:56:16Z</time>
      </trkpt>
      <trkpt lat="43.47195" lon="-1.00075">
        <ele>18.32</ele>
        <time>2021-06-06T02:56:20Z</time>
      </trkpt>
      <trkpt lat="43.46986" lon="-1.0011">
        <ele>21.97</ele>
        <time>2021-06-06T02:56:24Z</time>
      </trkpt>
      <trkpt lat="43.4695" lon="-1.00118">
        <ele>25.35</ele>
        <time>2021-06-06T02:56:28Z</time>
      </trkpt>
      <trkpt lat="43.46931" lon="-1.0013">
        <ele>26.48</ele>
        <time>2021-06-06T02:56:32Z</time>
      </trkpt>
      <trkpt lat="43.46913" lon="-1.00151">
        <ele>28.03</ele>
        <time>2021-06-06T02:56:36Z</time>
      </trkpt>
      <trkpt lat="43.46896" lon="-1.00165">
        <ele>28.97</ele>
        <time>2021-06-06T02:56:41Z</time>
      </trkpt>
      <trkpt lat="43.46754" lon="-1.0024">
        <ele>28.65</ele>
        <time>2021-06-06T02:56:45Z</time>
      </trkpt>
      <trkpt lat="43.46754" lon="-1.0025">
        <ele>29</ele>
        <time>2021-06-06T02:56:50Z</time>
      </trkpt>
      <trkpt lat="43.46748" lon="-1.00257">
        <ele>29.25</ele>
        <time>2021-06-06T02:56:55Z</time>
      </trkpt>
      <trkpt lat="43.46745" lon="-1.00257">
        <ele>29.31</ele>
        <time>2021-06-06T02:57:01Z</time>
      </trkpt>
      <trkpt lat="43.46747" lon="-1.00379">
        <ele>29.47</ele>
        <time>2021-06-06T02:57:06Z</time>
      </trkpt>
      <trkpt lat="43.46736" lon="-1.0049">
        <ele>33.15</ele>
        <time>2021-06-06T02:57:11Z</time>
      </trkpt>
      <trkpt lat="43.46732" lon="-1.00554">
        <ele>32.66</ele>
        <time>2021-06-06T02:57:16Z</time>
      </trkpt>
      <trkpt lat="43.46734" lon="-1.0061">
        <ele>31.59</ele>
        <time>2021-06-06T02:57:21Z</time>
      </trkpt>
      <trkpt lat="43.4674" lon="-1.00653">
        <ele>31.38</ele>
        <time>2021-06-06T02:57:27Z</time>
      </trkpt>
      <trkpt lat="43.46749" lon="-1.00692">
        <ele>31.91</ele>
        <time>2021-06-06T02:57:32Z</time>
      </trkpt>
      <trkpt lat="43.46776" lon="-1.00764">
        <ele>31.89</ele>
        <time>2021-06-06T02:57:37Z</time>
      </trkpt>
      <trkpt lat="43.46812" lon="-1.00839">
        <ele>31.77</ele>
        <time>2021-06-06T02:57:42Z</time>
      </trkpt>
      <trkpt lat="43.46864" lon="-1.00995">
        <ele>28.83</ele>
        <time>2021-06-06T02:57:48Z</time>
      </trkpt>
      <trkpt lat="43.46886" lon="-1.01071">
        <ele>29.33</ele>
        <time>2021-06-06T02:57:53Z</time>
      </trkpt>
      <trkpt lat="43.46905" lon="-1.01159">
        <ele>26.58</ele>
        <time>2021-06-06T02:57:58Z</time>
      </trkpt>
      <trkpt lat="43.46922" lon="-1.01268">
        <ele>28.34</ele>
        <time>2021-06-06T02:58:03Z</time>
      </trkpt>
      <trkpt lat="43.46944" lon="-1.01364">
        <ele>28.98</ele>
        <time>2021-06-06T02:58:09Z</time>
      </trkpt>
      <trkpt lat="43.46987" lon="-1.01502">
        <ele>26.34</ele>
        <time>2021-06-06T02:58:14Z</time>
      </trkpt>
      <trkpt lat="43.47016" lon="-1.01579">
        <ele>26.36</ele>
        <time>2021-06-06T02:58:19Z</time>
      </trkpt>
      <trkpt lat="43.47056" lon="-1.01676">
        <ele>25.97</ele>
        <time>2021-06-06T02:58:24Z</time>
      </trkpt>
      <trkpt lat="43.47142" lon="-1.0186">
        <ele>24.04</ele>
        <time>2021-06-06T02:58:30Z</time>
      </trkpt>
      <trkpt lat="43.47235" lon="-1.02001">
        <ele>24.86</ele>
        <time>2021-06-06T02:58:35Z</time>
      </trkpt>
      <trkpt lat="43.47266" lon="-1.02053">
        <ele>25.05</ele>
        <time>2021-06-06T02:58:40Z</time>
      </trkpt>
      <trkpt lat="43.47282" lon="-1.02096">
        <ele>25.83</ele>
        <time>2021-06-06T02:58:45Z</time>
      </trkpt>
      <trkpt lat="43.47297" lon="-1.0216">
        <ele>25.83</ele>
        <time>2021-06-06T02:58:51Z</time>
      </trkpt>
      <trkpt lat="43.47307" lon="-1.02235">
        <ele>26.92</ele>
        <time>2021-06-06T02:58:56Z</time>
      </trkpt>
      <trkpt lat="43.47306" lon="-1.02266">
        <ele>26.42</ele>
        <time>2021-06-06T02:59:01Z</time>
      </trkpt>
      <trkpt lat="43.4732" lon="-1.0228">
        <ele>25.43</ele>
        <time>2021-06-06T02:59:03Z</time>
      </trkpt>
      <trkpt lat="43.47307" lon="-1.02319">
        <ele>25</ele>
        <time>2021-06-06T02:59:08Z</time>
      </trkpt>
      <trkpt lat="43.47293" lon="-1.0235">
        <ele>24.42</ele>
        <time>2021-06-06T02:59:13Z</time>
      </trkpt>
      <trkpt lat="43.47283" lon="-1.02402">
        <ele>24.29</ele>
        <time>2021-06-06T02:59:18Z</time>
      </trkpt>
      <trkpt lat="43.47265" lon="-1.0246">
        <ele>25.77</ele>
        <time>2021-06-06T02:59:23Z</time>
      </trkpt>
      <trkpt lat="43.47243" lon="-1.02525">
        <ele>23.54</ele>
        <time>2021-06-06T02:59:28Z</time>
      </trkpt>
      <trkpt lat="43.47238" lon="-1.02551">
        <ele>23.5</ele>
        <time>2021-06-06T02:59:33Z</time>
      </trkpt>
      <trkpt lat="43.47235" lon="-1.028">
        <ele>24.62</ele>
        <time>2021-06-06T02:59:38Z</time>
      </trkpt>
      <trkpt lat="43.47237" lon="-1.02882">
        <ele>26.07</ele>
        <time>2021-06-06T02:59:43Z</time>
      </trkpt>
      <trkpt lat="43.47246" lon="-1.02944">
        <ele>29.69</ele>
        <time>2021-06-06T02:59:49Z</time>
      </trkpt>
      <trkpt lat="43.47249" lon="-1.03009">
        <ele>30.01</ele>
        <time>2021-06-06T02:59:54Z</time>
      </trkpt>
      <trkpt lat="43.47239" lon="-1.03058">
        <ele>30.45</ele>
        <time>2021-06-06T02:59:59Z</time>
      </trkpt>
      <trkpt lat="43.47223" lon="-1.03105">
        <ele>35.24</ele>
        <time>2021-06-06T03:00:04Z</time>
      </trkpt>
      <trkpt lat="43.47192" lon="-1.03166">
        <ele>38.08</ele>
        <time>2021-06-06T03:00:09Z</time>
      </trkpt>
      <trkpt lat="43.47135" lon="-1.03263">
        <ele>39.31</ele>
        <time>2021-06-06T03:00:14Z</time>
      </trkpt>
      <trkpt lat="43.47098" lon="-1.03316">
        <ele>40.37</ele>
        <time>2021-06-06T03:00:19Z</time>
      </trkpt>
      <trkpt lat="43.47087" lon="-1.03349">
        <ele>41.06</ele>
        <time>2021-06-06T03:00:24Z</time>
      </trkpt>
      <trkpt lat="43.47082" lon="-1.03387">
        <ele>41.88</ele>
        <time>2021-06-06T03:00:29Z</time>
      </trkpt>
      <trkpt lat="43.47042" lon="-1.03493">
        <ele>43</ele>
        <time>2021-06-06T03:00:34Z</time>
      </trkpt>
      <trkpt lat="43.46989" lon="-1.03621">
        <ele>45.74</ele>
        <time>2021-06-06T03:00:39Z</time>
      </trkpt>
      <trkpt lat="43.46933" lon="-1.03733">
        <ele>48.22</ele>
        <time>2021-06-06T03:00:44Z</time>
      </trkpt>
      <trkpt lat="43.46924" lon="-1.03778">
        <ele>52.22</ele>
        <time>2021-06-06T03:00:49Z</time>
      </trkpt>
      <trkpt lat="43.46908" lon="-1.03829">
        <ele>54</ele>
        <time>2021-06-06T03:00:55Z</time>
      </trkpt>
      <trkpt lat="43.46856" lon="-1.03933">
        <ele>56.19</ele>
        <time>2021-06-06T03:01:00Z</time>
      </trkpt>
      <trkpt lat="43.46859" lon="-1.03997">
        <ele>57.9</ele>
        <time>2021-06-06T03:01:05Z</time>
      </trkpt>
      <trkpt lat="43.4681" lon="-1.04053">
        <ele>60.83</ele>
        <time>2021-06-06T03:01:10Z</time>
      </trkpt>
      <trkpt lat="43.4675" lon="-1.04161">
        <ele>69.23</ele>
        <time>2021-06-06T03:01:15Z</time>
      </trkpt>
      <trkpt lat="43.4674" lon="-1.04195">
        <ele>69.37</ele>
        <time>2021-06-06T03:01:20Z</time>
      </trkpt>
      <trkpt lat="43.46764" lon="-1.04361">
        <ele>68.53</ele>
        <time>2021-06-06T03:01:25Z</time>
      </trkpt>
      <trkpt lat="43.46567" lon="-1.04482">
        <ele>75.94</ele>
        <time>2021-06-06T03:01:30Z</time>
      </trkpt>
      <trkpt lat="43.4683" lon="-1.0602">
        <ele>81.12</ele>
        <time>2021-06-06T03:01:34Z</time>
      </trkpt>
      <trkpt lat="43.46893" lon="-1.06382">
        <ele>63.21</ele>
        <time>2021-06-06T03:01:39Z</time>
      </trkpt>
      <trkpt lat="43.469" lon="-1.06447">
        <ele>61.4</ele>
        <time>2021-06-06T03:01:43Z</time>
      </trkpt>
      <trkpt lat="43.469" lon="-1.06516">
        <ele>62.72</ele>
        <time>2021-06-06T03:01:47Z</time>
      </trkpt>
      <trkpt lat="43.46881" lon="-1.07049">
        <ele>82.39</ele>
        <time>2021-06-06T03:01:51Z</time>
      </trkpt>
      <trkpt lat="43.46876" lon="-1.071">
        <ele>84.45</ele>
        <time>2021-06-06T03:01:56Z</time>
      </trkpt>
      <trkpt lat="43.46855" lon="-1.07227">
        <ele>89.81</ele>
        <time>2021-06-06T03:02:00Z</time>
      </trkpt>
      <trkpt lat="43.46854" lon="-1.07262">
        <ele>87.98</ele>
        <time>2021-06-06T03:02:04Z</time>
      </trkpt>
      <trkpt lat="43.46858" lon="-1.07291">
        <ele>86.53</ele>
        <time>2021-06-06T03:02:08Z</time>
      </trkpt>
      <trkpt lat="43.46876" lon="-1.07361">
        <ele>85.92</ele>
        <time>2021-06-06T03:02:13Z</time>
      </trkpt>
      <trkpt lat="43.469" lon="-1.07431">
        <ele>88.82</ele>
        <time>2021-06-06T03:02:17Z</time>
      </trkpt>
      <trkpt lat="43.46915" lon="-1.07468">
        <ele>91.71</ele>
        <time>2021-06-06T03:02:21Z</time>
      </trkpt>
      <trkpt lat="43.47163" lon="-1.07935">
        <ele>86.5</ele>
        <time>2021-06-06T03:02:25Z</time>
      </trkpt>
      <trkpt lat="43.47171" lon="-1.07961">
        <ele>85.44</ele>
        <time>2021-06-06T03:02:30Z</time>
      </trkpt>
      <trkpt lat="43.47172" lon="-1.07984">
        <ele>84.74</ele>
        <time>2021-06-06T03:02:34Z</time>
      </trkpt>
      <trkpt lat="43.47167" lon="-1.09051">
        <ele>65.17</ele>
        <time>2021-06-06T03:02:38Z</time>
      </trkpt>
      <trkpt lat="43.47168" lon="-1.09387">
        <ele>66.93</ele>
        <time>2021-06-06T03:02:43Z</time>
      </trkpt>
      <trkpt lat="43.47302" lon="-1.1022">
        <ele>66.79</ele>
        <time>2021-06-06T03:02:47Z</time>
      </trkpt>
      <trkpt lat="43.47305" lon="-1.10252">
        <ele>66.87</ele>
        <time>2021-06-06T03:02:51Z</time>
      </trkpt>
      <trkpt lat="43.47305" lon="-1.10276">
        <ele>65.13</ele>
        <time>2021-06-06T03:02:55Z</time>
      </trkpt>
      <trkpt lat="43.4729" lon="-1.10386">
        <ele>62.91</ele>
        <time>2021-06-06T03:03:00Z</time>
      </trkpt>
      <trkpt lat="43.47292" lon="-1.10441">
        <ele>62.59</ele>
        <time>2021-06-06T03:03:04Z</time>
      </trkpt>
      <trkpt lat="43.47329" lon="-1.10674">
        <ele>51.86</ele>
        <time>2021-06-06T03:03:08Z</time>
      </trkpt>
      <trkpt lat="43.47329" lon="-1.1071">
        <ele>47.9</ele>
        <time>2021-06-06T03:03:12Z</time>
      </trkpt>
      <trkpt lat="43.47321" lon="-1.10742">
        <ele>46.59</ele>
        <time>2021-06-06T03:03:17Z</time>
      </trkpt>
      <trkpt lat="43.47308" lon="-1.10771">
        <ele>46.98</ele>
        <time>2021-06-06T03:03:21Z</time>
      </trkpt>
      <trkpt lat="43.47288" lon="-1.10821">
        <ele>44.97</ele>
        <time>2021-06-06T03:03:25Z</time>
      </trkpt>
      <trkpt lat="43.47277" lon="-1.10874">
        <ele>39.37</ele>
        <time>2021-06-06T03:03:29Z</time>
      </trkpt>
      <trkpt lat="43.47263" lon="-1.10921">
        <ele>38</ele>
        <time>2021-06-06T03:03:34Z</time>
      </trkpt>
      <trkpt lat="43.47219" lon="-1.11036">
        <ele>33.43</ele>
        <time>2021-06-06T03:03:38Z</time>
      </trkpt>
      <trkpt lat="43.47217" lon="-1.11058">
        <ele>32.15</ele>
        <time>2021-06-06T03:03:42Z</time>
      </trkpt>
      <trkpt lat="43.47219" lon="-1.11076">
        <ele>30.95</ele>
        <time>2021-06-06T03:03:46Z</time>
      </trkpt>
      <trkpt lat="43.47227" lon="-1.111">
        <ele>27.84</ele>
        <time>2021-06-06T03:03:51Z</time>
      </trkpt>
      <trkpt lat="43.47238" lon="-1.11121">
        <ele>25.58</ele>
        <time>2021-06-06T03:03:55Z</time>
      </trkpt>
      <trkpt lat="43.47266" lon="-1.11149">
        <ele>24.22</ele>
        <time>2021-06-06T03:03:59Z</time>
      </trkpt>
      <trkpt lat="43.47337" lon="-1.11212">
        <ele>19.2</ele>
        <time>2021-06-06T03:04:03Z</time>
      </trkpt>
      <trkpt lat="43.47346" lon="-1.11228">
        <ele>17.07</ele>
        <time>2021-06-06T03:04:08Z</time>
      </trkpt>
      <trkpt lat="43.47349" lon="-1.11242">
        <ele>14.51</ele>
        <time>2021-06-06T03:04:12Z</time>
      </trkpt>
      <trkpt lat="43.47347" lon="-1.11255">
        <ele>11.73</ele>
        <time>2021-06-06T03:04:16Z</time>
      </trkpt>
      <trkpt lat="43.47334" lon="-1.11299">
        <ele>9.21</ele>
        <time>2021-06-06T03:04:20Z</time>
      </trkpt>
      <trkpt lat="43.47324" lon="-1.11325">
        <ele>8.35</ele>
        <time>2021-06-06T03:04:25Z</time>
      </trkpt>
      <trkpt lat="43.47317" lon="-1.1135">
        <ele>8.75</ele>
        <time>2021-06-06T03:04:29Z</time>
      </trkpt>
      <trkpt lat="43.47314" lon="-1.11368">
        <ele>9</ele>
        <time>2021-06-06T03:04:33Z</time>
      </trkpt>
      <trkpt lat="43.47313" lon="-1.11386">
        <ele>9</ele>
        <time>2021-06-06T03:04:38Z</time>
      </trkpt>
      <trkpt lat="43.47315" lon="-1.11408">
        <ele>7.86</ele>
        <time>2021-06-06T03:04:42Z</time>
      </trkpt>
      <trkpt lat="43.47319" lon="-1.11425">
        <ele>6.61</ele>
        <time>2021-06-06T03:04:46Z</time>
      </trkpt>
      <trkpt lat="43.47329" lon="-1.11455">
        <ele>5.15</ele>
        <time>2021-06-06T03:04:50Z</time>
      </trkpt>
      <trkpt lat="43.47343" lon="-1.11479">
        <ele>4.88</ele>
        <time>2021-06-06T03:04:55Z</time>
      </trkpt>
      <trkpt lat="43.4737" lon="-1.11511">
        <ele>4.73</ele>
        <time>2021-06-06T03:04:59Z</time>
      </trkpt>
      <trkpt lat="43.47672" lon="-1.11831">
        <ele>12.74</ele>
        <time>2021-06-06T03:05:03Z</time>
      </trkpt>
      <trkpt lat="43.47874" lon="-1.1211">
        <ele>8</ele>
        <time>2021-06-06T03:05:07Z</time>
      </trkpt>
      <trkpt lat="43.4791" lon="-1.1215">
        <ele>7.27</ele>
        <time>2021-06-06T03:05:12Z</time>
      </trkpt>
      <trkpt lat="43.47941" lon="-1.12172">
        <ele>6.67</ele>
        <time>2021-06-06T03:05:16Z</time>
      </trkpt>
      <trkpt lat="43.48001" lon="-1.12207">
        <ele>8.81</ele>
        <time>2021-06-06T03:05:20Z</time>
      </trkpt>
      <trkpt lat="43.4802" lon="-1.12236">
        <ele>7.72</ele>
        <time>2021-06-06T03:05:24Z</time>
      </trkpt>
      <trkpt lat="43.48117" lon="-1.12417">
        <ele>5.6</ele>
        <time>2021-06-06T03:05:29Z</time>
      </trkpt>
      <trkpt lat="43.48124" lon="-1.12439">
        <ele>5.05</ele>
        <time>2021-06-06T03:05:33Z</time>
      </trkpt>
      <trkpt lat="43.48128" lon="-1.12457">
        <ele>4.98</ele>
        <time>2021-06-06T03:05:37Z</time>
      </trkpt>
      <trkpt lat="43.4813" lon="-1.12479">
        <ele>4.84</ele>
        <time>2021-06-06T03:05:41Z</time>
      </trkpt>
      <trkpt lat="43.48129" lon="-1.12503">
        <ele>4.4</ele>
        <time>2021-06-06T03:05:46Z</time>
      </trkpt>
      <trkpt lat="43.48091" lon="-1.12785">
        <ele>5.26</ele>
        <time>2021-06-06T03:05:50Z</time>
      </trkpt>
      <trkpt lat="43.4809" lon="-1.12814">
        <ele>4.53</ele>
        <time>2021-06-06T03:05:54Z</time>
      </trkpt>
      <trkpt lat="43.48092" lon="-1.1284">
        <ele>4.41</ele>
        <time>2021-06-06T03:05:58Z</time>
      </trkpt>
      <trkpt lat="43.48097" lon="-1.12875">
        <ele>4.52</ele>
        <time>2021-06-06T03:06:03Z</time>
      </trkpt>
      <trkpt lat="43.48113" lon="-1.12927">
        <ele>4.37</ele>
        <time>2021-06-06T03:06:07Z</time>
      </trkpt>
      <trkpt lat="43.48132" lon="-1.1298">
        <ele>4.47</ele>
        <time>2021-06-06T03:06:11Z</time>
      </trkpt>
      <trkpt lat="43.4816" lon="-1.13048">
        <ele>4</ele>
        <time>2021-06-06T03:06:16Z</time>
      </trkpt>
      <trkpt lat="43.4818" lon="-1.13081">
        <ele>2.59</ele>
        <time>2021-06-06T03:06:20Z</time>
      </trkpt>
      <trkpt lat="43.4832" lon="-1.13269">
        <ele>8.22</ele>
        <time>2021-06-06T03:06:24Z</time>
      </trkpt>
      <trkpt lat="43.48333" lon="-1.13297">
        <ele>9.38</ele>
        <time>2021-06-06T03:06:28Z</time>
      </trkpt>
      <trkpt lat="43.48337" lon="-1.13312">
        <ele>10.2</ele>
        <time>2021-06-06T03:06:33Z</time>
      </trkpt>
      <trkpt lat="43.48353" lon="-1.13459">
        <ele>19.31</ele>
        <time>2021-06-06T03:06:37Z</time>
      </trkpt>
      <trkpt lat="43.48359" lon="-1.13475">
        <ele>20.3</ele>
        <time>2021-06-06T03:06:41Z</time>
      </trkpt>
      <trkpt lat="43.48388" lon="-1.13535">
        <ele>20.75</ele>
        <time>2021-06-06T03:06:45Z</time>
      </trkpt>
      <trkpt lat="43.48395" lon="-1.13555">
        <ele>20.91</ele>
        <time>2021-06-06T03:06:50Z</time>
      </trkpt>
      <trkpt lat="43.48409" lon="-1.13606">
        <ele>18.9</ele>
        <time>2021-06-06T03:06:54Z</time>
      </trkpt>
      <trkpt lat="43.48415" lon="-1.13637">
        <ele>19.94</ele>
        <time>2021-06-06T03:06:58Z</time>
      </trkpt>
      <trkpt lat="43.48423" lon="-1.13681">
        <ele>25.02</ele>
        <time>2021-06-06T03:07:02Z</time>
      </trkpt>
      <trkpt lat="43.48425" lon="-1.13706">
        <ele>26.92</ele>
        <time>2021-06-06T03:07:07Z</time>
      </trkpt>
      <trkpt lat="43.48425" lon="-1.13722">
        <ele>28.05</ele>
        <time>2021-06-06T03:07:11Z</time>
      </trkpt>
      <trkpt lat="43.48406" lon="-1.13873">
        <ele>31.55</ele>
        <time>2021-06-06T03:07:15Z</time>
      </trkpt>
      <trkpt lat="43.48413" lon="-1.13892">
        <ele>31.36</ele>
        <time>2021-06-06T03:07:19Z</time>
      </trkpt>
      <trkpt lat="43.48417" lon="-1.13896">
        <ele>31.23</ele>
        <time>2021-06-06T03:07:20Z</time>
      </trkpt>
      <trkpt lat="43.4842" lon="-1.13902">
        <ele>31.4</ele>
        <time>2021-06-06T03:07:21Z</time>
      </trkpt>
      <trkpt lat="43.48434" lon="-1.13909">
        <ele>31.26</ele>
        <time>2021-06-06T03:07:21Z</time>
      </trkpt>
      <trkpt lat="43.48419" lon="-1.13918">
        <ele>31.93</ele>
        <time>2021-06-06T03:07:22Z</time>
      </trkpt>
      <trkpt lat="43.48413" lon="-1.13923">
        <ele>32.34</ele>
        <time>2021-06-06T03:07:25Z</time>
      </trkpt>
      <trkpt lat="43.48394" lon="-1.13951">
        <ele>34.72</ele>
        <time>2021-06-06T03:07:28Z</time>
      </trkpt>
      <trkpt lat="43.48389" lon="-1.1397">
        <ele>35.96</ele>
        <time>2021-06-06T03:07:30Z</time>
      </trkpt>
      <trkpt lat="43.48379" lon="-1.1405">
        <ele>34.57</ele>
        <time>2021-06-06T03:07:33Z</time>
      </trkpt>
      <trkpt lat="43.48393" lon="-1.14052">
        <ele>33.86</ele>
        <time>2021-06-06T03:07:36Z</time>
      </trkpt>
      <trkpt lat="43.4839" lon="-1.14088">
        <ele>33.97</ele>
        <time>2021-06-06T03:07:44Z</time>
      </trkpt>
      <trkpt lat="43.4839" lon="-1.14088">
        <ele>33.97</ele>
        <time>2021-06-06T03:07:44Z</time>
      </trkpt>
      <trkpt lat="43.48388" lon="-1.14113">
        <ele>34.08</ele>
        <time>2021-06-06T03:07:48Z</time>
      </trkpt>
      <trkpt lat="43.48383" lon="-1.1412">
        <ele>34.28</ele>
        <time>2021-06-06T03:07:52Z</time>
      </trkpt>
      <trkpt lat="43.48373" lon="-1.14117">
        <ele>35.49</ele>
        <time>2021-06-06T03:07:53Z</time>
      </trkpt>
      <trkpt lat="43.48362" lon="-1.14166">
        <ele>34</ele>
        <time>2021-06-06T03:07:56Z</time>
      </trkpt>
      <trkpt lat="43.48359" lon="-1.14182">
        <ele>34.15</ele>
        <time>2021-06-06T03:07:59Z</time>
      </trkpt>
      <trkpt lat="43.48351" lon="-1.14282">
        <ele>34.87</ele>
        <time>2021-06-06T03:08:02Z</time>
      </trkpt>
      <trkpt lat="43.48341" lon="-1.1432">
        <ele>37.12</ele>
        <time>2021-06-06T03:08:05Z</time>
      </trkpt>
      <trkpt lat="43.48331" lon="-1.14341">
        <ele>39.35</ele>
        <time>2021-06-06T03:08:07Z</time>
      </trkpt>
      <trkpt lat="43.48309" lon="-1.14378">
        <ele>40.28</ele>
        <time>2021-06-06T03:08:10Z</time>
      </trkpt>
      <trkpt lat="43.48288" lon="-1.144">
        <ele>40.48</ele>
        <time>2021-06-06T03:08:13Z</time>
      </trkpt>
      <trkpt lat="43.48283" lon="-1.14408">
        <ele>40.68</ele>
        <time>2021-06-06T03:08:16Z</time>
      </trkpt>
      <trkpt lat="43.48279" lon="-1.1441">
        <ele>40.94</ele>
        <time>2021-06-06T03:08:18Z</time>
      </trkpt>
      <trkpt lat="43.48266" lon="-1.14428">
        <ele>41.41</ele>
        <time>2021-06-06T03:08:20Z</time>
      </trkpt>
      <trkpt lat="43.48254" lon="-1.14442">
        <ele>41.84</ele>
        <time>2021-06-06T03:08:22Z</time>
      </trkpt>
      <trkpt lat="43.48247" lon="-1.14471">
        <ele>43.14</ele>
        <time>2021-06-06T03:08:24Z</time>
      </trkpt>
      <trkpt lat="43.4825" lon="-1.14494">
        <ele>44.54</ele>
        <time>2021-06-06T03:08:26Z</time>
      </trkpt>
      <trkpt lat="43.48253" lon="-1.14504">
        <ele>45.27</ele>
        <time>2021-06-06T03:08:28Z</time>
      </trkpt>
      <trkpt lat="43.48279" lon="-1.14558">
        <ele>48.02</ele>
        <time>2021-06-06T03:08:30Z</time>
      </trkpt>
      <trkpt lat="43.48283" lon="-1.14575">
        <ele>48.31</ele>
        <time>2021-06-06T03:08:32Z</time>
      </trkpt>
      <trkpt lat="43.48285" lon="-1.1459">
        <ele>48.54</ele>
        <time>2021-06-06T03:08:34Z</time>
      </trkpt>
      <trkpt lat="43.48283" lon="-1.14658">
        <ele>48.6</ele>
        <time>2021-06-06T03:08:36Z</time>
      </trkpt>
      <trkpt lat="43.48285" lon="-1.14677">
        <ele>49.44</ele>
        <time>2021-06-06T03:08:38Z</time>
      </trkpt>
      <trkpt lat="43.48288" lon="-1.14696">
        <ele>50.56</ele>
        <time>2021-06-06T03:08:40Z</time>
      </trkpt>
      <trkpt lat="43.48293" lon="-1.14714">
        <ele>52.69</ele>
        <time>2021-06-06T03:08:42Z</time>
      </trkpt>
      <trkpt lat="43.48316" lon="-1.1478">
        <ele>55</ele>
        <time>2021-06-06T03:08:44Z</time>
      </trkpt>
      <trkpt lat="43.4832" lon="-1.14814">
        <ele>54.91</ele>
        <time>2021-06-06T03:08:46Z</time>
      </trkpt>
      <trkpt lat="43.48319" lon="-1.14834">
        <ele>55.1</ele>
        <time>2021-06-06T03:08:48Z</time>
      </trkpt>
      <trkpt lat="43.48316" lon="-1.14852">
        <ele>56.41</ele>
        <time>2021-06-06T03:08:50Z</time>
      </trkpt>
      <trkpt lat="43.48311" lon="-1.1487">
        <ele>57.25</ele>
        <time>2021-06-06T03:08:52Z</time>
      </trkpt>
      <trkpt lat="43.48305" lon="-1.14885">
        <ele>57.34</ele>
        <time>2021-06-06T03:08:54Z</time>
      </trkpt>
      <trkpt lat="43.48265" lon="-1.14962">
        <ele>60.46</ele>
        <time>2021-06-06T03:08:56Z</time>
      </trkpt>
      <trkpt lat="43.48258" lon="-1.14987">
        <ele>59.93</ele>
        <time>2021-06-06T03:08:58Z</time>
      </trkpt>
      <trkpt lat="43.48255" lon="-1.15018">
        <ele>60.56</ele>
        <time>2021-06-06T03:08:59Z</time>
      </trkpt>
      <trkpt lat="43.48257" lon="-1.15038">
        <ele>61.65</ele>
        <time>2021-06-06T03:09:01Z</time>
      </trkpt>
      <trkpt lat="43.48261" lon="-1.15056">
        <ele>62.79</ele>
        <time>2021-06-06T03:09:03Z</time>
      </trkpt>
      <trkpt lat="43.48276" lon="-1.15088">
        <ele>67.03</ele>
        <time>2021-06-06T03:09:05Z</time>
      </trkpt>
      <trkpt lat="43.48287" lon="-1.15104">
        <ele>69.6</ele>
        <time>2021-06-06T03:09:07Z</time>
      </trkpt>
      <trkpt lat="43.48321" lon="-1.15137">
        <ele>75.56</ele>
        <time>2021-06-06T03:09:09Z</time>
      </trkpt>
      <trkpt lat="43.48331" lon="-1.15149">
        <ele>76.28</ele>
        <time>2021-06-06T03:09:11Z</time>
      </trkpt>
      <trkpt lat="43.48346" lon="-1.15173">
        <ele>77.54</ele>
        <time>2021-06-06T03:09:13Z</time>
      </trkpt>
      <trkpt lat="43.48352" lon="-1.15187">
        <ele>78.1</ele>
        <time>2021-06-06T03:09:15Z</time>
      </trkpt>
      <trkpt lat="43.48357" lon="-1.15204">
        <ele>78.95</ele>
        <time>2021-06-06T03:09:17Z</time>
      </trkpt>
      <trkpt lat="43.48359" lon="-1.15223">
        <ele>80.11</ele>
        <time>2021-06-06T03:09:19Z</time>
      </trkpt>
      <trkpt lat="43.48358" lon="-1.15257">
        <ele>82.01</ele>
        <time>2021-06-06T03:09:21Z</time>
      </trkpt>
      <trkpt lat="43.48355" lon="-1.15273">
        <ele>82.04</ele>
        <time>2021-06-06T03:09:23Z</time>
      </trkpt>
      <trkpt lat="43.48315" lon="-1.15362">
        <ele>82.6</ele>
        <time>2021-06-06T03:09:25Z</time>
      </trkpt>
      <trkpt lat="43.48307" lon="-1.15396">
        <ele>83.15</ele>
        <time>2021-06-06T03:09:27Z</time>
      </trkpt>
      <trkpt lat="43.48305" lon="-1.15417">
        <ele>84.03</ele>
        <time>2021-06-06T03:09:29Z</time>
      </trkpt>
      <trkpt lat="43.48306" lon="-1.15438">
        <ele>83.9</ele>
        <time>2021-06-06T03:09:31Z</time>
      </trkpt>
      <trkpt lat="43.4831" lon="-1.15459">
        <ele>84.51</ele>
        <time>2021-06-06T03:09:33Z</time>
      </trkpt>
      <trkpt lat="43.48348" lon="-1.1557">
        <ele>91.13</ele>
        <time>2021-06-06T03:09:35Z</time>
      </trkpt>
      <trkpt lat="43.48354" lon="-1.15593">
        <ele>91.33</ele>
        <time>2021-06-06T03:09:37Z</time>
      </trkpt>
      <trkpt lat="43.48358" lon="-1.15612">
        <ele>92.55</ele>
        <time>2021-06-06T03:09:39Z</time>
      </trkpt>
      <trkpt lat="43.48359" lon="-1.15631">
        <ele>93.03</ele>
        <time>2021-06-06T03:09:41Z</time>
      </trkpt>
      <trkpt lat="43.4835" lon="-1.15747">
        <ele>94.24</ele>
        <time>2021-06-06T03:09:43Z</time>
      </trkpt>
      <trkpt lat="43.4835" lon="-1.1579">
        <ele>95.28</ele>
        <time>2021-06-06T03:09:45Z</time>
      </trkpt>
      <trkpt lat="43.48353" lon="-1.15814">
        <ele>95.78</ele>
        <time>2021-06-06T03:09:46Z</time>
      </trkpt>
      <trkpt lat="43.48376" lon="-1.15933">
        <ele>105.48</ele>
        <time>2021-06-06T03:09:48Z</time>
      </trkpt>
      <trkpt lat="43.48393" lon="-1.16096">
        <ele>116.12</ele>
        <time>2021-06-06T03:09:50Z</time>
      </trkpt>
      <trkpt lat="43.48394" lon="-1.16115">
        <ele>117.65</ele>
        <time>2021-06-06T03:09:52Z</time>
      </trkpt>
      <trkpt lat="43.48391" lon="-1.16151">
        <ele>121.32</ele>
        <time>2021-06-06T03:09:54Z</time>
      </trkpt>
      <trkpt lat="43.48382" lon="-1.1619">
        <ele>122.67</ele>
        <time>2021-06-06T03:09:56Z</time>
      </trkpt>
      <trkpt lat="43.4837" lon="-1.16222">
        <ele>120.61</ele>
        <time>2021-06-06T03:09:58Z</time>
      </trkpt>
      <trkpt lat="43.4835" lon="-1.16254">
        <ele>119.41</ele>
        <time>2021-06-06T03:10:00Z</time>
      </trkpt>
      <trkpt lat="43.48283" lon="-1.16333">
        <ele>121.47</ele>
        <time>2021-06-06T03:10:02Z</time>
      </trkpt>
      <trkpt lat="43.48223" lon="-1.16419">
        <ele>126.93</ele>
        <time>2021-06-06T03:10:04Z</time>
      </trkpt>
      <trkpt lat="43.48153" lon="-1.16533">
        <ele>129.75</ele>
        <time>2021-06-06T03:10:06Z</time>
      </trkpt>
      <trkpt lat="43.48142" lon="-1.16557">
        <ele>132.12</ele>
        <time>2021-06-06T03:10:08Z</time>
      </trkpt>
      <trkpt lat="43.48135" lon="-1.16587">
        <ele>135.26</ele>
        <time>2021-06-06T03:10:10Z</time>
      </trkpt>
      <trkpt lat="43.48133" lon="-1.16617">
        <ele>136.06</ele>
        <time>2021-06-06T03:10:12Z</time>
      </trkpt>
      <trkpt lat="43.48136" lon="-1.16647">
        <ele>135.71</ele>
        <time>2021-06-06T03:10:14Z</time>
      </trkpt>
      <trkpt lat="43.48146" lon="-1.16686">
        <ele>133.08</ele>
        <time>2021-06-06T03:10:16Z</time>
      </trkpt>
      <trkpt lat="43.48163" lon="-1.16723">
        <ele>131.4</ele>
        <time>2021-06-06T03:10:18Z</time>
      </trkpt>
      <trkpt lat="43.48171" lon="-1.16749">
        <ele>132.64</ele>
        <time>2021-06-06T03:10:20Z</time>
      </trkpt>
      <trkpt lat="43.48174" lon="-1.1677">
        <ele>132.71</ele>
        <time>2021-06-06T03:10:22Z</time>
      </trkpt>
      <trkpt lat="43.48174" lon="-1.16804">
        <ele>132.09</ele>
        <time>2021-06-06T03:10:24Z</time>
      </trkpt>
      <trkpt lat="43.48171" lon="-1.1683">
        <ele>131.38</ele>
        <time>2021-06-06T03:10:26Z</time>
      </trkpt>
      <trkpt lat="43.48158" lon="-1.16874">
        <ele>133.77</ele>
        <time>2021-06-06T03:10:28Z</time>
      </trkpt>
      <trkpt lat="43.48147" lon="-1.1692">
        <ele>137.94</ele>
        <time>2021-06-06T03:10:30Z</time>
      </trkpt>
      <trkpt lat="43.48147" lon="-1.16948">
        <ele>135.65</ele>
        <time>2021-06-06T03:10:32Z</time>
      </trkpt>
      <trkpt lat="43.48156" lon="-1.17001">
        <ele>135.01</ele>
        <time>2021-06-06T03:10:33Z</time>
      </trkpt>
      <trkpt lat="43.48158" lon="-1.17032">
        <ele>135.03</ele>
        <time>2021-06-06T03:10:35Z</time>
      </trkpt>
      <trkpt lat="43.48155" lon="-1.17057">
        <ele>134.49</ele>
        <time>2021-06-06T03:10:37Z</time>
      </trkpt>
      <trkpt lat="43.48148" lon="-1.17086">
        <ele>135.54</ele>
        <time>2021-06-06T03:10:39Z</time>
      </trkpt>
      <trkpt lat="43.48114" lon="-1.17168">
        <ele>135.05</ele>
        <time>2021-06-06T03:10:41Z</time>
      </trkpt>
      <trkpt lat="43.48102" lon="-1.17206">
        <ele>133.25</ele>
        <time>2021-06-06T03:10:43Z</time>
      </trkpt>
      <trkpt lat="43.48066" lon="-1.17345">
        <ele>131.73</ele>
        <time>2021-06-06T03:10:45Z</time>
      </trkpt>
      <trkpt lat="43.48057" lon="-1.17398">
        <ele>131.46</ele>
        <time>2021-06-06T03:10:47Z</time>
      </trkpt>
      <trkpt lat="43.48046" lon="-1.17502">
        <ele>132.82</ele>
        <time>2021-06-06T03:10:49Z</time>
      </trkpt>
      <trkpt lat="43.48045" lon="-1.17572">
        <ele>136.29</ele>
        <time>2021-06-06T03:10:51Z</time>
      </trkpt>
      <trkpt lat="43.48047" lon="-1.17596">
        <ele>136.26</ele>
        <time>2021-06-06T03:10:53Z</time>
      </trkpt>
      <trkpt lat="43.48052" lon="-1.17628">
        <ele>136.1</ele>
        <time>2021-06-06T03:10:55Z</time>
      </trkpt>
      <trkpt lat="43.48057" lon="-1.17653">
        <ele>135.75</ele>
        <time>2021-06-06T03:10:57Z</time>
      </trkpt>
      <trkpt lat="43.48088" lon="-1.17753">
        <ele>132.03</ele>
        <time>2021-06-06T03:10:59Z</time>
      </trkpt>
      <trkpt lat="43.48091" lon="-1.17776">
        <ele>132.85</ele>
        <time>2021-06-06T03:11:01Z</time>
      </trkpt>
      <trkpt lat="43.48092" lon="-1.17798">
        <ele>132.85</ele>
        <time>2021-06-06T03:11:03Z</time>
      </trkpt>
      <trkpt lat="43.48088" lon="-1.17836">
        <ele>130.98</ele>
        <time>2021-06-06T03:11:05Z</time>
      </trkpt>
      <trkpt lat="43.48082" lon="-1.17855">
        <ele>129.88</ele>
        <time>2021-06-06T03:11:07Z</time>
      </trkpt>
      <trkpt lat="43.48071" lon="-1.1788">
        <ele>128.63</ele>
        <time>2021-06-06T03:11:09Z</time>
      </trkpt>
      <trkpt lat="43.47995" lon="-1.18037">
        <ele>123.93</ele>
        <time>2021-06-06T03:11:11Z</time>
      </trkpt>
      <trkpt lat="43.47982" lon="-1.18069">
        <ele>123.14</ele>
        <time>2021-06-06T03:11:13Z</time>
      </trkpt>
      <trkpt lat="43.47961" lon="-1.18139">
        <ele>128.61</ele>
        <time>2021-06-06T03:11:15Z</time>
      </trkpt>
      <trkpt lat="43.47948" lon="-1.18208">
        <ele>128.17</ele>
        <time>2021-06-06T03:11:17Z</time>
      </trkpt>
      <trkpt lat="43.47944" lon="-1.1825">
        <ele>130.04</ele>
        <time>2021-06-06T03:11:19Z</time>
      </trkpt>
      <trkpt lat="43.47943" lon="-1.18283">
        <ele>132.56</ele>
        <time>2021-06-06T03:11:20Z</time>
      </trkpt>
      <trkpt lat="43.47943" lon="-1.18318">
        <ele>135.49</ele>
        <time>2021-06-06T03:11:22Z</time>
      </trkpt>
      <trkpt lat="43.47955" lon="-1.18443">
        <ele>138.66</ele>
        <time>2021-06-06T03:11:24Z</time>
      </trkpt>
      <trkpt lat="43.47955" lon="-1.18471">
        <ele>137.68</ele>
        <time>2021-06-06T03:11:26Z</time>
      </trkpt>
      <trkpt lat="43.47953" lon="-1.18488">
        <ele>136.92</ele>
        <time>2021-06-06T03:11:28Z</time>
      </trkpt>
      <trkpt lat="43.47947" lon="-1.18523">
        <ele>137.61</ele>
        <time>2021-06-06T03:11:30Z</time>
      </trkpt>
      <trkpt lat="43.47928" lon="-1.18575">
        <ele>138.21</ele>
        <time>2021-06-06T03:11:32Z</time>
      </trkpt>
      <trkpt lat="43.47913" lon="-1.18611">
        <ele>137.13</ele>
        <time>2021-06-06T03:11:34Z</time>
      </trkpt>
      <trkpt lat="43.47907" lon="-1.18644">
        <ele>136.75</ele>
        <time>2021-06-06T03:11:36Z</time>
      </trkpt>
      <trkpt lat="43.47895" lon="-1.18673">
        <ele>138.55</ele>
        <time>2021-06-06T03:11:38Z</time>
      </trkpt>
      <trkpt lat="43.4787" lon="-1.18771">
        <ele>139.84</ele>
        <time>2021-06-06T03:11:40Z</time>
      </trkpt>
      <trkpt lat="43.4785" lon="-1.18861">
        <ele>141.38</ele>
        <time>2021-06-06T03:11:42Z</time>
      </trkpt>
      <trkpt lat="43.47828" lon="-1.18943">
        <ele>141.09</ele>
        <time>2021-06-06T03:11:44Z</time>
      </trkpt>
      <trkpt lat="43.4782" lon="-1.18964">
        <ele>141.33</ele>
        <time>2021-06-06T03:11:46Z</time>
      </trkpt>
      <trkpt lat="43.47812" lon="-1.18979">
        <ele>141.76</ele>
        <time>2021-06-06T03:11:48Z</time>
      </trkpt>
      <trkpt lat="43.47772" lon="-1.19037">
        <ele>143.41</ele>
        <time>2021-06-06T03:11:50Z</time>
      </trkpt>
      <trkpt lat="43.47717" lon="-1.19139">
        <ele>146</ele>
        <time>2021-06-06T03:11:52Z</time>
      </trkpt>
      <trkpt lat="43.47709" lon="-1.19162">
        <ele>146.4</ele>
        <time>2021-06-06T03:11:54Z</time>
      </trkpt>
      <trkpt lat="43.47701" lon="-1.19196">
        <ele>148.48</ele>
        <time>2021-06-06T03:11:56Z</time>
      </trkpt>
      <trkpt lat="43.47691" lon="-1.19261">
        <ele>156.95</ele>
        <time>2021-06-06T03:11:58Z</time>
      </trkpt>
      <trkpt lat="43.47688" lon="-1.19273">
        <ele>157.96</ele>
        <time>2021-06-06T03:12:00Z</time>
      </trkpt>
      <trkpt lat="43.47661" lon="-1.19346">
        <ele>159.39</ele>
        <time>2021-06-06T03:12:02Z</time>
      </trkpt>
      <trkpt lat="43.47652" lon="-1.19376">
        <ele>159.47</ele>
        <time>2021-06-06T03:12:04Z</time>
      </trkpt>
      <trkpt lat="43.47642" lon="-1.19428">
        <ele>156.55</ele>
        <time>2021-06-06T03:12:05Z</time>
      </trkpt>
      <trkpt lat="43.47627" lon="-1.19524">
        <ele>150.33</ele>
        <time>2021-06-06T03:12:07Z</time>
      </trkpt>
      <trkpt lat="43.47626" lon="-1.19544">
        <ele>150.48</ele>
        <time>2021-06-06T03:12:09Z</time>
      </trkpt>
      <trkpt lat="43.47629" lon="-1.19563">
        <ele>151.28</ele>
        <time>2021-06-06T03:12:11Z</time>
      </trkpt>
      <trkpt lat="43.47633" lon="-1.19579">
        <ele>153.17</ele>
        <time>2021-06-06T03:12:13Z</time>
      </trkpt>
      <trkpt lat="43.47641" lon="-1.19596">
        <ele>153.9</ele>
        <time>2021-06-06T03:12:15Z</time>
      </trkpt>
      <trkpt lat="43.47653" lon="-1.19616">
        <ele>152.81</ele>
        <time>2021-06-06T03:12:17Z</time>
      </trkpt>
      <trkpt lat="43.47668" lon="-1.19645">
        <ele>149.8</ele>
        <time>2021-06-06T03:12:19Z</time>
      </trkpt>
      <trkpt lat="43.47673" lon="-1.19671">
        <ele>149.01</ele>
        <time>2021-06-06T03:12:21Z</time>
      </trkpt>
      <trkpt lat="43.47679" lon="-1.19725">
        <ele>149.25</ele>
        <time>2021-06-06T03:12:23Z</time>
      </trkpt>
      <trkpt lat="43.47676" lon="-1.19799">
        <ele>146.19</ele>
        <time>2021-06-06T03:12:25Z</time>
      </trkpt>
      <trkpt lat="43.47666" lon="-1.19927">
        <ele>141.25</ele>
        <time>2021-06-06T03:12:27Z</time>
      </trkpt>
      <trkpt lat="43.47663" lon="-1.19942">
        <ele>140.17</ele>
        <time>2021-06-06T03:12:29Z</time>
      </trkpt>
      <trkpt lat="43.47646" lon="-1.19996">
        <ele>139.46</ele>
        <time>2021-06-06T03:12:31Z</time>
      </trkpt>
      <trkpt lat="43.47642" lon="-1.2002">
        <ele>138.67</ele>
        <time>2021-06-06T03:12:33Z</time>
      </trkpt>
      <trkpt lat="43.47642" lon="-1.20043">
        <ele>137.85</ele>
        <time>2021-06-06T03:12:35Z</time>
      </trkpt>
      <trkpt lat="43.4765" lon="-1.20158">
        <ele>132.01</ele>
        <time>2021-06-06T03:12:37Z</time>
      </trkpt>
      <trkpt lat="43.47649" lon="-1.20177">
        <ele>130.87</ele>
        <time>2021-06-06T03:12:39Z</time>
      </trkpt>
      <trkpt lat="43.47645" lon="-1.20207">
        <ele>128.79</ele>
        <time>2021-06-06T03:12:41Z</time>
      </trkpt>
      <trkpt lat="43.47638" lon="-1.20228">
        <ele>127.51</ele>
        <time>2021-06-06T03:12:43Z</time>
      </trkpt>
      <trkpt lat="43.47623" lon="-1.20263">
        <ele>126</ele>
        <time>2021-06-06T03:12:45Z</time>
      </trkpt>
      <trkpt lat="43.4761" lon="-1.20282">
        <ele>126.44</ele>
        <time>2021-06-06T03:12:47Z</time>
      </trkpt>
      <trkpt lat="43.47604" lon="-1.20289">
        <ele>127</ele>
        <time>2021-06-06T03:12:49Z</time>
      </trkpt>
      <trkpt lat="43.47561" lon="-1.20329">
        <ele>124.39</ele>
        <time>2021-06-06T03:12:51Z</time>
      </trkpt>
      <trkpt lat="43.47549" lon="-1.20347">
        <ele>123.13</ele>
        <time>2021-06-06T03:12:52Z</time>
      </trkpt>
      <trkpt lat="43.47542" lon="-1.20366">
        <ele>122.32</ele>
        <time>2021-06-06T03:12:54Z</time>
      </trkpt>
      <trkpt lat="43.47523" lon="-1.20439">
        <ele>119.27</ele>
        <time>2021-06-06T03:12:56Z</time>
      </trkpt>
      <trkpt lat="43.47509" lon="-1.20483">
        <ele>117.84</ele>
        <time>2021-06-06T03:12:58Z</time>
      </trkpt>
      <trkpt lat="43.47514" lon="-1.20492">
        <ele>116.36</ele>
        <time>2021-06-06T03:13:01Z</time>
      </trkpt>
      <trkpt lat="43.47512" lon="-1.20503">
        <ele>115.44</ele>
        <time>2021-06-06T03:13:04Z</time>
      </trkpt>
      <trkpt lat="43.47509" lon="-1.20506">
        <ele>115.43</ele>
        <time>2021-06-06T03:13:07Z</time>
      </trkpt>
      <trkpt lat="43.47501" lon="-1.20507">
        <ele>116.19</ele>
        <time>2021-06-06T03:13:10Z</time>
      </trkpt>
      <trkpt lat="43.47434" lon="-1.20678">
        <ele>109.67</ele>
        <time>2021-06-06T03:13:13Z</time>
      </trkpt>
      <trkpt lat="43.47427" lon="-1.20708">
        <ele>109.97</ele>
        <time>2021-06-06T03:13:16Z</time>
      </trkpt>
      <trkpt lat="43.4742" lon="-1.20787">
        <ele>103.34</ele>
        <time>2021-06-06T03:13:19Z</time>
      </trkpt>
      <trkpt lat="43.47416" lon="-1.20815">
        <ele>101.12</ele>
        <time>2021-06-06T03:13:21Z</time>
      </trkpt>
      <trkpt lat="43.47407" lon="-1.20849">
        <ele>98.87</ele>
        <time>2021-06-06T03:13:24Z</time>
      </trkpt>
      <trkpt lat="43.47397" lon="-1.2088">
        <ele>97.31</ele>
        <time>2021-06-06T03:13:27Z</time>
      </trkpt>
      <trkpt lat="43.47384" lon="-1.20911">
        <ele>95.75</ele>
        <time>2021-06-06T03:13:30Z</time>
      </trkpt>
      <trkpt lat="43.47369" lon="-1.20938">
        <ele>93.82</ele>
        <time>2021-06-06T03:13:33Z</time>
      </trkpt>
      <trkpt lat="43.47353" lon="-1.20962">
        <ele>91.18</ele>
        <time>2021-06-06T03:13:36Z</time>
      </trkpt>
      <trkpt lat="43.47322" lon="-1.21003">
        <ele>88.27</ele>
        <time>2021-06-06T03:13:39Z</time>
      </trkpt>
      <trkpt lat="43.47312" lon="-1.21019">
        <ele>87.93</ele>
        <time>2021-06-06T03:13:41Z</time>
      </trkpt>
      <trkpt lat="43.47303" lon="-1.21038">
        <ele>88.42</ele>
        <time>2021-06-06T03:13:44Z</time>
      </trkpt>
      <trkpt lat="43.47298" lon="-1.21055">
        <ele>89.42</ele>
        <time>2021-06-06T03:13:47Z</time>
      </trkpt>
      <trkpt lat="43.47295" lon="-1.21069">
        <ele>90.06</ele>
        <time>2021-06-06T03:13:50Z</time>
      </trkpt>
      <trkpt lat="43.47285" lon="-1.21152">
        <ele>88.98</ele>
        <time>2021-06-06T03:13:53Z</time>
      </trkpt>
      <trkpt lat="43.47274" lon="-1.2119">
        <ele>91.89</ele>
        <time>2021-06-06T03:13:56Z</time>
      </trkpt>
      <trkpt lat="43.4725" lon="-1.21252">
        <ele>89.81</ele>
        <time>2021-06-06T03:13:59Z</time>
      </trkpt>
      <trkpt lat="43.47239" lon="-1.21287">
        <ele>84.7</ele>
        <time>2021-06-06T03:14:02Z</time>
      </trkpt>
      <trkpt lat="43.47219" lon="-1.21393">
        <ele>75.85</ele>
        <time>2021-06-06T03:14:04Z</time>
      </trkpt>
      <trkpt lat="43.47209" lon="-1.21458">
        <ele>72.76</ele>
        <time>2021-06-06T03:14:07Z</time>
      </trkpt>
      <trkpt lat="43.47174" lon="-1.21784">
        <ele>68.68</ele>
        <time>2021-06-06T03:14:10Z</time>
      </trkpt>
      <trkpt lat="43.4717" lon="-1.21807">
        <ele>66.89</ele>
        <time>2021-06-06T03:14:13Z</time>
      </trkpt>
      <trkpt lat="43.47157" lon="-1.21852">
        <ele>64.01</ele>
        <time>2021-06-06T03:14:16Z</time>
      </trkpt>
      <trkpt lat="43.47146" lon="-1.21872">
        <ele>63.35</ele>
        <time>2021-06-06T03:14:19Z</time>
      </trkpt>
      <trkpt lat="43.47127" lon="-1.21901">
        <ele>62.93</ele>
        <time>2021-06-06T03:14:22Z</time>
      </trkpt>
      <trkpt lat="43.46891" lon="-1.22237">
        <ele>66.21</ele>
        <time>2021-06-06T03:14:25Z</time>
      </trkpt>
      <trkpt lat="43.46874" lon="-1.22269">
        <ele>68.01</ele>
        <time>2021-06-06T03:14:27Z</time>
      </trkpt>
      <trkpt lat="43.46862" lon="-1.22304">
        <ele>69.08</ele>
        <time>2021-06-06T03:14:30Z</time>
      </trkpt>
      <trkpt lat="43.46858" lon="-1.22333">
        <ele>71.9</ele>
        <time>2021-06-06T03:14:33Z</time>
      </trkpt>
      <trkpt lat="43.4686" lon="-1.22373">
        <ele>74.81</ele>
        <time>2021-06-06T03:14:36Z</time>
      </trkpt>
      <trkpt lat="43.46868" lon="-1.22412">
        <ele>74.82</ele>
        <time>2021-06-06T03:14:39Z</time>
      </trkpt>
      <trkpt lat="43.46951" lon="-1.22696">
        <ele>67.16</ele>
        <time>2021-06-06T03:14:42Z</time>
      </trkpt>
      <trkpt lat="43.46958" lon="-1.22729">
        <ele>66.06</ele>
        <time>2021-06-06T03:14:45Z</time>
      </trkpt>
      <trkpt lat="43.4696" lon="-1.22748">
        <ele>65.22</ele>
        <time>2021-06-06T03:14:48Z</time>
      </trkpt>
      <trkpt lat="43.4696" lon="-1.2278">
        <ele>64.11</ele>
        <time>2021-06-06T03:14:50Z</time>
      </trkpt>
      <trkpt lat="43.46955" lon="-1.22811">
        <ele>64.29</ele>
        <time>2021-06-06T03:14:53Z</time>
      </trkpt>
      <trkpt lat="43.4695" lon="-1.22827">
        <ele>65.52</ele>
        <time>2021-06-06T03:14:56Z</time>
      </trkpt>
      <trkpt lat="43.46935" lon="-1.22867">
        <ele>68.79</ele>
        <time>2021-06-06T03:14:59Z</time>
      </trkpt>
      <trkpt lat="43.46789" lon="-1.23193">
        <ele>69.76</ele>
        <time>2021-06-06T03:15:02Z</time>
      </trkpt>
      <trkpt lat="43.46767" lon="-1.23235">
        <ele>68.45</ele>
        <time>2021-06-06T03:15:05Z</time>
      </trkpt>
      <trkpt lat="43.46578" lon="-1.23589">
        <ele>66.26</ele>
        <time>2021-06-06T03:15:08Z</time>
      </trkpt>
      <trkpt lat="43.46563" lon="-1.23619">
        <ele>67.72</ele>
        <time>2021-06-06T03:15:11Z</time>
      </trkpt>
      <trkpt lat="43.46556" lon="-1.23639">
        <ele>67.96</ele>
        <time>2021-06-06T03:15:13Z</time>
      </trkpt>
      <trkpt lat="43.4653" lon="-1.23738">
        <ele>63.07</ele>
        <time>2021-06-06T03:15:16Z</time>
      </trkpt>
      <trkpt lat="43.46501" lon="-1.23823">
        <ele>67.13</ele>
        <time>2021-06-06T03:15:19Z</time>
      </trkpt>
      <trkpt lat="43.46482" lon="-1.2386">
        <ele>67.95</ele>
        <time>2021-06-06T03:15:22Z</time>
      </trkpt>
      <trkpt lat="43.46472" lon="-1.23874">
        <ele>68.47</ele>
        <time>2021-06-06T03:15:25Z</time>
      </trkpt>
      <trkpt lat="43.46461" lon="-1.23885">
        <ele>69.22</ele>
        <time>2021-06-06T03:15:28Z</time>
      </trkpt>
      <trkpt lat="43.46442" lon="-1.23901">
        <ele>70.03</ele>
        <time>2021-06-06T03:15:31Z</time>
      </trkpt>
      <trkpt lat="43.46425" lon="-1.23907">
        <ele>70.46</ele>
        <time>2021-06-06T03:15:34Z</time>
      </trkpt>
      <trkpt lat="43.46307" lon="-1.23923">
        <ele>71.68</ele>
        <time>2021-06-06T03:15:36Z</time>
      </trkpt>
      <trkpt lat="43.46282" lon="-1.23931">
        <ele>71.5</ele>
        <time>2021-06-06T03:15:39Z</time>
      </trkpt>
      <trkpt lat="43.46218" lon="-1.23971">
        <ele>74.07</ele>
        <time>2021-06-06T03:15:42Z</time>
      </trkpt>
      <trkpt lat="43.46194" lon="-1.23989">
        <ele>76.29</ele>
        <time>2021-06-06T03:15:45Z</time>
      </trkpt>
      <trkpt lat="43.46167" lon="-1.24016">
        <ele>77.98</ele>
        <time>2021-06-06T03:15:48Z</time>
      </trkpt>
      <trkpt lat="43.46157" lon="-1.24034">
        <ele>77.86</ele>
        <time>2021-06-06T03:15:51Z</time>
      </trkpt>
      <trkpt lat="43.46147" lon="-1.2406">
        <ele>77.67</ele>
        <time>2021-06-06T03:15:54Z</time>
      </trkpt>
      <trkpt lat="43.46139" lon="-1.24095">
        <ele>78.42</ele>
        <time>2021-06-06T03:15:57Z</time>
      </trkpt>
      <trkpt lat="43.46136" lon="-1.24151">
        <ele>82.73</ele>
        <time>2021-06-06T03:15:59Z</time>
      </trkpt>
      <trkpt lat="43.46135" lon="-1.24232">
        <ele>82.38</ele>
        <time>2021-06-06T03:16:02Z</time>
      </trkpt>
      <trkpt lat="43.4614" lon="-1.24278">
        <ele>83.87</ele>
        <time>2021-06-06T03:16:05Z</time>
      </trkpt>
      <trkpt lat="43.46179" lon="-1.24383">
        <ele>78.33</ele>
        <time>2021-06-06T03:16:08Z</time>
      </trkpt>
      <trkpt lat="43.4619" lon="-1.2443">
        <ele>75.78</ele>
        <time>2021-06-06T03:16:11Z</time>
      </trkpt>
      <trkpt lat="43.46195" lon="-1.24505">
        <ele>76.3</ele>
        <time>2021-06-06T03:16:14Z</time>
      </trkpt>
      <trkpt lat="43.46202" lon="-1.24548">
        <ele>78.75</ele>
        <time>2021-06-06T03:16:17Z</time>
      </trkpt>
      <trkpt lat="43.46231" lon="-1.24627">
        <ele>80.07</ele>
        <time>2021-06-06T03:16:20Z</time>
      </trkpt>
      <trkpt lat="43.46246" lon="-1.24728">
        <ele>80.97</ele>
        <time>2021-06-06T03:16:22Z</time>
      </trkpt>
      <trkpt lat="43.46257" lon="-1.24758">
        <ele>79.47</ele>
        <time>2021-06-06T03:16:25Z</time>
      </trkpt>
      <trkpt lat="43.46274" lon="-1.24782">
        <ele>78.21</ele>
        <time>2021-06-06T03:16:28Z</time>
      </trkpt>
      <trkpt lat="43.46347" lon="-1.24852">
        <ele>75</ele>
        <time>2021-06-06T03:16:31Z</time>
      </trkpt>
      <trkpt lat="43.46383" lon="-1.24898">
        <ele>76.07</ele>
        <time>2021-06-06T03:16:34Z</time>
      </trkpt>
      <trkpt lat="43.46404" lon="-1.24948">
        <ele>75.24</ele>
        <time>2021-06-06T03:16:37Z</time>
      </trkpt>
      <trkpt lat="43.46441" lon="-1.25074">
        <ele>69.44</ele>
        <time>2021-06-06T03:16:40Z</time>
      </trkpt>
      <trkpt lat="43.4647" lon="-1.25162">
        <ele>62.54</ele>
        <time>2021-06-06T03:16:42Z</time>
      </trkpt>
      <trkpt lat="43.46562" lon="-1.25327">
        <ele>51.27</ele>
        <time>2021-06-06T03:16:45Z</time>
      </trkpt>
      <trkpt lat="43.46592" lon="-1.25379">
        <ele>44.68</ele>
        <time>2021-06-06T03:16:48Z</time>
      </trkpt>
      <trkpt lat="43.46606" lon="-1.25413">
        <ele>42.07</ele>
        <time>2021-06-06T03:16:51Z</time>
      </trkpt>
      <trkpt lat="43.46617" lon="-1.25454">
        <ele>42.23</ele>
        <time>2021-06-06T03:16:54Z</time>
      </trkpt>
      <trkpt lat="43.46664" lon="-1.25685">
        <ele>32.38</ele>
        <time>2021-06-06T03:16:57Z</time>
      </trkpt>
      <trkpt lat="43.46666" lon="-1.25717">
        <ele>30.34</ele>
        <time>2021-06-06T03:17:00Z</time>
      </trkpt>
      <trkpt lat="43.46662" lon="-1.25762">
        <ele>28.75</ele>
        <time>2021-06-06T03:17:03Z</time>
      </trkpt>
      <trkpt lat="43.46627" lon="-1.25935">
        <ele>18.9</ele>
        <time>2021-06-06T03:17:05Z</time>
      </trkpt>
      <trkpt lat="43.46578" lon="-1.26111">
        <ele>14.19</ele>
        <time>2021-06-06T03:17:08Z</time>
      </trkpt>
      <trkpt lat="43.46574" lon="-1.26144">
        <ele>14.2</ele>
        <time>2021-06-06T03:17:11Z</time>
      </trkpt>
      <trkpt lat="43.46571" lon="-1.26224">
        <ele>10.76</ele>
        <time>2021-06-06T03:17:14Z</time>
      </trkpt>
      <trkpt lat="43.46569" lon="-1.26247">
        <ele>11.34</ele>
        <time>2021-06-06T03:17:17Z</time>
      </trkpt>
      <trkpt lat="43.46561" lon="-1.26285">
        <ele>11.44</ele>
        <time>2021-06-06T03:17:20Z</time>
      </trkpt>
      <trkpt lat="43.46554" lon="-1.26307">
        <ele>12.19</ele>
        <time>2021-06-06T03:17:23Z</time>
      </trkpt>
      <trkpt lat="43.46542" lon="-1.26337">
        <ele>14.38</ele>
        <time>2021-06-06T03:17:26Z</time>
      </trkpt>
      <trkpt lat="43.46507" lon="-1.26404">
        <ele>11.53</ele>
        <time>2021-06-06T03:17:28Z</time>
      </trkpt>
      <trkpt lat="43.46502" lon="-1.2642">
        <ele>11.33</ele>
        <time>2021-06-06T03:17:31Z</time>
      </trkpt>
      <trkpt lat="43.46461" lon="-1.26582">
        <ele>16.47</ele>
        <time>2021-06-06T03:17:34Z</time>
      </trkpt>
      <trkpt lat="43.46455" lon="-1.26596">
        <ele>16.87</ele>
        <time>2021-06-06T03:17:37Z</time>
      </trkpt>
      <trkpt lat="43.46422" lon="-1.26653">
        <ele>17.18</ele>
        <time>2021-06-06T03:17:40Z</time>
      </trkpt>
      <trkpt lat="43.46413" lon="-1.26673">
        <ele>16.72</ele>
        <time>2021-06-06T03:17:43Z</time>
      </trkpt>
      <trkpt lat="43.46389" lon="-1.26753">
        <ele>17.19</ele>
        <time>2021-06-06T03:17:46Z</time>
      </trkpt>
      <trkpt lat="43.46388" lon="-1.26775">
        <ele>18.63</ele>
        <time>2021-06-06T03:17:49Z</time>
      </trkpt>
      <trkpt lat="43.4639" lon="-1.26784">
        <ele>19.09</ele>
        <time>2021-06-06T03:17:51Z</time>
      </trkpt>
      <trkpt lat="43.46388" lon="-1.26792">
        <ele>18.8</ele>
        <time>2021-06-06T03:17:54Z</time>
      </trkpt>
      <trkpt lat="43.46389" lon="-1.26852">
        <ele>11.77</ele>
        <time>2021-06-06T03:17:56Z</time>
      </trkpt>
      <trkpt lat="43.46387" lon="-1.26884">
        <ele>8.22</ele>
        <time>2021-06-06T03:17:58Z</time>
      </trkpt>
      <trkpt lat="43.46338" lon="-1.27209">
        <ele>5.35</ele>
        <time>2021-06-06T03:18:01Z</time>
      </trkpt>
      <trkpt lat="43.46337" lon="-1.27218">
        <ele>5.36</ele>
        <time>2021-06-06T03:18:03Z</time>
      </trkpt>
      <trkpt lat="43.46338" lon="-1.27246">
        <ele>6.37</ele>
        <time>2021-06-06T03:18:06Z</time>
      </trkpt>
      <trkpt lat="43.46344" lon="-1.27273">
        <ele>8.01</ele>
        <time>2021-06-06T03:18:08Z</time>
      </trkpt>
      <trkpt lat="43.46386" lon="-1.27376">
        <ele>10.38</ele>
        <time>2021-06-06T03:18:11Z</time>
      </trkpt>
      <trkpt lat="43.46409" lon="-1.27438">
        <ele>7.44</ele>
        <time>2021-06-06T03:18:13Z</time>
      </trkpt>
      <trkpt lat="43.46436" lon="-1.27549">
        <ele>9.92</ele>
        <time>2021-06-06T03:18:15Z</time>
      </trkpt>
      <trkpt lat="43.46443" lon="-1.27571">
        <ele>12.22</ele>
        <time>2021-06-06T03:18:18Z</time>
      </trkpt>
      <trkpt lat="43.46492" lon="-1.27703">
        <ele>14.84</ele>
        <time>2021-06-06T03:18:20Z</time>
      </trkpt>
      <trkpt lat="43.46516" lon="-1.27763">
        <ele>10.45</ele>
        <time>2021-06-06T03:18:23Z</time>
      </trkpt>
      <trkpt lat="43.46532" lon="-1.27796">
        <ele>7.33</ele>
        <time>2021-06-06T03:18:25Z</time>
      </trkpt>
      <trkpt lat="43.46565" lon="-1.27855">
        <ele>9.75</ele>
        <time>2021-06-06T03:18:28Z</time>
      </trkpt>
      <trkpt lat="43.46583" lon="-1.27886">
        <ele>10.84</ele>
        <time>2021-06-06T03:18:29Z</time>
      </trkpt>
      <trkpt lat="43.46596" lon="-1.2789">
        <ele>10.64</ele>
        <time>2021-06-06T03:18:32Z</time>
      </trkpt>
      <trkpt lat="43.46646" lon="-1.27915">
        <ele>11.22</ele>
        <time>2021-06-06T03:18:35Z</time>
      </trkpt>
      <trkpt lat="43.46692" lon="-1.27955">
        <ele>11.09</ele>
        <time>2021-06-06T03:18:37Z</time>
      </trkpt>
      <trkpt lat="43.46717" lon="-1.2797">
        <ele>9.46</ele>
        <time>2021-06-06T03:18:40Z</time>
      </trkpt>
      <trkpt lat="43.46733" lon="-1.27975">
        <ele>8.46</ele>
        <time>2021-06-06T03:18:43Z</time>
      </trkpt>
      <trkpt lat="43.46751" lon="-1.27976">
        <ele>7.83</ele>
        <time>2021-06-06T03:18:46Z</time>
      </trkpt>
      <trkpt lat="43.46769" lon="-1.27973">
        <ele>7.31</ele>
        <time>2021-06-06T03:18:48Z</time>
      </trkpt>
      <trkpt lat="43.46795" lon="-1.2796">
        <ele>6.39</ele>
        <time>2021-06-06T03:18:51Z</time>
      </trkpt>
      <trkpt lat="43.47013" lon="-1.27803">
        <ele>7.51</ele>
        <time>2021-06-06T03:18:54Z</time>
      </trkpt>
      <trkpt lat="43.47058" lon="-1.27788">
        <ele>10.45</ele>
        <time>2021-06-06T03:18:57Z</time>
      </trkpt>
      <trkpt lat="43.47076" lon="-1.27787">
        <ele>11.76</ele>
        <time>2021-06-06T03:18:59Z</time>
      </trkpt>
      <trkpt lat="43.47111" lon="-1.27795">
        <ele>15.38</ele>
        <time>2021-06-06T03:19:02Z</time>
      </trkpt>
      <trkpt lat="43.47128" lon="-1.27804">
        <ele>16.81</ele>
        <time>2021-06-06T03:19:05Z</time>
      </trkpt>
      <trkpt lat="43.47172" lon="-1.27845">
        <ele>17.51</ele>
        <time>2021-06-06T03:19:08Z</time>
      </trkpt>
      <trkpt lat="43.47287" lon="-1.2794">
        <ele>10.44</ele>
        <time>2021-06-06T03:19:11Z</time>
      </trkpt>
      <trkpt lat="43.47311" lon="-1.27947">
        <ele>10</ele>
        <time>2021-06-06T03:19:13Z</time>
      </trkpt>
      <trkpt lat="43.47336" lon="-1.27949">
        <ele>10.1</ele>
        <time>2021-06-06T03:19:16Z</time>
      </trkpt>
      <trkpt lat="43.47393" lon="-1.27931">
        <ele>12.38</ele>
        <time>2021-06-06T03:19:19Z</time>
      </trkpt>
      <trkpt lat="43.4745" lon="-1.27918">
        <ele>9.8</ele>
        <time>2021-06-06T03:19:22Z</time>
      </trkpt>
      <trkpt lat="43.47477" lon="-1.27904">
        <ele>9.79</ele>
        <time>2021-06-06T03:19:24Z</time>
      </trkpt>
      <trkpt lat="43.47487" lon="-1.27895">
        <ele>10.24</ele>
        <time>2021-06-06T03:19:27Z</time>
      </trkpt>
      <trkpt lat="43.47503" lon="-1.27874">
        <ele>9.69</ele>
        <time>2021-06-06T03:19:30Z</time>
      </trkpt>
      <trkpt lat="43.47552" lon="-1.27789">
        <ele>8.22</ele>
        <time>2021-06-06T03:19:33Z</time>
      </trkpt>
      <trkpt lat="43.47577" lon="-1.27753">
        <ele>8.38</ele>
        <time>2021-06-06T03:19:35Z</time>
      </trkpt>
      <trkpt lat="43.47593" lon="-1.27736">
        <ele>8.84</ele>
        <time>2021-06-06T03:19:38Z</time>
      </trkpt>
      <trkpt lat="43.47619" lon="-1.27713">
        <ele>8.24</ele>
        <time>2021-06-06T03:19:41Z</time>
      </trkpt>
      <trkpt lat="43.47643" lon="-1.27698">
        <ele>7.59</ele>
        <time>2021-06-06T03:19:44Z</time>
      </trkpt>
      <trkpt lat="43.47668" lon="-1.27685">
        <ele>5.34</ele>
        <time>2021-06-06T03:19:47Z</time>
      </trkpt>
      <trkpt lat="43.47712" lon="-1.27676">
        <ele>6.59</ele>
        <time>2021-06-06T03:19:49Z</time>
      </trkpt>
      <trkpt lat="43.47752" lon="-1.27677">
        <ele>8.3</ele>
        <time>2021-06-06T03:19:52Z</time>
      </trkpt>
      <trkpt lat="43.47791" lon="-1.27689">
        <ele>7.43</ele>
        <time>2021-06-06T03:19:55Z</time>
      </trkpt>
      <trkpt lat="43.4783" lon="-1.27711">
        <ele>7.6</ele>
        <time>2021-06-06T03:19:58Z</time>
      </trkpt>
      <trkpt lat="43.47853" lon="-1.2773">
        <ele>8.21</ele>
        <time>2021-06-06T03:20:00Z</time>
      </trkpt>
      <trkpt lat="43.47876" lon="-1.27755">
        <ele>9.2</ele>
        <time>2021-06-06T03:20:03Z</time>
      </trkpt>
      <trkpt lat="43.47896" lon="-1.27784">
        <ele>11.47</ele>
        <time>2021-06-06T03:20:06Z</time>
      </trkpt>
      <trkpt lat="43.47912" lon="-1.27813">
        <ele>14.32</ele>
        <time>2021-06-06T03:20:09Z</time>
      </trkpt>
      <trkpt lat="43.4793" lon="-1.27856">
        <ele>18.96</ele>
        <time>2021-06-06T03:20:11Z</time>
      </trkpt>
      <trkpt lat="43.47948" lon="-1.27913">
        <ele>24.86</ele>
        <time>2021-06-06T03:20:14Z</time>
      </trkpt>
      <trkpt lat="43.47978" lon="-1.28036">
        <ele>36.6</ele>
        <time>2021-06-06T03:20:17Z</time>
      </trkpt>
      <trkpt lat="43.47985" lon="-1.28056">
        <ele>37.41</ele>
        <time>2021-06-06T03:20:20Z</time>
      </trkpt>
      <trkpt lat="43.47995" lon="-1.28074">
        <ele>38.62</ele>
        <time>2021-06-06T03:20:23Z</time>
      </trkpt>
      <trkpt lat="43.48007" lon="-1.2809">
        <ele>38.54</ele>
        <time>2021-06-06T03:20:25Z</time>
      </trkpt>
      <trkpt lat="43.48062" lon="-1.28146">
        <ele>36.89</ele>
        <time>2021-06-06T03:20:28Z</time>
      </trkpt>
      <trkpt lat="43.48079" lon="-1.28173">
        <ele>38.07</ele>
        <time>2021-06-06T03:20:31Z</time>
      </trkpt>
      <trkpt lat="43.48088" lon="-1.28194">
        <ele>39</ele>
        <time>2021-06-06T03:20:34Z</time>
      </trkpt>
      <trkpt lat="43.48116" lon="-1.28288">
        <ele>41.28</ele>
        <time>2021-06-06T03:20:36Z</time>
      </trkpt>
      <trkpt lat="43.48126" lon="-1.28312">
        <ele>40.76</ele>
        <time>2021-06-06T03:20:39Z</time>
      </trkpt>
      <trkpt lat="43.4814" lon="-1.28336">
        <ele>40.05</ele>
        <time>2021-06-06T03:20:42Z</time>
      </trkpt>
      <trkpt lat="43.48157" lon="-1.28359">
        <ele>40.67</ele>
        <time>2021-06-06T03:20:45Z</time>
      </trkpt>
      <trkpt lat="43.48358" lon="-1.28594">
        <ele>43.95</ele>
        <time>2021-06-06T03:20:47Z</time>
      </trkpt>
      <trkpt lat="43.48366" lon="-1.28608">
        <ele>44.17</ele>
        <time>2021-06-06T03:20:50Z</time>
      </trkpt>
      <trkpt lat="43.48376" lon="-1.28633">
        <ele>44.53</ele>
        <time>2021-06-06T03:20:53Z</time>
      </trkpt>
      <trkpt lat="43.48381" lon="-1.2865">
        <ele>44.58</ele>
        <time>2021-06-06T03:20:56Z</time>
      </trkpt>
      <trkpt lat="43.48384" lon="-1.28676">
        <ele>44.91</ele>
        <time>2021-06-06T03:20:58Z</time>
      </trkpt>
      <trkpt lat="43.48385" lon="-1.28709">
        <ele>45.42</ele>
        <time>2021-06-06T03:21:01Z</time>
      </trkpt>
      <trkpt lat="43.48378" lon="-1.28782">
        <ele>43.94</ele>
        <time>2021-06-06T03:21:04Z</time>
      </trkpt>
      <trkpt lat="43.48374" lon="-1.2881">
        <ele>43.35</ele>
        <time>2021-06-06T03:21:07Z</time>
      </trkpt>
      <trkpt lat="43.48357" lon="-1.28887">
        <ele>39.24</ele>
        <time>2021-06-06T03:21:10Z</time>
      </trkpt>
      <trkpt lat="43.48341" lon="-1.28951">
        <ele>38.76</ele>
        <time>2021-06-06T03:21:12Z</time>
      </trkpt>
      <trkpt lat="43.48334" lon="-1.2897">
        <ele>38.08</ele>
        <time>2021-06-06T03:21:15Z</time>
      </trkpt>
      <trkpt lat="43.48315" lon="-1.29013">
        <ele>37</ele>
        <time>2021-06-06T03:21:18Z</time>
      </trkpt>
      <trkpt lat="43.483" lon="-1.29055">
        <ele>37.37</ele>
        <time>2021-06-06T03:21:21Z</time>
      </trkpt>
      <trkpt lat="43.48298" lon="-1.2907">
        <ele>37.94</ele>
        <time>2021-06-06T03:21:23Z</time>
      </trkpt>
      <trkpt lat="43.48297" lon="-1.29102">
        <ele>39.66</ele>
        <time>2021-06-06T03:21:26Z</time>
      </trkpt>
      <trkpt lat="43.48298" lon="-1.29118">
        <ele>40.93</ele>
        <time>2021-06-06T03:21:29Z</time>
      </trkpt>
      <trkpt lat="43.48306" lon="-1.29158">
        <ele>42.97</ele>
        <time>2021-06-06T03:21:32Z</time>
      </trkpt>
      <trkpt lat="43.48365" lon="-1.29305">
        <ele>40.84</ele>
        <time>2021-06-06T03:21:34Z</time>
      </trkpt>
      <trkpt lat="43.48417" lon="-1.29412">
        <ele>39</ele>
        <time>2021-06-06T03:21:37Z</time>
      </trkpt>
      <trkpt lat="43.48435" lon="-1.2944">
        <ele>40.17</ele>
        <time>2021-06-06T03:21:40Z</time>
      </trkpt>
      <trkpt lat="43.48469" lon="-1.29476">
        <ele>40.88</ele>
        <time>2021-06-06T03:21:43Z</time>
      </trkpt>
      <trkpt lat="43.48486" lon="-1.29497">
        <ele>39.61</ele>
        <time>2021-06-06T03:21:46Z</time>
      </trkpt>
      <trkpt lat="43.48553" lon="-1.2962">
        <ele>39.33</ele>
        <time>2021-06-06T03:21:48Z</time>
      </trkpt>
      <trkpt lat="43.48565" lon="-1.29648">
        <ele>40.54</ele>
        <time>2021-06-06T03:21:51Z</time>
      </trkpt>
      <trkpt lat="43.48596" lon="-1.29746">
        <ele>39.53</ele>
        <time>2021-06-06T03:21:54Z</time>
      </trkpt>
      <trkpt lat="43.48617" lon="-1.29837">
        <ele>40.67</ele>
        <time>2021-06-06T03:21:57Z</time>
      </trkpt>
      <trkpt lat="43.48622" lon="-1.2985">
        <ele>40.24</ele>
        <time>2021-06-06T03:21:59Z</time>
      </trkpt>
      <trkpt lat="43.48629" lon="-1.29859">
        <ele>40.03</ele>
        <time>2021-06-06T03:22:02Z</time>
      </trkpt>
      <trkpt lat="43.48686" lon="-1.29896">
        <ele>39.09</ele>
        <time>2021-06-06T03:22:05Z</time>
      </trkpt>
      <trkpt lat="43.48752" lon="-1.29927">
        <ele>36.88</ele>
        <time>2021-06-06T03:22:08Z</time>
      </trkpt>
      <trkpt lat="43.48787" lon="-1.29939">
        <ele>39.75</ele>
        <time>2021-06-06T03:22:10Z</time>
      </trkpt>
      <trkpt lat="43.48828" lon="-1.29946">
        <ele>42.81</ele>
        <time>2021-06-06T03:22:13Z</time>
      </trkpt>
      <trkpt lat="43.48871" lon="-1.29946">
        <ele>42.65</ele>
        <time>2021-06-06T03:22:16Z</time>
      </trkpt>
      <trkpt lat="43.48923" lon="-1.29941">
        <ele>42.07</ele>
        <time>2021-06-06T03:22:19Z</time>
      </trkpt>
      <trkpt lat="43.49009" lon="-1.29924">
        <ele>43.27</ele>
        <time>2021-06-06T03:22:22Z</time>
      </trkpt>
      <trkpt lat="43.49059" lon="-1.29912">
        <ele>46.58</ele>
        <time>2021-06-06T03:22:24Z</time>
      </trkpt>
      <trkpt lat="43.49121" lon="-1.29882">
        <ele>42.65</ele>
        <time>2021-06-06T03:22:27Z</time>
      </trkpt>
      <trkpt lat="43.49203" lon="-1.29863">
        <ele>41.78</ele>
        <time>2021-06-06T03:22:30Z</time>
      </trkpt>
      <trkpt lat="43.49213" lon="-1.29859">
        <ele>41.3</ele>
        <time>2021-06-06T03:22:33Z</time>
      </trkpt>
      <trkpt lat="43.49249" lon="-1.2985">
        <ele>41</ele>
        <time>2021-06-06T03:22:35Z</time>
      </trkpt>
      <trkpt lat="43.4928" lon="-1.29844">
        <ele>40.57</ele>
        <time>2021-06-06T03:22:38Z</time>
      </trkpt>
      <trkpt lat="43.49291" lon="-1.29849">
        <ele>40.2</ele>
        <time>2021-06-06T03:22:41Z</time>
      </trkpt>
      <trkpt lat="43.49397" lon="-1.29905">
        <ele>36.54</ele>
        <time>2021-06-06T03:22:44Z</time>
      </trkpt>
      <trkpt lat="43.49428" lon="-1.29913">
        <ele>34.94</ele>
        <time>2021-06-06T03:22:46Z</time>
      </trkpt>
      <trkpt lat="43.49648" lon="-1.29931">
        <ele>27.36</ele>
        <time>2021-06-06T03:22:49Z</time>
      </trkpt>
      <trkpt lat="43.49672" lon="-1.29928">
        <ele>25.25</ele>
        <time>2021-06-06T03:22:52Z</time>
      </trkpt>
      <trkpt lat="43.4969" lon="-1.2992">
        <ele>23.39</ele>
        <time>2021-06-06T03:22:55Z</time>
      </trkpt>
      <trkpt lat="43.4973" lon="-1.29888">
        <ele>22.4</ele>
        <time>2021-06-06T03:22:58Z</time>
      </trkpt>
      <trkpt lat="43.49756" lon="-1.29873">
        <ele>19.6</ele>
        <time>2021-06-06T03:23:00Z</time>
      </trkpt>
      <trkpt lat="43.49785" lon="-1.29859">
        <ele>14.91</ele>
        <time>2021-06-06T03:23:03Z</time>
      </trkpt>
      <trkpt lat="43.49895" lon="-1.29826">
        <ele>3.23</ele>
        <time>2021-06-06T03:23:06Z</time>
      </trkpt>
      <trkpt lat="43.49902" lon="-1.29818">
        <ele>3.48</ele>
        <time>2021-06-06T03:23:09Z</time>
      </trkpt>
      <trkpt lat="43.49895" lon="-1.29805">
        <ele>3.2</ele>
        <time>2021-06-06T03:23:10Z</time>
      </trkpt>
      <trkpt lat="43.49887" lon="-1.29772">
        <ele>3.21</ele>
        <time>2021-06-06T03:23:10Z</time>
      </trkpt>
      <trkpt lat="43.49877" lon="-1.29718">
        <ele>6.33</ele>
        <time>2021-06-06T03:23:11Z</time>
      </trkpt>
      <trkpt lat="43.49873" lon="-1.29706">
        <ele>7.17</ele>
        <time>2021-06-06T03:23:12Z</time>
      </trkpt>
      <trkpt lat="43.49868" lon="-1.29696">
        <ele>7.92</ele>
        <time>2021-06-06T03:23:13Z</time>
      </trkpt>
      <trkpt lat="43.49863" lon="-1.29688">
        <ele>8.75</ele>
        <time>2021-06-06T03:23:14Z</time>
      </trkpt>
      <trkpt lat="43.49851" lon="-1.29675">
        <ele>9.36</ele>
        <time>2021-06-06T03:23:15Z</time>
      </trkpt>
      <trkpt lat="43.49833" lon="-1.29667">
        <ele>8.95</ele>
        <time>2021-06-06T03:23:16Z</time>
      </trkpt>
      <trkpt lat="43.4981" lon="-1.2965">
        <ele>7.8</ele>
        <time>2021-06-06T03:23:17Z</time>
      </trkpt>
      <trkpt lat="43.49797" lon="-1.29635">
        <ele>8.88</ele>
        <time>2021-06-06T03:23:18Z</time>
      </trkpt>
      <trkpt lat="43.49809" lon="-1.29615">
        <ele>8.69</ele>
        <time>2021-06-06T03:23:21Z</time>
      </trkpt>
      <trkpt lat="43.49814" lon="-1.29593">
        <ele>8.31</ele>
        <time>2021-06-06T03:23:25Z</time>
      </trkpt>
      <trkpt lat="43.49813" lon="-1.2958">
        <ele>8.45</ele>
        <time>2021-06-06T03:23:28Z</time>
      </trkpt>
      <trkpt lat="43.49816" lon="-1.29574">
        <ele>7.95</ele>
        <time>2021-06-06T03:23:31Z</time>
      </trkpt>
      <trkpt lat="43.49945" lon="-1.29422">
        <ele>1</ele>
        <time>2021-06-06T03:23:34Z</time>
      </trkpt>
      <trkpt lat="43.4998" lon="-1.29384">
        <ele>3.32</ele>
        <time>2021-06-06T03:23:38Z</time>
      </trkpt>
      <trkpt lat="43.50021" lon="-1.29359">
        <ele>1.24</ele>
        <time>2021-06-06T03:23:41Z</time>
      </trkpt>
      <trkpt lat="43.50277" lon="-1.29277">
        <ele>0.93</ele>
        <time>2021-06-06T03:23:44Z</time>
      </trkpt>
      <trkpt lat="43.50292" lon="-1.29265">
        <ele>1.05</ele>
        <time>2021-06-06T03:23:48Z</time>
      </trkpt>
      <trkpt lat="43.50297" lon="-1.29257">
        <ele>0.95</ele>
        <time>2021-06-06T03:23:51Z</time>
      </trkpt>
      <trkpt lat="43.50302" lon="-1.29257">
        <ele>1.1</ele>
        <time>2021-06-06T03:23:54Z</time>
      </trkpt>
      <trkpt lat="43.50306" lon="-1.2926">
        <ele>1.37</ele>
        <time>2021-06-06T03:23:57Z</time>
      </trkpt>
      <trkpt lat="43.50308" lon="-1.29265">
        <ele>1.64</ele>
        <time>2021-06-06T03:24:00Z</time>
      </trkpt>
      <trkpt lat="43.50307" lon="-1.29274">
        <ele>1.92</ele>
        <time>2021-06-06T03:24:03Z</time>
      </trkpt>
      <trkpt lat="43.5031" lon="-1.29325">
        <ele>3.15</ele>
        <time>2021-06-06T03:24:06Z</time>
      </trkpt>
      <trkpt lat="43.50307" lon="-1.29383">
        <ele>0.47</ele>
        <time>2021-06-06T03:24:09Z</time>
      </trkpt>
      <trkpt lat="43.5031" lon="-1.29612">
        <ele>0.17</ele>
        <time>2021-06-06T03:24:12Z</time>
      </trkpt>
      <trkpt lat="43.50308" lon="-1.29652">
        <ele>0.59</ele>
        <time>2021-06-06T03:24:15Z</time>
      </trkpt>
      <trkpt lat="43.50292" lon="-1.29748">
        <ele>1.95</ele>
        <time>2021-06-06T03:24:18Z</time>
      </trkpt>
      <trkpt lat="43.50295" lon="-1.29773">
        <ele>1.69</ele>
        <time>2021-06-06T03:24:21Z</time>
      </trkpt>
      <trkpt lat="43.5032" lon="-1.29809">
        <ele>1.58</ele>
        <time>2021-06-06T03:24:25Z</time>
      </trkpt>
      <trkpt lat="43.50331" lon="-1.29831">
        <ele>1.99</ele>
        <time>2021-06-06T03:24:28Z</time>
      </trkpt>
      <trkpt lat="43.50352" lon="-1.29981">
        <ele>1</ele>
        <time>2021-06-06T03:24:31Z</time>
      </trkpt>
      <trkpt lat="43.50376" lon="-1.30075">
        <ele>1.68</ele>
        <time>2021-06-06T03:24:34Z</time>
      </trkpt>
      <trkpt lat="43.5038" lon="-1.30094">
        <ele>2.14</ele>
        <time>2021-06-06T03:24:37Z</time>
      </trkpt>
      <trkpt lat="43.50375" lon="-1.30121">
        <ele>1.98</ele>
        <time>2021-06-06T03:24:40Z</time>
      </trkpt>
      <trkpt lat="43.50357" lon="-1.30148">
        <ele>1.67</ele>
        <time>2021-06-06T03:24:43Z</time>
      </trkpt>
      <trkpt lat="43.50351" lon="-1.30166">
        <ele>3.08</ele>
        <time>2021-06-06T03:24:46Z</time>
      </trkpt>
      <trkpt lat="43.50351" lon="-1.30195">
        <ele>4.12</ele>
        <time>2021-06-06T03:24:49Z</time>
      </trkpt>
      <trkpt lat="43.50408" lon="-1.3056">
        <ele>2.66</ele>
        <time>2021-06-06T03:24:52Z</time>
      </trkpt>
      <trkpt lat="43.50432" lon="-1.31025">
        <ele>-0.56</ele>
        <time>2021-06-06T03:24:55Z</time>
      </trkpt>
      <trkpt lat="43.50487" lon="-1.3144">
        <ele>0.57</ele>
        <time>2021-06-06T03:24:58Z</time>
      </trkpt>
      <trkpt lat="43.50494" lon="-1.31602">
        <ele>1</ele>
        <time>2021-06-06T03:25:01Z</time>
      </trkpt>
      <trkpt lat="43.50517" lon="-1.31816">
        <ele>1.38</ele>
        <time>2021-06-06T03:25:04Z</time>
      </trkpt>
      <trkpt lat="43.50559" lon="-1.32144">
        <ele>5.7</ele>
        <time>2021-06-06T03:25:08Z</time>
      </trkpt>
      <trkpt lat="43.50572" lon="-1.32179">
        <ele>3.79</ele>
        <time>2021-06-06T03:25:11Z</time>
      </trkpt>
      <trkpt lat="43.50578" lon="-1.32211">
        <ele>2.35</ele>
        <time>2021-06-06T03:25:14Z</time>
      </trkpt>
      <trkpt lat="43.5058" lon="-1.3223">
        <ele>1.59</ele>
        <time>2021-06-06T03:25:17Z</time>
      </trkpt>
      <trkpt lat="43.50575" lon="-1.32264">
        <ele>1.37</ele>
        <time>2021-06-06T03:25:20Z</time>
      </trkpt>
      <trkpt lat="43.50572" lon="-1.32325">
        <ele>2.72</ele>
        <time>2021-06-06T03:25:23Z</time>
      </trkpt>
      <trkpt lat="43.50579" lon="-1.32401">
        <ele>3.53</ele>
        <time>2021-06-06T03:25:26Z</time>
      </trkpt>
      <trkpt lat="43.50579" lon="-1.32467">
        <ele>3.14</ele>
        <time>2021-06-06T03:25:29Z</time>
      </trkpt>
      <trkpt lat="43.50584" lon="-1.32491">
        <ele>2.33</ele>
        <time>2021-06-06T03:25:32Z</time>
      </trkpt>
      <trkpt lat="43.50585" lon="-1.32515">
        <ele>2.51</ele>
        <time>2021-06-06T03:25:35Z</time>
      </trkpt>
      <trkpt lat="43.50565" lon="-1.32578">
        <ele>4.27</ele>
        <time>2021-06-06T03:25:38Z</time>
      </trkpt>
      <trkpt lat="43.50559" lon="-1.32602">
        <ele>4.11</ele>
        <time>2021-06-06T03:25:41Z</time>
      </trkpt>
      <trkpt lat="43.50546" lon="-1.32687">
        <ele>1.9</ele>
        <time>2021-06-06T03:25:44Z</time>
      </trkpt>
      <trkpt lat="43.50537" lon="-1.32729">
        <ele>4.55</ele>
        <time>2021-06-06T03:25:48Z</time>
      </trkpt>
      <trkpt lat="43.50509" lon="-1.32928">
        <ele>1.79</ele>
        <time>2021-06-06T03:25:51Z</time>
      </trkpt>
      <trkpt lat="43.50475" lon="-1.33112">
        <ele>3.86</ele>
        <time>2021-06-06T03:25:54Z</time>
      </trkpt>
      <trkpt lat="43.50454" lon="-1.33214">
        <ele>2.95</ele>
        <time>2021-06-06T03:25:57Z</time>
      </trkpt>
      <trkpt lat="43.50417" lon="-1.33547">
        <ele>2.99</ele>
        <time>2021-06-06T03:26:00Z</time>
      </trkpt>
      <trkpt lat="43.50403" lon="-1.33658">
        <ele>5.32</ele>
        <time>2021-06-06T03:26:03Z</time>
      </trkpt>
      <trkpt lat="43.50399" lon="-1.33684">
        <ele>5.65</ele>
        <time>2021-06-06T03:26:06Z</time>
      </trkpt>
      <trkpt lat="43.50395" lon="-1.33693">
        <ele>5.79</ele>
        <time>2021-06-06T03:26:09Z</time>
      </trkpt>
      <trkpt lat="43.50374" lon="-1.33721">
        <ele>4.38</ele>
        <time>2021-06-06T03:26:12Z</time>
      </trkpt>
      <trkpt lat="43.50367" lon="-1.33733">
        <ele>3.65</ele>
        <time>2021-06-06T03:26:15Z</time>
      </trkpt>
      <trkpt lat="43.50364" lon="-1.3375">
        <ele>2.9</ele>
        <time>2021-06-06T03:26:18Z</time>
      </trkpt>
      <trkpt lat="43.50358" lon="-1.33827">
        <ele>1.12</ele>
        <time>2021-06-06T03:26:21Z</time>
      </trkpt>
      <trkpt lat="43.50353" lon="-1.33852">
        <ele>1.5</ele>
        <time>2021-06-06T03:26:24Z</time>
      </trkpt>
      <trkpt lat="43.50343" lon="-1.33929">
        <ele>1.36</ele>
        <time>2021-06-06T03:26:28Z</time>
      </trkpt>
      <trkpt lat="43.50333" lon="-1.34037">
        <ele>0.68</ele>
        <time>2021-06-06T03:26:31Z</time>
      </trkpt>
      <trkpt lat="43.50319" lon="-1.34105">
        <ele>0.92</ele>
        <time>2021-06-06T03:26:34Z</time>
      </trkpt>
      <trkpt lat="43.50288" lon="-1.34211">
        <ele>2.6</ele>
        <time>2021-06-06T03:26:37Z</time>
      </trkpt>
      <trkpt lat="43.50271" lon="-1.34287">
        <ele>3.91</ele>
        <time>2021-06-06T03:26:40Z</time>
      </trkpt>
      <trkpt lat="43.50264" lon="-1.34304">
        <ele>3.53</ele>
        <time>2021-06-06T03:26:43Z</time>
      </trkpt>
      <trkpt lat="43.50252" lon="-1.34326">
        <ele>1.65</ele>
        <time>2021-06-06T03:26:46Z</time>
      </trkpt>
      <trkpt lat="43.50244" lon="-1.34345">
        <ele>1</ele>
        <time>2021-06-06T03:26:49Z</time>
      </trkpt>
      <trkpt lat="43.50232" lon="-1.34416">
        <ele>1.01</ele>
        <time>2021-06-06T03:26:52Z</time>
      </trkpt>
      <trkpt lat="43.50218" lon="-1.34476">
        <ele>1.13</ele>
        <time>2021-06-06T03:26:55Z</time>
      </trkpt>
      <trkpt lat="43.5021" lon="-1.34496">
        <ele>1.06</ele>
        <time>2021-06-06T03:26:58Z</time>
      </trkpt>
      <trkpt lat="43.50205" lon="-1.34513">
        <ele>0.82</ele>
        <time>2021-06-06T03:27:01Z</time>
      </trkpt>
      <trkpt lat="43.50203" lon="-1.34549">
        <ele>0.68</ele>
        <time>2021-06-06T03:27:04Z</time>
      </trkpt>
      <trkpt lat="43.50173" lon="-1.34685">
        <ele>1.73</ele>
        <time>2021-06-06T03:27:07Z</time>
      </trkpt>
      <trkpt lat="43.50159" lon="-1.34766">
        <ele>1.74</ele>
        <time>2021-06-06T03:27:11Z</time>
      </trkpt>
      <trkpt lat="43.50115" lon="-1.34985">
        <ele>1.46</ele>
        <time>2021-06-06T03:27:14Z</time>
      </trkpt>
      <trkpt lat="43.50103" lon="-1.35062">
        <ele>1</ele>
        <time>2021-06-06T03:27:17Z</time>
      </trkpt>
      <trkpt lat="43.50097" lon="-1.35111">
        <ele>1</ele>
        <time>2021-06-06T03:27:20Z</time>
      </trkpt>
      <trkpt lat="43.50091" lon="-1.352">
        <ele>1.14</ele>
        <time>2021-06-06T03:27:23Z</time>
      </trkpt>
      <trkpt lat="43.50089" lon="-1.35331">
        <ele>1</ele>
        <time>2021-06-06T03:27:26Z</time>
      </trkpt>
      <trkpt lat="43.50086" lon="-1.35369">
        <ele>2.81</ele>
        <time>2021-06-06T03:27:29Z</time>
      </trkpt>
      <trkpt lat="43.50088" lon="-1.35416">
        <ele>3.6</ele>
        <time>2021-06-06T03:27:32Z</time>
      </trkpt>
      <trkpt lat="43.50069" lon="-1.35584">
        <ele>2.94</ele>
        <time>2021-06-06T03:27:35Z</time>
      </trkpt>
      <trkpt lat="43.50061" lon="-1.35635">
        <ele>0.32</ele>
        <time>2021-06-06T03:27:38Z</time>
      </trkpt>
      <trkpt lat="43.50051" lon="-1.35674">
        <ele>1.56</ele>
        <time>2021-06-06T03:27:41Z</time>
      </trkpt>
      <trkpt lat="43.50043" lon="-1.35715">
        <ele>4.19</ele>
        <time>2021-06-06T03:27:44Z</time>
      </trkpt>
      <trkpt lat="43.49986" lon="-1.36065">
        <ele>4.69</ele>
        <time>2021-06-06T03:27:47Z</time>
      </trkpt>
      <trkpt lat="43.4998" lon="-1.36096">
        <ele>4.29</ele>
        <time>2021-06-06T03:27:51Z</time>
      </trkpt>
      <trkpt lat="43.49967" lon="-1.36139">
        <ele>2.79</ele>
        <time>2021-06-06T03:27:54Z</time>
      </trkpt>
      <trkpt lat="43.49945" lon="-1.36193">
        <ele>1.07</ele>
        <time>2021-06-06T03:27:57Z</time>
      </trkpt>
      <trkpt lat="43.49924" lon="-1.36231">
        <ele>2.62</ele>
        <time>2021-06-06T03:28:00Z</time>
      </trkpt>
      <trkpt lat="43.49712" lon="-1.36547">
        <ele>1.87</ele>
        <time>2021-06-06T03:28:03Z</time>
      </trkpt>
      <trkpt lat="43.4969" lon="-1.36587">
        <ele>2.12</ele>
        <time>2021-06-06T03:28:06Z</time>
      </trkpt>
      <trkpt lat="43.49682" lon="-1.36613">
        <ele>1.13</ele>
        <time>2021-06-06T03:28:09Z</time>
      </trkpt>
      <trkpt lat="43.49669" lon="-1.36682">
        <ele>2.99</ele>
        <time>2021-06-06T03:28:12Z</time>
      </trkpt>
      <trkpt lat="43.49664" lon="-1.36751">
        <ele>-1.69</ele>
        <time>2021-06-06T03:28:15Z</time>
      </trkpt>
      <trkpt lat="43.49652" lon="-1.3686">
        <ele>2.51</ele>
        <time>2021-06-06T03:28:18Z</time>
      </trkpt>
      <trkpt lat="43.4965" lon="-1.36894">
        <ele>2.95</ele>
        <time>2021-06-06T03:28:21Z</time>
      </trkpt>
      <trkpt lat="43.49658" lon="-1.37109">
        <ele>3.16</ele>
        <time>2021-06-06T03:28:24Z</time>
      </trkpt>
      <trkpt lat="43.49663" lon="-1.37178">
        <ele>2.51</ele>
        <time>2021-06-06T03:28:27Z</time>
      </trkpt>
      <trkpt lat="43.49715" lon="-1.37607">
        <ele>1.22</ele>
        <time>2021-06-06T03:28:31Z</time>
      </trkpt>
      <trkpt lat="43.49727" lon="-1.37694">
        <ele>4.3</ele>
        <time>2021-06-06T03:28:34Z</time>
      </trkpt>
      <trkpt lat="43.49755" lon="-1.37865">
        <ele>2.94</ele>
        <time>2021-06-06T03:28:37Z</time>
      </trkpt>
      <trkpt lat="43.4977" lon="-1.37931">
        <ele>4.57</ele>
        <time>2021-06-06T03:28:40Z</time>
      </trkpt>
      <trkpt lat="43.49776" lon="-1.37952">
        <ele>4.91</ele>
        <time>2021-06-06T03:28:43Z</time>
      </trkpt>
      <trkpt lat="43.49786" lon="-1.38116">
        <ele>0.89</ele>
        <time>2021-06-06T03:28:46Z</time>
      </trkpt>
      <trkpt lat="43.49803" lon="-1.38313">
        <ele>1.38</ele>
        <time>2021-06-06T03:28:49Z</time>
      </trkpt>
      <trkpt lat="43.49803" lon="-1.38339">
        <ele>2.22</ele>
        <time>2021-06-06T03:28:52Z</time>
      </trkpt>
      <trkpt lat="43.49797" lon="-1.3845">
        <ele>1.2</ele>
        <time>2021-06-06T03:28:55Z</time>
      </trkpt>
      <trkpt lat="43.49799" lon="-1.3853">
        <ele>2.76</ele>
        <time>2021-06-06T03:28:58Z</time>
      </trkpt>
      <trkpt lat="43.49794" lon="-1.38577">
        <ele>1.38</ele>
        <time>2021-06-06T03:29:01Z</time>
      </trkpt>
      <trkpt lat="43.49791" lon="-1.38627">
        <ele>1.39</ele>
        <time>2021-06-06T03:29:04Z</time>
      </trkpt>
      <trkpt lat="43.49794" lon="-1.38817">
        <ele>0.41</ele>
        <time>2021-06-06T03:29:07Z</time>
      </trkpt>
      <trkpt lat="43.49787" lon="-1.38982">
        <ele>3.11</ele>
        <time>2021-06-06T03:29:10Z</time>
      </trkpt>
      <trkpt lat="43.49782" lon="-1.39023">
        <ele>2.28</ele>
        <time>2021-06-06T03:29:14Z</time>
      </trkpt>
      <trkpt lat="43.49781" lon="-1.39061">
        <ele>1.07</ele>
        <time>2021-06-06T03:29:17Z</time>
      </trkpt>
      <trkpt lat="43.49783" lon="-1.39182">
        <ele>0.7</ele>
        <time>2021-06-06T03:29:20Z</time>
      </trkpt>
      <trkpt lat="43.49777" lon="-1.39388">
        <ele>1.97</ele>
        <time>2021-06-06T03:29:23Z</time>
      </trkpt>
      <trkpt lat="43.49778" lon="-1.3942">
        <ele>2.19</ele>
        <time>2021-06-06T03:29:26Z</time>
      </trkpt>
      <trkpt lat="43.49781" lon="-1.39464">
        <ele>3.82</ele>
        <time>2021-06-06T03:29:29Z</time>
      </trkpt>
      <trkpt lat="43.49795" lon="-1.39579">
        <ele>2.46</ele>
        <time>2021-06-06T03:29:32Z</time>
      </trkpt>
      <trkpt lat="43.49813" lon="-1.39695">
        <ele>3.04</ele>
        <time>2021-06-06T03:29:35Z</time>
      </trkpt>
      <trkpt lat="43.49824" lon="-1.3983">
        <ele>2.51</ele>
        <time>2021-06-06T03:29:38Z</time>
      </trkpt>
      <trkpt lat="43.49835" lon="-1.39897">
        <ele>1.66</ele>
        <time>2021-06-06T03:29:41Z</time>
      </trkpt>
      <trkpt lat="43.49844" lon="-1.39974">
        <ele>2.15</ele>
        <time>2021-06-06T03:29:44Z</time>
      </trkpt>
      <trkpt lat="43.49857" lon="-1.40116">
        <ele>1.84</ele>
        <time>2021-06-06T03:29:47Z</time>
      </trkpt>
      <trkpt lat="43.49887" lon="-1.40496">
        <ele>0.09</ele>
        <time>2021-06-06T03:29:50Z</time>
      </trkpt>
      <trkpt lat="43.49885" lon="-1.40669">
        <ele>1.01</ele>
        <time>2021-06-06T03:29:54Z</time>
      </trkpt>
      <trkpt lat="43.4988" lon="-1.40851">
        <ele>1.8</ele>
        <time>2021-06-06T03:29:57Z</time>
      </trkpt>
      <trkpt lat="43.49869" lon="-1.41128">
        <ele>1.28</ele>
        <time>2021-06-06T03:30:00Z</time>
      </trkpt>
      <trkpt lat="43.49857" lon="-1.41275">
        <ele>1</ele>
        <time>2021-06-06T03:30:03Z</time>
      </trkpt>
      <trkpt lat="43.49853" lon="-1.41398">
        <ele>0.56</ele>
        <time>2021-06-06T03:30:06Z</time>
      </trkpt>
      <trkpt lat="43.49847" lon="-1.41466">
        <ele>2.2</ele>
        <time>2021-06-06T03:30:09Z</time>
      </trkpt>
      <trkpt lat="43.49837" lon="-1.41558">
        <ele>1.12</ele>
        <time>2021-06-06T03:30:12Z</time>
      </trkpt>
      <trkpt lat="43.49833" lon="-1.41613">
        <ele>1.15</ele>
        <time>2021-06-06T03:30:15Z</time>
      </trkpt>
      <trkpt lat="43.49815" lon="-1.41788">
        <ele>1</ele>
        <time>2021-06-06T03:30:18Z</time>
      </trkpt>
      <trkpt lat="43.49799" lon="-1.41884">
        <ele>-0.51</ele>
        <time>2021-06-06T03:30:21Z</time>
      </trkpt>
      <trkpt lat="43.49798" lon="-1.419">
        <ele>-0.43</ele>
        <time>2021-06-06T03:30:24Z</time>
      </trkpt>
      <trkpt lat="43.49798" lon="-1.41941">
        <ele>0.39</ele>
        <time>2021-06-06T03:30:27Z</time>
      </trkpt>
      <trkpt lat="43.49786" lon="-1.42022">
        <ele>3.41</ele>
        <time>2021-06-06T03:30:30Z</time>
      </trkpt>
      <trkpt lat="43.4978" lon="-1.42088">
        <ele>2.66</ele>
        <time>2021-06-06T03:30:34Z</time>
      </trkpt>
      <trkpt lat="43.49772" lon="-1.42156">
        <ele>0.85</ele>
        <time>2021-06-06T03:30:37Z</time>
      </trkpt>
      <trkpt lat="43.49761" lon="-1.42265">
        <ele>0.23</ele>
        <time>2021-06-06T03:30:40Z</time>
      </trkpt>
      <trkpt lat="43.49746" lon="-1.42349">
        <ele>-0.36</ele>
        <time>2021-06-06T03:30:43Z</time>
      </trkpt>
      <trkpt lat="43.49708" lon="-1.42501">
        <ele>0.51</ele>
        <time>2021-06-06T03:30:46Z</time>
      </trkpt>
      <trkpt lat="43.49674" lon="-1.42627">
        <ele>1.74</ele>
        <time>2021-06-06T03:30:49Z</time>
      </trkpt>
      <trkpt lat="43.49668" lon="-1.42659">
        <ele>1.9</ele>
        <time>2021-06-06T03:30:52Z</time>
      </trkpt>
      <trkpt lat="43.49669" lon="-1.42696">
        <ele>1.87</ele>
        <time>2021-06-06T03:30:55Z</time>
      </trkpt>
      <trkpt lat="43.49673" lon="-1.42712">
        <ele>1.29</ele>
        <time>2021-06-06T03:30:58Z</time>
      </trkpt>
      <trkpt lat="43.49679" lon="-1.42723">
        <ele>1</ele>
        <time>2021-06-06T03:31:01Z</time>
      </trkpt>
      <trkpt lat="43.49693" lon="-1.42733">
        <ele>1</ele>
        <time>2021-06-06T03:31:04Z</time>
      </trkpt>
      <trkpt lat="43.49763" lon="-1.42766">
        <ele>3.56</ele>
        <time>2021-06-06T03:31:07Z</time>
      </trkpt>
      <trkpt lat="43.4977" lon="-1.42774">
        <ele>5.41</ele>
        <time>2021-06-06T03:31:10Z</time>
      </trkpt>
      <trkpt lat="43.49774" lon="-1.42788">
        <ele>6.92</ele>
        <time>2021-06-06T03:31:13Z</time>
      </trkpt>
      <trkpt lat="43.49777" lon="-1.42863">
        <ele>7.84</ele>
        <time>2021-06-06T03:31:17Z</time>
      </trkpt>
      <trkpt lat="43.49776" lon="-1.42874">
        <ele>7.31</ele>
        <time>2021-06-06T03:31:20Z</time>
      </trkpt>
      <trkpt lat="43.49745" lon="-1.42913">
        <ele>5.16</ele>
        <time>2021-06-06T03:31:23Z</time>
      </trkpt>
      <trkpt lat="43.49737" lon="-1.42942">
        <ele>6.84</ele>
        <time>2021-06-06T03:31:26Z</time>
      </trkpt>
      <trkpt lat="43.49738" lon="-1.42951">
        <ele>7.43</ele>
        <time>2021-06-06T03:31:29Z</time>
      </trkpt>
      <trkpt lat="43.49745" lon="-1.42973">
        <ele>9.08</ele>
        <time>2021-06-06T03:31:32Z</time>
      </trkpt>
      <trkpt lat="43.49767" lon="-1.43121">
        <ele>18.72</ele>
        <time>2021-06-06T03:31:35Z</time>
      </trkpt>
      <trkpt lat="43.49764" lon="-1.43267">
        <ele>24.68</ele>
        <time>2021-06-06T03:31:38Z</time>
      </trkpt>
      <trkpt lat="43.4976" lon="-1.43297">
        <ele>25.43</ele>
        <time>2021-06-06T03:31:41Z</time>
      </trkpt>
      <trkpt lat="43.49753" lon="-1.43311">
        <ele>25.94</ele>
        <time>2021-06-06T03:31:44Z</time>
      </trkpt>
      <trkpt lat="43.49745" lon="-1.4332">
        <ele>26.34</ele>
        <time>2021-06-06T03:31:47Z</time>
      </trkpt>
      <trkpt lat="43.49718" lon="-1.43338">
        <ele>28.19</ele>
        <time>2021-06-06T03:31:50Z</time>
      </trkpt>
      <trkpt lat="43.49699" lon="-1.43347">
        <ele>29.61</ele>
        <time>2021-06-06T03:31:53Z</time>
      </trkpt>
      <trkpt lat="43.49679" lon="-1.4336">
        <ele>30</ele>
        <time>2021-06-06T03:31:57Z</time>
      </trkpt>
      <trkpt lat="43.49663" lon="-1.43378">
        <ele>29.91</ele>
        <time>2021-06-06T03:32:00Z</time>
      </trkpt>
      <trkpt lat="43.49644" lon="-1.43412">
        <ele>30.82</ele>
        <time>2021-06-06T03:32:03Z</time>
      </trkpt>
      <trkpt lat="43.49646" lon="-1.43417">
        <ele>31</ele>
        <time>2021-06-06T03:32:06Z</time>
      </trkpt>
      <trkpt lat="43.49646" lon="-1.43421">
        <ele>31</ele>
        <time>2021-06-06T03:32:10Z</time>
      </trkpt>
      <trkpt lat="43.49644" lon="-1.43426">
        <ele>31</ele>
        <time>2021-06-06T03:32:13Z</time>
      </trkpt>
      <trkpt lat="43.49638" lon="-1.43428">
        <ele>31.01</ele>
        <time>2021-06-06T03:32:17Z</time>
      </trkpt>
      <trkpt lat="43.49634" lon="-1.43424">
        <ele>31.14</ele>
        <time>2021-06-06T03:32:20Z</time>
      </trkpt>
      <trkpt lat="43.49619" lon="-1.43448">
        <ele>30.86</ele>
        <time>2021-06-06T03:32:24Z</time>
      </trkpt>
      <trkpt lat="43.49617" lon="-1.4346">
        <ele>30.44</ele>
        <time>2021-06-06T03:32:27Z</time>
      </trkpt>
      <trkpt lat="43.49613" lon="-1.43602">
        <ele>29.1</ele>
        <time>2021-06-06T03:32:31Z</time>
      </trkpt>
      <trkpt lat="43.49611" lon="-1.43749">
        <ele>28.01</ele>
        <time>2021-06-06T03:32:35Z</time>
      </trkpt>
      <trkpt lat="43.49604" lon="-1.43769">
        <ele>28.76</ele>
        <time>2021-06-06T03:32:38Z</time>
      </trkpt>
      <trkpt lat="43.49599" lon="-1.43778">
        <ele>29</ele>
        <time>2021-06-06T03:32:42Z</time>
      </trkpt>
      <trkpt lat="43.49593" lon="-1.43784">
        <ele>29.14</ele>
        <time>2021-06-06T03:32:45Z</time>
      </trkpt>
      <trkpt lat="43.49585" lon="-1.43787">
        <ele>29.32</ele>
        <time>2021-06-06T03:32:49Z</time>
      </trkpt>
      <trkpt lat="43.49571" lon="-1.43789">
        <ele>29.49</ele>
        <time>2021-06-06T03:32:52Z</time>
      </trkpt>
      <trkpt lat="43.49536" lon="-1.43774">
        <ele>29.26</ele>
        <time>2021-06-06T03:32:56Z</time>
      </trkpt>
      <trkpt lat="43.49529" lon="-1.43773">
        <ele>29.03</ele>
        <time>2021-06-06T03:32:59Z</time>
      </trkpt>
      <trkpt lat="43.49517" lon="-1.43777">
        <ele>29.38</ele>
        <time>2021-06-06T03:33:03Z</time>
      </trkpt>
      <trkpt lat="43.49512" lon="-1.43782">
        <ele>29.48</ele>
        <time>2021-06-06T03:33:06Z</time>
      </trkpt>
      <trkpt lat="43.49508" lon="-1.43791">
        <ele>29.38</ele>
        <time>2021-06-06T03:33:10Z</time>
      </trkpt>
      <trkpt lat="43.49506" lon="-1.43805">
        <ele>29.03</ele>
        <time>2021-06-06T03:33:13Z</time>
      </trkpt>
      <trkpt lat="43.49508" lon="-1.43825">
        <ele>29</ele>
        <time>2021-06-06T03:33:17Z</time>
      </trkpt>
      <trkpt lat="43.4952" lon="-1.43894">
        <ele>28.11</ele>
        <time>2021-06-06T03:33:20Z</time>
      </trkpt>
      <trkpt lat="43.49519" lon="-1.43918">
        <ele>27.32</ele>
        <time>2021-06-06T03:33:24Z</time>
      </trkpt>
      <trkpt lat="43.49495" lon="-1.44024">
        <ele>27.5</ele>
        <time>2021-06-06T03:33:27Z</time>
      </trkpt>
      <trkpt lat="43.49485" lon="-1.44074">
        <ele>25.73</ele>
        <time>2021-06-06T03:33:31Z</time>
      </trkpt>
      <trkpt lat="43.49454" lon="-1.44296">
        <ele>28.23</ele>
        <time>2021-06-06T03:33:34Z</time>
      </trkpt>
      <trkpt lat="43.49441" lon="-1.44369">
        <ele>27.72</ele>
        <time>2021-06-06T03:33:38Z</time>
      </trkpt>
      <trkpt lat="43.49409" lon="-1.44504">
        <ele>29.5</ele>
        <time>2021-06-06T03:33:41Z</time>
      </trkpt>
      <trkpt lat="43.49388" lon="-1.44583">
        <ele>30</ele>
        <time>2021-06-06T03:33:45Z</time>
      </trkpt>
      <trkpt lat="43.4939" lon="-1.4459">
        <ele>29.83</ele>
        <time>2021-06-06T03:33:49Z</time>
      </trkpt>
      <trkpt lat="43.49371" lon="-1.44661">
        <ele>29.78</ele>
        <time>2021-06-06T03:33:52Z</time>
      </trkpt>
      <trkpt lat="43.49365" lon="-1.4467">
        <ele>30.02</ele>
        <time>2021-06-06T03:33:56Z</time>
      </trkpt>
      <trkpt lat="43.49358" lon="-1.44698">
        <ele>29.66</ele>
        <time>2021-06-06T03:33:59Z</time>
      </trkpt>
      <trkpt lat="43.49351" lon="-1.44715">
        <ele>28.79</ele>
        <time>2021-06-06T03:34:03Z</time>
      </trkpt>
      <trkpt lat="43.4931" lon="-1.44793">
        <ele>22.98</ele>
        <time>2021-06-06T03:34:06Z</time>
      </trkpt>
      <trkpt lat="43.49303" lon="-1.44811">
        <ele>21.42</ele>
        <time>2021-06-06T03:34:10Z</time>
      </trkpt>
      <trkpt lat="43.49299" lon="-1.44833">
        <ele>19.25</ele>
        <time>2021-06-06T03:34:13Z</time>
      </trkpt>
      <trkpt lat="43.49296" lon="-1.44876">
        <ele>16.24</ele>
        <time>2021-06-06T03:34:17Z</time>
      </trkpt>
      <trkpt lat="43.4932" lon="-1.44984">
        <ele>9.19</ele>
        <time>2021-06-06T03:34:20Z</time>
      </trkpt>
      <trkpt lat="43.49365" lon="-1.45076">
        <ele>4.28</ele>
        <time>2021-06-06T03:34:24Z</time>
      </trkpt>
      <trkpt lat="43.49378" lon="-1.45111">
        <ele>3.01</ele>
        <time>2021-06-06T03:34:27Z</time>
      </trkpt>
      <trkpt lat="43.49379" lon="-1.45146">
        <ele>2.91</ele>
        <time>2021-06-06T03:34:30Z</time>
      </trkpt>
      <trkpt lat="43.49375" lon="-1.45167">
        <ele>3.49</ele>
        <time>2021-06-06T03:34:32Z</time>
      </trkpt>
      <trkpt lat="43.4937" lon="-1.45178">
        <ele>3.73</ele>
        <time>2021-06-06T03:34:35Z</time>
      </trkpt>
      <trkpt lat="43.49362" lon="-1.4519">
        <ele>3.86</ele>
        <time>2021-06-06T03:34:37Z</time>
      </trkpt>
      <trkpt lat="43.4933" lon="-1.45228">
        <ele>6.17</ele>
        <time>2021-06-06T03:34:39Z</time>
      </trkpt>
      <trkpt lat="43.49283" lon="-1.45299">
        <ele>4.04</ele>
        <time>2021-06-06T03:34:42Z</time>
      </trkpt>
      <trkpt lat="43.49271" lon="-1.45309">
        <ele>3.7</ele>
        <time>2021-06-06T03:34:44Z</time>
      </trkpt>
      <trkpt lat="43.49198" lon="-1.45344">
        <ele>3.89</ele>
        <time>2021-06-06T03:34:47Z</time>
      </trkpt>
      <trkpt lat="43.49187" lon="-1.45345">
        <ele>3.87</ele>
        <time>2021-06-06T03:34:49Z</time>
      </trkpt>
      <trkpt lat="43.4918" lon="-1.45342">
        <ele>3.82</ele>
        <time>2021-06-06T03:34:52Z</time>
      </trkpt>
      <trkpt lat="43.49172" lon="-1.45336">
        <ele>3.85</ele>
        <time>2021-06-06T03:34:54Z</time>
      </trkpt>
      <trkpt lat="43.49161" lon="-1.45333">
        <ele>3.77</ele>
        <time>2021-06-06T03:34:56Z</time>
      </trkpt>
      <trkpt lat="43.49148" lon="-1.4534">
        <ele>3.49</ele>
        <time>2021-06-06T03:34:59Z</time>
      </trkpt>
      <trkpt lat="43.49137" lon="-1.45349">
        <ele>3.56</ele>
        <time>2021-06-06T03:35:01Z</time>
      </trkpt>
      <trkpt lat="43.49142" lon="-1.45357">
        <ele>3.87</ele>
        <time>2021-06-06T03:35:07Z</time>
      </trkpt>
      <trkpt lat="43.49145" lon="-1.45366">
        <ele>4</ele>
        <time>2021-06-06T03:35:12Z</time>
      </trkpt>
      <trkpt lat="43.49146" lon="-1.45379">
        <ele>4</ele>
        <time>2021-06-06T03:35:17Z</time>
      </trkpt>
      <trkpt lat="43.49144" lon="-1.4539">
        <ele>3.99</ele>
        <time>2021-06-06T03:35:23Z</time>
      </trkpt>
      <trkpt lat="43.49139" lon="-1.45403">
        <ele>4</ele>
        <time>2021-06-06T03:35:28Z</time>
      </trkpt>
      <trkpt lat="43.49132" lon="-1.45411">
        <ele>4.44</ele>
        <time>2021-06-06T03:35:33Z</time>
      </trkpt>
      <trkpt lat="43.49122" lon="-1.45415">
        <ele>5.21</ele>
        <time>2021-06-06T03:35:39Z</time>
      </trkpt>
      <trkpt lat="43.49115" lon="-1.45416">
        <ele>5.72</ele>
        <time>2021-06-06T03:35:44Z</time>
      </trkpt>
      <trkpt lat="43.49106" lon="-1.45413">
        <ele>5.7</ele>
        <time>2021-06-06T03:35:49Z</time>
      </trkpt>
      <trkpt lat="43.49094" lon="-1.45427">
        <ele>5.01</ele>
        <time>2021-06-06T03:35:55Z</time>
      </trkpt>
      <trkpt lat="43.49068" lon="-1.45468">
        <ele>2.41</ele>
        <time>2021-06-06T03:36:00Z</time>
      </trkpt>
      <trkpt lat="43.48956" lon="-1.45691">
        <ele>3.59</ele>
        <time>2021-06-06T03:36:05Z</time>
      </trkpt>
      <trkpt lat="43.48916" lon="-1.45766">
        <ele>4.02</ele>
        <time>2021-06-06T03:36:11Z</time>
      </trkpt>
      <trkpt lat="43.48892" lon="-1.45814">
        <ele>5.27</ele>
        <time>2021-06-06T03:36:16Z</time>
      </trkpt>
      <trkpt lat="43.48823" lon="-1.45985">
        <ele>6.17</ele>
        <time>2021-06-06T03:36:22Z</time>
      </trkpt>
      <trkpt lat="43.48698" lon="-1.46303">
        <ele>8.36</ele>
        <time>2021-06-06T03:36:27Z</time>
      </trkpt>
      <trkpt lat="43.48647" lon="-1.46437">
        <ele>22.31</ele>
        <time>2021-06-06T03:36:32Z</time>
      </trkpt>
      <trkpt lat="43.48637" lon="-1.46469">
        <ele>21.36</ele>
        <time>2021-06-06T03:36:38Z</time>
      </trkpt>
      <trkpt lat="43.48629" lon="-1.46511">
        <ele>24.81</ele>
        <time>2021-06-06T03:36:43Z</time>
      </trkpt>
      <trkpt lat="43.48626" lon="-1.46616">
        <ele>26.29</ele>
        <time>2021-06-06T03:36:48Z</time>
      </trkpt>
      <trkpt lat="43.48627" lon="-1.46637">
        <ele>25.51</ele>
        <time>2021-06-06T03:36:54Z</time>
      </trkpt>
      <trkpt lat="43.48631" lon="-1.46659">
        <ele>26.02</ele>
        <time>2021-06-06T03:36:59Z</time>
      </trkpt>
      <trkpt lat="43.48642" lon="-1.46696">
        <ele>26.19</ele>
        <time>2021-06-06T03:37:04Z</time>
      </trkpt>
      <trkpt lat="43.48665" lon="-1.46759">
        <ele>23.53</ele>
        <time>2021-06-06T03:37:10Z</time>
      </trkpt>
      <trkpt lat="43.48687" lon="-1.46834">
        <ele>17.12</ele>
        <time>2021-06-06T03:37:15Z</time>
      </trkpt>
      <trkpt lat="43.48696" lon="-1.4686">
        <ele>17.3</ele>
        <time>2021-06-06T03:37:20Z</time>
      </trkpt>
      <trkpt lat="43.48702" lon="-1.46871">
        <ele>17.75</ele>
        <time>2021-06-06T03:37:26Z</time>
      </trkpt>
      <trkpt lat="43.4871" lon="-1.46875">
        <ele>18.74</ele>
        <time>2021-06-06T03:37:30Z</time>
      </trkpt>
      <trkpt lat="43.48713" lon="-1.4688">
        <ele>19.06</ele>
        <time>2021-06-06T03:37:34Z</time>
      </trkpt>
      <trkpt lat="43.48717" lon="-1.46891">
        <ele>19.09</ele>
        <time>2021-06-06T03:37:37Z</time>
      </trkpt>
      <trkpt lat="43.48717" lon="-1.469">
        <ele>18.19</ele>
        <time>2021-06-06T03:37:41Z</time>
      </trkpt>
      <trkpt lat="43.48715" lon="-1.46908">
        <ele>17.08</ele>
        <time>2021-06-06T03:37:45Z</time>
      </trkpt>
      <trkpt lat="43.48711" lon="-1.46914">
        <ele>15.96</ele>
        <time>2021-06-06T03:37:49Z</time>
      </trkpt>
      <trkpt lat="43.48705" lon="-1.46918">
        <ele>15.02</ele>
        <time>2021-06-06T03:37:53Z</time>
      </trkpt>
      <trkpt lat="43.4869" lon="-1.46968">
        <ele>11.8</ele>
        <time>2021-06-06T03:37:57Z</time>
      </trkpt>
      <trkpt lat="43.48681" lon="-1.47005">
        <ele>10.94</ele>
        <time>2021-06-06T03:38:01Z</time>
      </trkpt>
      <trkpt lat="43.48681" lon="-1.47012">
        <ele>10.81</ele>
        <time>2021-06-06T03:38:04Z</time>
      </trkpt>
      <trkpt lat="43.48659" lon="-1.47067">
        <ele>8.01</ele>
        <time>2021-06-06T03:38:08Z</time>
      </trkpt>
      <trkpt lat="43.48629" lon="-1.47124">
        <ele>5.25</ele>
        <time>2021-06-06T03:38:12Z</time>
      </trkpt>
      <trkpt lat="43.4861" lon="-1.47153">
        <ele>5.51</ele>
        <time>2021-06-06T03:38:16Z</time>
      </trkpt>
      <trkpt lat="43.4859" lon="-1.47195">
        <ele>7.76</ele>
        <time>2021-06-06T03:38:20Z</time>
      </trkpt>
      <trkpt lat="43.48582" lon="-1.47224">
        <ele>7.9</ele>
        <time>2021-06-06T03:38:24Z</time>
      </trkpt>
      <trkpt lat="43.4858" lon="-1.4724">
        <ele>7.23</ele>
        <time>2021-06-06T03:38:28Z</time>
      </trkpt>
      <trkpt lat="43.48579" lon="-1.47273">
        <ele>5.87</ele>
        <time>2021-06-06T03:38:31Z</time>
      </trkpt>
      <trkpt lat="43.4858" lon="-1.47299">
        <ele>4.24</ele>
        <time>2021-06-06T03:38:35Z</time>
      </trkpt>
      <trkpt lat="43.48628" lon="-1.47658">
        <ele>8.05</ele>
        <time>2021-06-06T03:38:39Z</time>
      </trkpt>
      <trkpt lat="43.48634" lon="-1.47697">
        <ele>15.07</ele>
        <time>2021-06-06T03:38:43Z</time>
      </trkpt>
      <trkpt lat="43.48657" lon="-1.4776">
        <ele>17.69</ele>
        <time>2021-06-06T03:38:47Z</time>
      </trkpt>
      <trkpt lat="43.48663" lon="-1.47785">
        <ele>16.81</ele>
        <time>2021-06-06T03:38:51Z</time>
      </trkpt>
      <trkpt lat="43.48665" lon="-1.47814">
        <ele>16.19</ele>
        <time>2021-06-06T03:38:55Z</time>
      </trkpt>
      <trkpt lat="43.48665" lon="-1.47834">
        <ele>14.19</ele>
        <time>2021-06-06T03:38:58Z</time>
      </trkpt>
      <trkpt lat="43.48655" lon="-1.47926">
        <ele>13.18</ele>
        <time>2021-06-06T03:39:02Z</time>
      </trkpt>
      <trkpt lat="43.48657" lon="-1.47954">
        <ele>13.67</ele>
        <time>2021-06-06T03:39:06Z</time>
      </trkpt>
      <trkpt lat="43.48661" lon="-1.47972">
        <ele>13.38</ele>
        <time>2021-06-06T03:39:10Z</time>
      </trkpt>
      <trkpt lat="43.48668" lon="-1.47988">
        <ele>13</ele>
        <time>2021-06-06T03:39:14Z</time>
      </trkpt>
      <trkpt lat="43.48675" lon="-1.48001">
        <ele>13</ele>
        <time>2021-06-06T03:39:18Z</time>
      </trkpt>
      <trkpt lat="43.4869" lon="-1.4802">
        <ele>13</ele>
        <time>2021-06-06T03:39:22Z</time>
      </trkpt>
      <trkpt lat="43.48708" lon="-1.4805">
        <ele>13.49</ele>
        <time>2021-06-06T03:39:25Z</time>
      </trkpt>
      <trkpt lat="43.48731" lon="-1.48104">
        <ele>13</ele>
        <time>2021-06-06T03:39:29Z</time>
      </trkpt>
      <trkpt lat="43.48744" lon="-1.48126">
        <ele>13.44</ele>
        <time>2021-06-06T03:39:33Z</time>
      </trkpt>
      <trkpt lat="43.48755" lon="-1.48137">
        <ele>13.77</ele>
        <time>2021-06-06T03:39:37Z</time>
      </trkpt>
      <trkpt lat="43.4881" lon="-1.48161">
        <ele>15</ele>
        <time>2021-06-06T03:39:41Z</time>
      </trkpt>
      <trkpt lat="43.48821" lon="-1.48168">
        <ele>15.05</ele>
        <time>2021-06-06T03:39:45Z</time>
      </trkpt>
      <trkpt lat="43.48825" lon="-1.48174">
        <ele>15.33</ele>
        <time>2021-06-06T03:39:49Z</time>
      </trkpt>
      <trkpt lat="43.48835" lon="-1.48176">
        <ele>15.34</ele>
        <time>2021-06-06T03:39:55Z</time>
      </trkpt>
      <trkpt lat="43.48845" lon="-1.48182">
        <ele>15.55</ele>
        <time>2021-06-06T03:40:02Z</time>
      </trkpt>
      <trkpt lat="43.48853" lon="-1.48191">
        <ele>15.88</ele>
        <time>2021-06-06T03:40:08Z</time>
      </trkpt>
      <trkpt lat="43.48857" lon="-1.482">
        <ele>16.15</ele>
        <time>2021-06-06T03:40:15Z</time>
      </trkpt>
      <trkpt lat="43.48861" lon="-1.48211">
        <ele>16.57</ele>
        <time>2021-06-06T03:40:21Z</time>
      </trkpt>
      <trkpt lat="43.48862" lon="-1.48222">
        <ele>16.96</ele>
        <time>2021-06-06T03:40:28Z</time>
      </trkpt>
      <trkpt lat="43.48862" lon="-1.48235">
        <ele>16.98</ele>
        <time>2021-06-06T03:40:34Z</time>
      </trkpt>
      <trkpt lat="43.48858" lon="-1.4825">
        <ele>17</ele>
        <time>2021-06-06T03:40:41Z</time>
      </trkpt>
      <trkpt lat="43.48848" lon="-1.48268">
        <ele>17.3</ele>
        <time>2021-06-06T03:40:47Z</time>
      </trkpt>
      <trkpt lat="43.48833" lon="-1.48278">
        <ele>17.99</ele>
        <time>2021-06-06T03:40:54Z</time>
      </trkpt>
      <trkpt lat="43.48824" lon="-1.48279">
        <ele>18</ele>
        <time>2021-06-06T03:41:00Z</time>
      </trkpt>
      <trkpt lat="43.48794" lon="-1.48295">
        <ele>17.33</ele>
        <time>2021-06-06T03:41:07Z</time>
      </trkpt>
      <trkpt lat="43.48783" lon="-1.48305">
        <ele>16.37</ele>
        <time>2021-06-06T03:41:13Z</time>
      </trkpt>
      <trkpt lat="43.48772" lon="-1.48325">
        <ele>15.25</ele>
        <time>2021-06-06T03:41:20Z</time>
      </trkpt>
      <trkpt lat="43.48703" lon="-1.48633">
        <ele>23.15</ele>
        <time>2021-06-06T03:41:26Z</time>
      </trkpt>
      <trkpt lat="43.48661" lon="-1.48779">
        <ele>23.79</ele>
        <time>2021-06-06T03:41:33Z</time>
      </trkpt>
      <trkpt lat="43.48618" lon="-1.48969">
        <ele>5.44</ele>
        <time>2021-06-06T03:41:39Z</time>
      </trkpt>
      <trkpt lat="43.48585" lon="-1.49103">
        <ele>5.65</ele>
        <time>2021-06-06T03:41:46Z</time>
      </trkpt>
      <trkpt lat="43.48574" lon="-1.49157">
        <ele>7.65</ele>
        <time>2021-06-06T03:41:52Z</time>
      </trkpt>
      <trkpt lat="43.48561" lon="-1.49233">
        <ele>10.25</ele>
        <time>2021-06-06T03:41:59Z</time>
      </trkpt>
      <trkpt lat="43.48524" lon="-1.49412">
        <ele>17</ele>
        <time>2021-06-06T03:42:06Z</time>
      </trkpt>
      <trkpt lat="43.48492" lon="-1.49543">
        <ele>21.68</ele>
        <time>2021-06-06T03:42:12Z</time>
      </trkpt>
      <trkpt lat="43.48424" lon="-1.49855">
        <ele>17.5</ele>
        <time>2021-06-06T03:42:19Z</time>
      </trkpt>
      <trkpt lat="43.48347" lon="-1.50187">
        <ele>6.94</ele>
        <time>2021-06-06T03:42:25Z</time>
      </trkpt>
      <trkpt lat="43.48348" lon="-1.502">
        <ele>6.18</ele>
        <time>2021-06-06T03:42:32Z</time>
      </trkpt>
      <trkpt lat="43.48359" lon="-1.50205">
        <ele>5.65</ele>
        <time>2021-06-06T03:42:36Z</time>
      </trkpt>
      <trkpt lat="43.48367" lon="-1.50214">
        <ele>5.18</ele>
        <time>2021-06-06T03:42:41Z</time>
      </trkpt>
      <trkpt lat="43.4837" lon="-1.50223">
        <ele>5.02</ele>
        <time>2021-06-06T03:42:46Z</time>
      </trkpt>
      <trkpt lat="43.48372" lon="-1.50233">
        <ele>5.23</ele>
        <time>2021-06-06T03:42:51Z</time>
      </trkpt>
      <trkpt lat="43.48372" lon="-1.50243">
        <ele>5.47</ele>
        <time>2021-06-06T03:42:55Z</time>
      </trkpt>
      <trkpt lat="43.48369" lon="-1.50255">
        <ele>5.82</ele>
        <time>2021-06-06T03:43:00Z</time>
      </trkpt>
      <trkpt lat="43.48363" lon="-1.50264">
        <ele>6</ele>
        <time>2021-06-06T03:43:05Z</time>
      </trkpt>
      <trkpt lat="43.48358" lon="-1.50269">
        <ele>5.84</ele>
        <time>2021-06-06T03:43:10Z</time>
      </trkpt>
      <trkpt lat="43.48347" lon="-1.50274">
        <ele>5.4</ele>
        <time>2021-06-06T03:43:14Z</time>
      </trkpt>
      <trkpt lat="43.48337" lon="-1.50272">
        <ele>4.94</ele>
        <time>2021-06-06T03:43:19Z</time>
      </trkpt>
      <trkpt lat="43.4833" lon="-1.50277">
        <ele>4.86</ele>
        <time>2021-06-06T03:43:24Z</time>
      </trkpt>
      <trkpt lat="43.48321" lon="-1.50294">
        <ele>5.13</ele>
        <time>2021-06-06T03:43:29Z</time>
      </trkpt>
      <trkpt lat="43.48315" lon="-1.50316">
        <ele>5.58</ele>
        <time>2021-06-06T03:43:33Z</time>
      </trkpt>
      <trkpt lat="43.48274" lon="-1.50491">
        <ele>9.67</ele>
        <time>2021-06-06T03:43:38Z</time>
      </trkpt>
      <trkpt lat="43.48234" lon="-1.50697">
        <ele>9.37</ele>
        <time>2021-06-06T03:43:43Z</time>
      </trkpt>
      <trkpt lat="43.48226" lon="-1.50723">
        <ele>9</ele>
        <time>2021-06-06T03:43:48Z</time>
      </trkpt>
      <trkpt lat="43.48198" lon="-1.50856">
        <ele>12.79</ele>
        <time>2021-06-06T03:43:52Z</time>
      </trkpt>
      <trkpt lat="43.48171" lon="-1.50973">
        <ele>13.37</ele>
        <time>2021-06-06T03:43:57Z</time>
      </trkpt>
      <trkpt lat="43.48157" lon="-1.51029">
        <ele>14.69</ele>
        <time>2021-06-06T03:44:02Z</time>
      </trkpt>
      <trkpt lat="43.48147" lon="-1.51059">
        <ele>15.39</ele>
        <time>2021-06-06T03:44:07Z</time>
      </trkpt>
      <trkpt lat="43.48111" lon="-1.51213">
        <ele>17.65</ele>
        <time>2021-06-06T03:44:12Z</time>
      </trkpt>
      <trkpt lat="43.48105" lon="-1.51229">
        <ele>17.83</ele>
        <time>2021-06-06T03:44:16Z</time>
      </trkpt>
      <trkpt lat="43.48069" lon="-1.51388">
        <ele>18.9</ele>
        <time>2021-06-06T03:44:21Z</time>
      </trkpt>
      <trkpt lat="43.48052" lon="-1.51459">
        <ele>21.44</ele>
        <time>2021-06-06T03:44:26Z</time>
      </trkpt>
      <trkpt lat="43.48043" lon="-1.51486">
        <ele>21.8</ele>
        <time>2021-06-06T03:44:31Z</time>
      </trkpt>
      <trkpt lat="43.48039" lon="-1.51528">
        <ele>22.41</ele>
        <time>2021-06-06T03:44:35Z</time>
      </trkpt>
      <trkpt lat="43.48029" lon="-1.51573">
        <ele>22.02</ele>
        <time>2021-06-06T03:44:40Z</time>
      </trkpt>
      <trkpt lat="43.48014" lon="-1.51623">
        <ele>22</ele>
        <time>2021-06-06T03:44:45Z</time>
      </trkpt>
      <trkpt lat="43.47989" lon="-1.51734">
        <ele>25.66</ele>
        <time>2021-06-06T03:44:50Z</time>
      </trkpt>
      <trkpt lat="43.47978" lon="-1.51786">
        <ele>28.16</ele>
        <time>2021-06-06T03:44:54Z</time>
      </trkpt>
      <trkpt lat="43.47927" lon="-1.52005">
        <ele>29.21</ele>
        <time>2021-06-06T03:44:59Z</time>
      </trkpt>
      <trkpt lat="43.479" lon="-1.52074">
        <ele>27.73</ele>
        <time>2021-06-06T03:45:04Z</time>
      </trkpt>
      <trkpt lat="43.47869" lon="-1.5215">
        <ele>29.39</ele>
        <time>2021-06-06T03:45:09Z</time>
      </trkpt>
      <trkpt lat="43.47814" lon="-1.52274">
        <ele>31.09</ele>
        <time>2021-06-06T03:45:13Z</time>
      </trkpt>
      <trkpt lat="43.478" lon="-1.52311">
        <ele>29.83</ele>
        <time>2021-06-06T03:45:18Z</time>
      </trkpt>
      <trkpt lat="43.47791" lon="-1.52344">
        <ele>30.39</ele>
        <time>2021-06-06T03:45:23Z</time>
      </trkpt>
      <trkpt lat="43.4779" lon="-1.52374">
        <ele>31.45</ele>
        <time>2021-06-06T03:45:28Z</time>
      </trkpt>
      <trkpt lat="43.47795" lon="-1.52383">
        <ele>31.78</ele>
        <time>2021-06-06T03:45:30Z</time>
      </trkpt>
      <trkpt lat="43.47796" lon="-1.52394">
        <ele>32.19</ele>
        <time>2021-06-06T03:45:33Z</time>
      </trkpt>
      <trkpt lat="43.47791" lon="-1.52409">
        <ele>32.74</ele>
        <time>2021-06-06T03:45:35Z</time>
      </trkpt>
      <trkpt lat="43.47787" lon="-1.52416">
        <ele>32.97</ele>
        <time>2021-06-06T03:45:38Z</time>
      </trkpt>
      <trkpt lat="43.47782" lon="-1.52419">
        <ele>33.27</ele>
        <time>2021-06-06T03:45:40Z</time>
      </trkpt>
      <trkpt lat="43.47777" lon="-1.52422">
        <ele>33.56</ele>
        <time>2021-06-06T03:45:43Z</time>
      </trkpt>
      <trkpt lat="43.47771" lon="-1.52421">
        <ele>33.64</ele>
        <time>2021-06-06T03:45:45Z</time>
      </trkpt>
      <trkpt lat="43.47753" lon="-1.52431">
        <ele>34.97</ele>
        <time>2021-06-06T03:45:48Z</time>
      </trkpt>
      <trkpt lat="43.47741" lon="-1.52447">
        <ele>35.76</ele>
        <time>2021-06-06T03:45:50Z</time>
      </trkpt>
      <trkpt lat="43.4766" lon="-1.52633">
        <ele>41.31</ele>
        <time>2021-06-06T03:45:53Z</time>
      </trkpt>
      <trkpt lat="43.47606" lon="-1.52625">
        <ele>39.59</ele>
        <time>2021-06-06T03:45:58Z</time>
      </trkpt>
      <trkpt lat="43.47529" lon="-1.52638">
        <ele>46.9</ele>
        <time>2021-06-06T03:46:04Z</time>
      </trkpt>
      <trkpt lat="43.47525" lon="-1.52642">
        <ele>47.31</ele>
        <time>2021-06-06T03:46:10Z</time>
      </trkpt>
      <trkpt lat="43.47498" lon="-1.52735">
        <ele>56.54</ele>
        <time>2021-06-06T03:46:15Z</time>
      </trkpt>
      <trkpt lat="43.47492" lon="-1.52739">
        <ele>58.04</ele>
        <time>2021-06-06T03:46:21Z</time>
      </trkpt>
      <trkpt lat="43.47482" lon="-1.5274">
        <ele>60.74</ele>
        <time>2021-06-06T03:46:26Z</time>
      </trkpt>
      <trkpt lat="43.47467" lon="-1.52733">
        <ele>64.29</ele>
        <time>2021-06-06T03:46:32Z</time>
      </trkpt>
      <trkpt lat="43.47449" lon="-1.52714">
        <ele>66.39</ele>
        <time>2021-06-06T03:46:38Z</time>
      </trkpt>
      <trkpt lat="43.47431" lon="-1.52683">
        <ele>67.76</ele>
        <time>2021-06-06T03:46:43Z</time>
      </trkpt>
      <trkpt lat="43.47375" lon="-1.5264">
        <ele>67.08</ele>
        <time>2021-06-06T03:46:49Z</time>
      </trkpt>
      <trkpt lat="43.47361" lon="-1.52632">
        <ele>67.75</ele>
        <time>2021-06-06T03:46:54Z</time>
      </trkpt>
      <trkpt lat="43.47341" lon="-1.52629">
        <ele>68.64</ele>
        <time>2021-06-06T03:47:00Z</time>
      </trkpt>
      <trkpt lat="43.47331" lon="-1.52637">
        <ele>68.84</ele>
        <time>2021-06-06T03:47:06Z</time>
      </trkpt>
      <trkpt lat="43.47321" lon="-1.52659">
        <ele>68.12</ele>
        <time>2021-06-06T03:47:11Z</time>
      </trkpt>
      <trkpt lat="43.47293" lon="-1.52664">
        <ele>66.53</ele>
        <time>2021-06-06T03:47:17Z</time>
      </trkpt>
      <trkpt lat="43.47252" lon="-1.52667">
        <ele>66.93</ele>
        <time>2021-06-06T03:47:23Z</time>
      </trkpt>
      <trkpt lat="43.47217" lon="-1.52675">
        <ele>70.46</ele>
        <time>2021-06-06T03:47:28Z</time>
      </trkpt>
      <trkpt lat="43.47182" lon="-1.52675">
        <ele>70.31</ele>
        <time>2021-06-06T03:47:34Z</time>
      </trkpt>
      <trkpt lat="43.47164" lon="-1.52672">
        <ele>68.77</ele>
        <time>2021-06-06T03:47:39Z</time>
      </trkpt>
      <trkpt lat="43.4714" lon="-1.52659">
        <ele>67.81</ele>
        <time>2021-06-06T03:47:45Z</time>
      </trkpt>
    </trkseg>
  </trk>
</gpx>